<?xml version='1.0' encoding='UTF-8'?><gpx version="1.1" creator="JPX - https://github.com/jenetics/jpx" xmlns="http://www.topografix.com/GPX/1/1"><trk><trkseg><trkpt lat="46.56152633712426" lon="12.570745225998227"><ele>923.0000000000001</ele><time>2026-04-23T08:01:27Z</time></trkpt><trkpt lat="46.56158037852342" lon="12.570636598076016"><ele>923.0</ele><time>2026-04-23T08:02:01Z</time></trkpt><trkpt lat="46.56160187749582" lon="12.570519886575521"><ele>923.0</ele><time>2026-04-23T08:02:03Z</time></trkpt><trkpt lat="46.561598139903616" lon="12.57039853345965"><ele>923.0</ele><time>2026-04-23T08:02:05Z</time></trkpt><trkpt lat="46.56155657128544" lon="12.570327256580505"><ele>923.0000000000001</ele><time>2026-04-23T08:02:07Z</time></trkpt><trkpt lat="46.561484258623004" lon="12.57029397444437"><ele>923.0</ele><time>2026-04-23T08:02:09Z</time></trkpt><trkpt lat="46.56138123903079" lon="12.570354183790489"><ele>923.0</ele><time>2026-04-23T08:02:11Z</time></trkpt><trkpt lat="46.5612915314543" lon="12.570404114148216"><ele>923.0</ele><time>2026-04-23T08:02:13Z</time></trkpt><trkpt lat="46.561198443025106" lon="12.570389108280674"><ele>923.0</ele><time>2026-04-23T08:02:14.999Z</time></trkpt><trkpt lat="46.56110543338948" lon="12.570367188273236"><ele>923.0</ele><time>2026-04-23T08:02:16.999Z</time></trkpt><trkpt lat="46.56101569738514" lon="12.570351915615591"><ele>923.0</ele><time>2026-04-23T08:02:18.999Z</time></trkpt><trkpt lat="46.56091933413452" lon="12.57034402593746"><ele>926.5000000000001</ele><time>2026-04-23T08:02:20.999Z</time></trkpt><trkpt lat="46.56082946436201" lon="12.5703236217273"><ele>930.0</ele><time>2026-04-23T08:02:22.999Z</time></trkpt><trkpt lat="46.56077911427906" lon="12.570259978445288"><ele>933.5</ele><time>2026-04-23T08:02:26.999Z</time></trkpt><trkpt lat="46.5607719366024" lon="12.570167900471523"><ele>937.0</ele><time>2026-04-23T08:02:27.999Z</time></trkpt><trkpt lat="46.56075860540157" lon="12.570059867718683"><ele>940.5000000000001</ele><time>2026-04-23T08:02:28.999Z</time></trkpt><trkpt lat="46.56074098575093" lon="12.569938775783037"><ele>944.0</ele><time>2026-04-23T08:02:29.999Z</time></trkpt><trkpt lat="46.560727693605905" lon="12.569804356225264"><ele>944.0</ele><time>2026-04-23T08:02:30.999Z</time></trkpt><trkpt lat="46.56071549780233" lon="12.569666620687688"><ele>944.0000000000001</ele><time>2026-04-23T08:02:31.999Z</time></trkpt><trkpt lat="46.56069706800339" lon="12.569515618183555"><ele>944.0000000000001</ele><time>2026-04-23T08:02:32.999Z</time></trkpt><trkpt lat="46.560689348810456" lon="12.569367110111537"><ele>944.0</ele><time>2026-04-23T08:02:33.999Z</time></trkpt><trkpt lat="46.56067740260692" lon="12.569212860828321"><ele>944.0</ele><time>2026-04-23T08:02:34.999Z</time></trkpt><trkpt lat="46.56066537155396" lon="12.569057911090546"><ele>941.2</ele><time>2026-04-23T08:02:35.999Z</time></trkpt><trkpt lat="46.56065014318336" lon="12.568907068539817"><ele>938.4000000000001</ele><time>2026-04-23T08:02:36.999Z</time></trkpt><trkpt lat="46.56063264112505" lon="12.568758679411532"><ele>935.6</ele><time>2026-04-23T08:02:37.999Z</time></trkpt><trkpt lat="46.56061160979913" lon="12.568613357860453"><ele>932.8</ele><time>2026-04-23T08:02:38.999Z</time></trkpt><trkpt lat="46.560584779966376" lon="12.568473114380057"><ele>930.0</ele><time>2026-04-23T08:02:39.999Z</time></trkpt><trkpt lat="46.560554993017625" lon="12.568333883151123"><ele>929.0</ele><time>2026-04-23T08:02:40.999Z</time></trkpt><trkpt lat="46.56052987930663" lon="12.568188274496482"><ele>928.0</ele><time>2026-04-23T08:02:41.999Z</time></trkpt><trkpt lat="46.56050715569981" lon="12.56803746101002"><ele>927.0</ele><time>2026-04-23T08:02:42.999Z</time></trkpt><trkpt lat="46.56047599806952" lon="12.567888870442033"><ele>926.0</ele><time>2026-04-23T08:02:43.999Z</time></trkpt><trkpt lat="46.560428808329945" lon="12.56774651010381"><ele>925.0</ele><time>2026-04-23T08:02:44.999Z</time></trkpt><trkpt lat="46.5603752771854" lon="12.567602645313203"><ele>926.6</ele><time>2026-04-23T08:02:45.999Z</time></trkpt><trkpt lat="46.560308976095996" lon="12.567477808950501"><ele>928.2</ele><time>2026-04-23T08:02:46.999Z</time></trkpt><trkpt lat="46.56025511939661" lon="12.567346200720836"><ele>929.8</ele><time>2026-04-23T08:02:47.999Z</time></trkpt><trkpt lat="46.560210075558025" lon="12.567202058497863"><ele>931.4</ele><time>2026-04-23T08:02:48.999Z</time></trkpt><trkpt lat="46.560178445482556" lon="12.567045466118637"><ele>933.0</ele><time>2026-04-23T08:02:49.999Z</time></trkpt><trkpt lat="46.560166127954595" lon="12.566878789312588"><ele>933.0</ele><time>2026-04-23T08:02:50.999Z</time></trkpt><trkpt lat="46.56015574947073" lon="12.566707614060697"><ele>933.0</ele><time>2026-04-23T08:02:51.999Z</time></trkpt><trkpt lat="46.56014028145738" lon="12.566534620586523"><ele>933.0</ele><time>2026-04-23T08:02:52.999Z</time></trkpt><trkpt lat="46.560119010154786" lon="12.566364046507884"><ele>933.0</ele><time>2026-04-23T08:02:53.999Z</time></trkpt><trkpt lat="46.560099067661675" lon="12.566193968221084"><ele>931.25</ele><time>2026-04-23T08:02:54.999Z</time></trkpt><trkpt lat="46.56007342152439" lon="12.566024199790537"><ele>929.5</ele><time>2026-04-23T08:02:55.999Z</time></trkpt><trkpt lat="46.5600431935831" lon="12.565855582210043"><ele>927.75</ele><time>2026-04-23T08:02:56.999Z</time></trkpt><trkpt lat="46.5600117237334" lon="12.565689856557984"><ele>926.0</ele><time>2026-04-23T08:02:57.999Z</time></trkpt><trkpt lat="46.55997687622967" lon="12.565527764058931"><ele>926.0</ele><time>2026-04-23T08:02:58.999Z</time></trkpt><trkpt lat="46.559951271257795" lon="12.565363960731373"><ele>925.9999999999999</ele><time>2026-04-23T08:02:59.999Z</time></trkpt><trkpt lat="46.55991621360463" lon="12.565212204492468"><ele>925.9999999999999</ele><time>2026-04-23T08:03:00.999Z</time></trkpt><trkpt lat="46.559881371438955" lon="12.565064860003396"><ele>926.0</ele><time>2026-04-23T08:03:01.999Z</time></trkpt><trkpt lat="46.55984353372393" lon="12.564923071201559"><ele>926.0</ele><time>2026-04-23T08:03:02.999Z</time></trkpt><trkpt lat="46.5598080185577" lon="12.564783725387503"><ele>924.8</ele><time>2026-04-23T08:03:03.999Z</time></trkpt><trkpt lat="46.55977287230077" lon="12.564649064139491"><ele>923.5999999999999</ele><time>2026-04-23T08:03:04.999Z</time></trkpt><trkpt lat="46.5597340995283" lon="12.564514946437695"><ele>922.4</ele><time>2026-04-23T08:03:05.999Z</time></trkpt><trkpt lat="46.559695859151375" lon="12.564387029005568"><ele>921.2</ele><time>2026-04-23T08:03:06.999Z</time></trkpt><trkpt lat="46.559658353394504" lon="12.56426156906086"><ele>920.0</ele><time>2026-04-23T08:03:07.999Z</time></trkpt><trkpt lat="46.5596195598061" lon="12.56414242060181"><ele>919.9999999999999</ele><time>2026-04-23T08:03:08.999Z</time></trkpt><trkpt lat="46.55958373192653" lon="12.564031919843847"><ele>920.0</ele><time>2026-04-23T08:03:09.999Z</time></trkpt><trkpt lat="46.55953680094882" lon="12.563939159281679"><ele>919.9999999999999</ele><time>2026-04-23T08:03:10.999Z</time></trkpt><trkpt lat="46.55950963700254" lon="12.563831805184277"><ele>919.9999999999999</ele><time>2026-04-23T08:03:11.999Z</time></trkpt><trkpt lat="46.55948101619135" lon="12.56373812402064"><ele>920.0</ele><time>2026-04-23T08:03:12.999Z</time></trkpt><trkpt lat="46.55945672786249" lon="12.563651069682516"><ele>919.9999999999999</ele><time>2026-04-23T08:03:13.999Z</time></trkpt><trkpt lat="46.55943935078409" lon="12.563562952449864"><ele>919.9999999999999</ele><time>2026-04-23T08:03:14.999Z</time></trkpt><trkpt lat="46.55942110522749" lon="12.563471764349886"><ele>920.6666666666667</ele><time>2026-04-23T08:03:15.999Z</time></trkpt><trkpt lat="46.55939946189193" lon="12.563373665871774"><ele>921.3333333333334</ele><time>2026-04-23T08:03:16.999Z</time></trkpt><trkpt lat="46.559385499869734" lon="12.56326778417786"><ele>922.0</ele><time>2026-04-23T08:03:17.999Z</time></trkpt><trkpt lat="46.55935225252109" lon="12.563136934425232"><ele>922.6666666666667</ele><time>2026-04-23T08:03:18.999Z</time></trkpt><trkpt lat="46.559330373418454" lon="12.563005161633862"><ele>923.3333333333334</ele><time>2026-04-23T08:03:19.999Z</time></trkpt><trkpt lat="46.559313947430105" lon="12.562864222737886"><ele>924.0</ele><time>2026-04-23T08:03:20.998Z</time></trkpt><trkpt lat="46.559295107005646" lon="12.562715438644444"><ele>924.0</ele><time>2026-04-23T08:03:21.998Z</time></trkpt><trkpt lat="46.55928724235689" lon="12.562562030771504"><ele>924.0000000000001</ele><time>2026-04-23T08:03:22.998Z</time></trkpt><trkpt lat="46.559293940461856" lon="12.562404892399082"><ele>924.0000000000001</ele><time>2026-04-23T08:03:24Z</time></trkpt><trkpt lat="46.55930411510725" lon="12.562245598103367"><ele>924.0</ele><time>2026-04-23T08:03:25Z</time></trkpt><trkpt lat="46.55928097987367" lon="12.562085605271541"><ele>924.0</ele><time>2026-04-23T08:03:26Z</time></trkpt><trkpt lat="46.55928960648826" lon="12.561911807601058"><ele>922.5</ele><time>2026-04-23T08:03:27Z</time></trkpt><trkpt lat="46.5593296575109" lon="12.561751838703136"><ele>921.0</ele><time>2026-04-23T08:03:28Z</time></trkpt><trkpt lat="46.55934037334935" lon="12.561579544348913"><ele>919.5</ele><time>2026-04-23T08:03:29Z</time></trkpt><trkpt lat="46.559325639529824" lon="12.561415687379489"><ele>918.0</ele><time>2026-04-23T08:03:30Z</time></trkpt><trkpt lat="46.559287954749266" lon="12.561274106017862"><ele>917.2</ele><time>2026-04-23T08:03:31Z</time></trkpt><trkpt lat="46.559275800999416" lon="12.56111682491811"><ele>916.4</ele><time>2026-04-23T08:03:32Z</time></trkpt><trkpt lat="46.5592365294399" lon="12.56097081624625"><ele>915.6000000000001</ele><time>2026-04-23T08:03:33Z</time></trkpt><trkpt lat="46.559215478925566" lon="12.560818907050171"><ele>914.8000000000001</ele><time>2026-04-23T08:03:34Z</time></trkpt><trkpt lat="46.55918538183406" lon="12.56066859077673"><ele>914.0</ele><time>2026-04-23T08:03:35Z</time></trkpt><trkpt lat="46.559154409438435" lon="12.560517413748169"><ele>914.0</ele><time>2026-04-23T08:03:36Z</time></trkpt><trkpt lat="46.55912697463505" lon="12.56036825252432"><ele>914.0000000000001</ele><time>2026-04-23T08:03:37Z</time></trkpt><trkpt lat="46.55909270125827" lon="12.560222542537437"><ele>914.0000000000001</ele><time>2026-04-23T08:03:38Z</time></trkpt><trkpt lat="46.559052296451235" lon="12.56008075084428"><ele>914.0</ele><time>2026-04-23T08:03:39Z</time></trkpt><trkpt lat="46.559007740517096" lon="12.559935797348318"><ele>914.0</ele><time>2026-04-23T08:03:40Z</time></trkpt><trkpt lat="46.558962183987205" lon="12.559790197613"><ele>914.0</ele><time>2026-04-23T08:03:41Z</time></trkpt><trkpt lat="46.55892084433577" lon="12.559641653811736"><ele>914.0000000000001</ele><time>2026-04-23T08:03:42Z</time></trkpt><trkpt lat="46.558874891709266" lon="12.55949346709674"><ele>914.0000000000001</ele><time>2026-04-23T08:03:43Z</time></trkpt><trkpt lat="46.55882725179386" lon="12.559344596932839"><ele>914.0</ele><time>2026-04-23T08:03:44Z</time></trkpt><trkpt lat="46.5587905527486" lon="12.559187371814183"><ele>914.0</ele><time>2026-04-23T08:03:45Z</time></trkpt><trkpt lat="46.558769074460045" lon="12.559014932018266"><ele>914.0</ele><time>2026-04-23T08:03:46Z</time></trkpt><trkpt lat="46.5587549009014" lon="12.558839604503785"><ele>914.0</ele><time>2026-04-23T08:03:47Z</time></trkpt><trkpt lat="46.55874475797488" lon="12.558669638754516"><ele>914.0</ele><time>2026-04-23T08:03:48Z</time></trkpt><trkpt lat="46.55873620889047" lon="12.558499351491037"><ele>914.0</ele><time>2026-04-23T08:03:49Z</time></trkpt><trkpt lat="46.558726290873736" lon="12.558331860004387"><ele>913.6</ele><time>2026-04-23T08:03:50Z</time></trkpt><trkpt lat="46.55871545768645" lon="12.558169354242452"><ele>913.2</ele><time>2026-04-23T08:03:51Z</time></trkpt><trkpt lat="46.55870067823112" lon="12.558007715519759"><ele>912.8000000000001</ele><time>2026-04-23T08:03:52Z</time></trkpt><trkpt lat="46.55868995035073" lon="12.557848953081264"><ele>912.4000000000001</ele><time>2026-04-23T08:03:53Z</time></trkpt><trkpt lat="46.558681001106756" lon="12.557695354988624"><ele>912.0</ele><time>2026-04-23T08:03:54Z</time></trkpt><trkpt lat="46.558672803211444" lon="12.557559581120755"><ele>911.8333333333334</ele><time>2026-04-23T08:03:55Z</time></trkpt><trkpt lat="46.55866520715547" lon="12.557437866950412"><ele>911.6666666666667</ele><time>2026-04-23T08:03:56Z</time></trkpt><trkpt lat="46.55865672877222" lon="12.557346458017838"><ele>911.5</ele><time>2026-04-23T08:03:57Z</time></trkpt><trkpt lat="46.55864002082595" lon="12.557250747888265"><ele>911.3333333333334</ele><time>2026-04-23T08:03:59Z</time></trkpt><trkpt lat="46.55856236658399" lon="12.557179894228774"><ele>911.1666666666667</ele><time>2026-04-23T08:04:02Z</time></trkpt><trkpt lat="46.558452549056526" lon="12.55712555339338"><ele>911.0</ele><time>2026-04-23T08:04:04Z</time></trkpt><trkpt lat="46.55842046014631" lon="12.557033500227806"><ele>911.0000000000001</ele><time>2026-04-23T08:04:05Z</time></trkpt><trkpt lat="46.55838260229921" lon="12.556938025011872"><ele>911.0</ele><time>2026-04-23T08:04:06Z</time></trkpt><trkpt lat="46.558333295556196" lon="12.556842652384008"><ele>911.0</ele><time>2026-04-23T08:04:07Z</time></trkpt><trkpt lat="46.55828296976285" lon="12.556744537290717"><ele>911.0</ele><time>2026-04-23T08:04:08Z</time></trkpt><trkpt lat="46.558235144333054" lon="12.55663992201415"><ele>911.0000000000001</ele><time>2026-04-23T08:04:09Z</time></trkpt><trkpt lat="46.55818180586138" lon="12.556531670022258"><ele>911.0</ele><time>2026-04-23T08:04:10Z</time></trkpt><trkpt lat="46.558128804184236" lon="12.556424234799215"><ele>911.0</ele><time>2026-04-23T08:04:11Z</time></trkpt><trkpt lat="46.55807754341705" lon="12.55632077670139"><ele>910.9999999999999</ele><time>2026-04-23T08:04:12Z</time></trkpt><trkpt lat="46.55802039449872" lon="12.556211935269971"><ele>910.9999999999999</ele><time>2026-04-23T08:04:13Z</time></trkpt><trkpt lat="46.55795973240942" lon="12.556102047446467"><ele>911.0</ele><time>2026-04-23T08:04:14Z</time></trkpt><trkpt lat="46.55789179893268" lon="12.555994464665977"><ele>911.0</ele><time>2026-04-23T08:04:15Z</time></trkpt><trkpt lat="46.55781605689809" lon="12.5558941598268"><ele>910.4</ele><time>2026-04-23T08:04:16Z</time></trkpt><trkpt lat="46.55773512726278" lon="12.55579959816882"><ele>909.8</ele><time>2026-04-23T08:04:17Z</time></trkpt><trkpt lat="46.55765566676099" lon="12.555700494208569"><ele>909.1999999999999</ele><time>2026-04-23T08:04:18Z</time></trkpt><trkpt lat="46.55757994428296" lon="12.555600591676981"><ele>908.5999999999999</ele><time>2026-04-23T08:04:19Z</time></trkpt><trkpt lat="46.55750619928979" lon="12.5555077317688"><ele>908.0</ele><time>2026-04-23T08:04:19.999Z</time></trkpt><trkpt lat="46.557432016513516" lon="12.555411529591348"><ele>907.8</ele><time>2026-04-23T08:04:20.999Z</time></trkpt><trkpt lat="46.55736441562958" lon="12.555311927353737"><ele>907.5999999999999</ele><time>2026-04-23T08:04:21.999Z</time></trkpt><trkpt lat="46.55729568720303" lon="12.555212984072272"><ele>907.4000000000001</ele><time>2026-04-23T08:04:22.999Z</time></trkpt><trkpt lat="46.55722290197692" lon="12.55511210797178"><ele>907.2</ele><time>2026-04-23T08:04:23.999Z</time></trkpt><trkpt lat="46.55715104232938" lon="12.555014757937593"><ele>907.0</ele><time>2026-04-23T08:04:24.999Z</time></trkpt><trkpt lat="46.55707376301188" lon="12.554917436352882"><ele>907.0</ele><time>2026-04-23T08:04:25.999Z</time></trkpt><trkpt lat="46.55699228717388" lon="12.554816939353648"><ele>907.0</ele><time>2026-04-23T08:04:26.999Z</time></trkpt><trkpt lat="46.55691221887331" lon="12.554708857233399"><ele>907.0</ele><time>2026-04-23T08:04:27.999Z</time></trkpt><trkpt lat="46.55682974878334" lon="12.554598107417357"><ele>907.0</ele><time>2026-04-23T08:04:28.999Z</time></trkpt><trkpt lat="46.55674844077883" lon="12.554485247435"><ele>907.0</ele><time>2026-04-23T08:04:29.999Z</time></trkpt><trkpt lat="46.556670285305636" lon="12.554369439671657"><ele>907.0</ele><time>2026-04-23T08:04:30.999Z</time></trkpt><trkpt lat="46.556592684190434" lon="12.554253701049985"><ele>907.0</ele><time>2026-04-23T08:04:31.999Z</time></trkpt><trkpt lat="46.55651105996898" lon="12.554139250980313"><ele>907.0</ele><time>2026-04-23T08:04:32.999Z</time></trkpt><trkpt lat="46.55643229435097" lon="12.55402395512959"><ele>907.0</ele><time>2026-04-23T08:04:33.999Z</time></trkpt><trkpt lat="46.556353790395924" lon="12.5539076132089"><ele>907.0</ele><time>2026-04-23T08:04:34.999Z</time></trkpt><trkpt lat="46.556278630089174" lon="12.553789051337777"><ele>907.0</ele><time>2026-04-23T08:04:35.999Z</time></trkpt><trkpt lat="46.55620947106825" lon="12.553664487100962"><ele>907.0</ele><time>2026-04-23T08:04:36.999Z</time></trkpt><trkpt lat="46.556153018088324" lon="12.553528133518856"><ele>907.0</ele><time>2026-04-23T08:04:37.999Z</time></trkpt><trkpt lat="46.55609504787207" lon="12.553390647115554"><ele>907.0</ele><time>2026-04-23T08:04:38.999Z</time></trkpt><trkpt lat="46.5560428205594" lon="12.55325458662863"><ele>907.0</ele><time>2026-04-23T08:04:39.999Z</time></trkpt><trkpt lat="46.555997577891695" lon="12.553127586859183"><ele>907.0</ele><time>2026-04-23T08:04:40.999Z</time></trkpt><trkpt lat="46.55594639886714" lon="12.55299951853085"><ele>907.0</ele><time>2026-04-23T08:04:41.999Z</time></trkpt><trkpt lat="46.55589032076764" lon="12.55286934277633"><ele>907.0</ele><time>2026-04-23T08:04:42.999Z</time></trkpt><trkpt lat="46.555838291984685" lon="12.552740808600198"><ele>907.0</ele><time>2026-04-23T08:04:43.999Z</time></trkpt><trkpt lat="46.55578552584254" lon="12.552611658653818"><ele>907.0</ele><time>2026-04-23T08:04:44.999Z</time></trkpt><trkpt lat="46.55572589522686" lon="12.55248748115518"><ele>906.2</ele><time>2026-04-23T08:04:45.999Z</time></trkpt><trkpt lat="46.555655800264596" lon="12.552371980409328"><ele>905.4000000000001</ele><time>2026-04-23T08:04:46.999Z</time></trkpt><trkpt lat="46.555582558038296" lon="12.552252531402859"><ele>904.5999999999999</ele><time>2026-04-23T08:04:47.999Z</time></trkpt><trkpt lat="46.55551209832097" lon="12.552128711867338"><ele>903.8</ele><time>2026-04-23T08:04:48.999Z</time></trkpt><trkpt lat="46.55543966853556" lon="12.552008926857225"><ele>903.0</ele><time>2026-04-23T08:04:49.999Z</time></trkpt><trkpt lat="46.55536906446389" lon="12.551888036874221"><ele>903.0</ele><time>2026-04-23T08:04:50.999Z</time></trkpt><trkpt lat="46.555296201258905" lon="12.551765551400154"><ele>903.0</ele><time>2026-04-23T08:04:51.999Z</time></trkpt><trkpt lat="46.55522850278506" lon="12.551638590965094"><ele>903.0</ele><time>2026-04-23T08:04:52.999Z</time></trkpt><trkpt lat="46.55514374124387" lon="12.551538286045055"><ele>903.0</ele><time>2026-04-23T08:04:53.999Z</time></trkpt><trkpt lat="46.55506058932303" lon="12.551437397627371"><ele>903.0</ele><time>2026-04-23T08:04:54.999Z</time></trkpt><trkpt lat="46.554971785625014" lon="12.551337555234287"><ele>903.0</ele><time>2026-04-23T08:04:55.999Z</time></trkpt><trkpt lat="46.5548820486816" lon="12.551237674830363"><ele>903.0</ele><time>2026-04-23T08:04:56.999Z</time></trkpt><trkpt lat="46.554790242495" lon="12.551153500646265"><ele>903.0</ele><time>2026-04-23T08:04:57.999Z</time></trkpt><trkpt lat="46.55471199453636" lon="12.551036358058527"><ele>903.0</ele><time>2026-04-23T08:04:58.999Z</time></trkpt><trkpt lat="46.55462513795881" lon="12.550940180273658"><ele>903.0</ele><time>2026-04-23T08:04:59.999Z</time></trkpt><trkpt lat="46.55453920434552" lon="12.550855442275338"><ele>903.5999999999999</ele><time>2026-04-23T08:05:00.999Z</time></trkpt><trkpt lat="46.55447443287332" lon="12.550739738545598"><ele>904.1999999999999</ele><time>2026-04-23T08:05:01.999Z</time></trkpt><trkpt lat="46.554402318777775" lon="12.55068442010018"><ele>904.8</ele><time>2026-04-23T08:05:02.999Z</time></trkpt><trkpt lat="46.5543341446895" lon="12.550625126639236"><ele>905.4</ele><time>2026-04-23T08:05:03.999Z</time></trkpt><trkpt lat="46.554296885637285" lon="12.550505252347273"><ele>906.0</ele><time>2026-04-23T08:05:05.999Z</time></trkpt><trkpt lat="46.554267025167086" lon="12.550370015073028"><ele>904.8</ele><time>2026-04-23T08:05:08.999Z</time></trkpt><trkpt lat="46.554172573203985" lon="12.550329802001825"><ele>903.5999999999999</ele><time>2026-04-23T08:05:09.999Z</time></trkpt><trkpt lat="46.5541020936781" lon="12.550284561031225"><ele>902.4</ele><time>2026-04-23T08:05:10.999Z</time></trkpt><trkpt lat="46.55402492230454" lon="12.550222504963193"><ele>901.2</ele><time>2026-04-23T08:05:11.999Z</time></trkpt><trkpt lat="46.55394507632678" lon="12.550146613616633"><ele>900.0</ele><time>2026-04-23T08:05:12.999Z</time></trkpt><trkpt lat="46.55386495891609" lon="12.550061516667098"><ele>900.0</ele><time>2026-04-23T08:05:13.999Z</time></trkpt><trkpt lat="46.55377866444987" lon="12.549960888601186"><ele>900.0</ele><time>2026-04-23T08:05:14.999Z</time></trkpt><trkpt lat="46.55368951773328" lon="12.549858998306787"><ele>900.0</ele><time>2026-04-23T08:05:15.999Z</time></trkpt><trkpt lat="46.55359483663155" lon="12.54975492563222"><ele>900.0</ele><time>2026-04-23T08:05:16.999Z</time></trkpt><trkpt lat="46.553503171404444" lon="12.549647818116267"><ele>899.5</ele><time>2026-04-23T08:05:17.999Z</time></trkpt><trkpt lat="46.55340073413178" lon="12.549533452955744"><ele>899.0</ele><time>2026-04-23T08:05:18.999Z</time></trkpt><trkpt lat="46.55329918690643" lon="12.549415242879133"><ele>898.5</ele><time>2026-04-23T08:05:19.999Z</time></trkpt><trkpt lat="46.55319507738912" lon="12.549294153801531"><ele>898.0</ele><time>2026-04-23T08:05:20.999Z</time></trkpt><trkpt lat="46.55308873531218" lon="12.549164637032604"><ele>898.0</ele><time>2026-04-23T08:05:21.999Z</time></trkpt><trkpt lat="46.55298496655328" lon="12.549040539500739"><ele>898.0</ele><time>2026-04-23T08:05:22.999Z</time></trkpt><trkpt lat="46.552879056413204" lon="12.548901079849786"><ele>898.0</ele><time>2026-04-23T08:05:23.999Z</time></trkpt><trkpt lat="46.552781010728474" lon="12.548747967890645"><ele>898.0</ele><time>2026-04-23T08:05:24.999Z</time></trkpt><trkpt lat="46.55269179853129" lon="12.548574363631191"><ele>899.3333333333333</ele><time>2026-04-23T08:05:25.998Z</time></trkpt><trkpt lat="46.55260793187" lon="12.548390884963046"><ele>900.6666666666667</ele><time>2026-04-23T08:05:26.998Z</time></trkpt><trkpt lat="46.55253425361705" lon="12.548199566332574"><ele>902.0</ele><time>2026-04-23T08:05:27.998Z</time></trkpt><trkpt lat="46.552462881892765" lon="12.548005980338477"><ele>900.0</ele><time>2026-04-23T08:05:28.998Z</time></trkpt><trkpt lat="46.55238556518163" lon="12.547810417706444"><ele>898.0</ele><time>2026-04-23T08:05:30Z</time></trkpt><trkpt lat="46.552315112332856" lon="12.547614936479004"><ele>896.0</ele><time>2026-04-23T08:05:31Z</time></trkpt><trkpt lat="46.55224141859176" lon="12.547413738959007"><ele>896.0</ele><time>2026-04-23T08:05:32Z</time></trkpt><trkpt lat="46.552161312507316" lon="12.547216363875226"><ele>896.0</ele><time>2026-04-23T08:05:33Z</time></trkpt><trkpt lat="46.55207911512373" lon="12.547020488551125"><ele>896.0</ele><time>2026-04-23T08:05:34Z</time></trkpt><trkpt lat="46.552004317230804" lon="12.546829882609375"><ele>898.25</ele><time>2026-04-23T08:05:35Z</time></trkpt><trkpt lat="46.551929399581894" lon="12.546635735296709"><ele>900.5</ele><time>2026-04-23T08:05:36Z</time></trkpt><trkpt lat="46.55186005774068" lon="12.546454719832031"><ele>902.75</ele><time>2026-04-23T08:05:37Z</time></trkpt><trkpt lat="46.55179630160599" lon="12.546286296548566"><ele>905.0</ele><time>2026-04-23T08:05:38Z</time></trkpt><trkpt lat="46.55173980397002" lon="12.546102081468533"><ele>905.0</ele><time>2026-04-23T08:05:39Z</time></trkpt><trkpt lat="46.55170433852968" lon="12.545889436677987"><ele>905.0</ele><time>2026-04-23T08:05:40Z</time></trkpt><trkpt lat="46.55172579282531" lon="12.545667245601464"><ele>905.0</ele><time>2026-04-23T08:05:41Z</time></trkpt><trkpt lat="46.5517453206353" lon="12.545461301759278"><ele>905.0</ele><time>2026-04-23T08:05:42Z</time></trkpt><trkpt lat="46.551754940178036" lon="12.545252125172203"><ele>904.6</ele><time>2026-04-23T08:05:43Z</time></trkpt><trkpt lat="46.55176451641225" lon="12.545085031708807"><ele>904.2</ele><time>2026-04-23T08:05:44Z</time></trkpt><trkpt lat="46.551773852039815" lon="12.544942298772035"><ele>903.8</ele><time>2026-04-23T08:05:45Z</time></trkpt><trkpt lat="46.55178147845873" lon="12.54480939927986"><ele>903.4</ele><time>2026-04-23T08:05:46Z</time></trkpt><trkpt lat="46.55178285253812" lon="12.544692825681084"><ele>903.0</ele><time>2026-04-23T08:05:47Z</time></trkpt><trkpt lat="46.5517621983297" lon="12.544564613491755"><ele>902.3333333333334</ele><time>2026-04-23T08:05:49Z</time></trkpt><trkpt lat="46.551655085706464" lon="12.544509519074829"><ele>901.6666666666667</ele><time>2026-04-23T08:05:51Z</time></trkpt><trkpt lat="46.551587667353054" lon="12.54447884393298"><ele>901.0</ele><time>2026-04-23T08:05:52Z</time></trkpt><trkpt lat="46.551513449572845" lon="12.544426378680186"><ele>900.3333333333334</ele><time>2026-04-23T08:05:53Z</time></trkpt><trkpt lat="46.55143068905982" lon="12.54439165974713"><ele>899.6666666666667</ele><time>2026-04-23T08:05:54Z</time></trkpt><trkpt lat="46.55134069739869" lon="12.544379681606914"><ele>899.0</ele><time>2026-04-23T08:05:55Z</time></trkpt><trkpt lat="46.55125106592569" lon="12.54435609916263"><ele>903.4000000000001</ele><time>2026-04-23T08:05:56Z</time></trkpt><trkpt lat="46.551162848391385" lon="12.544311287440326"><ele>907.8000000000001</ele><time>2026-04-23T08:05:57Z</time></trkpt><trkpt lat="46.551077869163215" lon="12.544242839851425"><ele>912.1999999999999</ele><time>2026-04-23T08:05:58Z</time></trkpt><trkpt lat="46.550977012234824" lon="12.544241367370665"><ele>916.5999999999999</ele><time>2026-04-23T08:05:59Z</time></trkpt><trkpt lat="46.550878321775784" lon="12.544217880235566"><ele>921.0</ele><time>2026-04-23T08:06:00Z</time></trkpt><trkpt lat="46.55077753664263" lon="12.54423796192332"><ele>921.0</ele><time>2026-04-23T08:06:01Z</time></trkpt><trkpt lat="46.5506724853248" lon="12.544257912791617"><ele>920.9999999999999</ele><time>2026-04-23T08:06:02Z</time></trkpt><trkpt lat="46.550564794075626" lon="12.544266444314268"><ele>920.9999999999999</ele><time>2026-04-23T08:06:03Z</time></trkpt><trkpt lat="46.5504552323709" lon="12.544254863545603"><ele>921.0</ele><time>2026-04-23T08:06:04Z</time></trkpt><trkpt lat="46.55034551962172" lon="12.544287550157717"><ele>921.0</ele><time>2026-04-23T08:06:05Z</time></trkpt><trkpt lat="46.55023689970992" lon="12.5442856903793"><ele>923.5999999999999</ele><time>2026-04-23T08:06:06Z</time></trkpt><trkpt lat="46.55013149879834" lon="12.544257222397944"><ele>926.1999999999999</ele><time>2026-04-23T08:06:07Z</time></trkpt><trkpt lat="46.55002786276488" lon="12.544255130459181"><ele>928.8000000000001</ele><time>2026-04-23T08:06:08Z</time></trkpt><trkpt lat="46.549929049590226" lon="12.544223903539134"><ele>931.4000000000001</ele><time>2026-04-23T08:06:09Z</time></trkpt><trkpt lat="46.549834559210005" lon="12.544208554541182"><ele>934.0</ele><time>2026-04-23T08:06:10Z</time></trkpt><trkpt lat="46.54973872878096" lon="12.544183786864421"><ele>934.0</ele><time>2026-04-23T08:06:11Z</time></trkpt><trkpt lat="46.54964458748988" lon="12.544159805425483"><ele>934.0000000000001</ele><time>2026-04-23T08:06:12Z</time></trkpt><trkpt lat="46.5495518556813" lon="12.544178825552313"><ele>934.0000000000001</ele><time>2026-04-23T08:06:13Z</time></trkpt><trkpt lat="46.54946207444838" lon="12.544202803983525"><ele>934.0</ele><time>2026-04-23T08:06:14Z</time></trkpt><trkpt lat="46.54937438689956" lon="12.54422764172019"><ele>934.0</ele><time>2026-04-23T08:06:15Z</time></trkpt><trkpt lat="46.54927880498285" lon="12.544232968385336"><ele>935.6</ele><time>2026-04-23T08:06:16Z</time></trkpt><trkpt lat="46.549183552507515" lon="12.544267627324999"><ele>937.2</ele><time>2026-04-23T08:06:17Z</time></trkpt><trkpt lat="46.54908388282571" lon="12.544272891904958"><ele>938.8000000000001</ele><time>2026-04-23T08:06:18Z</time></trkpt><trkpt lat="46.54898558096892" lon="12.544303366556168"><ele>940.4000000000001</ele><time>2026-04-23T08:06:19Z</time></trkpt><trkpt lat="46.54888362093241" lon="12.544334182248402"><ele>942.0</ele><time>2026-04-23T08:06:20Z</time></trkpt><trkpt lat="46.548773286341" lon="12.54432033258541"><ele>943.8</ele><time>2026-04-23T08:06:21Z</time></trkpt><trkpt lat="46.548661666160584" lon="12.544323204770764"><ele>945.6</ele><time>2026-04-23T08:06:22Z</time></trkpt><trkpt lat="46.5485485683927" lon="12.544326114974897"><ele>947.3999999999999</ele><time>2026-04-23T08:06:23Z</time></trkpt><trkpt lat="46.54843681037261" lon="12.54432810938696"><ele>949.1999999999999</ele><time>2026-04-23T08:06:24Z</time></trkpt><trkpt lat="46.54832993987655" lon="12.544328674627872"><ele>951.0</ele><time>2026-04-23T08:06:25Z</time></trkpt><trkpt lat="46.54822298257249" lon="12.544329240325782"><ele>951.0</ele><time>2026-04-23T08:06:26Z</time></trkpt><trkpt lat="46.548112901339074" lon="12.544345369282473"><ele>950.9999999999999</ele><time>2026-04-23T08:06:26.999Z</time></trkpt><trkpt lat="46.548002571808084" lon="12.544351588204192"><ele>950.9999999999999</ele><time>2026-04-23T08:06:27.999Z</time></trkpt><trkpt lat="46.5478908423598" lon="12.544349589921342"><ele>951.0</ele><time>2026-04-23T08:06:28.999Z</time></trkpt><trkpt lat="46.547781782376575" lon="12.544349228795626"><ele>951.0</ele><time>2026-04-23T08:06:29.999Z</time></trkpt><trkpt lat="46.54768161931025" lon="12.544348505079537"><ele>951.8333333333334</ele><time>2026-04-23T08:06:30.999Z</time></trkpt><trkpt lat="46.54758853284373" lon="12.544372450802387"><ele>952.6666666666667</ele><time>2026-04-23T08:06:31.999Z</time></trkpt><trkpt lat="46.547511002172456" lon="12.544413608372317"><ele>953.5</ele><time>2026-04-23T08:06:32.999Z</time></trkpt><trkpt lat="46.54745644201855" lon="12.54448394525722"><ele>954.3333333333334</ele><time>2026-04-23T08:06:33.999Z</time></trkpt><trkpt lat="46.54740254576766" lon="12.544554181579175"><ele>955.1666666666667</ele><time>2026-04-23T08:06:34.999Z</time></trkpt><trkpt lat="46.5473431037218" lon="12.544610747576273"><ele>956.0</ele><time>2026-04-23T08:06:35.999Z</time></trkpt><trkpt lat="46.54727843274055" lon="12.544632329825454"><ele>956.4</ele><time>2026-04-23T08:06:36.999Z</time></trkpt><trkpt lat="46.54717368358439" lon="12.544522504825178"><ele>956.8</ele><time>2026-04-23T08:06:38.999Z</time></trkpt><trkpt lat="46.547096036712105" lon="12.544478803308994"><ele>957.1999999999999</ele><time>2026-04-23T08:06:39.999Z</time></trkpt><trkpt lat="46.54701685254595" lon="12.544441313740565"><ele>957.5999999999999</ele><time>2026-04-23T08:06:40.999Z</time></trkpt><trkpt lat="46.54692704477282" lon="12.544430688253446"><ele>958.0</ele><time>2026-04-23T08:06:41.999Z</time></trkpt><trkpt lat="46.5468308519704" lon="12.54443063849351"><ele>958.5999999999999</ele><time>2026-04-23T08:06:42.999Z</time></trkpt><trkpt lat="46.54672794596085" lon="12.544435074837098"><ele>959.1999999999999</ele><time>2026-04-23T08:06:43.999Z</time></trkpt><trkpt lat="46.54662786741764" lon="12.544433972855595"><ele>959.8</ele><time>2026-04-23T08:06:44.999Z</time></trkpt><trkpt lat="46.54653240066901" lon="12.544402617061431"><ele>960.4</ele><time>2026-04-23T08:06:45.999Z</time></trkpt><trkpt lat="46.54644481371984" lon="12.5443397231074"><ele>961.0</ele><time>2026-04-23T08:06:46.999Z</time></trkpt><trkpt lat="46.54634406301793" lon="12.544312077260173"><ele>961.0</ele><time>2026-04-23T08:06:47.999Z</time></trkpt><trkpt lat="46.546257592260915" lon="12.544247318704139"><ele>960.9999999999999</ele><time>2026-04-23T08:06:48.999Z</time></trkpt><trkpt lat="46.54616668725867" lon="12.544190995138383"><ele>960.9999999999999</ele><time>2026-04-23T08:06:49.999Z</time></trkpt><trkpt lat="46.54607297336607" lon="12.544161756716656"><ele>961.0</ele><time>2026-04-23T08:06:50.999Z</time></trkpt><trkpt lat="46.54598839609133" lon="12.544157747885505"><ele>961.0</ele><time>2026-04-23T08:06:51.999Z</time></trkpt><trkpt lat="46.545913111726065" lon="12.544181454776208"><ele>962.5999999999999</ele><time>2026-04-23T08:06:52.999Z</time></trkpt><trkpt lat="46.54582701636379" lon="12.544200527227451"><ele>964.1999999999999</ele><time>2026-04-23T08:06:53.999Z</time></trkpt><trkpt lat="46.54573856673555" lon="12.5442460653507"><ele>965.8000000000001</ele><time>2026-04-23T08:06:54.999Z</time></trkpt><trkpt lat="46.54566035296551" lon="12.54431084899332"><ele>967.4000000000001</ele><time>2026-04-23T08:06:55.999Z</time></trkpt><trkpt lat="46.545572635705255" lon="12.544351447223473"><ele>969.0</ele><time>2026-04-23T08:06:56.999Z</time></trkpt><trkpt lat="46.54548206832477" lon="12.54441102907972"><ele>969.0</ele><time>2026-04-23T08:06:57.999Z</time></trkpt><trkpt lat="46.545392072667184" lon="12.544469108188245"><ele>969.0000000000001</ele><time>2026-04-23T08:06:58.999Z</time></trkpt><trkpt lat="46.54530717537542" lon="12.544543473484875"><ele>969.0000000000001</ele><time>2026-04-23T08:06:59.999Z</time></trkpt><trkpt lat="46.545226602337465" lon="12.544586788662771"><ele>969.0</ele><time>2026-04-23T08:07:00.999Z</time></trkpt><trkpt lat="46.545139612801314" lon="12.544608694828092"><ele>969.0</ele><time>2026-04-23T08:07:01.999Z</time></trkpt><trkpt lat="46.545053712760605" lon="12.544673893925525"><ele>971.8000000000001</ele><time>2026-04-23T08:07:02.999Z</time></trkpt><trkpt lat="46.54495406797077" lon="12.544709171217093"><ele>974.6000000000001</ele><time>2026-04-23T08:07:03.999Z</time></trkpt><trkpt lat="46.54485924145702" lon="12.544762497926426"><ele>977.4</ele><time>2026-04-23T08:07:04.999Z</time></trkpt><trkpt lat="46.54476611362285" lon="12.544812881485887"><ele>980.2</ele><time>2026-04-23T08:07:05.999Z</time></trkpt><trkpt lat="46.54467176309401" lon="12.544852721039797"><ele>983.0</ele><time>2026-04-23T08:07:06.999Z</time></trkpt><trkpt lat="46.54457135390939" lon="12.544863049689594"><ele>983.1666666666667</ele><time>2026-04-23T08:07:07.999Z</time></trkpt><trkpt lat="46.5444681901346" lon="12.544866332575728"><ele>983.3333333333334</ele><time>2026-04-23T08:07:08.999Z</time></trkpt><trkpt lat="46.54437101386483" lon="12.544872244832666"><ele>983.5</ele><time>2026-04-23T08:07:09.999Z</time></trkpt><trkpt lat="46.54428569722628" lon="12.5448567650159"><ele>983.6666666666667</ele><time>2026-04-23T08:07:10.999Z</time></trkpt><trkpt lat="46.544214561879734" lon="12.544858567665699"><ele>983.8333333333334</ele><time>2026-04-23T08:07:11.999Z</time></trkpt><trkpt lat="46.54414354777308" lon="12.54487221392842"><ele>984.0</ele><time>2026-04-23T08:07:12.999Z</time></trkpt><trkpt lat="46.544063966256296" lon="12.54486402518919"><ele>984.0</ele><time>2026-04-23T08:07:13.999Z</time></trkpt><trkpt lat="46.54399386916076" lon="12.54483037924165"><ele>984.0</ele><time>2026-04-23T08:07:14.999Z</time></trkpt><trkpt lat="46.543925533422495" lon="12.544778203626485"><ele>984.0</ele><time>2026-04-23T08:07:15.999Z</time></trkpt><trkpt lat="46.54386192989474" lon="12.544737339181482"><ele>984.0</ele><time>2026-04-23T08:07:16.999Z</time></trkpt><trkpt lat="46.54379681574679" lon="12.544714758311665"><ele>984.0</ele><time>2026-04-23T08:07:17.999Z</time></trkpt><trkpt lat="46.54373540174238" lon="12.54463889647858"><ele>984.0</ele><time>2026-04-23T08:07:19.999Z</time></trkpt><trkpt lat="46.54374342999296" lon="12.544502554594658"><ele>983.4000000000001</ele><time>2026-04-23T08:07:21.999Z</time></trkpt><trkpt lat="46.54387806858944" lon="12.544473828901014"><ele>982.8000000000001</ele><time>2026-04-23T08:07:22.999Z</time></trkpt><trkpt lat="46.54393010102874" lon="12.544411263521713"><ele>982.1999999999999</ele><time>2026-04-23T08:07:23.999Z</time></trkpt><trkpt lat="46.54398346885301" lon="12.54435045249033"><ele>981.5999999999999</ele><time>2026-04-23T08:07:24.999Z</time></trkpt><trkpt lat="46.54404124536348" lon="12.544194553555263"><ele>981.0</ele><time>2026-04-23T08:07:26.999Z</time></trkpt><trkpt lat="46.54401597481533" lon="12.544043069809176"><ele>981.0</ele><time>2026-04-23T08:07:28.999Z</time></trkpt><trkpt lat="46.54396552099965" lon="12.54397373181831"><ele>981.0</ele><time>2026-04-23T08:07:29.999Z</time></trkpt><trkpt lat="46.543894633801735" lon="12.54391172852904"><ele>981.0</ele><time>2026-04-23T08:07:30.999Z</time></trkpt><trkpt lat="46.543804885131905" lon="12.54386766093982"><ele>981.0</ele><time>2026-04-23T08:07:31.999Z</time></trkpt><trkpt lat="46.543710262621964" lon="12.543839268688158"><ele>981.0</ele><time>2026-04-23T08:07:32.998Z</time></trkpt><trkpt lat="46.54362434475487" lon="12.543814852956947"><ele>981.0</ele><time>2026-04-23T08:07:33.998Z</time></trkpt><trkpt lat="46.54355312969262" lon="12.543784416855859"><ele>983.1428571428571</ele><time>2026-04-23T08:07:34.998Z</time></trkpt><trkpt lat="46.54347732864346" lon="12.543771582523698"><ele>985.2857142857142</ele><time>2026-04-23T08:07:36Z</time></trkpt><trkpt lat="46.543406579863685" lon="12.543756907067067"><ele>987.4285714285713</ele><time>2026-04-23T08:07:37Z</time></trkpt><trkpt lat="46.54333996617425" lon="12.543735688226034"><ele>989.5714285714286</ele><time>2026-04-23T08:07:38Z</time></trkpt><trkpt lat="46.54327769784054" lon="12.543702168145693"><ele>991.7142857142856</ele><time>2026-04-23T08:07:39Z</time></trkpt><trkpt lat="46.54322007678256" lon="12.54364871098901"><ele>993.8571428571428</ele><time>2026-04-23T08:07:40Z</time></trkpt><trkpt lat="46.54318502803387" lon="12.543549385500533"><ele>996.0</ele><time>2026-04-23T08:07:41Z</time></trkpt><trkpt lat="46.54315780656048" lon="12.543433966051468"><ele>996.1999999999999</ele><time>2026-04-23T08:07:42Z</time></trkpt><trkpt lat="46.54312533045513" lon="12.543311955887676"><ele>996.3999999999999</ele><time>2026-04-23T08:07:43Z</time></trkpt><trkpt lat="46.54306354270112" lon="12.543201151160016"><ele>996.6</ele><time>2026-04-23T08:07:44Z</time></trkpt><trkpt lat="46.54302219333384" lon="12.543074800798424"><ele>996.8</ele><time>2026-04-23T08:07:45Z</time></trkpt><trkpt lat="46.54296635122714" lon="12.542969653082704"><ele>997.0</ele><time>2026-04-23T08:07:46Z</time></trkpt><trkpt lat="46.542923666193055" lon="12.54285694566174"><ele>997.8</ele><time>2026-04-23T08:07:47Z</time></trkpt><trkpt lat="46.542873385547296" lon="12.542739183679517"><ele>998.6</ele><time>2026-04-23T08:07:48Z</time></trkpt><trkpt lat="46.542820572767624" lon="12.542612125471994"><ele>999.3999999999999</ele><time>2026-04-23T08:07:49Z</time></trkpt><trkpt lat="46.542770337801926" lon="12.542472719762102"><ele>1000.1999999999999</ele><time>2026-04-23T08:07:50Z</time></trkpt><trkpt lat="46.54273339823892" lon="12.542320915694766"><ele>1001.0</ele><time>2026-04-23T08:07:51Z</time></trkpt><trkpt lat="46.542693342001215" lon="12.542174116107567"><ele>1002.1999999999999</ele><time>2026-04-23T08:07:52Z</time></trkpt><trkpt lat="46.542659242665486" lon="12.542028043118384"><ele>1003.3999999999999</ele><time>2026-04-23T08:07:53Z</time></trkpt><trkpt lat="46.54260422816264" lon="12.541901877971336"><ele>1004.6</ele><time>2026-04-23T08:07:54Z</time></trkpt><trkpt lat="46.542550760439426" lon="12.541778809072524"><ele>1005.8</ele><time>2026-04-23T08:07:55Z</time></trkpt><trkpt lat="46.54249455025415" lon="12.54165120987245"><ele>1007.0</ele><time>2026-04-23T08:07:56Z</time></trkpt><trkpt lat="46.54241604681444" lon="12.541557603457376"><ele>1007.0</ele><time>2026-04-23T08:07:57Z</time></trkpt><trkpt lat="46.54233501256883" lon="12.541459183235997"><ele>1007.0</ele><time>2026-04-23T08:07:58Z</time></trkpt><trkpt lat="46.542260437926714" lon="12.541365676429962"><ele>1007.0</ele><time>2026-04-23T08:07:59Z</time></trkpt><trkpt lat="46.54218457444399" lon="12.541269322998438"><ele>1007.0</ele><time>2026-04-23T08:08:00Z</time></trkpt><trkpt lat="46.542125519764" lon="12.541150582883875"><ele>1007.0</ele><time>2026-04-23T08:08:01Z</time></trkpt><trkpt lat="46.542057512057745" lon="12.541040726924875"><ele>1004.4000000000001</ele><time>2026-04-23T08:08:02Z</time></trkpt><trkpt lat="46.541980049509384" lon="12.540932963719944"><ele>1001.8000000000001</ele><time>2026-04-23T08:08:03Z</time></trkpt><trkpt lat="46.54191547952102" lon="12.540810488560906"><ele>999.2</ele><time>2026-04-23T08:08:04Z</time></trkpt><trkpt lat="46.5418545932672" lon="12.540703766990239"><ele>996.6</ele><time>2026-04-23T08:08:05Z</time></trkpt><trkpt lat="46.54179214695998" lon="12.540591106970604"><ele>994.0</ele><time>2026-04-23T08:08:06Z</time></trkpt><trkpt lat="46.541752432745625" lon="12.540464768153507"><ele>994.4000000000001</ele><time>2026-04-23T08:08:07Z</time></trkpt><trkpt lat="46.54169997500512" lon="12.5403380767117"><ele>994.8000000000001</ele><time>2026-04-23T08:08:08Z</time></trkpt><trkpt lat="46.5416281790314" lon="12.540217705774891"><ele>995.1999999999999</ele><time>2026-04-23T08:08:09Z</time></trkpt><trkpt lat="46.541571667950095" lon="12.540082449713934"><ele>995.5999999999999</ele><time>2026-04-23T08:08:10Z</time></trkpt><trkpt lat="46.54151395947659" lon="12.539948855911081"><ele>996.0</ele><time>2026-04-23T08:08:11Z</time></trkpt><trkpt lat="46.541472196103385" lon="12.539814335828073"><ele>996.0</ele><time>2026-04-23T08:08:12Z</time></trkpt><trkpt lat="46.54142685350522" lon="12.53969339109813"><ele>995.9999999999999</ele><time>2026-04-23T08:08:13Z</time></trkpt><trkpt lat="46.54139199714814" lon="12.539571270787485"><ele>995.9999999999999</ele><time>2026-04-23T08:08:14Z</time></trkpt><trkpt lat="46.541334227590994" lon="12.539467200058734"><ele>996.0</ele><time>2026-04-23T08:08:15Z</time></trkpt><trkpt lat="46.54127086350395" lon="12.539368589458293"><ele>996.0</ele><time>2026-04-23T08:08:16Z</time></trkpt><trkpt lat="46.541206130821195" lon="12.539272900927145"><ele>992.5999999999999</ele><time>2026-04-23T08:08:17Z</time></trkpt><trkpt lat="46.54112999127242" lon="12.539162912829884"><ele>989.1999999999999</ele><time>2026-04-23T08:08:18Z</time></trkpt><trkpt lat="46.541057550938106" lon="12.539047534102657"><ele>985.8000000000001</ele><time>2026-04-23T08:08:19Z</time></trkpt><trkpt lat="46.540982129330665" lon="12.538931861765269"><ele>982.4000000000001</ele><time>2026-04-23T08:08:20Z</time></trkpt><trkpt lat="46.5408970565213" lon="12.5388257743364"><ele>979.0</ele><time>2026-04-23T08:08:21Z</time></trkpt><trkpt lat="46.540807313413005" lon="12.538736747198922"><ele>981.6</ele><time>2026-04-23T08:08:22Z</time></trkpt><trkpt lat="46.54073169501361" lon="12.538647375496817"><ele>984.2</ele><time>2026-04-23T08:08:23Z</time></trkpt><trkpt lat="46.54066372326117" lon="12.538546970979185"><ele>986.8000000000001</ele><time>2026-04-23T08:08:24Z</time></trkpt><trkpt lat="46.540607111433324" lon="12.538425656976802"><ele>989.4000000000001</ele><time>2026-04-23T08:08:25Z</time></trkpt><trkpt lat="46.54053945502028" lon="12.538309719024367"><ele>992.0</ele><time>2026-04-23T08:08:26Z</time></trkpt><trkpt lat="46.540466776963555" lon="12.538193367638144"><ele>992.0</ele><time>2026-04-23T08:08:27Z</time></trkpt><trkpt lat="46.54039678650018" lon="12.538071980931171"><ele>992.0</ele><time>2026-04-23T08:08:28Z</time></trkpt><trkpt lat="46.54033615670411" lon="12.537955876827594"><ele>992.0</ele><time>2026-04-23T08:08:29Z</time></trkpt><trkpt lat="46.540282075276295" lon="12.537842368883565"><ele>992.0</ele><time>2026-04-23T08:08:30Z</time></trkpt><trkpt lat="46.5402325461122" lon="12.53773230126664"><ele>992.0</ele><time>2026-04-23T08:08:30.999Z</time></trkpt><trkpt lat="46.54019942921563" lon="12.537622383962352"><ele>987.6666666666667</ele><time>2026-04-23T08:08:31.999Z</time></trkpt><trkpt lat="46.540179850272075" lon="12.53751139136726"><ele>983.3333333333334</ele><time>2026-04-23T08:08:32.999Z</time></trkpt><trkpt lat="46.5401796936101" lon="12.537405403722321"><ele>979.0</ele><time>2026-04-23T08:08:33.999Z</time></trkpt><trkpt lat="46.54019087771772" lon="12.537293611642228"><ele>974.6666666666667</ele><time>2026-04-23T08:08:34.999Z</time></trkpt><trkpt lat="46.54021272911906" lon="12.537181803666535"><ele>970.3333333333334</ele><time>2026-04-23T08:08:35.999Z</time></trkpt><trkpt lat="46.54023599936821" lon="12.537069346763927"><ele>966.0</ele><time>2026-04-23T08:08:36.999Z</time></trkpt><trkpt lat="46.54024676862157" lon="12.536943161236273"><ele>965.1666666666666</ele><time>2026-04-23T08:08:37.999Z</time></trkpt><trkpt lat="46.54023977200472" lon="12.536816368299029"><ele>964.3333333333333</ele><time>2026-04-23T08:08:38.999Z</time></trkpt><trkpt lat="46.540227442901454" lon="12.53669467578628"><ele>963.5</ele><time>2026-04-23T08:08:39.999Z</time></trkpt><trkpt lat="46.54022117715295" lon="12.536571976076694"><ele>962.6666666666666</ele><time>2026-04-23T08:08:40.999Z</time></trkpt><trkpt lat="46.540218425060814" lon="12.536442572678915"><ele>961.8333333333333</ele><time>2026-04-23T08:08:41.999Z</time></trkpt><trkpt lat="46.54021959098029" lon="12.536311453422607"><ele>961.0</ele><time>2026-04-23T08:08:42.999Z</time></trkpt><trkpt lat="46.54022886687372" lon="12.536178609425418"><ele>958.1999999999999</ele><time>2026-04-23T08:08:43.999Z</time></trkpt><trkpt lat="46.540237449935" lon="12.536042491307544"><ele>955.3999999999999</ele><time>2026-04-23T08:08:44.999Z</time></trkpt><trkpt lat="46.54024541882066" lon="12.53591029210095"><ele>952.6</ele><time>2026-04-23T08:08:45.999Z</time></trkpt><trkpt lat="46.54025557691573" lon="12.535778114962108"><ele>949.8</ele><time>2026-04-23T08:08:46.999Z</time></trkpt><trkpt lat="46.5402946810545" lon="12.535653780008168"><ele>947.0</ele><time>2026-04-23T08:08:47.999Z</time></trkpt><trkpt lat="46.54032831902818" lon="12.535530757692996"><ele>947.0</ele><time>2026-04-23T08:08:48.999Z</time></trkpt><trkpt lat="46.540345344285406" lon="12.535403616154872"><ele>947.0</ele><time>2026-04-23T08:08:49.999Z</time></trkpt><trkpt lat="46.54036743208055" lon="12.535249682914145"><ele>947.0</ele><time>2026-04-23T08:08:50.999Z</time></trkpt><trkpt lat="46.54040162665888" lon="12.53511695814899"><ele>947.0</ele><time>2026-04-23T08:08:51.999Z</time></trkpt><trkpt lat="46.540462857322474" lon="12.534993558405304"><ele>947.0</ele><time>2026-04-23T08:08:52.999Z</time></trkpt><trkpt lat="46.54052894842846" lon="12.534903039667132"><ele>946.0000000000001</ele><time>2026-04-23T08:08:53.999Z</time></trkpt><trkpt lat="46.54058898878287" lon="12.53483086788099"><ele>945.0</ele><time>2026-04-23T08:08:54.999Z</time></trkpt><trkpt lat="46.540638521715344" lon="12.53476462876247"><ele>944.0</ele><time>2026-04-23T08:08:55.999Z</time></trkpt><trkpt lat="46.5407050253118" lon="12.534675466429997"><ele>943.0</ele><time>2026-04-23T08:08:56.999Z</time></trkpt><trkpt lat="46.5407841477824" lon="12.53458836844786"><ele>942.0000000000001</ele><time>2026-04-23T08:08:57.999Z</time></trkpt><trkpt lat="46.54085599538088" lon="12.534483406988864"><ele>941.0</ele><time>2026-04-23T08:08:58.999Z</time></trkpt><trkpt lat="46.54092286220182" lon="12.53437982678808"><ele>941.0</ele><time>2026-04-23T08:08:59.999Z</time></trkpt><trkpt lat="46.54098254101018" lon="12.534269206579847"><ele>940.9999999999999</ele><time>2026-04-23T08:09:00.999Z</time></trkpt><trkpt lat="46.54103759292674" lon="12.534155949163418"><ele>940.9999999999999</ele><time>2026-04-23T08:09:01.999Z</time></trkpt><trkpt lat="46.54106826419733" lon="12.53402581760787"><ele>941.0</ele><time>2026-04-23T08:09:02.999Z</time></trkpt><trkpt lat="46.54112479405971" lon="12.533902792383365"><ele>941.0</ele><time>2026-04-23T08:09:03.999Z</time></trkpt><trkpt lat="46.541157282467495" lon="12.533773068613382"><ele>941.4</ele><time>2026-04-23T08:09:04.999Z</time></trkpt><trkpt lat="46.541199442034475" lon="12.533653190431377"><ele>941.8</ele><time>2026-04-23T08:09:05.999Z</time></trkpt><trkpt lat="46.54125302274094" lon="12.533541253593961"><ele>942.1999999999999</ele><time>2026-04-23T08:09:06.999Z</time></trkpt><trkpt lat="46.541311322445914" lon="12.533433473781612"><ele>942.5999999999999</ele><time>2026-04-23T08:09:07.999Z</time></trkpt><trkpt lat="46.541362784212026" lon="12.533321956408388"><ele>943.0</ele><time>2026-04-23T08:09:08.999Z</time></trkpt><trkpt lat="46.54139866392567" lon="12.533197983233109"><ele>943.0</ele><time>2026-04-23T08:09:09.999Z</time></trkpt><trkpt lat="46.54141700310663" lon="12.533065459920802"><ele>943.0</ele><time>2026-04-23T08:09:10.999Z</time></trkpt><trkpt lat="46.54143587766368" lon="12.532932684651305"><ele>943.0</ele><time>2026-04-23T08:09:11.999Z</time></trkpt><trkpt lat="46.541456010095544" lon="12.532799776892263"><ele>943.0</ele><time>2026-04-23T08:09:12.999Z</time></trkpt><trkpt lat="46.541476603348684" lon="12.5326747147206"><ele>943.0</ele><time>2026-04-23T08:09:13.999Z</time></trkpt><trkpt lat="46.54148216540224" lon="12.532540209492241"><ele>940.9999999999999</ele><time>2026-04-23T08:09:14.999Z</time></trkpt><trkpt lat="46.54150715111495" lon="12.532417859793476"><ele>939.0</ele><time>2026-04-23T08:09:15.999Z</time></trkpt><trkpt lat="46.54156041118055" lon="12.532310868387547"><ele>937.0</ele><time>2026-04-23T08:09:16.999Z</time></trkpt><trkpt lat="46.541604562989995" lon="12.53221075285416"><ele>935.0</ele><time>2026-04-23T08:09:17.999Z</time></trkpt><trkpt lat="46.54166542573252" lon="12.532126537924777"><ele>932.9999999999999</ele><time>2026-04-23T08:09:18.999Z</time></trkpt><trkpt lat="46.5417274565234" lon="12.53204078434982"><ele>931.0</ele><time>2026-04-23T08:09:19.999Z</time></trkpt><trkpt lat="46.541779007864854" lon="12.531943994208449"><ele>928.4</ele><time>2026-04-23T08:09:20.999Z</time></trkpt><trkpt lat="46.54183331030895" lon="12.531840723986841"><ele>925.8</ele><time>2026-04-23T08:09:21.999Z</time></trkpt><trkpt lat="46.54187677577464" lon="12.531729543706183"><ele>923.1999999999999</ele><time>2026-04-23T08:09:22.999Z</time></trkpt><trkpt lat="46.54192988817253" lon="12.531615123330203"><ele>920.5999999999999</ele><time>2026-04-23T08:09:23.999Z</time></trkpt><trkpt lat="46.54197940435564" lon="12.531503727432831"><ele>918.0</ele><time>2026-04-23T08:09:24.999Z</time></trkpt><trkpt lat="46.54199595499309" lon="12.5313717373746"><ele>918.0</ele><time>2026-04-23T08:09:25.999Z</time></trkpt><trkpt lat="46.542022841207704" lon="12.531236147524632"><ele>918.0</ele><time>2026-04-23T08:09:26.999Z</time></trkpt><trkpt lat="46.54206621020151" lon="12.531112923558888"><ele>918.0</ele><time>2026-04-23T08:09:27.999Z</time></trkpt><trkpt lat="46.54210471752877" lon="12.530985620156336"><ele>918.0</ele><time>2026-04-23T08:09:28.999Z</time></trkpt><trkpt lat="46.542141080914135" lon="12.530868267228623"><ele>918.0</ele><time>2026-04-23T08:09:29.999Z</time></trkpt><trkpt lat="46.54218894872632" lon="12.530757934541588"><ele>918.0</ele><time>2026-04-23T08:09:30.999Z</time></trkpt><trkpt lat="46.54222172361778" lon="12.53066144687014"><ele>918.0</ele><time>2026-04-23T08:09:31.999Z</time></trkpt><trkpt lat="46.542212816791064" lon="12.530504625255615"><ele>918.0</ele><time>2026-04-23T08:09:33.999Z</time></trkpt><trkpt lat="46.54215343088296" lon="12.530417420995665"><ele>918.0</ele><time>2026-04-23T08:09:34.999Z</time></trkpt><trkpt lat="46.54211054599193" lon="12.530317646699867"><ele>918.0</ele><time>2026-04-23T08:09:35.999Z</time></trkpt><trkpt lat="46.54209869873708" lon="12.530190973610663"><ele>918.0</ele><time>2026-04-23T08:09:36.998Z</time></trkpt><trkpt lat="46.54207404548588" lon="12.530071911855767"><ele>912.4</ele><time>2026-04-23T08:09:37.998Z</time></trkpt><trkpt lat="46.54208806693354" lon="12.529948993290137"><ele>906.8</ele><time>2026-04-23T08:09:38.998Z</time></trkpt><trkpt lat="46.542088333780065" lon="12.529852212185727"><ele>901.2</ele><time>2026-04-23T08:09:39.998Z</time></trkpt><trkpt lat="46.54211904863694" lon="12.529716639234175"><ele>895.6</ele><time>2026-04-23T08:09:42Z</time></trkpt><trkpt lat="46.54199422949426" lon="12.529607831843471"><ele>890.0</ele><time>2026-04-23T08:09:50Z</time></trkpt><trkpt lat="46.54190431283777" lon="12.529621257384527"><ele>888.5</ele><time>2026-04-23T08:09:51Z</time></trkpt><trkpt lat="46.54178822161546" lon="12.529639885295945"><ele>887.0</ele><time>2026-04-23T08:09:52Z</time></trkpt><trkpt lat="46.54164120457631" lon="12.529683810428784"><ele>885.5</ele><time>2026-04-23T08:09:53Z</time></trkpt><trkpt lat="46.541510397362465" lon="12.529737982776924"><ele>884.0</ele><time>2026-04-23T08:09:54Z</time></trkpt><trkpt lat="46.541383440946504" lon="12.529792898662247"><ele>884.0</ele><time>2026-04-23T08:09:55Z</time></trkpt><trkpt lat="46.541266455554805" lon="12.529831330035883"><ele>884.0000000000001</ele><time>2026-04-23T08:09:56Z</time></trkpt><trkpt lat="46.541159285081505" lon="12.529840386155112"><ele>884.0000000000001</ele><time>2026-04-23T08:09:57Z</time></trkpt><trkpt lat="46.541058451820355" lon="12.529802300469258"><ele>884.0</ele><time>2026-04-23T08:09:58Z</time></trkpt><trkpt lat="46.54096604938299" lon="12.529714413318738"><ele>884.0</ele><time>2026-04-23T08:09:59Z</time></trkpt><trkpt lat="46.540890540484455" lon="12.52958129779953"><ele>883.0</ele><time>2026-04-23T08:10:00Z</time></trkpt><trkpt lat="46.540839831448686" lon="12.529417912950452"><ele>882.0</ele><time>2026-04-23T08:10:01Z</time></trkpt><trkpt lat="46.54079696748615" lon="12.529243238077637"><ele>881.0</ele><time>2026-04-23T08:10:02Z</time></trkpt><trkpt lat="46.54073573668272" lon="12.529074829212494"><ele>880.0</ele><time>2026-04-23T08:10:03Z</time></trkpt><trkpt lat="46.54064610692184" lon="12.528925316682303"><ele>880.0</ele><time>2026-04-23T08:10:04Z</time></trkpt><trkpt lat="46.54053837923535" lon="12.528779703503002"><ele>880.0</ele><time>2026-04-23T08:10:05Z</time></trkpt><trkpt lat="46.54042394272503" lon="12.528630579517412"><ele>880.0</ele><time>2026-04-23T08:10:06Z</time></trkpt><trkpt lat="46.54030523178961" lon="12.528479566429308"><ele>880.3333333333333</ele><time>2026-04-23T08:10:07Z</time></trkpt><trkpt lat="46.540178608691306" lon="12.5283267901931"><ele>880.6666666666667</ele><time>2026-04-23T08:10:08Z</time></trkpt><trkpt lat="46.540049605466514" lon="12.528175280735944"><ele>881.0</ele><time>2026-04-23T08:10:09Z</time></trkpt><trkpt lat="46.53991889744404" lon="12.528024347763596"><ele>880.3333333333334</ele><time>2026-04-23T08:10:10Z</time></trkpt><trkpt lat="46.539787232147866" lon="12.527873597553395"><ele>879.6666666666667</ele><time>2026-04-23T08:10:11Z</time></trkpt><trkpt lat="46.53965838134434" lon="12.527716525332126"><ele>879.0</ele><time>2026-04-23T08:10:12Z</time></trkpt><trkpt lat="46.539529756634096" lon="12.527555924371827"><ele>879.0</ele><time>2026-04-23T08:10:13Z</time></trkpt><trkpt lat="46.53940628739199" lon="12.527395684096373"><ele>879.0</ele><time>2026-04-23T08:10:14Z</time></trkpt><trkpt lat="46.53928457960285" lon="12.527229693863756"><ele>879.0</ele><time>2026-04-23T08:10:15Z</time></trkpt><trkpt lat="46.53916840383718" lon="12.52705720322658"><ele>872.3333333333333</ele><time>2026-04-23T08:10:16Z</time></trkpt><trkpt lat="46.53905978991138" lon="12.526878724538635"><ele>865.6666666666666</ele><time>2026-04-23T08:10:17Z</time></trkpt><trkpt lat="46.53896451804454" lon="12.5266964087643"><ele>859.0</ele><time>2026-04-23T08:10:18Z</time></trkpt><trkpt lat="46.53888082053471" lon="12.52651334171269"><ele>859.0</ele><time>2026-04-23T08:10:19Z</time></trkpt><trkpt lat="46.538817667608214" lon="12.52632174944328"><ele>859.0</ele><time>2026-04-23T08:10:20Z</time></trkpt><trkpt lat="46.53877333741349" lon="12.526109549607877"><ele>859.0</ele><time>2026-04-23T08:10:21Z</time></trkpt><trkpt lat="46.538760646802594" lon="12.525880362798876"><ele>858.3333333333333</ele><time>2026-04-23T08:10:22Z</time></trkpt><trkpt lat="46.53877447075907" lon="12.525643579027049"><ele>857.6666666666667</ele><time>2026-04-23T08:10:23Z</time></trkpt><trkpt lat="46.5387881940973" lon="12.525402967396069"><ele>857.0</ele><time>2026-04-23T08:10:24Z</time></trkpt><trkpt lat="46.53879353452737" lon="12.525158498800895"><ele>863.3333333333334</ele><time>2026-04-23T08:10:25Z</time></trkpt><trkpt lat="46.53879481371693" lon="12.52491084898677"><ele>869.6666666666667</ele><time>2026-04-23T08:10:26Z</time></trkpt><trkpt lat="46.53878947439146" lon="12.524659652887797"><ele>876.0</ele><time>2026-04-23T08:10:27Z</time></trkpt><trkpt lat="46.53876732486703" lon="12.524409515733232"><ele>871.3333333333333</ele><time>2026-04-23T08:10:28Z</time></trkpt><trkpt lat="46.53872250726686" lon="12.524155117645249"><ele>866.6666666666666</ele><time>2026-04-23T08:10:29Z</time></trkpt><trkpt lat="46.53865995569703" lon="12.523904413667077"><ele>862.0</ele><time>2026-04-23T08:10:29.999Z</time></trkpt><trkpt lat="46.53859064810872" lon="12.523655376797858"><ele>862.0</ele><time>2026-04-23T08:10:30.999Z</time></trkpt><trkpt lat="46.53852095473935" lon="12.523404886761911"><ele>862.0</ele><time>2026-04-23T08:10:31.999Z</time></trkpt><trkpt lat="46.538454094385315" lon="12.523152914346602"><ele>862.0</ele><time>2026-04-23T08:10:32.999Z</time></trkpt><trkpt lat="46.53839007961484" lon="12.522900486861987"><ele>864.6666666666666</ele><time>2026-04-23T08:10:33.999Z</time></trkpt><trkpt lat="46.53833532407495" lon="12.522641403886633"><ele>867.3333333333333</ele><time>2026-04-23T08:10:34.999Z</time></trkpt><trkpt lat="46.53828993497315" lon="12.522378672989257"><ele>870.0</ele><time>2026-04-23T08:10:35.999Z</time></trkpt><trkpt lat="46.53826070369425" lon="12.522112147174536"><ele>874.6666666666667</ele><time>2026-04-23T08:10:36.999Z</time></trkpt><trkpt lat="46.538241780778854" lon="12.52184310286142"><ele>879.3333333333334</ele><time>2026-04-23T08:10:37.999Z</time></trkpt><trkpt lat="46.53823612466164" lon="12.521579244437124"><ele>884.0</ele><time>2026-04-23T08:10:38.999Z</time></trkpt><trkpt lat="46.53823733013738" lon="12.521335168270367"><ele>892.3333333333334</ele><time>2026-04-23T08:10:39.999Z</time></trkpt><trkpt lat="46.53825164040348" lon="12.521079598276847"><ele>900.6666666666667</ele><time>2026-04-23T08:10:40.999Z</time></trkpt><trkpt lat="46.53827123972913" lon="12.520826586042354"><ele>909.0</ele><time>2026-04-23T08:10:41.999Z</time></trkpt><trkpt lat="46.538260736840876" lon="12.520576040309011"><ele>917.3333333333333</ele><time>2026-04-23T08:10:42.999Z</time></trkpt><trkpt lat="46.538255095215646" lon="12.520355036275745"><ele>925.6666666666666</ele><time>2026-04-23T08:10:43.999Z</time></trkpt><trkpt lat="46.53824876098924" lon="12.520106897658655"><ele>934.0</ele><time>2026-04-23T08:10:44.999Z</time></trkpt><trkpt lat="46.53824334506458" lon="12.519894734125904"><ele>934.0</ele><time>2026-04-23T08:10:45.999Z</time></trkpt><trkpt lat="46.53823619405175" lon="12.519614600722253"><ele>934.0</ele><time>2026-04-23T08:10:47.064Z</time></trkpt><trkpt lat="46.53822984895032" lon="12.51936603614032"><ele>934.0</ele><time>2026-04-23T08:10:48.052Z</time></trkpt><trkpt lat="46.53822301364048" lon="12.519098269402159"><ele>937.3333333333333</ele><time>2026-04-23T08:10:49.05Z</time></trkpt><trkpt lat="46.538216697661895" lon="12.518850847038717"><ele>940.6666666666667</ele><time>2026-04-23T08:10:50.052Z</time></trkpt><trkpt lat="46.538210635659375" lon="12.51861337354761"><ele>944.0</ele><time>2026-04-23T08:10:51.03Z</time></trkpt><trkpt lat="46.538204098394345" lon="12.518373794468259"><ele>943.0</ele><time>2026-04-23T08:10:52.029Z</time></trkpt><trkpt lat="46.53801914132647" lon="12.516084764189397"><ele>943.0</ele><time>2026-04-23T08:10:55.555Z</time></trkpt><trkpt lat="46.537920055539175" lon="12.515444334001897"><ele>949.5</ele><time>2026-04-23T08:10:56.555Z</time></trkpt><trkpt lat="46.53780689383384" lon="12.51481271701151"><ele>956.0</ele><time>2026-04-23T08:10:57.551Z</time></trkpt><trkpt lat="46.537692139118874" lon="12.5141804027148"><ele>964.5</ele><time>2026-04-23T08:10:58.554Z</time></trkpt><trkpt lat="46.53757589951759" lon="12.513550560892561"><ele>973.0</ele><time>2026-04-23T08:10:59.554Z</time></trkpt><trkpt lat="46.537536" lon="12.5134277"><ele>831.0</ele><time>2026-04-23T08:11:00.552Z</time></trkpt><trkpt lat="46.53305395349369" lon="12.46988064865181"><ele>831.0</ele><time>2026-04-23T08:13:49.997Z</time></trkpt><trkpt lat="46.53307569479272" lon="12.46976658943315"><ele>831.0</ele><time>2026-04-23T08:13:50.996Z</time></trkpt><trkpt lat="46.53315429310513" lon="12.469716140642944"><ele>831.0</ele><time>2026-04-23T08:13:51.996Z</time></trkpt><trkpt lat="46.53317873728478" lon="12.469577595048397"><ele>831.0</ele><time>2026-04-23T08:13:52.996Z</time></trkpt><trkpt lat="46.53322093312643" lon="12.469441349349715"><ele>831.0</ele><time>2026-04-23T08:13:53.996Z</time></trkpt><trkpt lat="46.53326955048903" lon="12.469342681405845"><ele>826.8</ele><time>2026-04-23T08:13:54.996Z</time></trkpt><trkpt lat="46.533325434459144" lon="12.469231618158272"><ele>822.5999999999999</ele><time>2026-04-23T08:13:56Z</time></trkpt><trkpt lat="46.53339008646584" lon="12.469120330796539"><ele>818.4</ele><time>2026-04-23T08:13:57Z</time></trkpt><trkpt lat="46.53346267057631" lon="12.469008919939515"><ele>814.2</ele><time>2026-04-23T08:13:58Z</time></trkpt><trkpt lat="46.53355012428339" lon="12.46890025900948"><ele>810.0</ele><time>2026-04-23T08:13:59Z</time></trkpt><trkpt lat="46.533640374677205" lon="12.46879570812879"><ele>812.25</ele><time>2026-04-23T08:14:00Z</time></trkpt><trkpt lat="46.533728954984554" lon="12.468700870123165"><ele>814.5</ele><time>2026-04-23T08:14:01Z</time></trkpt><trkpt lat="46.53381260908411" lon="12.468605626471383"><ele>816.75</ele><time>2026-04-23T08:14:02Z</time></trkpt><trkpt lat="46.53390221399778" lon="12.46850828666476"><ele>819.0</ele><time>2026-04-23T08:14:03Z</time></trkpt><trkpt lat="46.53400450646454" lon="12.468403079830992"><ele>819.0</ele><time>2026-04-23T08:14:04Z</time></trkpt><trkpt lat="46.53410272075628" lon="12.468300972465485"><ele>819.0</ele><time>2026-04-23T08:14:05Z</time></trkpt><trkpt lat="46.53420217969552" lon="12.468206366953785"><ele>819.0</ele><time>2026-04-23T08:14:06Z</time></trkpt><trkpt lat="46.53429244415409" lon="12.468111766653282"><ele>819.0</ele><time>2026-04-23T08:14:07Z</time></trkpt><trkpt lat="46.534392393719" lon="12.468073501157848"><ele>819.0</ele><time>2026-04-23T08:14:08Z</time></trkpt><trkpt lat="46.53449981644164" lon="12.468000995582527"><ele>819.0</ele><time>2026-04-23T08:14:09Z</time></trkpt><trkpt lat="46.534608232463725" lon="12.467924223752002"><ele>819.0</ele><time>2026-04-23T08:14:10Z</time></trkpt><trkpt lat="46.53472398359647" lon="12.467856243691493"><ele>819.0</ele><time>2026-04-23T08:14:11Z</time></trkpt><trkpt lat="46.53484912344552" lon="12.467801085955385"><ele>816.0</ele><time>2026-04-23T08:14:12Z</time></trkpt><trkpt lat="46.53497829863073" lon="12.467740663477372"><ele>813.0</ele><time>2026-04-23T08:14:13Z</time></trkpt><trkpt lat="46.53510891585858" lon="12.467677715258944"><ele>810.0</ele><time>2026-04-23T08:14:14Z</time></trkpt><trkpt lat="46.53524358777388" lon="12.467616258034012"><ele>807.0</ele><time>2026-04-23T08:14:15Z</time></trkpt><trkpt lat="46.53537752659675" lon="12.467555701199952"><ele>811.5</ele><time>2026-04-23T08:14:16Z</time></trkpt><trkpt lat="46.535509966892604" lon="12.46749616764262"><ele>816.0</ele><time>2026-04-23T08:14:17Z</time></trkpt><trkpt lat="46.535641179939255" lon="12.46744884945315"><ele>820.5</ele><time>2026-04-23T08:14:18Z</time></trkpt><trkpt lat="46.53577742969459" lon="12.467419712748152"><ele>825.0</ele><time>2026-04-23T08:14:19Z</time></trkpt><trkpt lat="46.53591491416962" lon="12.46738914031715"><ele>825.0</ele><time>2026-04-23T08:14:20Z</time></trkpt><trkpt lat="46.53605049300637" lon="12.467361979418436"><ele>825.0</ele><time>2026-04-23T08:14:21Z</time></trkpt><trkpt lat="46.53617887172988" lon="12.467327598095453"><ele>825.0</ele><time>2026-04-23T08:14:22Z</time></trkpt><trkpt lat="46.53630212509358" lon="12.467296136060398"><ele>825.0</ele><time>2026-04-23T08:14:23Z</time></trkpt><trkpt lat="46.536414449317846" lon="12.467271578531959"><ele>829.0</ele><time>2026-04-23T08:14:24Z</time></trkpt><trkpt lat="46.53652222426113" lon="12.467279610040928"><ele>833.0</ele><time>2026-04-23T08:14:25Z</time></trkpt><trkpt lat="46.53663644398076" lon="12.467252652206232"><ele>837.0</ele><time>2026-04-23T08:14:26Z</time></trkpt><trkpt lat="46.53675096548028" lon="12.467256267103908"><ele>841.0</ele><time>2026-04-23T08:14:27Z</time></trkpt><trkpt lat="46.53686152200917" lon="12.467251920699244"><ele>845.0</ele><time>2026-04-23T08:14:28Z</time></trkpt><trkpt lat="46.536980609873986" lon="12.467234429167098"><ele>840.5</ele><time>2026-04-23T08:14:29Z</time></trkpt><trkpt lat="46.53709432537591" lon="12.467182607236994"><ele>836.0</ele><time>2026-04-23T08:14:30Z</time></trkpt><trkpt lat="46.53720323173303" lon="12.46710340225789"><ele>831.5</ele><time>2026-04-23T08:14:31Z</time></trkpt><trkpt lat="46.537302506661455" lon="12.467002252244265"><ele>827.0</ele><time>2026-04-23T08:14:32Z</time></trkpt><trkpt lat="46.53738266455872" lon="12.466848967785072"><ele>827.0</ele><time>2026-04-23T08:14:33Z</time></trkpt><trkpt lat="46.53747169234127" lon="12.466730033461847"><ele>827.0</ele><time>2026-04-23T08:14:34Z</time></trkpt><trkpt lat="46.53756501830772" lon="12.46661003248649"><ele>827.0</ele><time>2026-04-23T08:14:35Z</time></trkpt><trkpt lat="46.53766144469563" lon="12.46649039598722"><ele>827.0</ele><time>2026-04-23T08:14:36Z</time></trkpt><trkpt lat="46.53775747446864" lon="12.466368390555122"><ele>831.75</ele><time>2026-04-23T08:14:37Z</time></trkpt><trkpt lat="46.53785140405511" lon="12.466242851178281"><ele>836.5</ele><time>2026-04-23T08:14:38Z</time></trkpt><trkpt lat="46.5379431487282" lon="12.46612750467635"><ele>841.25</ele><time>2026-04-23T08:14:39Z</time></trkpt><trkpt lat="46.5380328308152" lon="12.466011584254339"><ele>846.0</ele><time>2026-04-23T08:14:40Z</time></trkpt><trkpt lat="46.538116600964074" lon="12.465889924410035"><ele>846.0</ele><time>2026-04-23T08:14:40.999Z</time></trkpt><trkpt lat="46.53819212871585" lon="12.465756910919014"><ele>846.0</ele><time>2026-04-23T08:14:41.999Z</time></trkpt><trkpt lat="46.53825996596221" lon="12.46561790620325"><ele>846.0</ele><time>2026-04-23T08:14:42.999Z</time></trkpt><trkpt lat="46.53832422998137" lon="12.465474079377238"><ele>846.0</ele><time>2026-04-23T08:14:43.999Z</time></trkpt><trkpt lat="46.538384442626416" lon="12.465319356803219"><ele>839.75</ele><time>2026-04-23T08:14:44.999Z</time></trkpt><trkpt lat="46.538445404191734" lon="12.465155982500542"><ele>833.5</ele><time>2026-04-23T08:14:45.999Z</time></trkpt><trkpt lat="46.538508270264536" lon="12.46499977596608"><ele>827.25</ele><time>2026-04-23T08:14:46.999Z</time></trkpt><trkpt lat="46.53857927768768" lon="12.46485081914375"><ele>821.0</ele><time>2026-04-23T08:14:47.999Z</time></trkpt><trkpt lat="46.53865043445537" lon="12.464704099771277"><ele>823.4</ele><time>2026-04-23T08:14:48.999Z</time></trkpt><trkpt lat="46.53872548732912" lon="12.464563168285615"><ele>825.8</ele><time>2026-04-23T08:14:49.999Z</time></trkpt><trkpt lat="46.538797805872385" lon="12.464431967759909"><ele>828.1999999999999</ele><time>2026-04-23T08:14:50.999Z</time></trkpt><trkpt lat="46.53886519031687" lon="12.464308196118358"><ele>830.5999999999999</ele><time>2026-04-23T08:14:51.999Z</time></trkpt><trkpt lat="46.538928667590774" lon="12.464194674625013"><ele>833.0</ele><time>2026-04-23T08:14:52.999Z</time></trkpt><trkpt lat="46.538981831189844" lon="12.464099790741237"><ele>833.0</ele><time>2026-04-23T08:14:53.999Z</time></trkpt><trkpt lat="46.53903815897806" lon="12.463977475262448"><ele>833.0</ele><time>2026-04-23T08:14:55.999Z</time></trkpt><trkpt lat="46.538994568770555" lon="12.46385439005379"><ele>833.0</ele><time>2026-04-23T08:14:59.999Z</time></trkpt><trkpt lat="46.53894734499093" lon="12.463929731766342"><ele>833.0</ele><time>2026-04-23T08:15:02.999Z</time></trkpt><trkpt lat="46.538972062666325" lon="12.464042485434753"><ele>833.0</ele><time>2026-04-23T08:15:04.999Z</time></trkpt><trkpt lat="46.53891736813554" lon="12.464179385041955"><ele>833.0</ele><time>2026-04-23T08:15:06.999Z</time></trkpt><trkpt lat="46.538858295778056" lon="12.46428979316092"><ele>833.0</ele><time>2026-04-23T08:15:07.999Z</time></trkpt><trkpt lat="46.53878995676493" lon="12.464426801096366"><ele>833.0</ele><time>2026-04-23T08:15:08.999Z</time></trkpt><trkpt lat="46.538684756947724" lon="12.464551522191218"><ele>833.0</ele><time>2026-04-23T08:15:09.999Z</time></trkpt><trkpt lat="46.53861128170355" lon="12.464734660243696"><ele>829.0</ele><time>2026-04-23T08:15:10.999Z</time></trkpt><trkpt lat="46.53852196593668" lon="12.464921269310125"><ele>825.0</ele><time>2026-04-23T08:15:11.999Z</time></trkpt><trkpt lat="46.538425661979765" lon="12.46511519002479"><ele>821.0</ele><time>2026-04-23T08:15:12.999Z</time></trkpt><trkpt lat="46.53834401542083" lon="12.465319411380342"><ele>827.25</ele><time>2026-04-23T08:15:13.999Z</time></trkpt><trkpt lat="46.538269188164996" lon="12.46550740715936"><ele>833.5</ele><time>2026-04-23T08:15:14.999Z</time></trkpt><trkpt lat="46.53821034126065" lon="12.465693325724104"><ele>839.75</ele><time>2026-04-23T08:15:15.999Z</time></trkpt><trkpt lat="46.538111235421965" lon="12.465829368003524"><ele>846.0</ele><time>2026-04-23T08:15:16.999Z</time></trkpt><trkpt lat="46.53801472791903" lon="12.465953344693363"><ele>846.0</ele><time>2026-04-23T08:15:17.999Z</time></trkpt><trkpt lat="46.53792282159024" lon="12.466073889500548"><ele>846.0</ele><time>2026-04-23T08:15:18.999Z</time></trkpt><trkpt lat="46.53782994736597" lon="12.466194976641162"><ele>846.0</ele><time>2026-04-23T08:15:19.999Z</time></trkpt><trkpt lat="46.537748877213886" lon="12.466331167440117"><ele>846.0</ele><time>2026-04-23T08:15:20.999Z</time></trkpt><trkpt lat="46.53765779833001" lon="12.466448577737289"><ele>841.25</ele><time>2026-04-23T08:15:21.999Z</time></trkpt><trkpt lat="46.537565503116426" lon="12.466571720839374"><ele>836.5</ele><time>2026-04-23T08:15:22.999Z</time></trkpt><trkpt lat="46.53745650110752" lon="12.466718739284527"><ele>831.75</ele><time>2026-04-23T08:15:23.999Z</time></trkpt><trkpt lat="46.53733697477864" lon="12.466873021408398"><ele>827.0</ele><time>2026-04-23T08:15:24.999Z</time></trkpt><trkpt lat="46.53721980893561" lon="12.467008837395918"><ele>833.0</ele><time>2026-04-23T08:15:25.999Z</time></trkpt><trkpt lat="46.537091798824704" lon="12.467121133670693"><ele>839.0</ele><time>2026-04-23T08:15:26.999Z</time></trkpt><trkpt lat="46.53694316712086" lon="12.467210066265988"><ele>845.0</ele><time>2026-04-23T08:15:27.999Z</time></trkpt><trkpt lat="46.536775845510306" lon="12.467227334660489"><ele>845.0</ele><time>2026-04-23T08:15:28.999Z</time></trkpt><trkpt lat="46.536598139543436" lon="12.467228800850094"><ele>845.0</ele><time>2026-04-23T08:15:29.999Z</time></trkpt><trkpt lat="46.5364152235921" lon="12.467263376385894"><ele>845.0</ele><time>2026-04-23T08:15:30.999Z</time></trkpt><trkpt lat="46.53623311406862" lon="12.46728365001531"><ele>838.3333333333334</ele><time>2026-04-23T08:15:31.999Z</time></trkpt><trkpt lat="46.53604479062863" lon="12.46732252441407"><ele>831.6666666666667</ele><time>2026-04-23T08:15:32.999Z</time></trkpt><trkpt lat="46.5358533964156" lon="12.467377722211028"><ele>825.0</ele><time>2026-04-23T08:15:33.999Z</time></trkpt><trkpt lat="46.53565912043232" lon="12.467429094526377"><ele>825.0</ele><time>2026-04-23T08:15:34.999Z</time></trkpt><trkpt lat="46.535467279259656" lon="12.467482626760425"><ele>825.0</ele><time>2026-04-23T08:15:35.999Z</time></trkpt><trkpt lat="46.53527599014911" lon="12.467545289187314"><ele>825.0</ele><time>2026-04-23T08:15:36.999Z</time></trkpt><trkpt lat="46.53508482282208" lon="12.467630387731125"><ele>819.0</ele><time>2026-04-23T08:15:37.999Z</time></trkpt><trkpt lat="46.53489352308973" lon="12.467725382940642"><ele>813.0</ele><time>2026-04-23T08:15:38.999Z</time></trkpt><trkpt lat="46.53470161592132" lon="12.467821992382872"><ele>807.0</ele><time>2026-04-23T08:15:39.999Z</time></trkpt><trkpt lat="46.534511488452985" lon="12.467915644743735"><ele>811.0</ele><time>2026-04-23T08:15:40.999Z</time></trkpt><trkpt lat="46.53432244481092" lon="12.468012762087564"><ele>815.0</ele><time>2026-04-23T08:15:41.999Z</time></trkpt><trkpt lat="46.534135429549266" lon="12.468118221268263"><ele>819.0</ele><time>2026-04-23T08:15:42.999Z</time></trkpt><trkpt lat="46.533949704979854" lon="12.468227244297713"><ele>819.0</ele><time>2026-04-23T08:15:43.999Z</time></trkpt><trkpt lat="46.53377088415893" lon="12.468343267490347"><ele>819.0</ele><time>2026-04-23T08:15:44.999Z</time></trkpt><trkpt lat="46.53360179332124" lon="12.468479546487293"><ele>819.0</ele><time>2026-04-23T08:15:45.999Z</time></trkpt><trkpt lat="46.533444655602715" lon="12.468639069745489"><ele>816.0</ele><time>2026-04-23T08:15:46.999Z</time></trkpt><trkpt lat="46.53329548130214" lon="12.468814644883038"><ele>813.0</ele><time>2026-04-23T08:15:47.999Z</time></trkpt><trkpt lat="46.53315780031121" lon="12.468980467550743"><ele>810.0</ele><time>2026-04-23T08:15:48.999Z</time></trkpt><trkpt lat="46.53302356942999" lon="12.469129380319103"><ele>807.6666666666667</ele><time>2026-04-23T08:15:49.999Z</time></trkpt><trkpt lat="46.532888458844965" lon="12.469253832270235"><ele>805.3333333333334</ele><time>2026-04-23T08:15:50.999Z</time></trkpt><trkpt lat="46.53273696430685" lon="12.469304039268616"><ele>803.0</ele><time>2026-04-23T08:15:51.999Z</time></trkpt><trkpt lat="46.53257848659063" lon="12.469341409724226"><ele>803.0</ele><time>2026-04-23T08:15:52.999Z</time></trkpt><trkpt lat="46.53240952529833" lon="12.469375223426427"><ele>803.0</ele><time>2026-04-23T08:15:53.999Z</time></trkpt><trkpt lat="46.53223329553867" lon="12.469424105963833"><ele>803.0</ele><time>2026-04-23T08:15:54.998Z</time></trkpt><trkpt lat="46.53204721626738" lon="12.469438267726906"><ele>801.0</ele><time>2026-04-23T08:15:55.998Z</time></trkpt><trkpt lat="46.53185252357025" lon="12.469420680399027"><ele>799.0</ele><time>2026-04-23T08:15:56.998Z</time></trkpt><trkpt lat="46.53165695621047" lon="12.469379730324192"><ele>797.0</ele><time>2026-04-23T08:15:57.998Z</time></trkpt><trkpt lat="46.53145467555875" lon="12.46931509771128"><ele>797.0</ele><time>2026-04-23T08:15:58.998Z</time></trkpt><trkpt lat="46.531247722716" lon="12.469255257261354"><ele>797.0</ele><time>2026-04-23T08:15:59.998Z</time></trkpt><trkpt lat="46.531033878172984" lon="12.469197529937523"><ele>797.0</ele><time>2026-04-23T08:16:01Z</time></trkpt><trkpt lat="46.530819774300696" lon="12.46913813524284"><ele>799.0</ele><time>2026-04-23T08:16:02Z</time></trkpt><trkpt lat="46.530602453755854" lon="12.469079637276776"><ele>801.0</ele><time>2026-04-23T08:16:03Z</time></trkpt><trkpt lat="46.53038522654008" lon="12.469017099325686"><ele>803.0</ele><time>2026-04-23T08:16:04Z</time></trkpt><trkpt lat="46.5301680560206" lon="12.468953825309162"><ele>799.6666666666667</ele><time>2026-04-23T08:16:05Z</time></trkpt><trkpt lat="46.52994972513638" lon="12.468888167336372"><ele>796.3333333333333</ele><time>2026-04-23T08:16:06Z</time></trkpt><trkpt lat="46.529731117427474" lon="12.468823598462526"><ele>793.0</ele><time>2026-04-23T08:16:07Z</time></trkpt><trkpt lat="46.52951189156914" lon="12.468755474551864"><ele>793.0</ele><time>2026-04-23T08:16:08Z</time></trkpt><trkpt lat="46.52929364907437" lon="12.468688591391532"><ele>793.0</ele><time>2026-04-23T08:16:09Z</time></trkpt><trkpt lat="46.529073625257354" lon="12.468614504403067"><ele>793.0</ele><time>2026-04-23T08:16:10Z</time></trkpt><trkpt lat="46.52885797376322" lon="12.468527554300808"><ele>796.6666666666666</ele><time>2026-04-23T08:16:11Z</time></trkpt><trkpt lat="46.528644462630766" lon="12.46842465313709"><ele>800.3333333333333</ele><time>2026-04-23T08:16:12Z</time></trkpt><trkpt lat="46.528433963017335" lon="12.468317594855575"><ele>804.0</ele><time>2026-04-23T08:16:13Z</time></trkpt><trkpt lat="46.52822039609747" lon="12.46822207738653"><ele>804.0</ele><time>2026-04-23T08:16:14Z</time></trkpt><trkpt lat="46.52800150284368" lon="12.46814551739813"><ele>804.0</ele><time>2026-04-23T08:16:15Z</time></trkpt><trkpt lat="46.527780030081985" lon="12.4680828090354"><ele>801.3333333333333</ele><time>2026-04-23T08:16:16Z</time></trkpt><trkpt lat="46.52755992114299" lon="12.468023973853343"><ele>798.6666666666666</ele><time>2026-04-23T08:16:17Z</time></trkpt><trkpt lat="46.527340197504024" lon="12.467960451375179"><ele>796.0</ele><time>2026-04-23T08:16:18Z</time></trkpt><trkpt lat="46.527129749232024" lon="12.467897813625111"><ele>797.3333333333333</ele><time>2026-04-23T08:16:19Z</time></trkpt><trkpt lat="46.52692115520065" lon="12.46784883408711"><ele>798.6666666666667</ele><time>2026-04-23T08:16:20Z</time></trkpt><trkpt lat="46.526711536024564" lon="12.46782481063254"><ele>800.0</ele><time>2026-04-23T08:16:21Z</time></trkpt><trkpt lat="46.52649965358561" lon="12.467827449129514"><ele>800.0</ele><time>2026-04-23T08:16:22Z</time></trkpt><trkpt lat="46.52628931238117" lon="12.467837742022654"><ele>800.0</ele><time>2026-04-23T08:16:23Z</time></trkpt><trkpt lat="46.526082360892964" lon="12.46784368289843"><ele>800.0</ele><time>2026-04-23T08:16:24Z</time></trkpt><trkpt lat="46.52587636686823" lon="12.46784666610379"><ele>798.3333333333334</ele><time>2026-04-23T08:16:25Z</time></trkpt><trkpt lat="46.52567900736405" lon="12.46780587449773"><ele>796.6666666666667</ele><time>2026-04-23T08:16:26Z</time></trkpt><trkpt lat="46.52549778369285" lon="12.467739446691098"><ele>795.0</ele><time>2026-04-23T08:16:27Z</time></trkpt><trkpt lat="46.5253255941938" lon="12.467633363494054"><ele>800.6666666666667</ele><time>2026-04-23T08:16:28Z</time></trkpt><trkpt lat="46.52515786082494" lon="12.467498356196238"><ele>806.3333333333334</ele><time>2026-04-23T08:16:29Z</time></trkpt><trkpt lat="46.524999842884206" lon="12.46733538475686"><ele>812.0</ele><time>2026-04-23T08:16:30Z</time></trkpt><trkpt lat="46.52485040441101" lon="12.46719810211604"><ele>805.0</ele><time>2026-04-23T08:16:31Z</time></trkpt><trkpt lat="46.52472411429036" lon="12.467048337003721"><ele>798.0</ele><time>2026-04-23T08:16:32Z</time></trkpt><trkpt lat="46.52460148589243" lon="12.466917708250932"><ele>791.0</ele><time>2026-04-23T08:16:33Z</time></trkpt><trkpt lat="46.5244637434241" lon="12.46681929888868"><ele>789.6666666666667</ele><time>2026-04-23T08:16:34Z</time></trkpt><trkpt lat="46.524309965334616" lon="12.46677019884945"><ele>788.3333333333333</ele><time>2026-04-23T08:16:35Z</time></trkpt><trkpt lat="46.52414234188813" lon="12.466774421111738"><ele>787.0</ele><time>2026-04-23T08:16:36Z</time></trkpt><trkpt lat="46.52397323522521" lon="12.466830610925962"><ele>787.0</ele><time>2026-04-23T08:16:37Z</time></trkpt><trkpt lat="46.523799891496246" lon="12.466926588336513"><ele>787.0</ele><time>2026-04-23T08:16:38Z</time></trkpt><trkpt lat="46.52362079773704" lon="12.467013905639897"><ele>787.0</ele><time>2026-04-23T08:16:39Z</time></trkpt><trkpt lat="46.523441074577505" lon="12.467118207140082"><ele>794.6666666666666</ele><time>2026-04-23T08:16:40Z</time></trkpt><trkpt lat="46.52326333183159" lon="12.467221391169973"><ele>802.3333333333333</ele><time>2026-04-23T08:16:41Z</time></trkpt><trkpt lat="46.52308959370643" lon="12.46729415684064"><ele>810.0</ele><time>2026-04-23T08:16:42Z</time></trkpt><trkpt lat="46.52290640252391" lon="12.467310294715396"><ele>805.6666666666667</ele><time>2026-04-23T08:16:43Z</time></trkpt><trkpt lat="46.52272128808644" lon="12.467283131371081"><ele>801.3333333333334</ele><time>2026-04-23T08:16:44Z</time></trkpt><trkpt lat="46.52253048016347" lon="12.467254947677107"><ele>797.0</ele><time>2026-04-23T08:16:45Z</time></trkpt><trkpt lat="46.522339745282004" lon="12.467227376463093"><ele>797.0</ele><time>2026-04-23T08:16:46Z</time></trkpt><trkpt lat="46.52214845258091" lon="12.467200405528626"><ele>797.0</ele><time>2026-04-23T08:16:47Z</time></trkpt><trkpt lat="46.52195848087294" lon="12.467177184307463"><ele>797.0</ele><time>2026-04-23T08:16:48Z</time></trkpt><trkpt lat="46.52176241814126" lon="12.46718372356957"><ele>798.3333333333334</ele><time>2026-04-23T08:16:49Z</time></trkpt><trkpt lat="46.52156640040727" lon="12.467215307852948"><ele>799.6666666666667</ele><time>2026-04-23T08:16:50Z</time></trkpt><trkpt lat="46.521373537834634" lon="12.467272024170926"><ele>801.0</ele><time>2026-04-23T08:16:51Z</time></trkpt><trkpt lat="46.52118590750897" lon="12.467340766694104"><ele>801.6666666666667</ele><time>2026-04-23T08:16:52Z</time></trkpt><trkpt lat="46.52099469015779" lon="12.467398665937232"><ele>802.3333333333334</ele><time>2026-04-23T08:16:53Z</time></trkpt><trkpt lat="46.52080506771987" lon="12.467413683046326"><ele>803.0</ele><time>2026-04-23T08:16:54Z</time></trkpt><trkpt lat="46.52061266494787" lon="12.4674114573439"><ele>803.0</ele><time>2026-04-23T08:16:55Z</time></trkpt><trkpt lat="46.520422331510915" lon="12.467344316141416"><ele>803.0</ele><time>2026-04-23T08:16:55.999Z</time></trkpt><trkpt lat="46.52024526696193" lon="12.467217263984656"><ele>803.0</ele><time>2026-04-23T08:16:56.999Z</time></trkpt><trkpt lat="46.520062720333314" lon="12.467100999787604"><ele>808.0</ele><time>2026-04-23T08:16:57.999Z</time></trkpt><trkpt lat="46.51987787331109" lon="12.466987443702656"><ele>813.0</ele><time>2026-04-23T08:16:58.999Z</time></trkpt><trkpt lat="46.51971221840303" lon="12.466827378466474"><ele>818.0</ele><time>2026-04-23T08:16:59.999Z</time></trkpt><trkpt lat="46.51955796762792" lon="12.466648986524714"><ele>818.0</ele><time>2026-04-23T08:17:00.999Z</time></trkpt><trkpt lat="46.519403811273335" lon="12.4664630725476"><ele>818.0</ele><time>2026-04-23T08:17:01.999Z</time></trkpt><trkpt lat="46.51924740572775" lon="12.466280241106503"><ele>818.0</ele><time>2026-04-23T08:17:02.999Z</time></trkpt><trkpt lat="46.519081671751074" lon="12.466107613601816"><ele>811.3333333333334</ele><time>2026-04-23T08:17:03.999Z</time></trkpt><trkpt lat="46.51890045453883" lon="12.465964913793258"><ele>804.6666666666667</ele><time>2026-04-23T08:17:04.999Z</time></trkpt><trkpt lat="46.51870965934139" lon="12.465838188085984"><ele>798.0</ele><time>2026-04-23T08:17:05.999Z</time></trkpt><trkpt lat="46.51852056791833" lon="12.465711469861203"><ele>798.0</ele><time>2026-04-23T08:17:06.999Z</time></trkpt><trkpt lat="46.51834540973155" lon="12.465587437132998"><ele>798.0</ele><time>2026-04-23T08:17:07.999Z</time></trkpt><trkpt lat="46.518181241616446" lon="12.46547089597717"><ele>798.0</ele><time>2026-04-23T08:17:08.999Z</time></trkpt><trkpt lat="46.5180282176225" lon="12.465366680997022"><ele>796.25</ele><time>2026-04-23T08:17:09.999Z</time></trkpt><trkpt lat="46.51788655561883" lon="12.465269317955215"><ele>794.5</ele><time>2026-04-23T08:17:10.999Z</time></trkpt><trkpt lat="46.51775338982489" lon="12.46517564965739"><ele>792.75</ele><time>2026-04-23T08:17:11.999Z</time></trkpt><trkpt lat="46.51762684551822" lon="12.465082710474638"><ele>791.0</ele><time>2026-04-23T08:17:12.999Z</time></trkpt><trkpt lat="46.5174976673973" lon="12.464987394796331"><ele>791.0</ele><time>2026-04-23T08:17:13.999Z</time></trkpt><trkpt lat="46.517369966602516" lon="12.464898339435317"><ele>791.0</ele><time>2026-04-23T08:17:14.999Z</time></trkpt><trkpt lat="46.51724610175727" lon="12.46480604775077"><ele>791.0</ele><time>2026-04-23T08:17:15.999Z</time></trkpt><trkpt lat="46.51711903757914" lon="12.464700119289908"><ele>791.0</ele><time>2026-04-23T08:17:16.999Z</time></trkpt><trkpt lat="46.5169852849652" lon="12.464629159205566"><ele>790.75</ele><time>2026-04-23T08:17:17.999Z</time></trkpt><trkpt lat="46.51685373275703" lon="12.464536178964318"><ele>790.5</ele><time>2026-04-23T08:17:18.999Z</time></trkpt><trkpt lat="46.516718013351046" lon="12.464446982348337"><ele>790.25</ele><time>2026-04-23T08:17:19.999Z</time></trkpt><trkpt lat="46.516583225968304" lon="12.46436018376799"><ele>790.0</ele><time>2026-04-23T08:17:20.999Z</time></trkpt><trkpt lat="46.51644932094924" lon="12.464271813760273"><ele>790.0</ele><time>2026-04-23T08:17:21.999Z</time></trkpt><trkpt lat="46.516316509686916" lon="12.46419241738662"><ele>790.0</ele><time>2026-04-23T08:17:22.999Z</time></trkpt><trkpt lat="46.51617974674722" lon="12.464125846459961"><ele>790.0</ele><time>2026-04-23T08:17:23.999Z</time></trkpt><trkpt lat="46.51603973611394" lon="12.464070105376628"><ele>790.0</ele><time>2026-04-23T08:17:24.999Z</time></trkpt><trkpt lat="46.515893916070425" lon="12.46402999315066"><ele>789.25</ele><time>2026-04-23T08:17:25.999Z</time></trkpt><trkpt lat="46.51574677916439" lon="12.463994505812813"><ele>788.5</ele><time>2026-04-23T08:17:26.999Z</time></trkpt><trkpt lat="46.51560060582644" lon="12.463957001297636"><ele>787.75</ele><time>2026-04-23T08:17:27.999Z</time></trkpt><trkpt lat="46.51545776499956" lon="12.463919234622862"><ele>787.0</ele><time>2026-04-23T08:17:28.999Z</time></trkpt><trkpt lat="46.51531316226108" lon="12.463874929560589"><ele>785.3333333333333</ele><time>2026-04-23T08:17:29.999Z</time></trkpt><trkpt lat="46.51516911691614" lon="12.463827706050997"><ele>783.6666666666667</ele><time>2026-04-23T08:17:30.999Z</time></trkpt><trkpt lat="46.51502200138485" lon="12.46378300271875"><ele>782.0</ele><time>2026-04-23T08:17:31.999Z</time></trkpt><trkpt lat="46.514872197143674" lon="12.46374735199844"><ele>781.0</ele><time>2026-04-23T08:17:32.999Z</time></trkpt><trkpt lat="46.514719143436125" lon="12.463707865088361"><ele>780.0</ele><time>2026-04-23T08:17:33.999Z</time></trkpt><trkpt lat="46.514564511308706" lon="12.463664911024487"><ele>779.0</ele><time>2026-04-23T08:17:34.999Z</time></trkpt><trkpt lat="46.514407969080715" lon="12.463614709015788"><ele>779.0</ele><time>2026-04-23T08:17:35.999Z</time></trkpt><trkpt lat="46.514246857413085" lon="12.463560243329143"><ele>779.0</ele><time>2026-04-23T08:17:36.999Z</time></trkpt><trkpt lat="46.51410108598928" lon="12.46344921635139"><ele>779.0</ele><time>2026-04-23T08:17:37.999Z</time></trkpt><trkpt lat="46.51396680830832" lon="12.463329265665982"><ele>779.0</ele><time>2026-04-23T08:17:38.999Z</time></trkpt><trkpt lat="46.51384405146206" lon="12.463191874170477"><ele>779.0</ele><time>2026-04-23T08:17:39.999Z</time></trkpt><trkpt lat="46.51372364167503" lon="12.463048433033535"><ele>779.0</ele><time>2026-04-23T08:17:40.999Z</time></trkpt><trkpt lat="46.513604925819386" lon="12.462897594122786"><ele>777.0</ele><time>2026-04-23T08:17:41.999Z</time></trkpt><trkpt lat="46.513486051965174" lon="12.462752073513336"><ele>775.0</ele><time>2026-04-23T08:17:42.999Z</time></trkpt><trkpt lat="46.51336185596331" lon="12.462612635848439"><ele>773.0</ele><time>2026-04-23T08:17:43.999Z</time></trkpt><trkpt lat="46.513233666582735" lon="12.462476556931655"><ele>773.0</ele><time>2026-04-23T08:17:44.999Z</time></trkpt><trkpt lat="46.51309876584655" lon="12.462345789389243"><ele>773.0</ele><time>2026-04-23T08:17:45.999Z</time></trkpt><trkpt lat="46.51295649515329" lon="12.462224638733609"><ele>773.0</ele><time>2026-04-23T08:17:46.999Z</time></trkpt><trkpt lat="46.51281201805274" lon="12.46210719463718"><ele>771.0</ele><time>2026-04-23T08:17:47.999Z</time></trkpt><trkpt lat="46.5126673877245" lon="12.461997773688521"><ele>769.0</ele><time>2026-04-23T08:17:48.999Z</time></trkpt><trkpt lat="46.512517255865205" lon="12.461883785872299"><ele>767.0</ele><time>2026-04-23T08:17:49.999Z</time></trkpt><trkpt lat="46.512367073058705" lon="12.461770006719053"><ele>767.0</ele><time>2026-04-23T08:17:50.999Z</time></trkpt><trkpt lat="46.51221211872293" lon="12.461655083218455"><ele>767.0</ele><time>2026-04-23T08:17:51.999Z</time></trkpt><trkpt lat="46.51205739914063" lon="12.46154016998547"><ele>767.0</ele><time>2026-04-23T08:17:52.999Z</time></trkpt><trkpt lat="46.511901906671916" lon="12.461421357188028"><ele>767.6666666666666</ele><time>2026-04-23T08:17:53.999Z</time></trkpt><trkpt lat="46.51175062692971" lon="12.46130534713854"><ele>768.3333333333333</ele><time>2026-04-23T08:17:54.999Z</time></trkpt><trkpt lat="46.511597655804444" lon="12.461187449602026"><ele>769.0</ele><time>2026-04-23T08:17:55.999Z</time></trkpt><trkpt lat="46.511443755660416" lon="12.461069816974826"><ele>770.0</ele><time>2026-04-23T08:17:56.999Z</time></trkpt><trkpt lat="46.51128791567585" lon="12.460957435919614"><ele>771.0</ele><time>2026-04-23T08:17:57.999Z</time></trkpt><trkpt lat="46.511129866893114" lon="12.460839549083"><ele>772.0</ele><time>2026-04-23T08:17:58.999Z</time></trkpt><trkpt lat="46.510973817101146" lon="12.460705513327227"><ele>772.0</ele><time>2026-04-23T08:17:59.999Z</time></trkpt><trkpt lat="46.51082346649412" lon="12.460557189328581"><ele>772.0</ele><time>2026-04-23T08:18:00.999Z</time></trkpt><trkpt lat="46.510676820178446" lon="12.460387252436119"><ele>772.0</ele><time>2026-04-23T08:18:01.999Z</time></trkpt><trkpt lat="46.51053549283831" lon="12.460207945674037"><ele>767.6666666666666</ele><time>2026-04-23T08:18:02.999Z</time></trkpt><trkpt lat="46.51039153448219" lon="12.460022935873525"><ele>763.3333333333333</ele><time>2026-04-23T08:18:03.999Z</time></trkpt><trkpt lat="46.510247197107724" lon="12.459837723013631"><ele>759.0</ele><time>2026-04-23T08:18:04.999Z</time></trkpt><trkpt lat="46.510103081412375" lon="12.45965245340357"><ele>757.6666666666666</ele><time>2026-04-23T08:18:05.999Z</time></trkpt><trkpt lat="46.509959350549956" lon="12.45947534204862"><ele>756.3333333333333</ele><time>2026-04-23T08:18:07Z</time></trkpt><trkpt lat="46.50981260387376" lon="12.45930651641862"><ele>755.0</ele><time>2026-04-23T08:18:08Z</time></trkpt><trkpt lat="46.50965583589792" lon="12.459147618262731"><ele>752.0</ele><time>2026-04-23T08:18:09Z</time></trkpt><trkpt lat="46.5094941340678" lon="12.459000950589015"><ele>749.0</ele><time>2026-04-23T08:18:10Z</time></trkpt><trkpt lat="46.5093273554044" lon="12.458861590082968"><ele>746.0</ele><time>2026-04-23T08:18:11Z</time></trkpt><trkpt lat="46.50915681918313" lon="12.458733040581286"><ele>746.0</ele><time>2026-04-23T08:18:12Z</time></trkpt><trkpt lat="46.50898440154333" lon="12.458618622362192"><ele>746.0</ele><time>2026-04-23T08:18:13Z</time></trkpt><trkpt lat="46.50880713288141" lon="12.458516007689553"><ele>746.0</ele><time>2026-04-23T08:18:14Z</time></trkpt><trkpt lat="46.508627397012205" lon="12.458417646786794"><ele>743.0</ele><time>2026-04-23T08:18:15Z</time></trkpt><trkpt lat="46.50844801384426" lon="12.45831787804813"><ele>740.0</ele><time>2026-04-23T08:18:16Z</time></trkpt><trkpt lat="46.50827040419331" lon="12.458216569853295"><ele>737.0</ele><time>2026-04-23T08:18:17Z</time></trkpt><trkpt lat="46.50809189854457" lon="12.458115909022304"><ele>737.0</ele><time>2026-04-23T08:18:18Z</time></trkpt><trkpt lat="46.50791802197468" lon="12.458020578080657"><ele>737.0</ele><time>2026-04-23T08:18:19Z</time></trkpt><trkpt lat="46.507744264470986" lon="12.457922495755268"><ele>737.0</ele><time>2026-04-23T08:18:20Z</time></trkpt><trkpt lat="46.5075698364756" lon="12.457826665043651"><ele>737.3333333333333</ele><time>2026-04-23T08:18:21Z</time></trkpt><trkpt lat="46.507398615787835" lon="12.457736824782428"><ele>737.6666666666666</ele><time>2026-04-23T08:18:22Z</time></trkpt><trkpt lat="46.5072297608496" lon="12.457652981326763"><ele>738.0</ele><time>2026-04-23T08:18:23Z</time></trkpt><trkpt lat="46.50706205009044" lon="12.457576855547197"><ele>738.0</ele><time>2026-04-23T08:18:24Z</time></trkpt><trkpt lat="46.506894979572046" lon="12.457518098752763"><ele>738.0</ele><time>2026-04-23T08:18:25Z</time></trkpt><trkpt lat="46.50672120681158" lon="12.457490400566995"><ele>738.0</ele><time>2026-04-23T08:18:26Z</time></trkpt><trkpt lat="46.50654588141233" lon="12.457491091570175"><ele>738.0</ele><time>2026-04-23T08:18:27Z</time></trkpt><trkpt lat="46.50637112966832" lon="12.457517872179455"><ele>738.0</ele><time>2026-04-23T08:18:28Z</time></trkpt><trkpt lat="46.50619271300367" lon="12.457555158629807"><ele>738.0</ele><time>2026-04-23T08:18:29Z</time></trkpt><trkpt lat="46.50601284223716" lon="12.45758389509926"><ele>739.6666666666666</ele><time>2026-04-23T08:18:30Z</time></trkpt><trkpt lat="46.505831906746046" lon="12.457609211119275"><ele>741.3333333333333</ele><time>2026-04-23T08:18:31Z</time></trkpt><trkpt lat="46.5056477206824" lon="12.457626520675744"><ele>743.0</ele><time>2026-04-23T08:18:32Z</time></trkpt><trkpt lat="46.505465178700014" lon="12.457591186833898"><ele>743.6666666666666</ele><time>2026-04-23T08:18:33Z</time></trkpt><trkpt lat="46.50528122916105" lon="12.457557140750948"><ele>744.3333333333334</ele><time>2026-04-23T08:18:34Z</time></trkpt><trkpt lat="46.50509791494187" lon="12.457543917237636"><ele>745.0</ele><time>2026-04-23T08:18:35Z</time></trkpt><trkpt lat="46.5049241768083" lon="12.457499565881765"><ele>745.0</ele><time>2026-04-23T08:18:36Z</time></trkpt><trkpt lat="46.50475437532854" lon="12.45747257682507"><ele>745.0</ele><time>2026-04-23T08:18:37Z</time></trkpt><trkpt lat="46.50457908203775" lon="12.457476044624583"><ele>745.0</ele><time>2026-04-23T08:18:38Z</time></trkpt><trkpt lat="46.50440045303433" lon="12.457510997373237"><ele>743.0</ele><time>2026-04-23T08:18:39Z</time></trkpt><trkpt lat="46.504216566317346" lon="12.457525960635378"><ele>741.0</ele><time>2026-04-23T08:18:40Z</time></trkpt><trkpt lat="46.50403440051245" lon="12.457549267869155"><ele>739.0</ele><time>2026-04-23T08:18:41Z</time></trkpt><trkpt lat="46.50384962495433" lon="12.457595805669447"><ele>740.3333333333334</ele><time>2026-04-23T08:18:42Z</time></trkpt><trkpt lat="46.503662532737145" lon="12.457605815895437"><ele>741.6666666666666</ele><time>2026-04-23T08:18:43Z</time></trkpt><trkpt lat="46.50347801473254" lon="12.457584074198037"><ele>743.0</ele><time>2026-04-23T08:18:44Z</time></trkpt><trkpt lat="46.50330001141462" lon="12.45749179011722"><ele>743.0</ele><time>2026-04-23T08:18:45Z</time></trkpt><trkpt lat="46.503126087939386" lon="12.457388201929625"><ele>743.0</ele><time>2026-04-23T08:18:46Z</time></trkpt><trkpt lat="46.502954193933846" lon="12.457281429296009"><ele>743.0</ele><time>2026-04-23T08:18:47Z</time></trkpt><trkpt lat="46.502793760009325" lon="12.4571407932043"><ele>739.3333333333333</ele><time>2026-04-23T08:18:48Z</time></trkpt><trkpt lat="46.50263185485739" lon="12.456999314912753"><ele>735.6666666666666</ele><time>2026-04-23T08:18:49Z</time></trkpt><trkpt lat="46.50247171061675" lon="12.456864780286011"><ele>732.0</ele><time>2026-04-23T08:18:50Z</time></trkpt><trkpt lat="46.50231055564006" lon="12.456737904472712"><ele>732.0</ele><time>2026-04-23T08:18:51Z</time></trkpt><trkpt lat="46.50215131289655" lon="12.456606751791982"><ele>732.0</ele><time>2026-04-23T08:18:52Z</time></trkpt><trkpt lat="46.50199506802303" lon="12.45648016334001"><ele>732.0</ele><time>2026-04-23T08:18:53Z</time></trkpt><trkpt lat="46.50183655881365" lon="12.456353900844938"><ele>733.6666666666666</ele><time>2026-04-23T08:18:54Z</time></trkpt><trkpt lat="46.50168029916659" lon="12.456231509961873"><ele>735.3333333333333</ele><time>2026-04-23T08:18:55Z</time></trkpt><trkpt lat="46.50152398021216" lon="12.456107169476306"><ele>737.0</ele><time>2026-04-23T08:18:56Z</time></trkpt><trkpt lat="46.5013679498278" lon="12.455981535432928"><ele>736.6666666666666</ele><time>2026-04-23T08:18:57Z</time></trkpt><trkpt lat="46.5012110598154" lon="12.455853921058608"><ele>736.3333333333334</ele><time>2026-04-23T08:18:58Z</time></trkpt><trkpt lat="46.50105385776445" lon="12.455727424398813"><ele>736.0</ele><time>2026-04-23T08:18:59Z</time></trkpt><trkpt lat="46.500894504222764" lon="12.45560453504696"><ele>736.0</ele><time>2026-04-23T08:19:00Z</time></trkpt><trkpt lat="46.5007233296309" lon="12.455490279489934"><ele>736.0</ele><time>2026-04-23T08:19:01Z</time></trkpt><trkpt lat="46.50053489753411" lon="12.455376126943149"><ele>736.0</ele><time>2026-04-23T08:19:02Z</time></trkpt><trkpt lat="46.50033044355393" lon="12.455272784424698"><ele>733.3333333333334</ele><time>2026-04-23T08:19:03Z</time></trkpt><trkpt lat="46.500118825241756" lon="12.455178030339898"><ele>730.6666666666666</ele><time>2026-04-23T08:19:04Z</time></trkpt><trkpt lat="46.49990253019239" lon="12.45509837282205"><ele>728.0</ele><time>2026-04-23T08:19:05Z</time></trkpt><trkpt lat="46.49968294424077" lon="12.455035534870026"><ele>729.0</ele><time>2026-04-23T08:19:06Z</time></trkpt><trkpt lat="46.499460968073315" lon="12.45498194874502"><ele>730.0</ele><time>2026-04-23T08:19:06.999Z</time></trkpt><trkpt lat="46.499243216403684" lon="12.454929809156747"><ele>731.0</ele><time>2026-04-23T08:19:07.999Z</time></trkpt><trkpt lat="46.49902746625029" lon="12.454875544214174"><ele>731.0</ele><time>2026-04-23T08:19:08.999Z</time></trkpt><trkpt lat="46.498818479592295" lon="12.454825200857389"><ele>731.0</ele><time>2026-04-23T08:19:09.999Z</time></trkpt><trkpt lat="46.49860956986519" lon="12.454762199105115"><ele>731.0</ele><time>2026-04-23T08:19:10.999Z</time></trkpt><trkpt lat="46.49840513353764" lon="12.45468690582851"><ele>730.0</ele><time>2026-04-23T08:19:11.999Z</time></trkpt><trkpt lat="46.49820539135405" lon="12.454600394242023"><ele>729.0</ele><time>2026-04-23T08:19:12.999Z</time></trkpt><trkpt lat="46.498011685577104" lon="12.454512837540944"><ele>728.0</ele><time>2026-04-23T08:19:13.999Z</time></trkpt><trkpt lat="46.497830071599935" lon="12.454426819403956"><ele>728.0</ele><time>2026-04-23T08:19:14.999Z</time></trkpt><trkpt lat="46.49765411785981" lon="12.454341211233062"><ele>728.0</ele><time>2026-04-23T08:19:15.999Z</time></trkpt><trkpt lat="46.49748009592954" lon="12.454237740144041"><ele>728.0</ele><time>2026-04-23T08:19:16.999Z</time></trkpt><trkpt lat="46.49732784508992" lon="12.45407981581073"><ele>728.0</ele><time>2026-04-23T08:19:17.999Z</time></trkpt><trkpt lat="46.49716793549924" lon="12.453968608713755"><ele>728.0</ele><time>2026-04-23T08:19:18.999Z</time></trkpt><trkpt lat="46.49700312506125" lon="12.45387073244083"><ele>728.0</ele><time>2026-04-23T08:19:19.999Z</time></trkpt><trkpt lat="46.4968309910384" lon="12.453771949795268"><ele>729.6666666666666</ele><time>2026-04-23T08:19:20.999Z</time></trkpt><trkpt lat="46.49668281926387" lon="12.45362629379564"><ele>731.3333333333334</ele><time>2026-04-23T08:19:21.999Z</time></trkpt><trkpt lat="46.4965538658162" lon="12.45347349553929"><ele>733.0</ele><time>2026-04-23T08:19:22.999Z</time></trkpt><trkpt lat="46.49640758180622" lon="12.453366920159826"><ele>743.0</ele><time>2026-04-23T08:19:23.999Z</time></trkpt><trkpt lat="46.49623745625258" lon="12.453281896684972"><ele>753.0</ele><time>2026-04-23T08:19:24.999Z</time></trkpt><trkpt lat="46.496068241345974" lon="12.453179181861026"><ele>763.0</ele><time>2026-04-23T08:19:25.999Z</time></trkpt><trkpt lat="46.49591481074802" lon="12.453034079061949"><ele>750.6666666666667</ele><time>2026-04-23T08:19:26.999Z</time></trkpt><trkpt lat="46.495777264692165" lon="12.45286077995503"><ele>738.3333333333334</ele><time>2026-04-23T08:19:27.999Z</time></trkpt><trkpt lat="46.49564419564097" lon="12.45271594190126"><ele>726.0</ele><time>2026-04-23T08:19:28.999Z</time></trkpt><trkpt lat="46.495496175106645" lon="12.452626562942354"><ele>730.6666666666666</ele><time>2026-04-23T08:19:29.999Z</time></trkpt><trkpt lat="46.49532784341223" lon="12.452579716433352"><ele>735.3333333333333</ele><time>2026-04-23T08:19:30.999Z</time></trkpt><trkpt lat="46.49515033032389" lon="12.452552110546728"><ele>740.0</ele><time>2026-04-23T08:19:31.999Z</time></trkpt><trkpt lat="46.49498209750328" lon="12.45252936634731"><ele>740.0</ele><time>2026-04-23T08:19:32.999Z</time></trkpt><trkpt lat="46.49483806459974" lon="12.452499751753697"><ele>740.0</ele><time>2026-04-23T08:19:33.999Z</time></trkpt><trkpt lat="46.494710290660564" lon="12.452466394768631"><ele>740.0</ele><time>2026-04-23T08:19:34.999Z</time></trkpt><trkpt lat="46.49459556160886" lon="12.452430403292583"><ele>740.0</ele><time>2026-04-23T08:19:35.999Z</time></trkpt><trkpt lat="46.49449200324499" lon="12.4523713545347"><ele>741.0</ele><time>2026-04-23T08:19:36.999Z</time></trkpt><trkpt lat="46.49440792304237" lon="12.452279593258133"><ele>742.0</ele><time>2026-04-23T08:19:37.999Z</time></trkpt><trkpt lat="46.494321102773945" lon="12.452192514827354"><ele>743.0</ele><time>2026-04-23T08:19:38.999Z</time></trkpt><trkpt lat="46.49420836063821" lon="12.452147568723227"><ele>744.0</ele><time>2026-04-23T08:19:39.999Z</time></trkpt><trkpt lat="46.494081013682155" lon="12.452158824904435"><ele>744.0</ele><time>2026-04-23T08:19:40.999Z</time></trkpt><trkpt lat="46.493955569695466" lon="12.452215414746235"><ele>744.0</ele><time>2026-04-23T08:19:41.999Z</time></trkpt><trkpt lat="46.493850283038576" lon="12.45230314676697"><ele>744.0</ele><time>2026-04-23T08:19:42.999Z</time></trkpt><trkpt lat="46.49375264247013" lon="12.452391247568894"><ele>744.0</ele><time>2026-04-23T08:19:43.999Z</time></trkpt><trkpt lat="46.49365391556364" lon="12.452450599747548"><ele>745.2</ele><time>2026-04-23T08:19:44.999Z</time></trkpt><trkpt lat="46.49355582756791" lon="12.452465149592685"><ele>746.4000000000001</ele><time>2026-04-23T08:19:45.999Z</time></trkpt><trkpt lat="46.49346271932711" lon="12.452444808785257"><ele>747.6</ele><time>2026-04-23T08:19:46.999Z</time></trkpt><trkpt lat="46.49337338005294" lon="12.452385249763886"><ele>748.8</ele><time>2026-04-23T08:19:47.999Z</time></trkpt><trkpt lat="46.49330187199541" lon="12.45226848537745"><ele>750.0</ele><time>2026-04-23T08:19:48.999Z</time></trkpt><trkpt lat="46.493251717783295" lon="12.452128323657469"><ele>750.2</ele><time>2026-04-23T08:19:49.999Z</time></trkpt><trkpt lat="46.49321093225792" lon="12.45198782394604"><ele>750.4</ele><time>2026-04-23T08:19:50.999Z</time></trkpt><trkpt lat="46.49316072992237" lon="12.451857158709284"><ele>750.5999999999999</ele><time>2026-04-23T08:19:51.999Z</time></trkpt><trkpt lat="46.493105374538295" lon="12.451730360701225"><ele>750.8</ele><time>2026-04-23T08:19:52.999Z</time></trkpt><trkpt lat="46.493029487077024" lon="12.451613955994429"><ele>751.0</ele><time>2026-04-23T08:19:53.999Z</time></trkpt><trkpt lat="46.49293328627111" lon="12.451534333464824"><ele>749.25</ele><time>2026-04-23T08:19:54.999Z</time></trkpt><trkpt lat="46.49281448317463" lon="12.45148933429828"><ele>747.5</ele><time>2026-04-23T08:19:55.999Z</time></trkpt><trkpt lat="46.492686969272434" lon="12.451446346931636"><ele>745.75</ele><time>2026-04-23T08:19:56.999Z</time></trkpt><trkpt lat="46.49255753195307" lon="12.451416506893702"><ele>744.0</ele><time>2026-04-23T08:19:57.999Z</time></trkpt><trkpt lat="46.49241592456547" lon="12.451397549625389"><ele>744.0</ele><time>2026-04-23T08:19:58.999Z</time></trkpt><trkpt lat="46.49227296948733" lon="12.451397314395779"><ele>744.0</ele><time>2026-04-23T08:19:59.999Z</time></trkpt><trkpt lat="46.49213204803716" lon="12.451409863984875"><ele>744.0</ele><time>2026-04-23T08:20:00.999Z</time></trkpt><trkpt lat="46.49198804184026" lon="12.451401488212621"><ele>744.0</ele><time>2026-04-23T08:20:01.999Z</time></trkpt><trkpt lat="46.49184703459314" lon="12.451408449270689"><ele>742.5</ele><time>2026-04-23T08:20:02.999Z</time></trkpt><trkpt lat="46.49170972306679" lon="12.451425698362703"><ele>741.0</ele><time>2026-04-23T08:20:03.999Z</time></trkpt><trkpt lat="46.491576059646974" lon="12.451409336703499"><ele>739.5</ele><time>2026-04-23T08:20:04.999Z</time></trkpt><trkpt lat="46.49143979184586" lon="12.451381446710476"><ele>738.0</ele><time>2026-04-23T08:20:05.999Z</time></trkpt><trkpt lat="46.491302961812174" lon="12.451349066002846"><ele>738.25</ele><time>2026-04-23T08:20:06.999Z</time></trkpt><trkpt lat="46.49116326295146" lon="12.451332188665376"><ele>738.5</ele><time>2026-04-23T08:20:07.999Z</time></trkpt><trkpt lat="46.491020146603276" lon="12.451341554338926"><ele>738.75</ele><time>2026-04-23T08:20:08.999Z</time></trkpt><trkpt lat="46.490884213664174" lon="12.451372588516561"><ele>739.0</ele><time>2026-04-23T08:20:09.999Z</time></trkpt><trkpt lat="46.49075476912061" lon="12.451411582101445"><ele>739.0</ele><time>2026-04-23T08:20:10.999Z</time></trkpt><trkpt lat="46.490621239624495" lon="12.451431624001637"><ele>739.0</ele><time>2026-04-23T08:20:11.999Z</time></trkpt><trkpt lat="46.49048173477938" lon="12.451413750721933"><ele>739.0</ele><time>2026-04-23T08:20:13Z</time></trkpt><trkpt lat="46.49034306359216" lon="12.451371976156027"><ele>739.0</ele><time>2026-04-23T08:20:14Z</time></trkpt><trkpt lat="46.49020533157668" lon="12.451331352413908"><ele>738.0</ele><time>2026-04-23T08:20:15Z</time></trkpt><trkpt lat="46.49006140291908" lon="12.451293198920416"><ele>737.0</ele><time>2026-04-23T08:20:16Z</time></trkpt><trkpt lat="46.4899123547628" lon="12.451237924852713"><ele>736.0</ele><time>2026-04-23T08:20:17Z</time></trkpt><trkpt lat="46.48976134766505" lon="12.451166134407844"><ele>740.6666666666667</ele><time>2026-04-23T08:20:18Z</time></trkpt><trkpt lat="46.48961233954365" lon="12.451090566515632"><ele>745.3333333333334</ele><time>2026-04-23T08:20:19Z</time></trkpt><trkpt lat="46.48945646642609" lon="12.451021536264829"><ele>750.0</ele><time>2026-04-23T08:20:20Z</time></trkpt><trkpt lat="46.489298511618024" lon="12.450958284456386"><ele>750.0</ele><time>2026-04-23T08:20:21Z</time></trkpt><trkpt lat="46.48913392962302" lon="12.450904871133414"><ele>750.0</ele><time>2026-04-23T08:20:22Z</time></trkpt><trkpt lat="46.488963078207775" lon="12.450867105708754"><ele>750.0</ele><time>2026-04-23T08:20:23Z</time></trkpt><trkpt lat="46.4887831776813" lon="12.450852579512771"><ele>750.0</ele><time>2026-04-23T08:20:24Z</time></trkpt><trkpt lat="46.48859898492527" lon="12.45085159687077"><ele>750.0</ele><time>2026-04-23T08:20:25Z</time></trkpt><trkpt lat="46.488410170103585" lon="12.450843515297082"><ele>750.0</ele><time>2026-04-23T08:20:26Z</time></trkpt><trkpt lat="46.488216647091356" lon="12.45082930958508"><ele>750.0</ele><time>2026-04-23T08:20:27Z</time></trkpt><trkpt lat="46.488020698524785" lon="12.450817657218552"><ele>750.0</ele><time>2026-04-23T08:20:28Z</time></trkpt><trkpt lat="46.487819407820155" lon="12.45080648779187"><ele>750.0</ele><time>2026-04-23T08:20:29Z</time></trkpt><trkpt lat="46.4876166919768" lon="12.45079974865874"><ele>746.3333333333334</ele><time>2026-04-23T08:20:30Z</time></trkpt><trkpt lat="46.487418562384455" lon="12.450792077347561"><ele>742.6666666666667</ele><time>2026-04-23T08:20:31Z</time></trkpt><trkpt lat="46.48721366340949" lon="12.450779413095775"><ele>739.0</ele><time>2026-04-23T08:20:32Z</time></trkpt><trkpt lat="46.4870046050661" lon="12.450764076043766"><ele>734.6666666666667</ele><time>2026-04-23T08:20:33Z</time></trkpt><trkpt lat="46.48679205074153" lon="12.450750940772402"><ele>730.3333333333334</ele><time>2026-04-23T08:20:34Z</time></trkpt><trkpt lat="46.486577102894756" lon="12.450731049299808"><ele>726.0</ele><time>2026-04-23T08:20:35Z</time></trkpt><trkpt lat="46.48635948337424" lon="12.450687821634366"><ele>725.3333333333334</ele><time>2026-04-23T08:20:36Z</time></trkpt><trkpt lat="46.48614268144546" lon="12.450616005874407"><ele>724.6666666666667</ele><time>2026-04-23T08:20:37Z</time></trkpt><trkpt lat="46.48592521574838" lon="12.450523437029213"><ele>724.0</ele><time>2026-04-23T08:20:38Z</time></trkpt><trkpt lat="46.48570919764245" lon="12.450412300526432"><ele>724.0</ele><time>2026-04-23T08:20:39Z</time></trkpt><trkpt lat="46.4855005795473" lon="12.450273830357965"><ele>724.0</ele><time>2026-04-23T08:20:40Z</time></trkpt><trkpt lat="46.485300295448894" lon="12.450110505297355"><ele>724.0</ele><time>2026-04-23T08:20:41Z</time></trkpt><trkpt lat="46.48511354504813" lon="12.449920022497642"><ele>724.0</ele><time>2026-04-23T08:20:42Z</time></trkpt><trkpt lat="46.4849378473612" lon="12.449703189236018"><ele>724.5</ele><time>2026-04-23T08:20:43Z</time></trkpt><trkpt lat="46.48476989911778" lon="12.449467548481719"><ele>725.0</ele><time>2026-04-23T08:20:44Z</time></trkpt><trkpt lat="46.484610615336166" lon="12.449214023688109"><ele>722.0</ele><time>2026-04-23T08:20:45Z</time></trkpt><trkpt lat="46.4844635540571" lon="12.448945706966894"><ele>719.0</ele><time>2026-04-23T08:20:46Z</time></trkpt><trkpt lat="46.484326528639535" lon="12.448664947641573"><ele>719.0</ele><time>2026-04-23T08:20:47Z</time></trkpt><trkpt lat="46.484207162168865" lon="12.44837041338993"><ele>719.0</ele><time>2026-04-23T08:20:48Z</time></trkpt><trkpt lat="46.484093489128696" lon="12.448075820321202"><ele>725.0</ele><time>2026-04-23T08:20:49Z</time></trkpt><trkpt lat="46.48397762803067" lon="12.447785346287654"><ele>731.0</ele><time>2026-04-23T08:20:50Z</time></trkpt><trkpt lat="46.48386221607809" lon="12.44748891393788"><ele>728.0</ele><time>2026-04-23T08:20:51Z</time></trkpt><trkpt lat="46.48375225625833" lon="12.44719365244298"><ele>725.0</ele><time>2026-04-23T08:20:52Z</time></trkpt><trkpt lat="46.48364726239172" lon="12.446895472113995"><ele>725.0</ele><time>2026-04-23T08:20:53Z</time></trkpt><trkpt lat="46.483543953555966" lon="12.446600422094566"><ele>725.0</ele><time>2026-04-23T08:20:54Z</time></trkpt><trkpt lat="46.48343999259651" lon="12.44630559711708"><ele>730.0</ele><time>2026-04-23T08:20:55Z</time></trkpt><trkpt lat="46.48333611172811" lon="12.446010627110883"><ele>735.0</ele><time>2026-04-23T08:20:56Z</time></trkpt><trkpt lat="46.48323475358234" lon="12.445713353616231"><ele>738.0</ele><time>2026-04-23T08:20:57Z</time></trkpt><trkpt lat="46.48313665895546" lon="12.445417764071525"><ele>741.0</ele><time>2026-04-23T08:20:58Z</time></trkpt><trkpt lat="46.48303577000593" lon="12.445126303503162"><ele>740.3333333333334</ele><time>2026-04-23T08:20:59Z</time></trkpt><trkpt lat="46.48292741396501" lon="12.444842986393402"><ele>739.6666666666667</ele><time>2026-04-23T08:21:00Z</time></trkpt><trkpt lat="46.48281031783827" lon="12.444568991746554"><ele>739.0</ele><time>2026-04-23T08:21:01Z</time></trkpt><trkpt lat="46.482682903475116" lon="12.44430625159902"><ele>739.0</ele><time>2026-04-23T08:21:02Z</time></trkpt><trkpt lat="46.48254125508988" lon="12.444060539351375"><ele>739.0</ele><time>2026-04-23T08:21:03Z</time></trkpt><trkpt lat="46.48238812310314" lon="12.443827154375706"><ele>739.0</ele><time>2026-04-23T08:21:04Z</time></trkpt><trkpt lat="46.48222898160665" lon="12.443599548778323"><ele>737.6666666666667</ele><time>2026-04-23T08:21:05Z</time></trkpt><trkpt lat="46.482072072720115" lon="12.44336742700947"><ele>736.3333333333334</ele><time>2026-04-23T08:21:06Z</time></trkpt><trkpt lat="46.481920934045576" lon="12.443135669147162"><ele>735.0</ele><time>2026-04-23T08:21:07Z</time></trkpt><trkpt lat="46.481768808972824" lon="12.442900401436766"><ele>738.0</ele><time>2026-04-23T08:21:08Z</time></trkpt><trkpt lat="46.481617074163836" lon="12.442666837879042"><ele>741.0</ele><time>2026-04-23T08:21:09Z</time></trkpt><trkpt lat="46.48146303083429" lon="12.442434391254137"><ele>744.0</ele><time>2026-04-23T08:21:10Z</time></trkpt><trkpt lat="46.48130585654895" lon="12.442208069093379"><ele>743.6666666666666</ele><time>2026-04-23T08:21:11Z</time></trkpt><trkpt lat="46.481145067836565" lon="12.441987704143877"><ele>743.3333333333333</ele><time>2026-04-23T08:21:12Z</time></trkpt><trkpt lat="46.480978441752214" lon="12.441777352068463"><ele>743.0</ele><time>2026-04-23T08:21:13Z</time></trkpt><trkpt lat="46.480805616587176" lon="12.441581262372047"><ele>743.0</ele><time>2026-04-23T08:21:14Z</time></trkpt><trkpt lat="46.480625839769694" lon="12.441399999436733"><ele>743.0</ele><time>2026-04-23T08:21:15Z</time></trkpt><trkpt lat="46.48043909734726" lon="12.44123171486411"><ele>743.0</ele><time>2026-04-23T08:21:16Z</time></trkpt><trkpt lat="46.48024836526498" lon="12.44107542894416"><ele>746.0</ele><time>2026-04-23T08:21:16.999Z</time></trkpt><trkpt lat="46.48005273502428" lon="12.440934040359295"><ele>749.0</ele><time>2026-04-23T08:21:17.999Z</time></trkpt><trkpt lat="46.47985003083469" lon="12.440804650206159"><ele>752.0</ele><time>2026-04-23T08:21:18.999Z</time></trkpt><trkpt lat="46.47964605309204" lon="12.440679205449369"><ele>752.6666666666666</ele><time>2026-04-23T08:21:19.999Z</time></trkpt><trkpt lat="46.4794429954148" lon="12.440551402432437"><ele>753.3333333333334</ele><time>2026-04-23T08:21:20.999Z</time></trkpt><trkpt lat="46.47924231303466" lon="12.440417752444642"><ele>754.0</ele><time>2026-04-23T08:21:21.999Z</time></trkpt><trkpt lat="46.4790464977066" lon="12.44027520940649"><ele>759.0</ele><time>2026-04-23T08:21:22.999Z</time></trkpt><trkpt lat="46.478858168514435" lon="12.44011486583603"><ele>764.0</ele><time>2026-04-23T08:21:23.999Z</time></trkpt><trkpt lat="46.47867975691021" lon="12.439936678883361"><ele>769.0</ele><time>2026-04-23T08:21:24.999Z</time></trkpt><trkpt lat="46.47851444630156" lon="12.439738888053347"><ele>772.3333333333333</ele><time>2026-04-23T08:21:25.999Z</time></trkpt><trkpt lat="46.478361584991816" lon="12.439524474893291"><ele>775.6666666666667</ele><time>2026-04-23T08:21:26.999Z</time></trkpt><trkpt lat="46.478219057467896" lon="12.4392969236055"><ele>779.0</ele><time>2026-04-23T08:21:27.999Z</time></trkpt><trkpt lat="46.47808587168563" lon="12.439064093333123"><ele>779.0</ele><time>2026-04-23T08:21:28.999Z</time></trkpt><trkpt lat="46.47795607951374" lon="12.438830163864573"><ele>779.0</ele><time>2026-04-23T08:21:29.999Z</time></trkpt><trkpt lat="46.47782589256951" lon="12.43860048010998"><ele>779.0</ele><time>2026-04-23T08:21:30.999Z</time></trkpt><trkpt lat="46.477697180750326" lon="12.438374790750215"><ele>780.3333333333334</ele><time>2026-04-23T08:21:31.999Z</time></trkpt><trkpt lat="46.477569733625785" lon="12.438152655495479"><ele>781.6666666666667</ele><time>2026-04-23T08:21:32.999Z</time></trkpt><trkpt lat="46.47744047272765" lon="12.437936583406898"><ele>783.0</ele><time>2026-04-23T08:21:33.999Z</time></trkpt><trkpt lat="46.47731046125342" lon="12.437722017628207"><ele>785.6666666666667</ele><time>2026-04-23T08:21:34.999Z</time></trkpt><trkpt lat="46.47717029487538" lon="12.437519331265374"><ele>788.3333333333334</ele><time>2026-04-23T08:21:35.999Z</time></trkpt><trkpt lat="46.4770242556133" lon="12.437330914679563"><ele>791.0</ele><time>2026-04-23T08:21:36.999Z</time></trkpt><trkpt lat="46.4768702700703" lon="12.437152548004521"><ele>791.6666666666667</ele><time>2026-04-23T08:21:37.999Z</time></trkpt><trkpt lat="46.476713648114554" lon="12.43698037040577"><ele>792.3333333333333</ele><time>2026-04-23T08:21:38.999Z</time></trkpt><trkpt lat="46.476556379864" lon="12.436812092690058"><ele>793.0</ele><time>2026-04-23T08:21:39.999Z</time></trkpt><trkpt lat="46.47639868169445" lon="12.436648817445432"><ele>793.0</ele><time>2026-04-23T08:21:40.999Z</time></trkpt><trkpt lat="46.47623807310102" lon="12.436488166398593"><ele>793.0</ele><time>2026-04-23T08:21:41.999Z</time></trkpt><trkpt lat="46.476078688855786" lon="12.4363221359475"><ele>793.0</ele><time>2026-04-23T08:21:42.999Z</time></trkpt><trkpt lat="46.47592409117276" lon="12.43615105915188"><ele>794.0</ele><time>2026-04-23T08:21:43.999Z</time></trkpt><trkpt lat="46.47578061840841" lon="12.435986899806965"><ele>795.0</ele><time>2026-04-23T08:21:44.999Z</time></trkpt><trkpt lat="46.47564124934448" lon="12.43581689641279"><ele>796.0</ele><time>2026-04-23T08:21:45.999Z</time></trkpt><trkpt lat="46.47550841200755" lon="12.435636008316992"><ele>794.3333333333333</ele><time>2026-04-23T08:21:46.999Z</time></trkpt><trkpt lat="46.47538323644821" lon="12.435445257250873"><ele>792.6666666666667</ele><time>2026-04-23T08:21:47.999Z</time></trkpt><trkpt lat="46.47526180945147" lon="12.435246014461667"><ele>791.0</ele><time>2026-04-23T08:21:48.999Z</time></trkpt><trkpt lat="46.47514468841714" lon="12.43504174823258"><ele>791.0</ele><time>2026-04-23T08:21:49.999Z</time></trkpt><trkpt lat="46.47503040513488" lon="12.434834506786736"><ele>791.0</ele><time>2026-04-23T08:21:50.999Z</time></trkpt><trkpt lat="46.474913994788274" lon="12.434635558255925"><ele>791.0</ele><time>2026-04-23T08:21:51.999Z</time></trkpt><trkpt lat="46.47479027660015" lon="12.434448477839007"><ele>790.0</ele><time>2026-04-23T08:21:52.999Z</time></trkpt><trkpt lat="46.47465181928539" lon="12.43428310867605"><ele>789.0</ele><time>2026-04-23T08:21:53.999Z</time></trkpt><trkpt lat="46.474495756969056" lon="12.434139125052265"><ele>788.0</ele><time>2026-04-23T08:21:54.999Z</time></trkpt><trkpt lat="46.47433856488409" lon="12.434001499430055"><ele>788.0</ele><time>2026-04-23T08:21:55.999Z</time></trkpt><trkpt lat="46.474181284359936" lon="12.433858077997685"><ele>788.0</ele><time>2026-04-23T08:21:56.999Z</time></trkpt><trkpt lat="46.474023913470155" lon="12.433713187124697"><ele>788.0</ele><time>2026-04-23T08:21:57.999Z</time></trkpt><trkpt lat="46.473866218412695" lon="12.433561821626096"><ele>787.0</ele><time>2026-04-23T08:21:58.999Z</time></trkpt><trkpt lat="46.47371412385291" lon="12.433395980386802"><ele>786.0</ele><time>2026-04-23T08:21:59.999Z</time></trkpt><trkpt lat="46.47357907727465" lon="12.43320034832869"><ele>785.0</ele><time>2026-04-23T08:22:00.999Z</time></trkpt><trkpt lat="46.473456220517065" lon="12.432992033097069"><ele>787.3333333333334</ele><time>2026-04-23T08:22:01.999Z</time></trkpt><trkpt lat="46.4733409765784" lon="12.43278892353686"><ele>789.6666666666667</ele><time>2026-04-23T08:22:02.999Z</time></trkpt><trkpt lat="46.47322971615978" lon="12.432596369621946"><ele>792.0</ele><time>2026-04-23T08:22:03.999Z</time></trkpt><trkpt lat="46.47311475462941" lon="12.4324040346097"><ele>792.0</ele><time>2026-04-23T08:22:04.999Z</time></trkpt><trkpt lat="46.47299640270084" lon="12.432234468926678"><ele>792.0</ele><time>2026-04-23T08:22:05.999Z</time></trkpt><trkpt lat="46.47286291528974" lon="12.432099613423349"><ele>792.0</ele><time>2026-04-23T08:22:06.999Z</time></trkpt><trkpt lat="46.47271387448717" lon="12.43200313186836"><ele>791.6666666666667</ele><time>2026-04-23T08:22:07.999Z</time></trkpt><trkpt lat="46.47256215180897" lon="12.431955593281005"><ele>791.3333333333334</ele><time>2026-04-23T08:22:08.999Z</time></trkpt><trkpt lat="46.472399684844724" lon="12.431956284602624"><ele>791.0</ele><time>2026-04-23T08:22:09.999Z</time></trkpt><trkpt lat="46.472232245234466" lon="12.431997177866778"><ele>791.0</ele><time>2026-04-23T08:22:10.999Z</time></trkpt><trkpt lat="46.47205871281712" lon="12.432053540822302"><ele>791.0</ele><time>2026-04-23T08:22:11.999Z</time></trkpt><trkpt lat="46.47187867729341" lon="12.432109309194301"><ele>791.0</ele><time>2026-04-23T08:22:12.999Z</time></trkpt><trkpt lat="46.471694269288" lon="12.432163893860363"><ele>791.0</ele><time>2026-04-23T08:22:13.999Z</time></trkpt><trkpt lat="46.47150638471943" lon="12.432202072915654"><ele>791.0</ele><time>2026-04-23T08:22:14.999Z</time></trkpt><trkpt lat="46.47131313321531" lon="12.432221222770007"><ele>791.0</ele><time>2026-04-23T08:22:15.999Z</time></trkpt><trkpt lat="46.47112020833781" lon="12.432228181338784"><ele>793.3333333333334</ele><time>2026-04-23T08:22:16.999Z</time></trkpt><trkpt lat="46.47092995857174" lon="12.432220034401684"><ele>795.6666666666667</ele><time>2026-04-23T08:22:18Z</time></trkpt><trkpt lat="46.47074893807967" lon="12.432178912241463"><ele>798.0</ele><time>2026-04-23T08:22:19Z</time></trkpt><trkpt lat="46.47057883464542" lon="12.432099369623675"><ele>800.3333333333333</ele><time>2026-04-23T08:22:20Z</time></trkpt><trkpt lat="46.47042055926567" lon="12.431978032570068"><ele>802.6666666666666</ele><time>2026-04-23T08:22:21Z</time></trkpt><trkpt lat="46.47027515057819" lon="12.43181818007694"><ele>805.0</ele><time>2026-04-23T08:22:22Z</time></trkpt><trkpt lat="46.47013853239721" lon="12.431633433381268"><ele>805.0</ele><time>2026-04-23T08:22:23Z</time></trkpt><trkpt lat="46.470001849054576" lon="12.431441923734802"><ele>805.0</ele><time>2026-04-23T08:22:24Z</time></trkpt><trkpt lat="46.469856536939275" lon="12.431247540875741"><ele>805.0</ele><time>2026-04-23T08:22:25Z</time></trkpt><trkpt lat="46.4697064133603" lon="12.431054568610438"><ele>804.6666666666666</ele><time>2026-04-23T08:22:26Z</time></trkpt><trkpt lat="46.46955203027159" lon="12.430867956338846"><ele>804.3333333333333</ele><time>2026-04-23T08:22:27Z</time></trkpt><trkpt lat="46.46938668959914" lon="12.430697786013924"><ele>804.0</ele><time>2026-04-23T08:22:28Z</time></trkpt><trkpt lat="46.46922073085474" lon="12.430528813126767"><ele>807.3333333333333</ele><time>2026-04-23T08:22:29Z</time></trkpt><trkpt lat="46.469064652640796" lon="12.430349594799864"><ele>810.6666666666666</ele><time>2026-04-23T08:22:30Z</time></trkpt><trkpt lat="46.468915356132115" lon="12.43016113558914"><ele>814.0</ele><time>2026-04-23T08:22:31Z</time></trkpt><trkpt lat="46.4687768333459" lon="12.429958851921011"><ele>813.3333333333333</ele><time>2026-04-23T08:22:32Z</time></trkpt><trkpt lat="46.468651550848556" lon="12.429737587807482"><ele>812.6666666666667</ele><time>2026-04-23T08:22:33Z</time></trkpt><trkpt lat="46.46852717154215" lon="12.429509797396976"><ele>812.0</ele><time>2026-04-23T08:22:34Z</time></trkpt><trkpt lat="46.468400398961094" lon="12.429284994871027"><ele>812.0</ele><time>2026-04-23T08:22:35Z</time></trkpt><trkpt lat="46.468274332699316" lon="12.429060633411858"><ele>812.0</ele><time>2026-04-23T08:22:36Z</time></trkpt><trkpt lat="46.46815486861879" lon="12.42884083957551"><ele>812.0</ele><time>2026-04-23T08:22:37Z</time></trkpt><trkpt lat="46.46804077101019" lon="12.428633441140677"><ele>811.0</ele><time>2026-04-23T08:22:38Z</time></trkpt><trkpt lat="46.46792510423427" lon="12.428427462514591"><ele>810.0</ele><time>2026-04-23T08:22:39Z</time></trkpt><trkpt lat="46.467806971236286" lon="12.428216661111742"><ele>809.0</ele><time>2026-04-23T08:22:40Z</time></trkpt><trkpt lat="46.467689402542554" lon="12.428003001520832"><ele>809.6666666666667</ele><time>2026-04-23T08:22:41Z</time></trkpt><trkpt lat="46.46757115724343" lon="12.4277835510976"><ele>810.3333333333333</ele><time>2026-04-23T08:22:42Z</time></trkpt><trkpt lat="46.46745025230966" lon="12.427569574966935"><ele>811.0</ele><time>2026-04-23T08:22:43Z</time></trkpt><trkpt lat="46.46732500089449" lon="12.42737967150239"><ele>811.0</ele><time>2026-04-23T08:22:44Z</time></trkpt><trkpt lat="46.467190328975384" lon="12.42720066576641"><ele>811.0</ele><time>2026-04-23T08:22:45Z</time></trkpt><trkpt lat="46.46705117157077" lon="12.427033225796864"><ele>811.0</ele><time>2026-04-23T08:22:46Z</time></trkpt><trkpt lat="46.46691383309765" lon="12.426870109716084"><ele>808.6666666666666</ele><time>2026-04-23T08:22:47Z</time></trkpt><trkpt lat="46.4667947601795" lon="12.426677355744628"><ele>806.3333333333333</ele><time>2026-04-23T08:22:48Z</time></trkpt><trkpt lat="46.46667028467508" lon="12.426481177752478"><ele>804.0</ele><time>2026-04-23T08:22:49Z</time></trkpt><trkpt lat="46.4666050114007" lon="12.426384536132174"><ele>805.3333333333333</ele><time>2026-04-23T08:22:50Z</time></trkpt><trkpt lat="46.46650379895991" lon="12.426175541380763"><ele>806.6666666666666</ele><time>2026-04-23T08:22:51Z</time></trkpt><trkpt lat="46.466399983103884" lon="12.425967156751797"><ele>808.0</ele><time>2026-04-23T08:22:52Z</time></trkpt><trkpt lat="46.46629668173715" lon="12.425757408329831"><ele>804.3333333333333</ele><time>2026-04-23T08:22:53Z</time></trkpt><trkpt lat="46.466186217584436" lon="12.425553886645627"><ele>800.6666666666667</ele><time>2026-04-23T08:22:54Z</time></trkpt><trkpt lat="46.46606596818187" lon="12.425349568224856"><ele>797.0</ele><time>2026-04-23T08:22:55Z</time></trkpt><trkpt lat="46.465945471684826" lon="12.425145621897984"><ele>797.0</ele><time>2026-04-23T08:22:56Z</time></trkpt><trkpt lat="46.46582700187304" lon="12.424926323223781"><ele>797.0</ele><time>2026-04-23T08:22:57Z</time></trkpt><trkpt lat="46.46570595241853" lon="12.424717172171766"><ele>797.0</ele><time>2026-04-23T08:22:58Z</time></trkpt><trkpt lat="46.4655833295373" lon="12.424508272210497"><ele>794.3333333333334</ele><time>2026-04-23T08:22:59Z</time></trkpt><trkpt lat="46.46545930332197" lon="12.424314321692394"><ele>791.6666666666667</ele><time>2026-04-23T08:23:00Z</time></trkpt><trkpt lat="46.46532764281207" lon="12.424142319774955"><ele>789.0</ele><time>2026-04-23T08:23:01Z</time></trkpt><trkpt lat="46.465186927104284" lon="12.423991135491656"><ele>789.0</ele><time>2026-04-23T08:23:02Z</time></trkpt><trkpt lat="46.46503828678481" lon="12.423842395949132"><ele>789.0</ele><time>2026-04-23T08:23:03Z</time></trkpt><trkpt lat="46.46487931832631" lon="12.423705375344845"><ele>789.0</ele><time>2026-04-23T08:23:04Z</time></trkpt><trkpt lat="46.46472857063075" lon="12.423579866686275"><ele>787.0</ele><time>2026-04-23T08:23:05Z</time></trkpt><trkpt lat="46.4645877070392" lon="12.42345962180201"><ele>785.0</ele><time>2026-04-23T08:23:06Z</time></trkpt><trkpt lat="46.464454822866834" lon="12.423328474867333"><ele>783.0</ele><time>2026-04-23T08:23:07Z</time></trkpt><trkpt lat="46.46434416532052" lon="12.42316325731099"><ele>787.3333333333333</ele><time>2026-04-23T08:23:08Z</time></trkpt><trkpt lat="46.46423695610383" lon="12.422976140284426"><ele>791.6666666666666</ele><time>2026-04-23T08:23:09Z</time></trkpt><trkpt lat="46.464132484497384" lon="12.42279031050093"><ele>796.0</ele><time>2026-04-23T08:23:10Z</time></trkpt><trkpt lat="46.464031516595874" lon="12.422599529746256"><ele>796.0</ele><time>2026-04-23T08:23:11Z</time></trkpt><trkpt lat="46.463934183910965" lon="12.422420127567046"><ele>796.0</ele><time>2026-04-23T08:23:12Z</time></trkpt><trkpt lat="46.4638582424669" lon="12.422228385470838"><ele>796.0</ele><time>2026-04-23T08:23:13Z</time></trkpt><trkpt lat="46.463787373503145" lon="12.422039168398358"><ele>792.0</ele><time>2026-04-23T08:23:14Z</time></trkpt><trkpt lat="46.4637089422085" lon="12.42186908433852"><ele>788.0</ele><time>2026-04-23T08:23:15Z</time></trkpt><trkpt lat="46.463624311770346" lon="12.421722378089033"><ele>784.0</ele><time>2026-04-23T08:23:16Z</time></trkpt><trkpt lat="46.463537704070745" lon="12.421597543587291"><ele>780.0</ele><time>2026-04-23T08:23:17Z</time></trkpt><trkpt lat="46.463461207408464" lon="12.421473007748254"><ele>780.0</ele><time>2026-04-23T08:23:18Z</time></trkpt><trkpt lat="46.46340305754861" lon="12.421340401165953"><ele>780.0</ele><time>2026-04-23T08:23:19Z</time></trkpt><trkpt lat="46.4633584456397" lon="12.421211410228574"><ele>780.0</ele><time>2026-04-23T08:23:20Z</time></trkpt><trkpt lat="46.463296670013996" lon="12.421119875583367"><ele>780.0</ele><time>2026-04-23T08:23:21Z</time></trkpt><trkpt lat="46.46320758170308" lon="12.421070324203612"><ele>780.0</ele><time>2026-04-23T08:23:21.999Z</time></trkpt><trkpt lat="46.4631061016023" lon="12.421029592329054"><ele>780.8</ele><time>2026-04-23T08:23:22.999Z</time></trkpt><trkpt lat="46.46300438731037" lon="12.420961150046576"><ele>781.6</ele><time>2026-04-23T08:23:23.999Z</time></trkpt><trkpt lat="46.4629083942668" lon="12.420859599178767"><ele>782.4000000000001</ele><time>2026-04-23T08:23:24.999Z</time></trkpt><trkpt lat="46.46282317738605" lon="12.42075525030899"><ele>783.2</ele><time>2026-04-23T08:23:25.999Z</time></trkpt><trkpt lat="46.462745065684636" lon="12.420656305464494"><ele>784.0</ele><time>2026-04-23T08:23:26.999Z</time></trkpt><trkpt lat="46.46265696640596" lon="12.420557025393554"><ele>782.5</ele><time>2026-04-23T08:23:27.999Z</time></trkpt><trkpt lat="46.46256735232246" lon="12.420450724577806"><ele>781.0</ele><time>2026-04-23T08:23:28.999Z</time></trkpt><trkpt lat="46.46248025274294" lon="12.420344867932606"><ele>779.5</ele><time>2026-04-23T08:23:29.999Z</time></trkpt><trkpt lat="46.46238914434876" lon="12.420232571895786"><ele>778.0</ele><time>2026-04-23T08:23:30.999Z</time></trkpt><trkpt lat="46.46229574513714" lon="12.420110673196396"><ele>778.0</ele><time>2026-04-23T08:23:31.999Z</time></trkpt><trkpt lat="46.46221267181384" lon="12.41997061672301"><ele>778.0</ele><time>2026-04-23T08:23:32.999Z</time></trkpt><trkpt lat="46.462152713015186" lon="12.419806945089404"><ele>778.0</ele><time>2026-04-23T08:23:33.999Z</time></trkpt><trkpt lat="46.46209482631841" lon="12.419638351194273"><ele>778.0</ele><time>2026-04-23T08:23:34.999Z</time></trkpt><trkpt lat="46.46203799630543" lon="12.419468328633249"><ele>776.0</ele><time>2026-04-23T08:23:35.999Z</time></trkpt><trkpt lat="46.461980485297374" lon="12.4193002650624"><ele>774.0</ele><time>2026-04-23T08:23:36.999Z</time></trkpt><trkpt lat="46.46191912697406" lon="12.419130204162245"><ele>772.0</ele><time>2026-04-23T08:23:37.999Z</time></trkpt><trkpt lat="46.461847381711095" lon="12.418977097575029"><ele>770.0</ele><time>2026-04-23T08:23:38.999Z</time></trkpt><trkpt lat="46.46177504063511" lon="12.4188369590495"><ele>770.5</ele><time>2026-04-23T08:23:39.999Z</time></trkpt><trkpt lat="46.461697871625375" lon="12.418697384262686"><ele>771.0</ele><time>2026-04-23T08:23:40.999Z</time></trkpt><trkpt lat="46.461646548780735" lon="12.418542231722212"><ele>771.5</ele><time>2026-04-23T08:23:41.999Z</time></trkpt><trkpt lat="46.46159374262075" lon="12.418397217221202"><ele>772.0</ele><time>2026-04-23T08:23:42.999Z</time></trkpt><trkpt lat="46.46153486182242" lon="12.418256232453912"><ele>772.0</ele><time>2026-04-23T08:23:43.999Z</time></trkpt><trkpt lat="46.46148877231461" lon="12.418108677298076"><ele>772.0</ele><time>2026-04-23T08:23:44.999Z</time></trkpt><trkpt lat="46.46143781124786" lon="12.417959675266138"><ele>772.0</ele><time>2026-04-23T08:23:45.999Z</time></trkpt><trkpt lat="46.461383146295965" lon="12.417810594464397"><ele>772.0</ele><time>2026-04-23T08:23:46.999Z</time></trkpt><trkpt lat="46.46132730448747" lon="12.417674243289728"><ele>771.8</ele><time>2026-04-23T08:23:47.999Z</time></trkpt><trkpt lat="46.46126591511253" lon="12.417560106698359"><ele>771.6</ele><time>2026-04-23T08:23:48.999Z</time></trkpt><trkpt lat="46.46120093030273" lon="12.417460609810663"><ele>771.4</ele><time>2026-04-23T08:23:49.999Z</time></trkpt><trkpt lat="46.4611338416833" lon="12.417363690013909"><ele>771.1999999999999</ele><time>2026-04-23T08:23:50.999Z</time></trkpt><trkpt lat="46.46106379502056" lon="12.4172719340607"><ele>771.0</ele><time>2026-04-23T08:23:51.999Z</time></trkpt><trkpt lat="46.460995436595006" lon="12.417179803192086"><ele>772.1666666666666</ele><time>2026-04-23T08:23:52.999Z</time></trkpt><trkpt lat="46.460931156430554" lon="12.417097096189359"><ele>773.3333333333333</ele><time>2026-04-23T08:23:53.999Z</time></trkpt><trkpt lat="46.46086292247979" lon="12.417008261432269"><ele>774.5</ele><time>2026-04-23T08:23:54.999Z</time></trkpt><trkpt lat="46.46079299108796" lon="12.416920957836105"><ele>775.6666666666666</ele><time>2026-04-23T08:23:55.999Z</time></trkpt><trkpt lat="46.46072710348207" lon="12.416838448988445"><ele>776.8333333333333</ele><time>2026-04-23T08:23:56.999Z</time></trkpt><trkpt lat="46.46066397101834" lon="12.416754383956322"><ele>778.0</ele><time>2026-04-23T08:23:57.999Z</time></trkpt><trkpt lat="46.46059797366026" lon="12.416673322366044"><ele>777.9999999999999</ele><time>2026-04-23T08:23:58.999Z</time></trkpt><trkpt lat="46.46053391941944" lon="12.416589284751558"><ele>778.0</ele><time>2026-04-23T08:23:59.999Z</time></trkpt><trkpt lat="46.46046708051225" lon="12.416505765228532"><ele>778.0</ele><time>2026-04-23T08:24:00.999Z</time></trkpt><trkpt lat="46.460410926660245" lon="12.41640951180825"><ele>778.0</ele><time>2026-04-23T08:24:01.999Z</time></trkpt><trkpt lat="46.46034432825801" lon="12.416320906419585"><ele>777.9999999999999</ele><time>2026-04-23T08:24:02.999Z</time></trkpt><trkpt lat="46.460277848259196" lon="12.416233084596078"><ele>778.0</ele><time>2026-04-23T08:24:03.999Z</time></trkpt><trkpt lat="46.46020309156648" lon="12.41615502269917"><ele>777.2</ele><time>2026-04-23T08:24:04.999Z</time></trkpt><trkpt lat="46.46015170905326" lon="12.41604400330079"><ele>776.4</ele><time>2026-04-23T08:24:05.999Z</time></trkpt><trkpt lat="46.460104130028206" lon="12.415924797018285"><ele>775.6</ele><time>2026-04-23T08:24:06.999Z</time></trkpt><trkpt lat="46.46005817022301" lon="12.415803121174319"><ele>774.8000000000001</ele><time>2026-04-23T08:24:07.999Z</time></trkpt><trkpt lat="46.46001350732196" lon="12.415675265023003"><ele>774.0</ele><time>2026-04-23T08:24:08.999Z</time></trkpt><trkpt lat="46.45997302389547" lon="12.415543758172273"><ele>773.8000000000001</ele><time>2026-04-23T08:24:09.999Z</time></trkpt><trkpt lat="46.459933466256" lon="12.415409635850832"><ele>773.6</ele><time>2026-04-23T08:24:10.999Z</time></trkpt><trkpt lat="46.45988316099685" lon="12.415276137874717"><ele>773.4</ele><time>2026-04-23T08:24:11.999Z</time></trkpt><trkpt lat="46.459828886999205" lon="12.415141466544402"><ele>773.2</ele><time>2026-04-23T08:24:12.999Z</time></trkpt><trkpt lat="46.45978312927095" lon="12.415000932579618"><ele>773.0</ele><time>2026-04-23T08:24:13.999Z</time></trkpt><trkpt lat="46.45972975940745" lon="12.414861140285096"><ele>773.0</ele><time>2026-04-23T08:24:14.999Z</time></trkpt><trkpt lat="46.4596747745428" lon="12.414715871951417"><ele>773.0</ele><time>2026-04-23T08:24:15.999Z</time></trkpt><trkpt lat="46.45962627923755" lon="12.414562942635822"><ele>773.0</ele><time>2026-04-23T08:24:16.999Z</time></trkpt><trkpt lat="46.45956980302044" lon="12.41440417644835"><ele>773.0</ele><time>2026-04-23T08:24:17.999Z</time></trkpt><trkpt lat="46.45951490221" lon="12.414248134408703"><ele>771.5</ele><time>2026-04-23T08:24:18.999Z</time></trkpt><trkpt lat="46.45946438421889" lon="12.414092219294838"><ele>770.0</ele><time>2026-04-23T08:24:19.999Z</time></trkpt><trkpt lat="46.4594073322169" lon="12.413944341854249"><ele>768.5</ele><time>2026-04-23T08:24:20.999Z</time></trkpt><trkpt lat="46.4593606981628" lon="12.413804744960578"><ele>767.0</ele><time>2026-04-23T08:24:21.999Z</time></trkpt><trkpt lat="46.459313145672134" lon="12.413660687415451"><ele>766.75</ele><time>2026-04-23T08:24:22.999Z</time></trkpt><trkpt lat="46.45927003142954" lon="12.413509420483177"><ele>766.5</ele><time>2026-04-23T08:24:24Z</time></trkpt><trkpt lat="46.45924586875922" lon="12.41334016672746"><ele>766.25</ele><time>2026-04-23T08:24:25Z</time></trkpt><trkpt lat="46.45923628479215" lon="12.413161810164704"><ele>766.0</ele><time>2026-04-23T08:24:26Z</time></trkpt><trkpt lat="46.4592386987129" lon="12.412984346225903"><ele>766.75</ele><time>2026-04-23T08:24:27Z</time></trkpt><trkpt lat="46.45923992975705" lon="12.41280995093897"><ele>767.5</ele><time>2026-04-23T08:24:28Z</time></trkpt><trkpt lat="46.45923272146463" lon="12.412649300179359"><ele>768.25</ele><time>2026-04-23T08:24:29Z</time></trkpt><trkpt lat="46.459199222107294" lon="12.412479810755666"><ele>769.0</ele><time>2026-04-23T08:24:30Z</time></trkpt><trkpt lat="46.45914709473793" lon="12.412317206017503"><ele>769.0</ele><time>2026-04-23T08:24:31Z</time></trkpt><trkpt lat="46.45907821629601" lon="12.412175361881228"><ele>769.0</ele><time>2026-04-23T08:24:32Z</time></trkpt><trkpt lat="46.458997231139335" lon="12.412037255407192"><ele>769.0</ele><time>2026-04-23T08:24:33Z</time></trkpt><trkpt lat="46.458925105086884" lon="12.411910290758968"><ele>769.0</ele><time>2026-04-23T08:24:34Z</time></trkpt><trkpt lat="46.45885030919329" lon="12.41177344150016"><ele>767.0</ele><time>2026-04-23T08:24:35Z</time></trkpt><trkpt lat="46.458776529491765" lon="12.411620487864688"><ele>765.0</ele><time>2026-04-23T08:24:36Z</time></trkpt><trkpt lat="46.45869231426621" lon="12.41147073360173"><ele>763.0</ele><time>2026-04-23T08:24:37Z</time></trkpt><trkpt lat="46.45860121839857" lon="12.411320111604239"><ele>761.0</ele><time>2026-04-23T08:24:38Z</time></trkpt><trkpt lat="46.45851144616982" lon="12.41116540577951"><ele>761.0</ele><time>2026-04-23T08:24:39Z</time></trkpt><trkpt lat="46.45842313069217" lon="12.411013454954544"><ele>761.0</ele><time>2026-04-23T08:24:40Z</time></trkpt><trkpt lat="46.458337395013764" lon="12.410867155564192"><ele>761.0</ele><time>2026-04-23T08:24:41Z</time></trkpt><trkpt lat="46.458253144410556" lon="12.41072409311158"><ele>761.0</ele><time>2026-04-23T08:24:42Z</time></trkpt><trkpt lat="46.458168342410524" lon="12.410580835108581"><ele>761.75</ele><time>2026-04-23T08:24:43Z</time></trkpt><trkpt lat="46.45808305918318" lon="12.410434541864822"><ele>762.5</ele><time>2026-04-23T08:24:44Z</time></trkpt><trkpt lat="46.45799550725311" lon="12.410286267876176"><ele>763.25</ele><time>2026-04-23T08:24:45Z</time></trkpt><trkpt lat="46.45790575237942" lon="12.410134793211007"><ele>764.0</ele><time>2026-04-23T08:24:46Z</time></trkpt><trkpt lat="46.45781756500047" lon="12.409973662010723"><ele>763.0</ele><time>2026-04-23T08:24:47Z</time></trkpt><trkpt lat="46.45773110950248" lon="12.409815531199973"><ele>762.0</ele><time>2026-04-23T08:24:48Z</time></trkpt><trkpt lat="46.45767147771929" lon="12.409703863222164"><ele>761.0</ele><time>2026-04-23T08:24:49Z</time></trkpt><trkpt lat="46.45763645579257" lon="12.409557477973856"><ele>760.0</ele><time>2026-04-23T08:24:51Z</time></trkpt><trkpt lat="46.45759356204736" lon="12.409434499663377"><ele>759.0</ele><time>2026-04-23T08:24:53Z</time></trkpt><trkpt lat="46.45754110635588" lon="12.409362816841506"><ele>759.0</ele><time>2026-04-23T08:24:55Z</time></trkpt><trkpt lat="46.4575116583195" lon="12.409276216611532"><ele>759.0</ele><time>2026-04-23T08:27:48.999Z</time></trkpt><trkpt lat="46.45744771245707" lon="12.409274445185527"><ele>759.0</ele><time>2026-04-23T08:28:01.999Z</time></trkpt><trkpt lat="46.45735670693907" lon="12.409246294652991"><ele>759.0</ele><time>2026-04-23T08:28:12.999Z</time></trkpt><trkpt lat="46.45726994339315" lon="12.409190498215835"><ele>759.0</ele><time>2026-04-23T08:28:13.999Z</time></trkpt><trkpt lat="46.45718228620501" lon="12.409098933338782"><ele>759.0</ele><time>2026-04-23T08:28:14.999Z</time></trkpt><trkpt lat="46.45708439403198" lon="12.408980155456183"><ele>759.0</ele><time>2026-04-23T08:28:15.999Z</time></trkpt><trkpt lat="46.45697393988187" lon="12.408858147047845"><ele>759.0</ele><time>2026-04-23T08:28:16.999Z</time></trkpt><trkpt lat="46.45686067875138" lon="12.40873257671459"><ele>759.0</ele><time>2026-04-23T08:28:17.999Z</time></trkpt><trkpt lat="46.45675128654265" lon="12.408605333485651"><ele>759.0</ele><time>2026-04-23T08:28:18.999Z</time></trkpt><trkpt lat="46.45663794533906" lon="12.408486646988832"><ele>759.0</ele><time>2026-04-23T08:28:19.999Z</time></trkpt><trkpt lat="46.45653003612721" lon="12.408363158203603"><ele>759.0</ele><time>2026-04-23T08:28:20.999Z</time></trkpt><trkpt lat="46.45642230614497" lon="12.40824330838182"><ele>759.0</ele><time>2026-04-23T08:28:21.999Z</time></trkpt><trkpt lat="46.45631178897634" lon="12.40812106968772"><ele>759.0</ele><time>2026-04-23T08:28:22.999Z</time></trkpt><trkpt lat="46.456197701273005" lon="12.407993621789878"><ele>757.3333333333334</ele><time>2026-04-23T08:28:23.999Z</time></trkpt><trkpt lat="46.456085237219696" lon="12.407856005141712"><ele>755.6666666666667</ele><time>2026-04-23T08:28:24.999Z</time></trkpt><trkpt lat="46.455974690345975" lon="12.407697499078333"><ele>754.0</ele><time>2026-04-23T08:28:25.999Z</time></trkpt><trkpt lat="46.45586772587772" lon="12.407528799771587"><ele>754.0</ele><time>2026-04-23T08:28:26.999Z</time></trkpt><trkpt lat="46.455760779391476" lon="12.407357207743683"><ele>754.0</ele><time>2026-04-23T08:28:27.999Z</time></trkpt><trkpt lat="46.45565185103503" lon="12.407179351051003"><ele>754.0</ele><time>2026-04-23T08:28:28.999Z</time></trkpt><trkpt lat="46.45554323746468" lon="12.406995872200397"><ele>752.6666666666667</ele><time>2026-04-23T08:28:29.999Z</time></trkpt><trkpt lat="46.455438915214174" lon="12.406806175154992"><ele>751.3333333333334</ele><time>2026-04-23T08:28:30.999Z</time></trkpt><trkpt lat="46.45534234289039" lon="12.406602376120892"><ele>750.0</ele><time>2026-04-23T08:28:31.999Z</time></trkpt><trkpt lat="46.455252811903215" lon="12.406390412028399"><ele>751.6666666666666</ele><time>2026-04-23T08:28:32.999Z</time></trkpt><trkpt lat="46.4551647471969" lon="12.40617662710658"><ele>753.3333333333333</ele><time>2026-04-23T08:28:33.999Z</time></trkpt><trkpt lat="46.4550725082016" lon="12.405962682183466"><ele>755.0</ele><time>2026-04-23T08:28:34.998Z</time></trkpt><trkpt lat="46.454969781120916" lon="12.405759039594047"><ele>755.0</ele><time>2026-04-23T08:28:36Z</time></trkpt><trkpt lat="46.454847149542005" lon="12.40557864438715"><ele>755.0</ele><time>2026-04-23T08:28:37Z</time></trkpt><trkpt lat="46.45470740068585" lon="12.405425243765702"><ele>755.0</ele><time>2026-04-23T08:28:38Z</time></trkpt><trkpt lat="46.45455469789474" lon="12.405297731253729"><ele>756.6666666666666</ele><time>2026-04-23T08:28:39Z</time></trkpt><trkpt lat="46.45439528347672" lon="12.405187193933376"><ele>758.3333333333334</ele><time>2026-04-23T08:28:40Z</time></trkpt><trkpt lat="46.454235376005784" lon="12.405076963960498"><ele>760.0</ele><time>2026-04-23T08:28:41Z</time></trkpt><trkpt lat="46.45407900560025" lon="12.404965030386204"><ele>760.0</ele><time>2026-04-23T08:28:42Z</time></trkpt><trkpt lat="46.45392690186563" lon="12.404845517265526"><ele>760.0</ele><time>2026-04-23T08:28:43Z</time></trkpt><trkpt lat="46.45378169060392" lon="12.40471259746008"><ele>760.0</ele><time>2026-04-23T08:28:44Z</time></trkpt><trkpt lat="46.45364600923209" lon="12.404566584229391"><ele>760.0</ele><time>2026-04-23T08:28:45Z</time></trkpt><trkpt lat="46.453529518882" lon="12.404405725936389"><ele>760.0</ele><time>2026-04-23T08:28:46Z</time></trkpt><trkpt lat="46.45343024144329" lon="12.404242070254407"><ele>760.0</ele><time>2026-04-23T08:28:47Z</time></trkpt><trkpt lat="46.45334205028776" lon="12.404075627177257"><ele>760.0</ele><time>2026-04-23T08:28:48Z</time></trkpt><trkpt lat="46.45327076243385" lon="12.403889582592116"><ele>760.0</ele><time>2026-04-23T08:28:49Z</time></trkpt><trkpt lat="46.453220492889265" lon="12.403682096272254"><ele>760.0</ele><time>2026-04-23T08:28:50Z</time></trkpt><trkpt lat="46.45318730496066" lon="12.403464617792407"><ele>760.25</ele><time>2026-04-23T08:28:51Z</time></trkpt><trkpt lat="46.453164477096074" lon="12.403240096561218"><ele>760.5</ele><time>2026-04-23T08:28:52Z</time></trkpt><trkpt lat="46.453154503086566" lon="12.40300973246489"><ele>760.75</ele><time>2026-04-23T08:28:53Z</time></trkpt><trkpt lat="46.45316477183376" lon="12.402819668296408"><ele>761.0</ele><time>2026-04-23T08:28:54Z</time></trkpt><trkpt lat="46.45318474210983" lon="12.402673898959806"><ele>760.1999999999999</ele><time>2026-04-23T08:28:55Z</time></trkpt><trkpt lat="46.453204334459876" lon="12.402548954246642"><ele>759.4</ele><time>2026-04-23T08:28:56Z</time></trkpt><trkpt lat="46.45322111946806" lon="12.402417064264855"><ele>758.6</ele><time>2026-04-23T08:28:57Z</time></trkpt><trkpt lat="46.453248148774826" lon="12.402252622907138"><ele>757.8</ele><time>2026-04-23T08:28:58Z</time></trkpt><trkpt lat="46.45327368676434" lon="12.402060778040973"><ele>757.0</ele><time>2026-04-23T08:28:59Z</time></trkpt><trkpt lat="46.45328035276411" lon="12.401855692120565"><ele>756.6666666666667</ele><time>2026-04-23T08:29:00Z</time></trkpt><trkpt lat="46.45327719297309" lon="12.401650602160894"><ele>756.3333333333334</ele><time>2026-04-23T08:29:01Z</time></trkpt><trkpt lat="46.45324347131214" lon="12.401432043334445"><ele>756.0</ele><time>2026-04-23T08:29:02Z</time></trkpt><trkpt lat="46.45320922134292" lon="12.401206187720149"><ele>756.0</ele><time>2026-04-23T08:29:03Z</time></trkpt><trkpt lat="46.45318855724076" lon="12.400970520963169"><ele>756.0</ele><time>2026-04-23T08:29:04Z</time></trkpt><trkpt lat="46.45318738585101" lon="12.400729191550262"><ele>756.0</ele><time>2026-04-23T08:29:05Z</time></trkpt><trkpt lat="46.45320358673388" lon="12.40049639955649"><ele>755.75</ele><time>2026-04-23T08:29:06Z</time></trkpt><trkpt lat="46.45321637384675" lon="12.400283005105186"><ele>755.5</ele><time>2026-04-23T08:29:07Z</time></trkpt><trkpt lat="46.453216804959446" lon="12.400089569194655"><ele>755.25</ele><time>2026-04-23T08:29:08Z</time></trkpt><trkpt lat="46.45319948095224" lon="12.399902187816696"><ele>755.0</ele><time>2026-04-23T08:29:09Z</time></trkpt><trkpt lat="46.453154695502306" lon="12.39972467169572"><ele>754.5</ele><time>2026-04-23T08:29:10Z</time></trkpt><trkpt lat="46.45308071884035" lon="12.39955263339977"><ele>754.0</ele><time>2026-04-23T08:29:11Z</time></trkpt><trkpt lat="46.45300022079432" lon="12.399387518759767"><ele>753.5</ele><time>2026-04-23T08:29:12Z</time></trkpt><trkpt lat="46.452921431628916" lon="12.399236315371164"><ele>753.0</ele><time>2026-04-23T08:29:13Z</time></trkpt><trkpt lat="46.45283766712452" lon="12.399114473731824"><ele>751.2</ele><time>2026-04-23T08:29:14Z</time></trkpt><trkpt lat="46.452750535144894" lon="12.399022937366759"><ele>749.4</ele><time>2026-04-23T08:29:15Z</time></trkpt><trkpt lat="46.45265792623229" lon="12.398966494820844"><ele>747.6</ele><time>2026-04-23T08:29:16Z</time></trkpt><trkpt lat="46.45256257758783" lon="12.398963497945529"><ele>745.8000000000001</ele><time>2026-04-23T08:29:17Z</time></trkpt><trkpt lat="46.45246453023038" lon="12.398959689593658"><ele>744.0</ele><time>2026-04-23T08:29:18Z</time></trkpt><trkpt lat="46.45236257750873" lon="12.39905886150326"><ele>744.0</ele><time>2026-04-23T08:29:19Z</time></trkpt><trkpt lat="46.45226702359029" lon="12.399169173988298"><ele>744.0</ele><time>2026-04-23T08:29:20Z</time></trkpt><trkpt lat="46.45214415576259" lon="12.399223894540029"><ele>744.0</ele><time>2026-04-23T08:29:21Z</time></trkpt><trkpt lat="46.452011226785636" lon="12.39918722594281"><ele>744.0</ele><time>2026-04-23T08:29:22Z</time></trkpt><trkpt lat="46.451879214067596" lon="12.399107099777972"><ele>742.3333333333334</ele><time>2026-04-23T08:29:23Z</time></trkpt><trkpt lat="46.4517374744666" lon="12.399017547776845"><ele>740.6666666666667</ele><time>2026-04-23T08:29:24Z</time></trkpt><trkpt lat="46.45158797249058" lon="12.39893663299814"><ele>739.0</ele><time>2026-04-23T08:29:25Z</time></trkpt><trkpt lat="46.45144305551287" lon="12.398818535228468"><ele>737.3333333333334</ele><time>2026-04-23T08:29:26Z</time></trkpt><trkpt lat="46.45131823577556" lon="12.398651367805435"><ele>735.6666666666666</ele><time>2026-04-23T08:29:27Z</time></trkpt><trkpt lat="46.451197203205" lon="12.39845149473051"><ele>734.0</ele><time>2026-04-23T08:29:28Z</time></trkpt><trkpt lat="46.45110002203757" lon="12.39823191113218"><ele>734.0</ele><time>2026-04-23T08:29:29Z</time></trkpt><trkpt lat="46.45099233051067" lon="12.398027663534846"><ele>734.0</ele><time>2026-04-23T08:29:30Z</time></trkpt><trkpt lat="46.45086997990985" lon="12.39783973313806"><ele>734.0</ele><time>2026-04-23T08:29:31Z</time></trkpt><trkpt lat="46.45071631605678" lon="12.397689215801847"><ele>736.0</ele><time>2026-04-23T08:29:32Z</time></trkpt><trkpt lat="46.4505413387547" lon="12.397570185469291"><ele>738.0</ele><time>2026-04-23T08:29:32.999Z</time></trkpt><trkpt lat="46.45035566212086" lon="12.397476088965286"><ele>740.0</ele><time>2026-04-23T08:29:33.999Z</time></trkpt><trkpt lat="46.45016857392492" lon="12.397398131715965"><ele>740.0</ele><time>2026-04-23T08:29:34.999Z</time></trkpt><trkpt lat="46.44998240738783" lon="12.397307354101038"><ele>740.0</ele><time>2026-04-23T08:29:35.999Z</time></trkpt><trkpt lat="46.44980027080181" lon="12.397175964160004"><ele>740.0</ele><time>2026-04-23T08:29:36.999Z</time></trkpt><trkpt lat="46.449623020516604" lon="12.3970288183918"><ele>742.0</ele><time>2026-04-23T08:29:37.999Z</time></trkpt><trkpt lat="46.44945991613318" lon="12.396889598108038"><ele>744.0</ele><time>2026-04-23T08:29:38.999Z</time></trkpt><trkpt lat="46.44931276119824" lon="12.39676892682895"><ele>746.0</ele><time>2026-04-23T08:29:39.999Z</time></trkpt><trkpt lat="46.44918779558289" lon="12.3966224821799"><ele>746.0</ele><time>2026-04-23T08:29:40.999Z</time></trkpt><trkpt lat="46.44910323091169" lon="12.396425933278332"><ele>746.0</ele><time>2026-04-23T08:29:41.999Z</time></trkpt><trkpt lat="46.44902972848951" lon="12.39621499402291"><ele>746.0</ele><time>2026-04-23T08:29:42.999Z</time></trkpt><trkpt lat="46.44898101022897" lon="12.39600630626974"><ele>748.0</ele><time>2026-04-23T08:29:43.999Z</time></trkpt><trkpt lat="46.448939423169016" lon="12.395801071495955"><ele>750.0</ele><time>2026-04-23T08:29:44.999Z</time></trkpt><trkpt lat="46.44889680599752" lon="12.395587323989991"><ele>752.0</ele><time>2026-04-23T08:29:45.999Z</time></trkpt><trkpt lat="46.44885503858278" lon="12.395376405011323"><ele>751.0</ele><time>2026-04-23T08:29:46.999Z</time></trkpt><trkpt lat="46.448806676196" lon="12.395194516818568"><ele>750.0</ele><time>2026-04-23T08:29:47.999Z</time></trkpt><trkpt lat="46.448778704413776" lon="12.395014013803275"><ele>749.0</ele><time>2026-04-23T08:29:48.999Z</time></trkpt><trkpt lat="46.44873959077342" lon="12.394828140075699"><ele>748.0</ele><time>2026-04-23T08:29:49.999Z</time></trkpt><trkpt lat="46.448701684684536" lon="12.394617268792807"><ele>748.0</ele><time>2026-04-23T08:29:50.999Z</time></trkpt><trkpt lat="46.44865685182275" lon="12.394392719056098"><ele>748.0</ele><time>2026-04-23T08:29:51.999Z</time></trkpt><trkpt lat="46.44861249568304" lon="12.394168354480072"><ele>748.0</ele><time>2026-04-23T08:29:52.999Z</time></trkpt><trkpt lat="46.44857585682601" lon="12.393948408980341"><ele>749.3333333333334</ele><time>2026-04-23T08:29:53.999Z</time></trkpt><trkpt lat="46.448531625395184" lon="12.393737257154998"><ele>750.6666666666666</ele><time>2026-04-23T08:29:54.999Z</time></trkpt><trkpt lat="46.44848649236776" lon="12.393523479040418"><ele>752.0</ele><time>2026-04-23T08:29:55.999Z</time></trkpt><trkpt lat="46.44844453695208" lon="12.39330884969921"><ele>752.0</ele><time>2026-04-23T08:29:56.999Z</time></trkpt><trkpt lat="46.44840319411772" lon="12.39309600098608"><ele>752.0</ele><time>2026-04-23T08:29:57.999Z</time></trkpt><trkpt lat="46.44836256788448" lon="12.39288769317165"><ele>752.0</ele><time>2026-04-23T08:29:58.999Z</time></trkpt><trkpt lat="46.44832853589273" lon="12.392684812975878"><ele>752.0</ele><time>2026-04-23T08:29:59.999Z</time></trkpt><trkpt lat="46.448286170878376" lon="12.392488445007983"><ele>753.25</ele><time>2026-04-23T08:30:00.999Z</time></trkpt><trkpt lat="46.4482496763797" lon="12.392292052344919"><ele>754.5</ele><time>2026-04-23T08:30:01.999Z</time></trkpt><trkpt lat="46.448217167406135" lon="12.392102177282249"><ele>755.75</ele><time>2026-04-23T08:30:02.999Z</time></trkpt><trkpt lat="46.448181917506496" lon="12.3919224712543"><ele>757.0</ele><time>2026-04-23T08:30:03.999Z</time></trkpt><trkpt lat="46.44814346209171" lon="12.391742628979923"><ele>757.75</ele><time>2026-04-23T08:30:04.999Z</time></trkpt><trkpt lat="46.4481111560847" lon="12.391555140100273"><ele>758.5</ele><time>2026-04-23T08:30:05.999Z</time></trkpt><trkpt lat="46.44810401772383" lon="12.391357948411867"><ele>759.25</ele><time>2026-04-23T08:30:06.999Z</time></trkpt><trkpt lat="46.44812694736602" lon="12.39116102864725"><ele>760.0</ele><time>2026-04-23T08:30:07.999Z</time></trkpt><trkpt lat="46.44816851466382" lon="12.390963666301793"><ele>760.25</ele><time>2026-04-23T08:30:08.999Z</time></trkpt><trkpt lat="46.448203472802646" lon="12.390766525162018"><ele>760.5</ele><time>2026-04-23T08:30:09.999Z</time></trkpt><trkpt lat="46.4482228619587" lon="12.390563110670653"><ele>760.75</ele><time>2026-04-23T08:30:10.999Z</time></trkpt><trkpt lat="46.448246404463276" lon="12.390354953966414"><ele>761.0</ele><time>2026-04-23T08:30:11.999Z</time></trkpt><trkpt lat="46.44827449094771" lon="12.390152535742018"><ele>759.0</ele><time>2026-04-23T08:30:12.999Z</time></trkpt><trkpt lat="46.448300176808985" lon="12.38995984481937"><ele>757.0</ele><time>2026-04-23T08:30:13.999Z</time></trkpt><trkpt lat="46.44832746841395" lon="12.389780208251581"><ele>755.0</ele><time>2026-04-23T08:30:14.999Z</time></trkpt><trkpt lat="46.44836476183351" lon="12.389597405746603"><ele>753.0</ele><time>2026-04-23T08:30:15.999Z</time></trkpt><trkpt lat="46.448428300331706" lon="12.389423207549662"><ele>750.5</ele><time>2026-04-23T08:30:16.999Z</time></trkpt><trkpt lat="46.448514986560696" lon="12.389263158438053"><ele>748.0</ele><time>2026-04-23T08:30:17.999Z</time></trkpt><trkpt lat="46.4486151070784" lon="12.389126101320024"><ele>745.5</ele><time>2026-04-23T08:30:18.999Z</time></trkpt><trkpt lat="46.4487241529222" lon="12.389023418927499"><ele>743.0</ele><time>2026-04-23T08:30:19.999Z</time></trkpt><trkpt lat="46.44883551155785" lon="12.388942856536417"><ele>744.5999999999999</ele><time>2026-04-23T08:30:20.999Z</time></trkpt><trkpt lat="46.44893572061126" lon="12.388857995735822"><ele>746.1999999999999</ele><time>2026-04-23T08:30:21.999Z</time></trkpt><trkpt lat="46.4490215354235" lon="12.388751992679337"><ele>747.8</ele><time>2026-04-23T08:30:22.999Z</time></trkpt><trkpt lat="46.449082020409435" lon="12.388618205159617"><ele>749.4</ele><time>2026-04-23T08:30:23.999Z</time></trkpt><trkpt lat="46.44911263854679" lon="12.388470932037645"><ele>751.0</ele><time>2026-04-23T08:30:24.999Z</time></trkpt><trkpt lat="46.44911713534262" lon="12.388351258230225"><ele>751.0</ele><time>2026-04-23T08:30:25.999Z</time></trkpt><trkpt lat="46.44911016367896" lon="12.388258487579408"><ele>751.0</ele><time>2026-04-23T08:30:27.999Z</time></trkpt><trkpt lat="46.449083562351845" lon="12.388164282311152"><ele>751.0</ele><time>2026-04-23T08:30:34.999Z</time></trkpt><trkpt lat="46.449052559353866" lon="12.388077605282293"><ele>751.0</ele><time>2026-04-23T08:30:35.999Z</time></trkpt><trkpt lat="46.449015563035644" lon="12.387976248569087"><ele>751.0</ele><time>2026-04-23T08:30:36.999Z</time></trkpt><trkpt lat="46.44895823916194" lon="12.387873749541457"><ele>751.0</ele><time>2026-04-23T08:30:37.999Z</time></trkpt><trkpt lat="46.44888823236017" lon="12.38777725558099"><ele>750.4</ele><time>2026-04-23T08:30:38.999Z</time></trkpt><trkpt lat="46.44880852257656" lon="12.3876823031458"><ele>749.8</ele><time>2026-04-23T08:30:39.998Z</time></trkpt><trkpt lat="46.44872091196297" lon="12.387596208209237"><ele>749.1999999999999</ele><time>2026-04-23T08:30:40.998Z</time></trkpt><trkpt lat="46.448629788561924" lon="12.387537563495263"><ele>748.5999999999999</ele><time>2026-04-23T08:30:42Z</time></trkpt><trkpt lat="46.44853586246056" lon="12.38749490371238"><ele>748.0</ele><time>2026-04-23T08:30:43Z</time></trkpt><trkpt lat="46.44843567317788" lon="12.387470107175746"><ele>748.0</ele><time>2026-04-23T08:30:44Z</time></trkpt><trkpt lat="46.44833130953357" lon="12.387480618540527"><ele>748.0</ele><time>2026-04-23T08:30:45Z</time></trkpt><trkpt lat="46.448228000992415" lon="12.38753663657314"><ele>748.0</ele><time>2026-04-23T08:30:46Z</time></trkpt><trkpt lat="46.44812547192919" lon="12.387610465347601"><ele>748.0</ele><time>2026-04-23T08:30:47Z</time></trkpt><trkpt lat="46.44801377417394" lon="12.387671538962465"><ele>748.0</ele><time>2026-04-23T08:30:48Z</time></trkpt><trkpt lat="46.447891872816896" lon="12.38766627462155"><ele>750.5</ele><time>2026-04-23T08:30:49Z</time></trkpt><trkpt lat="46.44776646390941" lon="12.38769555732844"><ele>753.0</ele><time>2026-04-23T08:30:50Z</time></trkpt><trkpt lat="46.44764040417319" lon="12.387700866335155"><ele>755.5</ele><time>2026-04-23T08:30:51Z</time></trkpt><trkpt lat="46.44751346467401" lon="12.38770696547256"><ele>758.0</ele><time>2026-04-23T08:30:52Z</time></trkpt><trkpt lat="46.44738512005345" lon="12.387707817837104"><ele>758.0</ele><time>2026-04-23T08:30:53Z</time></trkpt><trkpt lat="46.447255337779055" lon="12.387711996705304"><ele>758.0</ele><time>2026-04-23T08:30:54Z</time></trkpt><trkpt lat="46.44712586982102" lon="12.387707780050434"><ele>758.0</ele><time>2026-04-23T08:30:55Z</time></trkpt><trkpt lat="46.44699628371368" lon="12.38768926514013"><ele>758.0</ele><time>2026-04-23T08:30:56Z</time></trkpt><trkpt lat="46.44687600471271" lon="12.387660937043828"><ele>757.4</ele><time>2026-04-23T08:30:57Z</time></trkpt><trkpt lat="46.44677337645797" lon="12.387620539132186"><ele>756.8</ele><time>2026-04-23T08:30:58Z</time></trkpt><trkpt lat="46.446683809976456" lon="12.387574217996866"><ele>756.2</ele><time>2026-04-23T08:30:59Z</time></trkpt><trkpt lat="46.44660179290844" lon="12.38751698082423"><ele>755.6</ele><time>2026-04-23T08:31:00Z</time></trkpt><trkpt lat="46.44651909852477" lon="12.387427623129316"><ele>755.0</ele><time>2026-04-23T08:31:01Z</time></trkpt><trkpt lat="46.446446667618154" lon="12.387298846691456"><ele>755.5</ele><time>2026-04-23T08:31:02Z</time></trkpt><trkpt lat="46.44638296684507" lon="12.387149922392716"><ele>756.0</ele><time>2026-04-23T08:31:03Z</time></trkpt><trkpt lat="46.44631964039247" lon="12.386995603962932"><ele>756.5</ele><time>2026-04-23T08:31:04Z</time></trkpt><trkpt lat="46.44625166870667" lon="12.386846619478897"><ele>757.0</ele><time>2026-04-23T08:31:05Z</time></trkpt><trkpt lat="46.446180421104835" lon="12.386695340347774"><ele>757.0</ele><time>2026-04-23T08:31:06Z</time></trkpt><trkpt lat="46.446109674822324" lon="12.386544620523711"><ele>757.0</ele><time>2026-04-23T08:31:07Z</time></trkpt><trkpt lat="46.446032984830026" lon="12.386397292089066"><ele>757.0</ele><time>2026-04-23T08:31:08Z</time></trkpt><trkpt lat="46.44594271955129" lon="12.386272818810012"><ele>757.0</ele><time>2026-04-23T08:31:09Z</time></trkpt><trkpt lat="46.44583903375922" lon="12.38617239825756"><ele>759.0</ele><time>2026-04-23T08:31:10Z</time></trkpt><trkpt lat="46.44572536849468" lon="12.38609703752858"><ele>761.0</ele><time>2026-04-23T08:31:11Z</time></trkpt><trkpt lat="46.44560733174491" lon="12.386053224654924"><ele>763.0</ele><time>2026-04-23T08:31:12Z</time></trkpt><trkpt lat="46.44548478566108" lon="12.386031678256442"><ele>765.0</ele><time>2026-04-23T08:31:13Z</time></trkpt><trkpt lat="46.445360679481276" lon="12.386005751259148"><ele>765.0</ele><time>2026-04-23T08:31:14Z</time></trkpt><trkpt lat="46.44523680457022" lon="12.385962529440983"><ele>765.0</ele><time>2026-04-23T08:31:15Z</time></trkpt><trkpt lat="46.445109970610964" lon="12.385916319231104"><ele>765.0</ele><time>2026-04-23T08:31:16Z</time></trkpt><trkpt lat="46.4449788609629" lon="12.385871491732502"><ele>765.0</ele><time>2026-04-23T08:31:17Z</time></trkpt><trkpt lat="46.444847975683" lon="12.38580719947924"><ele>765.0</ele><time>2026-04-23T08:31:18Z</time></trkpt><trkpt lat="46.44472387232897" lon="12.385717960744632"><ele>765.0</ele><time>2026-04-23T08:31:19Z</time></trkpt><trkpt lat="46.444601947246824" lon="12.385618796479326"><ele>765.0</ele><time>2026-04-23T08:31:20Z</time></trkpt><trkpt lat="46.444483510131484" lon="12.385520101125184"><ele>765.0</ele><time>2026-04-23T08:31:21Z</time></trkpt><trkpt lat="46.444364442245885" lon="12.38542415690403"><ele>766.25</ele><time>2026-04-23T08:31:22Z</time></trkpt><trkpt lat="46.44424723116622" lon="12.385330522629614"><ele>767.5</ele><time>2026-04-23T08:31:23Z</time></trkpt><trkpt lat="46.44413720003181" lon="12.385223821792628"><ele>768.75</ele><time>2026-04-23T08:31:24Z</time></trkpt><trkpt lat="46.44403658039269" lon="12.385093997614133"><ele>770.0</ele><time>2026-04-23T08:31:25Z</time></trkpt><trkpt lat="46.443942591116844" lon="12.384948945424842"><ele>770.0</ele><time>2026-04-23T08:31:26Z</time></trkpt><trkpt lat="46.443851615338566" lon="12.38480324863748"><ele>770.0</ele><time>2026-04-23T08:31:27Z</time></trkpt><trkpt lat="46.44376229894347" lon="12.384662366993371"><ele>770.0</ele><time>2026-04-23T08:31:28Z</time></trkpt><trkpt lat="46.44367475891063" lon="12.384524232593002"><ele>770.0</ele><time>2026-04-23T08:31:29Z</time></trkpt><trkpt lat="46.44358699479626" lon="12.384387375999728"><ele>770.75</ele><time>2026-04-23T08:31:30Z</time></trkpt><trkpt lat="46.44349743717672" lon="12.384252820390577"><ele>771.5</ele><time>2026-04-23T08:31:31Z</time></trkpt><trkpt lat="46.44340604678538" lon="12.384118142548614"><ele>772.25</ele><time>2026-04-23T08:31:32Z</time></trkpt><trkpt lat="46.44332116121184" lon="12.383979543212202"><ele>773.0</ele><time>2026-04-23T08:31:33Z</time></trkpt><trkpt lat="46.4432306137626" lon="12.383844858463249"><ele>772.75</ele><time>2026-04-23T08:31:34Z</time></trkpt><trkpt lat="46.44314530627299" lon="12.38370701157337"><ele>772.5</ele><time>2026-04-23T08:31:35Z</time></trkpt><trkpt lat="46.44305755507679" lon="12.383572983937947"><ele>772.25</ele><time>2026-04-23T08:31:36Z</time></trkpt><trkpt lat="46.442967323061964" lon="12.383432800567006"><ele>772.0</ele><time>2026-04-23T08:31:37Z</time></trkpt><trkpt lat="46.44288138217117" lon="12.383282458536478"><ele>772.0</ele><time>2026-04-23T08:31:37.999Z</time></trkpt><trkpt lat="46.44280572950114" lon="12.383117818222749"><ele>772.0</ele><time>2026-04-23T08:31:38.999Z</time></trkpt><trkpt lat="46.44273322382434" lon="12.382946193857807"><ele>772.0</ele><time>2026-04-23T08:31:39.999Z</time></trkpt><trkpt lat="46.44266506104291" lon="12.382771261144283"><ele>772.0</ele><time>2026-04-23T08:31:40.999Z</time></trkpt><trkpt lat="46.44260220680486" lon="12.382604654677616"><ele>772.75</ele><time>2026-04-23T08:31:41.999Z</time></trkpt><trkpt lat="46.44254349496269" lon="12.382446136242983"><ele>773.5</ele><time>2026-04-23T08:31:42.999Z</time></trkpt><trkpt lat="46.44247863802706" lon="12.38229595279473"><ele>774.25</ele><time>2026-04-23T08:31:43.999Z</time></trkpt><trkpt lat="46.44240727311478" lon="12.382158949099098"><ele>775.0</ele><time>2026-04-23T08:31:44.999Z</time></trkpt><trkpt lat="46.44232773303888" lon="12.382033658884001"><ele>776.0</ele><time>2026-04-23T08:31:45.999Z</time></trkpt><trkpt lat="46.4422443608346" lon="12.38191818540437"><ele>777.0</ele><time>2026-04-23T08:31:46.999Z</time></trkpt><trkpt lat="46.44215817667125" lon="12.381802211673747"><ele>778.0</ele><time>2026-04-23T08:31:47.999Z</time></trkpt><trkpt lat="46.44206947219066" lon="12.381686500972515"><ele>779.0</ele><time>2026-04-23T08:31:48.999Z</time></trkpt><trkpt lat="46.44197796544018" lon="12.381572934751606"><ele>779.0</ele><time>2026-04-23T08:31:49.999Z</time></trkpt><trkpt lat="46.441888479968306" lon="12.381455885613459"><ele>779.0</ele><time>2026-04-23T08:31:50.999Z</time></trkpt><trkpt lat="46.44179717796279" lon="12.38133750843277"><ele>779.0</ele><time>2026-04-23T08:31:51.999Z</time></trkpt><trkpt lat="46.4417042336013" lon="12.381224234690237"><ele>779.0</ele><time>2026-04-23T08:31:52.999Z</time></trkpt><trkpt lat="46.44164149563074" lon="12.381136291658391"><ele>780.0</ele><time>2026-04-23T08:31:53.999Z</time></trkpt><trkpt lat="46.44151309058828" lon="12.381018846038852"><ele>781.0</ele><time>2026-04-23T08:31:54.999Z</time></trkpt><trkpt lat="46.44141633876628" lon="12.380941299281748"><ele>782.0</ele><time>2026-04-23T08:31:55.999Z</time></trkpt><trkpt lat="46.441309977625146" lon="12.380878455626219"><ele>783.0</ele><time>2026-04-23T08:31:56.999Z</time></trkpt><trkpt lat="46.44120640185918" lon="12.380821178982988"><ele>783.0</ele><time>2026-04-23T08:31:57.999Z</time></trkpt><trkpt lat="46.441095106125466" lon="12.380766733653411"><ele>783.0</ele><time>2026-04-23T08:31:58.999Z</time></trkpt><trkpt lat="46.44098730979112" lon="12.380704261126153"><ele>783.0</ele><time>2026-04-23T08:31:59.999Z</time></trkpt><trkpt lat="46.44087401268071" lon="12.380643975456222"><ele>783.0</ele><time>2026-04-23T08:32:00.999Z</time></trkpt><trkpt lat="46.44075868823136" lon="12.380590764438391"><ele>783.0</ele><time>2026-04-23T08:32:01.999Z</time></trkpt><trkpt lat="46.44064573334632" lon="12.3805263720619"><ele>783.0</ele><time>2026-04-23T08:32:02.999Z</time></trkpt><trkpt lat="46.44053007832011" lon="12.380461849142009"><ele>783.0</ele><time>2026-04-23T08:32:03.999Z</time></trkpt><trkpt lat="46.440414349561024" lon="12.380401332850385"><ele>783.0</ele><time>2026-04-23T08:32:04.999Z</time></trkpt><trkpt lat="46.44029756297536" lon="12.380340237662825"><ele>787.75</ele><time>2026-04-23T08:32:05.999Z</time></trkpt><trkpt lat="46.44018317425823" lon="12.380282958327689"><ele>792.5</ele><time>2026-04-23T08:32:06.999Z</time></trkpt><trkpt lat="46.440066577295696" lon="12.3802288991095"><ele>797.25</ele><time>2026-04-23T08:32:07.999Z</time></trkpt><trkpt lat="46.43995236647917" lon="12.38016691750925"><ele>802.0</ele><time>2026-04-23T08:32:08.999Z</time></trkpt><trkpt lat="46.439837949730794" lon="12.380111326301147"><ele>802.0</ele><time>2026-04-23T08:32:09.999Z</time></trkpt><trkpt lat="46.43971955715331" lon="12.38006534397809"><ele>802.0</ele><time>2026-04-23T08:32:10.999Z</time></trkpt><trkpt lat="46.43960295949167" lon="12.380044372798679"><ele>802.0</ele><time>2026-04-23T08:32:11.999Z</time></trkpt><trkpt lat="46.439485755831946" lon="12.38005053691976"><ele>802.0</ele><time>2026-04-23T08:32:12.999Z</time></trkpt><trkpt lat="46.439367459613926" lon="12.380066211860724"><ele>803.5</ele><time>2026-04-23T08:32:13.999Z</time></trkpt><trkpt lat="46.43925051223523" lon="12.380081552722691"><ele>805.0</ele><time>2026-04-23T08:32:14.999Z</time></trkpt><trkpt lat="46.43912783104888" lon="12.380099874470273"><ele>806.5</ele><time>2026-04-23T08:32:15.999Z</time></trkpt><trkpt lat="46.439006891268654" lon="12.380119145819801"><ele>808.0</ele><time>2026-04-23T08:32:16.999Z</time></trkpt><trkpt lat="46.43888335402878" lon="12.38013504384508"><ele>808.75</ele><time>2026-04-23T08:32:17.999Z</time></trkpt><trkpt lat="46.43875877757854" lon="12.380147490777972"><ele>809.5</ele><time>2026-04-23T08:32:18.999Z</time></trkpt><trkpt lat="46.43863376312825" lon="12.380159010689178"><ele>810.25</ele><time>2026-04-23T08:32:19.999Z</time></trkpt><trkpt lat="46.438506397530986" lon="12.380164647527259"><ele>811.0</ele><time>2026-04-23T08:32:20.999Z</time></trkpt><trkpt lat="46.43837792537434" lon="12.380158529281944"><ele>811.0</ele><time>2026-04-23T08:32:21.999Z</time></trkpt><trkpt lat="46.43825910981426" lon="12.380149137736367"><ele>811.0</ele><time>2026-04-23T08:32:22.999Z</time></trkpt><trkpt lat="46.438153383818566" lon="12.380136364535309"><ele>811.0</ele><time>2026-04-23T08:32:23.999Z</time></trkpt><trkpt lat="46.43805204774614" lon="12.380114762782426"><ele>811.0</ele><time>2026-04-23T08:32:24.999Z</time></trkpt><trkpt lat="46.43794541148831" lon="12.380083443862695"><ele>811.0</ele><time>2026-04-23T08:32:25.999Z</time></trkpt><trkpt lat="46.43783923812347" lon="12.38004326049533"><ele>811.1999999999999</ele><time>2026-04-23T08:32:26.999Z</time></trkpt><trkpt lat="46.43773367358364" lon="12.380001570926602"><ele>811.4</ele><time>2026-04-23T08:32:27.999Z</time></trkpt><trkpt lat="46.43762932572578" lon="12.379951949208126"><ele>811.6</ele><time>2026-04-23T08:32:28.999Z</time></trkpt><trkpt lat="46.437525132194104" lon="12.379895651404489"><ele>811.8</ele><time>2026-04-23T08:32:29.999Z</time></trkpt><trkpt lat="46.437417672721445" lon="12.37984164907443"><ele>812.0</ele><time>2026-04-23T08:32:30.999Z</time></trkpt><trkpt lat="46.43731480565026" lon="12.379798245639833"><ele>812.0</ele><time>2026-04-23T08:32:31.999Z</time></trkpt><trkpt lat="46.43720909620678" lon="12.379759092493815"><ele>812.0</ele><time>2026-04-23T08:32:32.999Z</time></trkpt><trkpt lat="46.43709997136064" lon="12.379726868079802"><ele>812.0</ele><time>2026-04-23T08:32:33.999Z</time></trkpt><trkpt lat="46.43699274026646" lon="12.37970153268803"><ele>812.0</ele><time>2026-04-23T08:32:34.999Z</time></trkpt><trkpt lat="46.436888928249296" lon="12.379675169482704"><ele>812.0</ele><time>2026-04-23T08:32:35.999Z</time></trkpt><trkpt lat="46.436798247481" lon="12.37964876328765"><ele>813.8</ele><time>2026-04-23T08:32:36.999Z</time></trkpt><trkpt lat="46.436717303893964" lon="12.379616778907103"><ele>815.6</ele><time>2026-04-23T08:32:37.999Z</time></trkpt><trkpt lat="46.436636423557665" lon="12.379566163511628"><ele>817.4</ele><time>2026-04-23T08:32:38.999Z</time></trkpt><trkpt lat="46.436554641651504" lon="12.379500740914489"><ele>819.1999999999999</ele><time>2026-04-23T08:32:39.999Z</time></trkpt><trkpt lat="46.43647473085115" lon="12.37942588867597"><ele>821.0</ele><time>2026-04-23T08:32:40.999Z</time></trkpt><trkpt lat="46.43640495238214" lon="12.379328938511893"><ele>821.0000000000001</ele><time>2026-04-23T08:32:41.999Z</time></trkpt><trkpt lat="46.43635104318857" lon="12.379214430034054"><ele>821.0</ele><time>2026-04-23T08:32:42.999Z</time></trkpt><trkpt lat="46.4363126102537" lon="12.379108934609402"><ele>821.0</ele><time>2026-04-23T08:32:43.999Z</time></trkpt><trkpt lat="46.4362699801229" lon="12.379014193564721"><ele>821.0</ele><time>2026-04-23T08:32:44.998Z</time></trkpt><trkpt lat="46.43620131481361" lon="12.378956529914113"><ele>821.0000000000001</ele><time>2026-04-23T08:32:45.998Z</time></trkpt><trkpt lat="46.436116796094424" lon="12.378932949927918"><ele>821.0</ele><time>2026-04-23T08:32:46.998Z</time></trkpt><trkpt lat="46.43601452586157" lon="12.378916519413078"><ele>820.5</ele><time>2026-04-23T08:32:48Z</time></trkpt><trkpt lat="46.435907661993106" lon="12.378861324776466"><ele>820.0</ele><time>2026-04-23T08:32:49Z</time></trkpt><trkpt lat="46.43580602195822" lon="12.378768193159011"><ele>819.5</ele><time>2026-04-23T08:32:50Z</time></trkpt><trkpt lat="46.43570181391212" lon="12.37866432204547"><ele>819.0</ele><time>2026-04-23T08:32:51Z</time></trkpt><trkpt lat="46.43558337696989" lon="12.378574531207763"><ele>821.6666666666667</ele><time>2026-04-23T08:32:52Z</time></trkpt><trkpt lat="46.435447492982846" lon="12.37849961032702"><ele>824.3333333333334</ele><time>2026-04-23T08:32:53Z</time></trkpt><trkpt lat="46.4353024011347" lon="12.37844718590767"><ele>827.0</ele><time>2026-04-23T08:32:54Z</time></trkpt><trkpt lat="46.4351457656081" lon="12.378434220589602"><ele>827.0</ele><time>2026-04-23T08:32:55Z</time></trkpt><trkpt lat="46.43498444299444" lon="12.378458286499118"><ele>827.0</ele><time>2026-04-23T08:32:56Z</time></trkpt><trkpt lat="46.43482163899918" lon="12.378523628263371"><ele>827.0</ele><time>2026-04-23T08:32:57Z</time></trkpt><trkpt lat="46.4346629001529" lon="12.37861592261179"><ele>830.0</ele><time>2026-04-23T08:32:58Z</time></trkpt><trkpt lat="46.434503414294305" lon="12.378732756267816"><ele>833.0</ele><time>2026-04-23T08:32:59Z</time></trkpt><trkpt lat="46.434341490097594" lon="12.378858590703334"><ele>836.0</ele><time>2026-04-23T08:33:00Z</time></trkpt><trkpt lat="46.434177240628465" lon="12.37898440445886"><ele>833.6666666666667</ele><time>2026-04-23T08:33:01Z</time></trkpt><trkpt lat="46.43400836672926" lon="12.379106140011842"><ele>831.3333333333333</ele><time>2026-04-23T08:33:02Z</time></trkpt><trkpt lat="46.43383223406862" lon="12.37921701538828"><ele>829.0</ele><time>2026-04-23T08:33:03Z</time></trkpt><trkpt lat="46.4336514277394" lon="12.379313911358611"><ele>829.0</ele><time>2026-04-23T08:33:04Z</time></trkpt><trkpt lat="46.43346639974205" lon="12.379398754762349"><ele>829.0</ele><time>2026-04-23T08:33:05Z</time></trkpt><trkpt lat="46.43327741988769" lon="12.379472102093064"><ele>829.0</ele><time>2026-04-23T08:33:06Z</time></trkpt><trkpt lat="46.4330848093275" lon="12.379535656459506"><ele>833.0</ele><time>2026-04-23T08:33:07Z</time></trkpt><trkpt lat="46.43288952641216" lon="12.379586663839719"><ele>837.0</ele><time>2026-04-23T08:33:08Z</time></trkpt><trkpt lat="46.43269157224032" lon="12.3796272693198"><ele>841.0</ele><time>2026-04-23T08:33:09Z</time></trkpt><trkpt lat="46.432491406784024" lon="12.379655680139077"><ele>841.0</ele><time>2026-04-23T08:33:10Z</time></trkpt><trkpt lat="46.432290258137826" lon="12.379670483833154"><ele>841.0</ele><time>2026-04-23T08:33:11Z</time></trkpt><trkpt lat="46.43208799744473" lon="12.37967420270827"><ele>841.0</ele><time>2026-04-23T08:33:12Z</time></trkpt><trkpt lat="46.43188741454507" lon="12.379665048837138"><ele>842.3333333333333</ele><time>2026-04-23T08:33:13Z</time></trkpt><trkpt lat="46.43168799720273" lon="12.379644481740751"><ele>843.6666666666667</ele><time>2026-04-23T08:33:14Z</time></trkpt><trkpt lat="46.43149209630997" lon="12.379607194994447"><ele>845.0</ele><time>2026-04-23T08:33:15Z</time></trkpt><trkpt lat="46.431298107292385" lon="12.379561165326447"><ele>840.3333333333334</ele><time>2026-04-23T08:33:16Z</time></trkpt><trkpt lat="46.43110743300453" lon="12.379511555129199"><ele>835.6666666666667</ele><time>2026-04-23T08:33:17Z</time></trkpt><trkpt lat="46.43091564304812" lon="12.379466161369534"><ele>831.0</ele><time>2026-04-23T08:33:18Z</time></trkpt><trkpt lat="46.430726828539854" lon="12.379416076315758"><ele>831.0</ele><time>2026-04-23T08:33:19Z</time></trkpt><trkpt lat="46.43053930740313" lon="12.379358947816971"><ele>831.0</ele><time>2026-04-23T08:33:20Z</time></trkpt><trkpt lat="46.43035332335657" lon="12.379300029305519"><ele>831.0</ele><time>2026-04-23T08:33:21Z</time></trkpt><trkpt lat="46.43016879551217" lon="12.379236066563527"><ele>832.0</ele><time>2026-04-23T08:33:22Z</time></trkpt><trkpt lat="46.429982511484326" lon="12.379155947926304"><ele>833.0</ele><time>2026-04-23T08:33:23Z</time></trkpt><trkpt lat="46.42980108432006" lon="12.379060559052117"><ele>834.0</ele><time>2026-04-23T08:33:24Z</time></trkpt><trkpt lat="46.42961768973241" lon="12.37895137415779"><ele>842.6666666666667</ele><time>2026-04-23T08:33:25Z</time></trkpt><trkpt lat="46.42943395356282" lon="12.378832585625602"><ele>851.3333333333334</ele><time>2026-04-23T08:33:26Z</time></trkpt><trkpt lat="46.429252218769115" lon="12.37869900549148"><ele>860.0</ele><time>2026-04-23T08:33:27Z</time></trkpt><trkpt lat="46.42907538942672" lon="12.378552450412176"><ele>860.0</ele><time>2026-04-23T08:33:28Z</time></trkpt><trkpt lat="46.4289050455398" lon="12.378394162301579"><ele>860.0</ele><time>2026-04-23T08:33:29Z</time></trkpt><trkpt lat="46.428725226297466" lon="12.378221886851268"><ele>860.0</ele><time>2026-04-23T08:33:30.066Z</time></trkpt><trkpt lat="46.42670139322386" lon="12.375743749853733"><ele>898.0</ele><time>2026-04-23T08:33:34.532Z</time></trkpt><trkpt lat="46.42624532967153" lon="12.37511532620704"><ele>898.0</ele><time>2026-04-23T08:33:35.533Z</time></trkpt><trkpt lat="46.4261824" lon="12.3750102"><ele>898.0</ele><time>2026-04-23T08:33:36.532Z</time></trkpt><trkpt lat="46.424955966124784" lon="12.370238448270898"><ele>877.3333333333333</ele><time>2026-04-23T08:34:01.999Z</time></trkpt><trkpt lat="46.42498530823108" lon="12.369973632722965"><ele>856.6666666666667</ele><time>2026-04-23T08:34:02.999Z</time></trkpt><trkpt lat="46.42498106245082" lon="12.369713766298263"><ele>836.0</ele><time>2026-04-23T08:34:03.999Z</time></trkpt><trkpt lat="46.4249826628265" lon="12.369465737508255"><ele>836.0</ele><time>2026-04-23T08:34:04.999Z</time></trkpt><trkpt lat="46.424992454475635" lon="12.369214119470033"><ele>836.0</ele><time>2026-04-23T08:34:05.999Z</time></trkpt><trkpt lat="46.425010268934734" lon="12.36896469064873"><ele>836.0</ele><time>2026-04-23T08:34:06.999Z</time></trkpt><trkpt lat="46.42504104108688" lon="12.3687306713801"><ele>836.3333333333334</ele><time>2026-04-23T08:34:07.999Z</time></trkpt><trkpt lat="46.425082537728606" lon="12.368508135112576"><ele>836.6666666666667</ele><time>2026-04-23T08:34:08.999Z</time></trkpt><trkpt lat="46.42512967893926" lon="12.368285492742544"><ele>837.0</ele><time>2026-04-23T08:34:09.999Z</time></trkpt><trkpt lat="46.4251798601038" lon="12.368066083201402"><ele>836.0</ele><time>2026-04-23T08:34:10.999Z</time></trkpt><trkpt lat="46.42523569600436" lon="12.367830271659319"><ele>835.0</ele><time>2026-04-23T08:34:12.064Z</time></trkpt><trkpt lat="46.425309493160256" lon="12.365870277399104"><ele>835.0</ele><time>2026-04-23T08:34:21.999Z</time></trkpt><trkpt lat="46.42528272941641" lon="12.36568334370153"><ele>835.0</ele><time>2026-04-23T08:34:22.999Z</time></trkpt><trkpt lat="46.42525112427186" lon="12.365503389547527"><ele>835.0</ele><time>2026-04-23T08:34:23.999Z</time></trkpt><trkpt lat="46.42516455235911" lon="12.365306982380472"><ele>835.0</ele><time>2026-04-23T08:34:24.999Z</time></trkpt><trkpt lat="46.42504515283423" lon="12.365157826884497"><ele>835.0</ele><time>2026-04-23T08:34:25.999Z</time></trkpt><trkpt lat="46.424920340307835" lon="12.365047872568114"><ele>835.0</ele><time>2026-04-23T08:34:26.999Z</time></trkpt><trkpt lat="46.4247993041412" lon="12.364964981970692"><ele>835.0</ele><time>2026-04-23T08:34:27.999Z</time></trkpt><trkpt lat="46.424663177237456" lon="12.364882771390853"><ele>835.0</ele><time>2026-04-23T08:34:28.999Z</time></trkpt><trkpt lat="46.42451589088145" lon="12.36482836961178"><ele>831.0</ele><time>2026-04-23T08:34:29.999Z</time></trkpt><trkpt lat="46.42436113718873" lon="12.364812218383708"><ele>827.0</ele><time>2026-04-23T08:34:30.999Z</time></trkpt><trkpt lat="46.42420691554948" lon="12.364822473123574"><ele>823.0</ele><time>2026-04-23T08:34:31.999Z</time></trkpt><trkpt lat="46.42405792361408" lon="12.364846888156473"><ele>823.0</ele><time>2026-04-23T08:34:32.999Z</time></trkpt><trkpt lat="46.423913337340245" lon="12.364885902377937"><ele>823.0</ele><time>2026-04-23T08:34:33.999Z</time></trkpt><trkpt lat="46.42377676806017" lon="12.364935319705438"><ele>823.0</ele><time>2026-04-23T08:34:34.999Z</time></trkpt><trkpt lat="46.42365724493394" lon="12.364984972203102"><ele>823.0</ele><time>2026-04-23T08:34:35.999Z</time></trkpt><trkpt lat="46.42354439287705" lon="12.36502165495779"><ele>822.4</ele><time>2026-04-23T08:34:36.999Z</time></trkpt><trkpt lat="46.423440282151105" lon="12.365058378017684"><ele>821.8</ele><time>2026-04-23T08:34:37.999Z</time></trkpt><trkpt lat="46.423340279598655" lon="12.365093198457378"><ele>821.2</ele><time>2026-04-23T08:34:38.999Z</time></trkpt><trkpt lat="46.423243792408016" lon="12.365128976731596"><ele>820.6</ele><time>2026-04-23T08:34:39.999Z</time></trkpt><trkpt lat="46.42315361015448" lon="12.365158471373327"><ele>820.0</ele><time>2026-04-23T08:34:40.999Z</time></trkpt><trkpt lat="46.42307287117106" lon="12.365183215158863"><ele>819.9999999999999</ele><time>2026-04-23T08:34:41.999Z</time></trkpt><trkpt lat="46.42299494565502" lon="12.365197526646435"><ele>820.0</ele><time>2026-04-23T08:34:42.999Z</time></trkpt><trkpt lat="46.42291780364402" lon="12.365216749148395"><ele>820.0</ele><time>2026-04-23T08:34:43.999Z</time></trkpt><trkpt lat="46.42284586944425" lon="12.365252314725065"><ele>820.0</ele><time>2026-04-23T08:34:44.999Z</time></trkpt><trkpt lat="46.4227752267921" lon="12.365318580072456"><ele>819.9999999999999</ele><time>2026-04-23T08:34:45.999Z</time></trkpt><trkpt lat="46.422702196252835" lon="12.365408305158194"><ele>820.0</ele><time>2026-04-23T08:34:46.999Z</time></trkpt><trkpt lat="46.42262542943264" lon="12.365508054038674"><ele>819.8</ele><time>2026-04-23T08:34:47.999Z</time></trkpt><trkpt lat="46.42254521932822" lon="12.365614158261739"><ele>819.6</ele><time>2026-04-23T08:34:48.998Z</time></trkpt><trkpt lat="46.42247028058437" lon="12.365731883964186"><ele>819.4000000000001</ele><time>2026-04-23T08:34:49.998Z</time></trkpt><trkpt lat="46.42239322950233" lon="12.365843697113993"><ele>819.2</ele><time>2026-04-23T08:34:50.998Z</time></trkpt><trkpt lat="46.42231333326901" lon="12.36595002318022"><ele>819.0</ele><time>2026-04-23T08:34:51.998Z</time></trkpt><trkpt lat="46.422231172290225" lon="12.36605685409971"><ele>818.5</ele><time>2026-04-23T08:34:52.998Z</time></trkpt><trkpt lat="46.422139173205686" lon="12.366171568812016"><ele>818.0</ele><time>2026-04-23T08:34:54Z</time></trkpt><trkpt lat="46.422040107322275" lon="12.366293383157378"><ele>817.5</ele><time>2026-04-23T08:34:55Z</time></trkpt><trkpt lat="46.422001173892994" lon="12.366449936189264"><ele>817.0</ele><time>2026-04-23T08:34:56Z</time></trkpt><trkpt lat="46.42192226880163" lon="12.366597672422024"><ele>817.0</ele><time>2026-04-23T08:34:57Z</time></trkpt><trkpt lat="46.421840260023394" lon="12.366736734058135"><ele>817.0</ele><time>2026-04-23T08:34:58Z</time></trkpt><trkpt lat="46.42175178390844" lon="12.366861059020122"><ele>817.0</ele><time>2026-04-23T08:34:59Z</time></trkpt><trkpt lat="46.4216520850625" lon="12.366968407653184"><ele>817.0</ele><time>2026-04-23T08:35:00Z</time></trkpt><trkpt lat="46.42154564700218" lon="12.367057537008504"><ele>817.0</ele><time>2026-04-23T08:35:01Z</time></trkpt><trkpt lat="46.42143176801809" lon="12.367137360012675"><ele>817.0</ele><time>2026-04-23T08:35:02Z</time></trkpt><trkpt lat="46.421309808983175" lon="12.36720077922121"><ele>817.0</ele><time>2026-04-23T08:35:03Z</time></trkpt><trkpt lat="46.4211829972179" lon="12.367234583436712"><ele>817.0</ele><time>2026-04-23T08:35:04Z</time></trkpt><trkpt lat="46.42106055156542" lon="12.367237021868903"><ele>817.0</ele><time>2026-04-23T08:35:05Z</time></trkpt><trkpt lat="46.420947749616985" lon="12.367217431580396"><ele>817.0</ele><time>2026-04-23T08:35:06Z</time></trkpt><trkpt lat="46.42084753882825" lon="12.367186669713346"><ele>817.0</ele><time>2026-04-23T08:35:07Z</time></trkpt><trkpt lat="46.42076084823923" lon="12.367145794356516"><ele>817.0</ele><time>2026-04-23T08:35:08Z</time></trkpt><trkpt lat="46.420664429762205" lon="12.367072926032133"><ele>817.0</ele><time>2026-04-23T08:35:10Z</time></trkpt><trkpt lat="46.4205862072927" lon="12.366943413931308"><ele>816.9999999999999</ele><time>2026-04-23T08:35:12Z</time></trkpt><trkpt lat="46.42054303542659" lon="12.36684891824167"><ele>817.0</ele><time>2026-04-23T08:35:13Z</time></trkpt><trkpt lat="46.42048268805583" lon="12.366761915482325"><ele>817.0</ele><time>2026-04-23T08:35:14Z</time></trkpt><trkpt lat="46.42041934954445" lon="12.366713715553077"><ele>817.0</ele><time>2026-04-23T08:35:15Z</time></trkpt><trkpt lat="46.42034628086568" lon="12.366697158852077"><ele>816.9999999999999</ele><time>2026-04-23T08:35:16Z</time></trkpt><trkpt lat="46.420263523768256" lon="12.366707645428697"><ele>817.0</ele><time>2026-04-23T08:35:17Z</time></trkpt><trkpt lat="46.42018943903614" lon="12.36675998642279"><ele>818.2</ele><time>2026-04-23T08:35:18Z</time></trkpt><trkpt lat="46.42013104629841" lon="12.366852033910904"><ele>819.4000000000001</ele><time>2026-04-23T08:35:19Z</time></trkpt><trkpt lat="46.420093871987945" lon="12.366980637079958"><ele>820.5999999999999</ele><time>2026-04-23T08:35:20Z</time></trkpt><trkpt lat="46.42006977578375" lon="12.367142607664489"><ele>821.8</ele><time>2026-04-23T08:35:21Z</time></trkpt><trkpt lat="46.42003789105861" lon="12.367331235072314"><ele>823.0</ele><time>2026-04-23T08:35:22Z</time></trkpt><trkpt lat="46.41999454029881" lon="12.367527755795452"><ele>823.0</ele><time>2026-04-23T08:35:23Z</time></trkpt><trkpt lat="46.41994857300338" lon="12.36775147903741"><ele>823.0</ele><time>2026-04-23T08:35:24Z</time></trkpt><trkpt lat="46.41991298533031" lon="12.367997883727782"><ele>823.0</ele><time>2026-04-23T08:35:25Z</time></trkpt><trkpt lat="46.41988670094647" lon="12.368261153308218"><ele>822.0</ele><time>2026-04-23T08:35:26Z</time></trkpt><trkpt lat="46.41986968760386" lon="12.368531183723357"><ele>821.0</ele><time>2026-04-23T08:35:27Z</time></trkpt><trkpt lat="46.41986060425653" lon="12.368806627290184"><ele>820.0</ele><time>2026-04-23T08:35:28Z</time></trkpt><trkpt lat="46.41985611872216" lon="12.369086064540797"><ele>820.0</ele><time>2026-04-23T08:35:29Z</time></trkpt><trkpt lat="46.41985486556134" lon="12.369369262383918"><ele>820.0</ele><time>2026-04-23T08:35:30Z</time></trkpt><trkpt lat="46.41985174573171" lon="12.369650864927396"><ele>820.0</ele><time>2026-04-23T08:35:31Z</time></trkpt><trkpt lat="46.419848879743085" lon="12.369928979636226"><ele>818.0</ele><time>2026-04-23T08:35:32Z</time></trkpt><trkpt lat="46.41984331836346" lon="12.370201872844751"><ele>816.0</ele><time>2026-04-23T08:35:33Z</time></trkpt><trkpt lat="46.41983622315484" lon="12.370467338347284"><ele>814.0</ele><time>2026-04-23T08:35:34Z</time></trkpt><trkpt lat="46.41982940408443" lon="12.37072744979651"><ele>812.6666666666666</ele><time>2026-04-23T08:35:35Z</time></trkpt><trkpt lat="46.41981930931568" lon="12.37099543672527"><ele>811.3333333333333</ele><time>2026-04-23T08:35:36Z</time></trkpt><trkpt lat="46.41980043758238" lon="12.371268608631306"><ele>810.0</ele><time>2026-04-23T08:35:37Z</time></trkpt><trkpt lat="46.419772469086816" lon="12.371544003792593"><ele>809.6666666666667</ele><time>2026-04-23T08:35:38Z</time></trkpt><trkpt lat="46.41973485237458" lon="12.371824440688167"><ele>809.3333333333334</ele><time>2026-04-23T08:35:39Z</time></trkpt><trkpt lat="46.41969266665473" lon="12.372103526379224"><ele>809.0</ele><time>2026-04-23T08:35:40Z</time></trkpt><trkpt lat="46.41964277578752" lon="12.372377629757166"><ele>811.0</ele><time>2026-04-23T08:35:41Z</time></trkpt><trkpt lat="46.41958940637169" lon="12.372644371844366"><ele>813.0</ele><time>2026-04-23T08:35:42Z</time></trkpt><trkpt lat="46.41953484878843" lon="12.37289811797801"><ele>815.0</ele><time>2026-04-23T08:35:43Z</time></trkpt><trkpt lat="46.419480610706316" lon="12.373141941217325"><ele>815.0</ele><time>2026-04-23T08:35:44Z</time></trkpt><trkpt lat="46.41942924304814" lon="12.373369544797157"><ele>815.0</ele><time>2026-04-23T08:35:45Z</time></trkpt><trkpt lat="46.419367950824" lon="12.373578806026178"><ele>815.0</ele><time>2026-04-23T08:35:46Z</time></trkpt><trkpt lat="46.41928761309682" lon="12.373773640162344"><ele>810.6666666666667</ele><time>2026-04-23T08:35:47Z</time></trkpt><trkpt lat="46.41918531963163" lon="12.373949472704393"><ele>806.3333333333333</ele><time>2026-04-23T08:35:47.999Z</time></trkpt><trkpt lat="46.41905869282785" lon="12.374101838014058"><ele>802.0</ele><time>2026-04-23T08:35:48.999Z</time></trkpt><trkpt lat="46.41891058797986" lon="12.374206616907014"><ele>802.6666666666666</ele><time>2026-04-23T08:35:49.999Z</time></trkpt><trkpt lat="46.4187497482456" lon="12.37427078390385"><ele>803.3333333333333</ele><time>2026-04-23T08:35:50.999Z</time></trkpt><trkpt lat="46.41858342204638" lon="12.37430358869446"><ele>804.0</ele><time>2026-04-23T08:35:51.999Z</time></trkpt><trkpt lat="46.418408315029545" lon="12.374334639923173"><ele>804.0</ele><time>2026-04-23T08:35:52.999Z</time></trkpt><trkpt lat="46.41823000930987" lon="12.374378814785116"><ele>804.0</ele><time>2026-04-23T08:35:53.999Z</time></trkpt><trkpt lat="46.41805999332476" lon="12.37441882557313"><ele>804.0</ele><time>2026-04-23T08:35:54.999Z</time></trkpt><trkpt lat="46.4178938176569" lon="12.374444825116246"><ele>801.0</ele><time>2026-04-23T08:35:55.999Z</time></trkpt><trkpt lat="46.41772539063993" lon="12.374442565564332"><ele>798.0</ele><time>2026-04-23T08:35:56.999Z</time></trkpt><trkpt lat="46.41755446404037" lon="12.374406749094103"><ele>795.0</ele><time>2026-04-23T08:35:57.999Z</time></trkpt><trkpt lat="46.417380972369145" lon="12.374319638105108"><ele>795.0</ele><time>2026-04-23T08:35:58.999Z</time></trkpt><trkpt lat="46.41721335337503" lon="12.374190497375457"><ele>795.0</ele><time>2026-04-23T08:35:59.999Z</time></trkpt><trkpt lat="46.4170510391979" lon="12.374027375531536"><ele>795.0</ele><time>2026-04-23T08:36:00.999Z</time></trkpt><trkpt lat="46.41688315015001" lon="12.373860199129933"><ele>794.6666666666667</ele><time>2026-04-23T08:36:01.999Z</time></trkpt><trkpt lat="46.416702428636675" lon="12.373690207806998"><ele>794.3333333333334</ele><time>2026-04-23T08:36:02.999Z</time></trkpt><trkpt lat="46.416514945361584" lon="12.373519368663276"><ele>794.0</ele><time>2026-04-23T08:36:03.999Z</time></trkpt><trkpt lat="46.41632589533187" lon="12.373345242399127"><ele>795.0</ele><time>2026-04-23T08:36:04.999Z</time></trkpt><trkpt lat="46.4161368171322" lon="12.373175788288309"><ele>796.0</ele><time>2026-04-23T08:36:05.999Z</time></trkpt><trkpt lat="46.415952089109275" lon="12.373007217851603"><ele>797.0</ele><time>2026-04-23T08:36:06.999Z</time></trkpt><trkpt lat="46.415769619350996" lon="12.372840523573487"><ele>797.0</ele><time>2026-04-23T08:36:07.999Z</time></trkpt><trkpt lat="46.41558712557499" lon="12.37267062259933"><ele>797.0</ele><time>2026-04-23T08:36:08.999Z</time></trkpt><trkpt lat="46.415404753357194" lon="12.372494716750705"><ele>797.0</ele><time>2026-04-23T08:36:09.999Z</time></trkpt><trkpt lat="46.41522867260958" lon="12.372299796011093"><ele>790.5</ele><time>2026-04-23T08:36:10.999Z</time></trkpt><trkpt lat="46.4150665563446" lon="12.372072073131843"><ele>784.0</ele><time>2026-04-23T08:36:11.999Z</time></trkpt><trkpt lat="46.414919754270485" lon="12.371821678698423"><ele>784.0</ele><time>2026-04-23T08:36:12.999Z</time></trkpt><trkpt lat="46.41477194351332" lon="12.37157246317144"><ele>784.0</ele><time>2026-04-23T08:36:13.999Z</time></trkpt><trkpt lat="46.4146039219914" lon="12.371341624103437"><ele>780.5</ele><time>2026-04-23T08:36:14.999Z</time></trkpt><trkpt lat="46.41442082057474" lon="12.371122672335368"><ele>777.0</ele><time>2026-04-23T08:36:15.999Z</time></trkpt><trkpt lat="46.414228684127444" lon="12.370910344585235"><ele>777.0</ele><time>2026-04-23T08:36:16.999Z</time></trkpt><trkpt lat="46.41403073662189" lon="12.370704338584048"><ele>777.0</ele><time>2026-04-23T08:36:17.999Z</time></trkpt><trkpt lat="46.4138281500684" lon="12.370502502624882"><ele>773.5</ele><time>2026-04-23T08:36:18.999Z</time></trkpt><trkpt lat="46.413627429073784" lon="12.370293533852912"><ele>770.0</ele><time>2026-04-23T08:36:19.999Z</time></trkpt><trkpt lat="46.4134321421221" lon="12.370077985502965"><ele>770.0</ele><time>2026-04-23T08:36:20.999Z</time></trkpt><trkpt lat="46.41323625618872" lon="12.369871612427248"><ele>770.0</ele><time>2026-04-23T08:36:21.999Z</time></trkpt><trkpt lat="46.413038689558405" lon="12.369674977169481"><ele>768.5</ele><time>2026-04-23T08:36:22.999Z</time></trkpt><trkpt lat="46.41283378049526" lon="12.369496980222348"><ele>767.0</ele><time>2026-04-23T08:36:23.999Z</time></trkpt><trkpt lat="46.41262057000837" lon="12.369341960756264"><ele>767.0</ele><time>2026-04-23T08:36:24.999Z</time></trkpt><trkpt lat="46.412397887096795" lon="12.369216780266337"><ele>767.0</ele><time>2026-04-23T08:36:25.999Z</time></trkpt><trkpt lat="46.41216702337999" lon="12.369110962766097"><ele>759.5</ele><time>2026-04-23T08:36:26.999Z</time></trkpt><trkpt lat="46.411934749786575" lon="12.369009768108603"><ele>752.0</ele><time>2026-04-23T08:36:27.999Z</time></trkpt><trkpt lat="46.41170363179979" lon="12.368905357299484"><ele>754.0</ele><time>2026-04-23T08:36:28.999Z</time></trkpt><trkpt lat="46.411474271595495" lon="12.368798051970861"><ele>756.0</ele><time>2026-04-23T08:36:29.999Z</time></trkpt><trkpt lat="46.41125236195874" lon="12.368690906521985"><ele>756.0</ele><time>2026-04-23T08:36:30.999Z</time></trkpt><trkpt lat="46.41103767770035" lon="12.368580788387098"><ele>756.0</ele><time>2026-04-23T08:36:31.999Z</time></trkpt><trkpt lat="46.41082390563832" lon="12.368448704212211"><ele>756.0</ele><time>2026-04-23T08:36:32.999Z</time></trkpt><trkpt lat="46.41061657911197" lon="12.368284796931226"><ele>756.0</ele><time>2026-04-23T08:36:33.999Z</time></trkpt><trkpt lat="46.4104160360245" lon="12.368097550970933"><ele>755.6666666666666</ele><time>2026-04-23T08:36:34.999Z</time></trkpt><trkpt lat="46.41023226301237" lon="12.367903614135153"><ele>755.3333333333333</ele><time>2026-04-23T08:36:35.999Z</time></trkpt><trkpt lat="46.41005980780089" lon="12.367716816430036"><ele>755.0</ele><time>2026-04-23T08:36:36.999Z</time></trkpt><trkpt lat="46.40989311032089" lon="12.367548861898369"><ele>755.0</ele><time>2026-04-23T08:36:37.999Z</time></trkpt><trkpt lat="46.409730205425404" lon="12.367404357212536"><ele>755.0</ele><time>2026-04-23T08:36:38.999Z</time></trkpt><trkpt lat="46.409567243355305" lon="12.367288241904536"><ele>755.0</ele><time>2026-04-23T08:36:39.999Z</time></trkpt><trkpt lat="46.409403336809625" lon="12.36719807366971"><ele>756.6666666666666</ele><time>2026-04-23T08:36:40.999Z</time></trkpt><trkpt lat="46.40923717617584" lon="12.36713757426491"><ele>758.3333333333334</ele><time>2026-04-23T08:36:41.999Z</time></trkpt><trkpt lat="46.40906661148263" lon="12.367102014016456"><ele>760.0</ele><time>2026-04-23T08:36:42.999Z</time></trkpt><trkpt lat="46.408893527229175" lon="12.367093406072568"><ele>759.3333333333334</ele><time>2026-04-23T08:36:43.999Z</time></trkpt><trkpt lat="46.4087143057471" lon="12.367108878856607"><ele>758.6666666666666</ele><time>2026-04-23T08:36:44.999Z</time></trkpt><trkpt lat="46.40854011989206" lon="12.367152630748762"><ele>758.0</ele><time>2026-04-23T08:36:45.999Z</time></trkpt><trkpt lat="46.40838213657292" lon="12.36723055358408"><ele>751.0</ele><time>2026-04-23T08:36:46.999Z</time></trkpt><trkpt lat="46.408238276321086" lon="12.367326084772449"><ele>744.0</ele><time>2026-04-23T08:36:47.999Z</time></trkpt><trkpt lat="46.408101623401244" lon="12.367372743712092"><ele>737.0</ele><time>2026-04-23T08:36:48.999Z</time></trkpt><trkpt lat="46.408005920581246" lon="12.367521988414497"><ele>730.0</ele><time>2026-04-23T08:36:49.999Z</time></trkpt><trkpt lat="46.407912277403305" lon="12.367604616941767"><ele>730.0</ele><time>2026-04-23T08:36:50.999Z</time></trkpt><trkpt lat="46.40782750517559" lon="12.367682225076306"><ele>730.0</ele><time>2026-04-23T08:36:51.999Z</time></trkpt><trkpt lat="46.40774836574986" lon="12.367728505432764"><ele>730.0</ele><time>2026-04-23T08:36:52.999Z</time></trkpt><trkpt lat="46.40765784631208" lon="12.367740325758009"><ele>730.0</ele><time>2026-04-23T08:36:53.998Z</time></trkpt><trkpt lat="46.4075500250539" lon="12.367728705595583"><ele>730.0</ele><time>2026-04-23T08:36:54.998Z</time></trkpt><trkpt lat="46.40743127815385" lon="12.367681051927006"><ele>730.0</ele><time>2026-04-23T08:36:55.998Z</time></trkpt><trkpt lat="46.40731151991491" lon="12.367596706645736"><ele>730.0</ele><time>2026-04-23T08:36:56.998Z</time></trkpt><trkpt lat="46.40718351383635" lon="12.367488369110957"><ele>730.0</ele><time>2026-04-23T08:36:57.998Z</time></trkpt><trkpt lat="46.40705415011258" lon="12.367377615594542"><ele>730.0</ele><time>2026-04-23T08:36:58.998Z</time></trkpt><trkpt lat="46.40693052664506" lon="12.367264428896693"><ele>726.6666666666667</ele><time>2026-04-23T08:37:00Z</time></trkpt><trkpt lat="46.406814121837364" lon="12.367138966055713"><ele>723.3333333333334</ele><time>2026-04-23T08:37:01Z</time></trkpt><trkpt lat="46.406696586831295" lon="12.366992431144253"><ele>720.0</ele><time>2026-04-23T08:37:02Z</time></trkpt><trkpt lat="46.4065674392023" lon="12.366839948568948"><ele>720.0</ele><time>2026-04-23T08:37:03Z</time></trkpt><trkpt lat="46.40643071185682" lon="12.366682342688778"><ele>720.0</ele><time>2026-04-23T08:37:04Z</time></trkpt><trkpt lat="46.40628347464555" lon="12.366513311279373"><ele>720.0</ele><time>2026-04-23T08:37:05Z</time></trkpt><trkpt lat="46.406205633896285" lon="12.366347469112602"><ele>718.0</ele><time>2026-04-23T08:37:06Z</time></trkpt><trkpt lat="46.406080660062976" lon="12.366177300519679"><ele>716.0</ele><time>2026-04-23T08:37:07Z</time></trkpt><trkpt lat="46.40595695370102" lon="12.366011710073302"><ele>714.0</ele><time>2026-04-23T08:37:08Z</time></trkpt><trkpt lat="46.405838692970526" lon="12.365856216776717"><ele>714.0</ele><time>2026-04-23T08:37:09Z</time></trkpt><trkpt lat="46.40572819462899" lon="12.365701597735297"><ele>714.0</ele><time>2026-04-23T08:37:10Z</time></trkpt><trkpt lat="46.405621548899376" lon="12.365562479834285"><ele>714.0</ele><time>2026-04-23T08:37:11Z</time></trkpt><trkpt lat="46.405511637315946" lon="12.365446800288668"><ele>714.0</ele><time>2026-04-23T08:37:12Z</time></trkpt><trkpt lat="46.405384279958845" lon="12.365367035713112"><ele>715.0</ele><time>2026-04-23T08:37:13Z</time></trkpt><trkpt lat="46.40524447301823" lon="12.365320825281646"><ele>716.0</ele><time>2026-04-23T08:37:14Z</time></trkpt><trkpt lat="46.40509783767331" lon="12.365298862785895"><ele>717.0</ele><time>2026-04-23T08:37:15Z</time></trkpt><trkpt lat="46.4049520440579" lon="12.365285028495022"><ele>718.0</ele><time>2026-04-23T08:37:16Z</time></trkpt><trkpt lat="46.40481984749432" lon="12.36527987805367"><ele>718.0</ele><time>2026-04-23T08:37:17Z</time></trkpt><trkpt lat="46.40470167775581" lon="12.365301514320647"><ele>718.0</ele><time>2026-04-23T08:37:18Z</time></trkpt><trkpt lat="46.404590106523656" lon="12.365355904113152"><ele>718.0</ele><time>2026-04-23T08:37:19Z</time></trkpt><trkpt lat="46.40448740511503" lon="12.365456251714074"><ele>718.0</ele><time>2026-04-23T08:37:20Z</time></trkpt><trkpt lat="46.40440090989803" lon="12.365586556609095"><ele>717.5</ele><time>2026-04-23T08:37:21Z</time></trkpt><trkpt lat="46.404334238765415" lon="12.365746912075858"><ele>717.0</ele><time>2026-04-23T08:37:22Z</time></trkpt><trkpt lat="46.40429323427252" lon="12.365935608821443"><ele>716.5</ele><time>2026-04-23T08:37:23Z</time></trkpt><trkpt lat="46.404274701635266" lon="12.366146599552502"><ele>716.0</ele><time>2026-04-23T08:37:24Z</time></trkpt><trkpt lat="46.40426423551993" lon="12.366370913894414"><ele>717.6666666666666</ele><time>2026-04-23T08:37:25Z</time></trkpt><trkpt lat="46.4042517016764" lon="12.366597368205179"><ele>719.3333333333334</ele><time>2026-04-23T08:37:26Z</time></trkpt><trkpt lat="46.40423487772783" lon="12.366819061400655"><ele>721.0</ele><time>2026-04-23T08:37:27Z</time></trkpt><trkpt lat="46.404219724227055" lon="12.36704049850511"><ele>721.0</ele><time>2026-04-23T08:37:28Z</time></trkpt><trkpt lat="46.40421066129997" lon="12.367264981181709"><ele>721.0</ele><time>2026-04-23T08:37:29Z</time></trkpt><trkpt lat="46.40421527238179" lon="12.367486259181023"><ele>721.0</ele><time>2026-04-23T08:37:30Z</time></trkpt><trkpt lat="46.40424513357106" lon="12.367708686166328"><ele>721.0</ele><time>2026-04-23T08:37:31Z</time></trkpt><trkpt lat="46.40430030948377" lon="12.367928910970484"><ele>721.0</ele><time>2026-04-23T08:37:32Z</time></trkpt><trkpt lat="46.40436730883773" lon="12.368144475705654"><ele>721.0</ele><time>2026-04-23T08:37:33Z</time></trkpt><trkpt lat="46.404427563764415" lon="12.368353341525285"><ele>720.5</ele><time>2026-04-23T08:37:34Z</time></trkpt><trkpt lat="46.404469171944655" lon="12.368552565181613"><ele>720.0</ele><time>2026-04-23T08:37:35Z</time></trkpt><trkpt lat="46.40448731837325" lon="12.368744811037082"><ele>719.5</ele><time>2026-04-23T08:37:36Z</time></trkpt><trkpt lat="46.40447800299457" lon="12.368933558061789"><ele>719.0</ele><time>2026-04-23T08:37:37Z</time></trkpt><trkpt lat="46.40444647030533" lon="12.369124834487508"><ele>717.0</ele><time>2026-04-23T08:37:38Z</time></trkpt><trkpt lat="46.40441359151691" lon="12.369324797815091"><ele>715.0</ele><time>2026-04-23T08:37:39Z</time></trkpt><trkpt lat="46.404383296852174" lon="12.369525851522523"><ele>713.0</ele><time>2026-04-23T08:37:40Z</time></trkpt><trkpt lat="46.40435751801651" lon="12.36971044068741"><ele>711.0</ele><time>2026-04-23T08:37:41Z</time></trkpt><trkpt lat="46.40433270033433" lon="12.369873387767457"><ele>709.4</ele><time>2026-04-23T08:37:42Z</time></trkpt><trkpt lat="46.40429655221094" lon="12.370005271439686"><ele>707.8</ele><time>2026-04-23T08:37:43Z</time></trkpt><trkpt lat="46.40424050529188" lon="12.3701052402956"><ele>706.1999999999999</ele><time>2026-04-23T08:37:44Z</time></trkpt><trkpt lat="46.404164936569" lon="12.370174919548608"><ele>704.5999999999999</ele><time>2026-04-23T08:37:45Z</time></trkpt><trkpt lat="46.404074276467426" lon="12.370207605180745"><ele>703.0</ele><time>2026-04-23T08:37:46Z</time></trkpt><trkpt lat="46.403974795494065" lon="12.37020218544833"><ele>703.0</ele><time>2026-04-23T08:37:47Z</time></trkpt><trkpt lat="46.40387123378774" lon="12.370173699192444"><ele>703.0</ele><time>2026-04-23T08:37:48Z</time></trkpt><trkpt lat="46.403772913238704" lon="12.3700233774156"><ele>703.0</ele><time>2026-04-23T08:37:50Z</time></trkpt><trkpt lat="46.40372921688559" lon="12.36987381986532"><ele>703.0</ele><time>2026-04-23T08:37:50.999Z</time></trkpt><trkpt lat="46.4037137699925" lon="12.369699947469838"><ele>695.5</ele><time>2026-04-23T08:37:51.999Z</time></trkpt><trkpt lat="46.403702389205606" lon="12.369514348871297"><ele>688.0</ele><time>2026-04-23T08:37:52.999Z</time></trkpt><trkpt lat="46.40368631219615" lon="12.369317700615582"><ele>680.5</ele><time>2026-04-23T08:37:53.999Z</time></trkpt><trkpt lat="46.403657009590795" lon="12.369111387508758"><ele>673.0</ele><time>2026-04-23T08:37:54.999Z</time></trkpt><trkpt lat="46.40362097837787" lon="12.368895803543177"><ele>680.0</ele><time>2026-04-23T08:37:55.999Z</time></trkpt><trkpt lat="46.40357737354069" lon="12.36867913398483"><ele>687.0</ele><time>2026-04-23T08:37:56.999Z</time></trkpt><trkpt lat="46.40353191415504" lon="12.368485441319871"><ele>694.0</ele><time>2026-04-23T08:37:57.999Z</time></trkpt><trkpt lat="46.40347310423876" lon="12.368321137370511"><ele>701.0</ele><time>2026-04-23T08:37:58.999Z</time></trkpt><trkpt lat="46.4033803279657" lon="12.368181538478225"><ele>701.0</ele><time>2026-04-23T08:37:59.999Z</time></trkpt><trkpt lat="46.403250971503994" lon="12.368107399440243"><ele>701.0</ele><time>2026-04-23T08:38:00.999Z</time></trkpt><trkpt lat="46.40312312755278" lon="12.367989551396434"><ele>701.0</ele><time>2026-04-23T08:38:01.999Z</time></trkpt><trkpt lat="46.40297097774833" lon="12.367911785968987"><ele>696.0</ele><time>2026-04-23T08:38:02.999Z</time></trkpt><trkpt lat="46.40281773019205" lon="12.367820705121146"><ele>691.0</ele><time>2026-04-23T08:38:03.999Z</time></trkpt><trkpt lat="46.40268411572871" lon="12.36771595621589"><ele>686.0</ele><time>2026-04-23T08:38:04.999Z</time></trkpt><trkpt lat="46.4025666101379" lon="12.367592661114129"><ele>686.0</ele><time>2026-04-23T08:38:05.999Z</time></trkpt><trkpt lat="46.40248528788386" lon="12.3674296329031"><ele>686.0</ele><time>2026-04-23T08:38:06.999Z</time></trkpt><trkpt lat="46.40240970787331" lon="12.367236253845915"><ele>686.0</ele><time>2026-04-23T08:38:07.999Z</time></trkpt><trkpt lat="46.40233070287506" lon="12.367035451863707"><ele>691.6666666666666</ele><time>2026-04-23T08:38:08.999Z</time></trkpt><trkpt lat="46.40224367901533" lon="12.36683819985726"><ele>697.3333333333334</ele><time>2026-04-23T08:38:09.999Z</time></trkpt><trkpt lat="46.40216798121399" lon="12.366623693301644"><ele>703.0</ele><time>2026-04-23T08:38:10.999Z</time></trkpt><trkpt lat="46.402100020566984" lon="12.366436064249164"><ele>699.5</ele><time>2026-04-23T08:38:11.999Z</time></trkpt><trkpt lat="46.4020272991726" lon="12.366274218803355"><ele>696.0</ele><time>2026-04-23T08:38:12.999Z</time></trkpt><trkpt lat="46.401930407022945" lon="12.366136058029987"><ele>692.5</ele><time>2026-04-23T08:38:13.999Z</time></trkpt><trkpt lat="46.40180040866032" lon="12.366046504166977"><ele>689.0</ele><time>2026-04-23T08:38:14.999Z</time></trkpt><trkpt lat="46.40164962366592" lon="12.365975077941567"><ele>689.0</ele><time>2026-04-23T08:38:15.999Z</time></trkpt><trkpt lat="46.40149340551589" lon="12.365905965562822"><ele>689.0</ele><time>2026-04-23T08:38:16.999Z</time></trkpt><trkpt lat="46.40133701074951" lon="12.365825021167048"><ele>689.0</ele><time>2026-04-23T08:38:17.999Z</time></trkpt><trkpt lat="46.40119211752386" lon="12.365744783698407"><ele>688.0</ele><time>2026-04-23T08:38:18.999Z</time></trkpt><trkpt lat="46.401050910289015" lon="12.365662713054299"><ele>687.0</ele><time>2026-04-23T08:38:19.999Z</time></trkpt><trkpt lat="46.40091671789989" lon="12.365595741373195"><ele>686.0</ele><time>2026-04-23T08:38:20.999Z</time></trkpt><trkpt lat="46.40080385733837" lon="12.365529026921976"><ele>685.0</ele><time>2026-04-23T08:38:21.999Z</time></trkpt><trkpt lat="46.40072626768812" lon="12.36543162738288"><ele>685.0</ele><time>2026-04-23T08:38:22.999Z</time></trkpt><trkpt lat="46.400657394816385" lon="12.365290134412746"><ele>685.0</ele><time>2026-04-23T08:38:23.999Z</time></trkpt><trkpt lat="46.4006025407254" lon="12.365114888749781"><ele>685.0</ele><time>2026-04-23T08:38:24.999Z</time></trkpt><trkpt lat="46.40055958504403" lon="12.364916515861774"><ele>685.0</ele><time>2026-04-23T08:38:25.999Z</time></trkpt><trkpt lat="46.4005273876031" lon="12.364705146597121"><ele>667.0</ele><time>2026-04-23T08:38:26.999Z</time></trkpt><trkpt lat="46.40049697987581" lon="12.3644922801453"><ele>649.0</ele><time>2026-04-23T08:38:27.999Z</time></trkpt><trkpt lat="46.40046672009852" lon="12.364283111102827"><ele>631.0</ele><time>2026-04-23T08:38:28.999Z</time></trkpt><trkpt lat="46.40043701879336" lon="12.36409949517019"><ele>613.0</ele><time>2026-04-23T08:38:29.999Z</time></trkpt><trkpt lat="46.40045121130778" lon="12.363927616850155"><ele>611.5</ele><time>2026-04-23T08:38:30.999Z</time></trkpt><trkpt lat="46.400497369451436" lon="12.363757319215456"><ele>610.0</ele><time>2026-04-23T08:38:31.999Z</time></trkpt><trkpt lat="46.40053553468237" lon="12.363567470323867"><ele>608.5</ele><time>2026-04-23T08:38:32.999Z</time></trkpt><trkpt lat="46.40056036979316" lon="12.363345601943776"><ele>607.0</ele><time>2026-04-23T08:38:33.999Z</time></trkpt><trkpt lat="46.400592655338365" lon="12.363101726486049"><ele>625.6666666666667</ele><time>2026-04-23T08:38:34.999Z</time></trkpt><trkpt lat="46.400633373160865" lon="12.362870495330053"><ele>644.3333333333334</ele><time>2026-04-23T08:38:35.999Z</time></trkpt><trkpt lat="46.40065208832038" lon="12.362632165061125"><ele>663.0</ele><time>2026-04-23T08:38:36.999Z</time></trkpt><trkpt lat="46.40067717573758" lon="12.362402279060795"><ele>660.6666666666666</ele><time>2026-04-23T08:38:37.999Z</time></trkpt><trkpt lat="46.4007352363002" lon="12.362162352422411"><ele>658.3333333333333</ele><time>2026-04-23T08:38:38.999Z</time></trkpt><trkpt lat="46.40076061288671" lon="12.36189940398478"><ele>656.0</ele><time>2026-04-23T08:38:39.999Z</time></trkpt><trkpt lat="46.40077966041031" lon="12.361676148962665"><ele>656.0</ele><time>2026-04-23T08:38:40.999Z</time></trkpt><trkpt lat="46.40078044354898" lon="12.361443066709251"><ele>656.0</ele><time>2026-04-23T08:38:41.999Z</time></trkpt><trkpt lat="46.40074089536169" lon="12.361207319633085"><ele>656.0</ele><time>2026-04-23T08:38:42.999Z</time></trkpt><trkpt lat="46.40069223202063" lon="12.36096882214929"><ele>654.6666666666666</ele><time>2026-04-23T08:38:43.999Z</time></trkpt><trkpt lat="46.400649776837284" lon="12.36074306234125"><ele>653.3333333333334</ele><time>2026-04-23T08:38:44.999Z</time></trkpt><trkpt lat="46.40061439401032" lon="12.360520445848122"><ele>652.0</ele><time>2026-04-23T08:38:45.999Z</time></trkpt><trkpt lat="46.400575064068796" lon="12.360304490916514"><ele>645.3333333333334</ele><time>2026-04-23T08:38:46.999Z</time></trkpt><trkpt lat="46.40051156668972" lon="12.360095265077518"><ele>638.6666666666666</ele><time>2026-04-23T08:38:47.999Z</time></trkpt><trkpt lat="46.40043556753815" lon="12.359874156007042"><ele>632.0</ele><time>2026-04-23T08:38:48.999Z</time></trkpt><trkpt lat="46.400360054608164" lon="12.359647238754873"><ele>632.0</ele><time>2026-04-23T08:38:49.999Z</time></trkpt><trkpt lat="46.400288166011265" lon="12.359420836471603"><ele>632.0</ele><time>2026-04-23T08:38:50.999Z</time></trkpt><trkpt lat="46.40022867664809" lon="12.359203248682888"><ele>632.0</ele><time>2026-04-23T08:38:51.999Z</time></trkpt><trkpt lat="46.4002028763339" lon="12.358966306479811"><ele>631.0</ele><time>2026-04-23T08:38:52.999Z</time></trkpt><trkpt lat="46.4001581288602" lon="12.358719796390446"><ele>630.0</ele><time>2026-04-23T08:38:53.999Z</time></trkpt><trkpt lat="46.400141853120935" lon="12.358471324050955"><ele>629.0</ele><time>2026-04-23T08:38:54.999Z</time></trkpt><trkpt lat="46.40011664342714" lon="12.358234232704467"><ele>629.0</ele><time>2026-04-23T08:38:55.998Z</time></trkpt><trkpt lat="46.400089616883164" lon="12.358014621616393"><ele>629.0</ele><time>2026-04-23T08:38:56.998Z</time></trkpt><trkpt lat="46.40005925138732" lon="12.357813880059553"><ele>629.0</ele><time>2026-04-23T08:38:57.998Z</time></trkpt><trkpt lat="46.40003304209585" lon="12.357634245738797"><ele>629.0</ele><time>2026-04-23T08:38:58.998Z</time></trkpt><trkpt lat="46.40001665678517" lon="12.357476303981034"><ele>629.0</ele><time>2026-04-23T08:38:59.998Z</time></trkpt><trkpt lat="46.40000336758096" lon="12.357336157975595"><ele>629.0</ele><time>2026-04-23T08:39:00.998Z</time></trkpt><trkpt lat="46.39999983106236" lon="12.357227145608237"><ele>629.0</ele><time>2026-04-23T08:39:01.998Z</time></trkpt><trkpt lat="46.39993823541114" lon="12.357116195144343"><ele>629.0</ele><time>2026-04-23T08:39:03.998Z</time></trkpt><trkpt lat="46.39987127628375" lon="12.357103971121571"><ele>629.0</ele><time>2026-04-23T08:39:04.998Z</time></trkpt><trkpt lat="46.39980281648535" lon="12.35713687287836"><ele>629.0</ele><time>2026-04-23T08:39:06Z</time></trkpt><trkpt lat="46.39975854885716" lon="12.357219113183344"><ele>629.0</ele><time>2026-04-23T08:39:07Z</time></trkpt><trkpt lat="46.399763181031524" lon="12.357326389837116"><ele>629.0</ele><time>2026-04-23T08:39:08Z</time></trkpt><trkpt lat="46.399791772316846" lon="12.357432898170787"><ele>629.0</ele><time>2026-04-23T08:39:09Z</time></trkpt><trkpt lat="46.39984084504471" lon="12.35754573171433"><ele>629.0</ele><time>2026-04-23T08:39:10Z</time></trkpt><trkpt lat="46.39986929296516" lon="12.35768965548291"><ele>629.0</ele><time>2026-04-23T08:39:11Z</time></trkpt><trkpt lat="46.39982802719584" lon="12.357853764822067"><ele>629.0</ele><time>2026-04-23T08:39:12Z</time></trkpt><trkpt lat="46.399824771456714" lon="12.3580518606202"><ele>629.0</ele><time>2026-04-23T08:39:13Z</time></trkpt><trkpt lat="46.399807748051394" lon="12.358252430515149"><ele>629.0</ele><time>2026-04-23T08:39:14Z</time></trkpt><trkpt lat="46.39980749076331" lon="12.358494072053231"><ele>629.0</ele><time>2026-04-23T08:39:15Z</time></trkpt><trkpt lat="46.3998098095506" lon="12.35871972288215"><ele>630.0</ele><time>2026-04-23T08:39:16Z</time></trkpt><trkpt lat="46.39981091206694" lon="12.358944463649479"><ele>631.0</ele><time>2026-04-23T08:39:17Z</time></trkpt><trkpt lat="46.39981073688264" lon="12.35916016848371"><ele>632.0</ele><time>2026-04-23T08:39:18Z</time></trkpt><trkpt lat="46.39982138432404" lon="12.35937853162079"><ele>632.0</ele><time>2026-04-23T08:39:19Z</time></trkpt><trkpt lat="46.39985229529887" lon="12.359601497734221"><ele>632.0</ele><time>2026-04-23T08:39:20Z</time></trkpt><trkpt lat="46.39990450326172" lon="12.359823333963313"><ele>632.0</ele><time>2026-04-23T08:39:21Z</time></trkpt><trkpt lat="46.39995642785635" lon="12.360043725507483"><ele>627.3333333333333</ele><time>2026-04-23T08:39:22Z</time></trkpt><trkpt lat="46.39998650764082" lon="12.360266707140184"><ele>622.6666666666666</ele><time>2026-04-23T08:39:23Z</time></trkpt><trkpt lat="46.400038461280815" lon="12.360471270614346"><ele>618.0</ele><time>2026-04-23T08:39:24Z</time></trkpt><trkpt lat="46.4000615912726" lon="12.36068008717123"><ele>614.0</ele><time>2026-04-23T08:39:25Z</time></trkpt><trkpt lat="46.40003648951401" lon="12.360884304098523"><ele>610.0</ele><time>2026-04-23T08:39:26Z</time></trkpt><trkpt lat="46.400021332366826" lon="12.36108941768795"><ele>606.0</ele><time>2026-04-23T08:39:27Z</time></trkpt><trkpt lat="46.400021065052485" lon="12.361309769725981"><ele>602.0</ele><time>2026-04-23T08:39:28Z</time></trkpt><trkpt lat="46.400001593132544" lon="12.361536001501422"><ele>602.0</ele><time>2026-04-23T08:39:29Z</time></trkpt><trkpt lat="46.39998864083092" lon="12.36177186566057"><ele>602.0</ele><time>2026-04-23T08:39:30Z</time></trkpt><trkpt lat="46.39997412955886" lon="12.362013435456474"><ele>602.0</ele><time>2026-04-23T08:39:31Z</time></trkpt><trkpt lat="46.39994244657998" lon="12.362255573346028"><ele>601.3333333333333</ele><time>2026-04-23T08:39:32Z</time></trkpt><trkpt lat="46.39992497939334" lon="12.362492951415984"><ele>600.6666666666666</ele><time>2026-04-23T08:39:33Z</time></trkpt><trkpt lat="46.39991921611301" lon="12.362721555168978"><ele>600.0</ele><time>2026-04-23T08:39:34Z</time></trkpt><trkpt lat="46.39989304867692" lon="12.362943051351694"><ele>602.3333333333334</ele><time>2026-04-23T08:39:35Z</time></trkpt><trkpt lat="46.39986290894935" lon="12.36316251586784"><ele>604.6666666666667</ele><time>2026-04-23T08:39:36Z</time></trkpt><trkpt lat="46.39982780576348" lon="12.363389509676963"><ele>607.0</ele><time>2026-04-23T08:39:37Z</time></trkpt><trkpt lat="46.399793921366715" lon="12.363612046494003"><ele>607.0</ele><time>2026-04-23T08:39:38Z</time></trkpt><trkpt lat="46.39975570144474" lon="12.363825785297465"><ele>607.0</ele><time>2026-04-23T08:39:39Z</time></trkpt><trkpt lat="46.3997094618049" lon="12.364029759589013"><ele>607.0</ele><time>2026-04-23T08:39:40Z</time></trkpt><trkpt lat="46.39966723844735" lon="12.364225160222338"><ele>607.0</ele><time>2026-04-23T08:39:41Z</time></trkpt><trkpt lat="46.39963857888682" lon="12.364417691459423"><ele>594.25</ele><time>2026-04-23T08:39:42Z</time></trkpt><trkpt lat="46.39962756435353" lon="12.364609447573578"><ele>581.5</ele><time>2026-04-23T08:39:43Z</time></trkpt><trkpt lat="46.3996143804322" lon="12.36479736613154"><ele>568.75</ele><time>2026-04-23T08:39:44Z</time></trkpt><trkpt lat="46.39962226247991" lon="12.364984214420968"><ele>556.0</ele><time>2026-04-23T08:39:45Z</time></trkpt><trkpt lat="46.39964984936055" lon="12.365158261898431"><ele>565.8</ele><time>2026-04-23T08:39:46Z</time></trkpt><trkpt lat="46.39966949841338" lon="12.365319637420273"><ele>575.6</ele><time>2026-04-23T08:39:47Z</time></trkpt><trkpt lat="46.39969270944604" lon="12.365462664364005"><ele>585.4</ele><time>2026-04-23T08:39:48Z</time></trkpt><trkpt lat="46.39971360766933" lon="12.365593838695975"><ele>595.2</ele><time>2026-04-23T08:39:49Z</time></trkpt><trkpt lat="46.399726787232616" lon="12.365708281267663"><ele>605.0</ele><time>2026-04-23T08:39:50Z</time></trkpt><trkpt lat="46.39973102281621" lon="12.365806172585279"><ele>595.8</ele><time>2026-04-23T08:39:51Z</time></trkpt><trkpt lat="46.399652134714636" lon="12.365905487455358"><ele>586.6</ele><time>2026-04-23T08:39:53Z</time></trkpt><trkpt lat="46.399587778536606" lon="12.36587694830552"><ele>577.4</ele><time>2026-04-23T08:39:54Z</time></trkpt><trkpt lat="46.39954737097519" lon="12.365787090482382"><ele>568.2</ele><time>2026-04-23T08:39:54.999Z</time></trkpt><trkpt lat="46.39953734205236" lon="12.365656279292923"><ele>559.0</ele><time>2026-04-23T08:39:55.999Z</time></trkpt><trkpt lat="46.39954188959695" lon="12.36549152421099"><ele>558.25</ele><time>2026-04-23T08:39:56.999Z</time></trkpt><trkpt lat="46.399535098739165" lon="12.365303519547687"><ele>557.5</ele><time>2026-04-23T08:39:57.999Z</time></trkpt><trkpt lat="46.39952002556986" lon="12.365105438053583"><ele>556.75</ele><time>2026-04-23T08:39:58.999Z</time></trkpt><trkpt lat="46.39950995898658" lon="12.36490370172841"><ele>556.0</ele><time>2026-04-23T08:39:59.999Z</time></trkpt><trkpt lat="46.399500350029356" lon="12.364700796378314"><ele>555.6666666666667</ele><time>2026-04-23T08:40:00.999Z</time></trkpt><trkpt lat="46.39949343715769" lon="12.36448409561767"><ele>555.3333333333334</ele><time>2026-04-23T08:40:01.999Z</time></trkpt><trkpt lat="46.39950292594907" lon="12.36425920708867"><ele>555.0</ele><time>2026-04-23T08:40:02.999Z</time></trkpt><trkpt lat="46.39953357469275" lon="12.364029869180117"><ele>554.0</ele><time>2026-04-23T08:40:03.999Z</time></trkpt><trkpt lat="46.399565346348055" lon="12.363799752702334"><ele>553.0</ele><time>2026-04-23T08:40:04.999Z</time></trkpt><trkpt lat="46.39957630909844" lon="12.363574332340047"><ele>552.0</ele><time>2026-04-23T08:40:05.999Z</time></trkpt><trkpt lat="46.399563073449144" lon="12.363342034711645"><ele>552.0</ele><time>2026-04-23T08:40:06.999Z</time></trkpt><trkpt lat="46.399541712115074" lon="12.363104166778928"><ele>552.0</ele><time>2026-04-23T08:40:07.999Z</time></trkpt><trkpt lat="46.39952280141164" lon="12.36286205743614"><ele>552.0</ele><time>2026-04-23T08:40:08.999Z</time></trkpt><trkpt lat="46.399514442897974" lon="12.362620393971838"><ele>552.0</ele><time>2026-04-23T08:40:09.999Z</time></trkpt><trkpt lat="46.39951667717214" lon="12.36237786124619"><ele>552.0</ele><time>2026-04-23T08:40:10.999Z</time></trkpt><trkpt lat="46.399511762128924" lon="12.36214317777005"><ele>552.0</ele><time>2026-04-23T08:40:11.999Z</time></trkpt><trkpt lat="46.39947965542924" lon="12.361921558875704"><ele>552.0</ele><time>2026-04-23T08:40:12.999Z</time></trkpt><trkpt lat="46.39943153552487" lon="12.361705339688427"><ele>552.0</ele><time>2026-04-23T08:40:13.999Z</time></trkpt><trkpt lat="46.39937247739783" lon="12.361492304458366"><ele>552.0</ele><time>2026-04-23T08:40:14.999Z</time></trkpt><trkpt lat="46.39931775598582" lon="12.361274135231458"><ele>552.6666666666666</ele><time>2026-04-23T08:40:15.999Z</time></trkpt><trkpt lat="46.39926908574268" lon="12.3610523482092"><ele>553.3333333333333</ele><time>2026-04-23T08:40:16.999Z</time></trkpt><trkpt lat="46.39922238780485" lon="12.3608280297126"><ele>554.0</ele><time>2026-04-23T08:40:17.999Z</time></trkpt><trkpt lat="46.399175498453374" lon="12.360613167880953"><ele>554.75</ele><time>2026-04-23T08:40:18.999Z</time></trkpt><trkpt lat="46.399134526575274" lon="12.360399653740725"><ele>555.5</ele><time>2026-04-23T08:40:19.999Z</time></trkpt><trkpt lat="46.399102003777976" lon="12.36019299142712"><ele>556.25</ele><time>2026-04-23T08:40:20.999Z</time></trkpt><trkpt lat="46.39907669956418" lon="12.359987716137068"><ele>557.0</ele><time>2026-04-23T08:40:21.999Z</time></trkpt><trkpt lat="46.39904899097299" lon="12.35978834659271"><ele>560.5</ele><time>2026-04-23T08:40:22.999Z</time></trkpt><trkpt lat="46.399017796142935" lon="12.359596941290913"><ele>564.0</ele><time>2026-04-23T08:40:23.999Z</time></trkpt><trkpt lat="46.39897429696822" lon="12.359405132168124"><ele>567.5</ele><time>2026-04-23T08:40:24.999Z</time></trkpt><trkpt lat="46.398920107782125" lon="12.359200504287148"><ele>571.0</ele><time>2026-04-23T08:40:25.999Z</time></trkpt><trkpt lat="46.39885733068711" lon="12.35898801786298"><ele>560.6666666666667</ele><time>2026-04-23T08:40:26.999Z</time></trkpt><trkpt lat="46.39879305488946" lon="12.358772044896408"><ele>550.3333333333334</ele><time>2026-04-23T08:40:27.999Z</time></trkpt><trkpt lat="46.398719934771975" lon="12.358567883558925"><ele>540.0</ele><time>2026-04-23T08:40:28.999Z</time></trkpt><trkpt lat="46.3986248061408" lon="12.358383925947638"><ele>540.0</ele><time>2026-04-23T08:40:29.999Z</time></trkpt><trkpt lat="46.39852265455135" lon="12.358201934446534"><ele>540.0</ele><time>2026-04-23T08:40:30.999Z</time></trkpt><trkpt lat="46.39841596855644" lon="12.358011286217012"><ele>540.0</ele><time>2026-04-23T08:40:31.999Z</time></trkpt><trkpt lat="46.39831205193762" lon="12.357818323407415"><ele>536.6666666666666</ele><time>2026-04-23T08:40:32.999Z</time></trkpt><trkpt lat="46.39821190019383" lon="12.357613083190392"><ele>533.3333333333333</ele><time>2026-04-23T08:40:33.999Z</time></trkpt><trkpt lat="46.39810446362743" lon="12.35742806316854"><ele>530.0</ele><time>2026-04-23T08:40:34.999Z</time></trkpt><trkpt lat="46.39800059458402" lon="12.357234909525447"><ele>529.3333333333333</ele><time>2026-04-23T08:40:35.999Z</time></trkpt><trkpt lat="46.39789391616487" lon="12.357044082403723"><ele>528.6666666666666</ele><time>2026-04-23T08:40:36.999Z</time></trkpt><trkpt lat="46.397793359530304" lon="12.3568550353951"><ele>528.0</ele><time>2026-04-23T08:40:37.999Z</time></trkpt><trkpt lat="46.39769542651074" lon="12.356665590375012"><ele>528.0</ele><time>2026-04-23T08:40:38.999Z</time></trkpt><trkpt lat="46.39760180360229" lon="12.356483601157437"><ele>528.0</ele><time>2026-04-23T08:40:39.999Z</time></trkpt><trkpt lat="46.397509086425444" lon="12.356313280282718"><ele>528.0</ele><time>2026-04-23T08:40:40.999Z</time></trkpt><trkpt lat="46.39742441645598" lon="12.3561524761579"><ele>528.0</ele><time>2026-04-23T08:40:41.999Z</time></trkpt><trkpt lat="46.397347964563565" lon="12.355992817216224"><ele>528.8</ele><time>2026-04-23T08:40:42.999Z</time></trkpt><trkpt lat="46.39727469772076" lon="12.355844778838852"><ele>529.5999999999999</ele><time>2026-04-23T08:40:43.999Z</time></trkpt><trkpt lat="46.39720187489246" lon="12.35571540650566"><ele>530.4000000000001</ele><time>2026-04-23T08:40:44.999Z</time></trkpt><trkpt lat="46.39713046004788" lon="12.355617876099489"><ele>531.2</ele><time>2026-04-23T08:40:45.999Z</time></trkpt><trkpt lat="46.39705332268898" lon="12.355552032233048"><ele>532.0</ele><time>2026-04-23T08:40:46.999Z</time></trkpt><trkpt lat="46.396976430172444" lon="12.355496615280014"><ele>532.25</ele><time>2026-04-23T08:40:47.999Z</time></trkpt><trkpt lat="46.39687945720303" lon="12.355545227999599"><ele>532.5</ele><time>2026-04-23T08:40:48.999Z</time></trkpt><trkpt lat="46.396779077339055" lon="12.355607380193067"><ele>532.75</ele><time>2026-04-23T08:40:49.999Z</time></trkpt><trkpt lat="46.396665155127465" lon="12.355658233381252"><ele>533.0</ele><time>2026-04-23T08:40:50.999Z</time></trkpt><trkpt lat="46.39655007427682" lon="12.355733559050625"><ele>533.0</ele><time>2026-04-23T08:40:51.999Z</time></trkpt><trkpt lat="46.39643337686502" lon="12.3558056770602"><ele>533.0</ele><time>2026-04-23T08:40:52.999Z</time></trkpt><trkpt lat="46.396309881865534" lon="12.355896250579097"><ele>533.0</ele><time>2026-04-23T08:40:53.999Z</time></trkpt><trkpt lat="46.39617334983555" lon="12.355981878501073"><ele>533.0</ele><time>2026-04-23T08:40:54.999Z</time></trkpt><trkpt lat="46.39603187417217" lon="12.356022449158795"><ele>534.0</ele><time>2026-04-23T08:40:55.999Z</time></trkpt><trkpt lat="46.39588447751071" lon="12.35613533944771"><ele>535.0</ele><time>2026-04-23T08:40:56.999Z</time></trkpt><trkpt lat="46.395750540297776" lon="12.356240286967928"><ele>536.0</ele><time>2026-04-23T08:40:57.999Z</time></trkpt><trkpt lat="46.395617862590974" lon="12.356339218848046"><ele>534.25</ele><time>2026-04-23T08:40:58.999Z</time></trkpt><trkpt lat="46.395490539140305" lon="12.35644017369786"><ele>532.5</ele><time>2026-04-23T08:40:59.999Z</time></trkpt><trkpt lat="46.39537076842826" lon="12.356523447858944"><ele>530.75</ele><time>2026-04-23T08:41:00.998Z</time></trkpt><trkpt lat="46.39525340215947" lon="12.356581597617474"><ele>529.0</ele><time>2026-04-23T08:41:01.998Z</time></trkpt><trkpt lat="46.3951220449363" lon="12.356607639337177"><ele>529.0</ele><time>2026-04-23T08:41:02.998Z</time></trkpt><trkpt lat="46.394985337426604" lon="12.356584544460404"><ele>529.0</ele><time>2026-04-23T08:41:03.998Z</time></trkpt><trkpt lat="46.39484677755499" lon="12.356548962646729"><ele>529.0</ele><time>2026-04-23T08:41:04.998Z</time></trkpt><trkpt lat="46.394708673111914" lon="12.356481566113446"><ele>529.0</ele><time>2026-04-23T08:41:05.998Z</time></trkpt><trkpt lat="46.3945875900013" lon="12.35635371483684"><ele>536.3333333333334</ele><time>2026-04-23T08:41:06.998Z</time></trkpt><trkpt lat="46.39444945450907" lon="12.356263047681015"><ele>543.6666666666666</ele><time>2026-04-23T08:41:07.998Z</time></trkpt><trkpt lat="46.3943045812705" lon="12.35619581988032"><ele>551.0</ele><time>2026-04-23T08:41:08.998Z</time></trkpt><trkpt lat="46.394146634714794" lon="12.35616113878463"><ele>551.0</ele><time>2026-04-23T08:41:09.998Z</time></trkpt><trkpt lat="46.393984054902454" lon="12.356110589309832"><ele>551.0</ele><time>2026-04-23T08:41:11Z</time></trkpt><trkpt lat="46.39381648315281" lon="12.356064009467962"><ele>551.0</ele><time>2026-04-23T08:41:12Z</time></trkpt><trkpt lat="46.39364437885102" lon="12.356019418632076"><ele>548.0</ele><time>2026-04-23T08:41:13Z</time></trkpt><trkpt lat="46.39347286305118" lon="12.355981866296831"><ele>545.0</ele><time>2026-04-23T08:41:14Z</time></trkpt><trkpt lat="46.39330075025171" lon="12.355943498033158"><ele>542.0</ele><time>2026-04-23T08:41:15Z</time></trkpt><trkpt lat="46.3931245558935" lon="12.355912391760006"><ele>538.3333333333333</ele><time>2026-04-23T08:41:16Z</time></trkpt><trkpt lat="46.3929484046399" lon="12.355874089087205"><ele>534.6666666666666</ele><time>2026-04-23T08:41:17Z</time></trkpt><trkpt lat="46.39277698393457" lon="12.355839317620063"><ele>531.0</ele><time>2026-04-23T08:41:18Z</time></trkpt><trkpt lat="46.39260807692121" lon="12.355800615473392"><ele>531.0</ele><time>2026-04-23T08:41:19Z</time></trkpt><trkpt lat="46.39246964172978" lon="12.355732771811274"><ele>531.0</ele><time>2026-04-23T08:41:20Z</time></trkpt><trkpt lat="46.39234335239273" lon="12.355669559628218"><ele>531.0</ele><time>2026-04-23T08:41:21Z</time></trkpt><trkpt lat="46.39220955069395" lon="12.35559602059122"><ele>531.0</ele><time>2026-04-23T08:41:22Z</time></trkpt><trkpt lat="46.39206096164982" lon="12.355532745244682"><ele>541.0</ele><time>2026-04-23T08:41:23Z</time></trkpt><trkpt lat="46.391906264896086" lon="12.355447574129832"><ele>551.0</ele><time>2026-04-23T08:41:24Z</time></trkpt><trkpt lat="46.391744113653566" lon="12.355374227368072"><ele>561.0</ele><time>2026-04-23T08:41:25Z</time></trkpt><trkpt lat="46.39157896702047" lon="12.355286742305397"><ele>561.0</ele><time>2026-04-23T08:41:26Z</time></trkpt><trkpt lat="46.391413454672474" lon="12.35519485998185"><ele>561.0</ele><time>2026-04-23T08:41:27Z</time></trkpt><trkpt lat="46.39124384214102" lon="12.355105207185973"><ele>561.0</ele><time>2026-04-23T08:41:28Z</time></trkpt><trkpt lat="46.39107967356558" lon="12.355016896308602"><ele>554.6666666666666</ele><time>2026-04-23T08:41:29Z</time></trkpt><trkpt lat="46.39091328317408" lon="12.35493826829957"><ele>548.3333333333333</ele><time>2026-04-23T08:41:30Z</time></trkpt><trkpt lat="46.39074522634164" lon="12.354867101103984"><ele>542.0</ele><time>2026-04-23T08:41:31Z</time></trkpt><trkpt lat="46.390576447539885" lon="12.354800244503911"><ele>537.3333333333333</ele><time>2026-04-23T08:41:32Z</time></trkpt><trkpt lat="46.39040660370254" lon="12.354740746926652"><ele>532.6666666666666</ele><time>2026-04-23T08:41:33Z</time></trkpt><trkpt lat="46.390237918739146" lon="12.354680085311756"><ele>528.0</ele><time>2026-04-23T08:41:34Z</time></trkpt><trkpt lat="46.39007582273118" lon="12.354618410491488"><ele>537.0</ele><time>2026-04-23T08:41:35Z</time></trkpt><trkpt lat="46.38991204155592" lon="12.354561726675984"><ele>546.0</ele><time>2026-04-23T08:41:36Z</time></trkpt><trkpt lat="46.38974804459295" lon="12.354513030279891"><ele>555.0</ele><time>2026-04-23T08:41:37Z</time></trkpt><trkpt lat="46.38958265549556" lon="12.354462874606188"><ele>555.0</ele><time>2026-04-23T08:41:38Z</time></trkpt><trkpt lat="46.38941644343969" lon="12.35441593765562"><ele>555.0</ele><time>2026-04-23T08:41:39Z</time></trkpt><trkpt lat="46.389249294733936" lon="12.354379894524115"><ele>555.0</ele><time>2026-04-23T08:41:40Z</time></trkpt><trkpt lat="46.3890780837021" lon="12.354352471228475"><ele>555.0</ele><time>2026-04-23T08:41:41Z</time></trkpt><trkpt lat="46.388902986709" lon="12.354324351232716"><ele>555.0</ele><time>2026-04-23T08:41:42Z</time></trkpt><trkpt lat="46.38873092456185" lon="12.354296997545479"><ele>555.0</ele><time>2026-04-23T08:41:43Z</time></trkpt><trkpt lat="46.38855675312596" lon="12.354262906644443"><ele>551.6666666666666</ele><time>2026-04-23T08:41:44Z</time></trkpt><trkpt lat="46.38838271304527" lon="12.354226540911261"><ele>548.3333333333333</ele><time>2026-04-23T08:41:45Z</time></trkpt><trkpt lat="46.388208373131015" lon="12.35418812665961"><ele>545.0</ele><time>2026-04-23T08:41:46Z</time></trkpt><trkpt lat="46.38804264724249" lon="12.354101801101644"><ele>548.0</ele><time>2026-04-23T08:41:47Z</time></trkpt><trkpt lat="46.38787495161926" lon="12.354006268664225"><ele>551.0</ele><time>2026-04-23T08:41:48Z</time></trkpt><trkpt lat="46.387705951268195" lon="12.353931025548146"><ele>554.0</ele><time>2026-04-23T08:41:49Z</time></trkpt><trkpt lat="46.387543767258904" lon="12.35382574553264"><ele>554.0</ele><time>2026-04-23T08:41:50Z</time></trkpt><trkpt lat="46.387379982868126" lon="12.353725682973291"><ele>554.0</ele><time>2026-04-23T08:41:51Z</time></trkpt><trkpt lat="46.38721392451004" lon="12.353632072498055"><ele>554.0</ele><time>2026-04-23T08:41:52Z</time></trkpt><trkpt lat="46.38704265503318" lon="12.35356020505699"><ele>552.0</ele><time>2026-04-23T08:41:53Z</time></trkpt><trkpt lat="46.386868843027116" lon="12.353501536494178"><ele>550.0</ele><time>2026-04-23T08:41:54Z</time></trkpt><trkpt lat="46.38669238189537" lon="12.353445019512261"><ele>548.0</ele><time>2026-04-23T08:41:55Z</time></trkpt><trkpt lat="46.3865120426767" lon="12.353395469113469"><ele>546.3333333333333</ele><time>2026-04-23T08:41:56Z</time></trkpt><trkpt lat="46.386331501197034" lon="12.353341779450895"><ele>544.6666666666666</ele><time>2026-04-23T08:41:57Z</time></trkpt><trkpt lat="46.38615160723526" lon="12.353285529667971"><ele>543.0</ele><time>2026-04-23T08:41:58Z</time></trkpt><trkpt lat="46.38597141547344" lon="12.353222426470616"><ele>543.0</ele><time>2026-04-23T08:41:59Z</time></trkpt><trkpt lat="46.385790849866794" lon="12.353167206068132"><ele>543.0</ele><time>2026-04-23T08:42:00Z</time></trkpt><trkpt lat="46.38560815457717" lon="12.353107463374027"><ele>543.0</ele><time>2026-04-23T08:42:01Z</time></trkpt><trkpt lat="46.3854266113429" lon="12.353051740697977"><ele>547.3333333333334</ele><time>2026-04-23T08:42:01.999Z</time></trkpt><trkpt lat="46.38524342627549" lon="12.35299807258562"><ele>551.6666666666667</ele><time>2026-04-23T08:42:02.999Z</time></trkpt><trkpt lat="46.38506207657312" lon="12.352939638713638"><ele>556.0</ele><time>2026-04-23T08:42:03.999Z</time></trkpt><trkpt lat="46.38488242331901" lon="12.352874284059864"><ele>556.0</ele><time>2026-04-23T08:42:04.999Z</time></trkpt><trkpt lat="46.38470666259127" lon="12.352801724875624"><ele>556.0</ele><time>2026-04-23T08:42:05.999Z</time></trkpt><trkpt lat="46.38455094126739" lon="12.35270653047385"><ele>556.0</ele><time>2026-04-23T08:42:06.999Z</time></trkpt><trkpt lat="46.38442334590402" lon="12.352577284772261"><ele>553.75</ele><time>2026-04-23T08:42:07.999Z</time></trkpt><trkpt lat="46.38431369736904" lon="12.352444314544506"><ele>551.5</ele><time>2026-04-23T08:42:08.999Z</time></trkpt><trkpt lat="46.38422680456953" lon="12.352314977268035"><ele>549.25</ele><time>2026-04-23T08:42:09.999Z</time></trkpt><trkpt lat="46.38415663538278" lon="12.352187227668585"><ele>547.0</ele><time>2026-04-23T08:42:10.999Z</time></trkpt><trkpt lat="46.38410258283609" lon="12.352061864958841"><ele>553.6</ele><time>2026-04-23T08:42:11.999Z</time></trkpt><trkpt lat="46.38404436755763" lon="12.351945758613072"><ele>560.2</ele><time>2026-04-23T08:42:12.999Z</time></trkpt><trkpt lat="46.383970246798675" lon="12.351866010812955"><ele>566.8</ele><time>2026-04-23T08:42:13.999Z</time></trkpt><trkpt lat="46.383875030761416" lon="12.351823514272603"><ele>573.4</ele><time>2026-04-23T08:42:14.999Z</time></trkpt><trkpt lat="46.383767056917065" lon="12.351826725604775"><ele>580.0</ele><time>2026-04-23T08:42:15.999Z</time></trkpt><trkpt lat="46.3836562970391" lon="12.351878358004369"><ele>581.25</ele><time>2026-04-23T08:42:16.999Z</time></trkpt><trkpt lat="46.38354295051224" lon="12.351963787624461"><ele>582.5</ele><time>2026-04-23T08:42:17.999Z</time></trkpt><trkpt lat="46.383425814835356" lon="12.352044486827282"><ele>583.75</ele><time>2026-04-23T08:42:18.999Z</time></trkpt><trkpt lat="46.3832989323179" lon="12.352086218046155"><ele>585.0</ele><time>2026-04-23T08:42:19.999Z</time></trkpt><trkpt lat="46.383162670904916" lon="12.35206537027676"><ele>585.0</ele><time>2026-04-23T08:42:20.999Z</time></trkpt><trkpt lat="46.383020665739906" lon="12.352075358492554"><ele>585.0</ele><time>2026-04-23T08:42:21.999Z</time></trkpt><trkpt lat="46.38287587832344" lon="12.352056676184702"><ele>585.0</ele><time>2026-04-23T08:42:22.999Z</time></trkpt><trkpt lat="46.382723493528836" lon="12.352053390840016"><ele>585.0</ele><time>2026-04-23T08:42:23.999Z</time></trkpt><trkpt lat="46.38256523127108" lon="12.352050783691322"><ele>582.6666666666666</ele><time>2026-04-23T08:42:24.999Z</time></trkpt><trkpt lat="46.38240412892073" lon="12.352048083385975"><ele>580.3333333333333</ele><time>2026-04-23T08:42:25.999Z</time></trkpt><trkpt lat="46.38223873490338" lon="12.352036056156427"><ele>578.0</ele><time>2026-04-23T08:42:26.999Z</time></trkpt><trkpt lat="46.382084383844465" lon="12.351957822938923"><ele>578.0</ele><time>2026-04-23T08:42:27.999Z</time></trkpt><trkpt lat="46.38192226616497" lon="12.35187897612964"><ele>578.0</ele><time>2026-04-23T08:42:28.999Z</time></trkpt><trkpt lat="46.38175536128119" lon="12.351836610008933"><ele>578.0</ele><time>2026-04-23T08:42:29.999Z</time></trkpt><trkpt lat="46.38158402505636" lon="12.351817257821669"><ele>578.0</ele><time>2026-04-23T08:42:30.999Z</time></trkpt><trkpt lat="46.38140479200839" lon="12.35183057143498"><ele>578.0</ele><time>2026-04-23T08:42:31.999Z</time></trkpt><trkpt lat="46.381222288960906" lon="12.351848294753669"><ele>578.0</ele><time>2026-04-23T08:42:32.999Z</time></trkpt><trkpt lat="46.38103980305318" lon="12.35186073143649"><ele>578.6666666666666</ele><time>2026-04-23T08:42:33.999Z</time></trkpt><trkpt lat="46.380854304957516" lon="12.351889959353866"><ele>579.3333333333334</ele><time>2026-04-23T08:42:34.999Z</time></trkpt><trkpt lat="46.38067038515473" lon="12.351948401581968"><ele>580.0</ele><time>2026-04-23T08:42:35.999Z</time></trkpt><trkpt lat="46.38048472352329" lon="12.352036232369583"><ele>585.0</ele><time>2026-04-23T08:42:36.999Z</time></trkpt><trkpt lat="46.38029985000062" lon="12.352124731573193"><ele>590.0</ele><time>2026-04-23T08:42:37.999Z</time></trkpt><trkpt lat="46.38011167752377" lon="12.352205014487776"><ele>595.0</ele><time>2026-04-23T08:42:38.999Z</time></trkpt><trkpt lat="46.37992251531947" lon="12.352279863088183"><ele>583.6666666666667</ele><time>2026-04-23T08:42:39.999Z</time></trkpt><trkpt lat="46.37973781643396" lon="12.35235915802806"><ele>572.3333333333334</ele><time>2026-04-23T08:42:40.999Z</time></trkpt><trkpt lat="46.379559788663265" lon="12.352437825296489"><ele>561.0</ele><time>2026-04-23T08:42:41.999Z</time></trkpt><trkpt lat="46.37938981082381" lon="12.352504140850103"><ele>561.0</ele><time>2026-04-23T08:42:42.999Z</time></trkpt><trkpt lat="46.379223486270824" lon="12.35254959964926"><ele>561.0</ele><time>2026-04-23T08:42:43.999Z</time></trkpt><trkpt lat="46.3790710431549" lon="12.35256625748896"><ele>561.0</ele><time>2026-04-23T08:42:44.999Z</time></trkpt><trkpt lat="46.37893135368236" lon="12.352578669231017"><ele>572.5</ele><time>2026-04-23T08:42:45.999Z</time></trkpt><trkpt lat="46.378802839868214" lon="12.352619616400078"><ele>584.0</ele><time>2026-04-23T08:42:46.999Z</time></trkpt><trkpt lat="46.378698995258674" lon="12.352708607572273"><ele>595.5</ele><time>2026-04-23T08:42:47.999Z</time></trkpt><trkpt lat="46.37859752452695" lon="12.352850164497994"><ele>607.0</ele><time>2026-04-23T08:42:48.999Z</time></trkpt><trkpt lat="46.378525800522915" lon="12.35303042519146"><ele>592.6666666666667</ele><time>2026-04-23T08:42:49.999Z</time></trkpt><trkpt lat="46.37845516726532" lon="12.353234343888907"><ele>578.3333333333334</ele><time>2026-04-23T08:42:50.999Z</time></trkpt><trkpt lat="46.378345336379255" lon="12.353411308017403"><ele>564.0</ele><time>2026-04-23T08:42:51.999Z</time></trkpt><trkpt lat="46.37822081995956" lon="12.353574577673093"><ele>564.0</ele><time>2026-04-23T08:42:52.999Z</time></trkpt><trkpt lat="46.3780757041488" lon="12.353719816371019"><ele>564.0</ele><time>2026-04-23T08:42:53.999Z</time></trkpt><trkpt lat="46.377927744118956" lon="12.353863125026411"><ele>564.0</ele><time>2026-04-23T08:42:54.999Z</time></trkpt><trkpt lat="46.37777845064006" lon="12.353997869862058"><ele>562.6666666666666</ele><time>2026-04-23T08:42:55.999Z</time></trkpt><trkpt lat="46.37761540378621" lon="12.354094082818204"><ele>561.3333333333333</ele><time>2026-04-23T08:42:56.999Z</time></trkpt><trkpt lat="46.377442440583785" lon="12.354193188009567"><ele>560.0</ele><time>2026-04-23T08:42:57.999Z</time></trkpt><trkpt lat="46.37725688725" lon="12.354259019807783"><ele>565.0</ele><time>2026-04-23T08:42:58.999Z</time></trkpt><trkpt lat="46.37707029205186" lon="12.35433501957174"><ele>570.0</ele><time>2026-04-23T08:42:59.999Z</time></trkpt><trkpt lat="46.376887204892604" lon="12.354418444304217"><ele>575.0</ele><time>2026-04-23T08:43:00.999Z</time></trkpt><trkpt lat="46.37671280959277" lon="12.354503908964412"><ele>575.0</ele><time>2026-04-23T08:43:01.999Z</time></trkpt><trkpt lat="46.37654867192544" lon="12.354573667630357"><ele>575.0</ele><time>2026-04-23T08:43:02.999Z</time></trkpt><trkpt lat="46.376405141174786" lon="12.35463508752757"><ele>575.0</ele><time>2026-04-23T08:43:03.999Z</time></trkpt><trkpt lat="46.3762742199865" lon="12.354680890276969"><ele>574.5</ele><time>2026-04-23T08:43:04.999Z</time></trkpt><trkpt lat="46.37615203790253" lon="12.35469695942197"><ele>574.0</ele><time>2026-04-23T08:43:05.999Z</time></trkpt><trkpt lat="46.376037229687924" lon="12.354620952499241"><ele>573.5</ele><time>2026-04-23T08:43:06.999Z</time></trkpt><trkpt lat="46.37590132788972" lon="12.35454206303001"><ele>573.0</ele><time>2026-04-23T08:43:07.998Z</time></trkpt><trkpt lat="46.375758861383964" lon="12.354419434367149"><ele>573.0</ele><time>2026-04-23T08:43:08.998Z</time></trkpt><trkpt lat="46.375600890660365" lon="12.354310966768136"><ele>573.0</ele><time>2026-04-23T08:43:09.998Z</time></trkpt><trkpt lat="46.375428576158946" lon="12.354216114358112"><ele>573.0</ele><time>2026-04-23T08:43:10.998Z</time></trkpt><trkpt lat="46.37524200969865" lon="12.354143611647046"><ele>566.0</ele><time>2026-04-23T08:43:11.998Z</time></trkpt><trkpt lat="46.37504496681816" lon="12.354084896251553"><ele>559.0</ele><time>2026-04-23T08:43:12.998Z</time></trkpt><trkpt lat="46.37484490368392" lon="12.35403743344218"><ele>552.0</ele><time>2026-04-23T08:43:13.998Z</time></trkpt><trkpt lat="46.374643609224826" lon="12.354004151354838"><ele>551.3333333333334</ele><time>2026-04-23T08:43:14.998Z</time></trkpt><trkpt lat="46.374444251589566" lon="12.354001376945334"><ele>550.6666666666667</ele><time>2026-04-23T08:43:15.998Z</time></trkpt><trkpt lat="46.374245156785136" lon="12.354025364931173"><ele>550.0</ele><time>2026-04-23T08:43:17Z</time></trkpt><trkpt lat="46.37404968087794" lon="12.354072402163363"><ele>553.6666666666667</ele><time>2026-04-23T08:43:18Z</time></trkpt><trkpt lat="46.37385510955824" lon="12.354138622656393"><ele>557.3333333333334</ele><time>2026-04-23T08:43:19Z</time></trkpt><trkpt lat="46.37366306968704" lon="12.354220385510857"><ele>561.0</ele><time>2026-04-23T08:43:20Z</time></trkpt><trkpt lat="46.373472627418536" lon="12.354298155990271"><ele>561.0</ele><time>2026-04-23T08:43:21Z</time></trkpt><trkpt lat="46.37328612593923" lon="12.354371751200492"><ele>561.0</ele><time>2026-04-23T08:43:22Z</time></trkpt><trkpt lat="46.373101408768306" lon="12.354448389570441"><ele>561.0</ele><time>2026-04-23T08:43:23Z</time></trkpt><trkpt lat="46.37291810198949" lon="12.354521939631677"><ele>564.6666666666666</ele><time>2026-04-23T08:43:24Z</time></trkpt><trkpt lat="46.37274114698005" lon="12.354591960973803"><ele>568.3333333333333</ele><time>2026-04-23T08:43:25Z</time></trkpt><trkpt lat="46.37257140691243" lon="12.35466133501576"><ele>572.0</ele><time>2026-04-23T08:43:26Z</time></trkpt><trkpt lat="46.372409253058414" lon="12.354725981748022"><ele>559.0</ele><time>2026-04-23T08:43:27Z</time></trkpt><trkpt lat="46.37225117373386" lon="12.354790400832949"><ele>546.0</ele><time>2026-04-23T08:43:28Z</time></trkpt><trkpt lat="46.37209625179791" lon="12.354846215110962"><ele>533.0</ele><time>2026-04-23T08:43:29Z</time></trkpt><trkpt lat="46.37194913528952" lon="12.35489772411002"><ele>533.0</ele><time>2026-04-23T08:43:30Z</time></trkpt><trkpt lat="46.37180538730799" lon="12.354917987742041"><ele>533.0</ele><time>2026-04-23T08:43:31Z</time></trkpt><trkpt lat="46.37164623694872" lon="12.354920752236856"><ele>533.0</ele><time>2026-04-23T08:43:32Z</time></trkpt><trkpt lat="46.371476793376296" lon="12.354929930544307"><ele>532.0</ele><time>2026-04-23T08:43:33Z</time></trkpt><trkpt lat="46.37130076525608" lon="12.354967126905894"><ele>531.0</ele><time>2026-04-23T08:43:34Z</time></trkpt><trkpt lat="46.37113346281502" lon="12.355027203213787"><ele>530.0</ele><time>2026-04-23T08:43:35Z</time></trkpt><trkpt lat="46.3709702500577" lon="12.35507152583953"><ele>530.0</ele><time>2026-04-23T08:43:36Z</time></trkpt><trkpt lat="46.370816386152555" lon="12.35502054392793"><ele>530.0</ele><time>2026-04-23T08:43:37Z</time></trkpt><trkpt lat="46.37064944430256" lon="12.35497624835525"><ele>530.0</ele><time>2026-04-23T08:43:38Z</time></trkpt><trkpt lat="46.3704699829897" lon="12.354864348643904"><ele>526.3333333333333</ele><time>2026-04-23T08:43:39Z</time></trkpt><trkpt lat="46.370306453843" lon="12.354757227382212"><ele>522.6666666666666</ele><time>2026-04-23T08:43:40Z</time></trkpt><trkpt lat="46.37014834444085" lon="12.354633662967544"><ele>519.0</ele><time>2026-04-23T08:43:41Z</time></trkpt><trkpt lat="46.36999327874723" lon="12.354521725244505"><ele>526.0</ele><time>2026-04-23T08:43:42Z</time></trkpt><trkpt lat="46.369840172869715" lon="12.354432418070287"><ele>533.0</ele><time>2026-04-23T08:43:43Z</time></trkpt><trkpt lat="46.36967732271597" lon="12.354360619588347"><ele>540.0</ele><time>2026-04-23T08:43:44Z</time></trkpt><trkpt lat="46.369504338126006" lon="12.354322576926062"><ele>540.0</ele><time>2026-04-23T08:43:45Z</time></trkpt><trkpt lat="46.369345656191626" lon="12.35428185135719"><ele>540.0</ele><time>2026-04-23T08:43:46Z</time></trkpt><trkpt lat="46.3691974784624" lon="12.354260064911838"><ele>540.0</ele><time>2026-04-23T08:43:47Z</time></trkpt><trkpt lat="46.369053787248646" lon="12.354268384058289"><ele>540.0</ele><time>2026-04-23T08:43:48Z</time></trkpt><trkpt lat="46.36891511958041" lon="12.354299178568832"><ele>540.0</ele><time>2026-04-23T08:43:49Z</time></trkpt><trkpt lat="46.36879306172227" lon="12.354332406056741"><ele>540.0</ele><time>2026-04-23T08:43:50Z</time></trkpt><trkpt lat="46.36868368666852" lon="12.354327194776715"><ele>540.0</ele><time>2026-04-23T08:43:51Z</time></trkpt><trkpt lat="46.3685757452359" lon="12.354261368391379"><ele>538.25</ele><time>2026-04-23T08:43:52Z</time></trkpt><trkpt lat="46.36848256094665" lon="12.354136168103809"><ele>536.5</ele><time>2026-04-23T08:43:53Z</time></trkpt><trkpt lat="46.36841235997641" lon="12.353963970839953"><ele>534.75</ele><time>2026-04-23T08:43:54Z</time></trkpt><trkpt lat="46.368347121227984" lon="12.353762124154743"><ele>533.0</ele><time>2026-04-23T08:43:55Z</time></trkpt><trkpt lat="46.368263322874895" lon="12.35355982744646"><ele>530.3333333333333</ele><time>2026-04-23T08:43:56Z</time></trkpt><trkpt lat="46.36815687023013" lon="12.353375327983903"><ele>527.6666666666666</ele><time>2026-04-23T08:43:57Z</time></trkpt><trkpt lat="46.3680235281968" lon="12.353201331010467"><ele>525.0</ele><time>2026-04-23T08:43:58Z</time></trkpt><trkpt lat="46.3678752699791" lon="12.353034064119374"><ele>532.0</ele><time>2026-04-23T08:43:59Z</time></trkpt><trkpt lat="46.36772439020295" lon="12.35286366508147"><ele>539.0</ele><time>2026-04-23T08:44:00Z</time></trkpt><trkpt lat="46.36757022835073" lon="12.352690103385049"><ele>546.0</ele><time>2026-04-23T08:44:01Z</time></trkpt><trkpt lat="46.36740791596844" lon="12.35253045298879"><ele>546.0</ele><time>2026-04-23T08:44:02Z</time></trkpt><trkpt lat="46.36723546169782" lon="12.352383636635373"><ele>546.0</ele><time>2026-04-23T08:44:03Z</time></trkpt><trkpt lat="46.36705808898252" lon="12.352241032653394"><ele>546.0</ele><time>2026-04-23T08:44:04Z</time></trkpt><trkpt lat="46.366879422479066" lon="12.352095571326252"><ele>546.0</ele><time>2026-04-23T08:44:05Z</time></trkpt><trkpt lat="46.366702143620415" lon="12.351948820905797"><ele>546.0</ele><time>2026-04-23T08:44:06Z</time></trkpt><trkpt lat="46.36652222049212" lon="12.351803824325442"><ele>546.0</ele><time>2026-04-23T08:44:06.999Z</time></trkpt><trkpt lat="46.3663421721913" lon="12.351657062035734"><ele>545.6666666666666</ele><time>2026-04-23T08:44:07.999Z</time></trkpt><trkpt lat="46.36616494124253" lon="12.351502047899263"><ele>545.3333333333333</ele><time>2026-04-23T08:44:08.999Z</time></trkpt><trkpt lat="46.365994673211596" lon="12.351332765799935"><ele>545.0</ele><time>2026-04-23T08:44:09.999Z</time></trkpt><trkpt lat="46.365832783629294" lon="12.351149302971503"><ele>545.0</ele><time>2026-04-23T08:44:10.999Z</time></trkpt><trkpt lat="46.36567488779665" lon="12.350959965627476"><ele>545.0</ele><time>2026-04-23T08:44:11.999Z</time></trkpt><trkpt lat="46.36551531522732" lon="12.350772506738181"><ele>545.0</ele><time>2026-04-23T08:44:12.999Z</time></trkpt><trkpt lat="46.36535862127045" lon="12.350589343445483"><ele>540.0</ele><time>2026-04-23T08:44:13.999Z</time></trkpt><trkpt lat="46.36521942331986" lon="12.350409872634646"><ele>535.0</ele><time>2026-04-23T08:44:14.999Z</time></trkpt><trkpt lat="46.36510267816868" lon="12.35022516541946"><ele>530.0</ele><time>2026-04-23T08:44:15.999Z</time></trkpt><trkpt lat="46.36500299331063" lon="12.350037891952296"><ele>530.0</ele><time>2026-04-23T08:44:16.999Z</time></trkpt><trkpt lat="46.36491997627299" lon="12.349852953115253"><ele>530.0</ele><time>2026-04-23T08:44:17.999Z</time></trkpt><trkpt lat="46.36486258481913" lon="12.34963993980151"><ele>530.0</ele><time>2026-04-23T08:44:18.999Z</time></trkpt><trkpt lat="46.36483615469104" lon="12.349403772663244"><ele>538.3333333333333</ele><time>2026-04-23T08:44:19.999Z</time></trkpt><trkpt lat="46.36482284223961" lon="12.349175593014909"><ele>546.6666666666666</ele><time>2026-04-23T08:44:20.999Z</time></trkpt><trkpt lat="46.36479250258033" lon="12.348959719258584"><ele>555.0</ele><time>2026-04-23T08:44:21.999Z</time></trkpt><trkpt lat="46.364719252835464" lon="12.348743643587552"><ele>542.6666666666666</ele><time>2026-04-23T08:44:22.999Z</time></trkpt><trkpt lat="46.36460451095699" lon="12.348546287419659"><ele>530.3333333333333</ele><time>2026-04-23T08:44:23.999Z</time></trkpt><trkpt lat="46.364508536652316" lon="12.348315026526983"><ele>518.0</ele><time>2026-04-23T08:44:24.999Z</time></trkpt><trkpt lat="46.36439787027356" lon="12.348085379377714"><ele>523.6666666666666</ele><time>2026-04-23T08:44:25.999Z</time></trkpt><trkpt lat="46.3642762608995" lon="12.347861832565636"><ele>529.3333333333334</ele><time>2026-04-23T08:44:26.999Z</time></trkpt><trkpt lat="46.36419537421993" lon="12.34759546648559"><ele>535.0</ele><time>2026-04-23T08:44:27.999Z</time></trkpt><trkpt lat="46.36411070198099" lon="12.347322364912978"><ele>540.0</ele><time>2026-04-23T08:44:28.999Z</time></trkpt><trkpt lat="46.36401235062961" lon="12.34705436646628"><ele>545.0</ele><time>2026-04-23T08:44:29.999Z</time></trkpt><trkpt lat="46.36390779692647" lon="12.34679325104613"><ele>550.0</ele><time>2026-04-23T08:44:30.999Z</time></trkpt><trkpt lat="46.36379362933156" lon="12.346542293135485"><ele>544.0</ele><time>2026-04-23T08:44:31.999Z</time></trkpt><trkpt lat="46.36368370063206" lon="12.346302899138182"><ele>538.0</ele><time>2026-04-23T08:44:32.999Z</time></trkpt><trkpt lat="46.36356900582894" lon="12.346085362779984"><ele>532.0</ele><time>2026-04-23T08:44:33.999Z</time></trkpt><trkpt lat="46.36344264372924" lon="12.345899366218095"><ele>532.0</ele><time>2026-04-23T08:44:34.999Z</time></trkpt><trkpt lat="46.36330491303972" lon="12.345747910639735"><ele>532.0</ele><time>2026-04-23T08:44:35.999Z</time></trkpt><trkpt lat="46.36315139757482" lon="12.345639295353303"><ele>532.0</ele><time>2026-04-23T08:44:36.999Z</time></trkpt><trkpt lat="46.362993910632966" lon="12.345586711872205"><ele>529.75</ele><time>2026-04-23T08:44:37.999Z</time></trkpt><trkpt lat="46.36283983648135" lon="12.345590333061084"><ele>527.5</ele><time>2026-04-23T08:44:38.999Z</time></trkpt><trkpt lat="46.36270575773046" lon="12.345597142802823"><ele>525.25</ele><time>2026-04-23T08:44:39.999Z</time></trkpt><trkpt lat="46.36258817598525" lon="12.345555381809906"><ele>523.0</ele><time>2026-04-23T08:44:40.999Z</time></trkpt><trkpt lat="46.36248163228588" lon="12.345443493619085"><ele>523.0</ele><time>2026-04-23T08:44:41.999Z</time></trkpt><trkpt lat="46.36241768166691" lon="12.34525315506387"><ele>523.0</ele><time>2026-04-23T08:44:42.999Z</time></trkpt><trkpt lat="46.36234916368636" lon="12.345057233326346"><ele>523.0</ele><time>2026-04-23T08:44:43.999Z</time></trkpt><trkpt lat="46.362299314427645" lon="12.344838868994591"><ele>519.0</ele><time>2026-04-23T08:44:44.999Z</time></trkpt><trkpt lat="46.36223404172708" lon="12.344611109742674"><ele>515.0</ele><time>2026-04-23T08:44:45.999Z</time></trkpt><trkpt lat="46.362161095311386" lon="12.344377416317244"><ele>511.0</ele><time>2026-04-23T08:44:46.999Z</time></trkpt><trkpt lat="46.36207229536732" lon="12.344149379393064"><ele>511.0</ele><time>2026-04-23T08:44:47.999Z</time></trkpt><trkpt lat="46.36193520480294" lon="12.343971317801184"><ele>511.0</ele><time>2026-04-23T08:44:48.999Z</time></trkpt><trkpt lat="46.36177949196726" lon="12.343746129878669"><ele>511.0</ele><time>2026-04-23T08:44:49.999Z</time></trkpt><trkpt lat="46.361630237908045" lon="12.343546030404017"><ele>510.33333333333337</ele><time>2026-04-23T08:44:50.999Z</time></trkpt><trkpt lat="46.36148624074083" lon="12.343339568598234"><ele>509.66666666666663</ele><time>2026-04-23T08:44:51.999Z</time></trkpt><trkpt lat="46.36134289930514" lon="12.343127817485797"><ele>509.0</ele><time>2026-04-23T08:44:52.999Z</time></trkpt><trkpt lat="46.36120319860823" lon="12.34290582266071"><ele>509.0</ele><time>2026-04-23T08:44:53.999Z</time></trkpt><trkpt lat="46.36107694461912" lon="12.342664578433359"><ele>509.0</ele><time>2026-04-23T08:44:54.999Z</time></trkpt><trkpt lat="46.36095404459821" lon="12.342415525527594"><ele>509.0</ele><time>2026-04-23T08:44:55.999Z</time></trkpt><trkpt lat="46.36082655017852" lon="12.342170898987124"><ele>506.3333333333333</ele><time>2026-04-23T08:44:56.999Z</time></trkpt><trkpt lat="46.360694954528206" lon="12.34193207148251"><ele>503.66666666666663</ele><time>2026-04-23T08:44:57.999Z</time></trkpt><trkpt lat="46.36056740670452" lon="12.341689271393278"><ele>501.0</ele><time>2026-04-23T08:44:58.999Z</time></trkpt><trkpt lat="46.360443074717956" lon="12.34144457921603"><ele>505.66666666666663</ele><time>2026-04-23T08:44:59.999Z</time></trkpt><trkpt lat="46.360321571369646" lon="12.341203614965469"><ele>510.3333333333333</ele><time>2026-04-23T08:45:00.999Z</time></trkpt><trkpt lat="46.36020951236492" lon="12.340982897619673"><ele>515.0</ele><time>2026-04-23T08:45:01.999Z</time></trkpt><trkpt lat="46.36010506565288" lon="12.340794142221979"><ele>515.0</ele><time>2026-04-23T08:45:02.999Z</time></trkpt><trkpt lat="46.35998642410193" lon="12.340626286569732"><ele>515.0</ele><time>2026-04-23T08:45:03.999Z</time></trkpt><trkpt lat="46.35984436121654" lon="12.340501057701543"><ele>515.0</ele><time>2026-04-23T08:45:04.999Z</time></trkpt><trkpt lat="46.35969326634413" lon="12.340416561929237"><ele>512.0</ele><time>2026-04-23T08:45:05.999Z</time></trkpt><trkpt lat="46.359549790052114" lon="12.340332580133865"><ele>509.0</ele><time>2026-04-23T08:45:06.999Z</time></trkpt><trkpt lat="46.35941775434775" lon="12.340225587184204"><ele>506.0</ele><time>2026-04-23T08:45:07.999Z</time></trkpt><trkpt lat="46.35929046322928" lon="12.340144277875156"><ele>503.0</ele><time>2026-04-23T08:45:08.999Z</time></trkpt><trkpt lat="46.359170160112825" lon="12.340089558924118"><ele>503.0</ele><time>2026-04-23T08:45:09.999Z</time></trkpt><trkpt lat="46.35906430298557" lon="12.340022191750927"><ele>502.99999999999994</ele><time>2026-04-23T08:45:10.999Z</time></trkpt><trkpt lat="46.35896887475502" lon="12.339962595073986"><ele>502.99999999999994</ele><time>2026-04-23T08:45:11.998Z</time></trkpt><trkpt lat="46.3588838106816" lon="12.339906355083535"><ele>503.0</ele><time>2026-04-23T08:45:12.998Z</time></trkpt><trkpt lat="46.35880418616629" lon="12.339853389741828"><ele>503.0</ele><time>2026-04-23T08:45:13.998Z</time></trkpt><trkpt lat="46.3587267858237" lon="12.339806528447165"><ele>502.79999999999995</ele><time>2026-04-23T08:45:14.998Z</time></trkpt><trkpt lat="46.35865306272643" lon="12.339760429811108"><ele>502.59999999999997</ele><time>2026-04-23T08:45:15.998Z</time></trkpt><trkpt lat="46.35856816698893" lon="12.339684393482596"><ele>502.40000000000003</ele><time>2026-04-23T08:45:16.998Z</time></trkpt><trkpt lat="46.35845908539911" lon="12.339614862216774"><ele>502.20000000000005</ele><time>2026-04-23T08:45:17.998Z</time></trkpt><trkpt lat="46.35833941926642" lon="12.339540844705658"><ele>502.0</ele><time>2026-04-23T08:45:18.998Z</time></trkpt><trkpt lat="46.358205953286486" lon="12.339464384320568"><ele>505.33333333333337</ele><time>2026-04-23T08:45:19.998Z</time></trkpt><trkpt lat="46.35805898715256" lon="12.33939687057189"><ele>508.66666666666663</ele><time>2026-04-23T08:45:20.998Z</time></trkpt><trkpt lat="46.35790682399103" lon="12.339346159425022"><ele>512.0</ele><time>2026-04-23T08:45:22Z</time></trkpt><trkpt lat="46.35775144309338" lon="12.339299306642552"><ele>512.0</ele><time>2026-04-23T08:45:23Z</time></trkpt><trkpt lat="46.35759388995378" lon="12.33925240388843"><ele>512.0</ele><time>2026-04-23T08:45:24Z</time></trkpt><trkpt lat="46.35743096173306" lon="12.339229701407099"><ele>512.0</ele><time>2026-04-23T08:45:25Z</time></trkpt><trkpt lat="46.357270840282254" lon="12.339170713892784"><ele>515.0</ele><time>2026-04-23T08:45:26Z</time></trkpt><trkpt lat="46.3571142482829" lon="12.339078001288863"><ele>518.0</ele><time>2026-04-23T08:45:27Z</time></trkpt><trkpt lat="46.35696227061872" lon="12.338943940430985"><ele>521.0</ele><time>2026-04-23T08:45:28Z</time></trkpt><trkpt lat="46.35681014259051" lon="12.338794197786225"><ele>521.0</ele><time>2026-04-23T08:45:29Z</time></trkpt><trkpt lat="46.35665243268327" lon="12.338649580021327"><ele>521.0</ele><time>2026-04-23T08:45:30Z</time></trkpt><trkpt lat="46.35648352466129" lon="12.338508683278485"><ele>521.0</ele><time>2026-04-23T08:45:31Z</time></trkpt><trkpt lat="46.35629986477045" lon="12.338383442072251"><ele>513.0</ele><time>2026-04-23T08:45:32Z</time></trkpt><trkpt lat="46.35613978166722" lon="12.338276026652249"><ele>505.0</ele><time>2026-04-23T08:45:33Z</time></trkpt><trkpt lat="46.355948701136285" lon="12.338183974595998"><ele>497.0</ele><time>2026-04-23T08:45:34Z</time></trkpt><trkpt lat="46.35576104243779" lon="12.338092377707156"><ele>507.3333333333333</ele><time>2026-04-23T08:45:35Z</time></trkpt><trkpt lat="46.35555996039102" lon="12.338005565198264"><ele>517.6666666666666</ele><time>2026-04-23T08:45:36Z</time></trkpt><trkpt lat="46.355359909311744" lon="12.337929788447802"><ele>528.0</ele><time>2026-04-23T08:45:37Z</time></trkpt><trkpt lat="46.35516794945724" lon="12.337859215449086"><ele>528.0</ele><time>2026-04-23T08:45:38Z</time></trkpt><trkpt lat="46.35498933190998" lon="12.337791309784155"><ele>528.0</ele><time>2026-04-23T08:45:39Z</time></trkpt><trkpt lat="46.35482282406797" lon="12.3377308241069"><ele>528.0</ele><time>2026-04-23T08:45:40Z</time></trkpt><trkpt lat="46.35466278756154" lon="12.337674432718531"><ele>521.75</ele><time>2026-04-23T08:45:41Z</time></trkpt><trkpt lat="46.35451354364114" lon="12.337610551552977"><ele>515.5</ele><time>2026-04-23T08:45:42Z</time></trkpt><trkpt lat="46.35437306005081" lon="12.337535848794934"><ele>509.25</ele><time>2026-04-23T08:45:43Z</time></trkpt><trkpt lat="46.35428145886894" lon="12.337486228016866"><ele>503.0</ele><time>2026-04-23T08:45:44Z</time></trkpt><trkpt lat="46.35421622050939" lon="12.337422340028048"><ele>502.99999999999994</ele><time>2026-04-23T08:45:47Z</time></trkpt><trkpt lat="46.354148883447905" lon="12.33738993307738"><ele>503.0</ele><time>2026-04-23T08:45:49Z</time></trkpt><trkpt lat="46.35407386028155" lon="12.337357981096972"><ele>503.0</ele><time>2026-04-23T08:45:50Z</time></trkpt><trkpt lat="46.353987970641704" lon="12.337302589116616"><ele>503.0</ele><time>2026-04-23T08:45:51Z</time></trkpt><trkpt lat="46.35390484728683" lon="12.337241669601081"><ele>502.99999999999994</ele><time>2026-04-23T08:45:52Z</time></trkpt><trkpt lat="46.35383227361752" lon="12.337192501883667"><ele>503.0</ele><time>2026-04-23T08:45:53Z</time></trkpt><trkpt lat="46.35374641335556" lon="12.337145874919354"><ele>507.79999999999995</ele><time>2026-04-23T08:45:54Z</time></trkpt><trkpt lat="46.35365745734437" lon="12.33708560448355"><ele>512.5999999999999</ele><time>2026-04-23T08:45:55Z</time></trkpt><trkpt lat="46.35355805596383" lon="12.337021153464542"><ele>517.4000000000001</ele><time>2026-04-23T08:45:56Z</time></trkpt><trkpt lat="46.35345390639756" lon="12.336964420789657"><ele>522.2</ele><time>2026-04-23T08:45:57Z</time></trkpt><trkpt lat="46.353346275810075" lon="12.336915776753408"><ele>527.0</ele><time>2026-04-23T08:45:58Z</time></trkpt><trkpt lat="46.35323503597988" lon="12.336876270787245"><ele>527.0</ele><time>2026-04-23T08:45:59Z</time></trkpt><trkpt lat="46.35312068468226" lon="12.336852286183616"><ele>527.0</ele><time>2026-04-23T08:46:00Z</time></trkpt><trkpt lat="46.35300326194927" lon="12.336834433573026"><ele>527.0</ele><time>2026-04-23T08:46:01Z</time></trkpt><trkpt lat="46.35288855943356" lon="12.336824073271739"><ele>527.0</ele><time>2026-04-23T08:46:02Z</time></trkpt><trkpt lat="46.35276669231685" lon="12.336829643267764"><ele>521.75</ele><time>2026-04-23T08:46:03Z</time></trkpt><trkpt lat="46.35263698597679" lon="12.336864101222623"><ele>516.5</ele><time>2026-04-23T08:46:04Z</time></trkpt><trkpt lat="46.35250700443689" lon="12.336888798545203"><ele>511.25</ele><time>2026-04-23T08:46:05Z</time></trkpt><trkpt lat="46.35237904000753" lon="12.336907999038182"><ele>506.0</ele><time>2026-04-23T08:46:06Z</time></trkpt><trkpt lat="46.35225665693217" lon="12.336925173195358"><ele>504.8</ele><time>2026-04-23T08:46:07Z</time></trkpt><trkpt lat="46.352137609393345" lon="12.336946362595741"><ele>503.6</ele><time>2026-04-23T08:46:08Z</time></trkpt><trkpt lat="46.352027013406015" lon="12.336964441497171"><ele>502.4</ele><time>2026-04-23T08:46:09Z</time></trkpt><trkpt lat="46.35194040528136" lon="12.336977291439911"><ele>501.2</ele><time>2026-04-23T08:46:09.999Z</time></trkpt><trkpt lat="46.351833074682844" lon="12.336979981394759"><ele>500.0</ele><time>2026-04-23T08:46:10.999Z</time></trkpt><trkpt lat="46.35170941199055" lon="12.336979818153045"><ele>500.0</ele><time>2026-04-23T08:46:11.999Z</time></trkpt><trkpt lat="46.351584597010834" lon="12.336949952241243"><ele>500.0</ele><time>2026-04-23T08:46:12.999Z</time></trkpt><trkpt lat="46.35147117368509" lon="12.336842283225739"><ele>500.0</ele><time>2026-04-23T08:46:13.999Z</time></trkpt><trkpt lat="46.35135561536349" lon="12.336736352186481"><ele>500.0</ele><time>2026-04-23T08:46:14.999Z</time></trkpt><trkpt lat="46.351239767027394" lon="12.336647271802697"><ele>499.5</ele><time>2026-04-23T08:46:15.999Z</time></trkpt><trkpt lat="46.3511363987329" lon="12.336526454190114"><ele>499.0</ele><time>2026-04-23T08:46:16.999Z</time></trkpt><trkpt lat="46.35103977466477" lon="12.336391884512052"><ele>498.5</ele><time>2026-04-23T08:46:17.999Z</time></trkpt><trkpt lat="46.35096600474254" lon="12.336223632604735"><ele>498.0</ele><time>2026-04-23T08:46:18.999Z</time></trkpt><trkpt lat="46.3508862218883" lon="12.336070073489106"><ele>499.0</ele><time>2026-04-23T08:46:19.999Z</time></trkpt><trkpt lat="46.35080639914796" lon="12.335930042554173"><ele>500.0</ele><time>2026-04-23T08:46:20.999Z</time></trkpt><trkpt lat="46.3507230835341" lon="12.335801107856685"><ele>501.0</ele><time>2026-04-23T08:46:21.999Z</time></trkpt><trkpt lat="46.35062407918983" lon="12.335693177482145"><ele>502.0</ele><time>2026-04-23T08:46:22.999Z</time></trkpt><trkpt lat="46.35053027476824" lon="12.335575914508414"><ele>500.75</ele><time>2026-04-23T08:46:23.999Z</time></trkpt><trkpt lat="46.350432590589165" lon="12.335462250460823"><ele>499.5</ele><time>2026-04-23T08:46:24.999Z</time></trkpt><trkpt lat="46.35035131137963" lon="12.335323536475196"><ele>498.25</ele><time>2026-04-23T08:46:25.999Z</time></trkpt><trkpt lat="46.35025077010631" lon="12.335216386284104"><ele>497.0</ele><time>2026-04-23T08:46:26.999Z</time></trkpt><trkpt lat="46.35016418235187" lon="12.335095272660928"><ele>497.0</ele><time>2026-04-23T08:46:27.999Z</time></trkpt><trkpt lat="46.3500802759407" lon="12.33497901197497"><ele>497.00000000000006</ele><time>2026-04-23T08:46:28.999Z</time></trkpt><trkpt lat="46.35000144776083" lon="12.334867440071744"><ele>497.00000000000006</ele><time>2026-04-23T08:46:29.999Z</time></trkpt><trkpt lat="46.3499277789223" lon="12.334767123795826"><ele>497.0</ele><time>2026-04-23T08:46:30.999Z</time></trkpt><trkpt lat="46.34985766488089" lon="12.334678026099585"><ele>497.0</ele><time>2026-04-23T08:46:31.999Z</time></trkpt><trkpt lat="46.34979877516766" lon="12.334590908024424"><ele>496.6</ele><time>2026-04-23T08:46:32.999Z</time></trkpt><trkpt lat="46.34975306416096" lon="12.334525980748165"><ele>496.20000000000005</ele><time>2026-04-23T08:46:33.999Z</time></trkpt><trkpt lat="46.34968246999392" lon="12.334438560302589"><ele>495.8</ele><time>2026-04-23T08:46:35.999Z</time></trkpt><trkpt lat="46.34961871088046" lon="12.334379137279422"><ele>495.4</ele><time>2026-04-23T08:46:38.999Z</time></trkpt><trkpt lat="46.349556785358196" lon="12.33432525375095"><ele>495.0</ele><time>2026-04-23T08:46:40.999Z</time></trkpt><trkpt lat="46.34942722664459" lon="12.3342003559227"><ele>495.0</ele><time>2026-04-23T08:46:42.999Z</time></trkpt><trkpt lat="46.349328355614915" lon="12.334114220698178"><ele>495.0</ele><time>2026-04-23T08:46:43.999Z</time></trkpt><trkpt lat="46.34921552871549" lon="12.333999965690376"><ele>495.0</ele><time>2026-04-23T08:46:44.999Z</time></trkpt><trkpt lat="46.349092028411896" lon="12.33387795227779"><ele>495.0</ele><time>2026-04-23T08:46:45.999Z</time></trkpt><trkpt lat="46.34895980973899" lon="12.333755570322102"><ele>496.66666666666663</ele><time>2026-04-23T08:46:46.999Z</time></trkpt><trkpt lat="46.34881917074277" lon="12.333616163749497"><ele>498.3333333333333</ele><time>2026-04-23T08:46:47.999Z</time></trkpt><trkpt lat="46.34867054842283" lon="12.333482105552212"><ele>500.0</ele><time>2026-04-23T08:46:48.999Z</time></trkpt><trkpt lat="46.34850680368452" lon="12.333363070253935"><ele>500.0</ele><time>2026-04-23T08:46:49.999Z</time></trkpt><trkpt lat="46.34833726699412" lon="12.333255411686306"><ele>500.0</ele><time>2026-04-23T08:46:50.999Z</time></trkpt><trkpt lat="46.34816088768551" lon="12.333152750924127"><ele>500.0</ele><time>2026-04-23T08:46:51.999Z</time></trkpt><trkpt lat="46.34798835779131" lon="12.33304468935582"><ele>504.66666666666663</ele><time>2026-04-23T08:46:52.999Z</time></trkpt><trkpt lat="46.34782006826782" lon="12.332940282615532"><ele>509.33333333333337</ele><time>2026-04-23T08:46:53.999Z</time></trkpt><trkpt lat="46.34765860680084" lon="12.332843817294648"><ele>514.0</ele><time>2026-04-23T08:46:54.999Z</time></trkpt><trkpt lat="46.34750293517606" lon="12.332730231401879"><ele>514.0</ele><time>2026-04-23T08:46:55.999Z</time></trkpt><trkpt lat="46.347352650370496" lon="12.332581637436128"><ele>514.0</ele><time>2026-04-23T08:46:56.999Z</time></trkpt><trkpt lat="46.34721171440546" lon="12.33238693251777"><ele>514.0</ele><time>2026-04-23T08:46:57.999Z</time></trkpt><trkpt lat="46.34707390817407" lon="12.332178645127343"><ele>512.0</ele><time>2026-04-23T08:46:58.999Z</time></trkpt><trkpt lat="46.346934564209164" lon="12.331975158302848"><ele>510.0</ele><time>2026-04-23T08:46:59.999Z</time></trkpt><trkpt lat="46.34678748169253" lon="12.331793773703867"><ele>508.0</ele><time>2026-04-23T08:47:00.999Z</time></trkpt><trkpt lat="46.34662937794888" lon="12.33163310533671"><ele>508.0</ele><time>2026-04-23T08:47:01.999Z</time></trkpt><trkpt lat="46.346452062893334" lon="12.33149664367688"><ele>508.0</ele><time>2026-04-23T08:47:02.999Z</time></trkpt><trkpt lat="46.34625987573938" lon="12.331378591071475"><ele>508.0</ele><time>2026-04-23T08:47:03.999Z</time></trkpt><trkpt lat="46.346064268181934" lon="12.331250320817189"><ele>511.0</ele><time>2026-04-23T08:47:04.999Z</time></trkpt><trkpt lat="46.3458707637135" lon="12.331117120289768"><ele>514.0</ele><time>2026-04-23T08:47:05.999Z</time></trkpt><trkpt lat="46.345683037936574" lon="12.330986079674915"><ele>517.0</ele><time>2026-04-23T08:47:06.999Z</time></trkpt><trkpt lat="46.34550478337379" lon="12.33085644052744"><ele>509.6666666666667</ele><time>2026-04-23T08:47:07.999Z</time></trkpt><trkpt lat="46.34533378204087" lon="12.330729784006964"><ele>502.33333333333337</ele><time>2026-04-23T08:47:08.999Z</time></trkpt><trkpt lat="46.34517716395933" lon="12.330602529942745"><ele>495.0</ele><time>2026-04-23T08:47:09.999Z</time></trkpt><trkpt lat="46.34506817150794" lon="12.330431073713243"><ele>501.0</ele><time>2026-04-23T08:47:10.999Z</time></trkpt><trkpt lat="46.344943053198605" lon="12.330330527412352"><ele>507.0</ele><time>2026-04-23T08:47:11.999Z</time></trkpt><trkpt lat="46.344817241284865" lon="12.33025223127716"><ele>513.0</ele><time>2026-04-23T08:47:12.999Z</time></trkpt><trkpt lat="46.344660975571855" lon="12.330242421341053"><ele>519.0</ele><time>2026-04-23T08:47:13.999Z</time></trkpt><trkpt lat="46.34449093386613" lon="12.330228294650977"><ele>519.0</ele><time>2026-04-23T08:47:14.999Z</time></trkpt><trkpt lat="46.34431496191434" lon="12.330193988025776"><ele>519.0</ele><time>2026-04-23T08:47:15.998Z</time></trkpt><trkpt lat="46.344134881103194" lon="12.330155745511956"><ele>519.0</ele><time>2026-04-23T08:47:16.998Z</time></trkpt><trkpt lat="46.343957970659" lon="12.330130844575812"><ele>518.0</ele><time>2026-04-23T08:47:17.998Z</time></trkpt><trkpt lat="46.34379103381588" lon="12.33012343845982"><ele>517.0</ele><time>2026-04-23T08:47:18.998Z</time></trkpt><trkpt lat="46.343629827030504" lon="12.330146502430685"><ele>516.0</ele><time>2026-04-23T08:47:19.998Z</time></trkpt><trkpt lat="46.343480722434144" lon="12.330193631953373"><ele>516.0</ele><time>2026-04-23T08:47:20.998Z</time></trkpt><trkpt lat="46.343345064150476" lon="12.330240485384472"><ele>516.0</ele><time>2026-04-23T08:47:21.998Z</time></trkpt><trkpt lat="46.34321338004564" lon="12.33026986065792"><ele>516.0</ele><time>2026-04-23T08:47:22.998Z</time></trkpt><trkpt lat="46.34306969153738" lon="12.330213004889298"><ele>516.0</ele><time>2026-04-23T08:47:23.998Z</time></trkpt><trkpt lat="46.34289583509029" lon="12.330178554471583"><ele>513.0</ele><time>2026-04-23T08:47:24.998Z</time></trkpt><trkpt lat="46.34273314240024" lon="12.330119367157044"><ele>510.0</ele><time>2026-04-23T08:47:25.998Z</time></trkpt><trkpt lat="46.342565591148485" lon="12.33006413270323"><ele>507.0</ele><time>2026-04-23T08:47:27Z</time></trkpt><trkpt lat="46.34240080615437" lon="12.330001326203128"><ele>507.0</ele><time>2026-04-23T08:47:28Z</time></trkpt><trkpt lat="46.34225150914724" lon="12.329929596303709"><ele>507.0</ele><time>2026-04-23T08:47:29Z</time></trkpt><trkpt lat="46.34211044047197" lon="12.329880692275845"><ele>507.0</ele><time>2026-04-23T08:47:30Z</time></trkpt><trkpt lat="46.34196976365532" lon="12.329877133181373"><ele>507.0</ele><time>2026-04-23T08:47:31Z</time></trkpt><trkpt lat="46.341819769543925" lon="12.329947881297068"><ele>508.0</ele><time>2026-04-23T08:47:32Z</time></trkpt><trkpt lat="46.34166653557904" lon="12.330066896765851"><ele>509.0</ele><time>2026-04-23T08:47:33Z</time></trkpt><trkpt lat="46.34150732923595" lon="12.330173557838716"><ele>510.0</ele><time>2026-04-23T08:47:34Z</time></trkpt><trkpt lat="46.34133625341804" lon="12.330250495484243"><ele>519.6666666666666</ele><time>2026-04-23T08:47:35Z</time></trkpt><trkpt lat="46.34115516226084" lon="12.330294934286387"><ele>529.3333333333333</ele><time>2026-04-23T08:47:36Z</time></trkpt><trkpt lat="46.340987584580056" lon="12.330302979834094"><ele>539.0</ele><time>2026-04-23T08:47:37Z</time></trkpt><trkpt lat="46.34083114263064" lon="12.330304778586571"><ele>539.0</ele><time>2026-04-23T08:47:38Z</time></trkpt><trkpt lat="46.340697265635086" lon="12.330299531532033"><ele>539.0</ele><time>2026-04-23T08:47:39Z</time></trkpt><trkpt lat="46.34057387989293" lon="12.330318625758808"><ele>539.0</ele><time>2026-04-23T08:47:40Z</time></trkpt><trkpt lat="46.34045924243461" lon="12.330383413955456"><ele>539.0</ele><time>2026-04-23T08:47:41Z</time></trkpt><trkpt lat="46.34034730486187" lon="12.330508523703045"><ele>531.0</ele><time>2026-04-23T08:47:42Z</time></trkpt><trkpt lat="46.34024036183855" lon="12.330638976292622"><ele>523.0</ele><time>2026-04-23T08:47:43Z</time></trkpt><trkpt lat="46.34012596367495" lon="12.33071568722382"><ele>515.0</ele><time>2026-04-23T08:47:44Z</time></trkpt><trkpt lat="46.33997475172118" lon="12.330760365026004"><ele>507.0</ele><time>2026-04-23T08:47:45Z</time></trkpt><trkpt lat="46.33981764088497" lon="12.330796403252986"><ele>514.3333333333334</ele><time>2026-04-23T08:47:46Z</time></trkpt><trkpt lat="46.33964009259632" lon="12.33086362344076"><ele>521.6666666666667</ele><time>2026-04-23T08:47:47Z</time></trkpt><trkpt lat="46.339484330575516" lon="12.330949842624234"><ele>529.0</ele><time>2026-04-23T08:47:48Z</time></trkpt><trkpt lat="46.33932760329097" lon="12.331002370920874"><ele>529.0</ele><time>2026-04-23T08:47:49Z</time></trkpt><trkpt lat="46.33915524194511" lon="12.331008452826916"><ele>529.0</ele><time>2026-04-23T08:47:50Z</time></trkpt><trkpt lat="46.33896150605409" lon="12.331004410299549"><ele>529.0</ele><time>2026-04-23T08:47:51Z</time></trkpt><trkpt lat="46.338766069721835" lon="12.331015395884702"><ele>531.0</ele><time>2026-04-23T08:47:52Z</time></trkpt><trkpt lat="46.338574359001335" lon="12.33098105869281"><ele>533.0</ele><time>2026-04-23T08:47:53Z</time></trkpt><trkpt lat="46.338407809728515" lon="12.331009701607488"><ele>535.0</ele><time>2026-04-23T08:47:54Z</time></trkpt><trkpt lat="46.33826041629013" lon="12.331059490841001"><ele>535.0</ele><time>2026-04-23T08:47:55Z</time></trkpt><trkpt lat="46.33812983731044" lon="12.33116248051814"><ele>535.0</ele><time>2026-04-23T08:47:56Z</time></trkpt><trkpt lat="46.338000644542234" lon="12.331270855363234"><ele>535.0</ele><time>2026-04-23T08:47:57Z</time></trkpt><trkpt lat="46.337849997407" lon="12.331327003925082"><ele>541.6666666666667</ele><time>2026-04-23T08:47:58Z</time></trkpt><trkpt lat="46.33767263023742" lon="12.33132779274465"><ele>548.3333333333334</ele><time>2026-04-23T08:47:59Z</time></trkpt><trkpt lat="46.33748477851379" lon="12.331309354043517"><ele>555.0</ele><time>2026-04-23T08:48:00Z</time></trkpt><trkpt lat="46.33728996566647" lon="12.331285037401594"><ele>551.0</ele><time>2026-04-23T08:48:01Z</time></trkpt><trkpt lat="46.33708681954364" lon="12.331258432969996"><ele>547.0</ele><time>2026-04-23T08:48:02Z</time></trkpt><trkpt lat="46.33686508572136" lon="12.331245882529414"><ele>543.0</ele><time>2026-04-23T08:48:03Z</time></trkpt><trkpt lat="46.33666223201431" lon="12.331238562020715"><ele>543.0</ele><time>2026-04-23T08:48:04Z</time></trkpt><trkpt lat="46.33647422633036" lon="12.331244591922152"><ele>543.0</ele><time>2026-04-23T08:48:05Z</time></trkpt><trkpt lat="46.336287953395974" lon="12.331241958579508"><ele>543.0</ele><time>2026-04-23T08:48:06Z</time></trkpt><trkpt lat="46.336112053959866" lon="12.331189155114242"><ele>543.6666666666666</ele><time>2026-04-23T08:48:07Z</time></trkpt><trkpt lat="46.33595506124584" lon="12.331109627166764"><ele>544.3333333333333</ele><time>2026-04-23T08:48:08Z</time></trkpt><trkpt lat="46.33581059732597" lon="12.331050741304653"><ele>545.0</ele><time>2026-04-23T08:48:09Z</time></trkpt><trkpt lat="46.33565913169716" lon="12.331036432982993"><ele>546.3333333333333</ele><time>2026-04-23T08:48:10Z</time></trkpt><trkpt lat="46.33550547323386" lon="12.331078930111"><ele>547.6666666666666</ele><time>2026-04-23T08:48:11Z</time></trkpt><trkpt lat="46.335356103827806" lon="12.331143094070587"><ele>549.0</ele><time>2026-04-23T08:48:12Z</time></trkpt><trkpt lat="46.3352144393127" lon="12.3311702362288"><ele>549.0</ele><time>2026-04-23T08:48:13Z</time></trkpt><trkpt lat="46.33506852399369" lon="12.331142422464492"><ele>549.0</ele><time>2026-04-23T08:48:14Z</time></trkpt><trkpt lat="46.334919596575084" lon="12.331061800953304"><ele>549.0</ele><time>2026-04-23T08:48:15Z</time></trkpt><trkpt lat="46.33477734180909" lon="12.3309701735096"><ele>544.3333333333334</ele><time>2026-04-23T08:48:15.999Z</time></trkpt><trkpt lat="46.33462805863778" lon="12.33093533928414"><ele>539.6666666666667</ele><time>2026-04-23T08:48:16.999Z</time></trkpt><trkpt lat="46.33447659666461" lon="12.330970448572094"><ele>535.0</ele><time>2026-04-23T08:48:17.999Z</time></trkpt><trkpt lat="46.33433824566654" lon="12.331035174228049"><ele>535.0</ele><time>2026-04-23T08:48:18.999Z</time></trkpt><trkpt lat="46.33419392725782" lon="12.331050445764419"><ele>535.0</ele><time>2026-04-23T08:48:19.999Z</time></trkpt><trkpt lat="46.33401620472804" lon="12.331009996609101"><ele>535.0</ele><time>2026-04-23T08:48:20.999Z</time></trkpt><trkpt lat="46.33384298252705" lon="12.330940530739671"><ele>523.3333333333334</ele><time>2026-04-23T08:48:21.999Z</time></trkpt><trkpt lat="46.33368006115004" lon="12.330869025499227"><ele>511.66666666666663</ele><time>2026-04-23T08:48:22.999Z</time></trkpt><trkpt lat="46.33353133445341" lon="12.330761912240146"><ele>500.0</ele><time>2026-04-23T08:48:23.999Z</time></trkpt><trkpt lat="46.33341985501487" lon="12.330658376047595"><ele>495.0</ele><time>2026-04-23T08:48:24.999Z</time></trkpt><trkpt lat="46.33330800251202" lon="12.330502555668255"><ele>490.0</ele><time>2026-04-23T08:48:25.999Z</time></trkpt><trkpt lat="46.33317977190509" lon="12.330373013592194"><ele>485.0</ele><time>2026-04-23T08:48:26.999Z</time></trkpt><trkpt lat="46.33304300579981" lon="12.330260466659242"><ele>485.0</ele><time>2026-04-23T08:48:27.999Z</time></trkpt><trkpt lat="46.33293286059008" lon="12.330108042906172"><ele>485.0</ele><time>2026-04-23T08:48:28.999Z</time></trkpt><trkpt lat="46.33285942465417" lon="12.329907463298225"><ele>485.0</ele><time>2026-04-23T08:48:29.999Z</time></trkpt><trkpt lat="46.33279546091645" lon="12.32967229419238"><ele>489.66666666666663</ele><time>2026-04-23T08:48:30.999Z</time></trkpt><trkpt lat="46.332693681414014" lon="12.329452793940858"><ele>494.33333333333337</ele><time>2026-04-23T08:48:31.999Z</time></trkpt><trkpt lat="46.33258684156855" lon="12.329218579213395"><ele>499.0</ele><time>2026-04-23T08:48:32.999Z</time></trkpt><trkpt lat="46.33247524356006" lon="12.328971977719174"><ele>495.33333333333337</ele><time>2026-04-23T08:48:33.999Z</time></trkpt><trkpt lat="46.33235926195048" lon="12.328728276684249"><ele>491.66666666666663</ele><time>2026-04-23T08:48:34.999Z</time></trkpt><trkpt lat="46.33223194852147" lon="12.32848671161439"><ele>488.0</ele><time>2026-04-23T08:48:35.999Z</time></trkpt><trkpt lat="46.332100256526815" lon="12.32825511215485"><ele>495.0</ele><time>2026-04-23T08:48:36.999Z</time></trkpt><trkpt lat="46.33196538060217" lon="12.328032246751492"><ele>502.0</ele><time>2026-04-23T08:48:37.999Z</time></trkpt><trkpt lat="46.33182199449184" lon="12.327818550930305"><ele>509.0</ele><time>2026-04-23T08:48:38.999Z</time></trkpt><trkpt lat="46.33166269067249" lon="12.327634643618994"><ele>509.0</ele><time>2026-04-23T08:48:39.999Z</time></trkpt><trkpt lat="46.33149125534412" lon="12.327471497131077"><ele>509.0</ele><time>2026-04-23T08:48:40.999Z</time></trkpt><trkpt lat="46.33132408585567" lon="12.327305593200487"><ele>509.0</ele><time>2026-04-23T08:48:41.999Z</time></trkpt><trkpt lat="46.33115812852954" lon="12.327147041285036"><ele>519.3333333333333</ele><time>2026-04-23T08:48:42.999Z</time></trkpt><trkpt lat="46.33099363769908" lon="12.327001606184119"><ele>529.6666666666666</ele><time>2026-04-23T08:48:43.999Z</time></trkpt><trkpt lat="46.33082513301907" lon="12.326886078904572"><ele>540.0</ele><time>2026-04-23T08:48:44.999Z</time></trkpt><trkpt lat="46.330645732501765" lon="12.326802076800773"><ele>523.6666666666666</ele><time>2026-04-23T08:48:45.999Z</time></trkpt><trkpt lat="46.330454292802074" lon="12.326711334445546"><ele>507.3333333333333</ele><time>2026-04-23T08:48:46.999Z</time></trkpt><trkpt lat="46.330265559268064" lon="12.3266533224345"><ele>491.0</ele><time>2026-04-23T08:48:47.999Z</time></trkpt><trkpt lat="46.33009044405747" lon="12.326609329647743"><ele>491.0</ele><time>2026-04-23T08:48:48.999Z</time></trkpt><trkpt lat="46.32993065003345" lon="12.32652688494864"><ele>491.0</ele><time>2026-04-23T08:48:49.999Z</time></trkpt><trkpt lat="46.329792244638405" lon="12.326448554015808"><ele>491.0</ele><time>2026-04-23T08:48:50.999Z</time></trkpt><trkpt lat="46.32967993196822" lon="12.326376956275155"><ele>491.0</ele><time>2026-04-23T08:48:51.999Z</time></trkpt><trkpt lat="46.329586832669435" lon="12.32628376231711"><ele>489.5</ele><time>2026-04-23T08:48:52.999Z</time></trkpt><trkpt lat="46.32952086930157" lon="12.326150165546274"><ele>488.0</ele><time>2026-04-23T08:48:53.999Z</time></trkpt><trkpt lat="46.32947813164146" lon="12.325978199595829"><ele>486.5</ele><time>2026-04-23T08:48:54.999Z</time></trkpt><trkpt lat="46.329440998293" lon="12.325793474412329"><ele>485.0</ele><time>2026-04-23T08:48:55.999Z</time></trkpt><trkpt lat="46.32939799920104" lon="12.32559712558143"><ele>485.66666666666663</ele><time>2026-04-23T08:48:56.999Z</time></trkpt><trkpt lat="46.32933481367151" lon="12.325407041504974"><ele>486.33333333333337</ele><time>2026-04-23T08:48:57.999Z</time></trkpt><trkpt lat="46.32925667097706" lon="12.325214854832499"><ele>487.0</ele><time>2026-04-23T08:48:58.999Z</time></trkpt><trkpt lat="46.32916936901092" lon="12.325019886731"><ele>487.0</ele><time>2026-04-23T08:48:59.999Z</time></trkpt><trkpt lat="46.329082927589326" lon="12.3248205189129"><ele>487.0</ele><time>2026-04-23T08:49:00.999Z</time></trkpt><trkpt lat="46.32899939396867" lon="12.32462226271188"><ele>487.0</ele><time>2026-04-23T08:49:01.999Z</time></trkpt><trkpt lat="46.328914080336915" lon="12.324425598227183"><ele>485.33333333333337</ele><time>2026-04-23T08:49:02.999Z</time></trkpt><trkpt lat="46.328829606780516" lon="12.324235038496631"><ele>483.66666666666663</ele><time>2026-04-23T08:49:03.999Z</time></trkpt><trkpt lat="46.328745760244686" lon="12.32404009184551"><ele>482.0</ele><time>2026-04-23T08:49:04.999Z</time></trkpt><trkpt lat="46.32866034118736" lon="12.323851068253585"><ele>482.0</ele><time>2026-04-23T08:49:05.999Z</time></trkpt><trkpt lat="46.32857291294231" lon="12.323669545124156"><ele>482.0</ele><time>2026-04-23T08:49:06.999Z</time></trkpt><trkpt lat="46.328474189508114" lon="12.3234998799549"><ele>482.0</ele><time>2026-04-23T08:49:07.999Z</time></trkpt><trkpt lat="46.32837143497617" lon="12.323320381438727"><ele>482.0</ele><time>2026-04-23T08:49:08.999Z</time></trkpt><trkpt lat="46.328237113920906" lon="12.32316643968821"><ele>482.0</ele><time>2026-04-23T08:49:09.999Z</time></trkpt><trkpt lat="46.32808510830356" lon="12.323049083399031"><ele>482.0</ele><time>2026-04-23T08:49:10.999Z</time></trkpt><trkpt lat="46.327931691547484" lon="12.322924264250245"><ele>483.0</ele><time>2026-04-23T08:49:11.999Z</time></trkpt><trkpt lat="46.32777998341659" lon="12.32277452408797"><ele>484.0</ele><time>2026-04-23T08:49:12.999Z</time></trkpt><trkpt lat="46.32762421101656" lon="12.322646762808672"><ele>485.0</ele><time>2026-04-23T08:49:13.999Z</time></trkpt><trkpt lat="46.32748081669516" lon="12.322529042678596"><ele>485.0</ele><time>2026-04-23T08:49:14.999Z</time></trkpt><trkpt lat="46.32733567712392" lon="12.32243471207778"><ele>485.0</ele><time>2026-04-23T08:49:15.999Z</time></trkpt><trkpt lat="46.32721562804949" lon="12.322303334659649"><ele>485.0</ele><time>2026-04-23T08:49:16.999Z</time></trkpt><trkpt lat="46.32711488611195" lon="12.322148082298463"><ele>480.66666666666663</ele><time>2026-04-23T08:49:17.999Z</time></trkpt><trkpt lat="46.32703471469092" lon="12.321953236420438"><ele>476.33333333333337</ele><time>2026-04-23T08:49:18.999Z</time></trkpt><trkpt lat="46.32697262566388" lon="12.321734434211558"><ele>472.0</ele><time>2026-04-23T08:49:19.999Z</time></trkpt><trkpt lat="46.32692622586949" lon="12.321502288276559"><ele>474.6666666666667</ele><time>2026-04-23T08:49:20.998Z</time></trkpt><trkpt lat="46.32688694118767" lon="12.321266834336296"><ele>477.33333333333337</ele><time>2026-04-23T08:49:21.998Z</time></trkpt><trkpt lat="46.32683806081614" lon="12.321049489261327"><ele>480.0</ele><time>2026-04-23T08:49:22.998Z</time></trkpt><trkpt lat="46.32677213752266" lon="12.320843062007112"><ele>480.0</ele><time>2026-04-23T08:49:23.998Z</time></trkpt><trkpt lat="46.3266923953854" lon="12.320635472207407"><ele>480.0</ele><time>2026-04-23T08:49:24.998Z</time></trkpt><trkpt lat="46.32655794615317" lon="12.320477637146524"><ele>480.0</ele><time>2026-04-23T08:49:25.998Z</time></trkpt><trkpt lat="46.326418868048044" lon="12.320316306844452"><ele>478.66666666666663</ele><time>2026-04-23T08:49:26.998Z</time></trkpt><trkpt lat="46.32627415036535" lon="12.320156347882735"><ele>477.3333333333333</ele><time>2026-04-23T08:49:27.998Z</time></trkpt><trkpt lat="46.326143116947236" lon="12.320005692139894"><ele>476.0</ele><time>2026-04-23T08:49:28.998Z</time></trkpt><trkpt lat="46.3260124137271" lon="12.31984676584729"><ele>481.66666666666663</ele><time>2026-04-23T08:49:29.998Z</time></trkpt><trkpt lat="46.32588283830991" lon="12.319699849142378"><ele>487.33333333333337</ele><time>2026-04-23T08:49:30.998Z</time></trkpt><trkpt lat="46.32574905796396" lon="12.319554114129817"><ele>493.0</ele><time>2026-04-23T08:49:31.998Z</time></trkpt><trkpt lat="46.32561806488272" lon="12.31940489060544"><ele>488.33333333333337</ele><time>2026-04-23T08:49:33Z</time></trkpt><trkpt lat="46.325490527595505" lon="12.319263046789377"><ele>483.66666666666663</ele><time>2026-04-23T08:49:34Z</time></trkpt><trkpt lat="46.32536660369353" lon="12.319124194040965"><ele>479.0</ele><time>2026-04-23T08:49:35Z</time></trkpt><trkpt lat="46.325248298195035" lon="12.31899150681239"><ele>482.5</ele><time>2026-04-23T08:49:36Z</time></trkpt><trkpt lat="46.3251350641898" lon="12.318859015319282"><ele>486.0</ele><time>2026-04-23T08:49:37Z</time></trkpt><trkpt lat="46.3250290893855" lon="12.318726728433154"><ele>489.5</ele><time>2026-04-23T08:49:38Z</time></trkpt><trkpt lat="46.3249369727022" lon="12.318577217704174"><ele>493.0</ele><time>2026-04-23T08:49:39Z</time></trkpt><trkpt lat="46.32487416261503" lon="12.318396857523217"><ele>493.0</ele><time>2026-04-23T08:49:40Z</time></trkpt><trkpt lat="46.324834948789146" lon="12.31818769168473"><ele>493.0</ele><time>2026-04-23T08:49:41Z</time></trkpt><trkpt lat="46.32480496813068" lon="12.317974097367296"><ele>493.0</ele><time>2026-04-23T08:49:42Z</time></trkpt><trkpt lat="46.32476978929736" lon="12.317764025166442"><ele>493.0</ele><time>2026-04-23T08:49:43Z</time></trkpt><trkpt lat="46.324718123358906" lon="12.317557968335555"><ele>489.33333333333337</ele><time>2026-04-23T08:49:44Z</time></trkpt><trkpt lat="46.32463801718767" lon="12.317373718758542"><ele>485.66666666666663</ele><time>2026-04-23T08:49:45Z</time></trkpt><trkpt lat="46.32451686519306" lon="12.317217588043562"><ele>482.0</ele><time>2026-04-23T08:49:46Z</time></trkpt><trkpt lat="46.32437061718159" lon="12.317087280937828"><ele>490.66666666666663</ele><time>2026-04-23T08:49:47Z</time></trkpt><trkpt lat="46.324217648778244" lon="12.316959980776087"><ele>499.33333333333337</ele><time>2026-04-23T08:49:48Z</time></trkpt><trkpt lat="46.32406690295263" lon="12.316833503495651"><ele>508.0</ele><time>2026-04-23T08:49:49Z</time></trkpt><trkpt lat="46.323911490047465" lon="12.316731635198787"><ele>504.0</ele><time>2026-04-23T08:49:50Z</time></trkpt><trkpt lat="46.32373363050444" lon="12.316683697148079"><ele>500.0</ele><time>2026-04-23T08:49:51Z</time></trkpt><trkpt lat="46.32354387031076" lon="12.31665603695678"><ele>496.0</ele><time>2026-04-23T08:49:52Z</time></trkpt><trkpt lat="46.323346729977345" lon="12.31663111948435"><ele>496.0</ele><time>2026-04-23T08:49:53Z</time></trkpt><trkpt lat="46.323151006155825" lon="12.316597746903426"><ele>496.0</ele><time>2026-04-23T08:49:54Z</time></trkpt><trkpt lat="46.32295370882813" lon="12.316568889191766"><ele>496.0</ele><time>2026-04-23T08:49:55Z</time></trkpt><trkpt lat="46.322759203668056" lon="12.31653863884799"><ele>492.33333333333337</ele><time>2026-04-23T08:49:56Z</time></trkpt><trkpt lat="46.322565195199324" lon="12.316507649512062"><ele>488.66666666666663</ele><time>2026-04-23T08:49:57Z</time></trkpt><trkpt lat="46.32237395226468" lon="12.316481285220094"><ele>485.0</ele><time>2026-04-23T08:49:58Z</time></trkpt><trkpt lat="46.32217833876249" lon="12.316474989090414"><ele>482.66666666666663</ele><time>2026-04-23T08:49:59Z</time></trkpt><trkpt lat="46.32198178685707" lon="12.316489552977647"><ele>480.33333333333337</ele><time>2026-04-23T08:50:00Z</time></trkpt><trkpt lat="46.32178511662345" lon="12.316517927048904"><ele>478.0</ele><time>2026-04-23T08:50:01Z</time></trkpt><trkpt lat="46.321589299449556" lon="12.3165150314738"><ele>480.0</ele><time>2026-04-23T08:50:02Z</time></trkpt><trkpt lat="46.321398211727946" lon="12.316555239238436"><ele>482.0</ele><time>2026-04-23T08:50:03Z</time></trkpt><trkpt lat="46.32120488318341" lon="12.31655750797204"><ele>484.0</ele><time>2026-04-23T08:50:04Z</time></trkpt><trkpt lat="46.321010522040325" lon="12.316533340233443"><ele>484.0</ele><time>2026-04-23T08:50:05Z</time></trkpt><trkpt lat="46.32081430443864" lon="12.316480921880682"><ele>484.0</ele><time>2026-04-23T08:50:06Z</time></trkpt><trkpt lat="46.32061616247243" lon="12.316424379182028"><ele>484.0</ele><time>2026-04-23T08:50:07Z</time></trkpt><trkpt lat="46.320418335977266" lon="12.316374451914198"><ele>495.0</ele><time>2026-04-23T08:50:08Z</time></trkpt><trkpt lat="46.320221909028135" lon="12.316332365895112"><ele>506.0</ele><time>2026-04-23T08:50:09Z</time></trkpt><trkpt lat="46.32002530856562" lon="12.316315710532857"><ele>517.0</ele><time>2026-04-23T08:50:10Z</time></trkpt><trkpt lat="46.31982501891499" lon="12.316344382132748"><ele>512.3333333333334</ele><time>2026-04-23T08:50:11Z</time></trkpt><trkpt lat="46.31962225640651" lon="12.316361061249182"><ele>507.66666666666663</ele><time>2026-04-23T08:50:12Z</time></trkpt><trkpt lat="46.3194319308439" lon="12.316387933982224"><ele>503.0</ele><time>2026-04-23T08:50:13Z</time></trkpt><trkpt lat="46.319250457323186" lon="12.316413679146818"><ele>503.0</ele><time>2026-04-23T08:50:14Z</time></trkpt><trkpt lat="46.31908370829279" lon="12.316435697644906"><ele>503.0</ele><time>2026-04-23T08:50:15Z</time></trkpt><trkpt lat="46.31890971593437" lon="12.316391896762521"><ele>503.0</ele><time>2026-04-23T08:50:16Z</time></trkpt><trkpt lat="46.31874299935372" lon="12.316303753918154"><ele>497.3333333333333</ele><time>2026-04-23T08:50:17Z</time></trkpt><trkpt lat="46.318584687588896" lon="12.316210367072586"><ele>491.66666666666663</ele><time>2026-04-23T08:50:18Z</time></trkpt><trkpt lat="46.31841956525011" lon="12.316146811662211"><ele>486.0</ele><time>2026-04-23T08:50:19Z</time></trkpt><trkpt lat="46.31824742749215" lon="12.316123045317763"><ele>486.0</ele><time>2026-04-23T08:50:20Z</time></trkpt><trkpt lat="46.31807455091999" lon="12.316133726350989"><ele>486.0</ele><time>2026-04-23T08:50:21Z</time></trkpt><trkpt lat="46.317903789915974" lon="12.31618433863285"><ele>486.0</ele><time>2026-04-23T08:50:21.999Z</time></trkpt><trkpt lat="46.31773511339729" lon="12.316248763396711"><ele>489.66666666666663</ele><time>2026-04-23T08:50:22.999Z</time></trkpt><trkpt lat="46.31757943760428" lon="12.316380586576926"><ele>493.3333333333333</ele><time>2026-04-23T08:50:23.999Z</time></trkpt><trkpt lat="46.31745047272443" lon="12.316565199931004"><ele>497.0</ele><time>2026-04-23T08:50:24.999Z</time></trkpt><trkpt lat="46.31732035934539" lon="12.316757818966673"><ele>504.3333333333333</ele><time>2026-04-23T08:50:25.999Z</time></trkpt><trkpt lat="46.3171766715156" lon="12.316956384687908"><ele>511.66666666666663</ele><time>2026-04-23T08:50:26.999Z</time></trkpt><trkpt lat="46.31703773172772" lon="12.317175686416352"><ele>519.0</ele><time>2026-04-23T08:50:27.999Z</time></trkpt><trkpt lat="46.31689831748519" lon="12.317400161857837"><ele>519.0</ele><time>2026-04-23T08:50:28.999Z</time></trkpt><trkpt lat="46.316756667797634" lon="12.317627536632033"><ele>519.0</ele><time>2026-04-23T08:50:29.999Z</time></trkpt><trkpt lat="46.316617785079835" lon="12.317854614872818"><ele>519.0</ele><time>2026-04-23T08:50:30.999Z</time></trkpt><trkpt lat="46.316481916542735" lon="12.318081560968718"><ele>518.0</ele><time>2026-04-23T08:50:31.999Z</time></trkpt><trkpt lat="46.31634825724002" lon="12.318298616034403"><ele>517.0</ele><time>2026-04-23T08:50:32.999Z</time></trkpt><trkpt lat="46.316219507103696" lon="12.318507003934977"><ele>516.0</ele><time>2026-04-23T08:50:33.999Z</time></trkpt><trkpt lat="46.31609473653132" lon="12.31872754550644"><ele>503.33333333333337</ele><time>2026-04-23T08:50:34.999Z</time></trkpt><trkpt lat="46.31595223363577" lon="12.318924159922867"><ele>490.6666666666667</ele><time>2026-04-23T08:50:35.999Z</time></trkpt><trkpt lat="46.31580105346327" lon="12.319100315761723"><ele>478.0</ele><time>2026-04-23T08:50:36.999Z</time></trkpt><trkpt lat="46.315663010845824" lon="12.319284534645565"><ele>486.33333333333337</ele><time>2026-04-23T08:50:37.999Z</time></trkpt><trkpt lat="46.315539265569825" lon="12.3194822198806"><ele>494.66666666666663</ele><time>2026-04-23T08:50:38.999Z</time></trkpt><trkpt lat="46.31544286032614" lon="12.319717916006901"><ele>503.0</ele><time>2026-04-23T08:50:39.999Z</time></trkpt><trkpt lat="46.31533881061294" lon="12.319940243801344"><ele>503.0</ele><time>2026-04-23T08:50:40.999Z</time></trkpt><trkpt lat="46.315229803869336" lon="12.320154158378356"><ele>503.0</ele><time>2026-04-23T08:50:41.999Z</time></trkpt><trkpt lat="46.315111295117816" lon="12.32033837424345"><ele>503.0</ele><time>2026-04-23T08:50:42.999Z</time></trkpt><trkpt lat="46.314982133019875" lon="12.320493864942769"><ele>497.0</ele><time>2026-04-23T08:50:43.999Z</time></trkpt><trkpt lat="46.314867960522946" lon="12.320641269727552"><ele>491.0</ele><time>2026-04-23T08:50:44.999Z</time></trkpt><trkpt lat="46.314769570841726" lon="12.32080673919393"><ele>485.0</ele><time>2026-04-23T08:50:45.999Z</time></trkpt><trkpt lat="46.314689807839" lon="12.320968216589767"><ele>479.0</ele><time>2026-04-23T08:50:46.999Z</time></trkpt><trkpt lat="46.3146258286595" lon="12.321117655660023"><ele>498.5</ele><time>2026-04-23T08:50:47.999Z</time></trkpt><trkpt lat="46.314548614978754" lon="12.321236544546881"><ele>518.0</ele><time>2026-04-23T08:50:48.999Z</time></trkpt><trkpt lat="46.31425249672297" lon="12.321823229009041"><ele>518.0</ele><time>2026-04-23T08:50:49.999Z</time></trkpt><trkpt lat="46.31413910885042" lon="12.322026846518012"><ele>518.0</ele><time>2026-04-23T08:50:50.999Z</time></trkpt><trkpt lat="46.314042792427564" lon="12.322233637315996"><ele>518.0</ele><time>2026-04-23T08:50:51.999Z</time></trkpt><trkpt lat="46.31393358882537" lon="12.322398663986933"><ele>518.0</ele><time>2026-04-23T08:50:52.999Z</time></trkpt><trkpt lat="46.31382401686382" lon="12.322509656179964"><ele>518.0</ele><time>2026-04-23T08:50:53.999Z</time></trkpt><trkpt lat="46.3136729605756" lon="12.322602378904687"><ele>518.0</ele><time>2026-04-23T08:50:54.999Z</time></trkpt><trkpt lat="46.31350933853701" lon="12.32269388726779"><ele>518.0</ele><time>2026-04-23T08:50:55.999Z</time></trkpt><trkpt lat="46.31334613730173" lon="12.322761910292227"><ele>518.0</ele><time>2026-04-23T08:50:56.999Z</time></trkpt><trkpt lat="46.313187877284584" lon="12.322775876650697"><ele>518.0</ele><time>2026-04-23T08:50:57.999Z</time></trkpt><trkpt lat="46.313014321564275" lon="12.322772071133596"><ele>520.0</ele><time>2026-04-23T08:50:58.999Z</time></trkpt><trkpt lat="46.312830901063876" lon="12.322808175070884"><ele>522.0</ele><time>2026-04-23T08:50:59.999Z</time></trkpt><trkpt lat="46.312657378083465" lon="12.322846097462039"><ele>524.0</ele><time>2026-04-23T08:51:00.999Z</time></trkpt><trkpt lat="46.312477978172815" lon="12.3229292043654"><ele>524.0</ele><time>2026-04-23T08:51:01.999Z</time></trkpt><trkpt lat="46.31230129691243" lon="12.32302720519489"><ele>524.0</ele><time>2026-04-23T08:51:02.999Z</time></trkpt><trkpt lat="46.31213759384363" lon="12.323145085665507"><ele>524.0</ele><time>2026-04-23T08:51:03.999Z</time></trkpt><trkpt lat="46.31199292583408" lon="12.323241937175643"><ele>512.3333333333333</ele><time>2026-04-23T08:51:04.999Z</time></trkpt><trkpt lat="46.31182275779541" lon="12.323261980790322"><ele>500.66666666666663</ele><time>2026-04-23T08:51:05.999Z</time></trkpt><trkpt lat="46.3116428582736" lon="12.323316460971613"><ele>489.0</ele><time>2026-04-23T08:51:06.999Z</time></trkpt><trkpt lat="46.311458811946636" lon="12.323351777057423"><ele>500.66666666666663</ele><time>2026-04-23T08:51:07.999Z</time></trkpt><trkpt lat="46.31127322908077" lon="12.323395165123413"><ele>512.3333333333333</ele><time>2026-04-23T08:51:08.999Z</time></trkpt><trkpt lat="46.311089940573716" lon="12.323429507160862"><ele>524.0</ele><time>2026-04-23T08:51:09.999Z</time></trkpt><trkpt lat="46.31092559568606" lon="12.323472426990095"><ele>524.0</ele><time>2026-04-23T08:51:10.999Z</time></trkpt><trkpt lat="46.31077512463013" lon="12.32353051936857"><ele>524.0</ele><time>2026-04-23T08:51:11.999Z</time></trkpt><trkpt lat="46.310626089723115" lon="12.323640744842079"><ele>524.0</ele><time>2026-04-23T08:51:12.999Z</time></trkpt><trkpt lat="46.3104889740632" lon="12.32377479398826"><ele>529.5</ele><time>2026-04-23T08:51:13.999Z</time></trkpt><trkpt lat="46.31036124388011" lon="12.323890411485786"><ele>535.0</ele><time>2026-04-23T08:51:14.999Z</time></trkpt><trkpt lat="46.31023685151607" lon="12.32395661559446"><ele>540.5</ele><time>2026-04-23T08:51:15.999Z</time></trkpt><trkpt lat="46.310085369131514" lon="12.323972679727397"><ele>546.0</ele><time>2026-04-23T08:51:16.999Z</time></trkpt><trkpt lat="46.30991836408633" lon="12.323972531728531"><ele>518.3333333333334</ele><time>2026-04-23T08:51:17.999Z</time></trkpt><trkpt lat="46.30973674248694" lon="12.323960632928348"><ele>490.6666666666667</ele><time>2026-04-23T08:51:18.999Z</time></trkpt><trkpt lat="46.3095465707824" lon="12.323969716656881"><ele>463.0</ele><time>2026-04-23T08:51:19.999Z</time></trkpt><trkpt lat="46.30935173014592" lon="12.323970046147915"><ele>463.0</ele><time>2026-04-23T08:51:20.999Z</time></trkpt><trkpt lat="46.309155548953434" lon="12.32398756625291"><ele>463.0</ele><time>2026-04-23T08:51:21.999Z</time></trkpt><trkpt lat="46.30895475256601" lon="12.324026785477466"><ele>463.0</ele><time>2026-04-23T08:51:22.999Z</time></trkpt><trkpt lat="46.30875438919936" lon="12.32410935554908"><ele>467.0</ele><time>2026-04-23T08:51:23.999Z</time></trkpt><trkpt lat="46.308560239095875" lon="12.324227906472338"><ele>471.0</ele><time>2026-04-23T08:51:24.999Z</time></trkpt><trkpt lat="46.308373646867075" lon="12.324332248722303"><ele>475.0</ele><time>2026-04-23T08:51:25.999Z</time></trkpt><trkpt lat="46.308191717451535" lon="12.324390353166178"><ele>482.6666666666667</ele><time>2026-04-23T08:51:26.998Z</time></trkpt><trkpt lat="46.30800679385033" lon="12.324434062061213"><ele>490.33333333333337</ele><time>2026-04-23T08:51:27.998Z</time></trkpt><trkpt lat="46.30780838712104" lon="12.324464150929323"><ele>498.0</ele><time>2026-04-23T08:51:28.998Z</time></trkpt><trkpt lat="46.30760934908793" lon="12.324511340480356"><ele>498.0</ele><time>2026-04-23T08:51:29.998Z</time></trkpt><trkpt lat="46.30740922458293" lon="12.32453723591311"><ele>498.0</ele><time>2026-04-23T08:51:30.998Z</time></trkpt><trkpt lat="46.30720553845936" lon="12.324547766103644"><ele>498.0</ele><time>2026-04-23T08:51:31.998Z</time></trkpt><trkpt lat="46.3070171536293" lon="12.32457637105148"><ele>496.33333333333337</ele><time>2026-04-23T08:51:32.998Z</time></trkpt><trkpt lat="46.306841965091955" lon="12.324600714122946"><ele>494.6666666666667</ele><time>2026-04-23T08:51:33.998Z</time></trkpt><trkpt lat="46.30667378219006" lon="12.32460948507285"><ele>493.0</ele><time>2026-04-23T08:51:34.998Z</time></trkpt><trkpt lat="46.30649901414201" lon="12.324576850806544"><ele>488.33333333333337</ele><time>2026-04-23T08:51:35.998Z</time></trkpt><trkpt lat="46.30631441873113" lon="12.324545065583646"><ele>483.66666666666663</ele><time>2026-04-23T08:51:36.998Z</time></trkpt><trkpt lat="46.306128469901694" lon="12.324488929941023"><ele>479.0</ele><time>2026-04-23T08:51:38Z</time></trkpt><trkpt lat="46.30596004884317" lon="12.324408665156254"><ele>479.0</ele><time>2026-04-23T08:51:39Z</time></trkpt><trkpt lat="46.30581177998214" lon="12.324283804275025"><ele>479.0</ele><time>2026-04-23T08:51:40Z</time></trkpt><trkpt lat="46.30565025613186" lon="12.32415277661465"><ele>479.0</ele><time>2026-04-23T08:51:41Z</time></trkpt><trkpt lat="46.305497957182645" lon="12.324035460101381"><ele>474.0</ele><time>2026-04-23T08:51:42Z</time></trkpt><trkpt lat="46.305360473962104" lon="12.323923027194933"><ele>469.0</ele><time>2026-04-23T08:51:43Z</time></trkpt><trkpt lat="46.305207396125546" lon="12.323843923040341"><ele>464.0</ele><time>2026-04-23T08:51:44Z</time></trkpt><trkpt lat="46.30503617638866" lon="12.323833722294143"><ele>462.0</ele><time>2026-04-23T08:51:45Z</time></trkpt><trkpt lat="46.30485452789896" lon="12.323852293093836"><ele>460.0</ele><time>2026-04-23T08:51:46Z</time></trkpt><trkpt lat="46.304660843969174" lon="12.323908443700244"><ele>458.0</ele><time>2026-04-23T08:51:47Z</time></trkpt><trkpt lat="46.304473833804636" lon="12.32389506261534"><ele>470.0</ele><time>2026-04-23T08:51:48Z</time></trkpt><trkpt lat="46.3042927081337" lon="12.323857881933632"><ele>482.0</ele><time>2026-04-23T08:51:49Z</time></trkpt><trkpt lat="46.304108726367396" lon="12.323813302679273"><ele>494.0</ele><time>2026-04-23T08:51:50Z</time></trkpt><trkpt lat="46.303936124158426" lon="12.323725795272871"><ele>485.66666666666663</ele><time>2026-04-23T08:51:51Z</time></trkpt><trkpt lat="46.30377932490985" lon="12.323650379599355"><ele>477.33333333333337</ele><time>2026-04-23T08:51:52Z</time></trkpt><trkpt lat="46.303650667058314" lon="12.32353575722308"><ele>469.0</ele><time>2026-04-23T08:51:53Z</time></trkpt><trkpt lat="46.3035070040282" lon="12.323418319798535"><ele>469.0</ele><time>2026-04-23T08:51:54Z</time></trkpt><trkpt lat="46.30337379545409" lon="12.323224838727967"><ele>469.0</ele><time>2026-04-23T08:51:55Z</time></trkpt><trkpt lat="46.30324016057533" lon="12.32304978155951"><ele>469.0</ele><time>2026-04-23T08:51:56Z</time></trkpt><trkpt lat="46.303137184522" lon="12.322869654094507"><ele>466.33333333333337</ele><time>2026-04-23T08:51:57Z</time></trkpt><trkpt lat="46.30304931202137" lon="12.322674200148608"><ele>463.66666666666663</ele><time>2026-04-23T08:51:58Z</time></trkpt><trkpt lat="46.302943750492354" lon="12.322467689879801"><ele>461.0</ele><time>2026-04-23T08:51:59Z</time></trkpt><trkpt lat="46.30285649117116" lon="12.322232477328182"><ele>463.66666666666663</ele><time>2026-04-23T08:52:00Z</time></trkpt><trkpt lat="46.30276357695229" lon="12.321995006431381"><ele>466.33333333333337</ele><time>2026-04-23T08:52:01Z</time></trkpt><trkpt lat="46.30267393337879" lon="12.32175102601028"><ele>469.0</ele><time>2026-04-23T08:52:02Z</time></trkpt><trkpt lat="46.302594578022855" lon="12.321498299790017"><ele>471.33333333333337</ele><time>2026-04-23T08:52:03Z</time></trkpt><trkpt lat="46.302519893004245" lon="12.321239833840824"><ele>473.66666666666663</ele><time>2026-04-23T08:52:04Z</time></trkpt><trkpt lat="46.30244344340428" lon="12.320978958349537"><ele>476.0</ele><time>2026-04-23T08:52:05Z</time></trkpt><trkpt lat="46.30236081261914" lon="12.320725329634003"><ele>478.3333333333333</ele><time>2026-04-23T08:52:06Z</time></trkpt><trkpt lat="46.302277906017366" lon="12.320469647812915"><ele>480.66666666666663</ele><time>2026-04-23T08:52:07Z</time></trkpt><trkpt lat="46.30219552466444" lon="12.320214574141398"><ele>483.0</ele><time>2026-04-23T08:52:08Z</time></trkpt><trkpt lat="46.3021195471991" lon="12.319961731689407"><ele>475.66666666666663</ele><time>2026-04-23T08:52:09Z</time></trkpt><trkpt lat="46.302044619330275" lon="12.319711465000468"><ele>468.3333333333333</ele><time>2026-04-23T08:52:10Z</time></trkpt><trkpt lat="46.30196778795843" lon="12.319464135114819"><ele>461.0</ele><time>2026-04-23T08:52:11Z</time></trkpt><trkpt lat="46.30189004846011" lon="12.31921575286862"><ele>461.0</ele><time>2026-04-23T08:52:12Z</time></trkpt><trkpt lat="46.30181558627954" lon="12.31896278633518"><ele>461.0</ele><time>2026-04-23T08:52:13Z</time></trkpt><trkpt lat="46.30174330851518" lon="12.318705078784554"><ele>461.0</ele><time>2026-04-23T08:52:14Z</time></trkpt><trkpt lat="46.30167398204475" lon="12.318444510568025"><ele>462.3333333333333</ele><time>2026-04-23T08:52:15Z</time></trkpt><trkpt lat="46.301601434262736" lon="12.31819027110433"><ele>463.66666666666663</ele><time>2026-04-23T08:52:16Z</time></trkpt><trkpt lat="46.301515852761774" lon="12.317952424747117"><ele>465.0</ele><time>2026-04-23T08:52:17Z</time></trkpt><trkpt lat="46.30141326832357" lon="12.31771366027808"><ele>465.0</ele><time>2026-04-23T08:52:18Z</time></trkpt><trkpt lat="46.30129318117315" lon="12.317502000981344"><ele>465.0</ele><time>2026-04-23T08:52:19Z</time></trkpt><trkpt lat="46.30115899823801" lon="12.317305775737568"><ele>465.0</ele><time>2026-04-23T08:52:20Z</time></trkpt><trkpt lat="46.301013220947" lon="12.317119285932227"><ele>462.66666666666663</ele><time>2026-04-23T08:52:21Z</time></trkpt><trkpt lat="46.30086112137302" lon="12.316938973469304"><ele>460.3333333333333</ele><time>2026-04-23T08:52:22Z</time></trkpt><trkpt lat="46.300712783555134" lon="12.316745054026576"><ele>458.0</ele><time>2026-04-23T08:52:23Z</time></trkpt><trkpt lat="46.30056507947187" lon="12.316566577518108"><ele>466.3333333333333</ele><time>2026-04-23T08:52:24Z</time></trkpt><trkpt lat="46.30043073276554" lon="12.316391285737245"><ele>474.66666666666663</ele><time>2026-04-23T08:52:25Z</time></trkpt><trkpt lat="46.30030871802227" lon="12.316191017807602"><ele>483.0</ele><time>2026-04-23T08:52:26Z</time></trkpt><trkpt lat="46.30018930819325" lon="12.315981361281787"><ele>483.0</ele><time>2026-04-23T08:52:26.999Z</time></trkpt><trkpt lat="46.30010326104598" lon="12.315745884814351"><ele>483.0</ele><time>2026-04-23T08:52:27.999Z</time></trkpt><trkpt lat="46.299993088923095" lon="12.315540980604966"><ele>483.0</ele><time>2026-04-23T08:52:28.999Z</time></trkpt><trkpt lat="46.299879196879104" lon="12.315354778279616"><ele>479.66666666666663</ele><time>2026-04-23T08:52:29.999Z</time></trkpt><trkpt lat="46.29972009005418" lon="12.315211532011533"><ele>476.3333333333333</ele><time>2026-04-23T08:52:30.999Z</time></trkpt><trkpt lat="46.2995347200705" lon="12.315092259346176"><ele>473.0</ele><time>2026-04-23T08:52:31.999Z</time></trkpt><trkpt lat="46.29934125268101" lon="12.31499319106156"><ele>473.0</ele><time>2026-04-23T08:52:32.999Z</time></trkpt><trkpt lat="46.299147401619976" lon="12.314871389124432"><ele>473.0</ele><time>2026-04-23T08:52:33.999Z</time></trkpt><trkpt lat="46.29896127820185" lon="12.314730341208097"><ele>473.0</ele><time>2026-04-23T08:52:34.999Z</time></trkpt><trkpt lat="46.29878913932766" lon="12.314561602691152"><ele>475.0</ele><time>2026-04-23T08:52:35.999Z</time></trkpt><trkpt lat="46.29862687099762" lon="12.314397482050984"><ele>477.0</ele><time>2026-04-23T08:52:36.999Z</time></trkpt><trkpt lat="46.298463170643615" lon="12.31427099336625"><ele>479.0</ele><time>2026-04-23T08:52:37.999Z</time></trkpt><trkpt lat="46.29829892740322" lon="12.314166334136843"><ele>479.0</ele><time>2026-04-23T08:52:38.999Z</time></trkpt><trkpt lat="46.29813123421283" lon="12.314108501683588"><ele>479.0</ele><time>2026-04-23T08:52:39.999Z</time></trkpt><trkpt lat="46.29796676800832" lon="12.314055514270262"><ele>479.0</ele><time>2026-04-23T08:52:40.999Z</time></trkpt><trkpt lat="46.29781474193964" lon="12.313951372129903"><ele>482.66666666666663</ele><time>2026-04-23T08:52:41.999Z</time></trkpt><trkpt lat="46.29767001610543" lon="12.313790111715901"><ele>486.33333333333337</ele><time>2026-04-23T08:52:42.999Z</time></trkpt><trkpt lat="46.29752450818158" lon="12.313598076145043"><ele>490.0</ele><time>2026-04-23T08:52:43.999Z</time></trkpt><trkpt lat="46.29737600887285" lon="12.313401007997674"><ele>485.6666666666667</ele><time>2026-04-23T08:52:44.999Z</time></trkpt><trkpt lat="46.29720813463457" lon="12.313227290263852"><ele>481.33333333333337</ele><time>2026-04-23T08:52:45.999Z</time></trkpt><trkpt lat="46.29704330091786" lon="12.313036996631665"><ele>477.0</ele><time>2026-04-23T08:52:46.999Z</time></trkpt><trkpt lat="46.29687136670285" lon="12.31285241323515"><ele>477.0</ele><time>2026-04-23T08:52:47.999Z</time></trkpt><trkpt lat="46.29671261057121" lon="12.312674143158869"><ele>477.0</ele><time>2026-04-23T08:52:48.999Z</time></trkpt><trkpt lat="46.296563952479985" lon="12.31250721910728"><ele>477.0</ele><time>2026-04-23T08:52:49.999Z</time></trkpt><trkpt lat="46.296423747339844" lon="12.312347227991124"><ele>474.5</ele><time>2026-04-23T08:52:50.999Z</time></trkpt><trkpt lat="46.29629156407043" lon="12.312202265239721"><ele>472.0</ele><time>2026-04-23T08:52:51.999Z</time></trkpt><trkpt lat="46.2961772640553" lon="12.312076229043594"><ele>469.5</ele><time>2026-04-23T08:52:52.999Z</time></trkpt><trkpt lat="46.29607817082631" lon="12.311973497150552"><ele>467.0</ele><time>2026-04-23T08:52:53.999Z</time></trkpt><trkpt lat="46.29599410227874" lon="12.311883754642729"><ele>467.0</ele><time>2026-04-23T08:52:54.999Z</time></trkpt><trkpt lat="46.295920687016825" lon="12.311789287348967"><ele>467.00000000000006</ele><time>2026-04-23T08:52:55.999Z</time></trkpt><trkpt lat="46.29585546261676" lon="12.311690188967226"><ele>467.00000000000006</ele><time>2026-04-23T08:52:56.999Z</time></trkpt><trkpt lat="46.29579864606191" lon="12.311593935944073"><ele>467.0</ele><time>2026-04-23T08:52:57.999Z</time></trkpt><trkpt lat="46.29575162695219" lon="12.311501949779537"><ele>467.0</ele><time>2026-04-23T08:52:58.999Z</time></trkpt><trkpt lat="46.29570351020024" lon="12.311333816412832"><ele>469.0</ele><time>2026-04-23T08:53:00.999Z</time></trkpt><trkpt lat="46.29566326097819" lon="12.311220394366542"><ele>471.0</ele><time>2026-04-23T08:53:01.999Z</time></trkpt><trkpt lat="46.29558663414852" lon="12.31109302279381"><ele>473.0</ele><time>2026-04-23T08:53:02.999Z</time></trkpt><trkpt lat="46.29548736537923" lon="12.310965924085247"><ele>475.0</ele><time>2026-04-23T08:53:03.999Z</time></trkpt><trkpt lat="46.29537178973781" lon="12.310838663592577"><ele>475.0</ele><time>2026-04-23T08:53:04.999Z</time></trkpt><trkpt lat="46.29525727606877" lon="12.31069698776466"><ele>475.0</ele><time>2026-04-23T08:53:05.999Z</time></trkpt><trkpt lat="46.29514117935208" lon="12.310564493505394"><ele>475.0</ele><time>2026-04-23T08:53:06.999Z</time></trkpt><trkpt lat="46.29503672377405" lon="12.310471706149816"><ele>475.0</ele><time>2026-04-23T08:53:07.999Z</time></trkpt><trkpt lat="46.29484521868741" lon="12.310473705427178"><ele>471.33333333333337</ele><time>2026-04-23T08:53:08.999Z</time></trkpt><trkpt lat="46.294685583494754" lon="12.31051266622947"><ele>467.66666666666663</ele><time>2026-04-23T08:53:09.999Z</time></trkpt><trkpt lat="46.29452116541726" lon="12.31057643277638"><ele>464.0</ele><time>2026-04-23T08:53:10.999Z</time></trkpt><trkpt lat="46.294349452133545" lon="12.310608175249127"><ele>464.0</ele><time>2026-04-23T08:53:11.999Z</time></trkpt><trkpt lat="46.29416638468155" lon="12.310598524870844"><ele>464.0</ele><time>2026-04-23T08:53:12.999Z</time></trkpt><trkpt lat="46.293971658836014" lon="12.310591506294015"><ele>464.0</ele><time>2026-04-23T08:53:13.999Z</time></trkpt><trkpt lat="46.2937829911517" lon="12.310626278347938"><ele>466.66666666666663</ele><time>2026-04-23T08:53:14.999Z</time></trkpt><trkpt lat="46.29359452237629" lon="12.310691238878173"><ele>469.33333333333337</ele><time>2026-04-23T08:53:15.999Z</time></trkpt><trkpt lat="46.29340351169434" lon="12.310769186020455"><ele>472.0</ele><time>2026-04-23T08:53:16.999Z</time></trkpt><trkpt lat="46.293206122314935" lon="12.310803669885113"><ele>470.0</ele><time>2026-04-23T08:53:17.999Z</time></trkpt><trkpt lat="46.2930010241929" lon="12.31079668458345"><ele>468.0</ele><time>2026-04-23T08:53:18.999Z</time></trkpt><trkpt lat="46.292802796566946" lon="12.310767713544264"><ele>466.0</ele><time>2026-04-23T08:53:19.999Z</time></trkpt><trkpt lat="46.29260514183477" lon="12.310741636790436"><ele>466.0</ele><time>2026-04-23T08:53:20.999Z</time></trkpt><trkpt lat="46.29240283674171" lon="12.310728834683976"><ele>466.0</ele><time>2026-04-23T08:53:21.999Z</time></trkpt><trkpt lat="46.2922009594822" lon="12.310718760921992"><ele>466.0</ele><time>2026-04-23T08:53:22.999Z</time></trkpt><trkpt lat="46.29199794154957" lon="12.310702040960448"><ele>466.6666666666667</ele><time>2026-04-23T08:53:23.999Z</time></trkpt><trkpt lat="46.29179533240935" lon="12.310673672478732"><ele>467.33333333333337</ele><time>2026-04-23T08:53:24.999Z</time></trkpt><trkpt lat="46.29159338521572" lon="12.310640719582343"><ele>468.0</ele><time>2026-04-23T08:53:25.999Z</time></trkpt><trkpt lat="46.291387481461285" lon="12.31060466127008"><ele>476.33333333333337</ele><time>2026-04-23T08:53:26.999Z</time></trkpt><trkpt lat="46.291178693931464" lon="12.310568165374054"><ele>484.6666666666667</ele><time>2026-04-23T08:53:27.999Z</time></trkpt><trkpt lat="46.29096800457402" lon="12.310533456733987"><ele>493.0</ele><time>2026-04-23T08:53:28.999Z</time></trkpt><trkpt lat="46.290756478296544" lon="12.310503227075259"><ele>492.6666666666667</ele><time>2026-04-23T08:53:29.999Z</time></trkpt><trkpt lat="46.290543316347325" lon="12.3104764661701"><ele>492.33333333333337</ele><time>2026-04-23T08:53:30.999Z</time></trkpt><trkpt lat="46.29032908506549" lon="12.310454872425192"><ele>492.0</ele><time>2026-04-23T08:53:31.999Z</time></trkpt><trkpt lat="46.29011425422774" lon="12.310441452349199"><ele>492.0</ele><time>2026-04-23T08:53:32.998Z</time></trkpt><trkpt lat="46.289899688107425" lon="12.310446589077763"><ele>492.0</ele><time>2026-04-23T08:53:33.998Z</time></trkpt><trkpt lat="46.28968592918599" lon="12.310464677325816"><ele>492.0</ele><time>2026-04-23T08:53:34.998Z</time></trkpt><trkpt lat="46.28947377434782" lon="12.310492361389997"><ele>494.33333333333337</ele><time>2026-04-23T08:53:35.998Z</time></trkpt><trkpt lat="46.28926489647668" lon="12.310520704193344"><ele>496.6666666666667</ele><time>2026-04-23T08:53:36.998Z</time></trkpt><trkpt lat="46.28905220544783" lon="12.310549866773465"><ele>499.0</ele><time>2026-04-23T08:53:37.998Z</time></trkpt><trkpt lat="46.28883584715875" lon="12.310579777873581"><ele>492.0</ele><time>2026-04-23T08:53:38.998Z</time></trkpt><trkpt lat="46.2886256665016" lon="12.310608493140398"><ele>485.0</ele><time>2026-04-23T08:53:39.998Z</time></trkpt><trkpt lat="46.28842213767863" lon="12.310635279094674"><ele>478.0</ele><time>2026-04-23T08:53:40.998Z</time></trkpt><trkpt lat="46.28821481118136" lon="12.310664326952486"><ele>480.33333333333337</ele><time>2026-04-23T08:53:41.998Z</time></trkpt><trkpt lat="46.288005677326424" lon="12.310695448092256"><ele>482.66666666666663</ele><time>2026-04-23T08:53:42.998Z</time></trkpt><trkpt lat="46.287797737697" lon="12.310731356487548"><ele>485.0</ele><time>2026-04-23T08:53:44Z</time></trkpt><trkpt lat="46.28759068285469" lon="12.310765059915871"><ele>485.0</ele><time>2026-04-23T08:53:45Z</time></trkpt><trkpt lat="46.287385657726446" lon="12.310796115999828"><ele>485.0</ele><time>2026-04-23T08:53:46Z</time></trkpt><trkpt lat="46.287183287218205" lon="12.310827793288944"><ele>485.0</ele><time>2026-04-23T08:53:47Z</time></trkpt><trkpt lat="46.28698208839844" lon="12.310859983807614"><ele>485.3333333333333</ele><time>2026-04-23T08:53:48Z</time></trkpt><trkpt lat="46.28678027484418" lon="12.310891461081923"><ele>485.66666666666663</ele><time>2026-04-23T08:53:49Z</time></trkpt><trkpt lat="46.28657652483006" lon="12.310909104784956"><ele>486.0</ele><time>2026-04-23T08:53:50Z</time></trkpt><trkpt lat="46.28637032932322" lon="12.310893054809588"><ele>486.0</ele><time>2026-04-23T08:53:51Z</time></trkpt><trkpt lat="46.28616639174258" lon="12.310837643599202"><ele>486.0</ele><time>2026-04-23T08:53:52Z</time></trkpt><trkpt lat="46.285964072982345" lon="12.310751947105917"><ele>486.0</ele><time>2026-04-23T08:53:53Z</time></trkpt><trkpt lat="46.2857631333727" lon="12.310645821987535"><ele>487.0</ele><time>2026-04-23T08:53:54Z</time></trkpt><trkpt lat="46.28556970188506" lon="12.310492242733934"><ele>488.0</ele><time>2026-04-23T08:53:55Z</time></trkpt><trkpt lat="46.28538595215415" lon="12.310312036602921"><ele>489.0</ele><time>2026-04-23T08:53:56Z</time></trkpt><trkpt lat="46.28521401087073" lon="12.310123541781797"><ele>489.0</ele><time>2026-04-23T08:53:57Z</time></trkpt><trkpt lat="46.28503687021035" lon="12.309946277909427"><ele>489.0</ele><time>2026-04-23T08:53:58Z</time></trkpt><trkpt lat="46.28484908655773" lon="12.309796530401284"><ele>489.0</ele><time>2026-04-23T08:53:59Z</time></trkpt><trkpt lat="46.284653622562836" lon="12.309660059980969"><ele>490.0</ele><time>2026-04-23T08:54:00Z</time></trkpt><trkpt lat="46.28445979747535" lon="12.309527531345838"><ele>491.0</ele><time>2026-04-23T08:54:01Z</time></trkpt><trkpt lat="46.284272768681525" lon="12.30938568762003"><ele>492.0</ele><time>2026-04-23T08:54:02Z</time></trkpt><trkpt lat="46.284093729987845" lon="12.309230910051374"><ele>491.33333333333337</ele><time>2026-04-23T08:54:03Z</time></trkpt><trkpt lat="46.28392292720856" lon="12.309065260976398"><ele>490.6666666666667</ele><time>2026-04-23T08:54:04Z</time></trkpt><trkpt lat="46.28376075452373" lon="12.308894798668726"><ele>490.0</ele><time>2026-04-23T08:54:05Z</time></trkpt><trkpt lat="46.28360142727142" lon="12.308724888980246"><ele>490.0</ele><time>2026-04-23T08:54:06Z</time></trkpt><trkpt lat="46.2834483198367" lon="12.308568451476084"><ele>490.0</ele><time>2026-04-23T08:54:07Z</time></trkpt><trkpt lat="46.28330557329657" lon="12.308420810922597"><ele>490.0</ele><time>2026-04-23T08:54:08Z</time></trkpt><trkpt lat="46.28317113416861" lon="12.308278763571025"><ele>489.0</ele><time>2026-04-23T08:54:09Z</time></trkpt><trkpt lat="46.283048343339416" lon="12.308140828422344"><ele>488.0</ele><time>2026-04-23T08:54:10Z</time></trkpt><trkpt lat="46.28293754402267" lon="12.30798996317751"><ele>487.0</ele><time>2026-04-23T08:54:11Z</time></trkpt><trkpt lat="46.28285105386497" lon="12.307804401815417"><ele>487.0</ele><time>2026-04-23T08:54:12Z</time></trkpt><trkpt lat="46.282796395432605" lon="12.307594159389055"><ele>487.0</ele><time>2026-04-23T08:54:13Z</time></trkpt><trkpt lat="46.28276352974937" lon="12.307370340350795"><ele>487.0</ele><time>2026-04-23T08:54:14Z</time></trkpt><trkpt lat="46.28273456736677" lon="12.307142667735713"><ele>487.6666666666667</ele><time>2026-04-23T08:54:15Z</time></trkpt><trkpt lat="46.282699568963615" lon="12.306915400927021"><ele>488.33333333333337</ele><time>2026-04-23T08:54:16Z</time></trkpt><trkpt lat="46.282673388405904" lon="12.306677213291449"><ele>489.0</ele><time>2026-04-23T08:54:17Z</time></trkpt><trkpt lat="46.282668817872036" lon="12.306421419503062"><ele>489.33333333333337</ele><time>2026-04-23T08:54:18Z</time></trkpt><trkpt lat="46.282683937653694" lon="12.306154304266432"><ele>489.6666666666667</ele><time>2026-04-23T08:54:19Z</time></trkpt><trkpt lat="46.28270095524597" lon="12.305886939200056"><ele>490.0</ele><time>2026-04-23T08:54:20Z</time></trkpt><trkpt lat="46.28271509430583" lon="12.305624237883446"><ele>490.0</ele><time>2026-04-23T08:54:21Z</time></trkpt><trkpt lat="46.28273073527239" lon="12.305380373661606"><ele>490.0</ele><time>2026-04-23T08:54:22Z</time></trkpt><trkpt lat="46.28273328939213" lon="12.305138212299774"><ele>490.0</ele><time>2026-04-23T08:54:23Z</time></trkpt><trkpt lat="46.28270694728488" lon="12.304898023075188"><ele>496.0</ele><time>2026-04-23T08:54:24Z</time></trkpt><trkpt lat="46.282649319531004" lon="12.304665744868426"><ele>502.0</ele><time>2026-04-23T08:54:25Z</time></trkpt><trkpt lat="46.28255923832436" lon="12.304457202054548"><ele>508.0</ele><time>2026-04-23T08:54:26Z</time></trkpt><trkpt lat="46.282438346699244" lon="12.304269805677043"><ele>508.0</ele><time>2026-04-23T08:54:27Z</time></trkpt><trkpt lat="46.28229431584457" lon="12.304103848146559"><ele>508.0</ele><time>2026-04-23T08:54:28Z</time></trkpt><trkpt lat="46.28213853750066" lon="12.303943494372488"><ele>508.0</ele><time>2026-04-23T08:54:29Z</time></trkpt><trkpt lat="46.281976007527966" lon="12.303801161776164"><ele>507.0</ele><time>2026-04-23T08:54:30Z</time></trkpt><trkpt lat="46.28179517254568" lon="12.303707225776456"><ele>506.0</ele><time>2026-04-23T08:54:31Z</time></trkpt><trkpt lat="46.28159926558139" lon="12.303649493708331"><ele>505.0</ele><time>2026-04-23T08:54:31.999Z</time></trkpt><trkpt lat="46.28139899067379" lon="12.303593065093587"><ele>505.0</ele><time>2026-04-23T08:54:32.999Z</time></trkpt><trkpt lat="46.28120180719929" lon="12.303516504083282"><ele>505.0</ele><time>2026-04-23T08:54:33.999Z</time></trkpt><trkpt lat="46.281008726196866" lon="12.303424805549449"><ele>505.0</ele><time>2026-04-23T08:54:34.999Z</time></trkpt><trkpt lat="46.28082490335594" lon="12.303305796655874"><ele>505.0</ele><time>2026-04-23T08:54:35.999Z</time></trkpt><trkpt lat="46.280655548942725" lon="12.3031591909535"><ele>505.0</ele><time>2026-04-23T08:54:36.999Z</time></trkpt><trkpt lat="46.28049085925749" lon="12.303015032874235"><ele>505.0</ele><time>2026-04-23T08:54:37.999Z</time></trkpt><trkpt lat="46.28031355611168" lon="12.302905849315565"><ele>504.33333333333337</ele><time>2026-04-23T08:54:38.999Z</time></trkpt><trkpt lat="46.28011665191796" lon="12.302844770614271"><ele>503.66666666666663</ele><time>2026-04-23T08:54:39.999Z</time></trkpt><trkpt lat="46.27990859119906" lon="12.302806625435599"><ele>503.0</ele><time>2026-04-23T08:54:40.999Z</time></trkpt><trkpt lat="46.2796947400547" lon="12.3027801280055"><ele>503.0</ele><time>2026-04-23T08:54:41.999Z</time></trkpt><trkpt lat="46.279487742004285" lon="12.302753796997763"><ele>503.0</ele><time>2026-04-23T08:54:42.999Z</time></trkpt><trkpt lat="46.279294523976425" lon="12.302728169287963"><ele>503.0</ele><time>2026-04-23T08:54:43.999Z</time></trkpt><trkpt lat="46.279121908829765" lon="12.302698125490492"><ele>503.0</ele><time>2026-04-23T08:54:44.999Z</time></trkpt><trkpt lat="46.27895977889124" lon="12.302646417049258"><ele>503.0</ele><time>2026-04-23T08:54:45.999Z</time></trkpt><trkpt lat="46.278813179466866" lon="12.302546680666975"><ele>503.0</ele><time>2026-04-23T08:54:46.999Z</time></trkpt><trkpt lat="46.27868244197054" lon="12.302388581223966"><ele>507.66666666666663</ele><time>2026-04-23T08:54:47.999Z</time></trkpt><trkpt lat="46.27855281020085" lon="12.302215246332683"><ele>512.3333333333334</ele><time>2026-04-23T08:54:48.999Z</time></trkpt><trkpt lat="46.278414166362076" lon="12.302098875819489"><ele>517.0</ele><time>2026-04-23T08:54:49.999Z</time></trkpt><trkpt lat="46.27827587369536" lon="12.301947830329137"><ele>517.0</ele><time>2026-04-23T08:54:50.999Z</time></trkpt><trkpt lat="46.27810988976379" lon="12.30183730562286"><ele>517.0</ele><time>2026-04-23T08:54:51.999Z</time></trkpt><trkpt lat="46.277938500303364" lon="12.301735514786726"><ele>517.0</ele><time>2026-04-23T08:54:52.999Z</time></trkpt><trkpt lat="46.27776568781033" lon="12.301614055630974"><ele>519.3333333333334</ele><time>2026-04-23T08:54:53.999Z</time></trkpt><trkpt lat="46.27760247001304" lon="12.301464779227997"><ele>521.6666666666666</ele><time>2026-04-23T08:54:54.999Z</time></trkpt><trkpt lat="46.27744245831416" lon="12.301304976758985"><ele>524.0</ele><time>2026-04-23T08:54:55.999Z</time></trkpt><trkpt lat="46.27729000323907" lon="12.301139012742906"><ele>515.3333333333333</ele><time>2026-04-23T08:54:56.999Z</time></trkpt><trkpt lat="46.27715304252981" lon="12.300976664845129"><ele>506.66666666666663</ele><time>2026-04-23T08:54:57.999Z</time></trkpt><trkpt lat="46.27701034923783" lon="12.300858161531341"><ele>498.0</ele><time>2026-04-23T08:54:58.999Z</time></trkpt><trkpt lat="46.2768602301751" lon="12.300785834319338"><ele>498.0</ele><time>2026-04-23T08:54:59.999Z</time></trkpt><trkpt lat="46.276691214421845" lon="12.300761794934328"><ele>498.0</ele><time>2026-04-23T08:55:00.999Z</time></trkpt><trkpt lat="46.276510046846504" lon="12.30077808088315"><ele>498.0</ele><time>2026-04-23T08:55:01.999Z</time></trkpt><trkpt lat="46.27631913299679" lon="12.300811887135486"><ele>497.0</ele><time>2026-04-23T08:55:02.999Z</time></trkpt><trkpt lat="46.27612264697324" lon="12.300857584547567"><ele>496.0</ele><time>2026-04-23T08:55:03.999Z</time></trkpt><trkpt lat="46.275924787308455" lon="12.300881989068499"><ele>495.0</ele><time>2026-04-23T08:55:04.999Z</time></trkpt><trkpt lat="46.27572363248155" lon="12.300892590130646"><ele>493.33333333333337</ele><time>2026-04-23T08:55:05.999Z</time></trkpt><trkpt lat="46.27552012147222" lon="12.300903967331816"><ele>491.6666666666667</ele><time>2026-04-23T08:55:06.999Z</time></trkpt><trkpt lat="46.27532049888116" lon="12.300920852681624"><ele>490.0</ele><time>2026-04-23T08:55:07.999Z</time></trkpt><trkpt lat="46.275119229413825" lon="12.300933741430685"><ele>490.0</ele><time>2026-04-23T08:55:08.999Z</time></trkpt><trkpt lat="46.27492711269214" lon="12.300949232108982"><ele>490.0</ele><time>2026-04-23T08:55:09.999Z</time></trkpt><trkpt lat="46.27474396255953" lon="12.300970091169292"><ele>490.0</ele><time>2026-04-23T08:55:10.999Z</time></trkpt><trkpt lat="46.27456035504377" lon="12.300989658152757"><ele>489.0</ele><time>2026-04-23T08:55:11.999Z</time></trkpt><trkpt lat="46.27437264815905" lon="12.301001451474267"><ele>488.0</ele><time>2026-04-23T08:55:12.999Z</time></trkpt><trkpt lat="46.27418328397578" lon="12.301009308351565"><ele>487.0</ele><time>2026-04-23T08:55:13.999Z</time></trkpt><trkpt lat="46.2739955675414" lon="12.301005645891879"><ele>484.33333333333337</ele><time>2026-04-23T08:55:14.999Z</time></trkpt><trkpt lat="46.27380907533674" lon="12.300970406791919"><ele>481.66666666666663</ele><time>2026-04-23T08:55:15.999Z</time></trkpt><trkpt lat="46.27362138510414" lon="12.300922781277757"><ele>479.0</ele><time>2026-04-23T08:55:16.999Z</time></trkpt><trkpt lat="46.273435169666826" lon="12.30087689398272"><ele>479.0</ele><time>2026-04-23T08:55:17.999Z</time></trkpt><trkpt lat="46.27324991830221" lon="12.300829929591567"><ele>479.0</ele><time>2026-04-23T08:55:18.999Z</time></trkpt><trkpt lat="46.27307586954721" lon="12.300747058105811"><ele>479.0</ele><time>2026-04-23T08:55:19.999Z</time></trkpt><trkpt lat="46.27290051705465" lon="12.300698766120357"><ele>475.66666666666663</ele><time>2026-04-23T08:55:20.999Z</time></trkpt><trkpt lat="46.27272945938799" lon="12.300628625038385"><ele>472.33333333333337</ele><time>2026-04-23T08:55:21.999Z</time></trkpt><trkpt lat="46.272562781385275" lon="12.300550786630659"><ele>469.0</ele><time>2026-04-23T08:55:22.999Z</time></trkpt><trkpt lat="46.27240412945503" lon="12.300490073851247"><ele>475.0</ele><time>2026-04-23T08:55:23.999Z</time></trkpt><trkpt lat="46.27225349373123" lon="12.300442733398539"><ele>481.0</ele><time>2026-04-23T08:55:24.999Z</time></trkpt><trkpt lat="46.27209997292535" lon="12.300428515684134"><ele>487.0</ele><time>2026-04-23T08:55:25.999Z</time></trkpt><trkpt lat="46.27194245394957" lon="12.300449799116212"><ele>487.0</ele><time>2026-04-23T08:55:26.999Z</time></trkpt><trkpt lat="46.27178308992905" lon="12.300507716000768"><ele>487.0</ele><time>2026-04-23T08:55:27.999Z</time></trkpt><trkpt lat="46.27162037491665" lon="12.300592421972235"><ele>487.0</ele><time>2026-04-23T08:55:28.999Z</time></trkpt><trkpt lat="46.27145772493146" lon="12.30068991191381"><ele>483.6666666666667</ele><time>2026-04-23T08:55:29.999Z</time></trkpt><trkpt lat="46.27129614792418" lon="12.300792609465933"><ele>480.33333333333337</ele><time>2026-04-23T08:55:30.999Z</time></trkpt><trkpt lat="46.27112992656439" lon="12.300897890111656"><ele>477.0</ele><time>2026-04-23T08:55:31.999Z</time></trkpt><trkpt lat="46.27096177978882" lon="12.301005555288334"><ele>477.0</ele><time>2026-04-23T08:55:32.999Z</time></trkpt><trkpt lat="46.27079302473905" lon="12.301115174515234"><ele>477.0</ele><time>2026-04-23T08:55:33.999Z</time></trkpt><trkpt lat="46.27062504958759" lon="12.301230710244026"><ele>477.0</ele><time>2026-04-23T08:55:34.999Z</time></trkpt><trkpt lat="46.27045664459709" lon="12.301353373970978"><ele>474.0</ele><time>2026-04-23T08:55:35.999Z</time></trkpt><trkpt lat="46.270289269652615" lon="12.301471059713084"><ele>471.0</ele><time>2026-04-23T08:55:36.998Z</time></trkpt><trkpt lat="46.270117352811475" lon="12.301576753028591"><ele>468.0</ele><time>2026-04-23T08:55:37.998Z</time></trkpt><trkpt lat="46.26993711275361" lon="12.30166073771558"><ele>469.0</ele><time>2026-04-23T08:55:38.998Z</time></trkpt><trkpt lat="46.26974774498759" lon="12.301721884284673"><ele>470.0</ele><time>2026-04-23T08:55:39.998Z</time></trkpt><trkpt lat="46.2695458618585" lon="12.301746672912348"><ele>471.0</ele><time>2026-04-23T08:55:40.998Z</time></trkpt><trkpt lat="46.26934038787444" lon="12.301758212379777"><ele>471.0</ele><time>2026-04-23T08:55:41.998Z</time></trkpt><trkpt lat="46.26913275599329" lon="12.301768985074665"><ele>471.0</ele><time>2026-04-23T08:55:42.998Z</time></trkpt><trkpt lat="46.26892559648407" lon="12.301777109510814"><ele>471.0</ele><time>2026-04-23T08:55:43.998Z</time></trkpt><trkpt lat="46.26871931498431" lon="12.30178033604656"><ele>470.66666666666663</ele><time>2026-04-23T08:55:44.998Z</time></trkpt><trkpt lat="46.26851706442243" lon="12.301757393224989"><ele>470.3333333333333</ele><time>2026-04-23T08:55:45.998Z</time></trkpt><trkpt lat="46.268328286812164" lon="12.30170222083935"><ele>470.0</ele><time>2026-04-23T08:55:46.998Z</time></trkpt><trkpt lat="46.26814042712802" lon="12.301625298823454"><ele>469.0</ele><time>2026-04-23T08:55:47.998Z</time></trkpt><trkpt lat="46.267949372553936" lon="12.301557277207548"><ele>468.0</ele><time>2026-04-23T08:55:48.998Z</time></trkpt><trkpt lat="46.267757026935634" lon="12.301501008847335"><ele>467.0</ele><time>2026-04-23T08:55:50Z</time></trkpt><trkpt lat="46.26757080953406" lon="12.30144882050696"><ele>471.0</ele><time>2026-04-23T08:55:51Z</time></trkpt><trkpt lat="46.267387464012884" lon="12.301399825678473"><ele>475.0</ele><time>2026-04-23T08:55:52Z</time></trkpt><trkpt lat="46.26702544469184" lon="12.30135014135393"><ele>475.6666666666667</ele><time>2026-04-23T08:55:54Z</time></trkpt><trkpt lat="46.26684345307317" lon="12.301362335209381"><ele>476.33333333333337</ele><time>2026-04-23T08:55:55Z</time></trkpt><trkpt lat="46.26666196451675" lon="12.301393147655519"><ele>477.0</ele><time>2026-04-23T08:55:56Z</time></trkpt><trkpt lat="46.266489979112244" lon="12.301423832620221"><ele>475.66666666666663</ele><time>2026-04-23T08:55:57Z</time></trkpt><trkpt lat="46.26632037685899" lon="12.301465499426376"><ele>474.3333333333333</ele><time>2026-04-23T08:55:58Z</time></trkpt><trkpt lat="46.266157996257434" lon="12.301503205882092"><ele>473.0</ele><time>2026-04-23T08:55:59Z</time></trkpt><trkpt lat="46.266001997681066" lon="12.301539560183619"><ele>473.0</ele><time>2026-04-23T08:56:00Z</time></trkpt><trkpt lat="46.26586206105427" lon="12.301575095698977"><ele>473.0</ele><time>2026-04-23T08:56:01Z</time></trkpt><trkpt lat="46.26573799372542" lon="12.30163417210463"><ele>473.0</ele><time>2026-04-23T08:56:02Z</time></trkpt><trkpt lat="46.26561964116933" lon="12.301718886088212"><ele>473.0</ele><time>2026-04-23T08:56:03Z</time></trkpt><trkpt lat="46.265503902916514" lon="12.301821496927698"><ele>473.25</ele><time>2026-04-23T08:56:04Z</time></trkpt><trkpt lat="46.26539023286348" lon="12.301937880226959"><ele>473.5</ele><time>2026-04-23T08:56:05Z</time></trkpt><trkpt lat="46.265287943551286" lon="12.302076858040909"><ele>473.75</ele><time>2026-04-23T08:56:06Z</time></trkpt><trkpt lat="46.26519513608851" lon="12.302219405617091"><ele>474.0</ele><time>2026-04-23T08:56:07Z</time></trkpt><trkpt lat="46.26510783219653" lon="12.30235178261004"><ele>474.0</ele><time>2026-04-23T08:56:08Z</time></trkpt><trkpt lat="46.26503403627466" lon="12.30247532671294"><ele>474.0</ele><time>2026-04-23T08:56:09Z</time></trkpt><trkpt lat="46.26497199364156" lon="12.302581322195834"><ele>474.0</ele><time>2026-04-23T08:56:10Z</time></trkpt><trkpt lat="46.264919084990844" lon="12.302654067711646"><ele>474.0</ele><time>2026-04-23T08:56:11Z</time></trkpt><trkpt lat="46.26485904610797" lon="12.3027789044344"><ele>474.0</ele><time>2026-04-23T08:56:13Z</time></trkpt><trkpt lat="46.26487284043015" lon="12.303000003012562"><ele>472.4</ele><time>2026-04-23T08:56:15Z</time></trkpt><trkpt lat="46.26492431366493" lon="12.303083336411436"><ele>470.79999999999995</ele><time>2026-04-23T08:56:16Z</time></trkpt><trkpt lat="46.264996225918225" lon="12.303143870916912"><ele>469.20000000000005</ele><time>2026-04-23T08:56:17Z</time></trkpt><trkpt lat="46.26508541701359" lon="12.303177607834241"><ele>467.6</ele><time>2026-04-23T08:56:18Z</time></trkpt><trkpt lat="46.26518568899164" lon="12.303177706276779"><ele>466.0</ele><time>2026-04-23T08:56:19Z</time></trkpt><trkpt lat="46.26529683905786" lon="12.30314395978114"><ele>466.0</ele><time>2026-04-23T08:56:20Z</time></trkpt><trkpt lat="46.265415366401" lon="12.303092221087098"><ele>466.0</ele><time>2026-04-23T08:56:21Z</time></trkpt><trkpt lat="46.26554002677629" lon="12.303028221776815"><ele>466.0</ele><time>2026-04-23T08:56:22Z</time></trkpt><trkpt lat="46.26567158688261" lon="12.302942804139592"><ele>466.0</ele><time>2026-04-23T08:56:23Z</time></trkpt><trkpt lat="46.2658084623653" lon="12.30284697720221"><ele>465.5</ele><time>2026-04-23T08:56:24Z</time></trkpt><trkpt lat="46.26594392413371" lon="12.302752191744338"><ele>465.0</ele><time>2026-04-23T08:56:25Z</time></trkpt><trkpt lat="46.26608011501517" lon="12.30266680702913"><ele>464.5</ele><time>2026-04-23T08:56:26Z</time></trkpt><trkpt lat="46.2662138104911" lon="12.30258697767681"><ele>464.0</ele><time>2026-04-23T08:56:27Z</time></trkpt><trkpt lat="46.26634528640082" lon="12.302515824497052"><ele>462.75</ele><time>2026-04-23T08:56:28Z</time></trkpt><trkpt lat="46.26648217522805" lon="12.30245748223775"><ele>461.5</ele><time>2026-04-23T08:56:29Z</time></trkpt><trkpt lat="46.26662785813012" lon="12.302423950445833"><ele>460.25</ele><time>2026-04-23T08:56:30Z</time></trkpt><trkpt lat="46.26677841129226" lon="12.302416328111883"><ele>459.0</ele><time>2026-04-23T08:56:31Z</time></trkpt><trkpt lat="46.26692735612068" lon="12.30243383006559"><ele>459.0</ele><time>2026-04-23T08:56:32Z</time></trkpt><trkpt lat="46.267075398604156" lon="12.302465009701335"><ele>459.0</ele><time>2026-04-23T08:56:33Z</time></trkpt><trkpt lat="46.26721266328" lon="12.302512610388023"><ele>459.0</ele><time>2026-04-23T08:56:34Z</time></trkpt><trkpt lat="46.26733360434609" lon="12.302602205993157"><ele>459.0</ele><time>2026-04-23T08:56:35Z</time></trkpt><trkpt lat="46.26745400872791" lon="12.302674792538069"><ele>458.5</ele><time>2026-04-23T08:56:36Z</time></trkpt><trkpt lat="46.26756096094136" lon="12.302784758550692"><ele>458.0</ele><time>2026-04-23T08:56:37Z</time></trkpt><trkpt lat="46.267663779000245" lon="12.302910167555641"><ele>457.5</ele><time>2026-04-23T08:56:37.999Z</time></trkpt><trkpt lat="46.26775689939102" lon="12.3030602712609"><ele>457.0</ele><time>2026-04-23T08:56:38.999Z</time></trkpt><trkpt lat="46.26782884238093" lon="12.303243133920455"><ele>454.75</ele><time>2026-04-23T08:56:39.999Z</time></trkpt><trkpt lat="46.26788460822416" lon="12.303441975130026"><ele>452.5</ele><time>2026-04-23T08:56:40.999Z</time></trkpt><trkpt lat="46.267908653806096" lon="12.303653326044193"><ele>450.25</ele><time>2026-04-23T08:56:41.999Z</time></trkpt><trkpt lat="46.26790877976752" lon="12.303871379894824"><ele>448.0</ele><time>2026-04-23T08:56:42.999Z</time></trkpt><trkpt lat="46.267863705500766" lon="12.304078483339334"><ele>446.0</ele><time>2026-04-23T08:56:43.999Z</time></trkpt><trkpt lat="46.26781619289731" lon="12.304285768808835"><ele>444.0</ele><time>2026-04-23T08:56:44.999Z</time></trkpt><trkpt lat="46.26777395265586" lon="12.304504438176854"><ele>442.0</ele><time>2026-04-23T08:56:45.999Z</time></trkpt><trkpt lat="46.26771627270149" lon="12.304726450784168"><ele>442.0</ele><time>2026-04-23T08:56:46.999Z</time></trkpt><trkpt lat="46.26767337889882" lon="12.30496917516781"><ele>442.0</ele><time>2026-04-23T08:56:47.999Z</time></trkpt><trkpt lat="46.267650247864616" lon="12.305223439737466"><ele>442.0</ele><time>2026-04-23T08:56:48.999Z</time></trkpt><trkpt lat="46.26764258175813" lon="12.305484871045143"><ele>440.6666666666667</ele><time>2026-04-23T08:56:49.999Z</time></trkpt><trkpt lat="46.26764530428919" lon="12.305751888790649"><ele>439.33333333333337</ele><time>2026-04-23T08:56:50.999Z</time></trkpt><trkpt lat="46.267655242764604" lon="12.306017736219406"><ele>438.0</ele><time>2026-04-23T08:56:51.999Z</time></trkpt><trkpt lat="46.26766877225002" lon="12.306281799696237"><ele>437.0</ele><time>2026-04-23T08:56:52.999Z</time></trkpt><trkpt lat="46.26768690380977" lon="12.30654939974822"><ele>436.0</ele><time>2026-04-23T08:56:53.999Z</time></trkpt><trkpt lat="46.26770406007688" lon="12.306816974132733"><ele>435.0</ele><time>2026-04-23T08:56:54.999Z</time></trkpt><trkpt lat="46.26771779206216" lon="12.307084447156912"><ele>434.66666666666663</ele><time>2026-04-23T08:56:55.999Z</time></trkpt><trkpt lat="46.267731601715695" lon="12.307348400066907"><ele>434.3333333333333</ele><time>2026-04-23T08:56:56.999Z</time></trkpt><trkpt lat="46.26774646236354" lon="12.307611649156165"><ele>434.0</ele><time>2026-04-23T08:56:57.999Z</time></trkpt><trkpt lat="46.26776052096984" lon="12.3078718333709"><ele>434.3333333333333</ele><time>2026-04-23T08:56:58.999Z</time></trkpt><trkpt lat="46.267776292509495" lon="12.308128463725382"><ele>434.66666666666663</ele><time>2026-04-23T08:56:59.999Z</time></trkpt><trkpt lat="46.2677958602828" lon="12.30838513544658"><ele>435.0</ele><time>2026-04-23T08:57:00.999Z</time></trkpt><trkpt lat="46.26781546663126" lon="12.308640374611482"><ele>435.0</ele><time>2026-04-23T08:57:01.999Z</time></trkpt><trkpt lat="46.267830268105754" lon="12.308890040578781"><ele>435.0</ele><time>2026-04-23T08:57:02.999Z</time></trkpt><trkpt lat="46.267841561184355" lon="12.309121814173869"><ele>435.0</ele><time>2026-04-23T08:57:03.999Z</time></trkpt><trkpt lat="46.26785126866804" lon="12.309349772974553"><ele>435.66666666666663</ele><time>2026-04-23T08:57:04.999Z</time></trkpt><trkpt lat="46.26786422275093" lon="12.30958117660203"><ele>436.3333333333333</ele><time>2026-04-23T08:57:05.999Z</time></trkpt><trkpt lat="46.26787705623974" lon="12.309816354966095"><ele>437.0</ele><time>2026-04-23T08:57:06.999Z</time></trkpt><trkpt lat="46.26788802414148" lon="12.310029842577107"><ele>437.75</ele><time>2026-04-23T08:57:07.999Z</time></trkpt><trkpt lat="46.26789871795161" lon="12.310221467755161"><ele>438.5</ele><time>2026-04-23T08:57:08.999Z</time></trkpt><trkpt lat="46.26790876315393" lon="12.310392753746132"><ele>439.25</ele><time>2026-04-23T08:57:09.999Z</time></trkpt><trkpt lat="46.267917852680604" lon="12.310556814185905"><ele>440.0</ele><time>2026-04-23T08:57:10.999Z</time></trkpt><trkpt lat="46.267923067686404" lon="12.310701860421567"><ele>441.3333333333333</ele><time>2026-04-23T08:57:11.999Z</time></trkpt><trkpt lat="46.2679311903102" lon="12.310821034240833"><ele>442.66666666666663</ele><time>2026-04-23T08:57:12.999Z</time></trkpt><trkpt lat="46.26795722468686" lon="12.31090615217293"><ele>444.0</ele><time>2026-04-23T08:57:13.999Z</time></trkpt><trkpt lat="46.26801659979445" lon="12.310940050018058"><ele>445.33333333333337</ele><time>2026-04-23T08:57:14.999Z</time></trkpt><trkpt lat="46.26809197928992" lon="12.310949643161011"><ele>446.6666666666667</ele><time>2026-04-23T08:57:15.999Z</time></trkpt><trkpt lat="46.268179818064574" lon="12.310896620660571"><ele>448.0</ele><time>2026-04-23T08:57:16.999Z</time></trkpt><trkpt lat="46.2682711039913" lon="12.310818810489076"><ele>446.0</ele><time>2026-04-23T08:57:17.999Z</time></trkpt><trkpt lat="46.26837919373384" lon="12.31074525376333"><ele>444.0</ele><time>2026-04-23T08:57:18.999Z</time></trkpt><trkpt lat="46.268498492931116" lon="12.310674108998459"><ele>442.0</ele><time>2026-04-23T08:57:19.999Z</time></trkpt><trkpt lat="46.26863283834145" lon="12.310600160659966"><ele>440.0</ele><time>2026-04-23T08:57:20.999Z</time></trkpt><trkpt lat="46.26877852293527" lon="12.310513502466558"><ele>440.0</ele><time>2026-04-23T08:57:21.999Z</time></trkpt><trkpt lat="46.268919562369526" lon="12.310424010615078"><ele>440.0</ele><time>2026-04-23T08:57:22.999Z</time></trkpt><trkpt lat="46.2690696654616" lon="12.310333705877145"><ele>440.0</ele><time>2026-04-23T08:57:23.999Z</time></trkpt><trkpt lat="46.2692197016537" lon="12.31023517932466"><ele>441.66666666666663</ele><time>2026-04-23T08:57:24.999Z</time></trkpt><trkpt lat="46.26937395064579" lon="12.310136006182606"><ele>443.33333333333337</ele><time>2026-04-23T08:57:25.999Z</time></trkpt><trkpt lat="46.26953273503062" lon="12.310038856133724"><ele>445.0</ele><time>2026-04-23T08:57:26.999Z</time></trkpt><trkpt lat="46.26969462376828" lon="12.309944782670309"><ele>444.6666666666667</ele><time>2026-04-23T08:57:27.999Z</time></trkpt><trkpt lat="46.2698578132634" lon="12.309850333225691"><ele>444.33333333333337</ele><time>2026-04-23T08:57:28.999Z</time></trkpt><trkpt lat="46.270021702477905" lon="12.309755392815022"><ele>444.0</ele><time>2026-04-23T08:57:29.999Z</time></trkpt><trkpt lat="46.270188461915" lon="12.309660860388716"><ele>444.0</ele><time>2026-04-23T08:57:30.999Z</time></trkpt><trkpt lat="46.27035712024006" lon="12.30956114378888"><ele>444.0</ele><time>2026-04-23T08:57:31.999Z</time></trkpt><trkpt lat="46.270522817195356" lon="12.309456332498025"><ele>444.0</ele><time>2026-04-23T08:57:32.999Z</time></trkpt><trkpt lat="46.270689271803626" lon="12.309350298537607"><ele>445.0</ele><time>2026-04-23T08:57:33.999Z</time></trkpt><trkpt lat="46.27085345035471" lon="12.30924859276751"><ele>446.0</ele><time>2026-04-23T08:57:34.999Z</time></trkpt><trkpt lat="46.27100987474578" lon="12.309155805665188"><ele>447.0</ele><time>2026-04-23T08:57:35.999Z</time></trkpt><trkpt lat="46.2711686293271" lon="12.309069174523982"><ele>447.0</ele><time>2026-04-23T08:57:36.999Z</time></trkpt><trkpt lat="46.27133040372447" lon="12.309008392319434"><ele>447.0</ele><time>2026-04-23T08:57:37.999Z</time></trkpt><trkpt lat="46.271494108308" lon="12.308985357997495"><ele>447.0</ele><time>2026-04-23T08:57:38.999Z</time></trkpt><trkpt lat="46.27165605599691" lon="12.309003804126332"><ele>450.0</ele><time>2026-04-23T08:57:39.999Z</time></trkpt><trkpt lat="46.27181636432581" lon="12.309049945004771"><ele>453.0</ele><time>2026-04-23T08:57:40.999Z</time></trkpt><trkpt lat="46.27197915786478" lon="12.309088041620072"><ele>456.0</ele><time>2026-04-23T08:57:41.999Z</time></trkpt><trkpt lat="46.27214532986082" lon="12.309115051842221"><ele>456.66666666666663</ele><time>2026-04-23T08:57:42.999Z</time></trkpt><trkpt lat="46.27231565773622" lon="12.309115296066398"><ele>457.3333333333333</ele><time>2026-04-23T08:57:43.998Z</time></trkpt><trkpt lat="46.2724797384325" lon="12.309108472948868"><ele>458.0</ele><time>2026-04-23T08:57:44.998Z</time></trkpt><trkpt lat="46.272643329595795" lon="12.30912311677296"><ele>458.0</ele><time>2026-04-23T08:57:45.998Z</time></trkpt><trkpt lat="46.27280300667524" lon="12.309140234249126"><ele>458.0</ele><time>2026-04-23T08:57:46.998Z</time></trkpt><trkpt lat="46.272964970908305" lon="12.309164050701822"><ele>458.0</ele><time>2026-04-23T08:57:47.998Z</time></trkpt><trkpt lat="46.27312754904292" lon="12.309189645406823"><ele>455.0</ele><time>2026-04-23T08:57:48.998Z</time></trkpt><trkpt lat="46.27329047115785" lon="12.309211610976384"><ele>452.0</ele><time>2026-04-23T08:57:49.998Z</time></trkpt><trkpt lat="46.27345014529601" lon="12.30922490420241"><ele>449.0</ele><time>2026-04-23T08:57:50.998Z</time></trkpt><trkpt lat="46.27360807289996" lon="12.309224582748348"><ele>449.0</ele><time>2026-04-23T08:57:51.998Z</time></trkpt><trkpt lat="46.273757848184886" lon="12.309209125914577"><ele>449.0</ele><time>2026-04-23T08:57:52.998Z</time></trkpt><trkpt lat="46.273910164650786" lon="12.309173052657783"><ele>449.0</ele><time>2026-04-23T08:57:53.998Z</time></trkpt><trkpt lat="46.27406341618181" lon="12.309128961223244"><ele>447.66666666666663</ele><time>2026-04-23T08:57:54.998Z</time></trkpt><trkpt lat="46.2742160575295" lon="12.309082543604148"><ele>446.33333333333337</ele><time>2026-04-23T08:57:56Z</time></trkpt><trkpt lat="46.274362813837854" lon="12.309028620840545"><ele>445.0</ele><time>2026-04-23T08:57:57Z</time></trkpt><trkpt lat="46.27450703213618" lon="12.308953379173884"><ele>445.0</ele><time>2026-04-23T08:57:58Z</time></trkpt><trkpt lat="46.27465067659951" lon="12.30886274575614"><ele>445.0</ele><time>2026-04-23T08:57:59Z</time></trkpt><trkpt lat="46.27479511100243" lon="12.308766549817053"><ele>445.0</ele><time>2026-04-23T08:58:00Z</time></trkpt><trkpt lat="46.27493829200098" lon="12.308671399736525"><ele>445.0</ele><time>2026-04-23T08:58:01Z</time></trkpt><trkpt lat="46.27508112000437" lon="12.308575852594064"><ele>445.0</ele><time>2026-04-23T08:58:02Z</time></trkpt><trkpt lat="46.275221970994785" lon="12.308484772223894"><ele>445.0</ele><time>2026-04-23T08:58:03Z</time></trkpt><trkpt lat="46.27550476225145" lon="12.308300271443274"><ele>447.5</ele><time>2026-04-23T08:58:05Z</time></trkpt><trkpt lat="46.27563356060387" lon="12.30823486772342"><ele>450.0</ele><time>2026-04-23T08:58:06Z</time></trkpt><trkpt lat="46.27577083921535" lon="12.308227908544971"><ele>452.5</ele><time>2026-04-23T08:58:07Z</time></trkpt><trkpt lat="46.27591151038171" lon="12.30823257404052"><ele>455.0</ele><time>2026-04-23T08:58:08Z</time></trkpt><trkpt lat="46.2760461909852" lon="12.308279001902559"><ele>455.0</ele><time>2026-04-23T08:58:09Z</time></trkpt><trkpt lat="46.27616083785755" lon="12.30836796187135"><ele>455.0</ele><time>2026-04-23T08:58:10Z</time></trkpt><trkpt lat="46.27626911305708" lon="12.308480810531652"><ele>455.0</ele><time>2026-04-23T08:58:11Z</time></trkpt><trkpt lat="46.27637753663341" lon="12.308632777926567"><ele>455.0</ele><time>2026-04-23T08:58:12Z</time></trkpt><trkpt lat="46.27648632782589" lon="12.308784425466794"><ele>456.3333333333333</ele><time>2026-04-23T08:58:13Z</time></trkpt><trkpt lat="46.27659712097262" lon="12.308929964852439"><ele>457.66666666666663</ele><time>2026-04-23T08:58:14Z</time></trkpt><trkpt lat="46.27670149361937" lon="12.309089944733838"><ele>459.0</ele><time>2026-04-23T08:58:15Z</time></trkpt><trkpt lat="46.27681435625111" lon="12.309235231446351"><ele>459.0</ele><time>2026-04-23T08:58:16Z</time></trkpt><trkpt lat="46.276897841577124" lon="12.309345530949102"><ele>459.0</ele><time>2026-04-23T08:58:17Z</time></trkpt><trkpt lat="46.276967808649594" lon="12.309433559483331"><ele>459.0</ele><time>2026-04-23T08:58:18Z</time></trkpt><trkpt lat="46.277053997675154" lon="12.309529947342657"><ele>459.0</ele><time>2026-04-23T08:58:19Z</time></trkpt><trkpt lat="46.2771548657075" lon="12.309648809790358"><ele>459.0</ele><time>2026-04-23T08:58:20Z</time></trkpt><trkpt lat="46.277262571074985" lon="12.309764535548243"><ele>460.25</ele><time>2026-04-23T08:58:21Z</time></trkpt><trkpt lat="46.27737298069975" lon="12.30987654110048"><ele>461.5</ele><time>2026-04-23T08:58:22Z</time></trkpt><trkpt lat="46.27748584840805" lon="12.309989695830735"><ele>462.75</ele><time>2026-04-23T08:58:23Z</time></trkpt><trkpt lat="46.27759694710605" lon="12.310090715781307"><ele>464.0</ele><time>2026-04-23T08:58:24Z</time></trkpt><trkpt lat="46.27771377754804" lon="12.310194183202794"><ele>464.0</ele><time>2026-04-23T08:58:25Z</time></trkpt><trkpt lat="46.277831217389036" lon="12.310297346551941"><ele>464.0</ele><time>2026-04-23T08:58:26Z</time></trkpt><trkpt lat="46.27794698156838" lon="12.310404566960942"><ele>464.0</ele><time>2026-04-23T08:58:27Z</time></trkpt><trkpt lat="46.27806967054361" lon="12.310496662780618"><ele>464.0</ele><time>2026-04-23T08:58:28Z</time></trkpt><trkpt lat="46.278200171665624" lon="12.310578290938748"><ele>466.0</ele><time>2026-04-23T08:58:29Z</time></trkpt><trkpt lat="46.27833341694042" lon="12.310658147883021"><ele>468.0</ele><time>2026-04-23T08:58:30Z</time></trkpt><trkpt lat="46.27846754641328" lon="12.310731039656428"><ele>470.0</ele><time>2026-04-23T08:58:31Z</time></trkpt><trkpt lat="46.27860392387665" lon="12.310797878878274"><ele>472.0</ele><time>2026-04-23T08:58:32Z</time></trkpt><trkpt lat="46.278741756557636" lon="12.31086088159583"><ele>472.0</ele><time>2026-04-23T08:58:33Z</time></trkpt><trkpt lat="46.27888270067822" lon="12.310915215409807"><ele>472.0</ele><time>2026-04-23T08:58:34Z</time></trkpt><trkpt lat="46.27901832728782" lon="12.310974883346754"><ele>472.0</ele><time>2026-04-23T08:58:35Z</time></trkpt><trkpt lat="46.27915441606936" lon="12.311044748616908"><ele>472.0</ele><time>2026-04-23T08:58:36Z</time></trkpt><trkpt lat="46.2792854225433" lon="12.311121289234126"><ele>472.6</ele><time>2026-04-23T08:58:37Z</time></trkpt><trkpt lat="46.27940804386284" lon="12.311204890687707"><ele>473.20000000000005</ele><time>2026-04-23T08:58:38Z</time></trkpt><trkpt lat="46.27951434901333" lon="12.311278072959356"><ele>473.8</ele><time>2026-04-23T08:58:39Z</time></trkpt><trkpt lat="46.2795965422553" lon="12.311347403055061"><ele>474.4</ele><time>2026-04-23T08:58:40Z</time></trkpt><trkpt lat="46.27965967511052" lon="12.311426355473325"><ele>475.0</ele><time>2026-04-23T08:58:41Z</time></trkpt><trkpt lat="46.27969337283086" lon="12.311524296355287"><ele>477.6</ele><time>2026-04-23T08:58:42Z</time></trkpt><trkpt lat="46.279681908270575" lon="12.311633737238605"><ele>480.2</ele><time>2026-04-23T08:58:42.999Z</time></trkpt><trkpt lat="46.27962252451809" lon="12.311713710234528"><ele>482.79999999999995</ele><time>2026-04-23T08:58:43.999Z</time></trkpt><trkpt lat="46.27954146926537" lon="12.31175241140237"><ele>485.4</ele><time>2026-04-23T08:58:44.999Z</time></trkpt><trkpt lat="46.27944553607803" lon="12.311758351361648"><ele>488.0</ele><time>2026-04-23T08:58:45.999Z</time></trkpt><trkpt lat="46.27933348015695" lon="12.311752032340106"><ele>488.0</ele><time>2026-04-23T08:58:46.999Z</time></trkpt><trkpt lat="46.27920848408946" lon="12.311769358519918"><ele>488.0</ele><time>2026-04-23T08:58:47.999Z</time></trkpt><trkpt lat="46.27906899180636" lon="12.311793807033894"><ele>488.0</ele><time>2026-04-23T08:58:48.999Z</time></trkpt><trkpt lat="46.278928696052176" lon="12.311789862847867"><ele>488.0</ele><time>2026-04-23T08:58:49.999Z</time></trkpt><trkpt lat="46.278787147424694" lon="12.311749258191282"><ele>489.25</ele><time>2026-04-23T08:58:50.999Z</time></trkpt><trkpt lat="46.27865431806084" lon="12.311686965122835"><ele>490.5</ele><time>2026-04-23T08:58:51.999Z</time></trkpt><trkpt lat="46.27854519535415" lon="12.311601308723429"><ele>491.75</ele><time>2026-04-23T08:58:52.999Z</time></trkpt><trkpt lat="46.27845244862484" lon="12.311528532796965"><ele>493.0</ele><time>2026-04-23T08:58:53.999Z</time></trkpt><trkpt lat="46.27836645589095" lon="12.311488916629306"><ele>493.0</ele><time>2026-04-23T08:58:54.999Z</time></trkpt><trkpt lat="46.278279717917414" lon="12.311502133575917"><ele>492.99999999999994</ele><time>2026-04-23T08:58:55.999Z</time></trkpt><trkpt lat="46.27820143409882" lon="12.311570261938035"><ele>492.99999999999994</ele><time>2026-04-23T08:58:56.999Z</time></trkpt><trkpt lat="46.27815534744617" lon="12.311681849918584"><ele>493.0</ele><time>2026-04-23T08:58:57.999Z</time></trkpt><trkpt lat="46.2781556051378" lon="12.311807469879483"><ele>493.0</ele><time>2026-04-23T08:58:58.999Z</time></trkpt><trkpt lat="46.278204867922646" lon="12.311935776127816"><ele>493.0</ele><time>2026-04-23T08:58:59.999Z</time></trkpt><trkpt lat="46.278291777178495" lon="12.312037696358052"><ele>493.0</ele><time>2026-04-23T08:59:00.999Z</time></trkpt><trkpt lat="46.27840243298854" lon="12.312088725931954"><ele>493.0</ele><time>2026-04-23T08:59:01.999Z</time></trkpt><trkpt lat="46.27852173770148" lon="12.312116258484552"><ele>493.0</ele><time>2026-04-23T08:59:02.999Z</time></trkpt><trkpt lat="46.27864102338295" lon="12.312141102958869"><ele>493.0</ele><time>2026-04-23T08:59:03.999Z</time></trkpt><trkpt lat="46.27876026817274" lon="12.312181028666776"><ele>493.0</ele><time>2026-04-23T08:59:04.999Z</time></trkpt><trkpt lat="46.27888807871436" lon="12.312213192234605"><ele>493.0</ele><time>2026-04-23T08:59:05.999Z</time></trkpt><trkpt lat="46.279018965593934" lon="12.312214474940669"><ele>493.0</ele><time>2026-04-23T08:59:06.999Z</time></trkpt><trkpt lat="46.27915572720485" lon="12.312202779198842"><ele>491.75</ele><time>2026-04-23T08:59:07.999Z</time></trkpt><trkpt lat="46.27929477716136" lon="12.312185402707698"><ele>490.5</ele><time>2026-04-23T08:59:08.999Z</time></trkpt><trkpt lat="46.27943668579489" lon="12.312174423032923"><ele>489.25</ele><time>2026-04-23T08:59:09.999Z</time></trkpt><trkpt lat="46.27957935667467" lon="12.312171660467975"><ele>488.0</ele><time>2026-04-23T08:59:10.999Z</time></trkpt><trkpt lat="46.279725035170145" lon="12.312185849271547"><ele>487.66666666666663</ele><time>2026-04-23T08:59:11.999Z</time></trkpt><trkpt lat="46.27987142028362" lon="12.312211676656402"><ele>487.33333333333337</ele><time>2026-04-23T08:59:12.999Z</time></trkpt><trkpt lat="46.28002040176554" lon="12.312238135178761"><ele>487.0</ele><time>2026-04-23T08:59:13.999Z</time></trkpt><trkpt lat="46.28018602684501" lon="12.31227557570301"><ele>491.0</ele><time>2026-04-23T08:59:14.999Z</time></trkpt><trkpt lat="46.2803504291411" lon="12.312300339573502"><ele>495.0</ele><time>2026-04-23T08:59:15.999Z</time></trkpt><trkpt lat="46.28049787444053" lon="12.312312653198278"><ele>499.0</ele><time>2026-04-23T08:59:16.999Z</time></trkpt><trkpt lat="46.28061687949459" lon="12.31233464958169"><ele>503.0</ele><time>2026-04-23T08:59:17.999Z</time></trkpt><trkpt lat="46.28071487410362" lon="12.312386647267568"><ele>503.0</ele><time>2026-04-23T08:59:18.999Z</time></trkpt><trkpt lat="46.280794063727285" lon="12.312488232288215"><ele>502.99999999999994</ele><time>2026-04-23T08:59:19.999Z</time></trkpt><trkpt lat="46.28084356327513" lon="12.312633906187797"><ele>502.99999999999994</ele><time>2026-04-23T08:59:20.999Z</time></trkpt><trkpt lat="46.280850146268094" lon="12.312787318000584"><ele>503.0</ele><time>2026-04-23T08:59:21.999Z</time></trkpt><trkpt lat="46.28081052528907" lon="12.312919508859729"><ele>503.0</ele><time>2026-04-23T08:59:22.999Z</time></trkpt><trkpt lat="46.28073787117424" lon="12.313016859042273"><ele>503.0</ele><time>2026-04-23T08:59:23.999Z</time></trkpt><trkpt lat="46.280640729740334" lon="12.313044434603894"><ele>503.0</ele><time>2026-04-23T08:59:24.999Z</time></trkpt><trkpt lat="46.280541521266066" lon="12.313098522244745"><ele>503.0</ele><time>2026-04-23T08:59:25.999Z</time></trkpt><trkpt lat="46.28042346373568" lon="12.313118730434576"><ele>503.0</ele><time>2026-04-23T08:59:26.999Z</time></trkpt><trkpt lat="46.28029830957685" lon="12.313143878420284"><ele>509.75</ele><time>2026-04-23T08:59:27.999Z</time></trkpt><trkpt lat="46.280172565884776" lon="12.313162666195304"><ele>516.5</ele><time>2026-04-23T08:59:28.999Z</time></trkpt><trkpt lat="46.28004896652063" lon="12.31318503528267"><ele>523.25</ele><time>2026-04-23T08:59:29.999Z</time></trkpt><trkpt lat="46.27992336684674" lon="12.313206918914359"><ele>530.0</ele><time>2026-04-23T08:59:30.999Z</time></trkpt><trkpt lat="46.279798033747426" lon="12.313237763647848"><ele>530.75</ele><time>2026-04-23T08:59:31.999Z</time></trkpt><trkpt lat="46.2796646166727" lon="12.313267679300957"><ele>531.5</ele><time>2026-04-23T08:59:32.999Z</time></trkpt><trkpt lat="46.27951771402999" lon="12.313293404239552"><ele>532.25</ele><time>2026-04-23T08:59:33.999Z</time></trkpt><trkpt lat="46.279357620875935" lon="12.313318558397407"><ele>533.0</ele><time>2026-04-23T08:59:34.999Z</time></trkpt><trkpt lat="46.27918899615382" lon="12.313353726578649"><ele>533.0</ele><time>2026-04-23T08:59:35.999Z</time></trkpt><trkpt lat="46.27902613356052" lon="12.31338668406035"><ele>533.0</ele><time>2026-04-23T08:59:36.999Z</time></trkpt><trkpt lat="46.27886854368498" lon="12.313411456653347"><ele>533.0</ele><time>2026-04-23T08:59:37.999Z</time></trkpt><trkpt lat="46.27871922843699" lon="12.31344528630912"><ele>535.25</ele><time>2026-04-23T08:59:38.999Z</time></trkpt><trkpt lat="46.27858813090498" lon="12.313487090717944"><ele>537.5</ele><time>2026-04-23T08:59:39.999Z</time></trkpt><trkpt lat="46.278466081137594" lon="12.313548759839394"><ele>539.75</ele><time>2026-04-23T08:59:40.999Z</time></trkpt><trkpt lat="46.27835222569684" lon="12.313636280478539"><ele>542.0</ele><time>2026-04-23T08:59:41.999Z</time></trkpt><trkpt lat="46.278239912164594" lon="12.3137548676016"><ele>542.0</ele><time>2026-04-23T08:59:42.999Z</time></trkpt><trkpt lat="46.27813599859768" lon="12.313891710370589"><ele>542.0</ele><time>2026-04-23T08:59:43.999Z</time></trkpt><trkpt lat="46.2780428555243" lon="12.314028361147725"><ele>542.0</ele><time>2026-04-23T08:59:44.999Z</time></trkpt><trkpt lat="46.27795664369546" lon="12.314164802322992"><ele>542.0</ele><time>2026-04-23T08:59:45.999Z</time></trkpt><trkpt lat="46.2778602468135" lon="12.314293952763084"><ele>541.5</ele><time>2026-04-23T08:59:46.999Z</time></trkpt><trkpt lat="46.27775017395313" lon="12.314409893288646"><ele>541.0</ele><time>2026-04-23T08:59:47.999Z</time></trkpt><trkpt lat="46.27763140247532" lon="12.314511310064042"><ele>540.5</ele><time>2026-04-23T08:59:48.998Z</time></trkpt><trkpt lat="46.27750067490856" lon="12.314607328008142"><ele>540.0</ele><time>2026-04-23T08:59:49.998Z</time></trkpt><trkpt lat="46.27737089940691" lon="12.314703383678689"><ele>546.25</ele><time>2026-04-23T08:59:50.998Z</time></trkpt><trkpt lat="46.2772366292839" lon="12.314793917909386"><ele>552.5</ele><time>2026-04-23T08:59:51.998Z</time></trkpt><trkpt lat="46.27709074630103" lon="12.314825146484525"><ele>558.75</ele><time>2026-04-23T08:59:52.998Z</time></trkpt><trkpt lat="46.276955184672616" lon="12.314899427311715"><ele>565.0</ele><time>2026-04-23T08:59:53.998Z</time></trkpt><trkpt lat="46.27681191818278" lon="12.314947517364024"><ele>565.0</ele><time>2026-04-23T08:59:54.998Z</time></trkpt><trkpt lat="46.276655668918075" lon="12.314972830594206"><ele>565.0</ele><time>2026-04-23T08:59:55.998Z</time></trkpt><trkpt lat="46.27647576122809" lon="12.314994251490809"><ele>565.0</ele><time>2026-04-23T08:59:56.998Z</time></trkpt><trkpt lat="46.27627494136907" lon="12.315004500768842"><ele>565.0</ele><time>2026-04-23T08:59:57.998Z</time></trkpt><trkpt lat="46.27605928594094" lon="12.31501574014214"><ele>565.0</ele><time>2026-04-23T08:59:58.998Z</time></trkpt><trkpt lat="46.27582756516685" lon="12.31503009676556"><ele>565.0</ele><time>2026-04-23T08:59:59.998Z</time></trkpt><trkpt lat="46.27560047390889" lon="12.315044621117625"><ele>566.3333333333334</ele><time>2026-04-23T09:00:00.998Z</time></trkpt><trkpt lat="46.2753856765166" lon="12.31505756557333"><ele>567.6666666666666</ele><time>2026-04-23T09:00:02Z</time></trkpt><trkpt lat="46.27518872270652" lon="12.315063283385697"><ele>569.0</ele><time>2026-04-23T09:00:03Z</time></trkpt><trkpt lat="46.27501440759807" lon="12.315066728303016"><ele>569.0</ele><time>2026-04-23T09:00:04Z</time></trkpt><trkpt lat="46.274839810050544" lon="12.315042219600329"><ele>569.0</ele><time>2026-04-23T09:00:05Z</time></trkpt><trkpt lat="46.27466655625162" lon="12.31497855925168"><ele>569.0</ele><time>2026-04-23T09:00:06Z</time></trkpt><trkpt lat="46.274496264161506" lon="12.31487371140251"><ele>569.0</ele><time>2026-04-23T09:00:07Z</time></trkpt><trkpt lat="46.27433325329808" lon="12.314740036046269"><ele>569.0</ele><time>2026-04-23T09:00:08Z</time></trkpt><trkpt lat="46.27418150410037" lon="12.314575498060837"><ele>569.0</ele><time>2026-04-23T09:00:09Z</time></trkpt><trkpt lat="46.27403147042385" lon="12.314413426592685"><ele>571.25</ele><time>2026-04-23T09:00:10Z</time></trkpt><trkpt lat="46.27390036861802" lon="12.314277792570413"><ele>573.5</ele><time>2026-04-23T09:00:11Z</time></trkpt><trkpt lat="46.273789059897766" lon="12.314172483636447"><ele>575.75</ele><time>2026-04-23T09:00:12Z</time></trkpt><trkpt lat="46.27369556902082" lon="12.314086173221108"><ele>578.0</ele><time>2026-04-23T09:00:13Z</time></trkpt><trkpt lat="46.27360579660413" lon="12.314046190037736"><ele>578.0</ele><time>2026-04-23T09:00:14Z</time></trkpt><trkpt lat="46.273518477502904" lon="12.314051232446095"><ele>578.0</ele><time>2026-04-23T09:00:15Z</time></trkpt><trkpt lat="46.27342746991425" lon="12.314122510447218"><ele>578.0</ele><time>2026-04-23T09:00:16Z</time></trkpt><trkpt lat="46.27335976592557" lon="12.31423944299335"><ele>578.0</ele><time>2026-04-23T09:00:17Z</time></trkpt><trkpt lat="46.27333873466692" lon="12.314379514288577"><ele>578.0</ele><time>2026-04-23T09:00:18Z</time></trkpt><trkpt lat="46.273362470775126" lon="12.314523771294024"><ele>578.0</ele><time>2026-04-23T09:00:19Z</time></trkpt><trkpt lat="46.273426608293505" lon="12.314661167347674"><ele>578.0</ele><time>2026-04-23T09:00:20Z</time></trkpt><trkpt lat="46.27353103327154" lon="12.314768985700274"><ele>578.0</ele><time>2026-04-23T09:00:21Z</time></trkpt><trkpt lat="46.273665282988986" lon="12.314851316506745"><ele>578.0</ele><time>2026-04-23T09:00:22Z</time></trkpt><trkpt lat="46.2738324553516" lon="12.314901031593788"><ele>580.0</ele><time>2026-04-23T09:00:23Z</time></trkpt><trkpt lat="46.273986936557066" lon="12.315003599337253"><ele>582.0</ele><time>2026-04-23T09:00:24Z</time></trkpt><trkpt lat="46.27414487817561" lon="12.31509475223039"><ele>584.0</ele><time>2026-04-23T09:00:25Z</time></trkpt><trkpt lat="46.27426297611006" lon="12.315180734750985"><ele>584.0</ele><time>2026-04-23T09:00:26Z</time></trkpt><trkpt lat="46.27433452243271" lon="12.315276184116204"><ele>584.0</ele><time>2026-04-23T09:00:27Z</time></trkpt><trkpt lat="46.27436853433166" lon="12.315401401064145"><ele>584.0</ele><time>2026-04-23T09:00:28Z</time></trkpt><trkpt lat="46.27434625508632" lon="12.315544888703219"><ele>584.0</ele><time>2026-04-23T09:00:29Z</time></trkpt><trkpt lat="46.2742831493288" lon="12.315659112429552"><ele>584.0</ele><time>2026-04-23T09:00:30Z</time></trkpt><trkpt lat="46.27419265036658" lon="12.315721635548648"><ele>589.75</ele><time>2026-04-23T09:00:31Z</time></trkpt><trkpt lat="46.2740818963653" lon="12.315734518633933"><ele>595.5</ele><time>2026-04-23T09:00:32Z</time></trkpt><trkpt lat="46.273971678784854" lon="12.315656147739695"><ele>601.25</ele><time>2026-04-23T09:00:33Z</time></trkpt><trkpt lat="46.273837144810756" lon="12.315630515240805"><ele>607.0</ele><time>2026-04-23T09:00:34Z</time></trkpt><trkpt lat="46.27369204990334" lon="12.315574704395015"><ele>602.6666666666667</ele><time>2026-04-23T09:00:35Z</time></trkpt><trkpt lat="46.273539804677" lon="12.315531595103275"><ele>598.3333333333334</ele><time>2026-04-23T09:00:36Z</time></trkpt><trkpt lat="46.27337238693024" lon="12.315502847106414"><ele>594.0</ele><time>2026-04-23T09:00:37Z</time></trkpt><trkpt lat="46.2732019759605" lon="12.315493490654534"><ele>597.0</ele><time>2026-04-23T09:00:38Z</time></trkpt><trkpt lat="46.273031767990595" lon="12.315492772866751"><ele>600.0</ele><time>2026-04-23T09:00:39Z</time></trkpt><trkpt lat="46.27286424729854" lon="12.315493065513435"><ele>603.0</ele><time>2026-04-23T09:00:40Z</time></trkpt><trkpt lat="46.27269652348885" lon="12.315497264567712"><ele>603.0</ele><time>2026-04-23T09:00:41Z</time></trkpt><trkpt lat="46.27252952027734" lon="12.31548673052142"><ele>603.0</ele><time>2026-04-23T09:00:42Z</time></trkpt><trkpt lat="46.27237676744523" lon="12.315446453168624"><ele>603.0</ele><time>2026-04-23T09:00:43Z</time></trkpt><trkpt lat="46.27221018778893" lon="12.315386112398986"><ele>603.6666666666666</ele><time>2026-04-23T09:00:43.999Z</time></trkpt><trkpt lat="46.2720396399967" lon="12.31530154346604"><ele>604.3333333333333</ele><time>2026-04-23T09:00:44.999Z</time></trkpt><trkpt lat="46.271868432439526" lon="12.315220345212147"><ele>605.0</ele><time>2026-04-23T09:00:45.999Z</time></trkpt><trkpt lat="46.2717092918545" lon="12.315120353340637"><ele>605.0</ele><time>2026-04-23T09:00:46.999Z</time></trkpt><trkpt lat="46.271554684818355" lon="12.315027515467381"><ele>605.0</ele><time>2026-04-23T09:00:47.999Z</time></trkpt><trkpt lat="46.27140916432364" lon="12.314943131916388"><ele>605.0</ele><time>2026-04-23T09:00:48.999Z</time></trkpt><trkpt lat="46.27129567145013" lon="12.314880265126034"><ele>605.0</ele><time>2026-04-23T09:00:49.999Z</time></trkpt><trkpt lat="46.271194556763135" lon="12.314846615327827"><ele>605.8</ele><time>2026-04-23T09:00:50.999Z</time></trkpt><trkpt lat="46.271094710265835" lon="12.314869214547395"><ele>606.6</ele><time>2026-04-23T09:00:51.999Z</time></trkpt><trkpt lat="46.271008383532156" lon="12.314951630766766"><ele>607.4</ele><time>2026-04-23T09:00:52.999Z</time></trkpt><trkpt lat="46.27095641306728" lon="12.31507984669816"><ele>608.2</ele><time>2026-04-23T09:00:53.999Z</time></trkpt><trkpt lat="46.270936062885895" lon="12.315225730570146"><ele>609.0</ele><time>2026-04-23T09:00:54.999Z</time></trkpt><trkpt lat="46.27095890208865" lon="12.31535993037458"><ele>609.0</ele><time>2026-04-23T09:00:55.999Z</time></trkpt><trkpt lat="46.27101774049926" lon="12.315475914967333"><ele>609.0</ele><time>2026-04-23T09:00:56.999Z</time></trkpt><trkpt lat="46.27110515694347" lon="12.315559807429459"><ele>609.0</ele><time>2026-04-23T09:00:57.999Z</time></trkpt><trkpt lat="46.271221431243525" lon="12.315608789724102"><ele>609.0</ele><time>2026-04-23T09:00:58.999Z</time></trkpt><trkpt lat="46.2713488272681" lon="12.315657332331627"><ele>612.5</ele><time>2026-04-23T09:00:59.999Z</time></trkpt><trkpt lat="46.27146546826878" lon="12.315719531104614"><ele>616.0</ele><time>2026-04-23T09:01:00.999Z</time></trkpt><trkpt lat="46.27158109581867" lon="12.315785614763389"><ele>619.5</ele><time>2026-04-23T09:01:01.999Z</time></trkpt><trkpt lat="46.27169893809322" lon="12.315837194171786"><ele>623.0</ele><time>2026-04-23T09:01:02.999Z</time></trkpt><trkpt lat="46.27181799071804" lon="12.315888548229536"><ele>623.0</ele><time>2026-04-23T09:01:03.999Z</time></trkpt><trkpt lat="46.27193401552032" lon="12.31593054998822"><ele>623.0</ele><time>2026-04-23T09:01:04.999Z</time></trkpt><trkpt lat="46.2720487704302" lon="12.315962149896725"><ele>623.0</ele><time>2026-04-23T09:01:05.999Z</time></trkpt><trkpt lat="46.27215822146842" lon="12.31598847328733"><ele>623.0</ele><time>2026-04-23T09:01:06.999Z</time></trkpt><trkpt lat="46.2722663758443" lon="12.316021353016446"><ele>622.6</ele><time>2026-04-23T09:01:07.999Z</time></trkpt><trkpt lat="46.27237141000698" lon="12.316045377913941"><ele>622.1999999999999</ele><time>2026-04-23T09:01:08.999Z</time></trkpt><trkpt lat="46.272478949978115" lon="12.316084146750278"><ele>621.8</ele><time>2026-04-23T09:01:09.999Z</time></trkpt><trkpt lat="46.27258427200015" lon="12.316116676681599"><ele>621.4</ele><time>2026-04-23T09:01:10.999Z</time></trkpt><trkpt lat="46.27269163083449" lon="12.31613857635884"><ele>621.0</ele><time>2026-04-23T09:01:11.999Z</time></trkpt><trkpt lat="46.272797979835715" lon="12.316163445367689"><ele>621.0</ele><time>2026-04-23T09:01:12.999Z</time></trkpt><trkpt lat="46.272906721820256" lon="12.316187268985711"><ele>621.0</ele><time>2026-04-23T09:01:13.999Z</time></trkpt><trkpt lat="46.27302434868466" lon="12.316240028900138"><ele>621.0</ele><time>2026-04-23T09:01:14.999Z</time></trkpt><trkpt lat="46.27311863983034" lon="12.316255488463453"><ele>621.0</ele><time>2026-04-23T09:01:15.999Z</time></trkpt><trkpt lat="46.273236959881956" lon="12.316292103110115"><ele>621.0</ele><time>2026-04-23T09:01:16.999Z</time></trkpt><trkpt lat="46.273359102780255" lon="12.316323029716731"><ele>622.75</ele><time>2026-04-23T09:01:17.999Z</time></trkpt><trkpt lat="46.27347674443255" lon="12.316349086391439"><ele>624.5</ele><time>2026-04-23T09:01:18.999Z</time></trkpt><trkpt lat="46.27359891027793" lon="12.316395327504384"><ele>626.25</ele><time>2026-04-23T09:01:19.999Z</time></trkpt><trkpt lat="46.273717389009626" lon="12.316419916244012"><ele>628.0</ele><time>2026-04-23T09:01:20.999Z</time></trkpt><trkpt lat="46.273839097499184" lon="12.316455467846371"><ele>629.25</ele><time>2026-04-23T09:01:21.999Z</time></trkpt><trkpt lat="46.273962999736334" lon="12.31649956745281"><ele>630.5</ele><time>2026-04-23T09:01:22.999Z</time></trkpt><trkpt lat="46.27409232645019" lon="12.316535238640682"><ele>631.75</ele><time>2026-04-23T09:01:23.999Z</time></trkpt><trkpt lat="46.27422491140325" lon="12.316579149020995"><ele>633.0</ele><time>2026-04-23T09:01:24.999Z</time></trkpt><trkpt lat="46.274357390020995" lon="12.31664979911818"><ele>633.0</ele><time>2026-04-23T09:01:25.999Z</time></trkpt><trkpt lat="46.27449090577388" lon="12.316723342771791"><ele>633.0</ele><time>2026-04-23T09:01:26.999Z</time></trkpt><trkpt lat="46.27463118168326" lon="12.316796911562268"><ele>633.0</ele><time>2026-04-23T09:01:27.999Z</time></trkpt><trkpt lat="46.274784946941296" lon="12.316876487092044"><ele>633.0</ele><time>2026-04-23T09:01:28.999Z</time></trkpt><trkpt lat="46.27494289743323" lon="12.316944693158002"><ele>633.0</ele><time>2026-04-23T09:01:29.999Z</time></trkpt><trkpt lat="46.27511103908998" lon="12.317014465491242"><ele>633.0</ele><time>2026-04-23T09:01:30.999Z</time></trkpt><trkpt lat="46.27528915165304" lon="12.317056300892848"><ele>633.0</ele><time>2026-04-23T09:01:31.999Z</time></trkpt><trkpt lat="46.27547823698177" lon="12.31708889448833"><ele>633.0</ele><time>2026-04-23T09:01:32.999Z</time></trkpt><trkpt lat="46.27566471479029" lon="12.317140183864122"><ele>633.0</ele><time>2026-04-23T09:01:33.999Z</time></trkpt><trkpt lat="46.275853342702966" lon="12.317157530850446"><ele>632.6666666666666</ele><time>2026-04-23T09:01:34.999Z</time></trkpt><trkpt lat="46.276040811255925" lon="12.317176651619013"><ele>632.3333333333333</ele><time>2026-04-23T09:01:35.999Z</time></trkpt><trkpt lat="46.27623370094829" lon="12.317178653573679"><ele>632.0</ele><time>2026-04-23T09:01:36.999Z</time></trkpt><trkpt lat="46.27642427663241" lon="12.317164001193268"><ele>632.3333333333333</ele><time>2026-04-23T09:01:37.999Z</time></trkpt><trkpt lat="46.276613211305154" lon="12.317153281738527"><ele>632.6666666666666</ele><time>2026-04-23T09:01:38.999Z</time></trkpt><trkpt lat="46.27679886756627" lon="12.317144932496229"><ele>633.0</ele><time>2026-04-23T09:01:39.999Z</time></trkpt><trkpt lat="46.276966671226525" lon="12.317140487647483"><ele>633.0</ele><time>2026-04-23T09:01:40.999Z</time></trkpt><trkpt lat="46.27711332591613" lon="12.317126760537837"><ele>633.0</ele><time>2026-04-23T09:01:41.999Z</time></trkpt><trkpt lat="46.27723880857549" lon="12.317107890272851"><ele>633.0</ele><time>2026-04-23T09:01:42.999Z</time></trkpt><trkpt lat="46.27732085036904" lon="12.317103800989575"><ele>633.0</ele><time>2026-04-23T09:01:43.999Z</time></trkpt><trkpt lat="46.27739169865448" lon="12.317122804330337"><ele>633.0</ele><time>2026-04-23T09:01:44.999Z</time></trkpt><trkpt lat="46.27740618871849" lon="12.317261214493612"><ele>640.5</ele><time>2026-04-23T09:01:46.999Z</time></trkpt><trkpt lat="46.277269824998356" lon="12.31733476215766"><ele>648.0</ele><time>2026-04-23T09:01:48.999Z</time></trkpt><trkpt lat="46.277169465791516" lon="12.317323468114434"><ele>655.5</ele><time>2026-04-23T09:01:49.999Z</time></trkpt><trkpt lat="46.27705374471192" lon="12.317319253846158"><ele>663.0</ele><time>2026-04-23T09:01:50.998Z</time></trkpt><trkpt lat="46.27692432164179" lon="12.317342286973389"><ele>663.0</ele><time>2026-04-23T09:01:51.998Z</time></trkpt><trkpt lat="46.27678151040707" lon="12.317372368284563"><ele>663.0</ele><time>2026-04-23T09:01:52.998Z</time></trkpt><trkpt lat="46.27663515696138" lon="12.317403188712358"><ele>663.0</ele><time>2026-04-23T09:01:53.998Z</time></trkpt><trkpt lat="46.27648209755502" lon="12.31742930406968"><ele>663.0</ele><time>2026-04-23T09:01:54.998Z</time></trkpt><trkpt lat="46.276327533210875" lon="12.317462695741293"><ele>660.3333333333334</ele><time>2026-04-23T09:01:55.998Z</time></trkpt><trkpt lat="46.27616870941123" lon="12.317496831131443"><ele>657.6666666666667</ele><time>2026-04-23T09:01:56.998Z</time></trkpt><trkpt lat="46.27600675008572" lon="12.317521659757807"><ele>655.0</ele><time>2026-04-23T09:01:57.998Z</time></trkpt><trkpt lat="46.27583742488408" lon="12.317540239124007"><ele>655.0</ele><time>2026-04-23T09:01:58.998Z</time></trkpt><trkpt lat="46.27566904528253" lon="12.31753904767641"><ele>655.0</ele><time>2026-04-23T09:01:59.998Z</time></trkpt><trkpt lat="46.27549663468682" lon="12.317530944877793"><ele>655.0</ele><time>2026-04-23T09:02:00.998Z</time></trkpt><trkpt lat="46.27532488918918" lon="12.317516729253207"><ele>652.3333333333334</ele><time>2026-04-23T09:02:01.998Z</time></trkpt><trkpt lat="46.27515232579904" lon="12.317519056605656"><ele>649.6666666666666</ele><time>2026-04-23T09:02:02.998Z</time></trkpt><trkpt lat="46.274976904821976" lon="12.317521781079225"><ele>647.0</ele><time>2026-04-23T09:02:03.998Z</time></trkpt><trkpt lat="46.27480095601044" lon="12.31752595932586"><ele>647.0</ele><time>2026-04-23T09:02:04.998Z</time></trkpt><trkpt lat="46.274626329295316" lon="12.317534019739945"><ele>647.0</ele><time>2026-04-23T09:02:05.998Z</time></trkpt><trkpt lat="46.27445129074879" lon="12.317537732307894"><ele>647.0</ele><time>2026-04-23T09:02:06.998Z</time></trkpt><trkpt lat="46.27427649676976" lon="12.317529402764878"><ele>647.0</ele><time>2026-04-23T09:02:08Z</time></trkpt><trkpt lat="46.27410050726858" lon="12.31749803617302"><ele>647.0</ele><time>2026-04-23T09:02:09Z</time></trkpt><trkpt lat="46.27392690580536" lon="12.317447862435492"><ele>647.0</ele><time>2026-04-23T09:02:10Z</time></trkpt><trkpt lat="46.273752732248184" lon="12.317405676719714"><ele>647.0</ele><time>2026-04-23T09:02:11Z</time></trkpt><trkpt lat="46.27357762583383" lon="12.317363974488792"><ele>647.0</ele><time>2026-04-23T09:02:12Z</time></trkpt><trkpt lat="46.27340298657306" lon="12.317326692603903"><ele>647.0</ele><time>2026-04-23T09:02:13Z</time></trkpt><trkpt lat="46.27323020679741" lon="12.317285647511742"><ele>650.0</ele><time>2026-04-23T09:02:14Z</time></trkpt><trkpt lat="46.27305693384726" lon="12.317249733918134"><ele>653.0</ele><time>2026-04-23T09:02:15Z</time></trkpt><trkpt lat="46.27288717821296" lon="12.317219338686208"><ele>656.0</ele><time>2026-04-23T09:02:16Z</time></trkpt><trkpt lat="46.27270829265362" lon="12.317170768568282"><ele>656.0</ele><time>2026-04-23T09:02:17Z</time></trkpt><trkpt lat="46.27253683239917" lon="12.317124628513339"><ele>656.0</ele><time>2026-04-23T09:02:18Z</time></trkpt><trkpt lat="46.27237292433869" lon="12.31707033030111"><ele>656.0</ele><time>2026-04-23T09:02:19Z</time></trkpt><trkpt lat="46.27221969895662" lon="12.31702140922512"><ele>660.6666666666666</ele><time>2026-04-23T09:02:20Z</time></trkpt><trkpt lat="46.27206857284197" lon="12.3169822025873"><ele>665.3333333333334</ele><time>2026-04-23T09:02:21Z</time></trkpt><trkpt lat="46.27191432971336" lon="12.316973044524866"><ele>670.0</ele><time>2026-04-23T09:02:22Z</time></trkpt><trkpt lat="46.271758689692014" lon="12.317006892381066"><ele>670.0</ele><time>2026-04-23T09:02:23Z</time></trkpt><trkpt lat="46.27160609532405" lon="12.317067119181132"><ele>670.0</ele><time>2026-04-23T09:02:24Z</time></trkpt><trkpt lat="46.271457455548756" lon="12.317123910195793"><ele>670.0</ele><time>2026-04-23T09:02:25Z</time></trkpt><trkpt lat="46.271310616106526" lon="12.317162822289097"><ele>667.5</ele><time>2026-04-23T09:02:26Z</time></trkpt><trkpt lat="46.271167377186266" lon="12.317198092763341"><ele>665.0</ele><time>2026-04-23T09:02:27Z</time></trkpt><trkpt lat="46.271031141118435" lon="12.317228263689774"><ele>662.5</ele><time>2026-04-23T09:02:28Z</time></trkpt><trkpt lat="46.27091673835936" lon="12.317253364696745"><ele>660.0</ele><time>2026-04-23T09:02:29Z</time></trkpt><trkpt lat="46.27081402193679" lon="12.317269501645162"><ele>667.6666666666666</ele><time>2026-04-23T09:02:30Z</time></trkpt><trkpt lat="46.27071783488888" lon="12.317290229401962"><ele>675.3333333333334</ele><time>2026-04-23T09:02:31Z</time></trkpt><trkpt lat="46.27063774690654" lon="12.317324682921003"><ele>683.0</ele><time>2026-04-23T09:02:32Z</time></trkpt><trkpt lat="46.27054250487782" lon="12.317338071784897"><ele>690.6666666666667</ele><time>2026-04-23T09:02:33Z</time></trkpt><trkpt lat="46.27046273531421" lon="12.317351329387892"><ele>698.3333333333334</ele><time>2026-04-23T09:02:34Z</time></trkpt><trkpt lat="46.27039452758706" lon="12.317361981260474"><ele>706.0</ele><time>2026-04-23T09:02:35Z</time></trkpt><trkpt lat="46.270280620100266" lon="12.317364540125313"><ele>706.0</ele><time>2026-04-23T09:02:37Z</time></trkpt><trkpt lat="46.27019357750529" lon="12.317366555229894"><ele>706.0</ele><time>2026-04-23T09:02:39Z</time></trkpt><trkpt lat="46.2701040711792" lon="12.317371592713604"><ele>706.0</ele><time>2026-04-23T09:07:11.999Z</time></trkpt><trkpt lat="46.269989892692806" lon="12.317392364369113"><ele>706.0</ele><time>2026-04-23T09:07:13.999Z</time></trkpt><trkpt lat="46.269929889204384" lon="12.31745283263778"><ele>706.0</ele><time>2026-04-23T09:07:14.999Z</time></trkpt><trkpt lat="46.26984968415608" lon="12.31749097416437"><ele>706.0</ele><time>2026-04-23T09:07:15.999Z</time></trkpt><trkpt lat="46.26978264437393" lon="12.317579844626223"><ele>709.1999999999999</ele><time>2026-04-23T09:07:16.999Z</time></trkpt><trkpt lat="46.26971885172708" lon="12.31769199608425"><ele>712.4</ele><time>2026-04-23T09:07:17.999Z</time></trkpt><trkpt lat="46.26965813404891" lon="12.317817964777655"><ele>715.6</ele><time>2026-04-23T09:07:18.999Z</time></trkpt><trkpt lat="46.269591758156764" lon="12.317947826837761"><ele>718.8</ele><time>2026-04-23T09:07:19.999Z</time></trkpt><trkpt lat="46.26951891359257" lon="12.318065918629355"><ele>722.0</ele><time>2026-04-23T09:07:20.999Z</time></trkpt><trkpt lat="46.26944813952427" lon="12.318155752444806"><ele>722.0</ele><time>2026-04-23T09:07:21.999Z</time></trkpt><trkpt lat="46.26937738216976" lon="12.318225464553661"><ele>722.0</ele><time>2026-04-23T09:07:22.999Z</time></trkpt><trkpt lat="46.26928955072005" lon="12.318304008796893"><ele>722.0</ele><time>2026-04-23T09:07:24.058Z</time></trkpt><trkpt lat="46.269210349102636" lon="12.318375594026696"><ele>722.0</ele><time>2026-04-23T09:07:25.059Z</time></trkpt><trkpt lat="46.26912643113279" lon="12.318464324323617"><ele>722.0</ele><time>2026-04-23T09:07:25.999Z</time></trkpt><trkpt lat="46.269013444582114" lon="12.318506260773088"><ele>722.0</ele><time>2026-04-23T09:07:26.999Z</time></trkpt><trkpt lat="46.268924598320645" lon="12.31856128401063"><ele>722.0</ele><time>2026-04-23T09:07:27.999Z</time></trkpt><trkpt lat="46.26883497325723" lon="12.318621845675471"><ele>722.0</ele><time>2026-04-23T09:07:28.999Z</time></trkpt><trkpt lat="46.26874742217655" lon="12.318682825378156"><ele>722.0</ele><time>2026-04-23T09:07:29.999Z</time></trkpt><trkpt lat="46.26866308903132" lon="12.31874530140722"><ele>722.0</ele><time>2026-04-23T09:07:30.999Z</time></trkpt><trkpt lat="46.26858346181601" lon="12.31881166556027"><ele>722.0</ele><time>2026-04-23T09:07:31.999Z</time></trkpt><trkpt lat="46.26849526903518" lon="12.318885969285313"><ele>722.0</ele><time>2026-04-23T09:07:32.999Z</time></trkpt><trkpt lat="46.2684152412485" lon="12.318969798953601"><ele>722.0</ele><time>2026-04-23T09:07:34.043Z</time></trkpt><trkpt lat="46.26833802135053" lon="12.319059761804567"><ele>722.0</ele><time>2026-04-23T09:07:35.044Z</time></trkpt><trkpt lat="46.26826752154774" lon="12.319170194695072"><ele>722.0</ele><time>2026-04-23T09:07:36.044Z</time></trkpt><trkpt lat="46.26821335734838" lon="12.31927687374616"><ele>722.0</ele><time>2026-04-23T09:07:37.043Z</time></trkpt><trkpt lat="46.26814056297319" lon="12.319384311585214"><ele>722.0</ele><time>2026-04-23T09:07:38.036Z</time></trkpt><trkpt lat="46.267511530964114" lon="12.321419866121387"><ele>722.0</ele><time>2026-04-23T09:07:41.501Z</time></trkpt><trkpt lat="46.26750483104791" lon="12.32157203268661"><ele>722.0</ele><time>2026-04-23T09:07:42.5Z</time></trkpt><trkpt lat="46.267499957538924" lon="12.321724511025687"><ele>722.0</ele><time>2026-04-23T09:07:43.501Z</time></trkpt><trkpt lat="46.26749581847436" lon="12.321876960867481"><ele>722.0</ele><time>2026-04-23T09:07:44.502Z</time></trkpt><trkpt lat="46.26749780510085" lon="12.322029239304854"><ele>722.0</ele><time>2026-04-23T09:07:45.501Z</time></trkpt><trkpt lat="46.26750138985507" lon="12.322182253274175"><ele>722.0</ele><time>2026-04-23T09:07:46.504Z</time></trkpt><trkpt lat="46.267504959770534" lon="12.322334633856684"><ele>722.0</ele><time>2026-04-23T09:07:47.504Z</time></trkpt><trkpt lat="46.26750852867532" lon="12.322486971298746"><ele>722.0</ele><time>2026-04-23T09:07:48.503Z</time></trkpt><trkpt lat="46.26751209242326" lon="12.322639088622763"><ele>722.0</ele><time>2026-04-23T09:07:49.501Z</time></trkpt><trkpt lat="46.267515897553025" lon="12.322801509244862"><ele>722.0</ele><time>2026-04-23T09:07:50.567Z</time></trkpt><trkpt lat="46.26751924548241" lon="12.322944414429728"><ele>722.0</ele><time>2026-04-23T09:07:51.504Z</time></trkpt><trkpt lat="46.26752018562507" lon="12.323096229850051"><ele>722.0</ele><time>2026-04-23T09:07:52.5Z</time></trkpt><trkpt lat="46.26751535830683" lon="12.323248606013799"><ele>722.0</ele><time>2026-04-23T09:07:53.5Z</time></trkpt><trkpt lat="46.26749689210141" lon="12.323399137782237"><ele>722.0</ele><time>2026-04-23T09:07:54.504Z</time></trkpt><trkpt lat="46.267467807935894" lon="12.323545561845156"><ele>722.0</ele><time>2026-04-23T09:07:55.503Z</time></trkpt><trkpt lat="46.26743437708176" lon="12.323689773372793"><ele>722.0</ele><time>2026-04-23T09:07:56.5Z</time></trkpt><trkpt lat="46.26737104287063" lon="12.32398136986233"><ele>722.0</ele><time>2026-04-23T09:07:58.504Z</time></trkpt><trkpt lat="46.26733941028975" lon="12.32412646395762"><ele>722.0</ele><time>2026-04-23T09:07:59.501Z</time></trkpt><trkpt lat="46.26730714246996" lon="12.324271976134419"><ele>722.0</ele><time>2026-04-23T09:08:00.502Z</time></trkpt><trkpt lat="46.267276901447865" lon="12.3244184044517"><ele>722.0</ele><time>2026-04-23T09:08:01.504Z</time></trkpt><trkpt lat="46.26744925048102" lon="12.324915599361654"><ele>722.0</ele><time>2026-04-23T09:08:07.998Z</time></trkpt><trkpt lat="46.26752943188675" lon="12.325027329961076"><ele>722.0</ele><time>2026-04-23T09:08:08.998Z</time></trkpt><trkpt lat="46.26764162790667" lon="12.325107229326758"><ele>722.0</ele><time>2026-04-23T09:08:09.998Z</time></trkpt><trkpt lat="46.267730048545715" lon="12.325124128994972"><ele>722.0</ele><time>2026-04-23T09:08:10.998Z</time></trkpt><trkpt lat="46.26785173258977" lon="12.325161879130453"><ele>722.0</ele><time>2026-04-23T09:08:11.998Z</time></trkpt><trkpt lat="46.26793385595205" lon="12.325227188897736"><ele>722.0</ele><time>2026-04-23T09:08:12.998Z</time></trkpt><trkpt lat="46.26799646909186" lon="12.325312957682545"><ele>722.0</ele><time>2026-04-23T09:08:13.998Z</time></trkpt><trkpt lat="46.268046639183126" lon="12.325415660456615"><ele>722.0</ele><time>2026-04-23T09:08:14.998Z</time></trkpt><trkpt lat="46.26808888703618" lon="12.325523785464009"><ele>722.0</ele><time>2026-04-23T09:08:15.998Z</time></trkpt><trkpt lat="46.268119445985725" lon="12.325637268035432"><ele>722.0</ele><time>2026-04-23T09:08:16.998Z</time></trkpt><trkpt lat="46.268143672230444" lon="12.32575976203722"><ele>722.0</ele><time>2026-04-23T09:08:17.998Z</time></trkpt><trkpt lat="46.26814661846655" lon="12.32605803450008"><ele>722.0</ele><time>2026-04-23T09:08:18.998Z</time></trkpt><trkpt lat="46.268117266006776" lon="12.326312210437424"><ele>722.0</ele><time>2026-04-23T09:08:20.062Z</time></trkpt><trkpt lat="46.26808836113763" lon="12.326573351020556"><ele>722.0</ele><time>2026-04-23T09:08:21.049Z</time></trkpt><trkpt lat="46.268063835599676" lon="12.326784165155786"><ele>722.0</ele><time>2026-04-23T09:08:22.047Z</time></trkpt><trkpt lat="46.26804081965774" lon="12.32698934429258"><ele>722.0</ele><time>2026-04-23T09:08:23.043Z</time></trkpt><trkpt lat="46.268071061547175" lon="12.327713570367354"><ele>723.0</ele><time>2026-04-23T09:08:26.504Z</time></trkpt><trkpt lat="46.26808751911205" lon="12.327923130026765"><ele>724.0</ele><time>2026-04-23T09:08:27.504Z</time></trkpt><trkpt lat="46.268087912752556" lon="12.328135603327615"><ele>725.0</ele><time>2026-04-23T09:08:28.504Z</time></trkpt><trkpt lat="46.2681227889178" lon="12.328341340884135"><ele>726.0</ele><time>2026-04-23T09:08:29.502Z</time></trkpt><trkpt lat="46.26814094079258" lon="12.328550233245114"><ele>729.5</ele><time>2026-04-23T09:08:30.5Z</time></trkpt><trkpt lat="46.26815802542914" lon="12.32876050827196"><ele>733.0</ele><time>2026-04-23T09:08:31.504Z</time></trkpt><trkpt lat="46.26817503096226" lon="12.328969809706093"><ele>736.5</ele><time>2026-04-23T09:08:32.503Z</time></trkpt><trkpt lat="46.2681751885505" lon="12.329181710329214"><ele>740.0</ele><time>2026-04-23T09:08:33.502Z</time></trkpt><trkpt lat="46.268206967542575" lon="12.329389169219393"><ele>725.0</ele><time>2026-04-23T09:08:34.503Z</time></trkpt><trkpt lat="46.26850838991774" lon="12.330121319510582"><ele>725.0</ele><time>2026-04-23T09:08:39.998Z</time></trkpt><trkpt lat="46.26860753040012" lon="12.330236119167164"><ele>725.0</ele><time>2026-04-23T09:08:40.998Z</time></trkpt><trkpt lat="46.26870719016643" lon="12.330393388787616"><ele>725.0</ele><time>2026-04-23T09:08:41.998Z</time></trkpt><trkpt lat="46.26880527433042" lon="12.33052807350367"><ele>725.0</ele><time>2026-04-23T09:08:42.998Z</time></trkpt><trkpt lat="46.26889559986352" lon="12.330678001331224"><ele>729.5</ele><time>2026-04-23T09:08:43.998Z</time></trkpt><trkpt lat="46.26897114189603" lon="12.330838401924257"><ele>734.0</ele><time>2026-04-23T09:08:45Z</time></trkpt><trkpt lat="46.26899819845416" lon="12.331007113081167"><ele>738.5</ele><time>2026-04-23T09:08:46Z</time></trkpt><trkpt lat="46.26905605040721" lon="12.331152078309591"><ele>743.0</ele><time>2026-04-23T09:08:47Z</time></trkpt><trkpt lat="46.269109960772745" lon="12.331292302272631"><ele>742.8</ele><time>2026-04-23T09:08:48Z</time></trkpt><trkpt lat="46.26916080284099" lon="12.331431985803766"><ele>742.5999999999999</ele><time>2026-04-23T09:08:49Z</time></trkpt><trkpt lat="46.26920716155128" lon="12.331568516774231"><ele>742.4000000000001</ele><time>2026-04-23T09:08:50Z</time></trkpt><trkpt lat="46.26925185042588" lon="12.331694186804894"><ele>742.2</ele><time>2026-04-23T09:08:51Z</time></trkpt><trkpt lat="46.26930534356201" lon="12.33181193974827"><ele>742.0</ele><time>2026-04-23T09:08:52Z</time></trkpt><trkpt lat="46.269352764690936" lon="12.33193665343162"><ele>742.0</ele><time>2026-04-23T09:08:53Z</time></trkpt><trkpt lat="46.26939223878858" lon="12.33206904518961"><ele>742.0</ele><time>2026-04-23T09:08:54Z</time></trkpt><trkpt lat="46.269421530537436" lon="12.332207233822345"><ele>742.0</ele><time>2026-04-23T09:08:55Z</time></trkpt><trkpt lat="46.26944322581403" lon="12.332351878314253"><ele>742.0</ele><time>2026-04-23T09:08:56Z</time></trkpt><trkpt lat="46.26945526928444" lon="12.332500153416483"><ele>742.0</ele><time>2026-04-23T09:08:57Z</time></trkpt><trkpt lat="46.26946283747964" lon="12.332654604496348"><ele>741.2</ele><time>2026-04-23T09:08:58Z</time></trkpt><trkpt lat="46.26945788797557" lon="12.33281418760008"><ele>740.4000000000001</ele><time>2026-04-23T09:08:59Z</time></trkpt><trkpt lat="46.269437763391096" lon="12.332976666148703"><ele>739.5999999999999</ele><time>2026-04-23T09:09:00Z</time></trkpt><trkpt lat="46.26940595377449" lon="12.333132553034991"><ele>738.8</ele><time>2026-04-23T09:09:01Z</time></trkpt><trkpt lat="46.269385592048245" lon="12.333285810688032"><ele>738.0</ele><time>2026-04-23T09:09:02Z</time></trkpt><trkpt lat="46.26939058502736" lon="12.333424302025318"><ele>738.0</ele><time>2026-04-23T09:09:03Z</time></trkpt><trkpt lat="46.26942070329212" lon="12.33353639075805"><ele>738.0</ele><time>2026-04-23T09:09:04Z</time></trkpt><trkpt lat="46.26945806973275" lon="12.33363116145834"><ele>738.0</ele><time>2026-04-23T09:09:05Z</time></trkpt><trkpt lat="46.26963687452145" lon="12.333740291492584"><ele>738.0</ele><time>2026-04-23T09:09:06Z</time></trkpt><trkpt lat="46.269749384702955" lon="12.333741800503923"><ele>747.2</ele><time>2026-04-23T09:09:07Z</time></trkpt><trkpt lat="46.2698694291761" lon="12.333728874964061"><ele>756.4</ele><time>2026-04-23T09:09:08Z</time></trkpt><trkpt lat="46.26996885096115" lon="12.333753948550749"><ele>765.6</ele><time>2026-04-23T09:09:09Z</time></trkpt><trkpt lat="46.27004952732506" lon="12.333822496376548"><ele>774.8000000000001</ele><time>2026-04-23T09:09:10Z</time></trkpt><trkpt lat="46.27008440421983" lon="12.333960868502022"><ele>784.0</ele><time>2026-04-23T09:09:11Z</time></trkpt><trkpt lat="46.27007045395974" lon="12.334092681445144"><ele>784.8000000000001</ele><time>2026-04-23T09:09:12Z</time></trkpt><trkpt lat="46.27003782576374" lon="12.334213985199332"><ele>785.6</ele><time>2026-04-23T09:09:13Z</time></trkpt><trkpt lat="46.26999868169827" lon="12.334363144980593"><ele>786.4</ele><time>2026-04-23T09:09:14Z</time></trkpt><trkpt lat="46.26995655559542" lon="12.334527789817688"><ele>787.2</ele><time>2026-04-23T09:09:15Z</time></trkpt><trkpt lat="46.269913972928194" lon="12.334695058651015"><ele>788.0</ele><time>2026-04-23T09:09:16Z</time></trkpt><trkpt lat="46.26986613856018" lon="12.334880820984063"><ele>791.5</ele><time>2026-04-23T09:09:17Z</time></trkpt><trkpt lat="46.26980837477556" lon="12.335049658461564"><ele>795.0</ele><time>2026-04-23T09:09:18Z</time></trkpt><trkpt lat="46.26972476271077" lon="12.335193922964104"><ele>798.5</ele><time>2026-04-23T09:09:19Z</time></trkpt><trkpt lat="46.26962468544342" lon="12.335309746564889"><ele>802.0</ele><time>2026-04-23T09:09:20Z</time></trkpt><trkpt lat="46.26950992300924" lon="12.335387774457454"><ele>796.5</ele><time>2026-04-23T09:09:21Z</time></trkpt><trkpt lat="46.269377102047585" lon="12.335440738434322"><ele>791.0</ele><time>2026-04-23T09:09:22Z</time></trkpt><trkpt lat="46.269232126678894" lon="12.335483975536617"><ele>785.5</ele><time>2026-04-23T09:09:23Z</time></trkpt><trkpt lat="46.2691090355912" lon="12.335539174494867"><ele>780.0</ele><time>2026-04-23T09:09:24Z</time></trkpt><trkpt lat="46.269005986488146" lon="12.335583876287275"><ele>777.8333333333334</ele><time>2026-04-23T09:09:25Z</time></trkpt><trkpt lat="46.26892960212382" lon="12.33565091249511"><ele>775.6666666666666</ele><time>2026-04-23T09:09:26Z</time></trkpt><trkpt lat="46.26883991898916" lon="12.33572183204279"><ele>773.5</ele><time>2026-04-23T09:09:27.999Z</time></trkpt><trkpt lat="46.268796051441775" lon="12.335632747939561"><ele>771.3333333333333</ele><time>2026-04-23T09:09:29.999Z</time></trkpt><trkpt lat="46.26885847853037" lon="12.335610201267341"><ele>769.1666666666666</ele><time>2026-04-23T09:09:32.999Z</time></trkpt><trkpt lat="46.26877088305917" lon="12.335633371083489"><ele>767.0</ele><time>2026-04-23T09:10:40.998Z</time></trkpt><trkpt lat="46.268692664285254" lon="12.335809413516174"><ele>767.0</ele><time>2026-04-23T09:10:42.998Z</time></trkpt><trkpt lat="46.26865919402341" lon="12.335920382851288"><ele>767.0</ele><time>2026-04-23T09:10:43.998Z</time></trkpt><trkpt lat="46.268633245835204" lon="12.336023989295501"><ele>767.0</ele><time>2026-04-23T09:10:44.998Z</time></trkpt><trkpt lat="46.268607450952" lon="12.336131498989603"><ele>767.0</ele><time>2026-04-23T09:10:45.998Z</time></trkpt><trkpt lat="46.268581462904265" lon="12.336231800970396"><ele>767.0</ele><time>2026-04-23T09:10:46.998Z</time></trkpt><trkpt lat="46.26854580568569" lon="12.336385355295786"><ele>767.0</ele><time>2026-04-23T09:10:48.998Z</time></trkpt><trkpt lat="46.26855359777539" lon="12.336505831019835"><ele>769.8</ele><time>2026-04-23T09:10:51Z</time></trkpt><trkpt lat="46.2686058742106" lon="12.33662130217025"><ele>772.6</ele><time>2026-04-23T09:10:53Z</time></trkpt><trkpt lat="46.26864078762561" lon="12.336708495882151"><ele>775.4</ele><time>2026-04-23T09:10:54Z</time></trkpt><trkpt lat="46.26864223119044" lon="12.336846266209944"><ele>778.1999999999999</ele><time>2026-04-23T09:10:55Z</time></trkpt><trkpt lat="46.26869365451471" lon="12.336997688043047"><ele>781.0</ele><time>2026-04-23T09:10:56Z</time></trkpt><trkpt lat="46.268749543121125" lon="12.337166826751591"><ele>784.0</ele><time>2026-04-23T09:10:57Z</time></trkpt><trkpt lat="46.26883232905648" lon="12.337344672781976"><ele>787.0</ele><time>2026-04-23T09:10:58Z</time></trkpt><trkpt lat="46.26893439058102" lon="12.337522188327503"><ele>790.0</ele><time>2026-04-23T09:10:59Z</time></trkpt><trkpt lat="46.26904730394266" lon="12.33770381032789"><ele>791.3333333333333</ele><time>2026-04-23T09:11:00Z</time></trkpt><trkpt lat="46.26916076331181" lon="12.337899097264751"><ele>792.6666666666667</ele><time>2026-04-23T09:11:01Z</time></trkpt><trkpt lat="46.2692699220559" lon="12.338095172125682"><ele>794.0</ele><time>2026-04-23T09:11:02Z</time></trkpt><trkpt lat="46.26937700665265" lon="12.33828677087586"><ele>794.0</ele><time>2026-04-23T09:11:03Z</time></trkpt><trkpt lat="46.26947521177119" lon="12.338457539864265"><ele>794.0</ele><time>2026-04-23T09:11:04Z</time></trkpt><trkpt lat="46.26957497001706" lon="12.338631521353872"><ele>794.0</ele><time>2026-04-23T09:11:05Z</time></trkpt><trkpt lat="46.26967086968787" lon="12.338800818178342"><ele>794.5</ele><time>2026-04-23T09:11:06Z</time></trkpt><trkpt lat="46.269763602364506" lon="12.338965821639212"><ele>795.0</ele><time>2026-04-23T09:11:07Z</time></trkpt><trkpt lat="46.269847840197585" lon="12.339122669550871"><ele>795.5</ele><time>2026-04-23T09:11:08Z</time></trkpt><trkpt lat="46.269924965113695" lon="12.339273406491182"><ele>796.0</ele><time>2026-04-23T09:11:09Z</time></trkpt><trkpt lat="46.26999620114885" lon="12.339421807489028"><ele>796.25</ele><time>2026-04-23T09:11:10Z</time></trkpt><trkpt lat="46.27005759707071" lon="12.339582834280339"><ele>796.5</ele><time>2026-04-23T09:11:11Z</time></trkpt><trkpt lat="46.27010753337396" lon="12.339764645114693"><ele>796.75</ele><time>2026-04-23T09:11:12Z</time></trkpt><trkpt lat="46.270139301336954" lon="12.339960768239777"><ele>797.0</ele><time>2026-04-23T09:11:13Z</time></trkpt><trkpt lat="46.27015607278141" lon="12.340170376434806"><ele>797.0</ele><time>2026-04-23T09:11:14Z</time></trkpt><trkpt lat="46.27014513682365" lon="12.34040088303444"><ele>797.0</ele><time>2026-04-23T09:11:15Z</time></trkpt><trkpt lat="46.270123826565374" lon="12.340644099044244"><ele>797.0</ele><time>2026-04-23T09:11:16Z</time></trkpt><trkpt lat="46.2701039326183" lon="12.340893831144374"><ele>799.6666666666667</ele><time>2026-04-23T09:11:17Z</time></trkpt><trkpt lat="46.27008766533172" lon="12.34114847603987"><ele>802.3333333333333</ele><time>2026-04-23T09:11:18Z</time></trkpt><trkpt lat="46.27007440951023" lon="12.341403191417552"><ele>805.0</ele><time>2026-04-23T09:11:19Z</time></trkpt><trkpt lat="46.27005911589226" lon="12.341656501988519"><ele>807.0</ele><time>2026-04-23T09:11:20Z</time></trkpt><trkpt lat="46.270040294464295" lon="12.341906111365121"><ele>809.0</ele><time>2026-04-23T09:11:21Z</time></trkpt><trkpt lat="46.2700202716553" lon="12.342151330143132"><ele>811.0</ele><time>2026-04-23T09:11:22Z</time></trkpt><trkpt lat="46.26999640733831" lon="12.342391766829492"><ele>812.0</ele><time>2026-04-23T09:11:23Z</time></trkpt><trkpt lat="46.26996481871813" lon="12.342628915753867"><ele>813.0</ele><time>2026-04-23T09:11:24Z</time></trkpt><trkpt lat="46.26992830280408" lon="12.342866404714965"><ele>814.0</ele><time>2026-04-23T09:11:25Z</time></trkpt><trkpt lat="46.269888338707474" lon="12.343106476687899"><ele>814.0</ele><time>2026-04-23T09:11:26Z</time></trkpt><trkpt lat="46.269845648519535" lon="12.34334819905151"><ele>814.0</ele><time>2026-04-23T09:11:27Z</time></trkpt><trkpt lat="46.26980151183956" lon="12.343594497541487"><ele>814.0</ele><time>2026-04-23T09:11:28Z</time></trkpt><trkpt lat="46.26975889313586" lon="12.343841788255418"><ele>811.6666666666666</ele><time>2026-04-23T09:11:29Z</time></trkpt><trkpt lat="46.26971934833887" lon="12.344090152059556"><ele>809.3333333333333</ele><time>2026-04-23T09:11:30Z</time></trkpt><trkpt lat="46.26968079421095" lon="12.344342246246082"><ele>807.0</ele><time>2026-04-23T09:11:31Z</time></trkpt><trkpt lat="46.269639140998954" lon="12.344600240981434"><ele>803.6666666666667</ele><time>2026-04-23T09:11:32Z</time></trkpt><trkpt lat="46.26959552275681" lon="12.344861106328757"><ele>800.3333333333334</ele><time>2026-04-23T09:11:33Z</time></trkpt><trkpt lat="46.26955037494815" lon="12.34513140046649"><ele>797.0</ele><time>2026-04-23T09:11:34Z</time></trkpt><trkpt lat="46.269503683286985" lon="12.345409651032902"><ele>798.0</ele><time>2026-04-23T09:11:35Z</time></trkpt><trkpt lat="46.26945345855217" lon="12.34567569076393"><ele>799.0</ele><time>2026-04-23T09:11:36Z</time></trkpt><trkpt lat="46.26940125261174" lon="12.34592343846363"><ele>800.0</ele><time>2026-04-23T09:11:37Z</time></trkpt><trkpt lat="46.26934488236912" lon="12.346158725674282"><ele>803.6666666666667</ele><time>2026-04-23T09:11:37.999Z</time></trkpt><trkpt lat="46.269281559969095" lon="12.346385420927035"><ele>807.3333333333333</ele><time>2026-04-23T09:11:38.999Z</time></trkpt><trkpt lat="46.269215137495166" lon="12.346596438954805"><ele>811.0</ele><time>2026-04-23T09:11:39.999Z</time></trkpt><trkpt lat="46.26915268125975" lon="12.3467935223646"><ele>811.0</ele><time>2026-04-23T09:11:40.999Z</time></trkpt><trkpt lat="46.26909248923761" lon="12.346978187836156"><ele>811.0</ele><time>2026-04-23T09:11:41.999Z</time></trkpt><trkpt lat="46.26903176377164" lon="12.347159006528363"><ele>811.0</ele><time>2026-04-23T09:11:42.999Z</time></trkpt><trkpt lat="46.26897062002953" lon="12.347322439342587"><ele>811.0</ele><time>2026-04-23T09:11:43.999Z</time></trkpt><trkpt lat="46.26890388748035" lon="12.347467210100234"><ele>812.1999999999999</ele><time>2026-04-23T09:11:44.999Z</time></trkpt><trkpt lat="46.26884365607971" lon="12.347598909115439"><ele>813.4</ele><time>2026-04-23T09:11:45.999Z</time></trkpt><trkpt lat="46.268791917215225" lon="12.347729059966815"><ele>814.6</ele><time>2026-04-23T09:11:46.999Z</time></trkpt><trkpt lat="46.268743431141885" lon="12.347845674200471"><ele>815.8</ele><time>2026-04-23T09:11:47.999Z</time></trkpt><trkpt lat="46.26871156737185" lon="12.347977606395656"><ele>817.0</ele><time>2026-04-23T09:11:48.999Z</time></trkpt><trkpt lat="46.26869487658474" lon="12.34810774325496"><ele>811.8</ele><time>2026-04-23T09:11:49.999Z</time></trkpt><trkpt lat="46.26869510829458" lon="12.348240059222649"><ele>806.6</ele><time>2026-04-23T09:11:50.999Z</time></trkpt><trkpt lat="46.26870933977077" lon="12.348369389189912"><ele>801.4</ele><time>2026-04-23T09:11:51.999Z</time></trkpt><trkpt lat="46.268741885410265" lon="12.34849804194621"><ele>796.1999999999999</ele><time>2026-04-23T09:11:52.999Z</time></trkpt><trkpt lat="46.26879432657396" lon="12.34861963135224"><ele>791.0</ele><time>2026-04-23T09:11:53.999Z</time></trkpt><trkpt lat="46.26885691886997" lon="12.348735954773348"><ele>791.0</ele><time>2026-04-23T09:11:54.999Z</time></trkpt><trkpt lat="46.268920696747315" lon="12.348858955561088"><ele>791.0</ele><time>2026-04-23T09:11:55.999Z</time></trkpt><trkpt lat="46.26897722671904" lon="12.348998078008604"><ele>791.0</ele><time>2026-04-23T09:11:56.999Z</time></trkpt><trkpt lat="46.269022912237304" lon="12.349145254918502"><ele>791.0</ele><time>2026-04-23T09:11:57.999Z</time></trkpt><trkpt lat="46.26906176900908" lon="12.349292986208662"><ele>791.0</ele><time>2026-04-23T09:11:58.999Z</time></trkpt><trkpt lat="46.26909327350518" lon="12.349433519649455"><ele>794.1999999999999</ele><time>2026-04-23T09:11:59.999Z</time></trkpt><trkpt lat="46.26912253609138" lon="12.349576347751064"><ele>797.4</ele><time>2026-04-23T09:12:00.999Z</time></trkpt><trkpt lat="46.26914830958492" lon="12.34972144943575"><ele>800.6</ele><time>2026-04-23T09:12:01.999Z</time></trkpt><trkpt lat="46.26917195702755" lon="12.349864741925924"><ele>803.8</ele><time>2026-04-23T09:12:02.999Z</time></trkpt><trkpt lat="46.26919422535144" lon="12.350010178713672"><ele>807.0</ele><time>2026-04-23T09:12:03.999Z</time></trkpt><trkpt lat="46.2692193284448" lon="12.350152814910127"><ele>807.0</ele><time>2026-04-23T09:12:04.999Z</time></trkpt><trkpt lat="46.26924803903455" lon="12.35029636777561"><ele>807.0</ele><time>2026-04-23T09:12:05.999Z</time></trkpt><trkpt lat="46.26927625051559" lon="12.35043961931719"><ele>807.0</ele><time>2026-04-23T09:12:06.999Z</time></trkpt><trkpt lat="46.26930468226661" lon="12.35058029994364"><ele>807.0</ele><time>2026-04-23T09:12:07.999Z</time></trkpt><trkpt lat="46.269333808439484" lon="12.350719328882642"><ele>807.0</ele><time>2026-04-23T09:12:08.999Z</time></trkpt><trkpt lat="46.269360326048584" lon="12.350858304178633"><ele>805.2</ele><time>2026-04-23T09:12:09.999Z</time></trkpt><trkpt lat="46.269384175871785" lon="12.350999264313373"><ele>803.4000000000001</ele><time>2026-04-23T09:12:10.999Z</time></trkpt><trkpt lat="46.2694049033601" lon="12.351142795476864"><ele>801.5999999999999</ele><time>2026-04-23T09:12:11.999Z</time></trkpt><trkpt lat="46.2694200143689" lon="12.351293198290621"><ele>799.8</ele><time>2026-04-23T09:12:12.999Z</time></trkpt><trkpt lat="46.269424823315845" lon="12.35144688425578"><ele>798.0</ele><time>2026-04-23T09:12:13.999Z</time></trkpt><trkpt lat="46.26942021402934" lon="12.351597246660587"><ele>798.2</ele><time>2026-04-23T09:12:14.999Z</time></trkpt><trkpt lat="46.269409080192304" lon="12.35174448640889"><ele>798.4</ele><time>2026-04-23T09:12:15.999Z</time></trkpt><trkpt lat="46.2693918600762" lon="12.351890406372451"><ele>798.6</ele><time>2026-04-23T09:12:16.999Z</time></trkpt><trkpt lat="46.26937087158112" lon="12.352030186708255"><ele>798.8000000000001</ele><time>2026-04-23T09:12:17.999Z</time></trkpt><trkpt lat="46.26934460649487" lon="12.352164591622321"><ele>799.0</ele><time>2026-04-23T09:12:18.999Z</time></trkpt><trkpt lat="46.26932172207696" lon="12.352293489609066"><ele>798.9999999999999</ele><time>2026-04-23T09:12:19.999Z</time></trkpt><trkpt lat="46.26930680167717" lon="12.352417105004625"><ele>799.0</ele><time>2026-04-23T09:12:20.999Z</time></trkpt><trkpt lat="46.269294187358845" lon="12.352533602880982"><ele>799.0</ele><time>2026-04-23T09:12:21.999Z</time></trkpt><trkpt lat="46.26928040365276" lon="12.352642912093101"><ele>799.0</ele><time>2026-04-23T09:12:22.999Z</time></trkpt><trkpt lat="46.26926875667146" lon="12.352739591997295"><ele>798.9999999999999</ele><time>2026-04-23T09:12:23.999Z</time></trkpt><trkpt lat="46.26925353833705" lon="12.352910636292714"><ele>799.0</ele><time>2026-04-23T09:12:25.999Z</time></trkpt><trkpt lat="46.26927369875781" lon="12.353074086924028"><ele>796.4000000000001</ele><time>2026-04-23T09:12:27.999Z</time></trkpt><trkpt lat="46.26930702828257" lon="12.353165981046313"><ele>793.8</ele><time>2026-04-23T09:12:28.999Z</time></trkpt><trkpt lat="46.26936055757856" lon="12.353256590112961"><ele>791.2</ele><time>2026-04-23T09:12:29.999Z</time></trkpt><trkpt lat="46.26943003081725" lon="12.353341870792178"><ele>788.5999999999999</ele><time>2026-04-23T09:12:30.999Z</time></trkpt><trkpt lat="46.26951440598325" lon="12.353417104439595"><ele>786.0</ele><time>2026-04-23T09:12:31.999Z</time></trkpt><trkpt lat="46.269610792929" lon="12.353479615260987"><ele>786.0</ele><time>2026-04-23T09:12:32.999Z</time></trkpt><trkpt lat="46.269714027331666" lon="12.353539270580125"><ele>786.0</ele><time>2026-04-23T09:12:33.999Z</time></trkpt><trkpt lat="46.26981789416232" lon="12.353592827860894"><ele>786.0</ele><time>2026-04-23T09:12:34.999Z</time></trkpt><trkpt lat="46.269921329372224" lon="12.35364893410125"><ele>786.0</ele><time>2026-04-23T09:12:35.999Z</time></trkpt><trkpt lat="46.27001512842105" lon="12.353727926874038"><ele>786.0</ele><time>2026-04-23T09:12:36.999Z</time></trkpt><trkpt lat="46.270096154606435" lon="12.35382724530777"><ele>788.25</ele><time>2026-04-23T09:12:37.999Z</time></trkpt><trkpt lat="46.27015931304828" lon="12.353962292964344"><ele>790.5</ele><time>2026-04-23T09:12:38.999Z</time></trkpt><trkpt lat="46.2702039410953" lon="12.354116005414372"><ele>792.75</ele><time>2026-04-23T09:12:39.999Z</time></trkpt><trkpt lat="46.27023616477162" lon="12.354275391406313"><ele>795.0</ele><time>2026-04-23T09:12:40.999Z</time></trkpt><trkpt lat="46.270266915830774" lon="12.35443570649906"><ele>795.0</ele><time>2026-04-23T09:12:41.999Z</time></trkpt><trkpt lat="46.270305395410006" lon="12.354590506446968"><ele>795.0</ele><time>2026-04-23T09:12:42.999Z</time></trkpt><trkpt lat="46.2703513253659" lon="12.354742262738325"><ele>795.0</ele><time>2026-04-23T09:12:43.999Z</time></trkpt><trkpt lat="46.27040221566444" lon="12.354891089163376"><ele>795.0</ele><time>2026-04-23T09:12:44.999Z</time></trkpt><trkpt lat="46.270435849943155" lon="12.355051237752804"><ele>797.0</ele><time>2026-04-23T09:12:45.999Z</time></trkpt><trkpt lat="46.270485161395946" lon="12.355200844175974"><ele>799.0</ele><time>2026-04-23T09:12:46.998Z</time></trkpt><trkpt lat="46.27053537507267" lon="12.355346876937057"><ele>801.0</ele><time>2026-04-23T09:12:47.998Z</time></trkpt><trkpt lat="46.270587778513274" lon="12.355492248944442"><ele>803.0</ele><time>2026-04-23T09:12:48.998Z</time></trkpt><trkpt lat="46.27064057517324" lon="12.355626531889554"><ele>805.0</ele><time>2026-04-23T09:12:49.998Z</time></trkpt><trkpt lat="46.2706965951724" lon="12.355763753780039"><ele>805.0</ele><time>2026-04-23T09:12:50.998Z</time></trkpt><trkpt lat="46.27074975981797" lon="12.355906966586245"><ele>805.0</ele><time>2026-04-23T09:12:51.998Z</time></trkpt><trkpt lat="46.27079480973049" lon="12.356058470563045"><ele>805.0</ele><time>2026-04-23T09:12:52.998Z</time></trkpt><trkpt lat="46.27082532175452" lon="12.356222458112962"><ele>805.0</ele><time>2026-04-23T09:12:53.998Z</time></trkpt><trkpt lat="46.27084390395133" lon="12.356401626384201"><ele>803.0</ele><time>2026-04-23T09:12:54.998Z</time></trkpt><trkpt lat="46.270851992430764" lon="12.356598822650252"><ele>801.0</ele><time>2026-04-23T09:12:56Z</time></trkpt><trkpt lat="46.270846992531034" lon="12.356786154212847"><ele>799.0</ele><time>2026-04-23T09:12:57Z</time></trkpt><trkpt lat="46.27083933875903" lon="12.356986133166682"><ele>797.0</ele><time>2026-04-23T09:12:58Z</time></trkpt><trkpt lat="46.27083942265048" lon="12.357186337444567"><ele>795.5</ele><time>2026-04-23T09:12:59Z</time></trkpt><trkpt lat="46.27084687948575" lon="12.357390053881254"><ele>794.0</ele><time>2026-04-23T09:13:00Z</time></trkpt><trkpt lat="46.27086471195342" lon="12.357599284360354"><ele>792.5</ele><time>2026-04-23T09:13:01Z</time></trkpt><trkpt lat="46.27088802922051" lon="12.357805596123928"><ele>791.0</ele><time>2026-04-23T09:13:02Z</time></trkpt><trkpt lat="46.270912747025264" lon="12.357997926083065"><ele>789.0</ele><time>2026-04-23T09:13:03Z</time></trkpt><trkpt lat="46.27094289373773" lon="12.358195162566975"><ele>787.0</ele><time>2026-04-23T09:13:04Z</time></trkpt><trkpt lat="46.270984444554315" lon="12.358389205743261"><ele>785.0</ele><time>2026-04-23T09:13:05Z</time></trkpt><trkpt lat="46.271036886641596" lon="12.358567783836763"><ele>783.0</ele><time>2026-04-23T09:13:06Z</time></trkpt><trkpt lat="46.271107435297424" lon="12.358718174496948"><ele>780.5</ele><time>2026-04-23T09:13:07Z</time></trkpt><trkpt lat="46.27116846348028" lon="12.358874897868692"><ele>778.0</ele><time>2026-04-23T09:13:08Z</time></trkpt><trkpt lat="46.271215405371706" lon="12.359036941646284"><ele>775.5</ele><time>2026-04-23T09:13:09Z</time></trkpt><trkpt lat="46.27124589562969" lon="12.359207591557373"><ele>773.0</ele><time>2026-04-23T09:13:10Z</time></trkpt><trkpt lat="46.27126388264081" lon="12.35939012135434"><ele>773.0</ele><time>2026-04-23T09:13:11Z</time></trkpt><trkpt lat="46.271258741902386" lon="12.35955904941564"><ele>773.0</ele><time>2026-04-23T09:13:12Z</time></trkpt><trkpt lat="46.271226577388276" lon="12.35975759728757"><ele>773.0</ele><time>2026-04-23T09:13:13Z</time></trkpt><trkpt lat="46.27127535570868" lon="12.359857442105742"><ele>773.0</ele><time>2026-04-23T09:13:14Z</time></trkpt><trkpt lat="46.27126527162998" lon="12.360015742857653"><ele>771.8</ele><time>2026-04-23T09:13:15Z</time></trkpt><trkpt lat="46.271254217158685" lon="12.36017054777335"><ele>770.5999999999999</ele><time>2026-04-23T09:13:16Z</time></trkpt><trkpt lat="46.27124485733025" lon="12.360328898764346"><ele>769.4000000000001</ele><time>2026-04-23T09:13:17Z</time></trkpt><trkpt lat="46.271237365258365" lon="12.36047991848801"><ele>768.2</ele><time>2026-04-23T09:13:18Z</time></trkpt><trkpt lat="46.271231736466284" lon="12.360630246593605"><ele>767.0</ele><time>2026-04-23T09:13:19Z</time></trkpt><trkpt lat="46.271207773127266" lon="12.360791744566475"><ele>767.0</ele><time>2026-04-23T09:13:20Z</time></trkpt><trkpt lat="46.27116931295638" lon="12.360949951305878"><ele>767.0</ele><time>2026-04-23T09:13:21Z</time></trkpt><trkpt lat="46.2710885070943" lon="12.361059652689786"><ele>767.0</ele><time>2026-04-23T09:13:22Z</time></trkpt><trkpt lat="46.271017093261754" lon="12.361173351168713"><ele>767.0</ele><time>2026-04-23T09:13:23Z</time></trkpt><trkpt lat="46.27097436334675" lon="12.361303466836473"><ele>767.0</ele><time>2026-04-23T09:13:24Z</time></trkpt><trkpt lat="46.27092265345119" lon="12.36142080377651"><ele>767.6</ele><time>2026-04-23T09:13:25Z</time></trkpt><trkpt lat="46.27089403514308" lon="12.361555333655168"><ele>768.2</ele><time>2026-04-23T09:13:26Z</time></trkpt><trkpt lat="46.2708716231901" lon="12.361702703271812"><ele>768.8</ele><time>2026-04-23T09:13:27Z</time></trkpt><trkpt lat="46.27085881504152" lon="12.361847163118581"><ele>769.4</ele><time>2026-04-23T09:13:28Z</time></trkpt><trkpt lat="46.27084900426244" lon="12.361994362650462"><ele>770.0</ele><time>2026-04-23T09:13:29Z</time></trkpt><trkpt lat="46.270847945870486" lon="12.362143122530885"><ele>768.75</ele><time>2026-04-23T09:13:30Z</time></trkpt><trkpt lat="46.270885421052526" lon="12.362437251104954"><ele>767.5</ele><time>2026-04-23T09:13:32Z</time></trkpt><trkpt lat="46.27092417596562" lon="12.362564848016016"><ele>766.25</ele><time>2026-04-23T09:13:33Z</time></trkpt><trkpt lat="46.27098125019416" lon="12.362669081622231"><ele>765.0</ele><time>2026-04-23T09:13:34Z</time></trkpt><trkpt lat="46.27107112720765" lon="12.362752003865003"><ele>765.0</ele><time>2026-04-23T09:13:35Z</time></trkpt><trkpt lat="46.27119042262438" lon="12.362777581169736"><ele>765.0</ele><time>2026-04-23T09:13:36Z</time></trkpt><trkpt lat="46.27130797856117" lon="12.362790498263648"><ele>765.0</ele><time>2026-04-23T09:13:37Z</time></trkpt><trkpt lat="46.27142351304458" lon="12.362822722924914"><ele>765.0</ele><time>2026-04-23T09:13:38Z</time></trkpt><trkpt lat="46.271545188029435" lon="12.362896274737773"><ele>766.0</ele><time>2026-04-23T09:13:39Z</time></trkpt><trkpt lat="46.271687942582375" lon="12.362990385048901"><ele>767.0</ele><time>2026-04-23T09:13:40Z</time></trkpt><trkpt lat="46.27183366952395" lon="12.363100762911108"><ele>768.0</ele><time>2026-04-23T09:13:41Z</time></trkpt><trkpt lat="46.271970534620046" lon="12.363202252004262"><ele>768.0</ele><time>2026-04-23T09:13:42Z</time></trkpt><trkpt lat="46.27208224932558" lon="12.36329324555808"><ele>768.0</ele><time>2026-04-23T09:13:43Z</time></trkpt><trkpt lat="46.27216291617346" lon="12.363371207140618"><ele>768.0</ele><time>2026-04-23T09:13:44Z</time></trkpt><trkpt lat="46.2722162445722" lon="12.363469796896002"><ele>768.0</ele><time>2026-04-23T09:13:45Z</time></trkpt><trkpt lat="46.27224888307803" lon="12.363612007674686"><ele>768.0</ele><time>2026-04-23T09:13:45.999Z</time></trkpt><trkpt lat="46.27225389108265" lon="12.363806256932145"><ele>762.3333333333334</ele><time>2026-04-23T09:13:46.999Z</time></trkpt><trkpt lat="46.27225706489299" lon="12.364013066621329"><ele>756.6666666666667</ele><time>2026-04-23T09:13:47.999Z</time></trkpt><trkpt lat="46.27226695329574" lon="12.364235551681398"><ele>751.0</ele><time>2026-04-23T09:13:48.999Z</time></trkpt><trkpt lat="46.27228312627439" lon="12.364467551460027"><ele>763.0</ele><time>2026-04-23T09:13:49.999Z</time></trkpt><trkpt lat="46.272301478720244" lon="12.364693949187266"><ele>775.0</ele><time>2026-04-23T09:13:50.999Z</time></trkpt><trkpt lat="46.27232022326066" lon="12.36491691454579"><ele>787.0</ele><time>2026-04-23T09:13:51.999Z</time></trkpt><trkpt lat="46.27233057488972" lon="12.365131868100558"><ele>787.0</ele><time>2026-04-23T09:13:52.999Z</time></trkpt><trkpt lat="46.27233821871285" lon="12.365318027456011"><ele>787.0</ele><time>2026-04-23T09:13:53.999Z</time></trkpt><trkpt lat="46.27235200213304" lon="12.36549301796387"><ele>787.0</ele><time>2026-04-23T09:13:54.999Z</time></trkpt><trkpt lat="46.27237731571624" lon="12.365679736807024"><ele>787.0</ele><time>2026-04-23T09:13:55.999Z</time></trkpt><trkpt lat="46.272416009673876" lon="12.365881166804082"><ele>785.5</ele><time>2026-04-23T09:13:56.999Z</time></trkpt><trkpt lat="46.27245897500431" lon="12.366091458569999"><ele>784.0</ele><time>2026-04-23T09:13:57.999Z</time></trkpt><trkpt lat="46.27250029731182" lon="12.366291790681334"><ele>782.5</ele><time>2026-04-23T09:13:58.999Z</time></trkpt><trkpt lat="46.27253892021793" lon="12.36647639067784"><ele>781.0</ele><time>2026-04-23T09:13:59.999Z</time></trkpt><trkpt lat="46.27257783937266" lon="12.366644418291004"><ele>779.75</ele><time>2026-04-23T09:14:00.999Z</time></trkpt><trkpt lat="46.272616700522306" lon="12.366810503379964"><ele>778.5</ele><time>2026-04-23T09:14:01.999Z</time></trkpt><trkpt lat="46.27265775950534" lon="12.366978575001164"><ele>777.25</ele><time>2026-04-23T09:14:02.999Z</time></trkpt><trkpt lat="46.27270943120937" lon="12.367155289647608"><ele>776.0</ele><time>2026-04-23T09:14:03.999Z</time></trkpt><trkpt lat="46.27277905083017" lon="12.367332317461962"><ele>775.75</ele><time>2026-04-23T09:14:04.999Z</time></trkpt><trkpt lat="46.27285952010731" lon="12.367497165634079"><ele>775.5</ele><time>2026-04-23T09:14:05.999Z</time></trkpt><trkpt lat="46.27294169646651" lon="12.36764540654844"><ele>775.25</ele><time>2026-04-23T09:14:06.999Z</time></trkpt><trkpt lat="46.27302665351093" lon="12.367760279546689"><ele>775.0</ele><time>2026-04-23T09:14:07.999Z</time></trkpt><trkpt lat="46.2731258463924" lon="12.367822944305887"><ele>779.0</ele><time>2026-04-23T09:14:08.999Z</time></trkpt><trkpt lat="46.2732401762422" lon="12.367841807998929"><ele>783.0</ele><time>2026-04-23T09:14:09.999Z</time></trkpt><trkpt lat="46.27336620700439" lon="12.367819999818167"><ele>787.0</ele><time>2026-04-23T09:14:10.999Z</time></trkpt><trkpt lat="46.27349893639241" lon="12.367782062483554"><ele>791.0</ele><time>2026-04-23T09:14:11.999Z</time></trkpt><trkpt lat="46.27362488357976" lon="12.367765362020098"><ele>791.0</ele><time>2026-04-23T09:14:12.999Z</time></trkpt><trkpt lat="46.27373016558164" lon="12.36779208548614"><ele>791.0</ele><time>2026-04-23T09:14:13.999Z</time></trkpt><trkpt lat="46.27381600370127" lon="12.367865152432332"><ele>791.0</ele><time>2026-04-23T09:14:14.999Z</time></trkpt><trkpt lat="46.2738787477376" lon="12.367988692852435"><ele>791.0</ele><time>2026-04-23T09:14:15.999Z</time></trkpt><trkpt lat="46.27391388907341" lon="12.368137032811322"><ele>791.0</ele><time>2026-04-23T09:14:16.999Z</time></trkpt><trkpt lat="46.273888231865996" lon="12.368300514378383"><ele>788.25</ele><time>2026-04-23T09:14:17.999Z</time></trkpt><trkpt lat="46.2738339526943" lon="12.368456227453471"><ele>785.5</ele><time>2026-04-23T09:14:18.999Z</time></trkpt><trkpt lat="46.27379205507921" lon="12.36864168069526"><ele>782.75</ele><time>2026-04-23T09:14:19.999Z</time></trkpt><trkpt lat="46.27372367272624" lon="12.368816906165812"><ele>780.0</ele><time>2026-04-23T09:14:20.999Z</time></trkpt><trkpt lat="46.27367643593175" lon="12.36899967035781"><ele>779.75</ele><time>2026-04-23T09:14:21.999Z</time></trkpt><trkpt lat="46.27365545301107" lon="12.36919039196718"><ele>779.5</ele><time>2026-04-23T09:14:22.999Z</time></trkpt><trkpt lat="46.27366266225627" lon="12.369379528504629"><ele>779.25</ele><time>2026-04-23T09:14:23.999Z</time></trkpt><trkpt lat="46.27370445101315" lon="12.36959088508514"><ele>779.0</ele><time>2026-04-23T09:14:24.999Z</time></trkpt><trkpt lat="46.27375824297296" lon="12.36981421748744"><ele>779.0</ele><time>2026-04-23T09:14:25.999Z</time></trkpt><trkpt lat="46.273816382854086" lon="12.370038663259956"><ele>779.0</ele><time>2026-04-23T09:14:26.999Z</time></trkpt><trkpt lat="46.273891102675" lon="12.370248154470055"><ele>779.0</ele><time>2026-04-23T09:14:27.999Z</time></trkpt><trkpt lat="46.27399139878367" lon="12.370441412948871"><ele>783.6666666666667</ele><time>2026-04-23T09:14:28.999Z</time></trkpt><trkpt lat="46.2741065434309" lon="12.370622006093168"><ele>788.3333333333333</ele><time>2026-04-23T09:14:29.999Z</time></trkpt><trkpt lat="46.27421556787338" lon="12.37079480456263"><ele>793.0</ele><time>2026-04-23T09:14:30.999Z</time></trkpt><trkpt lat="46.27431597731982" lon="12.370953251813381"><ele>793.0</ele><time>2026-04-23T09:14:31.999Z</time></trkpt><trkpt lat="46.27440342613179" lon="12.37108937990896"><ele>793.0</ele><time>2026-04-23T09:14:32.999Z</time></trkpt><trkpt lat="46.27446264067962" lon="12.371184121107436"><ele>793.0</ele><time>2026-04-23T09:14:33.999Z</time></trkpt><trkpt lat="46.27451513765342" lon="12.371275936631397"><ele>793.0</ele><time>2026-04-23T09:14:34.999Z</time></trkpt><trkpt lat="46.27457178929466" lon="12.371374644051267"><ele>793.0</ele><time>2026-04-23T09:14:35.999Z</time></trkpt><trkpt lat="46.27463742658226" lon="12.371486264449798"><ele>790.75</ele><time>2026-04-23T09:14:36.999Z</time></trkpt><trkpt lat="46.27471261128188" lon="12.37160481222399"><ele>788.5</ele><time>2026-04-23T09:14:37.999Z</time></trkpt><trkpt lat="46.27479813290679" lon="12.371719947038232"><ele>786.25</ele><time>2026-04-23T09:14:38.999Z</time></trkpt><trkpt lat="46.27489171917841" lon="12.371828292234484"><ele>784.0</ele><time>2026-04-23T09:14:39.999Z</time></trkpt><trkpt lat="46.27499211163096" lon="12.371935745162455"><ele>784.25</ele><time>2026-04-23T09:14:40.999Z</time></trkpt><trkpt lat="46.27510036038674" lon="12.372033272189693"><ele>784.5</ele><time>2026-04-23T09:14:41.999Z</time></trkpt><trkpt lat="46.275213353351" lon="12.372115797131169"><ele>784.75</ele><time>2026-04-23T09:14:42.999Z</time></trkpt><trkpt lat="46.27532688338979" lon="12.372185161307842"><ele>785.0</ele><time>2026-04-23T09:14:43.999Z</time></trkpt><trkpt lat="46.27544489113873" lon="12.372242498317004"><ele>785.0</ele><time>2026-04-23T09:14:44.999Z</time></trkpt><trkpt lat="46.2755662049675" lon="12.37228601075056"><ele>785.0</ele><time>2026-04-23T09:14:45.999Z</time></trkpt><trkpt lat="46.27568551466004" lon="12.372328506985516"><ele>785.0</ele><time>2026-04-23T09:14:46.999Z</time></trkpt><trkpt lat="46.27580111740372" lon="12.372367587446035"><ele>785.0</ele><time>2026-04-23T09:14:47.999Z</time></trkpt><trkpt lat="46.27591490858614" lon="12.372403580298776"><ele>787.5</ele><time>2026-04-23T09:14:48.999Z</time></trkpt><trkpt lat="46.27602966356928" lon="12.37243948140486"><ele>790.0</ele><time>2026-04-23T09:14:49.999Z</time></trkpt><trkpt lat="46.276146996333" lon="12.372479029029583"><ele>792.5</ele><time>2026-04-23T09:14:50.999Z</time></trkpt><trkpt lat="46.27625991522946" lon="12.372521236196265"><ele>795.0</ele><time>2026-04-23T09:14:51.999Z</time></trkpt><trkpt lat="46.27636614117407" lon="12.372558678329357"><ele>796.75</ele><time>2026-04-23T09:14:52.999Z</time></trkpt><trkpt lat="46.276466844993905" lon="12.372593704414108"><ele>798.5</ele><time>2026-04-23T09:14:53.998Z</time></trkpt><trkpt lat="46.27657289840106" lon="12.372638735592949"><ele>800.25</ele><time>2026-04-23T09:14:54.998Z</time></trkpt><trkpt lat="46.276679050598524" lon="12.37271049587035"><ele>802.0</ele><time>2026-04-23T09:14:55.998Z</time></trkpt><trkpt lat="46.276778640749946" lon="12.372815180935504"><ele>802.0</ele><time>2026-04-23T09:14:56.998Z</time></trkpt><trkpt lat="46.27686118392578" lon="12.372947245324115"><ele>802.0</ele><time>2026-04-23T09:14:57.998Z</time></trkpt><trkpt lat="46.27690594930441" lon="12.373116354340839"><ele>802.0</ele><time>2026-04-23T09:14:58.998Z</time></trkpt><trkpt lat="46.27696237515805" lon="12.37327239865492"><ele>802.0</ele><time>2026-04-23T09:14:59.998Z</time></trkpt><trkpt lat="46.277005643117356" lon="12.373432374215637"><ele>799.5</ele><time>2026-04-23T09:15:00.998Z</time></trkpt><trkpt lat="46.27706716355316" lon="12.373583629746335"><ele>797.0</ele><time>2026-04-23T09:15:02Z</time></trkpt><trkpt lat="46.27715430407064" lon="12.373721554658022"><ele>794.5</ele><time>2026-04-23T09:15:03Z</time></trkpt><trkpt lat="46.2772591303616" lon="12.373842313332748"><ele>792.0</ele><time>2026-04-23T09:15:04Z</time></trkpt><trkpt lat="46.27737256780908" lon="12.373944584212186"><ele>791.5</ele><time>2026-04-23T09:15:05Z</time></trkpt><trkpt lat="46.27749157864841" lon="12.374023485107235"><ele>791.0</ele><time>2026-04-23T09:15:06Z</time></trkpt><trkpt lat="46.277607835437514" lon="12.374064826400618"><ele>790.5</ele><time>2026-04-23T09:15:07Z</time></trkpt><trkpt lat="46.27772244133317" lon="12.374058048131582"><ele>790.0</ele><time>2026-04-23T09:15:08Z</time></trkpt><trkpt lat="46.27783372987727" lon="12.374004297564955"><ele>790.0</ele><time>2026-04-23T09:15:09Z</time></trkpt><trkpt lat="46.27794154294697" lon="12.373912038585447"><ele>790.0</ele><time>2026-04-23T09:15:10Z</time></trkpt><trkpt lat="46.27804203815627" lon="12.373804111328802"><ele>790.0</ele><time>2026-04-23T09:15:11Z</time></trkpt><trkpt lat="46.27813880238311" lon="12.373708089679647"><ele>790.0</ele><time>2026-04-23T09:15:12Z</time></trkpt><trkpt lat="46.27823984143424" lon="12.373638726663753"><ele>790.0</ele><time>2026-04-23T09:15:13Z</time></trkpt><trkpt lat="46.27834674583885" lon="12.373607225108513"><ele>790.0</ele><time>2026-04-23T09:15:14Z</time></trkpt><trkpt lat="46.27844586332188" lon="12.373631380379155"><ele>790.0</ele><time>2026-04-23T09:15:15Z</time></trkpt><trkpt lat="46.27853235001938" lon="12.373698981260807"><ele>790.0</ele><time>2026-04-23T09:15:16Z</time></trkpt><trkpt lat="46.27860259428422" lon="12.373810042196697"><ele>790.0</ele><time>2026-04-23T09:15:17Z</time></trkpt><trkpt lat="46.27865745562256" lon="12.373955487223844"><ele>790.0</ele><time>2026-04-23T09:15:18Z</time></trkpt><trkpt lat="46.278700690229314" lon="12.374120191374434"><ele>790.0</ele><time>2026-04-23T09:15:19Z</time></trkpt><trkpt lat="46.278746631012766" lon="12.374289518837085"><ele>790.0</ele><time>2026-04-23T09:15:20Z</time></trkpt><trkpt lat="46.27880625303162" lon="12.374445527156604"><ele>790.0</ele><time>2026-04-23T09:15:21Z</time></trkpt><trkpt lat="46.27887778849535" lon="12.374586494347051"><ele>791.0</ele><time>2026-04-23T09:15:22Z</time></trkpt><trkpt lat="46.278956323997534" lon="12.37471767684691"><ele>792.0</ele><time>2026-04-23T09:15:23Z</time></trkpt><trkpt lat="46.279048255034716" lon="12.374837842685269"><ele>793.0</ele><time>2026-04-23T09:15:24Z</time></trkpt><trkpt lat="46.2791425569208" lon="12.374944870736915"><ele>794.0</ele><time>2026-04-23T09:15:25Z</time></trkpt><trkpt lat="46.279241118687324" lon="12.375039813367355"><ele>794.0</ele><time>2026-04-23T09:15:26Z</time></trkpt><trkpt lat="46.27935100096008" lon="12.375127394204208"><ele>794.0</ele><time>2026-04-23T09:15:27Z</time></trkpt><trkpt lat="46.279471505405894" lon="12.375204919371985"><ele>794.0</ele><time>2026-04-23T09:15:28Z</time></trkpt><trkpt lat="46.279599401636915" lon="12.375277576613389"><ele>794.0</ele><time>2026-04-23T09:15:29Z</time></trkpt><trkpt lat="46.27973102204005" lon="12.375347387428683"><ele>790.25</ele><time>2026-04-23T09:15:30Z</time></trkpt><trkpt lat="46.279861796366454" lon="12.375421616663395"><ele>786.5</ele><time>2026-04-23T09:15:31Z</time></trkpt><trkpt lat="46.279985611755315" lon="12.375490036652407"><ele>782.75</ele><time>2026-04-23T09:15:32Z</time></trkpt><trkpt lat="46.280098509507845" lon="12.375553818153458"><ele>779.0</ele><time>2026-04-23T09:15:33Z</time></trkpt><trkpt lat="46.28021157433219" lon="12.375608787969634"><ele>779.0</ele><time>2026-04-23T09:15:34Z</time></trkpt><trkpt lat="46.28033915860719" lon="12.375651263156309"><ele>779.0</ele><time>2026-04-23T09:15:35Z</time></trkpt><trkpt lat="46.280475976436435" lon="12.375679635693366"><ele>779.0</ele><time>2026-04-23T09:15:36Z</time></trkpt><trkpt lat="46.28060355114467" lon="12.375709642741866"><ele>779.0</ele><time>2026-04-23T09:15:37Z</time></trkpt><trkpt lat="46.28072355098412" lon="12.375728672209124"><ele>779.6</ele><time>2026-04-23T09:15:38Z</time></trkpt><trkpt lat="46.28082022540536" lon="12.375748076014846"><ele>780.2</ele><time>2026-04-23T09:15:39Z</time></trkpt><trkpt lat="46.28090198070598" lon="12.375760805638592"><ele>780.8000000000001</ele><time>2026-04-23T09:15:40Z</time></trkpt><trkpt lat="46.28099011725459" lon="12.375733412613139"><ele>781.4000000000001</ele><time>2026-04-23T09:15:41Z</time></trkpt><trkpt lat="46.28106645825029" lon="12.37566116389922"><ele>782.0</ele><time>2026-04-23T09:15:42Z</time></trkpt><trkpt lat="46.281133309558726" lon="12.375571886109645"><ele>785.1666666666667</ele><time>2026-04-23T09:15:43Z</time></trkpt><trkpt lat="46.28120177153584" lon="12.375495358632246"><ele>788.3333333333334</ele><time>2026-04-23T09:15:44Z</time></trkpt><trkpt lat="46.2812655517131" lon="12.375423049563047"><ele>791.5</ele><time>2026-04-23T09:15:45Z</time></trkpt><trkpt lat="46.281333990084214" lon="12.375352649137577"><ele>794.6666666666667</ele><time>2026-04-23T09:15:46Z</time></trkpt><trkpt lat="46.281403853055934" lon="12.375317560666215"><ele>797.8333333333334</ele><time>2026-04-23T09:15:47Z</time></trkpt><trkpt lat="46.28147989491667" lon="12.37533366500674"><ele>801.0</ele><time>2026-04-23T09:15:48Z</time></trkpt><trkpt lat="46.28154932352856" lon="12.375398412585277"><ele>801.0</ele><time>2026-04-23T09:15:49Z</time></trkpt><trkpt lat="46.281610459994106" lon="12.37548936672625"><ele>801.0</ele><time>2026-04-23T09:15:50Z</time></trkpt><trkpt lat="46.281676674180346" lon="12.375586396240747"><ele>801.0</ele><time>2026-04-23T09:15:51Z</time></trkpt><trkpt lat="46.2817534024815" lon="12.375673376429843"><ele>801.0</ele><time>2026-04-23T09:15:52Z</time></trkpt><trkpt lat="46.28182833156953" lon="12.375776241844223"><ele>801.0</ele><time>2026-04-23T09:15:53Z</time></trkpt><trkpt lat="46.28189338658044" lon="12.375889298142287"><ele>797.1999999999999</ele><time>2026-04-23T09:15:53.999Z</time></trkpt><trkpt lat="46.28194412360904" lon="12.376017112785407"><ele>793.4</ele><time>2026-04-23T09:15:54.999Z</time></trkpt><trkpt lat="46.281968689832304" lon="12.37616613628951"><ele>789.6</ele><time>2026-04-23T09:15:55.999Z</time></trkpt><trkpt lat="46.28196358751733" lon="12.376315353240269"><ele>785.8</ele><time>2026-04-23T09:15:56.999Z</time></trkpt><trkpt lat="46.2819154581184" lon="12.376462684492875"><ele>782.0</ele><time>2026-04-23T09:15:57.999Z</time></trkpt><trkpt lat="46.28185327887165" lon="12.376601980155657"><ele>781.5</ele><time>2026-04-23T09:15:58.999Z</time></trkpt><trkpt lat="46.281805447505185" lon="12.376769796652738"><ele>781.0</ele><time>2026-04-23T09:15:59.999Z</time></trkpt><trkpt lat="46.28176736303877" lon="12.37695758334351"><ele>780.5</ele><time>2026-04-23T09:16:00.999Z</time></trkpt><trkpt lat="46.281735979287" lon="12.377156284392202"><ele>780.0</ele><time>2026-04-23T09:16:01.999Z</time></trkpt><trkpt lat="46.28170812958326" lon="12.377365280136946"><ele>780.0</ele><time>2026-04-23T09:16:02.999Z</time></trkpt><trkpt lat="46.281681942861304" lon="12.37757016397327"><ele>780.0</ele><time>2026-04-23T09:16:03.999Z</time></trkpt><trkpt lat="46.28166346320668" lon="12.377763879691372"><ele>780.0</ele><time>2026-04-23T09:16:04.999Z</time></trkpt><trkpt lat="46.281641356220725" lon="12.377952635274989"><ele>780.0</ele><time>2026-04-23T09:16:05.999Z</time></trkpt><trkpt lat="46.28159749556399" lon="12.378152248171949"><ele>784.0</ele><time>2026-04-23T09:16:06.999Z</time></trkpt><trkpt lat="46.28153468080691" lon="12.378347422728478"><ele>788.0</ele><time>2026-04-23T09:16:07.999Z</time></trkpt><trkpt lat="46.28145429343108" lon="12.378534102762687"><ele>792.0</ele><time>2026-04-23T09:16:08.999Z</time></trkpt><trkpt lat="46.2813685402251" lon="12.378721133460754"><ele>781.3333333333334</ele><time>2026-04-23T09:16:09.999Z</time></trkpt><trkpt lat="46.281291247170785" lon="12.378910334030488"><ele>770.6666666666667</ele><time>2026-04-23T09:16:10.999Z</time></trkpt><trkpt lat="46.28119924820416" lon="12.37909169202313"><ele>760.0</ele><time>2026-04-23T09:16:11.999Z</time></trkpt><trkpt lat="46.28112126909025" lon="12.379284655207499"><ele>760.0</ele><time>2026-04-23T09:16:12.999Z</time></trkpt><trkpt lat="46.281048395298825" lon="12.37947136931742"><ele>760.0</ele><time>2026-04-23T09:16:13.999Z</time></trkpt><trkpt lat="46.2809745213142" lon="12.379663436790816"><ele>760.0</ele><time>2026-04-23T09:16:14.999Z</time></trkpt><trkpt lat="46.28090814186665" lon="12.379876594306152"><ele>756.25</ele><time>2026-04-23T09:16:15.999Z</time></trkpt><trkpt lat="46.28081640114798" lon="12.380059782697899"><ele>752.5</ele><time>2026-04-23T09:16:16.999Z</time></trkpt><trkpt lat="46.28071432596373" lon="12.38021114807537"><ele>748.75</ele><time>2026-04-23T09:16:17.999Z</time></trkpt><trkpt lat="46.28059931357526" lon="12.380339419674863"><ele>745.0</ele><time>2026-04-23T09:16:18.999Z</time></trkpt><trkpt lat="46.28044049540912" lon="12.38044255221281"><ele>752.0</ele><time>2026-04-23T09:16:19.999Z</time></trkpt><trkpt lat="46.280309485597655" lon="12.380521492176197"><ele>759.0</ele><time>2026-04-23T09:16:20.999Z</time></trkpt><trkpt lat="46.28022682742882" lon="12.380623749218909"><ele>766.0</ele><time>2026-04-23T09:16:21.999Z</time></trkpt><trkpt lat="46.280131886628865" lon="12.380722383599279"><ele>773.0</ele><time>2026-04-23T09:16:22.999Z</time></trkpt><trkpt lat="46.280045251096745" lon="12.380827996007248"><ele>773.0</ele><time>2026-04-23T09:16:23.999Z</time></trkpt><trkpt lat="46.27995276237653" lon="12.3809178671073"><ele>773.0</ele><time>2026-04-23T09:16:24.999Z</time></trkpt><trkpt lat="46.27990283720839" lon="12.381032466582367"><ele>773.0</ele><time>2026-04-23T09:16:25.999Z</time></trkpt><trkpt lat="46.27981229161517" lon="12.381123124579666"><ele>773.0</ele><time>2026-04-23T09:16:26.999Z</time></trkpt><trkpt lat="46.27972198570664" lon="12.38116980179753"><ele>773.0</ele><time>2026-04-23T09:16:27.999Z</time></trkpt><trkpt lat="46.279633409946236" lon="12.381177399973769"><ele>773.5999999999999</ele><time>2026-04-23T09:16:28.999Z</time></trkpt><trkpt lat="46.27953399503416" lon="12.381152734055448"><ele>774.1999999999999</ele><time>2026-04-23T09:16:29.999Z</time></trkpt><trkpt lat="46.2794505770171" lon="12.381065492166003"><ele>774.8</ele><time>2026-04-23T09:16:30.999Z</time></trkpt><trkpt lat="46.279381219569316" lon="12.380931140636854"><ele>775.4</ele><time>2026-04-23T09:16:31.999Z</time></trkpt><trkpt lat="46.27929547361743" lon="12.380792799326173"><ele>776.0</ele><time>2026-04-23T09:16:32.999Z</time></trkpt><trkpt lat="46.279201431337604" lon="12.380657625195209"><ele>776.0</ele><time>2026-04-23T09:16:33.999Z</time></trkpt><trkpt lat="46.27911325196421" lon="12.380531212670526"><ele>776.0</ele><time>2026-04-23T09:16:34.999Z</time></trkpt><trkpt lat="46.27902951267271" lon="12.380413026715782"><ele>776.0</ele><time>2026-04-23T09:16:35.999Z</time></trkpt><trkpt lat="46.278950411018656" lon="12.380313169281969"><ele>776.0</ele><time>2026-04-23T09:16:36.999Z</time></trkpt><trkpt lat="46.278860862006304" lon="12.380252704408287"><ele>776.0</ele><time>2026-04-23T09:16:37.999Z</time></trkpt><trkpt lat="46.278760094710414" lon="12.38023728398075"><ele>774.5</ele><time>2026-04-23T09:16:38.999Z</time></trkpt><trkpt lat="46.27865640108254" lon="12.380285239627618"><ele>773.0</ele><time>2026-04-23T09:16:39.999Z</time></trkpt><trkpt lat="46.27855840968736" lon="12.380379011551222"><ele>771.5</ele><time>2026-04-23T09:16:40.999Z</time></trkpt><trkpt lat="46.278450182109324" lon="12.380491481297913"><ele>770.0</ele><time>2026-04-23T09:16:41.999Z</time></trkpt><trkpt lat="46.27831993835307" lon="12.38056186022031"><ele>770.0</ele><time>2026-04-23T09:16:42.999Z</time></trkpt><trkpt lat="46.27817133532321" lon="12.380606920906919"><ele>770.0</ele><time>2026-04-23T09:16:43.999Z</time></trkpt><trkpt lat="46.278039503587856" lon="12.380660549639657"><ele>770.0</ele><time>2026-04-23T09:16:44.999Z</time></trkpt><trkpt lat="46.277925034311" lon="12.380734377555509"><ele>770.0</ele><time>2026-04-23T09:16:45.999Z</time></trkpt><trkpt lat="46.27782054903428" lon="12.380811265627951"><ele>768.2</ele><time>2026-04-23T09:16:46.999Z</time></trkpt><trkpt lat="46.27772899289585" lon="12.380902204204183"><ele>766.4</ele><time>2026-04-23T09:16:47.999Z</time></trkpt><trkpt lat="46.27764939087143" lon="12.381011914536241"><ele>764.5999999999999</ele><time>2026-04-23T09:16:48.999Z</time></trkpt><trkpt lat="46.27759785380061" lon="12.38114320200312"><ele>762.8</ele><time>2026-04-23T09:16:49.999Z</time></trkpt><trkpt lat="46.277544224877005" lon="12.381258266637252"><ele>761.0</ele><time>2026-04-23T09:16:50.999Z</time></trkpt><trkpt lat="46.27750273246263" lon="12.381375232546452"><ele>761.0</ele><time>2026-04-23T09:16:51.999Z</time></trkpt><trkpt lat="46.277476464321666" lon="12.381500273934398"><ele>761.0</ele><time>2026-04-23T09:16:52.999Z</time></trkpt><trkpt lat="46.277428295104194" lon="12.381630903603371"><ele>761.0</ele><time>2026-04-23T09:16:53.999Z</time></trkpt><trkpt lat="46.27737591141233" lon="12.381762981360076"><ele>761.0</ele><time>2026-04-23T09:16:54.999Z</time></trkpt><trkpt lat="46.277328419863146" lon="12.381898030470255"><ele>761.0</ele><time>2026-04-23T09:16:55.999Z</time></trkpt><trkpt lat="46.27729438762935" lon="12.38203251958076"><ele>761.0</ele><time>2026-04-23T09:16:56.999Z</time></trkpt><trkpt lat="46.27727469946327" lon="12.382179179490524"><ele>761.0</ele><time>2026-04-23T09:16:57.999Z</time></trkpt><trkpt lat="46.27727044489116" lon="12.382341174064381"><ele>761.0</ele><time>2026-04-23T09:16:58.999Z</time></trkpt><trkpt lat="46.27727927788612" lon="12.382515217397593"><ele>761.0</ele><time>2026-04-23T09:16:59.999Z</time></trkpt><trkpt lat="46.2772892446904" lon="12.382696765094211"><ele>763.0</ele><time>2026-04-23T09:17:00.998Z</time></trkpt><trkpt lat="46.27728178947214" lon="12.382881090197166"><ele>765.0</ele><time>2026-04-23T09:17:01.998Z</time></trkpt><trkpt lat="46.277258106339325" lon="12.383062937936721"><ele>767.0</ele><time>2026-04-23T09:17:02.998Z</time></trkpt><trkpt lat="46.277190626149874" lon="12.383222638195463"><ele>769.0</ele><time>2026-04-23T09:17:03.998Z</time></trkpt><trkpt lat="46.27711748679338" lon="12.383375509935656"><ele>763.75</ele><time>2026-04-23T09:17:04.998Z</time></trkpt><trkpt lat="46.27704685044613" lon="12.383537874484364"><ele>758.5</ele><time>2026-04-23T09:17:05.998Z</time></trkpt><trkpt lat="46.276970078985414" lon="12.383693491726827"><ele>753.25</ele><time>2026-04-23T09:17:07Z</time></trkpt><trkpt lat="46.2769008981802" lon="12.38384083006514"><ele>748.0</ele><time>2026-04-23T09:17:08Z</time></trkpt><trkpt lat="46.27684030812607" lon="12.3839755332466"><ele>748.0</ele><time>2026-04-23T09:17:09Z</time></trkpt><trkpt lat="46.27678756283976" lon="12.38410975549731"><ele>748.0</ele><time>2026-04-23T09:17:10Z</time></trkpt><trkpt lat="46.27674704886828" lon="12.384231339070968"><ele>748.0</ele><time>2026-04-23T09:17:11Z</time></trkpt><trkpt lat="46.27673214212758" lon="12.38437128431995"><ele>748.0</ele><time>2026-04-23T09:17:12Z</time></trkpt><trkpt lat="46.27674432310902" lon="12.38453255269737"><ele>748.0</ele><time>2026-04-23T09:17:13Z</time></trkpt><trkpt lat="46.27676889108199" lon="12.384693707952298"><ele>747.0</ele><time>2026-04-23T09:17:14Z</time></trkpt><trkpt lat="46.27679633462503" lon="12.384859518136723"><ele>746.0</ele><time>2026-04-23T09:17:15Z</time></trkpt><trkpt lat="46.276825176184694" lon="12.385034132985622"><ele>745.0</ele><time>2026-04-23T09:17:16Z</time></trkpt><trkpt lat="46.276883680544074" lon="12.385236117388645"><ele>744.0</ele><time>2026-04-23T09:17:17Z</time></trkpt><trkpt lat="46.27693852930648" lon="12.385439629756583"><ele>742.0</ele><time>2026-04-23T09:17:18Z</time></trkpt><trkpt lat="46.27694611735473" lon="12.385657866736203"><ele>740.0</ele><time>2026-04-23T09:17:19Z</time></trkpt><trkpt lat="46.2769485261088" lon="12.38587352468714"><ele>738.0</ele><time>2026-04-23T09:17:20Z</time></trkpt><trkpt lat="46.27700026567862" lon="12.386030726618618"><ele>736.0</ele><time>2026-04-23T09:17:21Z</time></trkpt><trkpt lat="46.277052333877535" lon="12.38621999449882"><ele>732.0</ele><time>2026-04-23T09:17:22Z</time></trkpt><trkpt lat="46.27710904457726" lon="12.386403496939614"><ele>728.0</ele><time>2026-04-23T09:17:23Z</time></trkpt><trkpt lat="46.27718399518521" lon="12.386570331968176"><ele>724.0</ele><time>2026-04-23T09:17:24Z</time></trkpt><trkpt lat="46.27726645800016" lon="12.38671030495193"><ele>720.0</ele><time>2026-04-23T09:17:25Z</time></trkpt><trkpt lat="46.27734086073931" lon="12.386856188542604"><ele>732.5</ele><time>2026-04-23T09:17:26Z</time></trkpt><trkpt lat="46.27736124869117" lon="12.387062112668978"><ele>745.0</ele><time>2026-04-23T09:17:27Z</time></trkpt><trkpt lat="46.27735498643439" lon="12.387269643503155"><ele>757.5</ele><time>2026-04-23T09:17:28Z</time></trkpt><trkpt lat="46.277342041629346" lon="12.387465018086637"><ele>770.0</ele><time>2026-04-23T09:17:29Z</time></trkpt><trkpt lat="46.2773272510269" lon="12.387654915232353"><ele>770.0</ele><time>2026-04-23T09:17:30Z</time></trkpt><trkpt lat="46.2773359072298" lon="12.387849382488064"><ele>770.0</ele><time>2026-04-23T09:17:31Z</time></trkpt><trkpt lat="46.277378122674676" lon="12.38804047921087"><ele>770.0</ele><time>2026-04-23T09:17:32Z</time></trkpt><trkpt lat="46.27741167398721" lon="12.38824086037582"><ele>770.0</ele><time>2026-04-23T09:17:33Z</time></trkpt><trkpt lat="46.277425239969844" lon="12.388430034426356"><ele>769.5</ele><time>2026-04-23T09:17:34Z</time></trkpt><trkpt lat="46.27742006219735" lon="12.388603984418758"><ele>769.0</ele><time>2026-04-23T09:17:35Z</time></trkpt><trkpt lat="46.27741993689818" lon="12.388773442389763"><ele>768.5</ele><time>2026-04-23T09:17:36Z</time></trkpt><trkpt lat="46.27744141797749" lon="12.388943671789098"><ele>768.0</ele><time>2026-04-23T09:17:37Z</time></trkpt><trkpt lat="46.27748267401372" lon="12.389102085134029"><ele>766.5999999999999</ele><time>2026-04-23T09:17:38Z</time></trkpt><trkpt lat="46.27753476421588" lon="12.389241569269283"><ele>765.1999999999999</ele><time>2026-04-23T09:17:39Z</time></trkpt><trkpt lat="46.27759272705136" lon="12.389366203728995"><ele>763.8</ele><time>2026-04-23T09:17:40Z</time></trkpt><trkpt lat="46.27763848091748" lon="12.38950800629225"><ele>762.4</ele><time>2026-04-23T09:17:41Z</time></trkpt><trkpt lat="46.2776654568255" lon="12.389648480821787"><ele>761.0</ele><time>2026-04-23T09:17:42Z</time></trkpt><trkpt lat="46.27763859012936" lon="12.389786431541234"><ele>757.8333333333333</ele><time>2026-04-23T09:17:43Z</time></trkpt><trkpt lat="46.277666034951864" lon="12.389905638736465"><ele>754.6666666666666</ele><time>2026-04-23T09:17:44Z</time></trkpt><trkpt lat="46.27769731896144" lon="12.39001716461282"><ele>751.5</ele><time>2026-04-23T09:17:45Z</time></trkpt><trkpt lat="46.27775582424024" lon="12.390117756504416"><ele>748.3333333333334</ele><time>2026-04-23T09:17:46Z</time></trkpt><trkpt lat="46.27782788408132" lon="12.39019075436976"><ele>745.1666666666667</ele><time>2026-04-23T09:17:47Z</time></trkpt><trkpt lat="46.2778937208275" lon="12.390226072954887"><ele>742.0</ele><time>2026-04-23T09:17:48Z</time></trkpt><trkpt lat="46.27799419260465" lon="12.390270390522499"><ele>742.0</ele><time>2026-04-23T09:17:50Z</time></trkpt><trkpt lat="46.27805265340865" lon="12.390321698195931"><ele>742.0</ele><time>2026-04-23T09:17:51Z</time></trkpt><trkpt lat="46.278117529410174" lon="12.390400139349934"><ele>742.0</ele><time>2026-04-23T09:17:52Z</time></trkpt><trkpt lat="46.27819347835455" lon="12.390489858060498"><ele>742.0</ele><time>2026-04-23T09:17:53Z</time></trkpt><trkpt lat="46.278273488835964" lon="12.390582640132912"><ele>742.0</ele><time>2026-04-23T09:17:54Z</time></trkpt><trkpt lat="46.278383094400816" lon="12.390551804502172"><ele>745.2</ele><time>2026-04-23T09:17:55Z</time></trkpt><trkpt lat="46.278472422884114" lon="12.39065672855562"><ele>748.4000000000001</ele><time>2026-04-23T09:17:56Z</time></trkpt><trkpt lat="46.278533994088875" lon="12.390786944579258"><ele>751.5999999999999</ele><time>2026-04-23T09:17:56.999Z</time></trkpt><trkpt lat="46.27860806466436" lon="12.390911522716609"><ele>754.8</ele><time>2026-04-23T09:17:57.999Z</time></trkpt><trkpt lat="46.278679085371564" lon="12.391034408715175"><ele>758.0</ele><time>2026-04-23T09:17:58.999Z</time></trkpt><trkpt lat="46.278750793426624" lon="12.39115903830196"><ele>758.0</ele><time>2026-04-23T09:17:59.999Z</time></trkpt><trkpt lat="46.27882164548817" lon="12.391281835853633"><ele>758.0</ele><time>2026-04-23T09:18:00.999Z</time></trkpt><trkpt lat="46.27889226223581" lon="12.391403701436861"><ele>758.0</ele><time>2026-04-23T09:18:01.999Z</time></trkpt><trkpt lat="46.27896467808029" lon="12.391528190431487"><ele>758.0</ele><time>2026-04-23T09:18:02.999Z</time></trkpt><trkpt lat="46.27905037835835" lon="12.391648699256296"><ele>759.75</ele><time>2026-04-23T09:18:03.999Z</time></trkpt><trkpt lat="46.2791233157614" lon="12.391785885184815"><ele>761.5</ele><time>2026-04-23T09:18:04.999Z</time></trkpt><trkpt lat="46.279200871727774" lon="12.391929112560272"><ele>763.25</ele><time>2026-04-23T09:18:05.999Z</time></trkpt><trkpt lat="46.27925316958608" lon="12.392099007561256"><ele>765.0</ele><time>2026-04-23T09:18:06.999Z</time></trkpt><trkpt lat="46.279299097260214" lon="12.392282937932105"><ele>765.0</ele><time>2026-04-23T09:18:07.999Z</time></trkpt><trkpt lat="46.279342431685386" lon="12.392481352809044"><ele>765.0</ele><time>2026-04-23T09:18:08.999Z</time></trkpt><trkpt lat="46.27939849256734" lon="12.392660443077517"><ele>765.0</ele><time>2026-04-23T09:18:09.999Z</time></trkpt><trkpt lat="46.27943011199309" lon="12.39284179093761"><ele>765.0</ele><time>2026-04-23T09:18:10.999Z</time></trkpt><trkpt lat="46.279467947230145" lon="12.39302049777195"><ele>762.0</ele><time>2026-04-23T09:18:11.999Z</time></trkpt><trkpt lat="46.27953938380897" lon="12.393186290087726"><ele>759.0</ele><time>2026-04-23T09:18:12.999Z</time></trkpt><trkpt lat="46.279636519752714" lon="12.393365149186303"><ele>756.0</ele><time>2026-04-23T09:18:13.999Z</time></trkpt><trkpt lat="46.279764186694145" lon="12.393543719353605"><ele>761.6666666666667</ele><time>2026-04-23T09:18:14.999Z</time></trkpt><trkpt lat="46.27990177438862" lon="12.393731208525748"><ele>767.3333333333334</ele><time>2026-04-23T09:18:15.999Z</time></trkpt><trkpt lat="46.280057888304775" lon="12.393909769110753"><ele>773.0</ele><time>2026-04-23T09:18:16.999Z</time></trkpt><trkpt lat="46.28018704107823" lon="12.394098700260914"><ele>773.0</ele><time>2026-04-23T09:18:17.999Z</time></trkpt><trkpt lat="46.28030652580162" lon="12.394274056096119"><ele>773.0</ele><time>2026-04-23T09:18:18.999Z</time></trkpt><trkpt lat="46.280416857296224" lon="12.39442944317663"><ele>773.0</ele><time>2026-04-23T09:18:19.999Z</time></trkpt><trkpt lat="46.28052306761245" lon="12.394590797528389"><ele>773.75</ele><time>2026-04-23T09:18:20.999Z</time></trkpt><trkpt lat="46.280621870152" lon="12.39476256453332"><ele>774.5</ele><time>2026-04-23T09:18:21.999Z</time></trkpt><trkpt lat="46.28070757228292" lon="12.394932803756053"><ele>775.25</ele><time>2026-04-23T09:18:22.999Z</time></trkpt><trkpt lat="46.2807901949829" lon="12.395101679460222"><ele>776.0</ele><time>2026-04-23T09:18:23.999Z</time></trkpt><trkpt lat="46.28087164289297" lon="12.395273196179426"><ele>776.0</ele><time>2026-04-23T09:18:24.999Z</time></trkpt><trkpt lat="46.280946076389455" lon="12.395449097453609"><ele>776.0</ele><time>2026-04-23T09:18:25.999Z</time></trkpt><trkpt lat="46.281016210264326" lon="12.395629156068958"><ele>776.0</ele><time>2026-04-23T09:18:26.999Z</time></trkpt><trkpt lat="46.281084329519295" lon="12.395814504701034"><ele>776.0</ele><time>2026-04-23T09:18:27.999Z</time></trkpt><trkpt lat="46.28115156649226" lon="12.395999169859135"><ele>775.5</ele><time>2026-04-23T09:18:28.999Z</time></trkpt><trkpt lat="46.281219716883136" lon="12.39618584534404"><ele>775.0</ele><time>2026-04-23T09:18:29.999Z</time></trkpt><trkpt lat="46.28128504028688" lon="12.396368999670123"><ele>774.5</ele><time>2026-04-23T09:18:30.999Z</time></trkpt><trkpt lat="46.28134767996867" lon="12.396554148082467"><ele>774.0</ele><time>2026-04-23T09:18:31.999Z</time></trkpt><trkpt lat="46.28141234633703" lon="12.396744014945961"><ele>776.5</ele><time>2026-04-23T09:18:32.999Z</time></trkpt><trkpt lat="46.281476537211745" lon="12.39693509247342"><ele>779.0</ele><time>2026-04-23T09:18:33.999Z</time></trkpt><trkpt lat="46.281539851784586" lon="12.397122499461949"><ele>781.5</ele><time>2026-04-23T09:18:34.999Z</time></trkpt><trkpt lat="46.28160171670728" lon="12.39730037466435"><ele>784.0</ele><time>2026-04-23T09:18:35.999Z</time></trkpt><trkpt lat="46.28166599607545" lon="12.397462206823837"><ele>785.0</ele><time>2026-04-23T09:18:36.999Z</time></trkpt><trkpt lat="46.28174797817412" lon="12.397599450109972"><ele>786.0</ele><time>2026-04-23T09:18:37.999Z</time></trkpt><trkpt lat="46.28184792076178" lon="12.397717662986196"><ele>787.0</ele><time>2026-04-23T09:18:38.999Z</time></trkpt><trkpt lat="46.2819372979186" lon="12.397860133408564"><ele>788.0</ele><time>2026-04-23T09:18:39.999Z</time></trkpt><trkpt lat="46.282054737195004" lon="12.397962299191619"><ele>788.5</ele><time>2026-04-23T09:18:40.999Z</time></trkpt><trkpt lat="46.28215542118768" lon="12.398094200093595"><ele>789.0</ele><time>2026-04-23T09:18:41.999Z</time></trkpt><trkpt lat="46.28225951933899" lon="12.398222257169301"><ele>789.5</ele><time>2026-04-23T09:18:42.999Z</time></trkpt><trkpt lat="46.28236580863637" lon="12.398353034416335"><ele>790.0</ele><time>2026-04-23T09:18:43.999Z</time></trkpt><trkpt lat="46.28247239348175" lon="12.398486165592809"><ele>790.0</ele><time>2026-04-23T09:18:44.999Z</time></trkpt><trkpt lat="46.28258054051042" lon="12.398620940193206"><ele>790.0</ele><time>2026-04-23T09:18:45.999Z</time></trkpt><trkpt lat="46.28268693697515" lon="12.398758277903465"><ele>790.0</ele><time>2026-04-23T09:18:46.999Z</time></trkpt><trkpt lat="46.28279403015724" lon="12.39889594733969"><ele>790.0</ele><time>2026-04-23T09:18:47.999Z</time></trkpt><trkpt lat="46.28290162938917" lon="12.399033700210225"><ele>792.0</ele><time>2026-04-23T09:18:48.999Z</time></trkpt><trkpt lat="46.28300910919066" lon="12.399169609499532"><ele>794.0</ele><time>2026-04-23T09:18:49.999Z</time></trkpt><trkpt lat="46.28311639233688" lon="12.399308803799933"><ele>796.0</ele><time>2026-04-23T09:18:50.999Z</time></trkpt><trkpt lat="46.28322386945468" lon="12.399449252415694"><ele>798.0</ele><time>2026-04-23T09:18:51.999Z</time></trkpt><trkpt lat="46.28333269275878" lon="12.39958739557687"><ele>800.0</ele><time>2026-04-23T09:18:52.999Z</time></trkpt><trkpt lat="46.28343884296519" lon="12.399730408964608"><ele>802.0</ele><time>2026-04-23T09:18:53.999Z</time></trkpt><trkpt lat="46.283535881713476" lon="12.39988492777886"><ele>804.0</ele><time>2026-04-23T09:18:54.999Z</time></trkpt><trkpt lat="46.28362791089526" lon="12.400044350501902"><ele>806.0</ele><time>2026-04-23T09:18:55.999Z</time></trkpt><trkpt lat="46.2837233497313" lon="12.40019459786599"><ele>806.0</ele><time>2026-04-23T09:18:56.999Z</time></trkpt><trkpt lat="46.283823511861755" lon="12.400336317682008"><ele>806.0</ele><time>2026-04-23T09:18:57.999Z</time></trkpt><trkpt lat="46.283927175736395" lon="12.400468508615058"><ele>806.0</ele><time>2026-04-23T09:18:58.999Z</time></trkpt><trkpt lat="46.28403547138762" lon="12.400596082352955"><ele>806.0</ele><time>2026-04-23T09:18:59.999Z</time></trkpt><trkpt lat="46.284147952189784" lon="12.40071845743585"><ele>807.0</ele><time>2026-04-23T09:19:00.999Z</time></trkpt><trkpt lat="46.284248856715855" lon="12.400837447018509"><ele>808.0</ele><time>2026-04-23T09:19:01.999Z</time></trkpt><trkpt lat="46.284337030938744" lon="12.400972642909855"><ele>809.0</ele><time>2026-04-23T09:19:02.999Z</time></trkpt><trkpt lat="46.28440540290659" lon="12.401114614083701"><ele>810.0</ele><time>2026-04-23T09:19:03.998Z</time></trkpt><trkpt lat="46.2844650386548" lon="12.401272647884749"><ele>811.5</ele><time>2026-04-23T09:19:04.998Z</time></trkpt><trkpt lat="46.28451154919015" lon="12.401454080934448"><ele>813.0</ele><time>2026-04-23T09:19:05.998Z</time></trkpt><trkpt lat="46.28450866715119" lon="12.40165952593322"><ele>814.5</ele><time>2026-04-23T09:19:06.998Z</time></trkpt><trkpt lat="46.28453118265713" lon="12.401866498932268"><ele>816.0</ele><time>2026-04-23T09:19:07.998Z</time></trkpt><trkpt lat="46.284540488340234" lon="12.40208188702955"><ele>820.0</ele><time>2026-04-23T09:19:08.998Z</time></trkpt><trkpt lat="46.28457187231879" lon="12.40229878264798"><ele>824.0</ele><time>2026-04-23T09:19:09.998Z</time></trkpt><trkpt lat="46.28461861031709" lon="12.402511468955218"><ele>828.0</ele><time>2026-04-23T09:19:10.998Z</time></trkpt><trkpt lat="46.284671963351116" lon="12.402722739444838"><ele>828.0</ele><time>2026-04-23T09:19:11.998Z</time></trkpt><trkpt lat="46.28472623895176" lon="12.402932604481109"><ele>828.0</ele><time>2026-04-23T09:19:13Z</time></trkpt><trkpt lat="46.2847843368022" lon="12.403137725614034"><ele>828.0</ele><time>2026-04-23T09:19:14Z</time></trkpt><trkpt lat="46.28483616648612" lon="12.403339590848036"><ele>824.0</ele><time>2026-04-23T09:19:15Z</time></trkpt><trkpt lat="46.284879516912106" lon="12.403532075927725"><ele>820.0</ele><time>2026-04-23T09:19:16Z</time></trkpt><trkpt lat="46.28492349856159" lon="12.403724993491075"><ele>816.0</ele><time>2026-04-23T09:19:17Z</time></trkpt><trkpt lat="46.28497107631277" lon="12.403922297221035"><ele>812.0</ele><time>2026-04-23T09:19:18Z</time></trkpt><trkpt lat="46.28502448767056" lon="12.40411823187737"><ele>811.75</ele><time>2026-04-23T09:19:19Z</time></trkpt><trkpt lat="46.2850834841948" lon="12.404311472199966"><ele>811.5</ele><time>2026-04-23T09:19:20Z</time></trkpt><trkpt lat="46.28515431123822" lon="12.404501367254982"><ele>811.25</ele><time>2026-04-23T09:19:21Z</time></trkpt><trkpt lat="46.28523697510185" lon="12.404687177341254"><ele>811.0</ele><time>2026-04-23T09:19:22Z</time></trkpt><trkpt lat="46.28532961075569" lon="12.404872391648249"><ele>811.0</ele><time>2026-04-23T09:19:23Z</time></trkpt><trkpt lat="46.28542614867073" lon="12.40506045650305"><ele>811.0</ele><time>2026-04-23T09:19:24Z</time></trkpt><trkpt lat="46.28551955949677" lon="12.405254737519066"><ele>811.0</ele><time>2026-04-23T09:19:25Z</time></trkpt><trkpt lat="46.28561463171848" lon="12.405445786993305"><ele>812.3333333333333</ele><time>2026-04-23T09:19:26Z</time></trkpt><trkpt lat="46.28571890997727" lon="12.405627395668814"><ele>813.6666666666667</ele><time>2026-04-23T09:19:27Z</time></trkpt><trkpt lat="46.28583777703893" lon="12.40579537211055"><ele>815.0</ele><time>2026-04-23T09:19:28Z</time></trkpt><trkpt lat="46.285966881025026" lon="12.405947519317872"><ele>815.0</ele><time>2026-04-23T09:19:29Z</time></trkpt><trkpt lat="46.28610278008439" lon="12.406087767687916"><ele>815.0</ele><time>2026-04-23T09:19:30Z</time></trkpt><trkpt lat="46.286239206111205" lon="12.406211261144735"><ele>815.0</ele><time>2026-04-23T09:19:31Z</time></trkpt><trkpt lat="46.28637166735922" lon="12.406321507894395"><ele>815.0</ele><time>2026-04-23T09:19:32Z</time></trkpt><trkpt lat="46.286501199094424" lon="12.4064194013382"><ele>815.0</ele><time>2026-04-23T09:19:33Z</time></trkpt><trkpt lat="46.28662862057824" lon="12.406495272176398"><ele>815.0</ele><time>2026-04-23T09:19:34Z</time></trkpt><trkpt lat="46.286744871056456" lon="12.406563668914805"><ele>815.0</ele><time>2026-04-23T09:19:35Z</time></trkpt><trkpt lat="46.2868486612582" lon="12.406631549180402"><ele>815.0000000000001</ele><time>2026-04-23T09:19:36Z</time></trkpt><trkpt lat="46.28693613805692" lon="12.406708798760437"><ele>815.0</ele><time>2026-04-23T09:19:37Z</time></trkpt><trkpt lat="46.2870025427308" lon="12.4068045354084"><ele>815.0</ele><time>2026-04-23T09:19:38Z</time></trkpt><trkpt lat="46.287045874650225" lon="12.406912758090595"><ele>815.0</ele><time>2026-04-23T09:19:39Z</time></trkpt><trkpt lat="46.28705044958339" lon="12.407027159236874"><ele>815.0000000000001</ele><time>2026-04-23T09:19:40Z</time></trkpt><trkpt lat="46.28701316172186" lon="12.40711981969653"><ele>815.0</ele><time>2026-04-23T09:19:41Z</time></trkpt><trkpt lat="46.286951071617764" lon="12.40717229872995"><ele>815.0000000000001</ele><time>2026-04-23T09:19:42Z</time></trkpt><trkpt lat="46.28687877905884" lon="12.40719672761106"><ele>815.0</ele><time>2026-04-23T09:19:43Z</time></trkpt><trkpt lat="46.28680777467779" lon="12.40718985162028"><ele>815.0</ele><time>2026-04-23T09:19:44Z</time></trkpt><trkpt lat="46.286730217098935" lon="12.407107044723258"><ele>815.0</ele><time>2026-04-23T09:19:45Z</time></trkpt><trkpt lat="46.286651482245745" lon="12.407091636978562"><ele>815.0000000000001</ele><time>2026-04-23T09:19:46Z</time></trkpt><trkpt lat="46.28655015239372" lon="12.40704519865762"><ele>815.0</ele><time>2026-04-23T09:19:47Z</time></trkpt><trkpt lat="46.28641753621202" lon="12.407034924920083"><ele>814.25</ele><time>2026-04-23T09:19:48Z</time></trkpt><trkpt lat="46.28627332980736" lon="12.407054451059167"><ele>813.5</ele><time>2026-04-23T09:19:49Z</time></trkpt><trkpt lat="46.28613219480035" lon="12.407106954163858"><ele>812.75</ele><time>2026-04-23T09:19:50Z</time></trkpt><trkpt lat="46.28601159461719" lon="12.407197324110301"><ele>812.0</ele><time>2026-04-23T09:19:51Z</time></trkpt><trkpt lat="46.28591352863102" lon="12.407336762181192"><ele>815.3333333333334</ele><time>2026-04-23T09:19:52Z</time></trkpt><trkpt lat="46.28582850341198" lon="12.40751623016323"><ele>818.6666666666667</ele><time>2026-04-23T09:19:53Z</time></trkpt><trkpt lat="46.28573525080027" lon="12.407702521597779"><ele>822.0</ele><time>2026-04-23T09:19:54Z</time></trkpt><trkpt lat="46.28564270954026" lon="12.407864773513708"><ele>828.5</ele><time>2026-04-23T09:19:55Z</time></trkpt><trkpt lat="46.285563514590685" lon="12.408013258229925"><ele>835.0</ele><time>2026-04-23T09:19:56Z</time></trkpt><trkpt lat="46.2855002382533" lon="12.408150626409563"><ele>841.5</ele><time>2026-04-23T09:19:57Z</time></trkpt><trkpt lat="46.28545942070046" lon="12.408298166732393"><ele>848.0</ele><time>2026-04-23T09:19:58Z</time></trkpt><trkpt lat="46.28543621305026" lon="12.408456670816625"><ele>848.0</ele><time>2026-04-23T09:19:58.999Z</time></trkpt><trkpt lat="46.28542252000525" lon="12.408603508185937"><ele>848.0</ele><time>2026-04-23T09:19:59.999Z</time></trkpt><trkpt lat="46.28541468113459" lon="12.408754393022905"><ele>848.0</ele><time>2026-04-23T09:20:00.999Z</time></trkpt><trkpt lat="46.285413759354256" lon="12.408915026194931"><ele>848.0</ele><time>2026-04-23T09:20:01.999Z</time></trkpt><trkpt lat="46.285413825438475" lon="12.409074499370542"><ele>848.0</ele><time>2026-04-23T09:20:02.999Z</time></trkpt><trkpt lat="46.28540835619451" lon="12.409229528277908"><ele>847.5</ele><time>2026-04-23T09:20:03.999Z</time></trkpt><trkpt lat="46.28540475986277" lon="12.409392219495599"><ele>847.0</ele><time>2026-04-23T09:20:04.999Z</time></trkpt><trkpt lat="46.285408517508145" lon="12.40956049149534"><ele>846.5</ele><time>2026-04-23T09:20:05.999Z</time></trkpt><trkpt lat="46.285424369186444" lon="12.4097448145418"><ele>846.0</ele><time>2026-04-23T09:20:06.999Z</time></trkpt><trkpt lat="46.285456926343265" lon="12.409944652085557"><ele>846.0</ele><time>2026-04-23T09:20:07.999Z</time></trkpt><trkpt lat="46.28550281167132" lon="12.410158293579455"><ele>846.0</ele><time>2026-04-23T09:20:08.999Z</time></trkpt><trkpt lat="46.28555714154353" lon="12.410377194176855"><ele>846.0</ele><time>2026-04-23T09:20:09.999Z</time></trkpt><trkpt lat="46.28561574046883" lon="12.410604797784288"><ele>838.0</ele><time>2026-04-23T09:20:10.999Z</time></trkpt><trkpt lat="46.285671061461045" lon="12.410840650609199"><ele>830.0</ele><time>2026-04-23T09:20:11.999Z</time></trkpt><trkpt lat="46.285725852441495" lon="12.411073843148852"><ele>822.0</ele><time>2026-04-23T09:20:12.999Z</time></trkpt><trkpt lat="46.28577517275228" lon="12.41129738799712"><ele>820.6666666666667</ele><time>2026-04-23T09:20:13.999Z</time></trkpt><trkpt lat="46.2858263717759" lon="12.411519721104334"><ele>819.3333333333334</ele><time>2026-04-23T09:20:14.999Z</time></trkpt><trkpt lat="46.285883073684836" lon="12.411745036309945"><ele>818.0</ele><time>2026-04-23T09:20:15.999Z</time></trkpt><trkpt lat="46.28594836294535" lon="12.411965058422446"><ele>814.3333333333334</ele><time>2026-04-23T09:20:16.999Z</time></trkpt><trkpt lat="46.286024841819376" lon="12.412170859537406"><ele>810.6666666666667</ele><time>2026-04-23T09:20:17.999Z</time></trkpt><trkpt lat="46.28610030313395" lon="12.412379680603605"><ele>807.0</ele><time>2026-04-23T09:20:18.999Z</time></trkpt><trkpt lat="46.28616196718646" lon="12.412599623718354"><ele>807.0</ele><time>2026-04-23T09:20:19.999Z</time></trkpt><trkpt lat="46.286198143482224" lon="12.412827068219185"><ele>807.0</ele><time>2026-04-23T09:20:20.999Z</time></trkpt><trkpt lat="46.28619499435578" lon="12.413065388926647"><ele>807.0</ele><time>2026-04-23T09:20:21.999Z</time></trkpt><trkpt lat="46.28619160151496" lon="12.413307463274055"><ele>804.6666666666667</ele><time>2026-04-23T09:20:22.999Z</time></trkpt><trkpt lat="46.28619192993451" lon="12.413551925485036"><ele>802.3333333333334</ele><time>2026-04-23T09:20:23.999Z</time></trkpt><trkpt lat="46.2861828250908" lon="12.413795063721105"><ele>800.0</ele><time>2026-04-23T09:20:24.999Z</time></trkpt><trkpt lat="46.28620392478032" lon="12.414045944882597"><ele>800.0</ele><time>2026-04-23T09:20:25.999Z</time></trkpt><trkpt lat="46.28626066204392" lon="12.414301512305986"><ele>800.0</ele><time>2026-04-23T09:20:26.999Z</time></trkpt><trkpt lat="46.28631059261463" lon="12.41455361790185"><ele>800.0</ele><time>2026-04-23T09:20:27.999Z</time></trkpt><trkpt lat="46.28636029931218" lon="12.414801510391854"><ele>799.0</ele><time>2026-04-23T09:20:28.999Z</time></trkpt><trkpt lat="46.28640188582532" lon="12.415048528642771"><ele>798.0</ele><time>2026-04-23T09:20:29.999Z</time></trkpt><trkpt lat="46.28643109103408" lon="12.415293104886594"><ele>797.0</ele><time>2026-04-23T09:20:30.999Z</time></trkpt><trkpt lat="46.28645195061795" lon="12.415530398657195"><ele>799.0</ele><time>2026-04-23T09:20:31.999Z</time></trkpt><trkpt lat="46.28646896202192" lon="12.415771404963023"><ele>801.0</ele><time>2026-04-23T09:20:32.999Z</time></trkpt><trkpt lat="46.28647446659436" lon="12.41601592827545"><ele>803.0</ele><time>2026-04-23T09:20:33.999Z</time></trkpt><trkpt lat="46.286468714108615" lon="12.416258386113707"><ele>803.3333333333334</ele><time>2026-04-23T09:20:34.999Z</time></trkpt><trkpt lat="46.286457872720376" lon="12.416489076871247"><ele>803.6666666666667</ele><time>2026-04-23T09:20:35.999Z</time></trkpt><trkpt lat="46.286455221705765" lon="12.416704024371981"><ele>804.0</ele><time>2026-04-23T09:20:36.999Z</time></trkpt><trkpt lat="46.286472780825626" lon="12.416908407545082"><ele>804.0</ele><time>2026-04-23T09:20:37.999Z</time></trkpt><trkpt lat="46.28649227465728" lon="12.41711937261172"><ele>804.0</ele><time>2026-04-23T09:20:38.999Z</time></trkpt><trkpt lat="46.28648262081603" lon="12.41732309925487"><ele>804.0</ele><time>2026-04-23T09:20:39.999Z</time></trkpt><trkpt lat="46.28643706678139" lon="12.417522429247073"><ele>804.0</ele><time>2026-04-23T09:20:40.999Z</time></trkpt><trkpt lat="46.286388144310315" lon="12.417720517691361"><ele>802.3333333333333</ele><time>2026-04-23T09:20:41.999Z</time></trkpt><trkpt lat="46.28634017935132" lon="12.417927088314746"><ele>800.6666666666666</ele><time>2026-04-23T09:20:42.999Z</time></trkpt><trkpt lat="46.28629224970386" lon="12.418135202178206"><ele>799.0</ele><time>2026-04-23T09:20:43.999Z</time></trkpt><trkpt lat="46.28624327201693" lon="12.418337936254359"><ele>798.0</ele><time>2026-04-23T09:20:44.999Z</time></trkpt><trkpt lat="46.28619817181096" lon="12.418530201756845"><ele>797.0</ele><time>2026-04-23T09:20:45.999Z</time></trkpt><trkpt lat="46.286161458130685" lon="12.418706846926296"><ele>796.0</ele><time>2026-04-23T09:20:46.999Z</time></trkpt><trkpt lat="46.28614481674652" lon="12.418872942949294"><ele>795.0</ele><time>2026-04-23T09:20:47.999Z</time></trkpt><trkpt lat="46.286161459527975" lon="12.419044457689862"><ele>794.25</ele><time>2026-04-23T09:20:48.999Z</time></trkpt><trkpt lat="46.28621767452888" lon="12.419207350591856"><ele>793.5</ele><time>2026-04-23T09:20:49.999Z</time></trkpt><trkpt lat="46.28630696848002" lon="12.419356745939371"><ele>792.75</ele><time>2026-04-23T09:20:50.999Z</time></trkpt><trkpt lat="46.286412153916615" lon="12.419471141951538"><ele>792.0</ele><time>2026-04-23T09:20:51.999Z</time></trkpt><trkpt lat="46.28650603161413" lon="12.41958677057778"><ele>790.75</ele><time>2026-04-23T09:20:52.999Z</time></trkpt><trkpt lat="46.286555755880286" lon="12.41974345709889"><ele>789.5</ele><time>2026-04-23T09:20:53.999Z</time></trkpt><trkpt lat="46.286581888516864" lon="12.419948978856498"><ele>788.25</ele><time>2026-04-23T09:20:54.999Z</time></trkpt><trkpt lat="46.28660160905335" lon="12.420164643681783"><ele>787.0</ele><time>2026-04-23T09:20:55.999Z</time></trkpt><trkpt lat="46.28664710660919" lon="12.420368912240011"><ele>783.0</ele><time>2026-04-23T09:20:56.999Z</time></trkpt><trkpt lat="46.286720262300065" lon="12.420562448240364"><ele>779.0</ele><time>2026-04-23T09:20:57.999Z</time></trkpt><trkpt lat="46.286815278646785" lon="12.420743906300801"><ele>775.0</ele><time>2026-04-23T09:20:58.999Z</time></trkpt><trkpt lat="46.28688703344809" lon="12.420939762990583"><ele>775.0</ele><time>2026-04-23T09:20:59.999Z</time></trkpt><trkpt lat="46.28690631472962" lon="12.421166484113323"><ele>775.0</ele><time>2026-04-23T09:21:00.999Z</time></trkpt><trkpt lat="46.28690923551931" lon="12.42140230817196"><ele>775.0</ele><time>2026-04-23T09:21:01.999Z</time></trkpt><trkpt lat="46.286908112275974" lon="12.42164217649662"><ele>772.3333333333333</ele><time>2026-04-23T09:21:02.999Z</time></trkpt><trkpt lat="46.28690690447414" lon="12.421868599220616"><ele>769.6666666666666</ele><time>2026-04-23T09:21:03.999Z</time></trkpt><trkpt lat="46.286915394413434" lon="12.422096888760024"><ele>767.0</ele><time>2026-04-23T09:21:04.998Z</time></trkpt><trkpt lat="46.28691917812231" lon="12.422336218565109"><ele>763.6666666666666</ele><time>2026-04-23T09:21:05.998Z</time></trkpt><trkpt lat="46.286940112210715" lon="12.422586143569793"><ele>760.3333333333334</ele><time>2026-04-23T09:21:06.998Z</time></trkpt><trkpt lat="46.28698953298906" lon="12.42283460859636"><ele>757.0</ele><time>2026-04-23T09:21:07.998Z</time></trkpt><trkpt lat="46.287053634312315" lon="12.423083566893064"><ele>754.3333333333334</ele><time>2026-04-23T09:21:08.998Z</time></trkpt><trkpt lat="46.287110911914034" lon="12.423322381495641"><ele>751.6666666666666</ele><time>2026-04-23T09:21:09.998Z</time></trkpt><trkpt lat="46.28716601760333" lon="12.42354532309741"><ele>749.0</ele><time>2026-04-23T09:21:10.998Z</time></trkpt><trkpt lat="46.287233585497376" lon="12.423751414412111"><ele>748.75</ele><time>2026-04-23T09:21:11.998Z</time></trkpt><trkpt lat="46.28732183448016" lon="12.42393209798438"><ele>748.5</ele><time>2026-04-23T09:21:12.998Z</time></trkpt><trkpt lat="46.28741884029994" lon="12.424087176631783"><ele>748.25</ele><time>2026-04-23T09:21:13.998Z</time></trkpt><trkpt lat="46.2875010534818" lon="12.424225117443534"><ele>748.0</ele><time>2026-04-23T09:21:14.998Z</time></trkpt><trkpt lat="46.28756655924247" lon="12.424358170390851"><ele>748.0</ele><time>2026-04-23T09:21:15.998Z</time></trkpt><trkpt lat="46.28758662949764" lon="12.424489189360942"><ele>748.0</ele><time>2026-04-23T09:21:16.998Z</time></trkpt><trkpt lat="46.28761005845879" lon="12.424589412788086"><ele>748.0</ele><time>2026-04-23T09:21:17.998Z</time></trkpt><trkpt lat="46.28757967207009" lon="12.42474854051198"><ele>748.0</ele><time>2026-04-23T09:21:20Z</time></trkpt><trkpt lat="46.28747368655662" lon="12.424777857109556"><ele>748.0</ele><time>2026-04-23T09:21:22Z</time></trkpt><trkpt lat="46.28741080735834" lon="12.424692719410134"><ele>748.0</ele><time>2026-04-23T09:21:23Z</time></trkpt><trkpt lat="46.28738208466193" lon="12.424554679270402"><ele>748.0</ele><time>2026-04-23T09:21:24Z</time></trkpt><trkpt lat="46.28737219197377" lon="12.42440051991315"><ele>748.0</ele><time>2026-04-23T09:21:25Z</time></trkpt><trkpt lat="46.287353608329255" lon="12.424249981173432"><ele>748.0</ele><time>2026-04-23T09:21:26Z</time></trkpt><trkpt lat="46.28731906904553" lon="12.424115919660355"><ele>748.0</ele><time>2026-04-23T09:21:27Z</time></trkpt><trkpt lat="46.28725367003564" lon="12.424022376227292"><ele>748.5999999999999</ele><time>2026-04-23T09:21:28Z</time></trkpt><trkpt lat="46.28717164706515" lon="12.423978816389821"><ele>749.1999999999999</ele><time>2026-04-23T09:21:29Z</time></trkpt><trkpt lat="46.28709195496797" lon="12.423991282282072"><ele>749.8</ele><time>2026-04-23T09:21:30Z</time></trkpt><trkpt lat="46.287015129447106" lon="12.424070654080001"><ele>750.4</ele><time>2026-04-23T09:21:31Z</time></trkpt><trkpt lat="46.28695561601945" lon="12.424207415163384"><ele>751.0</ele><time>2026-04-23T09:21:32Z</time></trkpt><trkpt lat="46.286932205486295" lon="12.424378024701344"><ele>751.0</ele><time>2026-04-23T09:21:33Z</time></trkpt><trkpt lat="46.28694326549227" lon="12.42455987664034"><ele>751.0</ele><time>2026-04-23T09:21:34Z</time></trkpt><trkpt lat="46.286971370080394" lon="12.424749843234574"><ele>751.0</ele><time>2026-04-23T09:21:35Z</time></trkpt><trkpt lat="46.286997044311434" lon="12.42495273332961"><ele>751.0</ele><time>2026-04-23T09:21:36Z</time></trkpt><trkpt lat="46.287000217973535" lon="12.425157410560834"><ele>750.0</ele><time>2026-04-23T09:21:37Z</time></trkpt><trkpt lat="46.2869840706163" lon="12.425366273643128"><ele>749.0</ele><time>2026-04-23T09:21:38Z</time></trkpt><trkpt lat="46.28695382203225" lon="12.425573586616158"><ele>748.0</ele><time>2026-04-23T09:21:39Z</time></trkpt><trkpt lat="46.28689391093295" lon="12.425768785749401"><ele>747.0</ele><time>2026-04-23T09:21:40Z</time></trkpt><trkpt lat="46.28685310254966" lon="12.425967753550422"><ele>745.5</ele><time>2026-04-23T09:21:41Z</time></trkpt><trkpt lat="46.28684171769855" lon="12.426152995055164"><ele>744.0</ele><time>2026-04-23T09:21:42Z</time></trkpt><trkpt lat="46.28685138324791" lon="12.426339091967693"><ele>742.5</ele><time>2026-04-23T09:21:43Z</time></trkpt><trkpt lat="46.28690219612315" lon="12.426536709082297"><ele>741.0</ele><time>2026-04-23T09:21:44Z</time></trkpt><trkpt lat="46.28697619164951" lon="12.42672247596832"><ele>741.0</ele><time>2026-04-23T09:21:45Z</time></trkpt><trkpt lat="46.28706062050045" lon="12.426900769705899"><ele>741.0</ele><time>2026-04-23T09:21:46Z</time></trkpt><trkpt lat="46.287132102438704" lon="12.42708293771936"><ele>741.0</ele><time>2026-04-23T09:21:47Z</time></trkpt><trkpt lat="46.28718450051845" lon="12.42728599294438"><ele>741.0</ele><time>2026-04-23T09:21:48Z</time></trkpt><trkpt lat="46.28719942014733" lon="12.427507109939723"><ele>741.25</ele><time>2026-04-23T09:21:49Z</time></trkpt><trkpt lat="46.287206498484096" lon="12.42772220191077"><ele>741.5</ele><time>2026-04-23T09:21:50Z</time></trkpt><trkpt lat="46.287194840204876" lon="12.427935555954125"><ele>741.75</ele><time>2026-04-23T09:21:51Z</time></trkpt><trkpt lat="46.28717534906303" lon="12.428136302566633"><ele>742.0</ele><time>2026-04-23T09:21:52Z</time></trkpt><trkpt lat="46.28714440688737" lon="12.428324050150744"><ele>742.0</ele><time>2026-04-23T09:21:53Z</time></trkpt><trkpt lat="46.28709812872953" lon="12.428499478673631"><ele>742.0</ele><time>2026-04-23T09:21:54Z</time></trkpt><trkpt lat="46.28705012212978" lon="12.428649089629586"><ele>742.0</ele><time>2026-04-23T09:21:55Z</time></trkpt><trkpt lat="46.287010140646515" lon="12.428783432908181"><ele>742.0</ele><time>2026-04-23T09:21:56Z</time></trkpt><trkpt lat="46.286962518080195" lon="12.428887627186896"><ele>742.0</ele><time>2026-04-23T09:21:57Z</time></trkpt><trkpt lat="46.28694058722387" lon="12.428975360865785"><ele>742.0</ele><time>2026-04-23T09:21:58Z</time></trkpt><trkpt lat="46.2869682348277" lon="12.429065548257888"><ele>742.0</ele><time>2026-04-23T09:21:59Z</time></trkpt><trkpt lat="46.28703133357045" lon="12.429130411748915"><ele>742.0</ele><time>2026-04-23T09:22:00Z</time></trkpt><trkpt lat="46.287111615921155" lon="12.429129040122938"><ele>742.0</ele><time>2026-04-23T09:22:01Z</time></trkpt><trkpt lat="46.287180093287056" lon="12.429056017278635"><ele>742.0</ele><time>2026-04-23T09:22:02Z</time></trkpt><trkpt lat="46.28721406518127" lon="12.4289238659832"><ele>742.0</ele><time>2026-04-23T09:22:02.999Z</time></trkpt><trkpt lat="46.28723675207824" lon="12.42875649006716"><ele>732.0</ele><time>2026-04-23T09:22:03.999Z</time></trkpt><trkpt lat="46.28727201497875" lon="12.428578256365077"><ele>722.0</ele><time>2026-04-23T09:22:04.999Z</time></trkpt><trkpt lat="46.28731832601824" lon="12.428407163726831"><ele>712.0</ele><time>2026-04-23T09:22:05.999Z</time></trkpt><trkpt lat="46.28736303463074" lon="12.428253844559244"><ele>702.0</ele><time>2026-04-23T09:22:06.999Z</time></trkpt><trkpt lat="46.28741443648756" lon="12.428122766261522"><ele>702.0</ele><time>2026-04-23T09:22:07.999Z</time></trkpt><trkpt lat="46.28746899235219" lon="12.42803648858339"><ele>702.0</ele><time>2026-04-23T09:22:08.999Z</time></trkpt><trkpt lat="46.28753492653566" lon="12.428000063236682"><ele>702.0</ele><time>2026-04-23T09:22:09.999Z</time></trkpt><trkpt lat="46.28761152132081" lon="12.428020516377318"><ele>702.0</ele><time>2026-04-23T09:22:10.999Z</time></trkpt><trkpt lat="46.28767704718971" lon="12.428107825618858"><ele>702.0</ele><time>2026-04-23T09:22:11.999Z</time></trkpt><trkpt lat="46.2877001657817" lon="12.42826430264376"><ele>702.0</ele><time>2026-04-23T09:22:12.999Z</time></trkpt><trkpt lat="46.28776047470096" lon="12.428412856454933"><ele>702.0</ele><time>2026-04-23T09:22:13.999Z</time></trkpt><trkpt lat="46.28780490068665" lon="12.428593321361358"><ele>702.0</ele><time>2026-04-23T09:22:14.999Z</time></trkpt><trkpt lat="46.28785265964673" lon="12.428781216852832"><ele>702.0</ele><time>2026-04-23T09:22:15.999Z</time></trkpt><trkpt lat="46.28789266313861" lon="12.428977693922372"><ele>702.0</ele><time>2026-04-23T09:22:16.999Z</time></trkpt><trkpt lat="46.287919216106346" lon="12.42918611549742"><ele>697.6666666666666</ele><time>2026-04-23T09:22:17.999Z</time></trkpt><trkpt lat="46.28792739765428" lon="12.429409308662544"><ele>693.3333333333333</ele><time>2026-04-23T09:22:18.999Z</time></trkpt><trkpt lat="46.287912289029954" lon="12.429637752884332"><ele>689.0</ele><time>2026-04-23T09:22:19.999Z</time></trkpt><trkpt lat="46.28787851324184" lon="12.429858968197978"><ele>683.6666666666666</ele><time>2026-04-23T09:22:20.999Z</time></trkpt><trkpt lat="46.28783325934505" lon="12.430070290341922"><ele>678.3333333333334</ele><time>2026-04-23T09:22:21.999Z</time></trkpt><trkpt lat="46.287768371982715" lon="12.430267079277106"><ele>673.0</ele><time>2026-04-23T09:22:22.999Z</time></trkpt><trkpt lat="46.28765531241466" lon="12.430406917106808"><ele>671.75</ele><time>2026-04-23T09:22:23.999Z</time></trkpt><trkpt lat="46.2875547726211" lon="12.430563836211567"><ele>670.5</ele><time>2026-04-23T09:22:24.999Z</time></trkpt><trkpt lat="46.28744169333067" lon="12.430692946557176"><ele>669.25</ele><time>2026-04-23T09:22:25.999Z</time></trkpt><trkpt lat="46.287336714850746" lon="12.430838560320003"><ele>668.0</ele><time>2026-04-23T09:22:26.999Z</time></trkpt><trkpt lat="46.28725733675403" lon="12.431022856787012"><ele>668.0</ele><time>2026-04-23T09:22:27.999Z</time></trkpt><trkpt lat="46.287199607914864" lon="12.431228377109422"><ele>668.0</ele><time>2026-04-23T09:22:28.999Z</time></trkpt><trkpt lat="46.287153296146606" lon="12.431441412448992"><ele>668.0</ele><time>2026-04-23T09:22:29.999Z</time></trkpt><trkpt lat="46.28711288343061" lon="12.431655922284484"><ele>664.75</ele><time>2026-04-23T09:22:30.999Z</time></trkpt><trkpt lat="46.28707827359342" lon="12.431863093487792"><ele>661.5</ele><time>2026-04-23T09:22:31.999Z</time></trkpt><trkpt lat="46.287052885712406" lon="12.432069985951395"><ele>658.25</ele><time>2026-04-23T09:22:32.999Z</time></trkpt><trkpt lat="46.28703212320762" lon="12.432267282520275"><ele>655.0</ele><time>2026-04-23T09:22:33.999Z</time></trkpt><trkpt lat="46.28701661109543" lon="12.432450171628375"><ele>653.6</ele><time>2026-04-23T09:22:34.999Z</time></trkpt><trkpt lat="46.287003104226024" lon="12.432603271778417"><ele>652.2</ele><time>2026-04-23T09:22:35.999Z</time></trkpt><trkpt lat="46.28698982153564" lon="12.432743542667257"><ele>650.8</ele><time>2026-04-23T09:22:36.999Z</time></trkpt><trkpt lat="46.28697509788885" lon="12.432887034930266"><ele>649.4</ele><time>2026-04-23T09:22:37.999Z</time></trkpt><trkpt lat="46.28696191265563" lon="12.433032031379835"><ele>648.0</ele><time>2026-04-23T09:22:38.999Z</time></trkpt><trkpt lat="46.28694899587342" lon="12.433173387716868"><ele>647.8</ele><time>2026-04-23T09:22:39.999Z</time></trkpt><trkpt lat="46.28693679461924" lon="12.433317605293695"><ele>647.5999999999999</ele><time>2026-04-23T09:22:40.999Z</time></trkpt><trkpt lat="46.286923689091665" lon="12.433461701045026"><ele>647.4000000000001</ele><time>2026-04-23T09:22:41.999Z</time></trkpt><trkpt lat="46.28691179811471" lon="12.433607509969503"><ele>647.2</ele><time>2026-04-23T09:22:42.999Z</time></trkpt><trkpt lat="46.28690029914539" lon="12.433754546375026"><ele>647.0</ele><time>2026-04-23T09:22:43.999Z</time></trkpt><trkpt lat="46.28689141611222" lon="12.43390496934526"><ele>647.0</ele><time>2026-04-23T09:22:44.999Z</time></trkpt><trkpt lat="46.28688044041267" lon="12.434054121546891"><ele>647.0</ele><time>2026-04-23T09:22:45.999Z</time></trkpt><trkpt lat="46.28686630276023" lon="12.434194600308292"><ele>647.0</ele><time>2026-04-23T09:22:46.999Z</time></trkpt><trkpt lat="46.28685302609849" lon="12.434332579287226"><ele>647.0</ele><time>2026-04-23T09:22:47.999Z</time></trkpt><trkpt lat="46.28684115956956" lon="12.434468813654915"><ele>647.0</ele><time>2026-04-23T09:22:48.999Z</time></trkpt><trkpt lat="46.28682966486783" lon="12.434579016040159"><ele>646.8</ele><time>2026-04-23T09:22:49.999Z</time></trkpt><trkpt lat="46.28680858837703" lon="12.434710854869692"><ele>646.6</ele><time>2026-04-23T09:22:51.999Z</time></trkpt><trkpt lat="46.28697601729488" lon="12.434739805794283"><ele>646.4</ele><time>2026-04-23T09:22:53.999Z</time></trkpt><trkpt lat="46.28705885202354" lon="12.434780941054704"><ele>646.1999999999999</ele><time>2026-04-23T09:22:54.999Z</time></trkpt><trkpt lat="46.287151919195374" lon="12.434818826885982"><ele>646.0</ele><time>2026-04-23T09:22:55.999Z</time></trkpt><trkpt lat="46.2872445092854" lon="12.434891300565628"><ele>646.5</ele><time>2026-04-23T09:22:56.999Z</time></trkpt><trkpt lat="46.28735074276354" lon="12.43495731941936"><ele>647.0</ele><time>2026-04-23T09:22:57.999Z</time></trkpt><trkpt lat="46.2874513476535" lon="12.435039772168295"><ele>647.5</ele><time>2026-04-23T09:22:58.999Z</time></trkpt><trkpt lat="46.28755350163911" lon="12.435128563671562"><ele>648.0</ele><time>2026-04-23T09:22:59.999Z</time></trkpt><trkpt lat="46.28765240189458" lon="12.435224380393153"><ele>648.0</ele><time>2026-04-23T09:23:00.999Z</time></trkpt><trkpt lat="46.28774378287257" lon="12.435319378805866"><ele>648.0</ele><time>2026-04-23T09:23:01.999Z</time></trkpt><trkpt lat="46.287841653570425" lon="12.435407597526952"><ele>648.0</ele><time>2026-04-23T09:23:02.999Z</time></trkpt><trkpt lat="46.28794159479469" lon="12.435502358392151"><ele>648.0</ele><time>2026-04-23T09:23:03.999Z</time></trkpt><trkpt lat="46.288038646036576" lon="12.435594559905725"><ele>649.25</ele><time>2026-04-23T09:23:04.999Z</time></trkpt><trkpt lat="46.28814108195412" lon="12.435686243802776"><ele>650.5</ele><time>2026-04-23T09:23:05.999Z</time></trkpt><trkpt lat="46.28824384478822" lon="12.435777935905957"><ele>651.75</ele><time>2026-04-23T09:23:06.999Z</time></trkpt><trkpt lat="46.28834717984301" lon="12.435862980453328"><ele>653.0</ele><time>2026-04-23T09:23:07.999Z</time></trkpt><trkpt lat="46.288449085794134" lon="12.435941199478936"><ele>653.0</ele><time>2026-04-23T09:23:08.998Z</time></trkpt><trkpt lat="46.2885520533767" lon="12.436007125614712"><ele>653.0</ele><time>2026-04-23T09:23:09.998Z</time></trkpt><trkpt lat="46.288659222134775" lon="12.43607899212832"><ele>653.0</ele><time>2026-04-23T09:23:10.998Z</time></trkpt><trkpt lat="46.28876847717955" lon="12.436139446223365"><ele>653.0</ele><time>2026-04-23T09:23:11.998Z</time></trkpt><trkpt lat="46.288852149421416" lon="12.436194527552658"><ele>653.0</ele><time>2026-04-23T09:23:12.998Z</time></trkpt><trkpt lat="46.28890111966993" lon="12.436254114533408"><ele>653.8</ele><time>2026-04-23T09:23:13.998Z</time></trkpt><trkpt lat="46.28896228502962" lon="12.436321376368399"><ele>654.5999999999999</ele><time>2026-04-23T09:23:14.998Z</time></trkpt><trkpt lat="46.289045561659954" lon="12.436406322925732"><ele>655.4000000000001</ele><time>2026-04-23T09:23:15.998Z</time></trkpt><trkpt lat="46.289156622728854" lon="12.436480216436571"><ele>656.2</ele><time>2026-04-23T09:23:16.998Z</time></trkpt><trkpt lat="46.28927210573536" lon="12.436560145624268"><ele>657.0</ele><time>2026-04-23T09:23:17.998Z</time></trkpt><trkpt lat="46.28940917878126" lon="12.436591711362047"><ele>657.0</ele><time>2026-04-23T09:23:18.998Z</time></trkpt><trkpt lat="46.289541295969045" lon="12.436630404477489"><ele>657.0</ele><time>2026-04-23T09:23:19.998Z</time></trkpt><trkpt lat="46.289679287971474" lon="12.436684711493367"><ele>657.0</ele><time>2026-04-23T09:23:20.998Z</time></trkpt><trkpt lat="46.289814382752674" lon="12.436764618983261"><ele>657.0</ele><time>2026-04-23T09:23:21.998Z</time></trkpt><trkpt lat="46.28995000690949" lon="12.436864059893047"><ele>657.0</ele><time>2026-04-23T09:23:22.998Z</time></trkpt><trkpt lat="46.290078510675144" lon="12.436963581580699"><ele>657.0</ele><time>2026-04-23T09:23:23.998Z</time></trkpt><trkpt lat="46.290210757841216" lon="12.437062286496106"><ele>657.0</ele><time>2026-04-23T09:23:25Z</time></trkpt><trkpt lat="46.29034009418096" lon="12.437163049930225"><ele>657.0</ele><time>2026-04-23T09:23:26Z</time></trkpt><trkpt lat="46.29047018628375" lon="12.437260579560427"><ele>659.25</ele><time>2026-04-23T09:23:27Z</time></trkpt><trkpt lat="46.29060036059906" lon="12.437356786643823"><ele>661.5</ele><time>2026-04-23T09:23:28Z</time></trkpt><trkpt lat="46.29073166585386" lon="12.43745051328887"><ele>663.75</ele><time>2026-04-23T09:23:29Z</time></trkpt><trkpt lat="46.29086530806217" lon="12.437545652585376"><ele>666.0</ele><time>2026-04-23T09:23:30Z</time></trkpt><trkpt lat="46.29099471856572" lon="12.437646396428216"><ele>666.0</ele><time>2026-04-23T09:23:31Z</time></trkpt><trkpt lat="46.29112448846631" lon="12.437754046450204"><ele>666.0</ele><time>2026-04-23T09:23:32Z</time></trkpt><trkpt lat="46.29124793113795" lon="12.437868647858226"><ele>666.0</ele><time>2026-04-23T09:23:33Z</time></trkpt><trkpt lat="46.29136413130297" lon="12.438001810672215"><ele>666.0</ele><time>2026-04-23T09:23:34Z</time></trkpt><trkpt lat="46.291471993752474" lon="12.438155666712913"><ele>665.3333333333334</ele><time>2026-04-23T09:23:35Z</time></trkpt><trkpt lat="46.29157222419942" lon="12.438320939417146"><ele>664.6666666666667</ele><time>2026-04-23T09:23:36Z</time></trkpt><trkpt lat="46.29167261834437" lon="12.438482290329304"><ele>664.0</ele><time>2026-04-23T09:23:37Z</time></trkpt><trkpt lat="46.29177308776639" lon="12.438641188401027"><ele>664.0</ele><time>2026-04-23T09:23:38Z</time></trkpt><trkpt lat="46.291875388418894" lon="12.438789615667893"><ele>664.0</ele><time>2026-04-23T09:23:39Z</time></trkpt><trkpt lat="46.29197398276979" lon="12.438941499028845"><ele>664.0</ele><time>2026-04-23T09:23:40Z</time></trkpt><trkpt lat="46.29206417981434" lon="12.439114390825408"><ele>664.0</ele><time>2026-04-23T09:23:41Z</time></trkpt><trkpt lat="46.29213799419104" lon="12.43931169252808"><ele>663.5</ele><time>2026-04-23T09:23:42Z</time></trkpt><trkpt lat="46.29219574643713" lon="12.439515582165932"><ele>663.0</ele><time>2026-04-23T09:23:43Z</time></trkpt><trkpt lat="46.2922452830803" lon="12.439707953624088"><ele>662.5</ele><time>2026-04-23T09:23:44Z</time></trkpt><trkpt lat="46.292294290761426" lon="12.439886086681572"><ele>662.0</ele><time>2026-04-23T09:23:45Z</time></trkpt><trkpt lat="46.29234185138682" lon="12.440044994315352"><ele>662.0</ele><time>2026-04-23T09:23:46Z</time></trkpt><trkpt lat="46.29238459114531" lon="12.440181722763354"><ele>662.0</ele><time>2026-04-23T09:23:47Z</time></trkpt><trkpt lat="46.29242344605971" lon="12.44029705224921"><ele>662.0</ele><time>2026-04-23T09:23:48Z</time></trkpt><trkpt lat="46.292464798741484" lon="12.440403163807199"><ele>662.0</ele><time>2026-04-23T09:23:49Z</time></trkpt><trkpt lat="46.29252368790575" lon="12.440488238488031"><ele>662.0</ele><time>2026-04-23T09:23:50Z</time></trkpt><trkpt lat="46.29260785826488" lon="12.440546759062059"><ele>662.0</ele><time>2026-04-23T09:23:51Z</time></trkpt><trkpt lat="46.292716140864954" lon="12.440577941191842"><ele>662.0</ele><time>2026-04-23T09:23:52Z</time></trkpt><trkpt lat="46.29284189858062" lon="12.440600726001277"><ele>662.0</ele><time>2026-04-23T09:23:53Z</time></trkpt><trkpt lat="46.29297694442009" lon="12.44062614135215"><ele>662.0</ele><time>2026-04-23T09:23:54Z</time></trkpt><trkpt lat="46.293111019706956" lon="12.44065091611087"><ele>662.6</ele><time>2026-04-23T09:23:55Z</time></trkpt><trkpt lat="46.29323401070938" lon="12.440682051567466"><ele>663.2</ele><time>2026-04-23T09:23:56Z</time></trkpt><trkpt lat="46.29333463594016" lon="12.440758423766413"><ele>663.8</ele><time>2026-04-23T09:23:57Z</time></trkpt><trkpt lat="46.29342581683723" lon="12.440792592894049"><ele>664.4</ele><time>2026-04-23T09:23:58Z</time></trkpt><trkpt lat="46.293511254014945" lon="12.440822903631965"><ele>665.0</ele><time>2026-04-23T09:23:59Z</time></trkpt><trkpt lat="46.29361029185655" lon="12.440796128315146"><ele>665.0</ele><time>2026-04-23T09:24:00Z</time></trkpt><trkpt lat="46.29371846966905" lon="12.440737468239051"><ele>665.0</ele><time>2026-04-23T09:24:01Z</time></trkpt><trkpt lat="46.2938365026894" lon="12.44068501854711"><ele>665.0</ele><time>2026-04-23T09:24:02Z</time></trkpt><trkpt lat="46.29396472509296" lon="12.440636950336193"><ele>665.0</ele><time>2026-04-23T09:24:03Z</time></trkpt><trkpt lat="46.294092234808744" lon="12.440584998187786"><ele>665.25</ele><time>2026-04-23T09:24:04Z</time></trkpt><trkpt lat="46.294224912242285" lon="12.440542756662497"><ele>665.5</ele><time>2026-04-23T09:24:05Z</time></trkpt><trkpt lat="46.294354472074744" lon="12.440510002917538"><ele>665.75</ele><time>2026-04-23T09:24:06Z</time></trkpt><trkpt lat="46.2944840169084" lon="12.44047880718498"><ele>666.0</ele><time>2026-04-23T09:24:07Z</time></trkpt><trkpt lat="46.29461484669243" lon="12.44044838404243"><ele>668.25</ele><time>2026-04-23T09:24:08Z</time></trkpt><trkpt lat="46.29474057293533" lon="12.440416212480919"><ele>670.5</ele><time>2026-04-23T09:24:08.999Z</time></trkpt><trkpt lat="46.294863748813775" lon="12.440377440433194"><ele>672.75</ele><time>2026-04-23T09:24:09.999Z</time></trkpt><trkpt lat="46.29498959166517" lon="12.440335810839835"><ele>675.0</ele><time>2026-04-23T09:24:10.999Z</time></trkpt><trkpt lat="46.29511580337955" lon="12.440299105500667"><ele>676.5</ele><time>2026-04-23T09:24:11.999Z</time></trkpt><trkpt lat="46.295241061959246" lon="12.440260368884058"><ele>678.0</ele><time>2026-04-23T09:24:12.999Z</time></trkpt><trkpt lat="46.29536593932635" lon="12.440216789844"><ele>679.5</ele><time>2026-04-23T09:24:13.999Z</time></trkpt><trkpt lat="46.29549243476596" lon="12.440178984891828"><ele>681.0</ele><time>2026-04-23T09:24:14.999Z</time></trkpt><trkpt lat="46.29562182675603" lon="12.44014239648445"><ele>683.5</ele><time>2026-04-23T09:24:15.999Z</time></trkpt><trkpt lat="46.29575677352185" lon="12.440107385230483"><ele>686.0</ele><time>2026-04-23T09:24:16.999Z</time></trkpt><trkpt lat="46.29589952470419" lon="12.440073834313774"><ele>688.5</ele><time>2026-04-23T09:24:17.999Z</time></trkpt><trkpt lat="46.29604348950149" lon="12.440040082191112"><ele>691.0</ele><time>2026-04-23T09:24:18.999Z</time></trkpt><trkpt lat="46.29618954165516" lon="12.44001690088749"><ele>691.0</ele><time>2026-04-23T09:24:19.999Z</time></trkpt><trkpt lat="46.296338085288845" lon="12.439994560434478"><ele>691.0</ele><time>2026-04-23T09:24:20.999Z</time></trkpt><trkpt lat="46.296486930714366" lon="12.439972128253869"><ele>691.0</ele><time>2026-04-23T09:24:21.999Z</time></trkpt><trkpt lat="46.29663602668235" lon="12.439951795094792"><ele>691.0</ele><time>2026-04-23T09:24:22.999Z</time></trkpt><trkpt lat="46.29678165150857" lon="12.439929998058645"><ele>691.0</ele><time>2026-04-23T09:24:23.999Z</time></trkpt><trkpt lat="46.29692330317343" lon="12.439913272280494"><ele>691.0</ele><time>2026-04-23T09:24:24.999Z</time></trkpt><trkpt lat="46.29706293976355" lon="12.43990073921335"><ele>691.0</ele><time>2026-04-23T09:24:25.999Z</time></trkpt><trkpt lat="46.29719873534097" lon="12.43988262847536"><ele>691.0</ele><time>2026-04-23T09:24:26.999Z</time></trkpt><trkpt lat="46.29733324721066" lon="12.439858300652032"><ele>691.0</ele><time>2026-04-23T09:24:27.999Z</time></trkpt><trkpt lat="46.29746380163165" lon="12.439824803930893"><ele>691.0</ele><time>2026-04-23T09:24:28.999Z</time></trkpt><trkpt lat="46.297594415245776" lon="12.439787469063479"><ele>691.0</ele><time>2026-04-23T09:24:29.999Z</time></trkpt><trkpt lat="46.297716081102166" lon="12.43976698098051"><ele>691.0</ele><time>2026-04-23T09:24:30.999Z</time></trkpt><trkpt lat="46.297950579070985" lon="12.439836439040706"><ele>691.0</ele><time>2026-04-23T09:24:32.999Z</time></trkpt><trkpt lat="46.2980558582963" lon="12.43991852181119"><ele>691.0</ele><time>2026-04-23T09:24:33.999Z</time></trkpt><trkpt lat="46.29816946000213" lon="12.439970277661716"><ele>691.0</ele><time>2026-04-23T09:24:34.999Z</time></trkpt><trkpt lat="46.29828596784962" lon="12.44001349549072"><ele>691.0</ele><time>2026-04-23T09:24:35.999Z</time></trkpt><trkpt lat="46.29841398334593" lon="12.440038954303894"><ele>690.75</ele><time>2026-04-23T09:24:36.999Z</time></trkpt><trkpt lat="46.298539969256346" lon="12.440075110906974"><ele>690.5</ele><time>2026-04-23T09:24:37.999Z</time></trkpt><trkpt lat="46.29866412221703" lon="12.440123354027149"><ele>690.25</ele><time>2026-04-23T09:24:38.999Z</time></trkpt><trkpt lat="46.298782110575424" lon="12.440193859382488"><ele>690.0</ele><time>2026-04-23T09:24:39.999Z</time></trkpt><trkpt lat="46.29890809333876" lon="12.440249689721545"><ele>690.25</ele><time>2026-04-23T09:24:40.999Z</time></trkpt><trkpt lat="46.29903661985097" lon="12.440285171730848"><ele>690.5</ele><time>2026-04-23T09:24:41.999Z</time></trkpt><trkpt lat="46.2991651832736" lon="12.440304135293157"><ele>690.75</ele><time>2026-04-23T09:24:42.999Z</time></trkpt><trkpt lat="46.29928679933797" lon="12.44032243115635"><ele>691.0</ele><time>2026-04-23T09:24:43.999Z</time></trkpt><trkpt lat="46.29939479799083" lon="12.440362784235987"><ele>691.0</ele><time>2026-04-23T09:24:44.999Z</time></trkpt><trkpt lat="46.29948034192996" lon="12.440455832953518"><ele>691.0</ele><time>2026-04-23T09:24:45.999Z</time></trkpt><trkpt lat="46.29957622283145" lon="12.440512774195408"><ele>691.0</ele><time>2026-04-23T09:24:46.999Z</time></trkpt><trkpt lat="46.29966167736336" lon="12.44058534520698"><ele>691.0</ele><time>2026-04-23T09:24:47.999Z</time></trkpt><trkpt lat="46.29974829771017" lon="12.440656007794704"><ele>691.0</ele><time>2026-04-23T09:24:48.999Z</time></trkpt><trkpt lat="46.299833288157764" lon="12.440719918373432"><ele>690.8333333333334</ele><time>2026-04-23T09:24:49.999Z</time></trkpt><trkpt lat="46.29991620021497" lon="12.44077589268728"><ele>690.6666666666667</ele><time>2026-04-23T09:24:50.999Z</time></trkpt><trkpt lat="46.29999551159744" lon="12.440818584093591"><ele>690.5</ele><time>2026-04-23T09:24:51.999Z</time></trkpt><trkpt lat="46.30007595563404" lon="12.44084148362278"><ele>690.3333333333334</ele><time>2026-04-23T09:24:52.999Z</time></trkpt><trkpt lat="46.30015965235965" lon="12.440838692998073"><ele>690.1666666666666</ele><time>2026-04-23T09:24:53.999Z</time></trkpt><trkpt lat="46.30025306233174" lon="12.440842845757068"><ele>690.0</ele><time>2026-04-23T09:24:54.999Z</time></trkpt><trkpt lat="46.300356151213194" lon="12.44085041901834"><ele>690.0</ele><time>2026-04-23T09:24:55.999Z</time></trkpt><trkpt lat="46.30046436212423" lon="12.440859042763373"><ele>690.0</ele><time>2026-04-23T09:24:56.999Z</time></trkpt><trkpt lat="46.30058092267299" lon="12.440867830936313"><ele>690.0</ele><time>2026-04-23T09:24:57.999Z</time></trkpt><trkpt lat="46.30069499456558" lon="12.440883912002283"><ele>690.0</ele><time>2026-04-23T09:24:58.999Z</time></trkpt><trkpt lat="46.30080950717776" lon="12.440904078397637"><ele>690.8</ele><time>2026-04-23T09:24:59.999Z</time></trkpt><trkpt lat="46.30091782747453" lon="12.440923215951532"><ele>691.6</ele><time>2026-04-23T09:25:00.999Z</time></trkpt><trkpt lat="46.301014071862646" lon="12.440937209056509"><ele>692.4000000000001</ele><time>2026-04-23T09:25:01.999Z</time></trkpt><trkpt lat="46.301106371800785" lon="12.440928170738914"><ele>693.2</ele><time>2026-04-23T09:25:02.999Z</time></trkpt><trkpt lat="46.30118713643046" lon="12.440921561646382"><ele>694.0</ele><time>2026-04-23T09:25:03.999Z</time></trkpt><trkpt lat="46.301299417345824" lon="12.440897837171107"><ele>694.0</ele><time>2026-04-23T09:25:05.999Z</time></trkpt><trkpt lat="46.30137169698274" lon="12.440863471218556"><ele>694.0</ele><time>2026-04-23T09:25:07.999Z</time></trkpt><trkpt lat="46.30140126368832" lon="12.440973760101551"><ele>694.0</ele><time>2026-04-23T09:25:12.999Z</time></trkpt><trkpt lat="46.30111102830066" lon="12.440937015476107"><ele>694.0</ele><time>2026-04-23T09:25:32Z</time></trkpt><trkpt lat="46.30102645599209" lon="12.440924370883709"><ele>694.0</ele><time>2026-04-23T09:25:34Z</time></trkpt><trkpt lat="46.30090455055902" lon="12.440918634161275"><ele>694.0</ele><time>2026-04-23T09:25:36Z</time></trkpt><trkpt lat="46.300827248806605" lon="12.440909693351877"><ele>694.0</ele><time>2026-04-23T09:25:37Z</time></trkpt><trkpt lat="46.30075556613412" lon="12.440904176073591"><ele>694.0</ele><time>2026-04-23T09:25:38Z</time></trkpt><trkpt lat="46.300677427602025" lon="12.440886006598868"><ele>694.0</ele><time>2026-04-23T09:25:40Z</time></trkpt><trkpt lat="46.300656516558135" lon="12.440795404532302"><ele>694.0</ele><time>2026-04-23T09:25:43Z</time></trkpt><trkpt lat="46.300709186328575" lon="12.44071308880213"><ele>694.0</ele><time>2026-04-23T09:25:46Z</time></trkpt><trkpt lat="46.30080327503517" lon="12.440630313320467"><ele>694.0</ele><time>2026-04-23T09:25:48Z</time></trkpt><trkpt lat="46.300852747446136" lon="12.440560063373828"><ele>694.0</ele><time>2026-04-23T09:25:49Z</time></trkpt><trkpt lat="46.30090973067158" lon="12.440478136912041"><ele>694.0</ele><time>2026-04-23T09:25:50Z</time></trkpt><trkpt lat="46.300989068052544" lon="12.440387303585958"><ele>694.0</ele><time>2026-04-23T09:25:52Z</time></trkpt><trkpt lat="46.30106033926266" lon="12.440305948878445"><ele>695.0</ele><time>2026-04-23T09:25:54Z</time></trkpt><trkpt lat="46.301170499481564" lon="12.440207275029426"><ele>696.0</ele><time>2026-04-23T09:25:56Z</time></trkpt><trkpt lat="46.30122631716223" lon="12.44014452655014"><ele>697.0</ele><time>2026-04-23T09:25:57Z</time></trkpt><trkpt lat="46.301295695968115" lon="12.44002808737527"><ele>698.0</ele><time>2026-04-23T09:25:59Z</time></trkpt><trkpt lat="46.30130758616311" lon="12.439852886287792"><ele>699.0</ele><time>2026-04-23T09:26:01Z</time></trkpt><trkpt lat="46.301320490787944" lon="12.439749072107432"><ele>700.8000000000001</ele><time>2026-04-23T09:26:02Z</time></trkpt><trkpt lat="46.301389087043134" lon="12.439593741085053"><ele>702.6</ele><time>2026-04-23T09:26:04Z</time></trkpt><trkpt lat="46.301425789773276" lon="12.439509668185043"><ele>704.4</ele><time>2026-04-23T09:26:05Z</time></trkpt><trkpt lat="46.301441361373364" lon="12.439411330630094"><ele>706.2</ele><time>2026-04-23T09:26:06Z</time></trkpt><trkpt lat="46.30146648166062" lon="12.439267763005358"><ele>708.0</ele><time>2026-04-23T09:26:08Z</time></trkpt><trkpt lat="46.301524721375756" lon="12.439137591333235"><ele>708.0</ele><time>2026-04-23T09:26:10Z</time></trkpt><trkpt lat="46.30156678414147" lon="12.438980600192671"><ele>708.0</ele><time>2026-04-23T09:26:11.999Z</time></trkpt><trkpt lat="46.30159737745598" lon="12.438881696090451"><ele>708.0</ele><time>2026-04-23T09:26:13.999Z</time></trkpt><trkpt lat="46.30159005133665" lon="12.438771722401924"><ele>708.0</ele><time>2026-04-23T09:26:16.999Z</time></trkpt><trkpt lat="46.30152907046381" lon="12.438815088695266"><ele>708.0</ele><time>2026-04-23T09:26:19.999Z</time></trkpt><trkpt lat="46.30155550132567" lon="12.438924291745355"><ele>708.0</ele><time>2026-04-23T09:26:22.999Z</time></trkpt><trkpt lat="46.3015545890557" lon="12.439029574138667"><ele>708.0</ele><time>2026-04-23T09:26:24.999Z</time></trkpt><trkpt lat="46.30150069960437" lon="12.439199662454804"><ele>708.0</ele><time>2026-04-23T09:26:26.999Z</time></trkpt><trkpt lat="46.301470898099105" lon="12.439281454833562"><ele>708.0</ele><time>2026-04-23T09:26:27.999Z</time></trkpt><trkpt lat="46.30144327242743" lon="12.43938319433679"><ele>708.0</ele><time>2026-04-23T09:26:28.999Z</time></trkpt><trkpt lat="46.30141595542708" lon="12.439477742627599"><ele>708.0</ele><time>2026-04-23T09:26:29.999Z</time></trkpt><trkpt lat="46.301382676848085" lon="12.439582593980587"><ele>708.0</ele><time>2026-04-23T09:26:30.999Z</time></trkpt><trkpt lat="46.30134369865769" lon="12.439670347269699"><ele>706.5</ele><time>2026-04-23T09:26:31.999Z</time></trkpt><trkpt lat="46.30131040670168" lon="12.439756702670852"><ele>705.0</ele><time>2026-04-23T09:26:32.999Z</time></trkpt><trkpt lat="46.30128883921195" lon="12.439852447173527"><ele>703.5</ele><time>2026-04-23T09:26:33.999Z</time></trkpt><trkpt lat="46.30128615376195" lon="12.44002065139816"><ele>702.0</ele><time>2026-04-23T09:26:35.999Z</time></trkpt><trkpt lat="46.301230874906764" lon="12.440144504549497"><ele>700.5</ele><time>2026-04-23T09:26:37.999Z</time></trkpt><trkpt lat="46.30116601807631" lon="12.440204721800386"><ele>699.0</ele><time>2026-04-23T09:26:38.999Z</time></trkpt><trkpt lat="46.30107206214136" lon="12.440296130170328"><ele>699.0</ele><time>2026-04-23T09:26:39.999Z</time></trkpt><trkpt lat="46.30097606424959" lon="12.440410002452115"><ele>699.0</ele><time>2026-04-23T09:26:40.999Z</time></trkpt><trkpt lat="46.30089409655823" lon="12.440511450624493"><ele>699.0</ele><time>2026-04-23T09:26:41.999Z</time></trkpt><trkpt lat="46.300825364726066" lon="12.440599903215805"><ele>699.0</ele><time>2026-04-23T09:26:42.999Z</time></trkpt><trkpt lat="46.30076261443347" lon="12.440671807266458"><ele>699.0</ele><time>2026-04-23T09:26:43.999Z</time></trkpt><trkpt lat="46.30071268182231" lon="12.4407319658537"><ele>698.0</ele><time>2026-04-23T09:26:44.999Z</time></trkpt><trkpt lat="46.30066495482707" lon="12.440801192435469"><ele>697.0</ele><time>2026-04-23T09:26:46.999Z</time></trkpt><trkpt lat="46.3006829967219" lon="12.440895151422056"><ele>696.0</ele><time>2026-04-23T09:26:50.999Z</time></trkpt><trkpt lat="46.30079279896632" lon="12.44091047568391"><ele>695.0</ele><time>2026-04-23T09:26:52.999Z</time></trkpt><trkpt lat="46.3008857846494" lon="12.440917682533192"><ele>694.0</ele><time>2026-04-23T09:26:53.999Z</time></trkpt><trkpt lat="46.30100801034329" lon="12.440931045017335"><ele>694.0</ele><time>2026-04-23T09:26:54.999Z</time></trkpt><trkpt lat="46.30114706132707" lon="12.440914446088039"><ele>694.0</ele><time>2026-04-23T09:26:55.999Z</time></trkpt><trkpt lat="46.301310693543066" lon="12.440885899348283"><ele>694.0</ele><time>2026-04-23T09:26:56.999Z</time></trkpt><trkpt lat="46.30149364444309" lon="12.440848066766304"><ele>694.6666666666667</ele><time>2026-04-23T09:26:57.999Z</time></trkpt><trkpt lat="46.30167729717858" lon="12.440801979302496"><ele>695.3333333333334</ele><time>2026-04-23T09:26:58.999Z</time></trkpt><trkpt lat="46.30183793855413" lon="12.440770555862352"><ele>696.0</ele><time>2026-04-23T09:26:59.999Z</time></trkpt><trkpt lat="46.30198784063059" lon="12.440737686693195"><ele>696.0</ele><time>2026-04-23T09:27:00.999Z</time></trkpt><trkpt lat="46.302136521771" lon="12.440703647681175"><ele>696.0</ele><time>2026-04-23T09:27:01.999Z</time></trkpt><trkpt lat="46.30228614812989" lon="12.440667627821941"><ele>696.0</ele><time>2026-04-23T09:27:02.999Z</time></trkpt><trkpt lat="46.30243230183908" lon="12.440628711660917"><ele>696.5</ele><time>2026-04-23T09:27:03.999Z</time></trkpt><trkpt lat="46.30257622490113" lon="12.440601861594043"><ele>697.0</ele><time>2026-04-23T09:27:04.999Z</time></trkpt><trkpt lat="46.30271913965224" lon="12.440579124772249"><ele>697.5</ele><time>2026-04-23T09:27:05.999Z</time></trkpt><trkpt lat="46.30286143119888" lon="12.440554462909882"><ele>698.0</ele><time>2026-04-23T09:27:06.999Z</time></trkpt><trkpt lat="46.30300000553782" lon="12.440547408784274"><ele>699.0</ele><time>2026-04-23T09:27:07.999Z</time></trkpt><trkpt lat="46.30313548202036" lon="12.440555574540008"><ele>700.0</ele><time>2026-04-23T09:27:08.999Z</time></trkpt><trkpt lat="46.303267965632" lon="12.440569554216376"><ele>701.0</ele><time>2026-04-23T09:27:09.999Z</time></trkpt><trkpt lat="46.30339535972923" lon="12.440581955325639"><ele>702.0</ele><time>2026-04-23T09:27:10.999Z</time></trkpt><trkpt lat="46.30352053609599" lon="12.440594752382463"><ele>702.0</ele><time>2026-04-23T09:27:11.999Z</time></trkpt><trkpt lat="46.30363428713032" lon="12.440648352880018"><ele>702.0</ele><time>2026-04-23T09:27:12.999Z</time></trkpt><trkpt lat="46.303737339163035" lon="12.440708017078915"><ele>702.0</ele><time>2026-04-23T09:27:13.999Z</time></trkpt><trkpt lat="46.30383922643506" lon="12.440774628408159"><ele>702.0</ele><time>2026-04-23T09:27:14.999Z</time></trkpt><trkpt lat="46.30396029865954" lon="12.440823145909459"><ele>703.0</ele><time>2026-04-23T09:27:15.999Z</time></trkpt><trkpt lat="46.30406949824165" lon="12.440909968503254"><ele>704.0</ele><time>2026-04-23T09:27:16.998Z</time></trkpt><trkpt lat="46.30417705636092" lon="12.44096333112388"><ele>705.0</ele><time>2026-04-23T09:27:17.998Z</time></trkpt><trkpt lat="46.304288098094105" lon="12.441014746083917"><ele>706.0</ele><time>2026-04-23T09:27:18.998Z</time></trkpt><trkpt lat="46.30440441467108" lon="12.441061705425826"><ele>706.0</ele><time>2026-04-23T09:27:19.998Z</time></trkpt><trkpt lat="46.30452138979991" lon="12.441109023635043"><ele>706.0</ele><time>2026-04-23T09:27:20.998Z</time></trkpt><trkpt lat="46.30464211385132" lon="12.441161476910858"><ele>706.0</ele><time>2026-04-23T09:27:21.998Z</time></trkpt><trkpt lat="46.30476319975408" lon="12.44121947636649"><ele>706.0</ele><time>2026-04-23T09:27:22.998Z</time></trkpt><trkpt lat="46.30487989613384" lon="12.441287659124729"><ele>705.75</ele><time>2026-04-23T09:27:23.998Z</time></trkpt><trkpt lat="46.30499011995103" lon="12.441368031760963"><ele>705.5</ele><time>2026-04-23T09:27:24.998Z</time></trkpt><trkpt lat="46.30509768487013" lon="12.441456206561961"><ele>705.25</ele><time>2026-04-23T09:27:25.998Z</time></trkpt><trkpt lat="46.30519314353163" lon="12.441538721211304"><ele>705.0</ele><time>2026-04-23T09:27:26.998Z</time></trkpt><trkpt lat="46.30529691485682" lon="12.441623485197095"><ele>705.0</ele><time>2026-04-23T09:27:27.998Z</time></trkpt><trkpt lat="46.30538930490263" lon="12.441718061274262"><ele>705.0</ele><time>2026-04-23T09:27:28.998Z</time></trkpt><trkpt lat="46.305492891545825" lon="12.441817846862458"><ele>705.0</ele><time>2026-04-23T09:27:29.998Z</time></trkpt><trkpt lat="46.30558220099418" lon="12.44192892319354"><ele>705.0</ele><time>2026-04-23T09:27:30.998Z</time></trkpt><trkpt lat="46.30566839799435" lon="12.44203098750381"><ele>705.0</ele><time>2026-04-23T09:27:31.998Z</time></trkpt><trkpt lat="46.30576080781778" lon="12.442123821678875"><ele>705.0</ele><time>2026-04-23T09:27:32.998Z</time></trkpt><trkpt lat="46.30585117058716" lon="12.44219836522865"><ele>705.0</ele><time>2026-04-23T09:27:33.998Z</time></trkpt><trkpt lat="46.305945489305" lon="12.442229513318917"><ele>705.0</ele><time>2026-04-23T09:27:34.998Z</time></trkpt><trkpt lat="46.3060502176542" lon="12.442215818956033"><ele>705.0</ele><time>2026-04-23T09:27:35.998Z</time></trkpt><trkpt lat="46.30614847050087" lon="12.442206164933353"><ele>705.0</ele><time>2026-04-23T09:27:37Z</time></trkpt><trkpt lat="46.30625860702704" lon="12.442190894519797"><ele>705.0</ele><time>2026-04-23T09:27:38Z</time></trkpt><trkpt lat="46.30639980636286" lon="12.442152931979491"><ele>705.0</ele><time>2026-04-23T09:27:39Z</time></trkpt><trkpt lat="46.3065131500399" lon="12.442123405226459"><ele>705.0</ele><time>2026-04-23T09:27:40Z</time></trkpt><trkpt lat="46.30661850887254" lon="12.44208278120647"><ele>709.25</ele><time>2026-04-23T09:27:41Z</time></trkpt><trkpt lat="46.30673322768486" lon="12.442038784213976"><ele>713.5</ele><time>2026-04-23T09:27:42Z</time></trkpt><trkpt lat="46.30684479056324" lon="12.441997337545638"><ele>717.75</ele><time>2026-04-23T09:27:43Z</time></trkpt><trkpt lat="46.30695624445984" lon="12.441950084078098"><ele>722.0</ele><time>2026-04-23T09:27:44Z</time></trkpt><trkpt lat="46.30706277080486" lon="12.44190302953216"><ele>722.0</ele><time>2026-04-23T09:27:45Z</time></trkpt><trkpt lat="46.30716302106389" lon="12.441865974606646"><ele>722.0</ele><time>2026-04-23T09:27:46Z</time></trkpt><trkpt lat="46.30723816157865" lon="12.441839526442964"><ele>722.0</ele><time>2026-04-23T09:27:47Z</time></trkpt><trkpt lat="46.307312424752034" lon="12.441829527727386"><ele>722.0</ele><time>2026-04-23T09:27:48Z</time></trkpt><trkpt lat="46.307384323136674" lon="12.441871028947673"><ele>722.0</ele><time>2026-04-23T09:27:49Z</time></trkpt><trkpt lat="46.3074320265096" lon="12.441982502656586"><ele>722.0</ele><time>2026-04-23T09:27:50Z</time></trkpt><trkpt lat="46.30750249814672" lon="12.442065139703086"><ele>721.0</ele><time>2026-04-23T09:27:51Z</time></trkpt><trkpt lat="46.30758012315256" lon="12.442147248286673"><ele>720.0</ele><time>2026-04-23T09:27:52Z</time></trkpt><trkpt lat="46.30769286976648" lon="12.442202347031492"><ele>719.0</ele><time>2026-04-23T09:27:53Z</time></trkpt><trkpt lat="46.30781944915104" lon="12.442282269377921"><ele>718.0</ele><time>2026-04-23T09:27:54Z</time></trkpt><trkpt lat="46.307963443059684" lon="12.442362571795073"><ele>720.75</ele><time>2026-04-23T09:27:55Z</time></trkpt><trkpt lat="46.30810596092164" lon="12.442445693073351"><ele>723.5</ele><time>2026-04-23T09:27:56Z</time></trkpt><trkpt lat="46.30824356666777" lon="12.442538695215928"><ele>726.25</ele><time>2026-04-23T09:27:57Z</time></trkpt><trkpt lat="46.30836844521857" lon="12.442637154939424"><ele>729.0</ele><time>2026-04-23T09:27:58Z</time></trkpt><trkpt lat="46.308501102747194" lon="12.442728051927672"><ele>729.0</ele><time>2026-04-23T09:27:59Z</time></trkpt><trkpt lat="46.30859784403532" lon="12.442829378334485"><ele>729.0</ele><time>2026-04-23T09:28:00Z</time></trkpt><trkpt lat="46.308707364714934" lon="12.44291191629268"><ele>729.0</ele><time>2026-04-23T09:28:01Z</time></trkpt><trkpt lat="46.30880640562286" lon="12.442961604889646"><ele>729.0</ele><time>2026-04-23T09:28:02Z</time></trkpt><trkpt lat="46.308896027076045" lon="12.443004229874576"><ele>729.0</ele><time>2026-04-23T09:28:03Z</time></trkpt><trkpt lat="46.30897650624265" lon="12.443062801746402"><ele>727.8000000000001</ele><time>2026-04-23T09:28:04Z</time></trkpt><trkpt lat="46.30901654263486" lon="12.443185116489493"><ele>726.6</ele><time>2026-04-23T09:28:05Z</time></trkpt><trkpt lat="46.309086192215645" lon="12.443279312228269"><ele>725.4</ele><time>2026-04-23T09:28:06Z</time></trkpt><trkpt lat="46.309142967650985" lon="12.443391429061304"><ele>724.2</ele><time>2026-04-23T09:28:07Z</time></trkpt><trkpt lat="46.30922571447788" lon="12.44348318298622"><ele>723.0</ele><time>2026-04-23T09:28:08Z</time></trkpt><trkpt lat="46.30934572708158" lon="12.443558622729372"><ele>723.0</ele><time>2026-04-23T09:28:09Z</time></trkpt><trkpt lat="46.309475445052925" lon="12.44362809217437"><ele>723.0</ele><time>2026-04-23T09:28:10Z</time></trkpt><trkpt lat="46.30959179747968" lon="12.443711466273731"><ele>723.0</ele><time>2026-04-23T09:28:11Z</time></trkpt><trkpt lat="46.309695829154265" lon="12.443815017673451"><ele>723.0</ele><time>2026-04-23T09:28:12Z</time></trkpt><trkpt lat="46.30978833250166" lon="12.44392430601746"><ele>720.8</ele><time>2026-04-23T09:28:13Z</time></trkpt><trkpt lat="46.309871965179745" lon="12.444033953668232"><ele>718.5999999999999</ele><time>2026-04-23T09:28:14Z</time></trkpt><trkpt lat="46.30995630999282" lon="12.444134041542666"><ele>716.4000000000001</ele><time>2026-04-23T09:28:15Z</time></trkpt><trkpt lat="46.31003621331732" lon="12.444216408265742"><ele>714.2</ele><time>2026-04-23T09:28:15.999Z</time></trkpt><trkpt lat="46.31011428100095" lon="12.4442982228338"><ele>712.0</ele><time>2026-04-23T09:28:16.999Z</time></trkpt><trkpt lat="46.31019567047156" lon="12.44437156640577"><ele>712.0</ele><time>2026-04-23T09:28:17.999Z</time></trkpt><trkpt lat="46.31027939389664" lon="12.444461627396409"><ele>712.0</ele><time>2026-04-23T09:28:18.999Z</time></trkpt><trkpt lat="46.3103849283188" lon="12.444516917144195"><ele>712.0</ele><time>2026-04-23T09:28:19.999Z</time></trkpt><trkpt lat="46.31048067966872" lon="12.44452794669399"><ele>712.0</ele><time>2026-04-23T09:28:20.999Z</time></trkpt><trkpt lat="46.31058378509597" lon="12.444563193837723"><ele>712.0</ele><time>2026-04-23T09:28:21.999Z</time></trkpt><trkpt lat="46.31069877057661" lon="12.444583605447468"><ele>712.1666666666667</ele><time>2026-04-23T09:28:22.999Z</time></trkpt><trkpt lat="46.31080942020436" lon="12.444605066917902"><ele>712.3333333333334</ele><time>2026-04-23T09:28:23.999Z</time></trkpt><trkpt lat="46.310901689730606" lon="12.444632374706199"><ele>712.5</ele><time>2026-04-23T09:28:24.999Z</time></trkpt><trkpt lat="46.31096948883375" lon="12.44466671769894"><ele>712.6666666666666</ele><time>2026-04-23T09:28:25.999Z</time></trkpt><trkpt lat="46.31103739241425" lon="12.444779411720488"><ele>712.8333333333333</ele><time>2026-04-23T09:28:27.999Z</time></trkpt><trkpt lat="46.31108611757666" lon="12.444840848825553"><ele>713.0</ele><time>2026-04-23T09:28:28.999Z</time></trkpt><trkpt lat="46.31115613927916" lon="12.444889453958695"><ele>713.0</ele><time>2026-04-23T09:28:29.999Z</time></trkpt><trkpt lat="46.311229233286" lon="12.444932907219837"><ele>713.0</ele><time>2026-04-23T09:28:30.999Z</time></trkpt><trkpt lat="46.31129035935617" lon="12.444968578098441"><ele>713.0</ele><time>2026-04-23T09:28:31.999Z</time></trkpt><trkpt lat="46.31135105847332" lon="12.445012326685076"><ele>713.0</ele><time>2026-04-23T09:28:32.999Z</time></trkpt><trkpt lat="46.31144400448186" lon="12.44508639171141"><ele>713.0</ele><time>2026-04-23T09:28:34.999Z</time></trkpt><trkpt lat="46.31150808669088" lon="12.445152991625585"><ele>713.0</ele><time>2026-04-23T09:28:37.999Z</time></trkpt><trkpt lat="46.31160502615548" lon="12.44515167810733"><ele>714.0</ele><time>2026-04-23T09:28:39.999Z</time></trkpt><trkpt lat="46.31173437671117" lon="12.445143734825841"><ele>715.0</ele><time>2026-04-23T09:28:41.999Z</time></trkpt><trkpt lat="46.311812712025855" lon="12.445158905891867"><ele>716.0</ele><time>2026-04-23T09:28:42.999Z</time></trkpt><trkpt lat="46.31189188851334" lon="12.445164318149239"><ele>717.0</ele><time>2026-04-23T09:28:43.999Z</time></trkpt><trkpt lat="46.311976394801704" lon="12.445140367696004"><ele>718.0</ele><time>2026-04-23T09:28:44.999Z</time></trkpt><trkpt lat="46.31206006364415" lon="12.445090126803509"><ele>718.0</ele><time>2026-04-23T09:28:45.999Z</time></trkpt><trkpt lat="46.312135929867075" lon="12.445046793308029"><ele>718.0</ele><time>2026-04-23T09:28:46.999Z</time></trkpt><trkpt lat="46.312237217965" lon="12.445011014516933"><ele>718.0</ele><time>2026-04-23T09:28:48.999Z</time></trkpt><trkpt lat="46.31234472766349" lon="12.445059617416298"><ele>718.0</ele><time>2026-04-23T09:28:50.999Z</time></trkpt><trkpt lat="46.31242956755733" lon="12.445096971399504"><ele>718.0</ele><time>2026-04-23T09:28:51.999Z</time></trkpt><trkpt lat="46.312524296536246" lon="12.445154347391366"><ele>719.2</ele><time>2026-04-23T09:28:52.999Z</time></trkpt><trkpt lat="46.312601428873826" lon="12.445182605370846"><ele>720.4</ele><time>2026-04-23T09:28:53.999Z</time></trkpt><trkpt lat="46.31267883841239" lon="12.44515776368817"><ele>721.6</ele><time>2026-04-23T09:28:54.999Z</time></trkpt><trkpt lat="46.312765270650694" lon="12.44510505707533"><ele>722.8000000000001</ele><time>2026-04-23T09:28:55.999Z</time></trkpt><trkpt lat="46.31285574922776" lon="12.445038854831882"><ele>724.0</ele><time>2026-04-23T09:28:56.999Z</time></trkpt><trkpt lat="46.31295214180771" lon="12.444962920787919"><ele>724.0</ele><time>2026-04-23T09:28:57.999Z</time></trkpt><trkpt lat="46.313052058322825" lon="12.444892206992805"><ele>724.0</ele><time>2026-04-23T09:28:58.999Z</time></trkpt><trkpt lat="46.313148741468346" lon="12.444820978590505"><ele>724.0</ele><time>2026-04-23T09:28:59.999Z</time></trkpt><trkpt lat="46.31324264262675" lon="12.444750188898535"><ele>724.0</ele><time>2026-04-23T09:29:00.999Z</time></trkpt><trkpt lat="46.31332312028634" lon="12.444679504757493"><ele>724.0</ele><time>2026-04-23T09:29:01.999Z</time></trkpt><trkpt lat="46.313411661407855" lon="12.444630590872153"><ele>727.8000000000001</ele><time>2026-04-23T09:29:02.999Z</time></trkpt><trkpt lat="46.31349368682786" lon="12.444554173330513"><ele>731.6</ele><time>2026-04-23T09:29:03.999Z</time></trkpt><trkpt lat="46.31357141888022" lon="12.444458435835605"><ele>735.4</ele><time>2026-04-23T09:29:04.999Z</time></trkpt><trkpt lat="46.31363949080663" lon="12.444340055878335"><ele>739.2</ele><time>2026-04-23T09:29:05.999Z</time></trkpt><trkpt lat="46.31367846305438" lon="12.444224118780303"><ele>743.0</ele><time>2026-04-23T09:29:06.999Z</time></trkpt><trkpt lat="46.31372523788393" lon="12.444133339294812"><ele>743.0</ele><time>2026-04-23T09:29:07.999Z</time></trkpt><trkpt lat="46.313796724313065" lon="12.444021708876164"><ele>743.0</ele><time>2026-04-23T09:29:09.999Z</time></trkpt><trkpt lat="46.313869690210886" lon="12.444020194931449"><ele>743.0</ele><time>2026-04-23T09:29:11.999Z</time></trkpt><trkpt lat="46.31394300020256" lon="12.444084449576927"><ele>743.0</ele><time>2026-04-23T09:29:13.999Z</time></trkpt><trkpt lat="46.31401370193758" lon="12.444124559656885"><ele>743.0</ele><time>2026-04-23T09:29:14.999Z</time></trkpt><trkpt lat="46.31405570836461" lon="12.444215527531087"><ele>743.0</ele><time>2026-04-23T09:29:15.999Z</time></trkpt><trkpt lat="46.31409601393182" lon="12.44429085081726"><ele>743.5</ele><time>2026-04-23T09:29:16.999Z</time></trkpt><trkpt lat="46.31406601749389" lon="12.444406687466957"><ele>744.0</ele><time>2026-04-23T09:29:17.999Z</time></trkpt><trkpt lat="46.31405309816484" lon="12.44450696084251"><ele>744.5</ele><time>2026-04-23T09:29:18.999Z</time></trkpt><trkpt lat="46.31404955885369" lon="12.444620947774537"><ele>745.0</ele><time>2026-04-23T09:29:19.999Z</time></trkpt><trkpt lat="46.31405030298901" lon="12.44473632236168"><ele>745.5</ele><time>2026-04-23T09:29:20.999Z</time></trkpt><trkpt lat="46.31405436618236" lon="12.44485572322748"><ele>746.0</ele><time>2026-04-23T09:29:21.998Z</time></trkpt><trkpt lat="46.31406264356451" lon="12.444959911448937"><ele>743.5999999999999</ele><time>2026-04-23T09:29:22.998Z</time></trkpt><trkpt lat="46.31410811317894" lon="12.445115313848193"><ele>741.2</ele><time>2026-04-23T09:29:24.998Z</time></trkpt><trkpt lat="46.314186880584785" lon="12.445131963428473"><ele>738.8</ele><time>2026-04-23T09:29:25.998Z</time></trkpt><trkpt lat="46.3142855491053" lon="12.44515664360736"><ele>736.4000000000001</ele><time>2026-04-23T09:29:27.998Z</time></trkpt><trkpt lat="46.31441193193121" lon="12.445136313872359"><ele>734.0</ele><time>2026-04-23T09:29:29.998Z</time></trkpt><trkpt lat="46.314497212486366" lon="12.445136097736672"><ele>734.0</ele><time>2026-04-23T09:29:30.998Z</time></trkpt><trkpt lat="46.314595429635034" lon="12.445137638743917"><ele>734.0</ele><time>2026-04-23T09:29:31.998Z</time></trkpt><trkpt lat="46.31469205809097" lon="12.445141771468355"><ele>734.0</ele><time>2026-04-23T09:29:32.998Z</time></trkpt><trkpt lat="46.314784698372364" lon="12.445154178227705"><ele>734.0</ele><time>2026-04-23T09:29:33.998Z</time></trkpt><trkpt lat="46.31487928522032" lon="12.445164999495546"><ele>734.0</ele><time>2026-04-23T09:29:34.998Z</time></trkpt><trkpt lat="46.314969240126864" lon="12.445172669605622"><ele>733.5</ele><time>2026-04-23T09:29:35.998Z</time></trkpt><trkpt lat="46.31504966946426" lon="12.445191597041015"><ele>733.0</ele><time>2026-04-23T09:29:36.998Z</time></trkpt><trkpt lat="46.31512164022518" lon="12.445229380889948"><ele>732.5</ele><time>2026-04-23T09:29:37.998Z</time></trkpt><trkpt lat="46.31517564184114" lon="12.445330618479314"><ele>732.0</ele><time>2026-04-23T09:29:38.998Z</time></trkpt><trkpt lat="46.31524741458906" lon="12.44543879724974"><ele>731.5</ele><time>2026-04-23T09:29:39.998Z</time></trkpt><trkpt lat="46.31532389385519" lon="12.445516778664244"><ele>731.0</ele><time>2026-04-23T09:29:40.998Z</time></trkpt><trkpt lat="46.31543168616029" lon="12.445582923421552"><ele>731.0</ele><time>2026-04-23T09:29:41.998Z</time></trkpt><trkpt lat="46.315540205125444" lon="12.445649106234798"><ele>731.0</ele><time>2026-04-23T09:29:43Z</time></trkpt><trkpt lat="46.31568098617447" lon="12.445711290310564"><ele>731.0</ele><time>2026-04-23T09:29:44Z</time></trkpt><trkpt lat="46.31583939710646" lon="12.445786406386413"><ele>731.0</ele><time>2026-04-23T09:29:45Z</time></trkpt><trkpt lat="46.31598441022902" lon="12.445855575982549"><ele>732.5</ele><time>2026-04-23T09:29:46Z</time></trkpt><trkpt lat="46.31611125421094" lon="12.445916820910952"><ele>734.0</ele><time>2026-04-23T09:29:47Z</time></trkpt><trkpt lat="46.31622138881804" lon="12.44598017087099"><ele>735.5</ele><time>2026-04-23T09:29:48Z</time></trkpt><trkpt lat="46.31631520094678" lon="12.446076725024316"><ele>737.0</ele><time>2026-04-23T09:29:49Z</time></trkpt><trkpt lat="46.31640427230364" lon="12.446188246032657"><ele>737.2</ele><time>2026-04-23T09:29:50Z</time></trkpt><trkpt lat="46.31649110039617" lon="12.44628311371236"><ele>737.4000000000001</ele><time>2026-04-23T09:29:51Z</time></trkpt><trkpt lat="46.316578008571376" lon="12.446349970313339"><ele>737.5999999999999</ele><time>2026-04-23T09:29:52Z</time></trkpt><trkpt lat="46.31665404549025" lon="12.446410918594145"><ele>737.8</ele><time>2026-04-23T09:29:53Z</time></trkpt><trkpt lat="46.31671896737963" lon="12.44649124637548"><ele>738.0</ele><time>2026-04-23T09:29:54Z</time></trkpt><trkpt lat="46.316778655467665" lon="12.446601499905302"><ele>737.5999999999999</ele><time>2026-04-23T09:29:55Z</time></trkpt><trkpt lat="46.31683792015635" lon="12.446732621883514"><ele>737.1999999999999</ele><time>2026-04-23T09:29:56Z</time></trkpt><trkpt lat="46.316909856809055" lon="12.44685777662603"><ele>736.8</ele><time>2026-04-23T09:29:57Z</time></trkpt><trkpt lat="46.317000007872174" lon="12.44695204398682"><ele>736.4</ele><time>2026-04-23T09:29:58Z</time></trkpt><trkpt lat="46.31708925517422" lon="12.447036868407785"><ele>736.0</ele><time>2026-04-23T09:29:59Z</time></trkpt><trkpt lat="46.31719452334774" lon="12.447099844100215"><ele>737.0</ele><time>2026-04-23T09:30:00Z</time></trkpt><trkpt lat="46.31728921645151" lon="12.447180279990611"><ele>738.0</ele><time>2026-04-23T09:30:01Z</time></trkpt><trkpt lat="46.31738065190736" lon="12.447255304909962"><ele>739.0</ele><time>2026-04-23T09:30:02Z</time></trkpt><trkpt lat="46.317475570997175" lon="12.447340027054944"><ele>740.0</ele><time>2026-04-23T09:30:03Z</time></trkpt><trkpt lat="46.317574005127675" lon="12.44742651183408"><ele>741.0</ele><time>2026-04-23T09:30:04Z</time></trkpt><trkpt lat="46.31767166089899" lon="12.447516596376968"><ele>741.0</ele><time>2026-04-23T09:30:05Z</time></trkpt><trkpt lat="46.3177594577177" lon="12.447612073643183"><ele>741.0</ele><time>2026-04-23T09:30:06Z</time></trkpt><trkpt lat="46.31784691356256" lon="12.447713631999655"><ele>741.0</ele><time>2026-04-23T09:30:07Z</time></trkpt><trkpt lat="46.31793652532298" lon="12.447820045215218"><ele>741.0</ele><time>2026-04-23T09:30:08Z</time></trkpt><trkpt lat="46.31801501533828" lon="12.447928537012796"><ele>741.0</ele><time>2026-04-23T09:30:09Z</time></trkpt><trkpt lat="46.31805778179068" lon="12.448069917158797"><ele>740.8</ele><time>2026-04-23T09:30:10Z</time></trkpt><trkpt lat="46.318103160137646" lon="12.448210214463504"><ele>740.5999999999999</ele><time>2026-04-23T09:30:11Z</time></trkpt><trkpt lat="46.31814114730316" lon="12.448359394430353"><ele>740.4</ele><time>2026-04-23T09:30:12Z</time></trkpt><trkpt lat="46.31817948515427" lon="12.448517639558949"><ele>740.2</ele><time>2026-04-23T09:30:13Z</time></trkpt><trkpt lat="46.31821696303546" lon="12.448672376919392"><ele>740.0</ele><time>2026-04-23T09:30:14Z</time></trkpt><trkpt lat="46.31825204830451" lon="12.448818366574002"><ele>740.0</ele><time>2026-04-23T09:30:15Z</time></trkpt><trkpt lat="46.31828759460676" lon="12.448970210212256"><ele>740.0</ele><time>2026-04-23T09:30:16Z</time></trkpt><trkpt lat="46.31832374035857" lon="12.449124614485978"><ele>740.0</ele><time>2026-04-23T09:30:17Z</time></trkpt><trkpt lat="46.31835784319362" lon="12.4492786800842"><ele>740.0</ele><time>2026-04-23T09:30:18Z</time></trkpt><trkpt lat="46.318393333638895" lon="12.449438828665135"><ele>740.0</ele><time>2026-04-23T09:30:19Z</time></trkpt><trkpt lat="46.31843532064845" lon="12.449592462427384"><ele>740.0</ele><time>2026-04-23T09:30:20Z</time></trkpt><trkpt lat="46.31849573935946" lon="12.449720214141566"><ele>740.0</ele><time>2026-04-23T09:30:21Z</time></trkpt><trkpt lat="46.31855774555579" lon="12.44984528373247"><ele>740.0</ele><time>2026-04-23T09:30:22Z</time></trkpt><trkpt lat="46.31862791096556" lon="12.449934393034825"><ele>740.0</ele><time>2026-04-23T09:30:22.999Z</time></trkpt><trkpt lat="46.318715471957155" lon="12.449963185475456"><ele>742.2</ele><time>2026-04-23T09:30:23.999Z</time></trkpt><trkpt lat="46.31879870409812" lon="12.449979391640076"><ele>744.4</ele><time>2026-04-23T09:30:24.999Z</time></trkpt><trkpt lat="46.318902828654664" lon="12.44998568313606"><ele>746.5999999999999</ele><time>2026-04-23T09:30:25.999Z</time></trkpt><trkpt lat="46.319019536004284" lon="12.45003405795347"><ele>748.8</ele><time>2026-04-23T09:30:26.999Z</time></trkpt><trkpt lat="46.319140519929334" lon="12.450092515089448"><ele>751.0</ele><time>2026-04-23T09:30:27.999Z</time></trkpt><trkpt lat="46.31927122884068" lon="12.450147506247337"><ele>751.0</ele><time>2026-04-23T09:30:28.999Z</time></trkpt><trkpt lat="46.3193885725204" lon="12.450214826516557"><ele>751.0</ele><time>2026-04-23T09:30:29.999Z</time></trkpt><trkpt lat="46.31948897381352" lon="12.450265662824469"><ele>751.0</ele><time>2026-04-23T09:30:30.999Z</time></trkpt><trkpt lat="46.31958404345197" lon="12.450312174330127"><ele>751.0</ele><time>2026-04-23T09:30:31.999Z</time></trkpt><trkpt lat="46.31969399830424" lon="12.450353941645735"><ele>751.0</ele><time>2026-04-23T09:30:32.999Z</time></trkpt><trkpt lat="46.3198083058086" lon="12.450406647419674"><ele>753.75</ele><time>2026-04-23T09:30:33.999Z</time></trkpt><trkpt lat="46.31992680466731" lon="12.450453501371253"><ele>756.5</ele><time>2026-04-23T09:30:34.999Z</time></trkpt><trkpt lat="46.320045210071044" lon="12.450496632653207"><ele>759.25</ele><time>2026-04-23T09:30:35.999Z</time></trkpt><trkpt lat="46.3201632544241" lon="12.450535577985386"><ele>762.0</ele><time>2026-04-23T09:30:36.999Z</time></trkpt><trkpt lat="46.32027636453156" lon="12.450578059667823"><ele>760.4000000000001</ele><time>2026-04-23T09:30:37.999Z</time></trkpt><trkpt lat="46.3203780846792" lon="12.450625634951923"><ele>758.8000000000001</ele><time>2026-04-23T09:30:38.999Z</time></trkpt><trkpt lat="46.32046595706309" lon="12.45068829829255"><ele>757.2</ele><time>2026-04-23T09:30:39.999Z</time></trkpt><trkpt lat="46.320547920720806" lon="12.450771330443464"><ele>755.6</ele><time>2026-04-23T09:30:40.999Z</time></trkpt><trkpt lat="46.32060895256452" lon="12.450857566121906"><ele>754.0</ele><time>2026-04-23T09:30:41.999Z</time></trkpt><trkpt lat="46.320652602348666" lon="12.450947006776929"><ele>754.0</ele><time>2026-04-23T09:30:42.999Z</time></trkpt><trkpt lat="46.3206854157455" lon="12.451049383569028"><ele>754.0</ele><time>2026-04-23T09:30:43.999Z</time></trkpt><trkpt lat="46.320691579364315" lon="12.45118237365397"><ele>754.0</ele><time>2026-04-23T09:30:44.999Z</time></trkpt><trkpt lat="46.320715697882626" lon="12.451308370568928"><ele>754.0</ele><time>2026-04-23T09:30:45.999Z</time></trkpt><trkpt lat="46.320742837888375" lon="12.451462554439757"><ele>754.0</ele><time>2026-04-23T09:30:47.999Z</time></trkpt><trkpt lat="46.32077537910504" lon="12.451664176770922"><ele>751.5</ele><time>2026-04-23T09:30:49.999Z</time></trkpt><trkpt lat="46.32079947737553" lon="12.4518162794808"><ele>749.0</ele><time>2026-04-23T09:30:50.999Z</time></trkpt><trkpt lat="46.32083688180233" lon="12.451998560706766"><ele>746.5</ele><time>2026-04-23T09:30:51.999Z</time></trkpt><trkpt lat="46.32085184634164" lon="12.452193540479024"><ele>744.0</ele><time>2026-04-23T09:30:52.999Z</time></trkpt><trkpt lat="46.32085937823857" lon="12.452370398927583"><ele>744.0</ele><time>2026-04-23T09:30:53.999Z</time></trkpt><trkpt lat="46.320845036254184" lon="12.452527226815974"><ele>744.0</ele><time>2026-04-23T09:30:54.999Z</time></trkpt><trkpt lat="46.32084652041555" lon="12.452686056053784"><ele>744.0</ele><time>2026-04-23T09:30:55.999Z</time></trkpt><trkpt lat="46.320834687384" lon="12.452849746061652"><ele>744.0</ele><time>2026-04-23T09:30:56.999Z</time></trkpt><trkpt lat="46.32085106861808" lon="12.453051631722815"><ele>745.6666666666666</ele><time>2026-04-23T09:30:57.999Z</time></trkpt><trkpt lat="46.32089382096512" lon="12.45328224209611"><ele>747.3333333333333</ele><time>2026-04-23T09:30:58.999Z</time></trkpt><trkpt lat="46.32093316903587" lon="12.453497613203417"><ele>749.0</ele><time>2026-04-23T09:30:59.999Z</time></trkpt><trkpt lat="46.32096614486109" lon="12.453692233400634"><ele>749.5</ele><time>2026-04-23T09:31:00.999Z</time></trkpt><trkpt lat="46.320999300488914" lon="12.453879852485878"><ele>750.0</ele><time>2026-04-23T09:31:01.999Z</time></trkpt><trkpt lat="46.321023302177146" lon="12.454045127506163"><ele>750.5</ele><time>2026-04-23T09:31:02.999Z</time></trkpt><trkpt lat="46.32104175178677" lon="12.454192755350176"><ele>751.0</ele><time>2026-04-23T09:31:03.999Z</time></trkpt><trkpt lat="46.3211018781431" lon="12.454319591359228"><ele>751.0</ele><time>2026-04-23T09:31:04.999Z</time></trkpt><trkpt lat="46.321162226814664" lon="12.454428203591728"><ele>751.0</ele><time>2026-04-23T09:31:05.999Z</time></trkpt><trkpt lat="46.32118364276644" lon="12.454548295367267"><ele>751.0</ele><time>2026-04-23T09:31:06.999Z</time></trkpt><trkpt lat="46.3211727264922" lon="12.454678719601347"><ele>751.0</ele><time>2026-04-23T09:31:07.999Z</time></trkpt><trkpt lat="46.32116331788282" lon="12.454837868288877"><ele>751.0</ele><time>2026-04-23T09:31:08.999Z</time></trkpt><trkpt lat="46.32113763561426" lon="12.454995725836032"><ele>750.4</ele><time>2026-04-23T09:31:09.999Z</time></trkpt><trkpt lat="46.321079881200745" lon="12.455148501567916"><ele>749.8</ele><time>2026-04-23T09:31:10.999Z</time></trkpt><trkpt lat="46.32106062555475" lon="12.45529806826704"><ele>749.1999999999999</ele><time>2026-04-23T09:31:11.999Z</time></trkpt><trkpt lat="46.32103913760082" lon="12.45543339791004"><ele>748.5999999999999</ele><time>2026-04-23T09:31:12.999Z</time></trkpt><trkpt lat="46.32105955533841" lon="12.455584866253904"><ele>748.0</ele><time>2026-04-23T09:31:13.999Z</time></trkpt><trkpt lat="46.321087158121024" lon="12.45571005351324"><ele>747.8</ele><time>2026-04-23T09:31:14.999Z</time></trkpt><trkpt lat="46.32111995257616" lon="12.455794270070673"><ele>747.5999999999999</ele><time>2026-04-23T09:31:15.999Z</time></trkpt><trkpt lat="46.321185118937194" lon="12.455854151494659"><ele>747.4000000000001</ele><time>2026-04-23T09:31:16.999Z</time></trkpt><trkpt lat="46.321287030464326" lon="12.455908997027478"><ele>747.2</ele><time>2026-04-23T09:31:17.999Z</time></trkpt><trkpt lat="46.32139734552142" lon="12.45595326680557"><ele>747.0</ele><time>2026-04-23T09:31:18.999Z</time></trkpt><trkpt lat="46.32149459135126" lon="12.455997470524458"><ele>748.5</ele><time>2026-04-23T09:31:19.999Z</time></trkpt><trkpt lat="46.32155546911102" lon="12.456060344405541"><ele>750.0</ele><time>2026-04-23T09:31:20.999Z</time></trkpt><trkpt lat="46.32158306125643" lon="12.456148042110408"><ele>751.5</ele><time>2026-04-23T09:31:21.999Z</time></trkpt><trkpt lat="46.3215488318164" lon="12.456267095604526"><ele>753.0</ele><time>2026-04-23T09:31:22.999Z</time></trkpt><trkpt lat="46.321553773015545" lon="12.456400994728735"><ele>754.5</ele><time>2026-04-23T09:31:23.999Z</time></trkpt><trkpt lat="46.321561597175695" lon="12.456536843819963"><ele>756.0</ele><time>2026-04-23T09:31:24.999Z</time></trkpt><trkpt lat="46.321572424702104" lon="12.456676586484145"><ele>756.0</ele><time>2026-04-23T09:31:25.999Z</time></trkpt><trkpt lat="46.32159826812241" lon="12.456806967204292"><ele>756.0</ele><time>2026-04-23T09:31:26.999Z</time></trkpt><trkpt lat="46.32161855548847" lon="12.456919738440059"><ele>756.0</ele><time>2026-04-23T09:31:27.999Z</time></trkpt><trkpt lat="46.32165894051466" lon="12.45703463469409"><ele>756.0</ele><time>2026-04-23T09:31:28.998Z</time></trkpt><trkpt lat="46.321711005724204" lon="12.457174359955605"><ele>756.0</ele><time>2026-04-23T09:31:29.998Z</time></trkpt><trkpt lat="46.32172999892903" lon="12.457338329400825"><ele>757.5999999999999</ele><time>2026-04-23T09:31:30.998Z</time></trkpt><trkpt lat="46.32175376503752" lon="12.457480631575281"><ele>759.2</ele><time>2026-04-23T09:31:31.998Z</time></trkpt><trkpt lat="46.321765694546876" lon="12.457617068707046"><ele>760.8</ele><time>2026-04-23T09:31:32.998Z</time></trkpt><trkpt lat="46.32175385250112" lon="12.457766862350796"><ele>762.4000000000001</ele><time>2026-04-23T09:31:33.998Z</time></trkpt><trkpt lat="46.32175636170087" lon="12.457936173742429"><ele>764.0</ele><time>2026-04-23T09:31:34.998Z</time></trkpt><trkpt lat="46.32177525221409" lon="12.458113388779692"><ele>765.0</ele><time>2026-04-23T09:31:35.998Z</time></trkpt><trkpt lat="46.32180645896188" lon="12.458287185163522"><ele>766.0</ele><time>2026-04-23T09:31:36.998Z</time></trkpt><trkpt lat="46.32181698940654" lon="12.458465524959674"><ele>767.0</ele><time>2026-04-23T09:31:37.998Z</time></trkpt><trkpt lat="46.32185612970501" lon="12.458637201150673"><ele>768.0</ele><time>2026-04-23T09:31:38.998Z</time></trkpt><trkpt lat="46.32187149971911" lon="12.458815594317906"><ele>769.5</ele><time>2026-04-23T09:31:39.998Z</time></trkpt><trkpt lat="46.32187130274408" lon="12.458990918552958"><ele>771.0</ele><time>2026-04-23T09:31:40.998Z</time></trkpt><trkpt lat="46.32188455948277" lon="12.459158837251843"><ele>772.5</ele><time>2026-04-23T09:31:41.998Z</time></trkpt><trkpt lat="46.3218985657775" lon="12.459323891295835"><ele>774.0</ele><time>2026-04-23T09:31:42.998Z</time></trkpt><trkpt lat="46.321941331795806" lon="12.459493029757809"><ele>774.0</ele><time>2026-04-23T09:31:43.998Z</time></trkpt><trkpt lat="46.32201538533069" lon="12.459649342521995"><ele>774.0</ele><time>2026-04-23T09:31:44.998Z</time></trkpt><trkpt lat="46.322088464002384" lon="12.459815221390242"><ele>774.0</ele><time>2026-04-23T09:31:45.998Z</time></trkpt><trkpt lat="46.32216402578665" lon="12.459970760331682"><ele>774.0</ele><time>2026-04-23T09:31:46.998Z</time></trkpt><trkpt lat="46.322248333138134" lon="12.460108848722262"><ele>774.0</ele><time>2026-04-23T09:31:47.998Z</time></trkpt><trkpt lat="46.32235113455455" lon="12.46022306517681"><ele>774.0</ele><time>2026-04-23T09:31:49Z</time></trkpt><trkpt lat="46.32246314337057" lon="12.460322971532054"><ele>774.0</ele><time>2026-04-23T09:31:50Z</time></trkpt><trkpt lat="46.32257148077664" lon="12.46043047708784"><ele>774.0</ele><time>2026-04-23T09:31:51Z</time></trkpt><trkpt lat="46.322675974386925" lon="12.460539074235244"><ele>776.5</ele><time>2026-04-23T09:31:52Z</time></trkpt><trkpt lat="46.322790623269476" lon="12.460639662260895"><ele>779.0</ele><time>2026-04-23T09:31:53Z</time></trkpt><trkpt lat="46.322912413371505" lon="12.460730553558378"><ele>781.5</ele><time>2026-04-23T09:31:54Z</time></trkpt><trkpt lat="46.32302791918454" lon="12.460824637435893"><ele>784.0</ele><time>2026-04-23T09:31:55Z</time></trkpt><trkpt lat="46.32314275623997" lon="12.460888109772347"><ele>784.0</ele><time>2026-04-23T09:31:56Z</time></trkpt><trkpt lat="46.32325721829942" lon="12.46094143506606"><ele>784.0</ele><time>2026-04-23T09:31:57Z</time></trkpt><trkpt lat="46.32336178370043" lon="12.46100440752094"><ele>784.0</ele><time>2026-04-23T09:31:58Z</time></trkpt><trkpt lat="46.323440428822344" lon="12.461101977239553"><ele>784.0</ele><time>2026-04-23T09:31:59Z</time></trkpt><trkpt lat="46.32348757674798" lon="12.461245030932803"><ele>784.0</ele><time>2026-04-23T09:32:00Z</time></trkpt><trkpt lat="46.32357359835995" lon="12.461387064875767"><ele>787.5</ele><time>2026-04-23T09:32:01Z</time></trkpt><trkpt lat="46.32366017408849" lon="12.46152825294794"><ele>791.0</ele><time>2026-04-23T09:32:02Z</time></trkpt><trkpt lat="46.32375638456514" lon="12.461650545620554"><ele>794.5</ele><time>2026-04-23T09:32:03Z</time></trkpt><trkpt lat="46.323813888419295" lon="12.461810886925566"><ele>798.0</ele><time>2026-04-23T09:32:04Z</time></trkpt><trkpt lat="46.323876641824384" lon="12.461978894547537"><ele>798.0</ele><time>2026-04-23T09:32:05Z</time></trkpt><trkpt lat="46.32395046680638" lon="12.462155635026468"><ele>798.0</ele><time>2026-04-23T09:32:06Z</time></trkpt><trkpt lat="46.3240272141539" lon="12.46232853833208"><ele>798.0</ele><time>2026-04-23T09:32:07Z</time></trkpt><trkpt lat="46.32409166374193" lon="12.46246484996932"><ele>798.0</ele><time>2026-04-23T09:32:08Z</time></trkpt><trkpt lat="46.324148555833844" lon="12.462596678780718"><ele>798.0</ele><time>2026-04-23T09:32:09Z</time></trkpt><trkpt lat="46.32420896439352" lon="12.462706022131556"><ele>798.0</ele><time>2026-04-23T09:32:10Z</time></trkpt><trkpt lat="46.32426133716998" lon="12.462808748392286"><ele>798.0</ele><time>2026-04-23T09:32:11Z</time></trkpt><trkpt lat="46.32431816540048" lon="12.462918454976311"><ele>798.0</ele><time>2026-04-23T09:32:12Z</time></trkpt><trkpt lat="46.32438262498591" lon="12.463037149474468"><ele>798.0</ele><time>2026-04-23T09:32:13Z</time></trkpt><trkpt lat="46.3244552007562" lon="12.463152042847819"><ele>798.0</ele><time>2026-04-23T09:32:14Z</time></trkpt><trkpt lat="46.324520397082786" lon="12.463257169220032"><ele>798.0</ele><time>2026-04-23T09:32:15Z</time></trkpt><trkpt lat="46.32454362555153" lon="12.463385974220845"><ele>798.0</ele><time>2026-04-23T09:32:16Z</time></trkpt><trkpt lat="46.32459157274527" lon="12.463510545273405"><ele>798.0</ele><time>2026-04-23T09:32:17Z</time></trkpt><trkpt lat="46.32465332639852" lon="12.463641525695737"><ele>798.0</ele><time>2026-04-23T09:32:18Z</time></trkpt><trkpt lat="46.32473800820385" lon="12.463764677069"><ele>798.0</ele><time>2026-04-23T09:32:19Z</time></trkpt><trkpt lat="46.32477498697547" lon="12.463915481442502"><ele>798.0</ele><time>2026-04-23T09:32:20Z</time></trkpt><trkpt lat="46.32479708949398" lon="12.464084218833467"><ele>798.0</ele><time>2026-04-23T09:32:21Z</time></trkpt><trkpt lat="46.32486049356361" lon="12.464248269946523"><ele>798.0</ele><time>2026-04-23T09:32:22Z</time></trkpt><trkpt lat="46.32491867041847" lon="12.464423505722618"><ele>798.0</ele><time>2026-04-23T09:32:23Z</time></trkpt><trkpt lat="46.3249989651011" lon="12.464581990730439"><ele>798.0</ele><time>2026-04-23T09:32:24Z</time></trkpt><trkpt lat="46.32507586115314" lon="12.464738134252558"><ele>798.0</ele><time>2026-04-23T09:32:25Z</time></trkpt><trkpt lat="46.325158362883926" lon="12.464889602180063"><ele>798.0</ele><time>2026-04-23T09:32:26Z</time></trkpt><trkpt lat="46.325260105923604" lon="12.465024738623304"><ele>798.0</ele><time>2026-04-23T09:32:27Z</time></trkpt><trkpt lat="46.32536972905806" lon="12.46515077107656"><ele>798.0</ele><time>2026-04-23T09:32:27.999Z</time></trkpt><trkpt lat="46.32548064695455" lon="12.465270648448834"><ele>798.0</ele><time>2026-04-23T09:32:28.999Z</time></trkpt><trkpt lat="46.325580039928944" lon="12.465395866453177"><ele>798.0</ele><time>2026-04-23T09:32:29.999Z</time></trkpt><trkpt lat="46.32568418026323" lon="12.465516465091461"><ele>798.0</ele><time>2026-04-23T09:32:30.999Z</time></trkpt><trkpt lat="46.325800438933896" lon="12.465618651632255"><ele>798.0</ele><time>2026-04-23T09:32:31.999Z</time></trkpt><trkpt lat="46.32591696823633" lon="12.465708802697357"><ele>798.0</ele><time>2026-04-23T09:32:32.999Z</time></trkpt><trkpt lat="46.326041038669" lon="12.46581035745657"><ele>798.0</ele><time>2026-04-23T09:32:33.999Z</time></trkpt><trkpt lat="46.326149046935846" lon="12.465912557290512"><ele>798.0</ele><time>2026-04-23T09:32:34.999Z</time></trkpt><trkpt lat="46.32625767254493" lon="12.465989523171848"><ele>798.0</ele><time>2026-04-23T09:32:35.999Z</time></trkpt><trkpt lat="46.32635957533426" lon="12.466062821326178"><ele>798.0</ele><time>2026-04-23T09:32:36.999Z</time></trkpt><trkpt lat="46.32645314173888" lon="12.466145504961615"><ele>798.0</ele><time>2026-04-23T09:32:37.999Z</time></trkpt><trkpt lat="46.32654677276402" lon="12.466224527179849"><ele>798.0</ele><time>2026-04-23T09:32:38.999Z</time></trkpt><trkpt lat="46.32663701427369" lon="12.466305504258434"><ele>798.0</ele><time>2026-04-23T09:32:39.999Z</time></trkpt><trkpt lat="46.32671895179278" lon="12.466412234486409"><ele>798.0</ele><time>2026-04-23T09:32:40.999Z</time></trkpt><trkpt lat="46.32677951691347" lon="12.466544430281926"><ele>798.0</ele><time>2026-04-23T09:32:41.999Z</time></trkpt><trkpt lat="46.32681217152292" lon="12.466701273525777"><ele>798.0</ele><time>2026-04-23T09:32:42.999Z</time></trkpt><trkpt lat="46.32681595692727" lon="12.466872490125654"><ele>798.0</ele><time>2026-04-23T09:32:43.999Z</time></trkpt><trkpt lat="46.32685622428179" lon="12.467041061076747"><ele>798.0</ele><time>2026-04-23T09:32:44.999Z</time></trkpt><trkpt lat="46.32688729103769" lon="12.467206978264704"><ele>798.0</ele><time>2026-04-23T09:32:45.999Z</time></trkpt><trkpt lat="46.326930514949666" lon="12.467379685802689"><ele>798.0</ele><time>2026-04-23T09:32:46.999Z</time></trkpt><trkpt lat="46.32697300862149" lon="12.467548605726554"><ele>798.0</ele><time>2026-04-23T09:32:47.999Z</time></trkpt><trkpt lat="46.327037468515314" lon="12.467695404037288"><ele>798.0</ele><time>2026-04-23T09:32:48.999Z</time></trkpt><trkpt lat="46.32709322867227" lon="12.467819699239532"><ele>798.0</ele><time>2026-04-23T09:32:49.999Z</time></trkpt><trkpt lat="46.327140764345835" lon="12.467948744532505"><ele>798.0</ele><time>2026-04-23T09:32:50.999Z</time></trkpt><trkpt lat="46.32717080639226" lon="12.468095013610165"><ele>798.0</ele><time>2026-04-23T09:32:51.999Z</time></trkpt><trkpt lat="46.32721412009004" lon="12.468242520785306"><ele>798.0</ele><time>2026-04-23T09:32:52.999Z</time></trkpt><trkpt lat="46.3272648409023" lon="12.468382089385479"><ele>798.0</ele><time>2026-04-23T09:32:53.999Z</time></trkpt><trkpt lat="46.32731354844484" lon="12.468482103557719"><ele>798.0</ele><time>2026-04-23T09:32:54.999Z</time></trkpt><trkpt lat="46.32736375978094" lon="12.468609859598896"><ele>798.0</ele><time>2026-04-23T09:32:56.999Z</time></trkpt><trkpt lat="46.32741409119465" lon="12.468712745860717"><ele>798.0</ele><time>2026-04-23T09:32:58.999Z</time></trkpt><trkpt lat="46.32752990988548" lon="12.46881146153508"><ele>798.0</ele><time>2026-04-23T09:33:00.999Z</time></trkpt><trkpt lat="46.3275950723238" lon="12.468877236605202"><ele>798.0</ele><time>2026-04-23T09:33:01.999Z</time></trkpt><trkpt lat="46.32766010396725" lon="12.468939956852736"><ele>798.0</ele><time>2026-04-23T09:33:02.999Z</time></trkpt><trkpt lat="46.327723324642804" lon="12.469065543307742"><ele>798.0</ele><time>2026-04-23T09:33:03.999Z</time></trkpt><trkpt lat="46.32778193524834" lon="12.469200810618151"><ele>798.0</ele><time>2026-04-23T09:33:04.999Z</time></trkpt><trkpt lat="46.32782943389368" lon="12.46934884072322"><ele>798.0</ele><time>2026-04-23T09:33:05.999Z</time></trkpt><trkpt lat="46.32788700618231" lon="12.469489803900721"><ele>798.0</ele><time>2026-04-23T09:33:06.999Z</time></trkpt><trkpt lat="46.32795975018945" lon="12.469624377458594"><ele>798.0</ele><time>2026-04-23T09:33:07.999Z</time></trkpt><trkpt lat="46.32801867194063" lon="12.469774308894607"><ele>798.0</ele><time>2026-04-23T09:33:08.999Z</time></trkpt><trkpt lat="46.32807482996463" lon="12.469924097509772"><ele>798.0</ele><time>2026-04-23T09:33:09.999Z</time></trkpt><trkpt lat="46.32813000199455" lon="12.470072004788397"><ele>798.0</ele><time>2026-04-23T09:33:10.999Z</time></trkpt><trkpt lat="46.328170392668646" lon="12.470211167737693"><ele>798.0</ele><time>2026-04-23T09:33:11.999Z</time></trkpt><trkpt lat="46.328199445791604" lon="12.470354529207704"><ele>798.0</ele><time>2026-04-23T09:33:12.999Z</time></trkpt><trkpt lat="46.32822033229905" lon="12.470489888269762"><ele>798.0</ele><time>2026-04-23T09:33:13.999Z</time></trkpt><trkpt lat="46.328238487408846" lon="12.470608270315353"><ele>798.0</ele><time>2026-04-23T09:33:14.999Z</time></trkpt><trkpt lat="46.328262694222346" lon="12.470714380028683"><ele>798.0</ele><time>2026-04-23T09:33:15.999Z</time></trkpt><trkpt lat="46.32829118492267" lon="12.470822632255114"><ele>798.0</ele><time>2026-04-23T09:33:16.999Z</time></trkpt><trkpt lat="46.328346626951216" lon="12.47090656440713"><ele>798.0</ele><time>2026-04-23T09:33:17.999Z</time></trkpt><trkpt lat="46.328409870259335" lon="12.470968814592318"><ele>798.0</ele><time>2026-04-23T09:33:18.999Z</time></trkpt><trkpt lat="46.32849645551169" lon="12.470990577089452"><ele>798.0</ele><time>2026-04-23T09:33:19.999Z</time></trkpt><trkpt lat="46.328575777602644" lon="12.470995739821937"><ele>798.0</ele><time>2026-04-23T09:33:20.999Z</time></trkpt><trkpt lat="46.328657219558316" lon="12.470969147835982"><ele>798.0</ele><time>2026-04-23T09:33:21.999Z</time></trkpt><trkpt lat="46.328727334797364" lon="12.47094272057735"><ele>798.0</ele><time>2026-04-23T09:33:22.999Z</time></trkpt><trkpt lat="46.328808199081024" lon="12.470873109169778"><ele>798.0</ele><time>2026-04-23T09:33:24.999Z</time></trkpt><trkpt lat="46.32887534394258" lon="12.470724277483404"><ele>798.0</ele><time>2026-04-23T09:33:26.999Z</time></trkpt><trkpt lat="46.328982036542214" lon="12.470666251455626"><ele>798.0</ele><time>2026-04-23T09:33:28.999Z</time></trkpt><trkpt lat="46.32905126198575" lon="12.470686652793233"><ele>798.0</ele><time>2026-04-23T09:33:29.999Z</time></trkpt><trkpt lat="46.32912985743741" lon="12.470715286826223"><ele>798.0</ele><time>2026-04-23T09:33:30.999Z</time></trkpt><trkpt lat="46.32922362388539" lon="12.470740884202039"><ele>798.0</ele><time>2026-04-23T09:33:31.999Z</time></trkpt><trkpt lat="46.329318783776465" lon="12.47076325201102"><ele>798.0</ele><time>2026-04-23T09:33:32.999Z</time></trkpt><trkpt lat="46.329416432245964" lon="12.470778465376876"><ele>798.0</ele><time>2026-04-23T09:33:33.999Z</time></trkpt><trkpt lat="46.329511535134436" lon="12.470805456769869"><ele>798.0</ele><time>2026-04-23T09:33:34.998Z</time></trkpt><trkpt lat="46.32960387543897" lon="12.470854134480414"><ele>798.0</ele><time>2026-04-23T09:33:35.998Z</time></trkpt><trkpt lat="46.32968645730862" lon="12.470939483583681"><ele>798.0</ele><time>2026-04-23T09:33:36.998Z</time></trkpt><trkpt lat="46.32976846815784" lon="12.471032576040782"><ele>798.0</ele><time>2026-04-23T09:33:37.998Z</time></trkpt><trkpt lat="46.32985622533689" lon="12.471119230489638"><ele>798.0</ele><time>2026-04-23T09:33:38.998Z</time></trkpt><trkpt lat="46.3299580478383" lon="12.471173435061147"><ele>798.0</ele><time>2026-04-23T09:33:39.998Z</time></trkpt><trkpt lat="46.33005629340183" lon="12.4712265820783"><ele>798.0</ele><time>2026-04-23T09:33:40.998Z</time></trkpt><trkpt lat="46.33015492329543" lon="12.471274865223382"><ele>798.0</ele><time>2026-04-23T09:33:41.998Z</time></trkpt><trkpt lat="46.33024702309642" lon="12.471339030738639"><ele>798.0</ele><time>2026-04-23T09:33:42.998Z</time></trkpt><trkpt lat="46.33033819554331" lon="12.47140253274073"><ele>798.0</ele><time>2026-04-23T09:33:43.998Z</time></trkpt><trkpt lat="46.33041941540125" lon="12.471461469297095"><ele>798.0</ele><time>2026-04-23T09:33:44.998Z</time></trkpt><trkpt lat="46.330489832431425" lon="12.471521943171275"><ele>798.0</ele><time>2026-04-23T09:33:45.998Z</time></trkpt><trkpt lat="46.33055920419394" lon="12.471585059656146"><ele>798.0</ele><time>2026-04-23T09:33:46.998Z</time></trkpt><trkpt lat="46.33063330350889" lon="12.471652221834084"><ele>798.0</ele><time>2026-04-23T09:33:47.998Z</time></trkpt><trkpt lat="46.330711200712194" lon="12.471723556629506"><ele>798.0</ele><time>2026-04-23T09:33:48.998Z</time></trkpt><trkpt lat="46.330794335515236" lon="12.47179191158408"><ele>798.0</ele><time>2026-04-23T09:33:49.998Z</time></trkpt><trkpt lat="46.33089078999091" lon="12.47185507160242"><ele>798.0</ele><time>2026-04-23T09:33:50.998Z</time></trkpt><trkpt lat="46.33099029308088" lon="12.471911243929952"><ele>798.0</ele><time>2026-04-23T09:33:51.998Z</time></trkpt><trkpt lat="46.33109956853695" lon="12.471937263006799"><ele>798.0</ele><time>2026-04-23T09:33:52.998Z</time></trkpt><trkpt lat="46.33121974798502" lon="12.471946903115377"><ele>798.0</ele><time>2026-04-23T09:33:53.998Z</time></trkpt><trkpt lat="46.33134582181509" lon="12.471971449229141"><ele>798.0</ele><time>2026-04-23T09:33:55Z</time></trkpt><trkpt lat="46.331458727195766" lon="12.472002887722908"><ele>798.0</ele><time>2026-04-23T09:33:56Z</time></trkpt><trkpt lat="46.3315588091621" lon="12.472060264002447"><ele>798.0</ele><time>2026-04-23T09:33:57Z</time></trkpt><trkpt lat="46.3316525576331" lon="12.472129200435333"><ele>798.0</ele><time>2026-04-23T09:33:58Z</time></trkpt><trkpt lat="46.33174613907586" lon="12.472207855613219"><ele>798.0</ele><time>2026-04-23T09:33:59Z</time></trkpt><trkpt lat="46.331844849029984" lon="12.472297662356212"><ele>798.0</ele><time>2026-04-23T09:34:00Z</time></trkpt><trkpt lat="46.33194265990111" lon="12.472383907238699"><ele>798.0</ele><time>2026-04-23T09:34:01Z</time></trkpt><trkpt lat="46.33205317912562" lon="12.472440432790812"><ele>798.0</ele><time>2026-04-23T09:34:02Z</time></trkpt><trkpt lat="46.332168473547966" lon="12.472482828517643"><ele>798.0</ele><time>2026-04-23T09:34:03Z</time></trkpt><trkpt lat="46.332283807036156" lon="12.472514067715368"><ele>798.0</ele><time>2026-04-23T09:34:04Z</time></trkpt><trkpt lat="46.33238856450534" lon="12.472561395066254"><ele>798.0</ele><time>2026-04-23T09:34:05Z</time></trkpt><trkpt lat="46.3324811130606" lon="12.472633830223689"><ele>798.0</ele><time>2026-04-23T09:34:06Z</time></trkpt><trkpt lat="46.33255824307012" lon="12.472726605465335"><ele>798.0</ele><time>2026-04-23T09:34:07Z</time></trkpt><trkpt lat="46.33262877589634" lon="12.4728179239611"><ele>798.0</ele><time>2026-04-23T09:34:08Z</time></trkpt><trkpt lat="46.3327117414312" lon="12.472885856434681"><ele>798.0</ele><time>2026-04-23T09:34:09Z</time></trkpt><trkpt lat="46.332798589515036" lon="12.472950127707916"><ele>798.0</ele><time>2026-04-23T09:34:10Z</time></trkpt><trkpt lat="46.33287233179871" lon="12.473020887940347"><ele>798.0</ele><time>2026-04-23T09:34:11Z</time></trkpt><trkpt lat="46.332926376589725" lon="12.47310171047251"><ele>798.0</ele><time>2026-04-23T09:34:12Z</time></trkpt><trkpt lat="46.332977411403164" lon="12.473195209065052"><ele>798.0</ele><time>2026-04-23T09:34:13Z</time></trkpt><trkpt lat="46.33302419835469" lon="12.473301064557484"><ele>798.0</ele><time>2026-04-23T09:34:14Z</time></trkpt><trkpt lat="46.33306335633315" lon="12.473412414779318"><ele>798.0</ele><time>2026-04-23T09:34:15Z</time></trkpt><trkpt lat="46.333099378255355" lon="12.473527471023159"><ele>798.0</ele><time>2026-04-23T09:34:16Z</time></trkpt><trkpt lat="46.333144401284045" lon="12.473641670171935"><ele>798.0</ele><time>2026-04-23T09:34:17Z</time></trkpt><trkpt lat="46.33319837536144" lon="12.473750313407892"><ele>798.0</ele><time>2026-04-23T09:34:18Z</time></trkpt><trkpt lat="46.33325221713194" lon="12.473858527430451"><ele>798.0</ele><time>2026-04-23T09:34:19Z</time></trkpt><trkpt lat="46.33329051602286" lon="12.473965406754175"><ele>798.0</ele><time>2026-04-23T09:34:20Z</time></trkpt><trkpt lat="46.333314817323156" lon="12.474072420086394"><ele>798.0</ele><time>2026-04-23T09:34:21Z</time></trkpt><trkpt lat="46.33334576560856" lon="12.47419458019711"><ele>798.0</ele><time>2026-04-23T09:34:22Z</time></trkpt><trkpt lat="46.33337986254047" lon="12.474307310194659"><ele>798.0</ele><time>2026-04-23T09:34:23Z</time></trkpt><trkpt lat="46.33341894731482" lon="12.474398585532915"><ele>798.0</ele><time>2026-04-23T09:34:24Z</time></trkpt><trkpt lat="46.333471400552725" lon="12.474456615892693"><ele>798.0</ele><time>2026-04-23T09:34:25Z</time></trkpt><trkpt lat="46.33356852354239" lon="12.474483217329848"><ele>798.0</ele><time>2026-04-23T09:34:27Z</time></trkpt><trkpt lat="46.33371365882692" lon="12.47449004819147"><ele>798.0</ele><time>2026-04-23T09:34:29Z</time></trkpt><trkpt lat="46.333812355625916" lon="12.474490652173264"><ele>798.0</ele><time>2026-04-23T09:34:30Z</time></trkpt><trkpt lat="46.33391876702033" lon="12.474468066386573"><ele>798.0</ele><time>2026-04-23T09:34:31Z</time></trkpt><trkpt lat="46.334020017140155" lon="12.474433910956977"><ele>798.0</ele><time>2026-04-23T09:34:32Z</time></trkpt><trkpt lat="46.334114862735575" lon="12.474389004110515"><ele>798.0</ele><time>2026-04-23T09:34:33Z</time></trkpt><trkpt lat="46.334191272652475" lon="12.474334140329077"><ele>798.0</ele><time>2026-04-23T09:34:33.999Z</time></trkpt><trkpt lat="46.33425219379815" lon="12.47428265291559"><ele>798.0</ele><time>2026-04-23T09:34:34.999Z</time></trkpt><trkpt lat="46.33432180056165" lon="12.474243776167059"><ele>798.0</ele><time>2026-04-23T09:34:35.999Z</time></trkpt><trkpt lat="46.33439814077184" lon="12.474255866854914"><ele>798.0</ele><time>2026-04-23T09:34:36.999Z</time></trkpt><trkpt lat="46.334475590485106" lon="12.474291236747009"><ele>798.0</ele><time>2026-04-23T09:34:37.999Z</time></trkpt><trkpt lat="46.33453760700138" lon="12.474315749152831"><ele>798.0</ele><time>2026-04-23T09:34:38.999Z</time></trkpt><trkpt lat="46.33465475627443" lon="12.474257797518968"><ele>798.0</ele><time>2026-04-23T09:34:40.999Z</time></trkpt><trkpt lat="46.334721327599794" lon="12.474194460671075"><ele>798.0</ele><time>2026-04-23T09:34:41.999Z</time></trkpt><trkpt lat="46.33480414922531" lon="12.474143451728043"><ele>798.0</ele><time>2026-04-23T09:34:42.999Z</time></trkpt><trkpt lat="46.33490194137115" lon="12.47410208651852"><ele>798.0</ele><time>2026-04-23T09:34:43.999Z</time></trkpt><trkpt lat="46.33500081889844" lon="12.474064375016162"><ele>798.0</ele><time>2026-04-23T09:34:44.999Z</time></trkpt><trkpt lat="46.33510223224181" lon="12.473997428473425"><ele>798.0</ele><time>2026-04-23T09:34:45.999Z</time></trkpt><trkpt lat="46.33520778320726" lon="12.473888882789103"><ele>798.0</ele><time>2026-04-23T09:34:46.999Z</time></trkpt><trkpt lat="46.33531751867982" lon="12.473761875550052"><ele>798.0</ele><time>2026-04-23T09:34:47.999Z</time></trkpt><trkpt lat="46.335431492815" lon="12.473647880518174"><ele>798.0</ele><time>2026-04-23T09:34:48.999Z</time></trkpt><trkpt lat="46.33552628417521" lon="12.473547756100723"><ele>798.0</ele><time>2026-04-23T09:34:49.999Z</time></trkpt><trkpt lat="46.33562015624418" lon="12.473453122738938"><ele>798.0</ele><time>2026-04-23T09:34:50.999Z</time></trkpt><trkpt lat="46.3357274592834" lon="12.47337000656528"><ele>798.0</ele><time>2026-04-23T09:34:51.999Z</time></trkpt><trkpt lat="46.33584581848774" lon="12.473332406098358"><ele>798.0</ele><time>2026-04-23T09:34:52.999Z</time></trkpt><trkpt lat="46.335961363810995" lon="12.473321041680155"><ele>798.0</ele><time>2026-04-23T09:34:53.999Z</time></trkpt><trkpt lat="46.33607981329751" lon="12.473327445221425"><ele>798.0</ele><time>2026-04-23T09:34:54.999Z</time></trkpt><trkpt lat="46.33620729388823" lon="12.47331217005029"><ele>798.0</ele><time>2026-04-23T09:34:55.999Z</time></trkpt><trkpt lat="46.33634147508052" lon="12.473283994199047"><ele>798.0</ele><time>2026-04-23T09:34:56.999Z</time></trkpt><trkpt lat="46.33647434935433" lon="12.473250148040817"><ele>798.0</ele><time>2026-04-23T09:34:57.999Z</time></trkpt><trkpt lat="46.33660220437707" lon="12.473207029825073"><ele>798.0</ele><time>2026-04-23T09:34:58.999Z</time></trkpt><trkpt lat="46.336713186751375" lon="12.473157792416332"><ele>798.0</ele><time>2026-04-23T09:34:59.999Z</time></trkpt><trkpt lat="46.33681343017621" lon="12.473132678748007"><ele>798.0</ele><time>2026-04-23T09:35:00.999Z</time></trkpt><trkpt lat="46.33691815046363" lon="12.47313928023929"><ele>798.0</ele><time>2026-04-23T09:35:01.999Z</time></trkpt><trkpt lat="46.337027631126375" lon="12.473141702496774"><ele>798.0</ele><time>2026-04-23T09:35:02.999Z</time></trkpt><trkpt lat="46.33714556065619" lon="12.473100509343869"><ele>798.0</ele><time>2026-04-23T09:35:03.999Z</time></trkpt><trkpt lat="46.337230601278" lon="12.473038464522324"><ele>798.0</ele><time>2026-04-23T09:35:04.999Z</time></trkpt><trkpt lat="46.33730152999484" lon="12.472947704336178"><ele>798.0</ele><time>2026-04-23T09:35:05.999Z</time></trkpt><trkpt lat="46.3373533523094" lon="12.472848238916784"><ele>798.0</ele><time>2026-04-23T09:35:06.999Z</time></trkpt><trkpt lat="46.33740940176154" lon="12.47278067716565"><ele>798.0</ele><time>2026-04-23T09:35:07.999Z</time></trkpt><trkpt lat="46.33748202596097" lon="12.472770360894991"><ele>798.0</ele><time>2026-04-23T09:35:08.999Z</time></trkpt><trkpt lat="46.33756977110016" lon="12.47281704783224"><ele>798.0</ele><time>2026-04-23T09:35:09.999Z</time></trkpt><trkpt lat="46.337669500907545" lon="12.472886651854722"><ele>798.0</ele><time>2026-04-23T09:35:10.999Z</time></trkpt><trkpt lat="46.337792866866934" lon="12.472946674676383"><ele>798.0</ele><time>2026-04-23T09:35:11.999Z</time></trkpt><trkpt lat="46.33792548112536" lon="12.472998608652487"><ele>798.0</ele><time>2026-04-23T09:35:12.999Z</time></trkpt><trkpt lat="46.33803339771917" lon="12.47304610418622"><ele>798.0</ele><time>2026-04-23T09:35:13.999Z</time></trkpt><trkpt lat="46.33811777923706" lon="12.473091892396358"><ele>798.0</ele><time>2026-04-23T09:35:14.999Z</time></trkpt><trkpt lat="46.3382093196493" lon="12.473112549944117"><ele>798.0</ele><time>2026-04-23T09:35:15.999Z</time></trkpt><trkpt lat="46.33832130450132" lon="12.473137654078197"><ele>798.0</ele><time>2026-04-23T09:35:16.999Z</time></trkpt><trkpt lat="46.33842539522619" lon="12.473216693694205"><ele>798.0</ele><time>2026-04-23T09:35:17.999Z</time></trkpt><trkpt lat="46.33850809216641" lon="12.473330154132881"><ele>798.0</ele><time>2026-04-23T09:35:18.999Z</time></trkpt><trkpt lat="46.33858436811536" lon="12.473463506815213"><ele>798.0</ele><time>2026-04-23T09:35:19.999Z</time></trkpt><trkpt lat="46.33866160327803" lon="12.473593515321369"><ele>798.0</ele><time>2026-04-23T09:35:20.999Z</time></trkpt><trkpt lat="46.33874565353628" lon="12.473723816261758"><ele>798.0</ele><time>2026-04-23T09:35:21.999Z</time></trkpt><trkpt lat="46.33884556471228" lon="12.473826184826917"><ele>798.0</ele><time>2026-04-23T09:35:22.999Z</time></trkpt><trkpt lat="46.3389510075349" lon="12.473908739359452"><ele>798.0</ele><time>2026-04-23T09:35:23.999Z</time></trkpt><trkpt lat="46.33903653458505" lon="12.474005077487462"><ele>798.0</ele><time>2026-04-23T09:35:24.999Z</time></trkpt><trkpt lat="46.3390894564412" lon="12.47408386215934"><ele>798.0</ele><time>2026-04-23T09:35:25.999Z</time></trkpt><trkpt lat="46.339142741254776" lon="12.474135633573972"><ele>798.0</ele><time>2026-04-23T09:35:26.999Z</time></trkpt><trkpt lat="46.33921727903124" lon="12.474184729629023"><ele>798.0</ele><time>2026-04-23T09:35:27.999Z</time></trkpt><trkpt lat="46.339312623164595" lon="12.474234290581835"><ele>798.0</ele><time>2026-04-23T09:35:28.999Z</time></trkpt><trkpt lat="46.33939882713261" lon="12.474292659222474"><ele>798.0</ele><time>2026-04-23T09:35:29.999Z</time></trkpt><trkpt lat="46.339493845605354" lon="12.474352597203902"><ele>798.0</ele><time>2026-04-23T09:35:30.999Z</time></trkpt><trkpt lat="46.33959863857312" lon="12.474398356279996"><ele>798.0</ele><time>2026-04-23T09:35:31.999Z</time></trkpt><trkpt lat="46.33969637275044" lon="12.474454266956247"><ele>798.0</ele><time>2026-04-23T09:35:32.999Z</time></trkpt><trkpt lat="46.339779227444346" lon="12.474472908232174"><ele>798.0</ele><time>2026-04-23T09:35:33.999Z</time></trkpt><trkpt lat="46.33985640608276" lon="12.47448963598545"><ele>798.0</ele><time>2026-04-23T09:35:34.999Z</time></trkpt><trkpt lat="46.339953982359205" lon="12.47446657319522"><ele>798.0</ele><time>2026-04-23T09:35:35.999Z</time></trkpt><trkpt lat="46.34006264147138" lon="12.4744211767942"><ele>798.0</ele><time>2026-04-23T09:35:36.999Z</time></trkpt><trkpt lat="46.34017380662394" lon="12.474374923614674"><ele>798.0</ele><time>2026-04-23T09:35:37.999Z</time></trkpt><trkpt lat="46.34027977988292" lon="12.474318097324"><ele>798.0</ele><time>2026-04-23T09:35:38.999Z</time></trkpt><trkpt lat="46.34038931977003" lon="12.474239498569048"><ele>798.0</ele><time>2026-04-23T09:35:39.998Z</time></trkpt><trkpt lat="46.340506309291115" lon="12.474175130299201"><ele>798.0</ele><time>2026-04-23T09:35:40.998Z</time></trkpt><trkpt lat="46.3406332099607" lon="12.474155157586566"><ele>798.0</ele><time>2026-04-23T09:35:41.998Z</time></trkpt><trkpt lat="46.34074916612778" lon="12.474161749358366"><ele>798.0</ele><time>2026-04-23T09:35:42.998Z</time></trkpt><trkpt lat="46.340858927651354" lon="12.474153572811112"><ele>798.0</ele><time>2026-04-23T09:35:43.998Z</time></trkpt><trkpt lat="46.34096533828212" lon="12.474115210301067"><ele>798.0</ele><time>2026-04-23T09:35:44.998Z</time></trkpt><trkpt lat="46.34107119023167" lon="12.474073292313578"><ele>798.0</ele><time>2026-04-23T09:35:45.998Z</time></trkpt><trkpt lat="46.34119095738669" lon="12.474054693388519"><ele>798.0</ele><time>2026-04-23T09:35:46.998Z</time></trkpt><trkpt lat="46.34130687179724" lon="12.474047369549718"><ele>798.0</ele><time>2026-04-23T09:35:47.998Z</time></trkpt><trkpt lat="46.34142386718838" lon="12.474034952749049"><ele>798.0</ele><time>2026-04-23T09:35:48.998Z</time></trkpt><trkpt lat="46.34153933927013" lon="12.474019211423474"><ele>798.0</ele><time>2026-04-23T09:35:49.998Z</time></trkpt><trkpt lat="46.34165638240697" lon="12.473983767151772"><ele>798.0</ele><time>2026-04-23T09:35:50.998Z</time></trkpt><trkpt lat="46.341774096479554" lon="12.47394409308862"><ele>798.0</ele><time>2026-04-23T09:35:51.998Z</time></trkpt><trkpt lat="46.3418894900148" lon="12.473898779420585"><ele>798.0</ele><time>2026-04-23T09:35:52.998Z</time></trkpt><trkpt lat="46.34200268404792" lon="12.47384320673437"><ele>798.0</ele><time>2026-04-23T09:35:53.998Z</time></trkpt><trkpt lat="46.342112846205225" lon="12.473802342782182"><ele>798.0</ele><time>2026-04-23T09:35:54.998Z</time></trkpt><trkpt lat="46.34223505354539" lon="12.473737813327787"><ele>798.0</ele><time>2026-04-23T09:35:55.998Z</time></trkpt><trkpt lat="46.342345781760464" lon="12.473686239933459"><ele>798.0</ele><time>2026-04-23T09:35:56.998Z</time></trkpt><trkpt lat="46.34245829420257" lon="12.473626258909986"><ele>798.0</ele><time>2026-04-23T09:35:57.998Z</time></trkpt><trkpt lat="46.34256607668261" lon="12.473557680883241"><ele>798.0</ele><time>2026-04-23T09:35:58.998Z</time></trkpt><trkpt lat="46.3426690433753" lon="12.473502337644897"><ele>798.0</ele><time>2026-04-23T09:35:59.998Z</time></trkpt><trkpt lat="46.34275475444409" lon="12.473469776945327"><ele>798.0</ele><time>2026-04-23T09:36:01Z</time></trkpt><trkpt lat="46.34282528039216" lon="12.473441724562624"><ele>798.0</ele><time>2026-04-23T09:36:02Z</time></trkpt><trkpt lat="46.342895786556554" lon="12.473391761883368"><ele>798.0</ele><time>2026-04-23T09:36:03Z</time></trkpt><trkpt lat="46.342971085693094" lon="12.473313388837887"><ele>798.0</ele><time>2026-04-23T09:36:04Z</time></trkpt><trkpt lat="46.34305716776413" lon="12.473230317650627"><ele>798.0</ele><time>2026-04-23T09:36:05Z</time></trkpt><trkpt lat="46.343138061126616" lon="12.473150885889398"><ele>798.0</ele><time>2026-04-23T09:36:06Z</time></trkpt><trkpt lat="46.34321971644945" lon="12.473061566759679"><ele>798.0</ele><time>2026-04-23T09:36:07Z</time></trkpt><trkpt lat="46.34329329961886" lon="12.472983477735182"><ele>798.0</ele><time>2026-04-23T09:36:08Z</time></trkpt><trkpt lat="46.3433688592671" lon="12.472931249031223"><ele>798.0</ele><time>2026-04-23T09:36:09Z</time></trkpt><trkpt lat="46.34344693164732" lon="12.472904949488665"><ele>798.0</ele><time>2026-04-23T09:36:10Z</time></trkpt><trkpt lat="46.343523238149864" lon="12.472899195797277"><ele>798.0</ele><time>2026-04-23T09:36:11Z</time></trkpt><trkpt lat="46.343598550034656" lon="12.472908622638107"><ele>798.0</ele><time>2026-04-23T09:36:12Z</time></trkpt><trkpt lat="46.34371232947211" lon="12.47290316582799"><ele>798.0</ele><time>2026-04-23T09:36:14Z</time></trkpt><trkpt lat="46.343774994350014" lon="12.472757440537672"><ele>798.0</ele><time>2026-04-23T09:36:16Z</time></trkpt><trkpt lat="46.34376436858456" lon="12.47266260337335"><ele>798.0</ele><time>2026-04-23T09:36:17Z</time></trkpt><trkpt lat="46.34379320392015" lon="12.472571979778296"><ele>798.0</ele><time>2026-04-23T09:36:18Z</time></trkpt><trkpt lat="46.34385182899622" lon="12.472489032055954"><ele>798.0</ele><time>2026-04-23T09:36:19Z</time></trkpt><trkpt lat="46.34392124692432" lon="12.4724140059589"><ele>798.0</ele><time>2026-04-23T09:36:20Z</time></trkpt><trkpt lat="46.34398674128231" lon="12.472340795899887"><ele>798.0</ele><time>2026-04-23T09:36:21Z</time></trkpt><trkpt lat="46.34404315221665" lon="12.47227209012843"><ele>798.0</ele><time>2026-04-23T09:36:22Z</time></trkpt><trkpt lat="46.34408922487302" lon="12.472202232449531"><ele>798.0</ele><time>2026-04-23T09:36:23Z</time></trkpt><trkpt lat="46.344133212114414" lon="12.472136195380264"><ele>798.0</ele><time>2026-04-23T09:36:24Z</time></trkpt><trkpt lat="46.34417788893002" lon="12.472054397848156"><ele>798.0</ele><time>2026-04-23T09:36:25Z</time></trkpt><trkpt lat="46.34422629045702" lon="12.471953360353714"><ele>798.0</ele><time>2026-04-23T09:36:26Z</time></trkpt><trkpt lat="46.344280706252434" lon="12.471852573004588"><ele>798.0</ele><time>2026-04-23T09:36:27Z</time></trkpt><trkpt lat="46.34434102125659" lon="12.471772424871503"><ele>798.0</ele><time>2026-04-23T09:36:28Z</time></trkpt><trkpt lat="46.34440887046955" lon="12.471706166723498"><ele>798.0</ele><time>2026-04-23T09:36:29Z</time></trkpt><trkpt lat="46.34447739716691" lon="12.471657784494196"><ele>798.0</ele><time>2026-04-23T09:36:30Z</time></trkpt><trkpt lat="46.344544995055024" lon="12.471610605622141"><ele>798.0</ele><time>2026-04-23T09:36:31Z</time></trkpt><trkpt lat="46.34459585645286" lon="12.471548346173222"><ele>813.0</ele><time>2026-04-23T09:36:32Z</time></trkpt><trkpt lat="46.344656937628535" lon="12.47150306199819"><ele>828.0</ele><time>2026-04-23T09:36:33Z</time></trkpt><trkpt lat="46.34471579988214" lon="12.47144132106178"><ele>843.0</ele><time>2026-04-23T09:36:34Z</time></trkpt><trkpt lat="46.34477324087079" lon="12.471377804504494"><ele>858.0</ele><time>2026-04-23T09:36:35Z</time></trkpt><trkpt lat="46.34483454087596" lon="12.471326298461587"><ele>873.0</ele><time>2026-04-23T09:36:36Z</time></trkpt><trkpt lat="46.344897310977636" lon="12.47128115949529"><ele>888.0</ele><time>2026-04-23T09:36:37Z</time></trkpt><trkpt lat="46.3449627586706" lon="12.471232275222366"><ele>903.0</ele><time>2026-04-23T09:36:38Z</time></trkpt><trkpt lat="46.345032277449455" lon="12.47118362699477"><ele>903.0</ele><time>2026-04-23T09:36:39Z</time></trkpt><trkpt lat="46.34509805716387" lon="12.471132455038914"><ele>903.0</ele><time>2026-04-23T09:36:40Z</time></trkpt><trkpt lat="46.34515965862877" lon="12.471086515522542"><ele>903.0</ele><time>2026-04-23T09:36:41Z</time></trkpt><trkpt lat="46.34521382560975" lon="12.471020983441795"><ele>903.0</ele><time>2026-04-23T09:36:42Z</time></trkpt><trkpt lat="46.34526317743462" lon="12.47094254466267"><ele>903.0</ele><time>2026-04-23T09:36:42.999Z</time></trkpt><trkpt lat="46.34532171515925" lon="12.47088022855563"><ele>903.0</ele><time>2026-04-23T09:36:43.999Z</time></trkpt><trkpt lat="46.345387179641556" lon="12.470837589842304"><ele>903.0</ele><time>2026-04-23T09:36:44.999Z</time></trkpt><trkpt lat="46.345446097263114" lon="12.470789626923011"><ele>903.0</ele><time>2026-04-23T09:36:45.999Z</time></trkpt><trkpt lat="46.34554138860665" lon="12.470678260939083"><ele>903.0</ele><time>2026-04-23T09:36:47.999Z</time></trkpt><trkpt lat="46.34559179853965" lon="12.470603460837241"><ele>903.0</ele><time>2026-04-23T09:36:48.999Z</time></trkpt><trkpt lat="46.34563868434738" lon="12.470526098960669"><ele>903.0</ele><time>2026-04-23T09:36:49.999Z</time></trkpt><trkpt lat="46.345691920002885" lon="12.470456528307627"><ele>903.0</ele><time>2026-04-23T09:36:50.999Z</time></trkpt><trkpt lat="46.34574695564522" lon="12.470379894567316"><ele>903.0</ele><time>2026-04-23T09:36:51.999Z</time></trkpt><trkpt lat="46.345799683898804" lon="12.470289680212995"><ele>904.3333333333334</ele><time>2026-04-23T09:36:52.999Z</time></trkpt><trkpt lat="46.345851749565114" lon="12.470212185610912"><ele>905.6666666666667</ele><time>2026-04-23T09:36:53.999Z</time></trkpt><trkpt lat="46.345911082753" lon="12.470135986355999"><ele>907.0</ele><time>2026-04-23T09:36:54.999Z</time></trkpt><trkpt lat="46.34596632517712" lon="12.470053287279628"><ele>908.3333333333334</ele><time>2026-04-23T09:36:55.999Z</time></trkpt><trkpt lat="46.34602025332588" lon="12.469964532678329"><ele>909.6666666666667</ele><time>2026-04-23T09:36:56.999Z</time></trkpt><trkpt lat="46.346068695096754" lon="12.469867747852428"><ele>911.0</ele><time>2026-04-23T09:36:57.999Z</time></trkpt><trkpt lat="46.34612063491722" lon="12.469771648405347"><ele>911.0000000000001</ele><time>2026-04-23T09:36:58.999Z</time></trkpt><trkpt lat="46.3461886218709" lon="12.469705766142637"><ele>911.0</ele><time>2026-04-23T09:36:59.999Z</time></trkpt><trkpt lat="46.34626488163048" lon="12.469658090940205"><ele>911.0</ele><time>2026-04-23T09:37:00.999Z</time></trkpt><trkpt lat="46.346340701382275" lon="12.469619984219953"><ele>911.0</ele><time>2026-04-23T09:37:01.999Z</time></trkpt><trkpt lat="46.34641141065784" lon="12.469556806162053"><ele>911.0000000000001</ele><time>2026-04-23T09:37:02.999Z</time></trkpt><trkpt lat="46.34648104525239" lon="12.469479454580128"><ele>911.0</ele><time>2026-04-23T09:37:03.999Z</time></trkpt><trkpt lat="46.34655387542151" lon="12.469414816123418"><ele>912.5000000000001</ele><time>2026-04-23T09:37:04.999Z</time></trkpt><trkpt lat="46.34661988250458" lon="12.469372381590745"><ele>914.0</ele><time>2026-04-23T09:37:05.999Z</time></trkpt><trkpt lat="46.346680865306276" lon="12.469315752755294"><ele>915.5</ele><time>2026-04-23T09:37:06.999Z</time></trkpt><trkpt lat="46.34673705498815" lon="12.469246834564842"><ele>917.0</ele><time>2026-04-23T09:37:07.999Z</time></trkpt><trkpt lat="46.34680001304721" lon="12.469183813242994"><ele>918.5000000000001</ele><time>2026-04-23T09:37:08.999Z</time></trkpt><trkpt lat="46.34687036522228" lon="12.46912423119719"><ele>920.0</ele><time>2026-04-23T09:37:09.999Z</time></trkpt><trkpt lat="46.34694224416587" lon="12.469066255410938"><ele>920.0000000000001</ele><time>2026-04-23T09:37:10.999Z</time></trkpt><trkpt lat="46.34701801633679" lon="12.469018946691065"><ele>920.0</ele><time>2026-04-23T09:37:11.999Z</time></trkpt><trkpt lat="46.347098886587695" lon="12.468991422224349"><ele>920.0</ele><time>2026-04-23T09:37:12.999Z</time></trkpt><trkpt lat="46.34717919922414" lon="12.468965074422956"><ele>920.0</ele><time>2026-04-23T09:37:13.999Z</time></trkpt><trkpt lat="46.34724479109027" lon="12.468914396742859"><ele>920.0000000000001</ele><time>2026-04-23T09:37:14.999Z</time></trkpt><trkpt lat="46.34732137469758" lon="12.468864443137157"><ele>920.0</ele><time>2026-04-23T09:37:15.999Z</time></trkpt><trkpt lat="46.347407971898036" lon="12.468859263736146"><ele>922.2</ele><time>2026-04-23T09:37:16.999Z</time></trkpt><trkpt lat="46.34749439994753" lon="12.468850361029908"><ele>924.4</ele><time>2026-04-23T09:37:17.999Z</time></trkpt><trkpt lat="46.347581609640145" lon="12.468820595560842"><ele>926.5999999999999</ele><time>2026-04-23T09:37:18.999Z</time></trkpt><trkpt lat="46.34766087372628" lon="12.46879455417126"><ele>928.8</ele><time>2026-04-23T09:37:19.999Z</time></trkpt><trkpt lat="46.34772966930749" lon="12.468781686180733"><ele>931.0</ele><time>2026-04-23T09:37:20.999Z</time></trkpt><trkpt lat="46.34786577830648" lon="12.468753146773668"><ele>931.0</ele><time>2026-04-23T09:37:22.999Z</time></trkpt><trkpt lat="46.3479534978939" lon="12.468738328858338"><ele>930.9999999999999</ele><time>2026-04-23T09:37:23.999Z</time></trkpt><trkpt lat="46.348051387936195" lon="12.468724411637194"><ele>930.9999999999999</ele><time>2026-04-23T09:37:24.999Z</time></trkpt><trkpt lat="46.34814748932699" lon="12.468707623822175"><ele>931.0</ele><time>2026-04-23T09:37:25.999Z</time></trkpt><trkpt lat="46.348240773700866" lon="12.46868908063973"><ele>931.0</ele><time>2026-04-23T09:37:26.999Z</time></trkpt><trkpt lat="46.34833448034223" lon="12.468662304243269"><ele>930.9999999999999</ele><time>2026-04-23T09:37:27.999Z</time></trkpt><trkpt lat="46.34842110264903" lon="12.468645410745546"><ele>931.0</ele><time>2026-04-23T09:37:28.999Z</time></trkpt><trkpt lat="46.348494898540295" lon="12.468667307595574"><ele>931.0</ele><time>2026-04-23T09:37:29.999Z</time></trkpt><trkpt lat="46.348573796770545" lon="12.468710717959159"><ele>931.0</ele><time>2026-04-23T09:37:30.999Z</time></trkpt><trkpt lat="46.3486628473314" lon="12.468738440836521"><ele>930.9999999999999</ele><time>2026-04-23T09:37:31.999Z</time></trkpt><trkpt lat="46.34875499786887" lon="12.468736010887634"><ele>931.0</ele><time>2026-04-23T09:37:32.999Z</time></trkpt><trkpt lat="46.34884751571142" lon="12.468728587830975"><ele>930.6666666666666</ele><time>2026-04-23T09:37:33.999Z</time></trkpt><trkpt lat="46.34892779519943" lon="12.468744297543195"><ele>930.3333333333333</ele><time>2026-04-23T09:37:34.999Z</time></trkpt><trkpt lat="46.349002064513094" lon="12.468801730103777"><ele>930.0</ele><time>2026-04-23T09:37:35.999Z</time></trkpt><trkpt lat="46.3490641133476" lon="12.46888253600533"><ele>929.6666666666667</ele><time>2026-04-23T09:37:36.999Z</time></trkpt><trkpt lat="46.34910822024889" lon="12.468958534797212"><ele>929.3333333333334</ele><time>2026-04-23T09:37:37.999Z</time></trkpt><trkpt lat="46.349152615549265" lon="12.469051892210848"><ele>929.0</ele><time>2026-04-23T09:37:38.999Z</time></trkpt><trkpt lat="46.34919166783377" lon="12.469148318475293"><ele>929.8333333333334</ele><time>2026-04-23T09:37:39.999Z</time></trkpt><trkpt lat="46.349230170701404" lon="12.469253238907577"><ele>930.6666666666667</ele><time>2026-04-23T09:37:40.999Z</time></trkpt><trkpt lat="46.34927146386689" lon="12.469358077403596"><ele>931.5</ele><time>2026-04-23T09:37:41.999Z</time></trkpt><trkpt lat="46.34931254944377" lon="12.469459515099357"><ele>932.3333333333333</ele><time>2026-04-23T09:37:42.999Z</time></trkpt><trkpt lat="46.34935396875659" lon="12.469551043393864"><ele>933.1666666666666</ele><time>2026-04-23T09:37:43.999Z</time></trkpt><trkpt lat="46.34939963833713" lon="12.4696194981379"><ele>934.0</ele><time>2026-04-23T09:37:44.999Z</time></trkpt><trkpt lat="46.34947763265882" lon="12.469706263920907"><ele>936.8333333333333</ele><time>2026-04-23T09:37:46.999Z</time></trkpt><trkpt lat="46.34947026505259" lon="12.4698058458287"><ele>939.6666666666666</ele><time>2026-04-23T09:37:55.998Z</time></trkpt><trkpt lat="46.34942580631736" lon="12.469876196411555"><ele>942.5</ele><time>2026-04-23T09:37:57.998Z</time></trkpt><trkpt lat="46.349336022959044" lon="12.469872871844123"><ele>945.3333333333333</ele><time>2026-04-23T09:37:59.998Z</time></trkpt><trkpt lat="46.34923587736887" lon="12.46983829027918"><ele>948.1666666666666</ele><time>2026-04-23T09:38:01.998Z</time></trkpt><trkpt lat="46.34913936128931" lon="12.469814873217127"><ele>951.0</ele><time>2026-04-23T09:38:03.998Z</time></trkpt><trkpt lat="46.34903948143453" lon="12.469763301602631"><ele>951.0</ele><time>2026-04-23T09:38:05.998Z</time></trkpt><trkpt lat="46.348950445390294" lon="12.469712548327351"><ele>951.0</ele><time>2026-04-23T09:38:08Z</time></trkpt><trkpt lat="46.34888191322052" lon="12.469639793257874"><ele>951.0</ele><time>2026-04-23T09:38:10Z</time></trkpt><trkpt lat="46.34881213336221" lon="12.469593432740272"><ele>951.0</ele><time>2026-04-23T09:38:12Z</time></trkpt><trkpt lat="46.34874701961427" lon="12.469663799231567"><ele>951.0</ele><time>2026-04-23T09:38:15Z</time></trkpt><trkpt lat="46.34879582576592" lon="12.46978762663845"><ele>951.0</ele><time>2026-04-23T09:38:18Z</time></trkpt><trkpt lat="46.34887075045742" lon="12.469880028527893"><ele>951.0</ele><time>2026-04-23T09:38:20Z</time></trkpt><trkpt lat="46.34891002862735" lon="12.469986449337108"><ele>951.0</ele><time>2026-04-23T09:38:22Z</time></trkpt><trkpt lat="46.348912999034205" lon="12.470092092190598"><ele>951.0</ele><time>2026-04-23T09:38:24Z</time></trkpt><trkpt lat="46.34890833441959" lon="12.470197080464558"><ele>951.0</ele><time>2026-04-23T09:38:27Z</time></trkpt><trkpt lat="46.34897521563926" lon="12.470193279713182"><ele>951.0</ele><time>2026-04-23T09:38:30Z</time></trkpt><trkpt lat="46.34899592714525" lon="12.470070718571236"><ele>951.0</ele><time>2026-04-23T09:38:33Z</time></trkpt><trkpt lat="46.34906508713108" lon="12.470043061313646"><ele>951.0</ele><time>2026-04-23T09:38:44Z</time></trkpt><trkpt lat="46.349125602534535" lon="12.470110175209646"><ele>951.0</ele><time>2026-04-23T09:38:46Z</time></trkpt><trkpt lat="46.34919108720679" lon="12.470134158591781"><ele>951.0</ele><time>2026-04-23T09:38:48Z</time></trkpt><trkpt lat="46.34929161384636" lon="12.470152740083295"><ele>951.0</ele><time>2026-04-23T09:38:50Z</time></trkpt><trkpt lat="46.34936062099052" lon="12.470165846197997"><ele>951.0</ele><time>2026-04-23T09:38:52Z</time></trkpt><trkpt lat="46.34928848569225" lon="12.47017820534505"><ele>951.0</ele><time>2026-04-23T09:39:19.999Z</time></trkpt><trkpt lat="46.34921334093384" lon="12.470153445475274"><ele>951.0</ele><time>2026-04-23T09:39:22.999Z</time></trkpt><trkpt lat="46.349148152424284" lon="12.470135765618455"><ele>951.0</ele><time>2026-04-23T09:39:24.999Z</time></trkpt><trkpt lat="46.349092232514046" lon="12.470083382153579"><ele>951.0</ele><time>2026-04-23T09:39:26.999Z</time></trkpt><trkpt lat="46.349032150551004" lon="12.470040781670932"><ele>951.0</ele><time>2026-04-23T09:39:28.999Z</time></trkpt><trkpt lat="46.348947519048366" lon="12.469978206115746"><ele>951.0</ele><time>2026-04-23T09:39:31.999Z</time></trkpt><trkpt lat="46.34886226528248" lon="12.469876732128906"><ele>951.0</ele><time>2026-04-23T09:39:34.999Z</time></trkpt><trkpt lat="46.348808108340485" lon="12.469779270211097"><ele>951.0</ele><time>2026-04-23T09:39:36.999Z</time></trkpt><trkpt lat="46.34877892475537" lon="12.469692776680551"><ele>951.0</ele><time>2026-04-23T09:39:38.999Z</time></trkpt><trkpt lat="46.34879667913418" lon="12.469597194182063"><ele>951.0</ele><time>2026-04-23T09:39:41.999Z</time></trkpt><trkpt lat="46.34887464664063" lon="12.46960629492338"><ele>951.0</ele><time>2026-04-23T09:39:44.999Z</time></trkpt><trkpt lat="46.34892668993272" lon="12.469664515938467"><ele>951.0</ele><time>2026-04-23T09:39:46.999Z</time></trkpt><trkpt lat="46.34898966328734" lon="12.469734803623748"><ele>951.0</ele><time>2026-04-23T09:39:48.999Z</time></trkpt><trkpt lat="46.34907829212269" lon="12.469777098033928"><ele>951.0</ele><time>2026-04-23T09:39:50.999Z</time></trkpt><trkpt lat="46.34915945668514" lon="12.469817144294622"><ele>950.9999999999999</ele><time>2026-04-23T09:39:52.999Z</time></trkpt><trkpt lat="46.34925058505333" lon="12.469844735259755"><ele>950.9999999999999</ele><time>2026-04-23T09:39:54.999Z</time></trkpt><trkpt lat="46.34935831446216" lon="12.469860057769171"><ele>951.0</ele><time>2026-04-23T09:39:56.999Z</time></trkpt><trkpt lat="46.349444016205176" lon="12.469828953790266"><ele>951.0</ele><time>2026-04-23T09:39:58.999Z</time></trkpt><trkpt lat="46.34953765693216" lon="12.469769238088174"><ele>951.0</ele><time>2026-04-23T09:40:01.998Z</time></trkpt><trkpt lat="46.349600970319905" lon="12.46979039507722"><ele>951.0</ele><time>2026-04-23T09:40:02.998Z</time></trkpt><trkpt lat="46.34966725887577" lon="12.469842513925494"><ele>951.0</ele><time>2026-04-23T09:40:03.998Z</time></trkpt><trkpt lat="46.34974043905474" lon="12.469879588681476"><ele>951.0</ele><time>2026-04-23T09:40:04.998Z</time></trkpt><trkpt lat="46.34980627640148" lon="12.469900976600558"><ele>951.0</ele><time>2026-04-23T09:40:05.998Z</time></trkpt><trkpt lat="46.34987080787321" lon="12.469916894923504"><ele>951.0</ele><time>2026-04-23T09:40:06.998Z</time></trkpt><trkpt lat="46.34993796383974" lon="12.469935050793769"><ele>951.0</ele><time>2026-04-23T09:40:07.998Z</time></trkpt><trkpt lat="46.350012086294235" lon="12.469945824951544"><ele>949.5</ele><time>2026-04-23T09:40:08.998Z</time></trkpt><trkpt lat="46.35009411535044" lon="12.469958993989485"><ele>948.0</ele><time>2026-04-23T09:40:09.998Z</time></trkpt><trkpt lat="46.35017783533503" lon="12.46998198735706"><ele>946.5</ele><time>2026-04-23T09:40:10.998Z</time></trkpt><trkpt lat="46.35026909471346" lon="12.470007591310997"><ele>945.0</ele><time>2026-04-23T09:40:11.998Z</time></trkpt><trkpt lat="46.35035984187648" lon="12.470035499970393"><ele>943.5</ele><time>2026-04-23T09:40:13Z</time></trkpt><trkpt lat="46.35044945452599" lon="12.470063993153538"><ele>942.0</ele><time>2026-04-23T09:40:14Z</time></trkpt><trkpt lat="46.350539782869454" lon="12.47009419875084"><ele>941.6666666666666</ele><time>2026-04-23T09:40:15Z</time></trkpt><trkpt lat="46.35062963698754" lon="12.470120151310626"><ele>941.3333333333333</ele><time>2026-04-23T09:40:16Z</time></trkpt><trkpt lat="46.350716216797395" lon="12.470142066364176"><ele>941.0</ele><time>2026-04-23T09:40:17Z</time></trkpt><trkpt lat="46.350803160762254" lon="12.470160960113436"><ele>940.6666666666666</ele><time>2026-04-23T09:40:18Z</time></trkpt><trkpt lat="46.350890779222944" lon="12.470176224361815"><ele>940.3333333333333</ele><time>2026-04-23T09:40:19Z</time></trkpt><trkpt lat="46.35098066786696" lon="12.470180874254064"><ele>940.0</ele><time>2026-04-23T09:40:20Z</time></trkpt><trkpt lat="46.35107204405328" lon="12.470172826194855"><ele>940.0</ele><time>2026-04-23T09:40:21Z</time></trkpt><trkpt lat="46.3511654128214" lon="12.470161278710721"><ele>940.0</ele><time>2026-04-23T09:40:22Z</time></trkpt><trkpt lat="46.351258291617064" lon="12.470147594488378"><ele>940.0</ele><time>2026-04-23T09:40:23Z</time></trkpt><trkpt lat="46.351350220895554" lon="12.470123420932731"><ele>940.0</ele><time>2026-04-23T09:40:24Z</time></trkpt><trkpt lat="46.351442735819646" lon="12.47009817321816"><ele>940.0</ele><time>2026-04-23T09:40:25Z</time></trkpt><trkpt lat="46.35153667258259" lon="12.470067745410589"><ele>940.1666666666666</ele><time>2026-04-23T09:40:26Z</time></trkpt><trkpt lat="46.35163043070573" lon="12.470040452503698"><ele>940.3333333333333</ele><time>2026-04-23T09:40:27Z</time></trkpt><trkpt lat="46.35172187918858" lon="12.470015357441124"><ele>940.5</ele><time>2026-04-23T09:40:28Z</time></trkpt><trkpt lat="46.35180589663553" lon="12.46999142294432"><ele>940.6666666666667</ele><time>2026-04-23T09:40:29Z</time></trkpt><trkpt lat="46.35188900157965" lon="12.469962392795958"><ele>940.8333333333334</ele><time>2026-04-23T09:40:30Z</time></trkpt><trkpt lat="46.35197140813436" lon="12.469925035025325"><ele>941.0</ele><time>2026-04-23T09:40:31Z</time></trkpt><trkpt lat="46.35205659994848" lon="12.469882541092687"><ele>941.0000000000001</ele><time>2026-04-23T09:40:32Z</time></trkpt><trkpt lat="46.35213795941508" lon="12.469826666107886"><ele>941.0</ele><time>2026-04-23T09:40:33Z</time></trkpt><trkpt lat="46.35221722912539" lon="12.469764077462028"><ele>941.0</ele><time>2026-04-23T09:40:34Z</time></trkpt><trkpt lat="46.35229419613777" lon="12.469698958308523"><ele>941.0</ele><time>2026-04-23T09:40:35Z</time></trkpt><trkpt lat="46.35236894573975" lon="12.469637423909708"><ele>941.0000000000001</ele><time>2026-04-23T09:40:36Z</time></trkpt><trkpt lat="46.35244751260799" lon="12.469584653160041"><ele>941.0</ele><time>2026-04-23T09:40:37Z</time></trkpt><trkpt lat="46.35253019097242" lon="12.46953466913843"><ele>941.8333333333334</ele><time>2026-04-23T09:40:38Z</time></trkpt><trkpt lat="46.35260982996034" lon="12.469492079690891"><ele>942.6666666666667</ele><time>2026-04-23T09:40:39Z</time></trkpt><trkpt lat="46.35268825721219" lon="12.469453129226153"><ele>943.5</ele><time>2026-04-23T09:40:40Z</time></trkpt><trkpt lat="46.35276834634044" lon="12.469421526956532"><ele>944.3333333333333</ele><time>2026-04-23T09:40:41Z</time></trkpt><trkpt lat="46.35285450475078" lon="12.469399179494388"><ele>945.1666666666666</ele><time>2026-04-23T09:40:42Z</time></trkpt><trkpt lat="46.352938750634245" lon="12.469402751218295"><ele>946.0</ele><time>2026-04-23T09:40:43Z</time></trkpt><trkpt lat="46.35302689897671" lon="12.469418706148621"><ele>946.1999999999999</ele><time>2026-04-23T09:40:44Z</time></trkpt><trkpt lat="46.35311446255876" lon="12.46944758763478"><ele>946.3999999999999</ele><time>2026-04-23T09:40:45Z</time></trkpt><trkpt lat="46.35320372776966" lon="12.469473668934086"><ele>946.6</ele><time>2026-04-23T09:40:46Z</time></trkpt><trkpt lat="46.35329709108895" lon="12.46950260804985"><ele>946.8</ele><time>2026-04-23T09:40:47Z</time></trkpt><trkpt lat="46.353389049484164" lon="12.469541437353698"><ele>947.0</ele><time>2026-04-23T09:40:48Z</time></trkpt><trkpt lat="46.35348070367375" lon="12.469589126316551"><ele>949.8</ele><time>2026-04-23T09:40:49Z</time></trkpt><trkpt lat="46.35357053099604" lon="12.46963394728653"><ele>952.6</ele><time>2026-04-23T09:40:50Z</time></trkpt><trkpt lat="46.35366244019224" lon="12.469660938428909"><ele>955.3999999999999</ele><time>2026-04-23T09:40:51Z</time></trkpt><trkpt lat="46.3537493758813" lon="12.469718862761557"><ele>958.1999999999999</ele><time>2026-04-23T09:40:52Z</time></trkpt><trkpt lat="46.35383650940555" lon="12.469759611669135"><ele>961.0</ele><time>2026-04-23T09:40:53Z</time></trkpt><trkpt lat="46.353913575738886" lon="12.469799028363518"><ele>961.3333333333333</ele><time>2026-04-23T09:40:54Z</time></trkpt><trkpt lat="46.353997256298754" lon="12.469845981064571"><ele>961.6666666666666</ele><time>2026-04-23T09:40:55Z</time></trkpt><trkpt lat="46.35408180309822" lon="12.46987183570846"><ele>962.0</ele><time>2026-04-23T09:40:56Z</time></trkpt><trkpt lat="46.35415572404394" lon="12.469893326974226"><ele>962.3333333333333</ele><time>2026-04-23T09:40:56.999Z</time></trkpt><trkpt lat="46.35423326477221" lon="12.469891262672686"><ele>962.6666666666666</ele><time>2026-04-23T09:40:57.999Z</time></trkpt><trkpt lat="46.35430139925118" lon="12.469858430202873"><ele>963.0</ele><time>2026-04-23T09:40:58.999Z</time></trkpt><trkpt lat="46.3543744138117" lon="12.46983440933862"><ele>963.0000000000001</ele><time>2026-04-23T09:40:59.999Z</time></trkpt><trkpt lat="46.35444152764513" lon="12.469815741949782"><ele>963.0</ele><time>2026-04-23T09:41:00.999Z</time></trkpt><trkpt lat="46.35451428895395" lon="12.469803915203327"><ele>963.0000000000001</ele><time>2026-04-23T09:41:01.999Z</time></trkpt><trkpt lat="46.35458993238628" lon="12.469796533984177"><ele>963.0000000000001</ele><time>2026-04-23T09:41:02.999Z</time></trkpt><trkpt lat="46.354662816617" lon="12.469807841542442"><ele>963.0</ele><time>2026-04-23T09:41:03.999Z</time></trkpt><trkpt lat="46.35472958111968" lon="12.469841921332145"><ele>963.0000000000001</ele><time>2026-04-23T09:41:04.999Z</time></trkpt><trkpt lat="46.35479094328676" lon="12.469890545284434"><ele>963.0000000000001</ele><time>2026-04-23T09:41:05.999Z</time></trkpt><trkpt lat="46.354858119381916" lon="12.469943559682672"><ele>964.0</ele><time>2026-04-23T09:41:06.999Z</time></trkpt><trkpt lat="46.354929443463526" lon="12.469987645810406"><ele>965.0</ele><time>2026-04-23T09:41:07.999Z</time></trkpt><trkpt lat="46.35501486567791" lon="12.470011546840192"><ele>966.0</ele><time>2026-04-23T09:41:08.999Z</time></trkpt><trkpt lat="46.35510875544129" lon="12.470018430895294"><ele>967.0</ele><time>2026-04-23T09:41:09.999Z</time></trkpt><trkpt lat="46.35520270880619" lon="12.470046754163963"><ele>968.0</ele><time>2026-04-23T09:41:10.999Z</time></trkpt><trkpt lat="46.355290868683284" lon="12.470086943735819"><ele>969.0</ele><time>2026-04-23T09:41:11.999Z</time></trkpt><trkpt lat="46.35538101150302" lon="12.470116707681658"><ele>969.0</ele><time>2026-04-23T09:41:12.999Z</time></trkpt><trkpt lat="46.355481266384025" lon="12.47011929276237"><ele>969.0000000000001</ele><time>2026-04-23T09:41:13.999Z</time></trkpt><trkpt lat="46.35557924907383" lon="12.470104718482768"><ele>969.0000000000001</ele><time>2026-04-23T09:41:14.999Z</time></trkpt><trkpt lat="46.35567284215916" lon="12.470084522466623"><ele>969.0</ele><time>2026-04-23T09:41:15.999Z</time></trkpt><trkpt lat="46.355766749107225" lon="12.470083946458805"><ele>969.0</ele><time>2026-04-23T09:41:16.999Z</time></trkpt><trkpt lat="46.35585714316368" lon="12.470089332330259"><ele>969.3333333333334</ele><time>2026-04-23T09:41:17.999Z</time></trkpt><trkpt lat="46.35594077730493" lon="12.470077716299576"><ele>969.6666666666667</ele><time>2026-04-23T09:41:18.999Z</time></trkpt><trkpt lat="46.35602797523513" lon="12.470061186003797"><ele>970.0</ele><time>2026-04-23T09:41:19.999Z</time></trkpt><trkpt lat="46.35611556527612" lon="12.470080562016628"><ele>970.3333333333334</ele><time>2026-04-23T09:41:20.999Z</time></trkpt><trkpt lat="46.356202830539175" lon="12.470106219051116"><ele>970.6666666666667</ele><time>2026-04-23T09:41:21.999Z</time></trkpt><trkpt lat="46.356288744177924" lon="12.470113414256785"><ele>971.0</ele><time>2026-04-23T09:41:22.999Z</time></trkpt><trkpt lat="46.35637477117056" lon="12.470101625644888"><ele>972.1999999999999</ele><time>2026-04-23T09:41:23.999Z</time></trkpt><trkpt lat="46.356465862480285" lon="12.470104893021194"><ele>973.3999999999999</ele><time>2026-04-23T09:41:24.999Z</time></trkpt><trkpt lat="46.35655838686963" lon="12.470126155382706"><ele>974.6</ele><time>2026-04-23T09:41:25.999Z</time></trkpt><trkpt lat="46.35664446421319" lon="12.47016410968608"><ele>975.8</ele><time>2026-04-23T09:41:26.999Z</time></trkpt><trkpt lat="46.35673194334285" lon="12.470211444942239"><ele>977.0</ele><time>2026-04-23T09:41:27.999Z</time></trkpt><trkpt lat="46.3568208062849" lon="12.470255455310618"><ele>977.0000000000001</ele><time>2026-04-23T09:41:28.999Z</time></trkpt><trkpt lat="46.35690239812387" lon="12.470289265176104"><ele>977.0</ele><time>2026-04-23T09:41:29.999Z</time></trkpt><trkpt lat="46.35698449079062" lon="12.470326492130557"><ele>977.0</ele><time>2026-04-23T09:41:30.999Z</time></trkpt><trkpt lat="46.357066387588" lon="12.47036904216502"><ele>977.0</ele><time>2026-04-23T09:41:31.999Z</time></trkpt><trkpt lat="46.35714216117581" lon="12.47042252118476"><ele>977.0000000000001</ele><time>2026-04-23T09:41:32.999Z</time></trkpt><trkpt lat="46.35721418810302" lon="12.470479016096204"><ele>977.0</ele><time>2026-04-23T09:41:33.999Z</time></trkpt><trkpt lat="46.3572840647962" lon="12.470538248794911"><ele>980.1666666666667</ele><time>2026-04-23T09:41:34.999Z</time></trkpt><trkpt lat="46.357352849358485" lon="12.470595972118351"><ele>983.3333333333334</ele><time>2026-04-23T09:41:35.999Z</time></trkpt><trkpt lat="46.357418826828805" lon="12.470646666112145"><ele>986.5</ele><time>2026-04-23T09:41:36.999Z</time></trkpt><trkpt lat="46.357480024684214" lon="12.470685080132807"><ele>989.6666666666667</ele><time>2026-04-23T09:41:37.999Z</time></trkpt><trkpt lat="46.35759273970048" lon="12.470723755500204"><ele>992.8333333333334</ele><time>2026-04-23T09:41:39.999Z</time></trkpt><trkpt lat="46.35765384038486" lon="12.470747837323218"><ele>996.0</ele><time>2026-04-23T09:41:40.999Z</time></trkpt><trkpt lat="46.35771804906694" lon="12.470770292246781"><ele>996.0</ele><time>2026-04-23T09:41:41.999Z</time></trkpt><trkpt lat="46.35778144944258" lon="12.47080823119953"><ele>995.9999999999999</ele><time>2026-04-23T09:41:42.999Z</time></trkpt><trkpt lat="46.3578378666044" lon="12.470850471675206"><ele>996.0</ele><time>2026-04-23T09:41:43.999Z</time></trkpt><trkpt lat="46.357895645487126" lon="12.47089968584887"><ele>996.0</ele><time>2026-04-23T09:41:44.999Z</time></trkpt><trkpt lat="46.357946467376244" lon="12.470955985835324"><ele>995.9999999999999</ele><time>2026-04-23T09:41:45.999Z</time></trkpt><trkpt lat="46.357998815428466" lon="12.47100713203197"><ele>996.0</ele><time>2026-04-23T09:41:46.999Z</time></trkpt><trkpt lat="46.358055568471315" lon="12.471049813865843"><ele>996.0</ele><time>2026-04-23T09:41:47.999Z</time></trkpt><trkpt lat="46.358166733433016" lon="12.47107474213949"><ele>994.3333333333334</ele><time>2026-04-23T09:41:49.999Z</time></trkpt><trkpt lat="46.35827417465993" lon="12.471016777216958"><ele>992.6666666666667</ele><time>2026-04-23T09:41:51.999Z</time></trkpt><trkpt lat="46.35834614638784" lon="12.470985249890974"><ele>991.0</ele><time>2026-04-23T09:41:52.999Z</time></trkpt><trkpt lat="46.35841905192659" lon="12.470958110390924"><ele>989.3333333333334</ele><time>2026-04-23T09:41:53.999Z</time></trkpt><trkpt lat="46.358492524647595" lon="12.470915205958326"><ele>987.6666666666667</ele><time>2026-04-23T09:41:54.999Z</time></trkpt><trkpt lat="46.35856025031705" lon="12.470874292947354"><ele>986.0</ele><time>2026-04-23T09:41:55.999Z</time></trkpt><trkpt lat="46.35863023944178" lon="12.470831039523798"><ele>986.0000000000001</ele><time>2026-04-23T09:41:56.999Z</time></trkpt><trkpt lat="46.35869705470831" lon="12.470794721820464"><ele>986.0</ele><time>2026-04-23T09:41:57.999Z</time></trkpt><trkpt lat="46.35876217183926" lon="12.470756297337795"><ele>986.0</ele><time>2026-04-23T09:41:58.999Z</time></trkpt><trkpt lat="46.35883801058858" lon="12.47071086162057"><ele>986.0</ele><time>2026-04-23T09:41:59.999Z</time></trkpt><trkpt lat="46.35891543212014" lon="12.470673914221287"><ele>986.0000000000001</ele><time>2026-04-23T09:42:00.999Z</time></trkpt><trkpt lat="46.35899350430434" lon="12.470638545392944"><ele>986.0</ele><time>2026-04-23T09:42:01.998Z</time></trkpt><trkpt lat="46.3590641895245" lon="12.470602231903085"><ele>986.3333333333334</ele><time>2026-04-23T09:42:02.998Z</time></trkpt><trkpt lat="46.359135996699806" lon="12.470563120300817"><ele>986.6666666666667</ele><time>2026-04-23T09:42:03.998Z</time></trkpt><trkpt lat="46.35921068815804" lon="12.47052493768745"><ele>987.0</ele><time>2026-04-23T09:42:04.998Z</time></trkpt><trkpt lat="46.35927841806778" lon="12.470493260818028"><ele>987.3333333333333</ele><time>2026-04-23T09:42:05.998Z</time></trkpt><trkpt lat="46.35935387578445" lon="12.470453250267996"><ele>987.6666666666666</ele><time>2026-04-23T09:42:06.998Z</time></trkpt><trkpt lat="46.35942899399561" lon="12.470408738872722"><ele>988.0</ele><time>2026-04-23T09:42:07.998Z</time></trkpt><trkpt lat="46.35950035445201" lon="12.470365314290278"><ele>987.9999999999999</ele><time>2026-04-23T09:42:08.998Z</time></trkpt><trkpt lat="46.35957768615315" lon="12.47032431735656"><ele>988.0</ele><time>2026-04-23T09:42:09.998Z</time></trkpt><trkpt lat="46.359658680192844" lon="12.470280859058752"><ele>988.0</ele><time>2026-04-23T09:42:10.998Z</time></trkpt><trkpt lat="46.35973503110995" lon="12.470234382702776"><ele>988.0</ele><time>2026-04-23T09:42:11.998Z</time></trkpt><trkpt lat="46.35981214440004" lon="12.470187970847464"><ele>987.9999999999999</ele><time>2026-04-23T09:42:12.998Z</time></trkpt><trkpt lat="46.35988688740416" lon="12.470141513645276"><ele>988.0</ele><time>2026-04-23T09:42:13.998Z</time></trkpt><trkpt lat="46.35996183155175" lon="12.470098238085788"><ele>990.6666666666666</ele><time>2026-04-23T09:42:14.998Z</time></trkpt><trkpt lat="46.36004066648863" lon="12.470086924282533"><ele>993.3333333333333</ele><time>2026-04-23T09:42:15.998Z</time></trkpt><trkpt lat="46.36013002634146" lon="12.470097456080817"><ele>996.0</ele><time>2026-04-23T09:42:16.998Z</time></trkpt><trkpt lat="46.36021350503871" lon="12.470124885994311"><ele>998.6666666666667</ele><time>2026-04-23T09:42:17.998Z</time></trkpt><trkpt lat="46.36030112860663" lon="12.470141963071722"><ele>1001.3333333333334</ele><time>2026-04-23T09:42:19Z</time></trkpt><trkpt lat="46.360388906134325" lon="12.470161612826274"><ele>1004.0</ele><time>2026-04-23T09:42:20Z</time></trkpt><trkpt lat="46.360479526174736" lon="12.470165782891046"><ele>1005.5000000000001</ele><time>2026-04-23T09:42:21Z</time></trkpt><trkpt lat="46.36056716680272" lon="12.470168172817953"><ele>1007.0</ele><time>2026-04-23T09:42:22Z</time></trkpt><trkpt lat="46.36063821134157" lon="12.470144116546782"><ele>1008.5</ele><time>2026-04-23T09:42:23Z</time></trkpt><trkpt lat="46.36070781687872" lon="12.470129795437579"><ele>1010.0</ele><time>2026-04-23T09:42:24Z</time></trkpt><trkpt lat="46.36077554421584" lon="12.470146763200896"><ele>1011.5000000000001</ele><time>2026-04-23T09:42:25Z</time></trkpt><trkpt lat="46.360874364360804" lon="12.470262069198137"><ele>1013.0</ele><time>2026-04-23T09:42:27Z</time></trkpt><trkpt lat="46.360916870388834" lon="12.470352139324671"><ele>1012.1666666666667</ele><time>2026-04-23T09:42:28Z</time></trkpt><trkpt lat="46.360968101100575" lon="12.470442089338162"><ele>1011.3333333333334</ele><time>2026-04-23T09:42:29Z</time></trkpt><trkpt lat="46.36102575551496" lon="12.470537370596697"><ele>1010.5</ele><time>2026-04-23T09:42:30Z</time></trkpt><trkpt lat="46.361085805383176" lon="12.470628606611873"><ele>1009.6666666666667</ele><time>2026-04-23T09:42:31Z</time></trkpt><trkpt lat="46.361144953380254" lon="12.470724496890488"><ele>1008.8333333333334</ele><time>2026-04-23T09:42:32Z</time></trkpt><trkpt lat="46.36120522615894" lon="12.470813182172577"><ele>1008.0</ele><time>2026-04-23T09:42:33Z</time></trkpt><trkpt lat="46.36126375140517" lon="12.470883297079009"><ele>1008.0</ele><time>2026-04-23T09:42:34Z</time></trkpt><trkpt lat="46.36132478012365" lon="12.470934200475192"><ele>1008.0</ele><time>2026-04-23T09:42:35Z</time></trkpt><trkpt lat="46.36138846152505" lon="12.470970353402805"><ele>1008.0</ele><time>2026-04-23T09:42:36Z</time></trkpt><trkpt lat="46.36145870390774" lon="12.470998169219556"><ele>1008.0</ele><time>2026-04-23T09:42:37Z</time></trkpt><trkpt lat="46.36153383436431" lon="12.471035080976446"><ele>1008.0</ele><time>2026-04-23T09:42:38Z</time></trkpt><trkpt lat="46.36160784998083" lon="12.471077034849946"><ele>1008.0</ele><time>2026-04-23T09:42:39Z</time></trkpt><trkpt lat="46.361685250863964" lon="12.471111705583139"><ele>1009.5</ele><time>2026-04-23T09:42:40Z</time></trkpt><trkpt lat="46.36176650160823" lon="12.471139127973462"><ele>1011.0</ele><time>2026-04-23T09:42:41Z</time></trkpt><trkpt lat="46.361848559025205" lon="12.471164481562605"><ele>1012.5</ele><time>2026-04-23T09:42:42Z</time></trkpt><trkpt lat="46.36193051481269" lon="12.471193917520838"><ele>1014.0</ele><time>2026-04-23T09:42:43Z</time></trkpt><trkpt lat="46.362014480645165" lon="12.471215753765762"><ele>1015.5</ele><time>2026-04-23T09:42:44Z</time></trkpt><trkpt lat="46.362099003958434" lon="12.471240955940454"><ele>1017.0</ele><time>2026-04-23T09:42:45Z</time></trkpt><trkpt lat="46.36218086448088" lon="12.471274419402535"><ele>1018.8333333333334</ele><time>2026-04-23T09:42:46Z</time></trkpt><trkpt lat="46.36226510879323" lon="12.471307693238275"><ele>1020.6666666666667</ele><time>2026-04-23T09:42:47Z</time></trkpt><trkpt lat="46.36234765505228" lon="12.47134423849503"><ele>1022.5</ele><time>2026-04-23T09:42:48Z</time></trkpt><trkpt lat="46.362425932270064" lon="12.471390788946175"><ele>1024.3333333333335</ele><time>2026-04-23T09:42:49Z</time></trkpt><trkpt lat="46.362501292578315" lon="12.471436001464905"><ele>1026.1666666666667</ele><time>2026-04-23T09:42:50Z</time></trkpt><trkpt lat="46.36257696510827" lon="12.471477339511134"><ele>1028.0</ele><time>2026-04-23T09:42:51Z</time></trkpt><trkpt lat="46.362650432217144" lon="12.47152101349167"><ele>1028.0</ele><time>2026-04-23T09:42:52Z</time></trkpt><trkpt lat="46.36272327268147" lon="12.471565741623822"><ele>1028.0</ele><time>2026-04-23T09:42:53Z</time></trkpt><trkpt lat="46.36279166113187" lon="12.471598995273832"><ele>1028.0</ele><time>2026-04-23T09:42:54Z</time></trkpt><trkpt lat="46.36285996682931" lon="12.471608175506313"><ele>1028.0</ele><time>2026-04-23T09:42:55Z</time></trkpt><trkpt lat="46.362972968469315" lon="12.47153057641369"><ele>1028.0</ele><time>2026-04-23T09:42:57Z</time></trkpt><trkpt lat="46.36301855912382" lon="12.471457300825598"><ele>1028.0</ele><time>2026-04-23T09:42:58Z</time></trkpt><trkpt lat="46.36305755818269" lon="12.471377279912149"><ele>1029.857142857143</ele><time>2026-04-23T09:42:59Z</time></trkpt><trkpt lat="46.36309721755922" lon="12.471299726911578"><ele>1031.7142857142858</ele><time>2026-04-23T09:42:59.999Z</time></trkpt><trkpt lat="46.363138240222" lon="12.47121991680172"><ele>1033.5714285714287</ele><time>2026-04-23T09:43:00.999Z</time></trkpt><trkpt lat="46.36318232010396" lon="12.471140527425385"><ele>1035.4285714285716</ele><time>2026-04-23T09:43:01.999Z</time></trkpt><trkpt lat="46.363229079133454" lon="12.471067766982637"><ele>1037.2857142857144</ele><time>2026-04-23T09:43:02.999Z</time></trkpt><trkpt lat="46.3632727523026" lon="12.470985171793586"><ele>1039.142857142857</ele><time>2026-04-23T09:43:03.999Z</time></trkpt><trkpt lat="46.36331108970235" lon="12.470892955843595"><ele>1041.0</ele><time>2026-04-23T09:43:04.999Z</time></trkpt><trkpt lat="46.36335145716315" lon="12.470800963949836"><ele>1041.2857142857142</ele><time>2026-04-23T09:43:05.999Z</time></trkpt><trkpt lat="46.36339844050167" lon="12.470721108842923"><ele>1041.5714285714287</ele><time>2026-04-23T09:43:06.999Z</time></trkpt><trkpt lat="46.363451210848794" lon="12.4706514012194"><ele>1041.857142857143</ele><time>2026-04-23T09:43:07.999Z</time></trkpt><trkpt lat="46.36351231289041" lon="12.470601402263767"><ele>1042.142857142857</ele><time>2026-04-23T09:43:08.999Z</time></trkpt><trkpt lat="46.36357881002119" lon="12.470579978402546"><ele>1042.4285714285716</ele><time>2026-04-23T09:43:09.999Z</time></trkpt><trkpt lat="46.36364675331142" lon="12.470583953843192"><ele>1042.7142857142858</ele><time>2026-04-23T09:43:10.999Z</time></trkpt><trkpt lat="46.36371830892916" lon="12.47060155941632"><ele>1043.0</ele><time>2026-04-23T09:43:11.999Z</time></trkpt><trkpt lat="46.36379246816982" lon="12.470621840135713"><ele>1044.8333333333335</ele><time>2026-04-23T09:43:12.999Z</time></trkpt><trkpt lat="46.36387026193323" lon="12.470630483747986"><ele>1046.6666666666667</ele><time>2026-04-23T09:43:13.999Z</time></trkpt><trkpt lat="46.36395185549207" lon="12.470639120199207"><ele>1048.5</ele><time>2026-04-23T09:43:14.999Z</time></trkpt><trkpt lat="46.36403178215439" lon="12.470655247733523"><ele>1050.3333333333333</ele><time>2026-04-23T09:43:15.999Z</time></trkpt><trkpt lat="46.36411036519351" lon="12.470676009077568"><ele>1052.1666666666665</ele><time>2026-04-23T09:43:16.999Z</time></trkpt><trkpt lat="46.364189846795796" lon="12.470698802158417"><ele>1054.0</ele><time>2026-04-23T09:43:17.999Z</time></trkpt><trkpt lat="46.364267888583065" lon="12.470725833569302"><ele>1054.0</ele><time>2026-04-23T09:43:18.999Z</time></trkpt><trkpt lat="46.364340786335454" lon="12.470752816684318"><ele>1054.0</ele><time>2026-04-23T09:43:19.999Z</time></trkpt><trkpt lat="46.36443470393553" lon="12.470797611875453"><ele>1054.0</ele><time>2026-04-23T09:43:21.999Z</time></trkpt><trkpt lat="46.36453881364109" lon="12.470863999623848"><ele>1054.0</ele><time>2026-04-23T09:43:23.999Z</time></trkpt><trkpt lat="46.364596659545356" lon="12.47091291346"><ele>1054.0</ele><time>2026-04-23T09:43:24.999Z</time></trkpt><trkpt lat="46.36465377633015" lon="12.470963792152093"><ele>1054.0</ele><time>2026-04-23T09:43:25.999Z</time></trkpt><trkpt lat="46.364704856201485" lon="12.471019666167471"><ele>1054.3333333333333</ele><time>2026-04-23T09:43:26.999Z</time></trkpt><trkpt lat="46.36476474435791" lon="12.471085507423954"><ele>1054.6666666666665</ele><time>2026-04-23T09:43:27.999Z</time></trkpt><trkpt lat="46.36481891170915" lon="12.471143334051787"><ele>1055.0</ele><time>2026-04-23T09:43:28.999Z</time></trkpt><trkpt lat="46.3648865936275" lon="12.471211411901274"><ele>1055.3333333333333</ele><time>2026-04-23T09:43:30.999Z</time></trkpt><trkpt lat="46.36497136532003" lon="12.471312068787098"><ele>1055.6666666666667</ele><time>2026-04-23T09:43:32.999Z</time></trkpt><trkpt lat="46.36503428986413" lon="12.471378556637276"><ele>1056.0</ele><time>2026-04-23T09:43:33.999Z</time></trkpt><trkpt lat="46.36509257729204" lon="12.471444555430105"><ele>1056.0</ele><time>2026-04-23T09:43:34.999Z</time></trkpt><trkpt lat="46.36514209610501" lon="12.471510559186752"><ele>1056.0</ele><time>2026-04-23T09:43:35.999Z</time></trkpt><trkpt lat="46.365191927421826" lon="12.471578019374334"><ele>1056.0</ele><time>2026-04-23T09:43:36.999Z</time></trkpt><trkpt lat="46.36525123958768" lon="12.47164150826626"><ele>1056.0</ele><time>2026-04-23T09:43:37.999Z</time></trkpt><trkpt lat="46.36530736533994" lon="12.471710862685557"><ele>1056.0</ele><time>2026-04-23T09:43:38.999Z</time></trkpt><trkpt lat="46.36535937845196" lon="12.471774450645071"><ele>1056.0</ele><time>2026-04-23T09:43:39.999Z</time></trkpt><trkpt lat="46.36542177641936" lon="12.471839826025244"><ele>1056.0</ele><time>2026-04-23T09:43:40.999Z</time></trkpt><trkpt lat="46.36548770122675" lon="12.47190525445646"><ele>1056.857142857143</ele><time>2026-04-23T09:43:41.999Z</time></trkpt><trkpt lat="46.36554842962907" lon="12.471972322716312"><ele>1057.7142857142858</ele><time>2026-04-23T09:43:42.999Z</time></trkpt><trkpt lat="46.36560479377959" lon="12.472038774279627"><ele>1058.5714285714287</ele><time>2026-04-23T09:43:43.999Z</time></trkpt><trkpt lat="46.36566208025468" lon="12.472104563163956"><ele>1059.4285714285716</ele><time>2026-04-23T09:43:44.999Z</time></trkpt><trkpt lat="46.36572433990615" lon="12.472167056374253"><ele>1060.2857142857144</ele><time>2026-04-23T09:43:45.999Z</time></trkpt><trkpt lat="46.36578279531989" lon="12.472221996864775"><ele>1061.142857142857</ele><time>2026-04-23T09:43:46.999Z</time></trkpt><trkpt lat="46.36584137638472" lon="12.47227998329226"><ele>1062.0</ele><time>2026-04-23T09:43:47.999Z</time></trkpt><trkpt lat="46.3659479498291" lon="12.472400231130674"><ele>1062.0</ele><time>2026-04-23T09:43:49.999Z</time></trkpt><trkpt lat="46.36600692325555" lon="12.47246450231448"><ele>1062.0</ele><time>2026-04-23T09:43:50.999Z</time></trkpt><trkpt lat="46.366065824580446" lon="12.472525064201287"><ele>1062.0</ele><time>2026-04-23T09:43:51.999Z</time></trkpt><trkpt lat="46.36613122848524" lon="12.472561310408048"><ele>1062.0</ele><time>2026-04-23T09:43:52.999Z</time></trkpt><trkpt lat="46.36621538133778" lon="12.472585421893886"><ele>1062.0</ele><time>2026-04-23T09:43:53.999Z</time></trkpt><trkpt lat="46.36630946820836" lon="12.472600809941534"><ele>1062.0</ele><time>2026-04-23T09:43:54.999Z</time></trkpt><trkpt lat="46.36640390417098" lon="12.472632909985704"><ele>1064.0</ele><time>2026-04-23T09:43:55.999Z</time></trkpt><trkpt lat="46.36649883432319" lon="12.472672315936935"><ele>1066.0</ele><time>2026-04-23T09:43:56.999Z</time></trkpt><trkpt lat="46.366593251790896" lon="12.472704247832468"><ele>1068.0</ele><time>2026-04-23T09:43:57.999Z</time></trkpt><trkpt lat="46.366690406976055" lon="12.472730933188403"><ele>1070.0</ele><time>2026-04-23T09:43:58.999Z</time></trkpt><trkpt lat="46.36678881047168" lon="12.472757424284966"><ele>1072.0</ele><time>2026-04-23T09:43:59.999Z</time></trkpt><trkpt lat="46.36688545017788" lon="12.472782744658911"><ele>1072.0</ele><time>2026-04-23T09:44:00.999Z</time></trkpt><trkpt lat="46.366973553994164" lon="12.472807720628124"><ele>1072.0</ele><time>2026-04-23T09:44:01.999Z</time></trkpt><trkpt lat="46.367060903110044" lon="12.472827873933173"><ele>1072.0</ele><time>2026-04-23T09:44:02.999Z</time></trkpt><trkpt lat="46.3671495527325" lon="12.472857442291065"><ele>1072.0</ele><time>2026-04-23T09:44:03.999Z</time></trkpt><trkpt lat="46.36723281093038" lon="12.472885803338198"><ele>1072.0</ele><time>2026-04-23T09:44:04.999Z</time></trkpt><trkpt lat="46.36731629951915" lon="12.472911611419434"><ele>1072.0</ele><time>2026-04-23T09:44:05.998Z</time></trkpt><trkpt lat="46.36738761145411" lon="12.47293422274416"><ele>1070.5</ele><time>2026-04-23T09:44:06.998Z</time></trkpt><trkpt lat="46.367458748523376" lon="12.47295132312165"><ele>1069.0</ele><time>2026-04-23T09:44:07.998Z</time></trkpt><trkpt lat="46.36753594087995" lon="12.472971029886686"><ele>1067.5</ele><time>2026-04-23T09:44:08.998Z</time></trkpt><trkpt lat="46.36761311925333" lon="12.47298367377617"><ele>1066.0</ele><time>2026-04-23T09:44:09.998Z</time></trkpt><trkpt lat="46.36769591109859" lon="12.472990677331454"><ele>1064.5</ele><time>2026-04-23T09:44:10.998Z</time></trkpt><trkpt lat="46.36778093146243" lon="12.472991986571717"><ele>1063.0</ele><time>2026-04-23T09:44:11.998Z</time></trkpt><trkpt lat="46.36786966022532" lon="12.473002201122876"><ele>1063.0</ele><time>2026-04-23T09:44:12.998Z</time></trkpt><trkpt lat="46.36796205730126" lon="12.473023249710133"><ele>1063.0</ele><time>2026-04-23T09:44:13.998Z</time></trkpt><trkpt lat="46.36805951344688" lon="12.47304645006964"><ele>1063.0</ele><time>2026-04-23T09:44:14.998Z</time></trkpt><trkpt lat="46.36815895711978" lon="12.473064135129121"><ele>1063.0</ele><time>2026-04-23T09:44:15.998Z</time></trkpt><trkpt lat="46.36825710099886" lon="12.473078465008621"><ele>1063.0</ele><time>2026-04-23T09:44:16.998Z</time></trkpt><trkpt lat="46.36835384955413" lon="12.473089551936926"><ele>1064.3333333333333</ele><time>2026-04-23T09:44:17.998Z</time></trkpt><trkpt lat="46.3684491725598" lon="12.47310049549354"><ele>1065.6666666666665</ele><time>2026-04-23T09:44:18.998Z</time></trkpt><trkpt lat="46.36853505336581" lon="12.473101529449496"><ele>1067.0</ele><time>2026-04-23T09:44:19.998Z</time></trkpt><trkpt lat="46.36861005009935" lon="12.473097234490927"><ele>1068.3333333333333</ele><time>2026-04-23T09:44:20.998Z</time></trkpt><trkpt lat="46.36868618296085" lon="12.473096927488811"><ele>1069.6666666666667</ele><time>2026-04-23T09:44:21.998Z</time></trkpt><trkpt lat="46.368764831690044" lon="12.47311242789396"><ele>1071.0</ele><time>2026-04-23T09:44:22.998Z</time></trkpt><trkpt lat="46.36884856212392" lon="12.473150356786764"><ele>1071.8333333333333</ele><time>2026-04-23T09:44:24Z</time></trkpt><trkpt lat="46.36892719377016" lon="12.473204594960436"><ele>1072.6666666666667</ele><time>2026-04-23T09:44:25Z</time></trkpt><trkpt lat="46.36900663880135" lon="12.473274457023429"><ele>1073.5</ele><time>2026-04-23T09:44:26Z</time></trkpt><trkpt lat="46.369077012218476" lon="12.47335125574774"><ele>1074.3333333333335</ele><time>2026-04-23T09:44:27Z</time></trkpt><trkpt lat="46.36914292031176" lon="12.47342470381528"><ele>1075.1666666666667</ele><time>2026-04-23T09:44:28Z</time></trkpt><trkpt lat="46.36920989021312" lon="12.473491890551019"><ele>1076.0</ele><time>2026-04-23T09:44:29Z</time></trkpt><trkpt lat="46.369275031593176" lon="12.473560400514778"><ele>1076.0</ele><time>2026-04-23T09:44:30Z</time></trkpt><trkpt lat="46.36934185493818" lon="12.473624834806513"><ele>1076.0</ele><time>2026-04-23T09:44:31Z</time></trkpt><trkpt lat="46.369406992275756" lon="12.473683028707653"><ele>1076.0</ele><time>2026-04-23T09:44:32Z</time></trkpt><trkpt lat="46.369456058763035" lon="12.47374937900564"><ele>1076.0</ele><time>2026-04-23T09:44:33Z</time></trkpt><trkpt lat="46.36949613039625" lon="12.473827249320996"><ele>1076.0</ele><time>2026-04-23T09:44:34Z</time></trkpt><trkpt lat="46.369524579583754" lon="12.47391314458258"><ele>1076.0</ele><time>2026-04-23T09:44:35Z</time></trkpt><trkpt lat="46.36956059377177" lon="12.47401387311266"><ele>1076.0</ele><time>2026-04-23T09:44:36Z</time></trkpt><trkpt lat="46.369599584384666" lon="12.474128457426394"><ele>1076.0</ele><time>2026-04-23T09:44:37Z</time></trkpt><trkpt lat="46.36964624477543" lon="12.474247716658152"><ele>1076.0</ele><time>2026-04-23T09:44:38Z</time></trkpt><trkpt lat="46.3696969238308" lon="12.474365712176487"><ele>1076.0</ele><time>2026-04-23T09:44:39Z</time></trkpt><trkpt lat="46.36975488421673" lon="12.47448804023095"><ele>1076.0</ele><time>2026-04-23T09:44:40Z</time></trkpt><trkpt lat="46.36981646888444" lon="12.474614273635856"><ele>1076.0</ele><time>2026-04-23T09:44:41Z</time></trkpt><trkpt lat="46.36987954577266" lon="12.474741049985928"><ele>1076.0</ele><time>2026-04-23T09:44:42Z</time></trkpt><trkpt lat="46.369938524660334" lon="12.474869834307905"><ele>1076.0</ele><time>2026-04-23T09:44:43Z</time></trkpt><trkpt lat="46.369998156430896" lon="12.474995738521903"><ele>1076.0</ele><time>2026-04-23T09:44:44Z</time></trkpt><trkpt lat="46.37006240509347" lon="12.475121838068414"><ele>1076.0</ele><time>2026-04-23T09:44:45Z</time></trkpt><trkpt lat="46.37012865487504" lon="12.475248509814437"><ele>1076.0</ele><time>2026-04-23T09:44:46Z</time></trkpt><trkpt lat="46.37019521217977" lon="12.47537128945625"><ele>1075.6</ele><time>2026-04-23T09:44:47Z</time></trkpt><trkpt lat="46.37026376300747" lon="12.475492622754087"><ele>1075.1999999999998</ele><time>2026-04-23T09:44:48Z</time></trkpt><trkpt lat="46.370333806633234" lon="12.47560854791087"><ele>1074.8000000000002</ele><time>2026-04-23T09:44:49Z</time></trkpt><trkpt lat="46.37040106306096" lon="12.47571852658382"><ele>1074.4</ele><time>2026-04-23T09:44:50Z</time></trkpt><trkpt lat="46.370467712752614" lon="12.475828290269476"><ele>1074.0</ele><time>2026-04-23T09:44:51Z</time></trkpt><trkpt lat="46.370539453331006" lon="12.475925253232335"><ele>1075.0</ele><time>2026-04-23T09:44:51.999Z</time></trkpt><trkpt lat="46.37058916928911" lon="12.475984553228766"><ele>1076.0</ele><time>2026-04-23T09:44:52.999Z</time></trkpt><trkpt lat="46.370650216353454" lon="12.476072985898455"><ele>1077.0</ele><time>2026-04-23T09:44:54.999Z</time></trkpt><trkpt lat="46.37072044190483" lon="12.476164282399496"><ele>1078.0</ele><time>2026-04-23T09:44:56.999Z</time></trkpt><trkpt lat="46.370767284336836" lon="12.476235654104373"><ele>1079.0</ele><time>2026-04-23T09:44:57.999Z</time></trkpt><trkpt lat="46.370824062939" lon="12.476330176676434"><ele>1080.0</ele><time>2026-04-23T09:44:58.999Z</time></trkpt><trkpt lat="46.370888534298494" lon="12.476434719754774"><ele>1080.0</ele><time>2026-04-23T09:44:59.999Z</time></trkpt><trkpt lat="46.370959069917255" lon="12.476542719718244"><ele>1080.0</ele><time>2026-04-23T09:45:00.999Z</time></trkpt><trkpt lat="46.37103684345546" lon="12.476651068547548"><ele>1080.0</ele><time>2026-04-23T09:45:01.999Z</time></trkpt><trkpt lat="46.37111975792407" lon="12.476756433007488"><ele>1080.0</ele><time>2026-04-23T09:45:02.999Z</time></trkpt><trkpt lat="46.3712038248795" lon="12.476863348143313"><ele>1080.0</ele><time>2026-04-23T09:45:03.999Z</time></trkpt><trkpt lat="46.371287846023016" lon="12.476961362952407"><ele>1081.8</ele><time>2026-04-23T09:45:04.999Z</time></trkpt><trkpt lat="46.37137849023134" lon="12.47705605184929"><ele>1083.6</ele><time>2026-04-23T09:45:05.999Z</time></trkpt><trkpt lat="46.37147075837886" lon="12.477155405248546"><ele>1085.4</ele><time>2026-04-23T09:45:06.999Z</time></trkpt><trkpt lat="46.37155670374147" lon="12.477246783428821"><ele>1087.2</ele><time>2026-04-23T09:45:07.999Z</time></trkpt><trkpt lat="46.37162641256233" lon="12.477331282907178"><ele>1089.0</ele><time>2026-04-23T09:45:08.999Z</time></trkpt><trkpt lat="46.37169064751768" lon="12.477419684518418"><ele>1089.4</ele><time>2026-04-23T09:45:09.999Z</time></trkpt><trkpt lat="46.37176509275725" lon="12.477502765085017"><ele>1089.8000000000002</ele><time>2026-04-23T09:45:10.999Z</time></trkpt><trkpt lat="46.371840188345175" lon="12.477591140566918"><ele>1090.1999999999998</ele><time>2026-04-23T09:45:11.999Z</time></trkpt><trkpt lat="46.37191632995595" lon="12.477683988737533"><ele>1090.6</ele><time>2026-04-23T09:45:12.999Z</time></trkpt><trkpt lat="46.37199474859274" lon="12.47777946356909"><ele>1091.0</ele><time>2026-04-23T09:45:13.999Z</time></trkpt><trkpt lat="46.37206977576431" lon="12.477873172300898"><ele>1091.2</ele><time>2026-04-23T09:45:14.999Z</time></trkpt><trkpt lat="46.372144942721846" lon="12.47795923503467"><ele>1091.3999999999999</ele><time>2026-04-23T09:45:15.999Z</time></trkpt><trkpt lat="46.37221682542515" lon="12.478039471768708"><ele>1091.6</ele><time>2026-04-23T09:45:16.999Z</time></trkpt><trkpt lat="46.3722666303677" lon="12.478096532337183"><ele>1091.8</ele><time>2026-04-23T09:45:17.999Z</time></trkpt><trkpt lat="46.372363133971206" lon="12.47821701047901"><ele>1092.0</ele><time>2026-04-23T09:45:19.999Z</time></trkpt><trkpt lat="46.372437203750444" lon="12.47829860440876"><ele>1093.0</ele><time>2026-04-23T09:45:20.999Z</time></trkpt><trkpt lat="46.3725106677804" lon="12.478385605309033"><ele>1094.0</ele><time>2026-04-23T09:45:21.999Z</time></trkpt><trkpt lat="46.37258136312575" lon="12.478478232734412"><ele>1095.0</ele><time>2026-04-23T09:45:22.999Z</time></trkpt><trkpt lat="46.37264493183268" lon="12.478564954381584"><ele>1096.0</ele><time>2026-04-23T09:45:23.999Z</time></trkpt><trkpt lat="46.372711285190206" lon="12.478638419131745"><ele>1097.0</ele><time>2026-04-23T09:45:24.999Z</time></trkpt><trkpt lat="46.372787859465944" lon="12.478688774681373"><ele>1098.0</ele><time>2026-04-23T09:45:25.999Z</time></trkpt><trkpt lat="46.37286883841088" lon="12.478723795712765"><ele>1098.0</ele><time>2026-04-23T09:45:26.999Z</time></trkpt><trkpt lat="46.3729431648011" lon="12.478729376210692"><ele>1098.0</ele><time>2026-04-23T09:45:27.999Z</time></trkpt><trkpt lat="46.37302071513286" lon="12.478726749319897"><ele>1098.0</ele><time>2026-04-23T09:45:28.999Z</time></trkpt><trkpt lat="46.37309729667636" lon="12.478738003356025"><ele>1098.0</ele><time>2026-04-23T09:45:29.999Z</time></trkpt><trkpt lat="46.37317686941335" lon="12.478771272769793"><ele>1098.0</ele><time>2026-04-23T09:45:30.999Z</time></trkpt><trkpt lat="46.373259735491864" lon="12.47880731943996"><ele>1098.0</ele><time>2026-04-23T09:45:31.999Z</time></trkpt><trkpt lat="46.37334544598895" lon="12.478853422437764"><ele>1099.6</ele><time>2026-04-23T09:45:32.999Z</time></trkpt><trkpt lat="46.373433789767944" lon="12.478902460276364"><ele>1101.1999999999998</ele><time>2026-04-23T09:45:33.999Z</time></trkpt><trkpt lat="46.37352363060316" lon="12.478953298991026"><ele>1102.8</ele><time>2026-04-23T09:45:34.999Z</time></trkpt><trkpt lat="46.373614410260906" lon="12.479009670857524"><ele>1104.3999999999999</ele><time>2026-04-23T09:45:35.999Z</time></trkpt><trkpt lat="46.373706616912585" lon="12.479071389641529"><ele>1106.0</ele><time>2026-04-23T09:45:36.999Z</time></trkpt><trkpt lat="46.37379743947555" lon="12.479135728645593"><ele>1108.6</ele><time>2026-04-23T09:45:37.999Z</time></trkpt><trkpt lat="46.37388498200942" lon="12.47920682190802"><ele>1111.1999999999998</ele><time>2026-04-23T09:45:38.999Z</time></trkpt><trkpt lat="46.373972735855105" lon="12.479269451418945"><ele>1113.8000000000002</ele><time>2026-04-23T09:45:39.999Z</time></trkpt><trkpt lat="46.37406015716832" lon="12.479322732476845"><ele>1116.4</ele><time>2026-04-23T09:45:40.999Z</time></trkpt><trkpt lat="46.37414247828748" lon="12.479377561574864"><ele>1119.0</ele><time>2026-04-23T09:45:41.999Z</time></trkpt><trkpt lat="46.37422688642233" lon="12.479439359586179"><ele>1119.0</ele><time>2026-04-23T09:45:42.999Z</time></trkpt><trkpt lat="46.374313358378046" lon="12.479504432505962"><ele>1119.0</ele><time>2026-04-23T09:45:43.999Z</time></trkpt><trkpt lat="46.37440339507961" lon="12.479576425348936"><ele>1119.0</ele><time>2026-04-23T09:45:44.999Z</time></trkpt><trkpt lat="46.374499880241984" lon="12.479644897738314"><ele>1119.0</ele><time>2026-04-23T09:45:45.999Z</time></trkpt><trkpt lat="46.37459764210981" lon="12.479720204136019"><ele>1119.0</ele><time>2026-04-23T09:45:46.999Z</time></trkpt><trkpt lat="46.374691183814676" lon="12.47980232887415"><ele>1120.6000000000001</ele><time>2026-04-23T09:45:47.999Z</time></trkpt><trkpt lat="46.37477469218313" lon="12.47988452962823"><ele>1122.2</ele><time>2026-04-23T09:45:48.998Z</time></trkpt><trkpt lat="46.374848423183884" lon="12.479957376001602"><ele>1123.8000000000002</ele><time>2026-04-23T09:45:49.998Z</time></trkpt><trkpt lat="46.374923101134634" lon="12.480024810989661"><ele>1125.4</ele><time>2026-04-23T09:45:50.998Z</time></trkpt><trkpt lat="46.3749950691089" lon="12.480103409548166"><ele>1127.0</ele><time>2026-04-23T09:45:51.998Z</time></trkpt><trkpt lat="46.37506299402328" lon="12.480194352107949"><ele>1127.0</ele><time>2026-04-23T09:45:52.998Z</time></trkpt><trkpt lat="46.375126689862405" lon="12.480294518176615"><ele>1127.0</ele><time>2026-04-23T09:45:53.998Z</time></trkpt><trkpt lat="46.37517421407438" lon="12.48041306837783"><ele>1127.0</ele><time>2026-04-23T09:45:54.998Z</time></trkpt><trkpt lat="46.37521858139227" lon="12.480540190024751"><ele>1127.0</ele><time>2026-04-23T09:45:55.998Z</time></trkpt><trkpt lat="46.375268873478475" lon="12.480667428227413"><ele>1127.0</ele><time>2026-04-23T09:45:56.998Z</time></trkpt><trkpt lat="46.37532769198861" lon="12.480786507040692"><ele>1125.8</ele><time>2026-04-23T09:45:57.998Z</time></trkpt><trkpt lat="46.37539391608597" lon="12.480904494189458"><ele>1124.6</ele><time>2026-04-23T09:45:58.998Z</time></trkpt><trkpt lat="46.375456822138695" lon="12.481027662459038"><ele>1123.3999999999999</ele><time>2026-04-23T09:45:59.998Z</time></trkpt><trkpt lat="46.37551398831019" lon="12.481157526872568"><ele>1122.2</ele><time>2026-04-23T09:46:00.998Z</time></trkpt><trkpt lat="46.37556501763248" lon="12.481293139434511"><ele>1121.0</ele><time>2026-04-23T09:46:01.998Z</time></trkpt><trkpt lat="46.375614076386334" lon="12.4814346879878"><ele>1126.25</ele><time>2026-04-23T09:46:02.998Z</time></trkpt><trkpt lat="46.3756614132133" lon="12.481580408932494"><ele>1131.5</ele><time>2026-04-23T09:46:03.998Z</time></trkpt><trkpt lat="46.37570842401771" lon="12.48173513520872"><ele>1136.75</ele><time>2026-04-23T09:46:04.998Z</time></trkpt><trkpt lat="46.375761994058216" lon="12.481917563082481"><ele>1142.0</ele><time>2026-04-23T09:46:05.998Z</time></trkpt><trkpt lat="46.37582092571766" lon="12.48212580879946"><ele>1142.0</ele><time>2026-04-23T09:46:06.998Z</time></trkpt><trkpt lat="46.37588202865816" lon="12.482357227180387"><ele>1142.0</ele><time>2026-04-23T09:46:07.998Z</time></trkpt><trkpt lat="46.375943083201385" lon="12.482590662361527"><ele>1142.0</ele><time>2026-04-23T09:46:08.998Z</time></trkpt><trkpt lat="46.375990439009705" lon="12.482786841497845"><ele>1142.0</ele><time>2026-04-23T09:46:09.998Z</time></trkpt><trkpt lat="46.37602984253857" lon="12.482951785072933"><ele>1142.0</ele><time>2026-04-23T09:46:10.998Z</time></trkpt><trkpt lat="46.376070654214864" lon="12.48309940904188"><ele>1142.0</ele><time>2026-04-23T09:46:11.998Z</time></trkpt><trkpt lat="46.37611288630402" lon="12.483232019615453"><ele>1142.0</ele><time>2026-04-23T09:46:12.998Z</time></trkpt><trkpt lat="46.37615209850006" lon="12.483337182910311"><ele>1142.0</ele><time>2026-04-23T09:46:13.998Z</time></trkpt><trkpt lat="46.376182047285575" lon="12.483417710572304"><ele>1142.0</ele><time>2026-04-23T09:46:14.998Z</time></trkpt><trkpt lat="46.37622508170445" lon="12.483521798148477"><ele>1142.0</ele><time>2026-04-23T09:46:16.998Z</time></trkpt><trkpt lat="46.37626733489445" lon="12.483591918106114"><ele>1142.0</ele><time>2026-04-23T09:46:18.998Z</time></trkpt><trkpt lat="46.376359854582525" lon="12.48370744738099"><ele>1142.0</ele><time>2026-04-23T09:46:20.998Z</time></trkpt><trkpt lat="46.37645603687483" lon="12.483780652892996"><ele>1142.0</ele><time>2026-04-23T09:46:22.998Z</time></trkpt><trkpt lat="46.37657779087076" lon="12.483835904998086"><ele>1143.3333333333335</ele><time>2026-04-23T09:46:24.998Z</time></trkpt><trkpt lat="46.37664278812248" lon="12.483870149595822"><ele>1144.6666666666667</ele><time>2026-04-23T09:46:25.998Z</time></trkpt><trkpt lat="46.3767080340899" lon="12.48390496983512"><ele>1146.0</ele><time>2026-04-23T09:46:26.998Z</time></trkpt><trkpt lat="46.376783829925344" lon="12.48395066583366"><ele>1147.3333333333333</ele><time>2026-04-23T09:46:27.998Z</time></trkpt><trkpt lat="46.376882390719594" lon="12.484019247162333"><ele>1148.6666666666665</ele><time>2026-04-23T09:46:28.998Z</time></trkpt><trkpt lat="46.376967772670156" lon="12.484073003230074"><ele>1150.0</ele><time>2026-04-23T09:46:30Z</time></trkpt><trkpt lat="46.37704445128618" lon="12.484143541866436"><ele>1150.0</ele><time>2026-04-23T09:46:31Z</time></trkpt><trkpt lat="46.377113415591275" lon="12.48421922130812"><ele>1150.0</ele><time>2026-04-23T09:46:32Z</time></trkpt><trkpt lat="46.37717556654939" lon="12.484302549554345"><ele>1150.0</ele><time>2026-04-23T09:46:33Z</time></trkpt><trkpt lat="46.37722762324536" lon="12.484392868868708"><ele>1150.0</ele><time>2026-04-23T09:46:34Z</time></trkpt><trkpt lat="46.37727194631198" lon="12.484491807317307"><ele>1150.0</ele><time>2026-04-23T09:46:35Z</time></trkpt><trkpt lat="46.37731761487636" lon="12.484588633254477"><ele>1150.0</ele><time>2026-04-23T09:46:36Z</time></trkpt><trkpt lat="46.37737928860078" lon="12.484716291507814"><ele>1156.75</ele><time>2026-04-23T09:46:37Z</time></trkpt><trkpt lat="46.37746300992138" lon="12.484867834432322"><ele>1163.5</ele><time>2026-04-23T09:46:38Z</time></trkpt><trkpt lat="46.377546307963954" lon="12.48504103787408"><ele>1170.25</ele><time>2026-04-23T09:46:39Z</time></trkpt><trkpt lat="46.37761358174626" lon="12.48518830245669"><ele>1177.0</ele><time>2026-04-23T09:46:40Z</time></trkpt><trkpt lat="46.37766655787664" lon="12.485347216630657"><ele>1175.6666666666665</ele><time>2026-04-23T09:46:41Z</time></trkpt><trkpt lat="46.3777449501089" lon="12.485440030974642"><ele>1174.3333333333333</ele><time>2026-04-23T09:46:42Z</time></trkpt><trkpt lat="46.3777969924133" lon="12.485550366795595"><ele>1173.0</ele><time>2026-04-23T09:46:43Z</time></trkpt><trkpt lat="46.37784388338733" lon="12.48563745560844"><ele>1171.6666666666667</ele><time>2026-04-23T09:46:44Z</time></trkpt><trkpt lat="46.37788886631048" lon="12.485742441935606"><ele>1170.3333333333335</ele><time>2026-04-23T09:46:45Z</time></trkpt><trkpt lat="46.3779362293558" lon="12.485844034754706"><ele>1169.0</ele><time>2026-04-23T09:46:46Z</time></trkpt><trkpt lat="46.3779825699126" lon="12.485949972133394"><ele>1174.5</ele><time>2026-04-23T09:46:47Z</time></trkpt><trkpt lat="46.37801907044312" lon="12.486057327865499"><ele>1180.0</ele><time>2026-04-23T09:46:48Z</time></trkpt><trkpt lat="46.378042731008776" lon="12.486174466901778"><ele>1185.5</ele><time>2026-04-23T09:46:49Z</time></trkpt><trkpt lat="46.37805429702721" lon="12.4862953923097"><ele>1191.0</ele><time>2026-04-23T09:46:50Z</time></trkpt><trkpt lat="46.378075773635445" lon="12.48641684019512"><ele>1196.5</ele><time>2026-04-23T09:46:51Z</time></trkpt><trkpt lat="46.378100220610285" lon="12.486539562892563"><ele>1202.0</ele><time>2026-04-23T09:46:52Z</time></trkpt><trkpt lat="46.37812742517173" lon="12.486657263577731"><ele>1202.0</ele><time>2026-04-23T09:46:53Z</time></trkpt><trkpt lat="46.37815066782445" lon="12.486772813371573"><ele>1202.0</ele><time>2026-04-23T09:46:54Z</time></trkpt><trkpt lat="46.37816072317736" lon="12.486892535191982"><ele>1202.0</ele><time>2026-04-23T09:46:55Z</time></trkpt><trkpt lat="46.37815502784072" lon="12.487011524104911"><ele>1202.0</ele><time>2026-04-23T09:46:56Z</time></trkpt><trkpt lat="46.37814724338144" lon="12.487132069698989"><ele>1202.0</ele><time>2026-04-23T09:46:57Z</time></trkpt><trkpt lat="46.378164488377294" lon="12.487250476806544"><ele>1202.0</ele><time>2026-04-23T09:46:58Z</time></trkpt><trkpt lat="46.37819477088046" lon="12.487363602592696"><ele>1199.3333333333335</ele><time>2026-04-23T09:46:59Z</time></trkpt><trkpt lat="46.37823441561155" lon="12.487483118018574"><ele>1196.6666666666667</ele><time>2026-04-23T09:47:00Z</time></trkpt><trkpt lat="46.37828762205834" lon="12.487579613856768"><ele>1194.0</ele><time>2026-04-23T09:47:01Z</time></trkpt><trkpt lat="46.37835053205949" lon="12.487663999653275"><ele>1191.3333333333333</ele><time>2026-04-23T09:47:02Z</time></trkpt><trkpt lat="46.378402948164556" lon="12.487744667157523"><ele>1188.6666666666665</ele><time>2026-04-23T09:47:03Z</time></trkpt><trkpt lat="46.378470072050845" lon="12.487817401844278"><ele>1186.0</ele><time>2026-04-23T09:47:04Z</time></trkpt><trkpt lat="46.37852432944188" lon="12.487909822635622"><ele>1183.8333333333333</ele><time>2026-04-23T09:47:05Z</time></trkpt><trkpt lat="46.37859753176002" lon="12.487975690119086"><ele>1181.6666666666665</ele><time>2026-04-23T09:47:05.999Z</time></trkpt><trkpt lat="46.37867636254045" lon="12.488039982773419"><ele>1179.5</ele><time>2026-04-23T09:47:06.999Z</time></trkpt><trkpt lat="46.37875772745695" lon="12.488105999080163"><ele>1177.3333333333333</ele><time>2026-04-23T09:47:07.999Z</time></trkpt><trkpt lat="46.378832093999335" lon="12.488169704381459"><ele>1175.1666666666667</ele><time>2026-04-23T09:47:08.999Z</time></trkpt><trkpt lat="46.37890134557763" lon="12.488236074978042"><ele>1173.0</ele><time>2026-04-23T09:47:09.999Z</time></trkpt><trkpt lat="46.37895847138353" lon="12.488309189637862"><ele>1175.8333333333333</ele><time>2026-04-23T09:47:10.999Z</time></trkpt><trkpt lat="46.37900565244836" lon="12.488392901271515"><ele>1178.6666666666667</ele><time>2026-04-23T09:47:11.999Z</time></trkpt><trkpt lat="46.37904619040366" lon="12.48848738162437"><ele>1181.5</ele><time>2026-04-23T09:47:12.999Z</time></trkpt><trkpt lat="46.37908344963016" lon="12.488596911075675"><ele>1184.3333333333335</ele><time>2026-04-23T09:47:13.999Z</time></trkpt><trkpt lat="46.37911421453464" lon="12.488711219520743"><ele>1187.1666666666667</ele><time>2026-04-23T09:47:14.999Z</time></trkpt><trkpt lat="46.379143729582935" lon="12.488833907868345"><ele>1190.0</ele><time>2026-04-23T09:47:16.999Z</time></trkpt><trkpt lat="46.3791748160159" lon="12.488916985444824"><ele>1190.0</ele><time>2026-04-23T09:47:18.999Z</time></trkpt><trkpt lat="46.37924251819841" lon="12.489064874139213"><ele>1190.0</ele><time>2026-04-23T09:47:20.999Z</time></trkpt><trkpt lat="46.37931950565126" lon="12.489160523686005"><ele>1190.0</ele><time>2026-04-23T09:47:21.999Z</time></trkpt><trkpt lat="46.379412739029554" lon="12.489249934841292"><ele>1190.0</ele><time>2026-04-23T09:47:22.999Z</time></trkpt><trkpt lat="46.379501770099516" lon="12.489331462598855"><ele>1190.0</ele><time>2026-04-23T09:47:23.999Z</time></trkpt><trkpt lat="46.379576814583864" lon="12.489399812783622"><ele>1190.0</ele><time>2026-04-23T09:47:24.999Z</time></trkpt><trkpt lat="46.37964657046327" lon="12.489496114749182"><ele>1190.0</ele><time>2026-04-23T09:47:26.999Z</time></trkpt><trkpt lat="46.37972380632103" lon="12.489489122383109"><ele>1190.0</ele><time>2026-04-23T09:47:28.999Z</time></trkpt><trkpt lat="46.379741980397746" lon="12.489356417300144"><ele>1190.0</ele><time>2026-04-23T09:47:30.999Z</time></trkpt><trkpt lat="46.379710383020964" lon="12.489258922723012"><ele>1190.0</ele><time>2026-04-23T09:47:31.999Z</time></trkpt><trkpt lat="46.379674570901884" lon="12.48913328228881"><ele>1190.0</ele><time>2026-04-23T09:47:32.999Z</time></trkpt><trkpt lat="46.37964468591799" lon="12.488984462095349"><ele>1190.0</ele><time>2026-04-23T09:47:33.999Z</time></trkpt><trkpt lat="46.37962784717815" lon="12.488859236167473"><ele>1190.0</ele><time>2026-04-23T09:47:34.999Z</time></trkpt><trkpt lat="46.379619005854416" lon="12.488768242865822"><ele>1190.0</ele><time>2026-04-23T09:47:35.999Z</time></trkpt><trkpt lat="46.379636388605306" lon="12.488653258624515"><ele>1190.0</ele><time>2026-04-23T09:47:37.999Z</time></trkpt><trkpt lat="46.379700999301704" lon="12.488599578980637"><ele>1190.0</ele><time>2026-04-23T09:47:39.999Z</time></trkpt><trkpt lat="46.379799067421146" lon="12.488645411997505"><ele>1190.0</ele><time>2026-04-23T09:47:41.999Z</time></trkpt><trkpt lat="46.37984493553287" lon="12.48878159723528"><ele>1192.8333333333335</ele><time>2026-04-23T09:47:43.999Z</time></trkpt><trkpt lat="46.37987583270885" lon="12.488904801983725"><ele>1195.6666666666667</ele><time>2026-04-23T09:47:45.999Z</time></trkpt><trkpt lat="46.37991435485101" lon="12.48903421896794"><ele>1198.5</ele><time>2026-04-23T09:47:47.999Z</time></trkpt><trkpt lat="46.37995334323935" lon="12.489132033672025"><ele>1201.3333333333333</ele><time>2026-04-23T09:47:50.999Z</time></trkpt><trkpt lat="46.37998035599818" lon="12.48922081281328"><ele>1204.1666666666665</ele><time>2026-04-23T09:47:54.999Z</time></trkpt><trkpt lat="46.379998460949196" lon="12.489310133170706"><ele>1207.0</ele><time>2026-04-23T09:48:06.999Z</time></trkpt><trkpt lat="46.380002249009955" lon="12.48942441697326"><ele>1207.0</ele><time>2026-04-23T09:48:09.999Z</time></trkpt><trkpt lat="46.379991137429215" lon="12.489526521649344"><ele>1207.0</ele><time>2026-04-23T09:48:12.999Z</time></trkpt><trkpt lat="46.379929910994086" lon="12.489592325817013"><ele>1207.0</ele><time>2026-04-23T09:48:15.998Z</time></trkpt><trkpt lat="46.37985078089763" lon="12.489589695033434"><ele>1207.0</ele><time>2026-04-23T09:48:19.998Z</time></trkpt><trkpt lat="46.379771458294634" lon="12.489593118492957"><ele>1207.0</ele><time>2026-04-23T09:48:22.998Z</time></trkpt><trkpt lat="46.379697721740484" lon="12.489544872975376"><ele>1207.0</ele><time>2026-04-23T09:48:24.998Z</time></trkpt><trkpt lat="46.37962279169746" lon="12.489463313771317"><ele>1204.1666666666665</ele><time>2026-04-23T09:48:26.998Z</time></trkpt><trkpt lat="46.37953652119621" lon="12.489346818229102"><ele>1201.3333333333333</ele><time>2026-04-23T09:48:28.998Z</time></trkpt><trkpt lat="46.37947783215656" lon="12.489282045005204"><ele>1198.5</ele><time>2026-04-23T09:48:29.998Z</time></trkpt><trkpt lat="46.37940819909194" lon="12.489222212642858"><ele>1195.6666666666667</ele><time>2026-04-23T09:48:30.998Z</time></trkpt><trkpt lat="46.37933517476292" lon="12.48916552250413"><ele>1192.8333333333335</ele><time>2026-04-23T09:48:31.998Z</time></trkpt><trkpt lat="46.379272716068876" lon="12.489103286918136"><ele>1190.0</ele><time>2026-04-23T09:48:32.998Z</time></trkpt><trkpt lat="46.37922936915801" lon="12.489035440129612"><ele>1190.0</ele><time>2026-04-23T09:48:33.998Z</time></trkpt><trkpt lat="46.37917550882266" lon="12.488905331674019"><ele>1190.0</ele><time>2026-04-23T09:48:36Z</time></trkpt><trkpt lat="46.37915701355889" lon="12.488811134597887"><ele>1190.0</ele><time>2026-04-23T09:48:38Z</time></trkpt><trkpt lat="46.37907954334304" lon="12.488874785518801"><ele>1190.0</ele><time>2026-04-23T09:48:41Z</time></trkpt><trkpt lat="46.37907908023397" lon="12.489018628710912"><ele>1190.0</ele><time>2026-04-23T09:48:43Z</time></trkpt><trkpt lat="46.37908145879887" lon="12.489210805502667"><ele>1190.0</ele><time>2026-04-23T09:48:45Z</time></trkpt><trkpt lat="46.379076126327604" lon="12.489309888199843"><ele>1190.0</ele><time>2026-04-23T09:48:46Z</time></trkpt><trkpt lat="46.3790644786616" lon="12.489467318169192"><ele>1190.0</ele><time>2026-04-23T09:48:48Z</time></trkpt><trkpt lat="46.3790546058769" lon="12.48962445403431"><ele>1190.0</ele><time>2026-04-23T09:48:50Z</time></trkpt><trkpt lat="46.37903802426929" lon="12.489775468532391"><ele>1190.0</ele><time>2026-04-23T09:48:52Z</time></trkpt><trkpt lat="46.378983666375255" lon="12.489887333478487"><ele>1188.6</ele><time>2026-04-23T09:48:54Z</time></trkpt><trkpt lat="46.37888010322269" lon="12.489947793188351"><ele>1187.2</ele><time>2026-04-23T09:48:56Z</time></trkpt><trkpt lat="46.37875845123238" lon="12.489936117600244"><ele>1185.8</ele><time>2026-04-23T09:48:58Z</time></trkpt><trkpt lat="46.378655572642195" lon="12.489911577169982"><ele>1184.4</ele><time>2026-04-23T09:49:00Z</time></trkpt><trkpt lat="46.37859145535201" lon="12.489901712005748"><ele>1183.0</ele><time>2026-04-23T09:49:02Z</time></trkpt><trkpt lat="46.378526132177754" lon="12.489905294041822"><ele>1181.0</ele><time>2026-04-23T09:49:06Z</time></trkpt><trkpt lat="46.37846826950445" lon="12.489958231815539"><ele>1179.0</ele><time>2026-04-23T09:49:19.999Z</time></trkpt><trkpt lat="46.37842279776185" lon="12.489873995251628"><ele>1177.0</ele><time>2026-04-23T09:49:25.999Z</time></trkpt><trkpt lat="46.378500517442255" lon="12.48988733967358"><ele>1175.0</ele><time>2026-04-23T09:49:36.999Z</time></trkpt><trkpt lat="46.378590471546666" lon="12.489931991823655"><ele>1173.0</ele><time>2026-04-23T09:49:38.999Z</time></trkpt><trkpt lat="46.37874337488214" lon="12.489948649099949"><ele>1173.0</ele><time>2026-04-23T09:49:39.999Z</time></trkpt><trkpt lat="46.37883369854988" lon="12.48995306860102"><ele>1173.0</ele><time>2026-04-23T09:49:40.999Z</time></trkpt><trkpt lat="46.378956325752874" lon="12.489917655600665"><ele>1173.0</ele><time>2026-04-23T09:49:42.999Z</time></trkpt><trkpt lat="46.37900891538935" lon="12.489860011839696"><ele>1173.0</ele><time>2026-04-23T09:49:43.999Z</time></trkpt><trkpt lat="46.379042053927535" lon="12.489779939030223"><ele>1173.0</ele><time>2026-04-23T09:49:44.999Z</time></trkpt><trkpt lat="46.37905807365111" lon="12.48968113130035"><ele>1173.0</ele><time>2026-04-23T09:49:45.999Z</time></trkpt><trkpt lat="46.37906310005259" lon="12.489567030650033"><ele>1175.8333333333333</ele><time>2026-04-23T09:49:46.999Z</time></trkpt><trkpt lat="46.37906417038336" lon="12.489440516772811"><ele>1178.6666666666667</ele><time>2026-04-23T09:49:47.999Z</time></trkpt><trkpt lat="46.37907105644314" lon="12.489344921950977"><ele>1181.5</ele><time>2026-04-23T09:49:48.999Z</time></trkpt><trkpt lat="46.379074431314976" lon="12.489149126873567"><ele>1184.3333333333335</ele><time>2026-04-23T09:49:50.999Z</time></trkpt><trkpt lat="46.379078659626735" lon="12.489034606236093"><ele>1187.1666666666667</ele><time>2026-04-23T09:49:51.999Z</time></trkpt><trkpt lat="46.37908967607465" lon="12.488921244361487"><ele>1190.0</ele><time>2026-04-23T09:49:52.999Z</time></trkpt><trkpt lat="46.379105550887445" lon="12.488812521272603"><ele>1192.3333333333335</ele><time>2026-04-23T09:49:53.999Z</time></trkpt><trkpt lat="46.3791126227442" lon="12.488709131920926"><ele>1194.6666666666667</ele><time>2026-04-23T09:49:54.999Z</time></trkpt><trkpt lat="46.37908269213185" lon="12.488607634577523"><ele>1197.0</ele><time>2026-04-23T09:49:55.999Z</time></trkpt><trkpt lat="46.379045051373296" lon="12.488498252870887"><ele>1199.3333333333333</ele><time>2026-04-23T09:49:56.999Z</time></trkpt><trkpt lat="46.37899625244123" lon="12.488401018588865"><ele>1201.6666666666665</ele><time>2026-04-23T09:49:57.999Z</time></trkpt><trkpt lat="46.37894623412917" lon="12.488317922987687"><ele>1204.0</ele><time>2026-04-23T09:49:58.999Z</time></trkpt><trkpt lat="46.37889098862174" lon="12.488241505264694"><ele>1201.0</ele><time>2026-04-23T09:49:59.999Z</time></trkpt><trkpt lat="46.378825158681394" lon="12.488172258770476"><ele>1198.0</ele><time>2026-04-23T09:50:00.999Z</time></trkpt><trkpt lat="46.378753185482175" lon="12.4881130145524"><ele>1195.0</ele><time>2026-04-23T09:50:01.999Z</time></trkpt><trkpt lat="46.37868124313025" lon="12.488050878144167"><ele>1192.0</ele><time>2026-04-23T09:50:02.999Z</time></trkpt><trkpt lat="46.378606888181544" lon="12.487986034795464"><ele>1189.0</ele><time>2026-04-23T09:50:03.999Z</time></trkpt><trkpt lat="46.37853344969879" lon="12.487917789517256"><ele>1186.0</ele><time>2026-04-23T09:50:04.999Z</time></trkpt><trkpt lat="46.37847106118447" lon="12.487844924153352"><ele>1185.9999999999998</ele><time>2026-04-23T09:50:05.999Z</time></trkpt><trkpt lat="46.37842080889069" lon="12.487764933344163"><ele>1186.0</ele><time>2026-04-23T09:50:06.999Z</time></trkpt><trkpt lat="46.378379042171254" lon="12.48768098157282"><ele>1186.0</ele><time>2026-04-23T09:50:07.999Z</time></trkpt><trkpt lat="46.37833626547138" lon="12.487608966772976"><ele>1186.0</ele><time>2026-04-23T09:50:08.999Z</time></trkpt><trkpt lat="46.378288398338185" lon="12.487542171509261"><ele>1186.0</ele><time>2026-04-23T09:50:09.999Z</time></trkpt><trkpt lat="46.37823966289995" lon="12.487459869770078"><ele>1185.9999999999998</ele><time>2026-04-23T09:50:10.999Z</time></trkpt><trkpt lat="46.378213739597975" lon="12.487357943654569"><ele>1186.0</ele><time>2026-04-23T09:50:11.999Z</time></trkpt><trkpt lat="46.378188691408916" lon="12.48725622890798"><ele>1186.0</ele><time>2026-04-23T09:50:12.999Z</time></trkpt><trkpt lat="46.378169043013344" lon="12.487151183648852"><ele>1186.0</ele><time>2026-04-23T09:50:13.999Z</time></trkpt><trkpt lat="46.37815807658348" lon="12.487039950720545"><ele>1186.0</ele><time>2026-04-23T09:50:14.999Z</time></trkpt><trkpt lat="46.378156629225145" lon="12.486928455576848"><ele>1186.0</ele><time>2026-04-23T09:50:15.999Z</time></trkpt><trkpt lat="46.37815218450528" lon="12.486819111820985"><ele>1186.0</ele><time>2026-04-23T09:50:16.999Z</time></trkpt><trkpt lat="46.37813759528239" lon="12.48671241368196"><ele>1186.0</ele><time>2026-04-23T09:50:17.998Z</time></trkpt><trkpt lat="46.37811503315606" lon="12.486604559449608"><ele>1188.6666666666665</ele><time>2026-04-23T09:50:18.998Z</time></trkpt><trkpt lat="46.37808931590341" lon="12.486497543517295"><ele>1191.3333333333333</ele><time>2026-04-23T09:50:19.998Z</time></trkpt><trkpt lat="46.378064076222515" lon="12.486387534214906"><ele>1194.0</ele><time>2026-04-23T09:50:20.998Z</time></trkpt><trkpt lat="46.37804731209996" lon="12.48627637072546"><ele>1196.6666666666667</ele><time>2026-04-23T09:50:21.998Z</time></trkpt><trkpt lat="46.37803323070868" lon="12.486162014523035"><ele>1199.3333333333335</ele><time>2026-04-23T09:50:22.998Z</time></trkpt><trkpt lat="46.3780112706767" lon="12.48605030467117"><ele>1202.0</ele><time>2026-04-23T09:50:23.998Z</time></trkpt><trkpt lat="46.37797937363611" lon="12.485942659522959"><ele>1198.4285714285713</ele><time>2026-04-23T09:50:24.998Z</time></trkpt><trkpt lat="46.377939058289215" lon="12.485843744452099"><ele>1194.857142857143</ele><time>2026-04-23T09:50:25.998Z</time></trkpt><trkpt lat="46.37789826695395" lon="12.485744440093278"><ele>1191.2857142857142</ele><time>2026-04-23T09:50:26.998Z</time></trkpt><trkpt lat="46.377857350989125" lon="12.485651306813999"><ele>1187.7142857142858</ele><time>2026-04-23T09:50:27.998Z</time></trkpt><trkpt lat="46.37781237892233" lon="12.485566502572233"><ele>1184.142857142857</ele><time>2026-04-23T09:50:28.998Z</time></trkpt><trkpt lat="46.37777315771659" lon="12.485482146233856"><ele>1180.5714285714287</ele><time>2026-04-23T09:50:29.998Z</time></trkpt><trkpt lat="46.37773524534192" lon="12.485405724019824"><ele>1177.0</ele><time>2026-04-23T09:50:30.998Z</time></trkpt><trkpt lat="46.37768904991702" lon="12.48523684550749"><ele>1177.0</ele><time>2026-04-23T09:50:32.998Z</time></trkpt><trkpt lat="46.37767158499507" lon="12.485148490337176"><ele>1177.0</ele><time>2026-04-23T09:50:33.998Z</time></trkpt><trkpt lat="46.37762690222774" lon="12.485047553530128"><ele>1177.0</ele><time>2026-04-23T09:50:34.998Z</time></trkpt><trkpt lat="46.37760213806341" lon="12.48495169256101"><ele>1177.0</ele><time>2026-04-23T09:50:35.998Z</time></trkpt><trkpt lat="46.377518067546085" lon="12.484957047428423"><ele>1177.0</ele><time>2026-04-23T09:50:36.998Z</time></trkpt><trkpt lat="46.377459361574694" lon="12.484817808673967"><ele>1177.0</ele><time>2026-04-23T09:50:38.998Z</time></trkpt><trkpt lat="46.377372343196555" lon="12.484663435529763"><ele>1172.5</ele><time>2026-04-23T09:50:41Z</time></trkpt><trkpt lat="46.377331762199674" lon="12.484577661492866"><ele>1168.0</ele><time>2026-04-23T09:50:42Z</time></trkpt><trkpt lat="46.377287565312685" lon="12.48449104242733"><ele>1163.5</ele><time>2026-04-23T09:50:43Z</time></trkpt><trkpt lat="46.377251021692786" lon="12.484407935986415"><ele>1159.0</ele><time>2026-04-23T09:50:44Z</time></trkpt><trkpt lat="46.37721061009447" lon="12.484329508959531"><ele>1154.5</ele><time>2026-04-23T09:50:44.999Z</time></trkpt><trkpt lat="46.37713220238286" lon="12.484204547853125"><ele>1150.0</ele><time>2026-04-23T09:50:46.999Z</time></trkpt><trkpt lat="46.37704761719616" lon="12.484116757408882"><ele>1150.0</ele><time>2026-04-23T09:50:48.999Z</time></trkpt><trkpt lat="46.37695954234088" lon="12.484051039815562"><ele>1150.0</ele><time>2026-04-23T09:50:50.999Z</time></trkpt><trkpt lat="46.376898778491885" lon="12.484009515589204"><ele>1150.0</ele><time>2026-04-23T09:50:51.999Z</time></trkpt><trkpt lat="46.37683965417711" lon="12.483970473393862"><ele>1150.0</ele><time>2026-04-23T09:50:52.999Z</time></trkpt><trkpt lat="46.37677484240846" lon="12.483930385546476"><ele>1150.0</ele><time>2026-04-23T09:50:54Z</time></trkpt><trkpt lat="46.37671279542542" lon="12.483890133324959"><ele>1150.0</ele><time>2026-04-23T09:50:55Z</time></trkpt><trkpt lat="46.37664531193682" lon="12.48385423864277"><ele>1150.0</ele><time>2026-04-23T09:50:56Z</time></trkpt><trkpt lat="46.37657657894343" lon="12.483809996401476"><ele>1150.0</ele><time>2026-04-23T09:50:57Z</time></trkpt><trkpt lat="46.37650927844498" lon="12.483773749637171"><ele>1150.0</ele><time>2026-04-23T09:50:58Z</time></trkpt><trkpt lat="46.376392871257245" lon="12.483701967025063"><ele>1150.0</ele><time>2026-04-23T09:51:00Z</time></trkpt><trkpt lat="46.37633828946489" lon="12.483650787479563"><ele>1150.0</ele><time>2026-04-23T09:51:01Z</time></trkpt><trkpt lat="46.37629128434743" lon="12.483579848329958"><ele>1150.0</ele><time>2026-04-23T09:51:02Z</time></trkpt><trkpt lat="46.376243980443185" lon="12.48349781935196"><ele>1150.0</ele><time>2026-04-23T09:51:03Z</time></trkpt><trkpt lat="46.37620316079424" lon="12.483412176513117"><ele>1148.857142857143</ele><time>2026-04-23T09:51:04Z</time></trkpt><trkpt lat="46.37617435504831" lon="12.483322393136575"><ele>1147.7142857142856</ele><time>2026-04-23T09:51:05Z</time></trkpt><trkpt lat="46.3761416173427" lon="12.483231908415949"><ele>1146.5714285714284</ele><time>2026-04-23T09:51:06Z</time></trkpt><trkpt lat="46.376110880547394" lon="12.48313951949283"><ele>1145.4285714285713</ele><time>2026-04-23T09:51:07Z</time></trkpt><trkpt lat="46.376080560599235" lon="12.483043302018737"><ele>1144.2857142857142</ele><time>2026-04-23T09:51:07.999Z</time></trkpt><trkpt lat="46.37605122812018" lon="12.482946784251231"><ele>1143.142857142857</ele><time>2026-04-23T09:51:08.999Z</time></trkpt><trkpt lat="46.376022640208106" lon="12.48284824527963"><ele>1142.0</ele><time>2026-04-23T09:51:09.999Z</time></trkpt><trkpt lat="46.37599696035234" lon="12.482743446800775"><ele>1142.0</ele><time>2026-04-23T09:51:10.999Z</time></trkpt><trkpt lat="46.37597165564667" lon="12.482638306706656"><ele>1142.0</ele><time>2026-04-23T09:51:11.999Z</time></trkpt><trkpt lat="46.37594533672455" lon="12.482534553600438"><ele>1142.0</ele><time>2026-04-23T09:51:12.999Z</time></trkpt><trkpt lat="46.37592004316096" lon="12.482429209182133"><ele>1142.0</ele><time>2026-04-23T09:51:13.999Z</time></trkpt><trkpt lat="46.375891873041866" lon="12.482328082589753"><ele>1142.0</ele><time>2026-04-23T09:51:14.999Z</time></trkpt><trkpt lat="46.37586215917829" lon="12.482226580559992"><ele>1142.0</ele><time>2026-04-23T09:51:15.999Z</time></trkpt><trkpt lat="46.37583403981931" lon="12.48212262315677"><ele>1144.3333333333335</ele><time>2026-04-23T09:51:16.999Z</time></trkpt><trkpt lat="46.37580640900849" lon="12.482015194014226"><ele>1146.6666666666667</ele><time>2026-04-23T09:51:17.999Z</time></trkpt><trkpt lat="46.37577763700826" lon="12.48191542497727"><ele>1149.0</ele><time>2026-04-23T09:51:18.999Z</time></trkpt><trkpt lat="46.37575011853113" lon="12.481813157851379"><ele>1151.3333333333333</ele><time>2026-04-23T09:51:19.999Z</time></trkpt><trkpt lat="46.37571958356815" lon="12.481715543501318"><ele>1153.6666666666665</ele><time>2026-04-23T09:51:20.999Z</time></trkpt><trkpt lat="46.37568721053276" lon="12.481618665012123"><ele>1156.0</ele><time>2026-04-23T09:51:21.999Z</time></trkpt><trkpt lat="46.375658869673856" lon="12.481520334193213"><ele>1156.0</ele><time>2026-04-23T09:51:22.999Z</time></trkpt><trkpt lat="46.37563010437253" lon="12.481421360610335"><ele>1156.0</ele><time>2026-04-23T09:51:23.999Z</time></trkpt><trkpt lat="46.37559736151749" lon="12.481330172320284"><ele>1156.0</ele><time>2026-04-23T09:51:24.999Z</time></trkpt><trkpt lat="46.37556011867959" lon="12.481242133397364"><ele>1156.0</ele><time>2026-04-23T09:51:25.999Z</time></trkpt><trkpt lat="46.3755256052864" lon="12.48115806965669"><ele>1156.0</ele><time>2026-04-23T09:51:26.999Z</time></trkpt><trkpt lat="46.37549195409132" lon="12.481073878620656"><ele>1156.0</ele><time>2026-04-23T09:51:27.999Z</time></trkpt><trkpt lat="46.3754550253803" lon="12.480990153112643"><ele>1156.0</ele><time>2026-04-23T09:51:28.999Z</time></trkpt><trkpt lat="46.37541821219733" lon="12.480911029052805"><ele>1151.1666666666665</ele><time>2026-04-23T09:51:29.999Z</time></trkpt><trkpt lat="46.37537839956053" lon="12.480827438511223"><ele>1146.3333333333333</ele><time>2026-04-23T09:51:30.999Z</time></trkpt><trkpt lat="46.37533130176444" lon="12.48073632446848"><ele>1141.5</ele><time>2026-04-23T09:51:31.999Z</time></trkpt><trkpt lat="46.37528251226789" lon="12.480647020601321"><ele>1136.6666666666667</ele><time>2026-04-23T09:51:32.999Z</time></trkpt><trkpt lat="46.37523854979627" lon="12.480549301030866"><ele>1131.8333333333335</ele><time>2026-04-23T09:51:33.999Z</time></trkpt><trkpt lat="46.375196884234676" lon="12.48045401644769"><ele>1127.0</ele><time>2026-04-23T09:51:34.999Z</time></trkpt><trkpt lat="46.375146971683066" lon="12.480356416608968"><ele>1127.0</ele><time>2026-04-23T09:51:35.999Z</time></trkpt><trkpt lat="46.375096910423125" lon="12.480251437459668"><ele>1127.0</ele><time>2026-04-23T09:51:36.999Z</time></trkpt><trkpt lat="46.375048504189245" lon="12.480158885556605"><ele>1127.0</ele><time>2026-04-23T09:51:37.999Z</time></trkpt><trkpt lat="46.37498722952622" lon="12.48007430627052"><ele>1127.0</ele><time>2026-04-23T09:51:38.999Z</time></trkpt><trkpt lat="46.374904439150775" lon="12.480008427885556"><ele>1127.0</ele><time>2026-04-23T09:51:39.999Z</time></trkpt><trkpt lat="46.37482392827103" lon="12.479929033845497"><ele>1127.0</ele><time>2026-04-23T09:51:40.999Z</time></trkpt><trkpt lat="46.374736955139156" lon="12.47985855561701"><ele>1125.4</ele><time>2026-04-23T09:51:41.999Z</time></trkpt><trkpt lat="46.37465779702755" lon="12.479781243126116"><ele>1123.8000000000002</ele><time>2026-04-23T09:51:42.999Z</time></trkpt><trkpt lat="46.374576053699755" lon="12.479698104540168"><ele>1122.2</ele><time>2026-04-23T09:51:43.999Z</time></trkpt><trkpt lat="46.37449412159444" lon="12.47962747051766"><ele>1120.6000000000001</ele><time>2026-04-23T09:51:44.999Z</time></trkpt><trkpt lat="46.37441117564297" lon="12.479567033716977"><ele>1119.0</ele><time>2026-04-23T09:51:45.999Z</time></trkpt><trkpt lat="46.374336634144576" lon="12.479518118393862"><ele>1119.0</ele><time>2026-04-23T09:51:46.999Z</time></trkpt><trkpt lat="46.37426343938831" lon="12.479467895813318"><ele>1119.0</ele><time>2026-04-23T09:51:47.999Z</time></trkpt><trkpt lat="46.37419763965328" lon="12.47942303578631"><ele>1119.0</ele><time>2026-04-23T09:51:48.999Z</time></trkpt><trkpt lat="46.37413604382317" lon="12.479379568565074"><ele>1119.0</ele><time>2026-04-23T09:51:49.999Z</time></trkpt><trkpt lat="46.37407718645779" lon="12.479336406893061"><ele>1119.0</ele><time>2026-04-23T09:51:50.999Z</time></trkpt><trkpt lat="46.37401987372906" lon="12.479293291015395"><ele>1119.0</ele><time>2026-04-23T09:51:51.999Z</time></trkpt><trkpt lat="46.37396245872642" lon="12.479252442429273"><ele>1119.0</ele><time>2026-04-23T09:51:52.999Z</time></trkpt><trkpt lat="46.373905445526546" lon="12.479212350635622"><ele>1117.142857142857</ele><time>2026-04-23T09:51:53.999Z</time></trkpt><trkpt lat="46.373846340482096" lon="12.47917071867702"><ele>1115.2857142857142</ele><time>2026-04-23T09:51:54.999Z</time></trkpt><trkpt lat="46.37378642861967" lon="12.47913336842015"><ele>1113.4285714285716</ele><time>2026-04-23T09:51:55.999Z</time></trkpt><trkpt lat="46.373726629419124" lon="12.479090872950508"><ele>1111.5714285714284</ele><time>2026-04-23T09:51:56.999Z</time></trkpt><trkpt lat="46.37366977877195" lon="12.479046679137099"><ele>1109.7142857142858</ele><time>2026-04-23T09:51:57.999Z</time></trkpt><trkpt lat="46.37360888176644" lon="12.479000186766218"><ele>1107.857142857143</ele><time>2026-04-23T09:51:58.999Z</time></trkpt><trkpt lat="46.3735436459052" lon="12.478958342972014"><ele>1106.0</ele><time>2026-04-23T09:51:59.999Z</time></trkpt><trkpt lat="46.37347633714576" lon="12.478923575056559"><ele>1106.0</ele><time>2026-04-23T09:52:00.999Z</time></trkpt><trkpt lat="46.37340909097715" lon="12.478890438558404"><ele>1106.0</ele><time>2026-04-23T09:52:01.999Z</time></trkpt><trkpt lat="46.37334176668192" lon="12.478857816960973"><ele>1106.0</ele><time>2026-04-23T09:52:02.999Z</time></trkpt><trkpt lat="46.37327537707092" lon="12.47882484242297"><ele>1106.0</ele><time>2026-04-23T09:52:03.999Z</time></trkpt><trkpt lat="46.37321133463768" lon="12.47879369121201"><ele>1106.0</ele><time>2026-04-23T09:52:04.999Z</time></trkpt><trkpt lat="46.373147856331514" lon="12.47876842952808"><ele>1106.0</ele><time>2026-04-23T09:52:05.999Z</time></trkpt><trkpt lat="46.373081725477704" lon="12.4787476549235"><ele>1106.0</ele><time>2026-04-23T09:52:06.999Z</time></trkpt><trkpt lat="46.373017583670844" lon="12.478734997386596"><ele>1104.6666666666667</ele><time>2026-04-23T09:52:07.999Z</time></trkpt><trkpt lat="46.372952503254695" lon="12.478722473852663"><ele>1103.3333333333335</ele><time>2026-04-23T09:52:08.999Z</time></trkpt><trkpt lat="46.37288931689427" lon="12.478706322080708"><ele>1102.0</ele><time>2026-04-23T09:52:09.999Z</time></trkpt><trkpt lat="46.37277340471972" lon="12.47866216587545"><ele>1100.6666666666667</ele><time>2026-04-23T09:52:11.999Z</time></trkpt><trkpt lat="46.37271314798537" lon="12.478629475494103"><ele>1099.3333333333333</ele><time>2026-04-23T09:52:12.999Z</time></trkpt><trkpt lat="46.37261009150475" lon="12.478519172427164"><ele>1098.0</ele><time>2026-04-23T09:52:14.999Z</time></trkpt><trkpt lat="46.37256108463662" lon="12.47845708321554"><ele>1098.0</ele><time>2026-04-23T09:52:15.999Z</time></trkpt><trkpt lat="46.37250875145712" lon="12.47839019250753"><ele>1098.0</ele><time>2026-04-23T09:52:16.999Z</time></trkpt><trkpt lat="46.37245176095383" lon="12.478314121236401"><ele>1098.0</ele><time>2026-04-23T09:52:17.999Z</time></trkpt><trkpt lat="46.37239592661835" lon="12.478242078303762"><ele>1098.0</ele><time>2026-04-23T09:52:18.999Z</time></trkpt><trkpt lat="46.37233839823031" lon="12.478174601375427"><ele>1098.0</ele><time>2026-04-23T09:52:19.999Z</time></trkpt><trkpt lat="46.372285205067385" lon="12.478107789328531"><ele>1098.0</ele><time>2026-04-23T09:52:20.999Z</time></trkpt><trkpt lat="46.372235956046836" lon="12.478046082742773"><ele>1098.0</ele><time>2026-04-23T09:52:21.999Z</time></trkpt><trkpt lat="46.37213868598132" lon="12.477938690500086"><ele>1097.0</ele><time>2026-04-23T09:52:23.998Z</time></trkpt><trkpt lat="46.37208584914319" lon="12.477886926502858"><ele>1096.0</ele><time>2026-04-23T09:52:24.998Z</time></trkpt><trkpt lat="46.372033177595405" lon="12.477833792263636"><ele>1095.0</ele><time>2026-04-23T09:52:25.998Z</time></trkpt><trkpt lat="46.37198338872352" lon="12.477770339992208"><ele>1094.0</ele><time>2026-04-23T09:52:26.998Z</time></trkpt><trkpt lat="46.37193575751431" lon="12.477696618575079"><ele>1093.0</ele><time>2026-04-23T09:52:27.998Z</time></trkpt><trkpt lat="46.37188766311264" lon="12.477630647547043"><ele>1092.0</ele><time>2026-04-23T09:52:28.998Z</time></trkpt><trkpt lat="46.371832684115596" lon="12.477568031033536"><ele>1091.0</ele><time>2026-04-23T09:52:29.998Z</time></trkpt><trkpt lat="46.37177657249982" lon="12.477506909577874"><ele>1091.0</ele><time>2026-04-23T09:52:30.998Z</time></trkpt><trkpt lat="46.371719380568656" lon="12.477444974374466"><ele>1091.0</ele><time>2026-04-23T09:52:31.998Z</time></trkpt><trkpt lat="46.37166243015428" lon="12.477380152746644"><ele>1091.0</ele><time>2026-04-23T09:52:32.998Z</time></trkpt><trkpt lat="46.371607593225484" lon="12.477314633736137"><ele>1091.0</ele><time>2026-04-23T09:52:33.998Z</time></trkpt><trkpt lat="46.371551062918435" lon="12.477248006561096"><ele>1091.0</ele><time>2026-04-23T09:52:34.998Z</time></trkpt><trkpt lat="46.37149683452265" lon="12.47718147612339"><ele>1091.0</ele><time>2026-04-23T09:52:35.998Z</time></trkpt><trkpt lat="46.37144178530104" lon="12.477121957635916"><ele>1091.0</ele><time>2026-04-23T09:52:36.998Z</time></trkpt><trkpt lat="46.371386478274694" lon="12.477064990432412"><ele>1089.1666666666667</ele><time>2026-04-23T09:52:37.998Z</time></trkpt><trkpt lat="46.37133191970613" lon="12.477006145274649"><ele>1087.3333333333335</ele><time>2026-04-23T09:52:38.998Z</time></trkpt><trkpt lat="46.37127878321209" lon="12.476942777850251"><ele>1085.5</ele><time>2026-04-23T09:52:39.998Z</time></trkpt><trkpt lat="46.37122993865067" lon="12.476879940462139"><ele>1083.6666666666667</ele><time>2026-04-23T09:52:40.998Z</time></trkpt><trkpt lat="46.37117830248233" lon="12.476817559949973"><ele>1081.8333333333333</ele><time>2026-04-23T09:52:41.998Z</time></trkpt><trkpt lat="46.37108375541466" lon="12.476703424381943"><ele>1080.0</ele><time>2026-04-23T09:52:43.998Z</time></trkpt><trkpt lat="46.37099134388105" lon="12.476593108596623"><ele>1080.0</ele><time>2026-04-23T09:52:45.998Z</time></trkpt><trkpt lat="46.37090711416561" lon="12.47646540825429"><ele>1080.0</ele><time>2026-04-23T09:52:48Z</time></trkpt><trkpt lat="46.37086088563913" lon="12.476402272310496"><ele>1080.0</ele><time>2026-04-23T09:52:49Z</time></trkpt><trkpt lat="46.3707731818129" lon="12.476264939395664"><ele>1080.0</ele><time>2026-04-23T09:52:51Z</time></trkpt><trkpt lat="46.370733517075" lon="12.476190473818987"><ele>1080.0</ele><time>2026-04-23T09:52:52Z</time></trkpt><trkpt lat="46.37069082706099" lon="12.476120522405756"><ele>1080.0</ele><time>2026-04-23T09:52:53Z</time></trkpt><trkpt lat="46.37059399915731" lon="12.475988970194686"><ele>1080.2</ele><time>2026-04-23T09:52:55Z</time></trkpt><trkpt lat="46.370544200899865" lon="12.475923166055104"><ele>1080.4</ele><time>2026-04-23T09:52:56Z</time></trkpt><trkpt lat="46.37048992264698" lon="12.475839443720702"><ele>1080.6</ele><time>2026-04-23T09:52:57Z</time></trkpt><trkpt lat="46.3704322056025" lon="12.47574703272123"><ele>1080.8</ele><time>2026-04-23T09:52:58Z</time></trkpt><trkpt lat="46.37036793766252" lon="12.475643501269017"><ele>1081.0</ele><time>2026-04-23T09:52:59Z</time></trkpt><trkpt lat="46.370269810169965" lon="12.475509832755362"><ele>1079.75</ele><time>2026-04-23T09:53:00Z</time></trkpt><trkpt lat="46.370197460992486" lon="12.475359167225111"><ele>1078.5</ele><time>2026-04-23T09:53:01Z</time></trkpt><trkpt lat="46.37012418228374" lon="12.475224528670307"><ele>1077.25</ele><time>2026-04-23T09:53:02Z</time></trkpt><trkpt lat="46.37005896205268" lon="12.475093345252294"><ele>1076.0</ele><time>2026-04-23T09:53:03Z</time></trkpt><trkpt lat="46.36999508703942" lon="12.474970129413418"><ele>1076.0</ele><time>2026-04-23T09:53:04Z</time></trkpt><trkpt lat="46.36993419132613" lon="12.474851395516042"><ele>1076.0</ele><time>2026-04-23T09:53:05Z</time></trkpt><trkpt lat="46.369877129786936" lon="12.474730526813435"><ele>1076.0</ele><time>2026-04-23T09:53:06Z</time></trkpt><trkpt lat="46.369818730641306" lon="12.474607448262129"><ele>1076.0</ele><time>2026-04-23T09:53:07Z</time></trkpt><trkpt lat="46.369759311871356" lon="12.47448632973384"><ele>1076.0</ele><time>2026-04-23T09:53:08Z</time></trkpt><trkpt lat="46.36969754945099" lon="12.474360557665914"><ele>1074.6</ele><time>2026-04-23T09:53:09Z</time></trkpt><trkpt lat="46.36964551038619" lon="12.474231117890735"><ele>1073.1999999999998</ele><time>2026-04-23T09:53:10Z</time></trkpt><trkpt lat="46.36959596058213" lon="12.47410196018609"><ele>1071.8000000000002</ele><time>2026-04-23T09:53:11Z</time></trkpt><trkpt lat="46.36955465257958" lon="12.473987543273642"><ele>1070.4</ele><time>2026-04-23T09:53:12Z</time></trkpt><trkpt lat="46.369513787358116" lon="12.473883207875314"><ele>1069.0</ele><time>2026-04-23T09:53:13Z</time></trkpt><trkpt lat="46.36946955125381" lon="12.473782360215479"><ele>1070.1666666666665</ele><time>2026-04-23T09:53:14Z</time></trkpt><trkpt lat="46.36941501418517" lon="12.473694498667038"><ele>1071.3333333333333</ele><time>2026-04-23T09:53:15Z</time></trkpt><trkpt lat="46.36935065481326" lon="12.473635031278441"><ele>1072.5</ele><time>2026-04-23T09:53:16Z</time></trkpt><trkpt lat="46.36928623549934" lon="12.473578134133522"><ele>1073.6666666666667</ele><time>2026-04-23T09:53:17Z</time></trkpt><trkpt lat="46.36922488809087" lon="12.473512881047975"><ele>1074.8333333333335</ele><time>2026-04-23T09:53:18Z</time></trkpt><trkpt lat="46.369148566240696" lon="12.473439631027906"><ele>1076.0</ele><time>2026-04-23T09:53:19Z</time></trkpt><trkpt lat="46.369071663868056" lon="12.473358060218317"><ele>1076.0</ele><time>2026-04-23T09:53:19.999Z</time></trkpt><trkpt lat="46.36899117196664" lon="12.47328312319429"><ele>1076.0</ele><time>2026-04-23T09:53:20.999Z</time></trkpt><trkpt lat="46.36891879390375" lon="12.47320730950135"><ele>1076.0</ele><time>2026-04-23T09:53:21.999Z</time></trkpt><trkpt lat="46.36884350523883" lon="12.473146220057723"><ele>1076.0</ele><time>2026-04-23T09:53:22.999Z</time></trkpt><trkpt lat="46.368753215116044" lon="12.473106702161925"><ele>1076.0</ele><time>2026-04-23T09:53:23.999Z</time></trkpt><trkpt lat="46.36866685011324" lon="12.47309284681973"><ele>1075.1666666666667</ele><time>2026-04-23T09:53:24.999Z</time></trkpt><trkpt lat="46.36857601130329" lon="12.473092516943852"><ele>1074.3333333333335</ele><time>2026-04-23T09:53:25.999Z</time></trkpt><trkpt lat="46.368489924694295" lon="12.47309019890942"><ele>1073.5</ele><time>2026-04-23T09:53:26.999Z</time></trkpt><trkpt lat="46.36840319817924" lon="12.473088985243294"><ele>1072.6666666666667</ele><time>2026-04-23T09:53:27.999Z</time></trkpt><trkpt lat="46.36831555841256" lon="12.473080501051307"><ele>1071.8333333333333</ele><time>2026-04-23T09:53:28.999Z</time></trkpt><trkpt lat="46.36822539810106" lon="12.473065519993579"><ele>1071.0</ele><time>2026-04-23T09:53:29.999Z</time></trkpt><trkpt lat="46.36812911126678" lon="12.473047461032031"><ele>1071.0</ele><time>2026-04-23T09:53:30.999Z</time></trkpt><trkpt lat="46.368040274781514" lon="12.473033670362447"><ele>1071.0</ele><time>2026-04-23T09:53:31.999Z</time></trkpt><trkpt lat="46.36795602563005" lon="12.47301804935129"><ele>1071.0</ele><time>2026-04-23T09:53:32.999Z</time></trkpt><trkpt lat="46.36787587581918" lon="12.4730018345709"><ele>1071.0</ele><time>2026-04-23T09:53:33.999Z</time></trkpt><trkpt lat="46.367801361174315" lon="12.472989860515396"><ele>1071.0</ele><time>2026-04-23T09:53:34.999Z</time></trkpt><trkpt lat="46.36772867680999" lon="12.472982681960975"><ele>1071.0</ele><time>2026-04-23T09:53:35.999Z</time></trkpt><trkpt lat="46.367658542164556" lon="12.472978827057696"><ele>1071.1666666666667</ele><time>2026-04-23T09:53:36.999Z</time></trkpt><trkpt lat="46.36759205597408" lon="12.472975594160161"><ele>1071.3333333333333</ele><time>2026-04-23T09:53:37.999Z</time></trkpt><trkpt lat="46.3675282836157" lon="12.472963340232512"><ele>1071.5</ele><time>2026-04-23T09:53:38.999Z</time></trkpt><trkpt lat="46.36746520959039" lon="12.472944247598251"><ele>1071.6666666666665</ele><time>2026-04-23T09:53:39.999Z</time></trkpt><trkpt lat="46.36740323335315" lon="12.47292622904454"><ele>1071.8333333333333</ele><time>2026-04-23T09:53:40.999Z</time></trkpt><trkpt lat="46.36728764717983" lon="12.472890738072186"><ele>1072.0</ele><time>2026-04-23T09:53:42.999Z</time></trkpt><trkpt lat="46.36717618830918" lon="12.472857003050198"><ele>1072.0</ele><time>2026-04-23T09:53:44.999Z</time></trkpt><trkpt lat="46.36706872531631" lon="12.472824041485133"><ele>1072.0</ele><time>2026-04-23T09:53:46.999Z</time></trkpt><trkpt lat="46.36697122838222" lon="12.472797607718277"><ele>1072.0</ele><time>2026-04-23T09:53:48.999Z</time></trkpt><trkpt lat="46.36688519396396" lon="12.47277409922196"><ele>1072.0</ele><time>2026-04-23T09:53:50.999Z</time></trkpt><trkpt lat="46.36679999525084" lon="12.472754187803204"><ele>1072.0</ele><time>2026-04-23T09:53:52.999Z</time></trkpt><trkpt lat="46.36671506183135" lon="12.47272833383879"><ele>1072.0</ele><time>2026-04-23T09:53:54.999Z</time></trkpt><trkpt lat="46.36662236824892" lon="12.472693339958983"><ele>1072.0</ele><time>2026-04-23T09:53:56.999Z</time></trkpt><trkpt lat="46.36652358985051" lon="12.472667851448417"><ele>1072.0</ele><time>2026-04-23T09:53:58.999Z</time></trkpt><trkpt lat="46.36641280904476" lon="12.472636599224575"><ele>1072.0</ele><time>2026-04-23T09:54:00.999Z</time></trkpt><trkpt lat="46.36629477816933" lon="12.472594274243166"><ele>1072.0</ele><time>2026-04-23T09:54:02.999Z</time></trkpt><trkpt lat="46.36622940544109" lon="12.472572582101945"><ele>1070.5714285714287</ele><time>2026-04-23T09:54:03.999Z</time></trkpt><trkpt lat="46.36616465020695" lon="12.47255705158178"><ele>1069.142857142857</ele><time>2026-04-23T09:54:04.999Z</time></trkpt><trkpt lat="46.366101938404285" lon="12.472532830899015"><ele>1067.7142857142858</ele><time>2026-04-23T09:54:05.999Z</time></trkpt><trkpt lat="46.36604058013082" lon="12.472485158065362"><ele>1066.2857142857142</ele><time>2026-04-23T09:54:06.999Z</time></trkpt><trkpt lat="46.36597924057354" lon="12.472424320795007"><ele>1064.857142857143</ele><time>2026-04-23T09:54:07.999Z</time></trkpt><trkpt lat="46.36591510331244" lon="12.472350668124148"><ele>1063.4285714285716</ele><time>2026-04-23T09:54:08.999Z</time></trkpt><trkpt lat="46.36585441889073" lon="12.472281499109117"><ele>1062.0</ele><time>2026-04-23T09:54:09.999Z</time></trkpt><trkpt lat="46.365798062614815" lon="12.472224818104033"><ele>1062.0</ele><time>2026-04-23T09:54:10.999Z</time></trkpt><trkpt lat="46.3657041401266" lon="12.472132888153267"><ele>1062.0</ele><time>2026-04-23T09:54:12.999Z</time></trkpt><trkpt lat="46.36562023926565" lon="12.472033947415525"><ele>1062.0</ele><time>2026-04-23T09:54:14.999Z</time></trkpt><trkpt lat="46.36553760765845" lon="12.471954781872814"><ele>1062.0</ele><time>2026-04-23T09:54:16.999Z</time></trkpt><trkpt lat="46.3654562746774" lon="12.471881927425757"><ele>1062.0</ele><time>2026-04-23T09:54:18.999Z</time></trkpt><trkpt lat="46.365374385569325" lon="12.47178951697676"><ele>1060.8</ele><time>2026-04-23T09:54:20.999Z</time></trkpt><trkpt lat="46.36528858864611" lon="12.471694629501576"><ele>1059.6</ele><time>2026-04-23T09:54:22.999Z</time></trkpt><trkpt lat="46.3652066356334" lon="12.471589166635237"><ele>1058.3999999999999</ele><time>2026-04-23T09:54:24.999Z</time></trkpt><trkpt lat="46.36511182465164" lon="12.471482575467439"><ele>1057.2</ele><time>2026-04-23T09:54:26.998Z</time></trkpt><trkpt lat="46.36503217968247" lon="12.471376242158371"><ele>1056.0</ele><time>2026-04-23T09:54:28.998Z</time></trkpt><trkpt lat="46.36498061055988" lon="12.471317720208432"><ele>1055.6666666666667</ele><time>2026-04-23T09:54:29.998Z</time></trkpt><trkpt lat="46.36493006089932" lon="12.471258233314254"><ele>1055.3333333333333</ele><time>2026-04-23T09:54:30.998Z</time></trkpt><trkpt lat="46.36486684724034" lon="12.471182388867257"><ele>1055.0</ele><time>2026-04-23T09:54:32.998Z</time></trkpt><trkpt lat="46.364810437050124" lon="12.471123138285753"><ele>1054.6666666666665</ele><time>2026-04-23T09:54:35.998Z</time></trkpt><trkpt lat="46.3647424113993" lon="12.47103709456641"><ele>1054.3333333333333</ele><time>2026-04-23T09:54:38.998Z</time></trkpt><trkpt lat="46.36468777582257" lon="12.470977713665278"><ele>1054.0</ele><time>2026-04-23T09:54:40.998Z</time></trkpt><trkpt lat="46.36462350487244" lon="12.470916673463938"><ele>1054.0</ele><time>2026-04-23T09:54:42.998Z</time></trkpt><trkpt lat="46.36453610925221" lon="12.470836498570957"><ele>1054.0</ele><time>2026-04-23T09:54:44.998Z</time></trkpt><trkpt lat="46.36443931188739" lon="12.470776403100778"><ele>1054.0</ele><time>2026-04-23T09:54:46.998Z</time></trkpt><trkpt lat="46.36437592780238" lon="12.470752534259546"><ele>1054.0</ele><time>2026-04-23T09:54:50.998Z</time></trkpt><trkpt lat="46.36431356560712" lon="12.470733546760282"><ele>1054.0</ele><time>2026-04-23T09:54:56Z</time></trkpt><trkpt lat="46.36424656543394" lon="12.470714511621628"><ele>1054.0</ele><time>2026-04-23T09:54:59Z</time></trkpt><trkpt lat="46.364171260282795" lon="12.470699099435572"><ele>1054.0</ele><time>2026-04-23T09:55:01Z</time></trkpt><trkpt lat="46.364066092838854" lon="12.470669019021221"><ele>1054.0</ele><time>2026-04-23T09:55:03Z</time></trkpt><trkpt lat="46.36400016602464" lon="12.470645829132259"><ele>1054.0</ele><time>2026-04-23T09:55:04Z</time></trkpt><trkpt lat="46.36392673292547" lon="12.470625055369299"><ele>1054.0</ele><time>2026-04-23T09:55:05Z</time></trkpt><trkpt lat="46.3638475309296" lon="12.470607699926436"><ele>1054.0</ele><time>2026-04-23T09:55:06Z</time></trkpt><trkpt lat="46.36377192278311" lon="12.47059132344645"><ele>1054.0</ele><time>2026-04-23T09:55:07Z</time></trkpt><trkpt lat="46.36369894650641" lon="12.47057413465562"><ele>1052.1666666666665</ele><time>2026-04-23T09:55:08Z</time></trkpt><trkpt lat="46.363629438834494" lon="12.470568783668961"><ele>1050.3333333333333</ele><time>2026-04-23T09:55:09Z</time></trkpt><trkpt lat="46.36356063472" lon="12.470584625129193"><ele>1048.5</ele><time>2026-04-23T09:55:10Z</time></trkpt><trkpt lat="46.363491831421626" lon="12.47062233486289"><ele>1046.6666666666667</ele><time>2026-04-23T09:55:11Z</time></trkpt><trkpt lat="46.363427805946266" lon="12.470688080328951"><ele>1044.8333333333335</ele><time>2026-04-23T09:55:12Z</time></trkpt><trkpt lat="46.36336978797517" lon="12.470783493915995"><ele>1043.0</ele><time>2026-04-23T09:55:13Z</time></trkpt><trkpt lat="46.3633140711075" lon="12.470889503216103"><ele>1043.0</ele><time>2026-04-23T09:55:14Z</time></trkpt><trkpt lat="46.36325731776564" lon="12.471001000621808"><ele>1043.0</ele><time>2026-04-23T09:55:15Z</time></trkpt><trkpt lat="46.36319345275423" lon="12.471114133813938"><ele>1043.0</ele><time>2026-04-23T09:55:16Z</time></trkpt><trkpt lat="46.36313181301127" lon="12.471226009594535"><ele>1043.0</ele><time>2026-04-23T09:55:17Z</time></trkpt><trkpt lat="46.36307738236123" lon="12.471332938043636"><ele>1043.0</ele><time>2026-04-23T09:55:18Z</time></trkpt><trkpt lat="46.36303004562881" lon="12.471430612362754"><ele>1040.857142857143</ele><time>2026-04-23T09:55:19Z</time></trkpt><trkpt lat="46.36298286132896" lon="12.471510674606026"><ele>1038.7142857142858</ele><time>2026-04-23T09:55:20Z</time></trkpt><trkpt lat="46.362927037206525" lon="12.47156569745672"><ele>1036.5714285714284</ele><time>2026-04-23T09:55:21Z</time></trkpt><trkpt lat="46.3628623264421" lon="12.471593776494931"><ele>1034.4285714285716</ele><time>2026-04-23T09:55:22Z</time></trkpt><trkpt lat="46.36278847377114" lon="12.471582776111546"><ele>1032.2857142857142</ele><time>2026-04-23T09:55:23Z</time></trkpt><trkpt lat="46.36271251272882" lon="12.471546244610439"><ele>1030.142857142857</ele><time>2026-04-23T09:55:24Z</time></trkpt><trkpt lat="46.36263332326282" lon="12.47150184408121"><ele>1028.0</ele><time>2026-04-23T09:55:25Z</time></trkpt><trkpt lat="46.36254806752066" lon="12.471457637900322"><ele>1028.0</ele><time>2026-04-23T09:55:26Z</time></trkpt><trkpt lat="46.36245825846573" lon="12.471407183364628"><ele>1028.0</ele><time>2026-04-23T09:55:26.999Z</time></trkpt><trkpt lat="46.3623642728417" lon="12.47134902083333"><ele>1028.0</ele><time>2026-04-23T09:55:27.999Z</time></trkpt><trkpt lat="46.36226231041612" lon="12.471296693444948"><ele>1028.0</ele><time>2026-04-23T09:55:28.999Z</time></trkpt><trkpt lat="46.36215484408019" lon="12.471253209117869"><ele>1028.0</ele><time>2026-04-23T09:55:29.999Z</time></trkpt><trkpt lat="46.36204291299799" lon="12.471213881593277"><ele>1026.0</ele><time>2026-04-23T09:55:30.999Z</time></trkpt><trkpt lat="46.36192660776279" lon="12.471175129021825"><ele>1024.0</ele><time>2026-04-23T09:55:31.999Z</time></trkpt><trkpt lat="46.36180673253917" lon="12.471133865666948"><ele>1022.0</ele><time>2026-04-23T09:55:32.999Z</time></trkpt><trkpt lat="46.36169898908431" lon="12.471093814907364"><ele>1020.0</ele><time>2026-04-23T09:55:33.999Z</time></trkpt><trkpt lat="46.36160119144137" lon="12.471052141891583"><ele>1020.0</ele><time>2026-04-23T09:55:34.999Z</time></trkpt><trkpt lat="46.361510429352066" lon="12.471005200930538"><ele>1020.0</ele><time>2026-04-23T09:55:35.999Z</time></trkpt><trkpt lat="46.361421110144406" lon="12.470957813491372"><ele>1020.0</ele><time>2026-04-23T09:55:36.999Z</time></trkpt><trkpt lat="46.36133871675554" lon="12.470910636018592"><ele>1020.0</ele><time>2026-04-23T09:55:37.999Z</time></trkpt><trkpt lat="46.361263088460255" lon="12.470848446895198"><ele>1020.0</ele><time>2026-04-23T09:55:38.999Z</time></trkpt><trkpt lat="46.361190719381135" lon="12.470765358890473"><ele>1018.6</ele><time>2026-04-23T09:55:39.999Z</time></trkpt><trkpt lat="46.36112268916881" lon="12.470663015590377"><ele>1017.2</ele><time>2026-04-23T09:55:40.999Z</time></trkpt><trkpt lat="46.36105501353547" lon="12.47055568622594"><ele>1015.8</ele><time>2026-04-23T09:55:41.999Z</time></trkpt><trkpt lat="46.36098503370248" lon="12.47044321196493"><ele>1014.4</ele><time>2026-04-23T09:55:42.999Z</time></trkpt><trkpt lat="46.36091438494522" lon="12.470330660933543"><ele>1013.0</ele><time>2026-04-23T09:55:43.999Z</time></trkpt><trkpt lat="46.36085515719917" lon="12.47023703860346"><ele>1013.0000000000001</ele><time>2026-04-23T09:55:44.999Z</time></trkpt><trkpt lat="46.360810534125825" lon="12.470170488200676"><ele>1013.0</ele><time>2026-04-23T09:55:45.999Z</time></trkpt><trkpt lat="46.36069380887397" lon="12.470116252649051"><ele>1013.0</ele><time>2026-04-23T09:55:47.999Z</time></trkpt><trkpt lat="46.360622857827046" lon="12.470131653407224"><ele>1013.0</ele><time>2026-04-23T09:55:48.999Z</time></trkpt><trkpt lat="46.36054976785861" lon="12.470149586918254"><ele>1013.0000000000001</ele><time>2026-04-23T09:55:49.999Z</time></trkpt><trkpt lat="46.360469822515256" lon="12.470159191472652"><ele>1013.0</ele><time>2026-04-23T09:55:50.999Z</time></trkpt><trkpt lat="46.360382846750234" lon="12.47015148094206"><ele>1011.2</ele><time>2026-04-23T09:55:51.999Z</time></trkpt><trkpt lat="46.360289334664905" lon="12.470132929566585"><ele>1009.4</ele><time>2026-04-23T09:55:52.999Z</time></trkpt><trkpt lat="46.3601924411711" lon="12.470109141279952"><ele>1007.6000000000001</ele><time>2026-04-23T09:55:53.999Z</time></trkpt><trkpt lat="46.36009898089901" lon="12.47009002771987"><ele>1005.8000000000001</ele><time>2026-04-23T09:55:54.999Z</time></trkpt><trkpt lat="46.36001579250154" lon="12.470080246622315"><ele>1004.0</ele><time>2026-04-23T09:55:55.999Z</time></trkpt><trkpt lat="46.35993682575019" lon="12.470093541952346"><ele>1004.0000000000001</ele><time>2026-04-23T09:55:56.999Z</time></trkpt><trkpt lat="46.35986133628776" lon="12.470129168691543"><ele>1004.0</ele><time>2026-04-23T09:55:57.999Z</time></trkpt><trkpt lat="46.359791760308575" lon="12.470175478690319"><ele>1004.0</ele><time>2026-04-23T09:55:58.999Z</time></trkpt><trkpt lat="46.35972113345086" lon="12.470221920109962"><ele>1004.0</ele><time>2026-04-23T09:55:59.999Z</time></trkpt><trkpt lat="46.3596499717857" lon="12.470265192886778"><ele>1004.0000000000001</ele><time>2026-04-23T09:56:00.999Z</time></trkpt><trkpt lat="46.35958025019485" lon="12.470308744668332"><ele>1004.0</ele><time>2026-04-23T09:56:01.999Z</time></trkpt><trkpt lat="46.35950973649132" lon="12.470348823518442"><ele>1002.5714285714284</ele><time>2026-04-23T09:56:02.999Z</time></trkpt><trkpt lat="46.359439759794384" lon="12.470387509066205"><ele>1001.1428571428571</ele><time>2026-04-23T09:56:03.999Z</time></trkpt><trkpt lat="46.35936827251168" lon="12.470419803782168"><ele>999.7142857142857</ele><time>2026-04-23T09:56:04.999Z</time></trkpt><trkpt lat="46.35929847050345" lon="12.47045705453871"><ele>998.2857142857142</ele><time>2026-04-23T09:56:05.999Z</time></trkpt><trkpt lat="46.35923168989267" lon="12.470499092080699"><ele>996.8571428571429</ele><time>2026-04-23T09:56:06.999Z</time></trkpt><trkpt lat="46.3591685737575" lon="12.470534080995249"><ele>995.4285714285714</ele><time>2026-04-23T09:56:07.999Z</time></trkpt><trkpt lat="46.359107630589634" lon="12.470561737354997"><ele>994.0</ele><time>2026-04-23T09:56:08.999Z</time></trkpt><trkpt lat="46.35904470122713" lon="12.470593308708887"><ele>994.0</ele><time>2026-04-23T09:56:09.999Z</time></trkpt><trkpt lat="46.358982182241064" lon="12.470625504768025"><ele>994.0</ele><time>2026-04-23T09:56:10.999Z</time></trkpt><trkpt lat="46.35891871164855" lon="12.470650731002324"><ele>994.0</ele><time>2026-04-23T09:56:11.999Z</time></trkpt><trkpt lat="46.35885527858647" lon="12.47068143819414"><ele>994.0</ele><time>2026-04-23T09:56:12.999Z</time></trkpt><trkpt lat="46.358794231070476" lon="12.470719975396326"><ele>994.0</ele><time>2026-04-23T09:56:13.999Z</time></trkpt><trkpt lat="46.358730422555965" lon="12.470751064795875"><ele>994.0</ele><time>2026-04-23T09:56:14.999Z</time></trkpt><trkpt lat="46.358664571844876" lon="12.470781134593565"><ele>994.0</ele><time>2026-04-23T09:56:15.999Z</time></trkpt><trkpt lat="46.358607233010055" lon="12.470825564515133"><ele>992.6666666666666</ele><time>2026-04-23T09:56:16.999Z</time></trkpt><trkpt lat="46.35855033649858" lon="12.470870597504176"><ele>991.3333333333333</ele><time>2026-04-23T09:56:17.999Z</time></trkpt><trkpt lat="46.358485780509056" lon="12.47090857949151"><ele>990.0</ele><time>2026-04-23T09:56:18.999Z</time></trkpt><trkpt lat="46.358418954668295" lon="12.470937867233523"><ele>988.6666666666667</ele><time>2026-04-23T09:56:19.999Z</time></trkpt><trkpt lat="46.35835264458889" lon="12.470966712677251"><ele>987.3333333333334</ele><time>2026-04-23T09:56:20.999Z</time></trkpt><trkpt lat="46.35828659447179" lon="12.470992290877811"><ele>986.0</ele><time>2026-04-23T09:56:21.999Z</time></trkpt><trkpt lat="46.358177549417896" lon="12.471032095269457"><ele>986.0</ele><time>2026-04-23T09:56:23.999Z</time></trkpt><trkpt lat="46.35811112198588" lon="12.471034204079736"><ele>985.9999999999999</ele><time>2026-04-23T09:56:25.999Z</time></trkpt><trkpt lat="46.35803316793913" lon="12.471003845811243"><ele>985.9999999999999</ele><time>2026-04-23T09:56:27.999Z</time></trkpt><trkpt lat="46.35794999311783" lon="12.47093112381588"><ele>986.0</ele><time>2026-04-23T09:56:29.999Z</time></trkpt><trkpt lat="46.35785504482794" lon="12.47084768494368"><ele>986.0</ele><time>2026-04-23T09:56:31.999Z</time></trkpt><trkpt lat="46.35774975270668" lon="12.47076506308045"><ele>987.4285714285713</ele><time>2026-04-23T09:56:33.999Z</time></trkpt><trkpt lat="46.35769058461278" lon="12.470732930848852"><ele>988.8571428571429</ele><time>2026-04-23T09:56:34.998Z</time></trkpt><trkpt lat="46.35762612424644" lon="12.470707182727299"><ele>990.2857142857142</ele><time>2026-04-23T09:56:35.998Z</time></trkpt><trkpt lat="46.35755720664038" lon="12.470700507250799"><ele>991.7142857142857</ele><time>2026-04-23T09:56:36.998Z</time></trkpt><trkpt lat="46.35749243972846" lon="12.470695049203108"><ele>993.1428571428571</ele><time>2026-04-23T09:56:37.998Z</time></trkpt><trkpt lat="46.35742308503924" lon="12.470646274750447"><ele>994.5714285714286</ele><time>2026-04-23T09:56:38.998Z</time></trkpt><trkpt lat="46.35735466290949" lon="12.47058600570643"><ele>996.0</ele><time>2026-04-23T09:56:39.998Z</time></trkpt><trkpt lat="46.35728510367747" lon="12.470521476153689"><ele>996.0</ele><time>2026-04-23T09:56:40.998Z</time></trkpt><trkpt lat="46.35721825522498" lon="12.470463290053448"><ele>996.0</ele><time>2026-04-23T09:56:41.998Z</time></trkpt><trkpt lat="46.357143270481274" lon="12.47041321677722"><ele>996.0</ele><time>2026-04-23T09:56:42.998Z</time></trkpt><trkpt lat="46.357064679046616" lon="12.47036623220292"><ele>996.0</ele><time>2026-04-23T09:56:43.998Z</time></trkpt><trkpt lat="46.35698569405505" lon="12.470320682815487"><ele>996.0</ele><time>2026-04-23T09:56:44.998Z</time></trkpt><trkpt lat="46.35690222380124" lon="12.470272933434233"><ele>996.0</ele><time>2026-04-23T09:56:45.998Z</time></trkpt><trkpt lat="46.356816909536924" lon="12.470231464607709"><ele>992.1999999999999</ele><time>2026-04-23T09:56:46.998Z</time></trkpt><trkpt lat="46.35673186271461" lon="12.470190411962477"><ele>988.3999999999999</ele><time>2026-04-23T09:56:47.998Z</time></trkpt><trkpt lat="46.35664862692623" lon="12.470149014374183"><ele>984.6</ele><time>2026-04-23T09:56:48.998Z</time></trkpt><trkpt lat="46.35655557522045" lon="12.470114434041111"><ele>980.8</ele><time>2026-04-23T09:56:49.998Z</time></trkpt><trkpt lat="46.356456695872616" lon="12.470095654684421"><ele>977.0</ele><time>2026-04-23T09:56:50.998Z</time></trkpt><trkpt lat="46.35636978114753" lon="12.470102479530873"><ele>975.8</ele><time>2026-04-23T09:56:51.998Z</time></trkpt><trkpt lat="46.35627891698176" lon="12.470104176179431"><ele>974.6</ele><time>2026-04-23T09:56:52.998Z</time></trkpt><trkpt lat="46.356179679231474" lon="12.470091554615212"><ele>973.3999999999999</ele><time>2026-04-23T09:56:53.998Z</time></trkpt><trkpt lat="46.35607944037658" lon="12.470067437431432"><ele>972.1999999999999</ele><time>2026-04-23T09:56:54.998Z</time></trkpt><trkpt lat="46.355979446609645" lon="12.47005975674911"><ele>971.0</ele><time>2026-04-23T09:56:55.998Z</time></trkpt><trkpt lat="46.355879232896285" lon="12.470084687774975"><ele>971.0</ele><time>2026-04-23T09:56:56.998Z</time></trkpt><trkpt lat="46.355783406765134" lon="12.470088938881455"><ele>970.9999999999999</ele><time>2026-04-23T09:56:57.998Z</time></trkpt><trkpt lat="46.35568580110395" lon="12.470088844028258"><ele>970.9999999999999</ele><time>2026-04-23T09:56:59Z</time></trkpt><trkpt lat="46.355585758077325" lon="12.470105376818264"><ele>971.0</ele><time>2026-04-23T09:57:00Z</time></trkpt><trkpt lat="46.35548541861125" lon="12.470103573503728"><ele>971.0</ele><time>2026-04-23T09:57:01Z</time></trkpt><trkpt lat="46.35538839874155" lon="12.470111508194169"><ele>970.5999999999999</ele><time>2026-04-23T09:57:02Z</time></trkpt><trkpt lat="46.35529303216083" lon="12.470089317420403"><ele>970.1999999999999</ele><time>2026-04-23T09:57:03Z</time></trkpt><trkpt lat="46.355200055841635" lon="12.470046620053203"><ele>969.8000000000001</ele><time>2026-04-23T09:57:04Z</time></trkpt><trkpt lat="46.35510926896619" lon="12.470002971193443"><ele>969.4000000000001</ele><time>2026-04-23T09:57:05Z</time></trkpt><trkpt lat="46.35502142670074" lon="12.469983971684977"><ele>969.0</ele><time>2026-04-23T09:57:06Z</time></trkpt><trkpt lat="46.354938733495054" lon="12.469974542466923"><ele>969.0</ele><time>2026-04-23T09:57:07Z</time></trkpt><trkpt lat="46.35485724066962" lon="12.4699366448754"><ele>969.0</ele><time>2026-04-23T09:57:08Z</time></trkpt><trkpt lat="46.35478714883546" lon="12.469877634164495"><ele>969.0</ele><time>2026-04-23T09:57:09Z</time></trkpt><trkpt lat="46.35472232455565" lon="12.4698331936167"><ele>969.0</ele><time>2026-04-23T09:57:10Z</time></trkpt><trkpt lat="46.35465449902006" lon="12.469805503729406"><ele>969.0</ele><time>2026-04-23T09:57:11Z</time></trkpt><trkpt lat="46.35457213367753" lon="12.469786619616"><ele>969.0</ele><time>2026-04-23T09:57:12Z</time></trkpt><trkpt lat="46.35448931980423" lon="12.46978957661247"><ele>968.0</ele><time>2026-04-23T09:57:13Z</time></trkpt><trkpt lat="46.35441537463444" lon="12.469808132825692"><ele>967.0</ele><time>2026-04-23T09:57:14Z</time></trkpt><trkpt lat="46.354288130994306" lon="12.469854829094876"><ele>966.0</ele><time>2026-04-23T09:57:16Z</time></trkpt><trkpt lat="46.35422021410113" lon="12.469877485949853"><ele>965.0</ele><time>2026-04-23T09:57:17Z</time></trkpt><trkpt lat="46.354147440940274" lon="12.46987498226816"><ele>964.0</ele><time>2026-04-23T09:57:18Z</time></trkpt><trkpt lat="46.35406068551683" lon="12.469849110739537"><ele>963.0</ele><time>2026-04-23T09:57:19Z</time></trkpt><trkpt lat="46.353973537966226" lon="12.469816389501316"><ele>963.0</ele><time>2026-04-23T09:57:20Z</time></trkpt><trkpt lat="46.353881504844786" lon="12.469770538399942"><ele>963.0</ele><time>2026-04-23T09:57:21Z</time></trkpt><trkpt lat="46.35378595438417" lon="12.469717699049463"><ele>963.0</ele><time>2026-04-23T09:57:22Z</time></trkpt><trkpt lat="46.3536879733449" lon="12.46966279588941"><ele>963.0</ele><time>2026-04-23T09:57:23Z</time></trkpt><trkpt lat="46.35359012903467" lon="12.469614066322178"><ele>963.0</ele><time>2026-04-23T09:57:24Z</time></trkpt><trkpt lat="46.353493177228614" lon="12.469570074676872"><ele>959.8</ele><time>2026-04-23T09:57:25Z</time></trkpt><trkpt lat="46.35340586973089" lon="12.469539140117154"><ele>956.5999999999999</ele><time>2026-04-23T09:57:26Z</time></trkpt><trkpt lat="46.35331395514538" lon="12.469498636294121"><ele>953.4000000000001</ele><time>2026-04-23T09:57:27Z</time></trkpt><trkpt lat="46.35322426237274" lon="12.469458424281836"><ele>950.2</ele><time>2026-04-23T09:57:28Z</time></trkpt><trkpt lat="46.353132959608914" lon="12.469427960567087"><ele>947.0</ele><time>2026-04-23T09:57:29Z</time></trkpt><trkpt lat="46.35305122298132" lon="12.469411967040141"><ele>946.8333333333334</ele><time>2026-04-23T09:57:30Z</time></trkpt><trkpt lat="46.35297160820068" lon="12.46940264124101"><ele>946.6666666666667</ele><time>2026-04-23T09:57:31Z</time></trkpt><trkpt lat="46.352891475064595" lon="12.469387177922727"><ele>946.5</ele><time>2026-04-23T09:57:32Z</time></trkpt><trkpt lat="46.35281220036871" lon="12.469394004892944"><ele>946.3333333333333</ele><time>2026-04-23T09:57:33Z</time></trkpt><trkpt lat="46.35273754390033" lon="12.46941597344566"><ele>946.1666666666666</ele><time>2026-04-23T09:57:34Z</time></trkpt><trkpt lat="46.352667894271036" lon="12.469441289609401"><ele>946.0</ele><time>2026-04-23T09:57:35Z</time></trkpt><trkpt lat="46.352599268781304" lon="12.469471264326788"><ele>946.0</ele><time>2026-04-23T09:57:35.999Z</time></trkpt><trkpt lat="46.352531585241394" lon="12.46949996796188"><ele>946.0</ele><time>2026-04-23T09:57:36.999Z</time></trkpt><trkpt lat="46.35246695948061" lon="12.469534229395073"><ele>946.0</ele><time>2026-04-23T09:57:37.999Z</time></trkpt><trkpt lat="46.352407792739726" lon="12.469577792378423"><ele>946.0</ele><time>2026-04-23T09:57:38.999Z</time></trkpt><trkpt lat="46.3523469614354" lon="12.46961884988409"><ele>946.0</ele><time>2026-04-23T09:57:39.999Z</time></trkpt><trkpt lat="46.352290081673324" lon="12.469663214481075"><ele>946.0</ele><time>2026-04-23T09:57:40.999Z</time></trkpt><trkpt lat="46.352233627066965" lon="12.469712935384873"><ele>946.0</ele><time>2026-04-23T09:57:41.999Z</time></trkpt><trkpt lat="46.35212458689741" lon="12.46980150315247"><ele>945.0</ele><time>2026-04-23T09:57:43.999Z</time></trkpt><trkpt lat="46.352016314862766" lon="12.469867089813034"><ele>943.9999999999999</ele><time>2026-04-23T09:57:45.999Z</time></trkpt><trkpt lat="46.35190839085444" lon="12.469931809237991"><ele>942.9999999999999</ele><time>2026-04-23T09:57:47.999Z</time></trkpt><trkpt lat="46.351804731057236" lon="12.469959875204225"><ele>942.0</ele><time>2026-04-23T09:57:49.999Z</time></trkpt><trkpt lat="46.351705180335294" lon="12.469995229017691"><ele>941.0</ele><time>2026-04-23T09:57:51.999Z</time></trkpt><trkpt lat="46.35160511468498" lon="12.470033960467475"><ele>941.0</ele><time>2026-04-23T09:57:53.999Z</time></trkpt><trkpt lat="46.351503097986935" lon="12.470057928089405"><ele>940.9999999999999</ele><time>2026-04-23T09:57:55.999Z</time></trkpt><trkpt lat="46.35140335955093" lon="12.470094443084731"><ele>940.9999999999999</ele><time>2026-04-23T09:57:57.999Z</time></trkpt><trkpt lat="46.35130758539451" lon="12.470123085318193"><ele>941.0</ele><time>2026-04-23T09:57:59.999Z</time></trkpt><trkpt lat="46.3512073216567" lon="12.470131400081161"><ele>941.0</ele><time>2026-04-23T09:58:01.999Z</time></trkpt><trkpt lat="46.351109735167235" lon="12.470155126698696"><ele>940.8333333333334</ele><time>2026-04-23T09:58:03.999Z</time></trkpt><trkpt lat="46.35101954619641" lon="12.470171527862636"><ele>940.6666666666667</ele><time>2026-04-23T09:58:05.999Z</time></trkpt><trkpt lat="46.35093006932702" lon="12.470187467302175"><ele>940.5</ele><time>2026-04-23T09:58:07.999Z</time></trkpt><trkpt lat="46.35084657038738" lon="12.470174699468263"><ele>940.3333333333333</ele><time>2026-04-23T09:58:09.999Z</time></trkpt><trkpt lat="46.35076918560495" lon="12.470147619535355"><ele>940.1666666666666</ele><time>2026-04-23T09:58:11.999Z</time></trkpt><trkpt lat="46.35069679316733" lon="12.470118560018395"><ele>940.0</ele><time>2026-04-23T09:58:13.999Z</time></trkpt><trkpt lat="46.35062510908767" lon="12.470113101670252"><ele>939.9999999999999</ele><time>2026-04-23T09:58:15.999Z</time></trkpt><trkpt lat="46.35055498993236" lon="12.470103415964733"><ele>940.0</ele><time>2026-04-23T09:58:17.999Z</time></trkpt><trkpt lat="46.3504887742307" lon="12.470082784553032"><ele>940.0</ele><time>2026-04-23T09:58:19.999Z</time></trkpt><trkpt lat="46.35039626280414" lon="12.470051973957759"><ele>940.0</ele><time>2026-04-23T09:58:22.999Z</time></trkpt><trkpt lat="46.350306544165775" lon="12.470039790676854"><ele>939.9999999999999</ele><time>2026-04-23T09:58:25.999Z</time></trkpt><trkpt lat="46.350221315913615" lon="12.470012577427788"><ele>940.0</ele><time>2026-04-23T09:58:28.999Z</time></trkpt><trkpt lat="46.35012958712767" lon="12.469994694225592"><ele>940.3333333333333</ele><time>2026-04-23T09:58:31.999Z</time></trkpt><trkpt lat="46.35004493355316" lon="12.46997111287003"><ele>940.6666666666666</ele><time>2026-04-23T09:58:34.999Z</time></trkpt><trkpt lat="46.34996495681358" lon="12.469948715644522"><ele>941.0</ele><time>2026-04-23T09:58:37.999Z</time></trkpt><trkpt lat="46.34989064453282" lon="12.469938859051389"><ele>941.3333333333333</ele><time>2026-04-23T09:58:40.999Z</time></trkpt><trkpt lat="46.34982399880579" lon="12.469904807090543"><ele>941.6666666666666</ele><time>2026-04-23T09:58:43.998Z</time></trkpt><trkpt lat="46.349752746191264" lon="12.46989199578785"><ele>942.0</ele><time>2026-04-23T09:58:46.998Z</time></trkpt><trkpt lat="46.349684624897876" lon="12.469868051203653"><ele>940.6666666666666</ele><time>2026-04-23T09:58:49.998Z</time></trkpt><trkpt lat="46.34961713110907" lon="12.469831091901499"><ele>939.3333333333333</ele><time>2026-04-23T09:58:52.998Z</time></trkpt><trkpt lat="46.34955514062429" lon="12.469781778903139"><ele>938.0</ele><time>2026-04-23T09:58:55.998Z</time></trkpt><trkpt lat="46.34948889096169" lon="12.469738856895743"><ele>936.6666666666666</ele><time>2026-04-23T09:58:58.998Z</time></trkpt><trkpt lat="46.34942385049527" lon="12.46963624134885"><ele>935.3333333333333</ele><time>2026-04-23T09:59:01.998Z</time></trkpt><trkpt lat="46.34933948561817" lon="12.46951975986431"><ele>934.0</ele><time>2026-04-23T09:59:03.998Z</time></trkpt><trkpt lat="46.34927095268864" lon="12.469381818988708"><ele>933.9999999999999</ele><time>2026-04-23T09:59:06Z</time></trkpt><trkpt lat="46.34921296474958" lon="12.46924409804162"><ele>934.0</ele><time>2026-04-23T09:59:08Z</time></trkpt><trkpt lat="46.34916482901908" lon="12.469136814539107"><ele>934.0</ele><time>2026-04-23T09:59:10Z</time></trkpt><trkpt lat="46.34914601056028" lon="12.469032726010873"><ele>934.0</ele><time>2026-04-23T09:59:13Z</time></trkpt><trkpt lat="46.34922758511984" lon="12.46901874282334"><ele>933.9999999999999</ele><time>2026-04-23T09:59:16Z</time></trkpt><trkpt lat="46.34929805637685" lon="12.469106018922744"><ele>934.0</ele><time>2026-04-23T09:59:18Z</time></trkpt><trkpt lat="46.34937404074071" lon="12.469234982886041"><ele>933.9999999999999</ele><time>2026-04-23T09:59:20Z</time></trkpt><trkpt lat="46.34942335738006" lon="12.469300690509197"><ele>934.0</ele><time>2026-04-23T09:59:21Z</time></trkpt><trkpt lat="46.349477898015216" lon="12.46936435771049"><ele>933.9999999999999</ele><time>2026-04-23T09:59:22Z</time></trkpt><trkpt lat="46.34953374515178" lon="12.469420355138075"><ele>933.9999999999999</ele><time>2026-04-23T09:59:23Z</time></trkpt><trkpt lat="46.34959049795736" lon="12.469472839535134"><ele>934.0</ele><time>2026-04-23T09:59:24Z</time></trkpt><trkpt lat="46.34964626741268" lon="12.469522878756473"><ele>933.9999999999999</ele><time>2026-04-23T09:59:25Z</time></trkpt><trkpt lat="46.34972758742913" lon="12.469592505730548"><ele>933.9999999999999</ele><time>2026-04-23T09:59:27Z</time></trkpt><trkpt lat="46.34979393569211" lon="12.469572851557926"><ele>933.0</ele><time>2026-04-23T09:59:30Z</time></trkpt><trkpt lat="46.349853173385334" lon="12.469453731847613"><ele>932.0000000000001</ele><time>2026-04-23T09:59:33Z</time></trkpt><trkpt lat="46.34989314490013" lon="12.469346569324102"><ele>931.0000000000001</ele><time>2026-04-23T09:59:35Z</time></trkpt><trkpt lat="46.34993531796729" lon="12.469238521882708"><ele>930.0</ele><time>2026-04-23T09:59:37Z</time></trkpt><trkpt lat="46.34999033213054" lon="12.469123405141707"><ele>929.0</ele><time>2026-04-23T09:59:39Z</time></trkpt><trkpt lat="46.350044957090766" lon="12.469001304595928"><ele>929.0</ele><time>2026-04-23T09:59:40.999Z</time></trkpt><trkpt lat="46.35011522802339" lon="12.46888619936736"><ele>929.0000000000001</ele><time>2026-04-23T09:59:42.999Z</time></trkpt><trkpt lat="46.35019329124902" lon="12.46879923797779"><ele>929.0000000000001</ele><time>2026-04-23T09:59:44.999Z</time></trkpt><trkpt lat="46.35028862186367" lon="12.468743014696631"><ele>929.0</ele><time>2026-04-23T09:59:46.999Z</time></trkpt><trkpt lat="46.350376692193365" lon="12.46869378203055"><ele>929.0</ele><time>2026-04-23T09:59:48.999Z</time></trkpt><trkpt lat="46.35047628825301" lon="12.468588095629206"><ele>931.75</ele><time>2026-04-23T09:59:50.999Z</time></trkpt><trkpt lat="46.35055060620792" lon="12.46844847521514"><ele>934.5</ele><time>2026-04-23T09:59:52.999Z</time></trkpt><trkpt lat="46.350600560788216" lon="12.468288778346066"><ele>937.25</ele><time>2026-04-23T09:59:54.999Z</time></trkpt><trkpt lat="46.35064958666069" lon="12.468128576078264"><ele>940.0</ele><time>2026-04-23T09:59:56.999Z</time></trkpt><trkpt lat="46.35070020563578" lon="12.467966121473035"><ele>940.6666666666666</ele><time>2026-04-23T09:59:58.999Z</time></trkpt><trkpt lat="46.350726638377694" lon="12.467883295762753"><ele>941.3333333333333</ele><time>2026-04-23T09:59:59.999Z</time></trkpt><trkpt lat="46.35075059241791" lon="12.467793972438125"><ele>942.0</ele><time>2026-04-23T10:00:00.999Z</time></trkpt><trkpt lat="46.35079171335839" lon="12.467642540087489"><ele>942.6666666666667</ele><time>2026-04-23T10:00:02.999Z</time></trkpt><trkpt lat="46.35082292316227" lon="12.467511307834538"><ele>943.3333333333334</ele><time>2026-04-23T10:00:04.999Z</time></trkpt><trkpt lat="46.350861146439556" lon="12.467361700791136"><ele>944.0</ele><time>2026-04-23T10:00:06.999Z</time></trkpt><trkpt lat="46.35091290485826" lon="12.467209275938984"><ele>945.0</ele><time>2026-04-23T10:00:08.999Z</time></trkpt><trkpt lat="46.35095130865118" lon="12.467061401388492"><ele>946.0000000000001</ele><time>2026-04-23T10:00:10.999Z</time></trkpt><trkpt lat="46.3510005426356" lon="12.466916882652956"><ele>947.0000000000001</ele><time>2026-04-23T10:00:12.999Z</time></trkpt><trkpt lat="46.35102904476354" lon="12.466789616702112"><ele>948.0</ele><time>2026-04-23T10:00:14.999Z</time></trkpt><trkpt lat="46.3510643851103" lon="12.46663491694864"><ele>949.0</ele><time>2026-04-23T10:00:16.999Z</time></trkpt><trkpt lat="46.35111555415139" lon="12.466487669457814"><ele>949.0</ele><time>2026-04-23T10:00:18.999Z</time></trkpt><trkpt lat="46.35121649977842" lon="12.466375652667924"><ele>949.0000000000001</ele><time>2026-04-23T10:00:20.999Z</time></trkpt><trkpt lat="46.35129191645423" lon="12.466250914133235"><ele>949.0000000000001</ele><time>2026-04-23T10:00:22.999Z</time></trkpt><trkpt lat="46.35133488118304" lon="12.466179938171166"><ele>949.0</ele><time>2026-04-23T10:00:23.999Z</time></trkpt><trkpt lat="46.35141160891147" lon="12.466046988372701"><ele>949.0</ele><time>2026-04-23T10:00:25.999Z</time></trkpt><trkpt lat="46.35148802986672" lon="12.465901785364302"><ele>951.6</ele><time>2026-04-23T10:00:27.999Z</time></trkpt><trkpt lat="46.35153020908622" lon="12.465834046957777"><ele>954.2</ele><time>2026-04-23T10:00:28.999Z</time></trkpt><trkpt lat="46.35161141814922" lon="12.465708284078003"><ele>956.8000000000001</ele><time>2026-04-23T10:00:30.999Z</time></trkpt><trkpt lat="46.35170460311895" lon="12.465606348790885"><ele>959.4000000000001</ele><time>2026-04-23T10:00:32.999Z</time></trkpt><trkpt lat="46.35181356261762" lon="12.465532288442185"><ele>962.0</ele><time>2026-04-23T10:00:34.999Z</time></trkpt><trkpt lat="46.35192904900378" lon="12.465501269076293"><ele>962.0</ele><time>2026-04-23T10:00:36.999Z</time></trkpt><trkpt lat="46.35204057730041" lon="12.465479650780248"><ele>962.0</ele><time>2026-04-23T10:00:38.999Z</time></trkpt><trkpt lat="46.35216524015043" lon="12.465493093140326"><ele>962.0</ele><time>2026-04-23T10:00:40.999Z</time></trkpt><trkpt lat="46.3522871191534" lon="12.465522129260961"><ele>962.0</ele><time>2026-04-23T10:00:42.999Z</time></trkpt><trkpt lat="46.35239085036344" lon="12.465569000059721"><ele>963.4000000000001</ele><time>2026-04-23T10:00:44.999Z</time></trkpt><trkpt lat="46.35248798531007" lon="12.465621099934632"><ele>964.8000000000001</ele><time>2026-04-23T10:00:46.999Z</time></trkpt><trkpt lat="46.352597816737294" lon="12.465687753997072"><ele>966.2</ele><time>2026-04-23T10:00:48.998Z</time></trkpt><trkpt lat="46.35271835529169" lon="12.46573973642672"><ele>967.6</ele><time>2026-04-23T10:00:50.998Z</time></trkpt><trkpt lat="46.35278201405865" lon="12.465751302534708"><ele>969.0</ele><time>2026-04-23T10:00:51.998Z</time></trkpt><trkpt lat="46.35285027175042" lon="12.465753385222195"><ele>969.0</ele><time>2026-04-23T10:00:52.998Z</time></trkpt><trkpt lat="46.35292009452164" lon="12.46575694772795"><ele>969.0</ele><time>2026-04-23T10:00:53.998Z</time></trkpt><trkpt lat="46.352988024639494" lon="12.46576271287921"><ele>969.0</ele><time>2026-04-23T10:00:54.998Z</time></trkpt><trkpt lat="46.35305091977657" lon="12.46577898257285"><ele>969.0</ele><time>2026-04-23T10:00:55.998Z</time></trkpt><trkpt lat="46.35316578230307" lon="12.46584602555731"><ele>969.0</ele><time>2026-04-23T10:00:57.998Z</time></trkpt><trkpt lat="46.35326082509666" lon="12.465933637859465"><ele>969.0</ele><time>2026-04-23T10:00:59.998Z</time></trkpt><trkpt lat="46.35332338634185" lon="12.465994340663794"><ele>971.8333333333334</ele><time>2026-04-23T10:01:00.998Z</time></trkpt><trkpt lat="46.35338404658042" lon="12.46604341553888"><ele>974.6666666666667</ele><time>2026-04-23T10:01:01.998Z</time></trkpt><trkpt lat="46.353488519205506" lon="12.466098000038963"><ele>977.5</ele><time>2026-04-23T10:01:03.998Z</time></trkpt><trkpt lat="46.35358404921848" lon="12.466136480634704"><ele>980.3333333333334</ele><time>2026-04-23T10:01:05.998Z</time></trkpt><trkpt lat="46.35367876273974" lon="12.466182968114099"><ele>983.1666666666667</ele><time>2026-04-23T10:01:07.998Z</time></trkpt><trkpt lat="46.353739078621686" lon="12.466209872993486"><ele>986.0</ele><time>2026-04-23T10:01:08.998Z</time></trkpt><trkpt lat="46.353799838903576" lon="12.466240082070904"><ele>986.0</ele><time>2026-04-23T10:01:09.998Z</time></trkpt><trkpt lat="46.35386795053131" lon="12.466275767717306"><ele>985.9999999999999</ele><time>2026-04-23T10:01:11Z</time></trkpt><trkpt lat="46.3539768947362" lon="12.466339372955261"><ele>985.9999999999999</ele><time>2026-04-23T10:01:13Z</time></trkpt><trkpt lat="46.35408897135929" lon="12.4663928199612"><ele>986.0</ele><time>2026-04-23T10:01:15Z</time></trkpt><trkpt lat="46.354205318037465" lon="12.466421487707668"><ele>986.0</ele><time>2026-04-23T10:01:17Z</time></trkpt><trkpt lat="46.35430406579621" lon="12.466455782302269"><ele>984.1999999999999</ele><time>2026-04-23T10:01:19Z</time></trkpt><trkpt lat="46.35440864774864" lon="12.46653419410694"><ele>982.3999999999999</ele><time>2026-04-23T10:01:21Z</time></trkpt><trkpt lat="46.35449896108403" lon="12.4666047010419"><ele>980.6</ele><time>2026-04-23T10:01:23Z</time></trkpt><trkpt lat="46.35457826414929" lon="12.466627907377216"><ele>978.8</ele><time>2026-04-23T10:01:26Z</time></trkpt><trkpt lat="46.354553167470684" lon="12.466512375631442"><ele>977.0</ele><time>2026-04-23T10:01:49.999Z</time></trkpt><trkpt lat="46.354491519581714" lon="12.466434777942364"><ele>977.0000000000001</ele><time>2026-04-23T10:01:51.999Z</time></trkpt><trkpt lat="46.35445125881004" lon="12.466363115211575"><ele>977.0</ele><time>2026-04-23T10:01:53.999Z</time></trkpt><trkpt lat="46.35438868038232" lon="12.466335392671889"><ele>977.0</ele><time>2026-04-23T10:01:55.999Z</time></trkpt><trkpt lat="46.354333932623035" lon="12.466275877786114"><ele>977.0</ele><time>2026-04-23T10:01:57.999Z</time></trkpt><trkpt lat="46.35426421271674" lon="12.466180519291003"><ele>977.0000000000001</ele><time>2026-04-23T10:02:00.999Z</time></trkpt><trkpt lat="46.35420525759814" lon="12.466101716995095"><ele>977.0</ele><time>2026-04-23T10:02:02.999Z</time></trkpt><trkpt lat="46.354140574202106" lon="12.4660182128096"><ele>978.5000000000001</ele><time>2026-04-23T10:02:04.999Z</time></trkpt><trkpt lat="46.354060736744785" lon="12.465921211415884"><ele>980.0</ele><time>2026-04-23T10:02:07.999Z</time></trkpt><trkpt lat="46.35399132015341" lon="12.465871074838224"><ele>981.5</ele><time>2026-04-23T10:02:09.999Z</time></trkpt><trkpt lat="46.35390916386685" lon="12.465825390738251"><ele>983.0</ele><time>2026-04-23T10:02:11.999Z</time></trkpt><trkpt lat="46.353837545339935" lon="12.465760189385675"><ele>984.5000000000001</ele><time>2026-04-23T10:02:13.999Z</time></trkpt><trkpt lat="46.35376844213842" lon="12.465690317292596"><ele>986.0</ele><time>2026-04-23T10:02:15.999Z</time></trkpt><trkpt lat="46.35370196141549" lon="12.46562181647557"><ele>986.0</ele><time>2026-04-23T10:02:17.999Z</time></trkpt><trkpt lat="46.35363819164507" lon="12.46555692639568"><ele>985.9999999999999</ele><time>2026-04-23T10:02:19.999Z</time></trkpt><trkpt lat="46.35353299915547" lon="12.465501562238632"><ele>985.9999999999999</ele><time>2026-04-23T10:02:21.999Z</time></trkpt><trkpt lat="46.35344685250737" lon="12.46542323484322"><ele>986.0</ele><time>2026-04-23T10:02:23.999Z</time></trkpt><trkpt lat="46.35337168841631" lon="12.465330436980361"><ele>986.0</ele><time>2026-04-23T10:02:25.999Z</time></trkpt><trkpt lat="46.35329685662571" lon="12.465236987225547"><ele>986.0</ele><time>2026-04-23T10:02:27.999Z</time></trkpt><trkpt lat="46.35321157637736" lon="12.465143948338916"><ele>985.9999999999999</ele><time>2026-04-23T10:02:29.999Z</time></trkpt><trkpt lat="46.353139334266125" lon="12.465051820629494"><ele>985.9999999999999</ele><time>2026-04-23T10:02:31.999Z</time></trkpt><trkpt lat="46.353074869039894" lon="12.46496227724645"><ele>986.0</ele><time>2026-04-23T10:02:33.999Z</time></trkpt><trkpt lat="46.35300692247653" lon="12.46485493025441"><ele>986.0</ele><time>2026-04-23T10:02:35.999Z</time></trkpt><trkpt lat="46.35293163975157" lon="12.464739422402436"><ele>986.0</ele><time>2026-04-23T10:02:37.999Z</time></trkpt><trkpt lat="46.352847778094635" lon="12.46462191267442"><ele>985.9999999999999</ele><time>2026-04-23T10:02:39.999Z</time></trkpt><trkpt lat="46.35277331513344" lon="12.464506436476334"><ele>985.9999999999999</ele><time>2026-04-23T10:02:41.999Z</time></trkpt><trkpt lat="46.352718895685996" lon="12.464435347452085"><ele>986.0</ele><time>2026-04-23T10:02:42.999Z</time></trkpt><trkpt lat="46.35264762253623" lon="12.464293616082113"><ele>986.0</ele><time>2026-04-23T10:02:44.999Z</time></trkpt><trkpt lat="46.352577869454265" lon="12.464201068396656"><ele>992.1999999999999</ele><time>2026-04-23T10:02:46.999Z</time></trkpt><trkpt lat="46.352529304235055" lon="12.464116372692168"><ele>998.3999999999999</ele><time>2026-04-23T10:02:47.999Z</time></trkpt><trkpt lat="46.35245190537935" lon="12.464008913682717"><ele>1004.6</ele><time>2026-04-23T10:02:49.999Z</time></trkpt><trkpt lat="46.35237017782602" lon="12.46393235211057"><ele>1010.8</ele><time>2026-04-23T10:02:51.999Z</time></trkpt><trkpt lat="46.352301019905894" lon="12.463892943524344"><ele>1017.0</ele><time>2026-04-23T10:02:53.999Z</time></trkpt><trkpt lat="46.35221587553103" lon="12.463789160583334"><ele>1020.0</ele><time>2026-04-23T10:02:55.998Z</time></trkpt><trkpt lat="46.35215373308173" lon="12.463705493857352"><ele>1023.0</ele><time>2026-04-23T10:03:34Z</time></trkpt><trkpt lat="46.35208600425442" lon="12.463675823488774"><ele>1026.0</ele><time>2026-04-23T10:03:36Z</time></trkpt><trkpt lat="46.35197629080136" lon="12.463629371407444"><ele>1029.0</ele><time>2026-04-23T10:03:38Z</time></trkpt><trkpt lat="46.35187700054844" lon="12.463598624975322"><ele>1032.0</ele><time>2026-04-23T10:03:40Z</time></trkpt><trkpt lat="46.35177344765692" lon="12.46355034954176"><ele>1032.0</ele><time>2026-04-23T10:03:42Z</time></trkpt><trkpt lat="46.35167116840296" lon="12.463492842551009"><ele>1032.0</ele><time>2026-04-23T10:03:44Z</time></trkpt><trkpt lat="46.351575345841" lon="12.46344368675842"><ele>1032.0</ele><time>2026-04-23T10:03:46Z</time></trkpt><trkpt lat="46.35148066798946" lon="12.463383764158344"><ele>1032.0</ele><time>2026-04-23T10:03:48Z</time></trkpt><trkpt lat="46.35137946183639" lon="12.463337564119122"><ele>1032.0</ele><time>2026-04-23T10:03:50Z</time></trkpt><trkpt lat="46.351273186766186" lon="12.463325023120436"><ele>1028.8</ele><time>2026-04-23T10:03:52Z</time></trkpt><trkpt lat="46.35116637117273" lon="12.463287332436108"><ele>1025.6</ele><time>2026-04-23T10:03:54Z</time></trkpt><trkpt lat="46.351079919206875" lon="12.463217227343746"><ele>1022.3999999999999</ele><time>2026-04-23T10:03:55.999Z</time></trkpt><trkpt lat="46.35101078005123" lon="12.463135419274153"><ele>1019.1999999999999</ele><time>2026-04-23T10:03:57.999Z</time></trkpt><trkpt lat="46.350945709917156" lon="12.462988170639296"><ele>1016.0</ele><time>2026-04-23T10:03:59.999Z</time></trkpt><trkpt lat="46.35094149272099" lon="12.462859969530422"><ele>1015.1999999999999</ele><time>2026-04-23T10:04:01.999Z</time></trkpt><trkpt lat="46.35097377000567" lon="12.4627551765859"><ele>1014.3999999999999</ele><time>2026-04-23T10:04:03.999Z</time></trkpt><trkpt lat="46.35104168460061" lon="12.462690660724927"><ele>1013.6</ele><time>2026-04-23T10:04:05.999Z</time></trkpt><trkpt lat="46.35112499437421" lon="12.46267708532295"><ele>1012.8</ele><time>2026-04-23T10:04:07.999Z</time></trkpt><trkpt lat="46.35121706308131" lon="12.462644331575897"><ele>1012.0</ele><time>2026-04-23T10:04:09.999Z</time></trkpt><trkpt lat="46.351320915273035" lon="12.462582195028332"><ele>1015.6</ele><time>2026-04-23T10:04:11.999Z</time></trkpt><trkpt lat="46.35142363062292" lon="12.462523057282228"><ele>1019.2</ele><time>2026-04-23T10:04:13.999Z</time></trkpt><trkpt lat="46.35151381558368" lon="12.462436269603707"><ele>1022.8</ele><time>2026-04-23T10:04:15.999Z</time></trkpt><trkpt lat="46.35156334233039" lon="12.462375823109571"><ele>1026.4</ele><time>2026-04-23T10:04:16.999Z</time></trkpt><trkpt lat="46.35165473498513" lon="12.462248819538091"><ele>1030.0</ele><time>2026-04-23T10:04:18.999Z</time></trkpt><trkpt lat="46.35171720035933" lon="12.462097287384712"><ele>1030.0</ele><time>2026-04-23T10:04:20.999Z</time></trkpt><trkpt lat="46.35178161975321" lon="12.461985100569526"><ele>1030.0</ele><time>2026-04-23T10:04:22.999Z</time></trkpt><trkpt lat="46.35186732924455" lon="12.46186188130571"><ele>1030.0</ele><time>2026-04-23T10:04:24.999Z</time></trkpt><trkpt lat="46.351925721287806" lon="12.461756602122408"><ele>1030.0</ele><time>2026-04-23T10:04:26.999Z</time></trkpt><trkpt lat="46.351969421908706" lon="12.461653590343872"><ele>1030.0</ele><time>2026-04-23T10:04:28.999Z</time></trkpt><trkpt lat="46.35200326886404" lon="12.461492659792913"><ele>1030.0</ele><time>2026-04-23T10:04:30.999Z</time></trkpt><trkpt lat="46.352005679327284" lon="12.461371801275787"><ele>1030.0</ele><time>2026-04-23T10:04:32.999Z</time></trkpt><trkpt lat="46.352020973413296" lon="12.461260719755368"><ele>1030.0</ele><time>2026-04-23T10:04:34.999Z</time></trkpt><trkpt lat="46.352000087711204" lon="12.461357473280199"><ele>1030.0</ele><time>2026-04-23T10:06:18.999Z</time></trkpt><trkpt lat="46.35200345895755" lon="12.461510625678768"><ele>1030.0</ele><time>2026-04-23T10:06:21.999Z</time></trkpt><trkpt lat="46.35197969347961" lon="12.461621998553722"><ele>1030.0</ele><time>2026-04-23T10:06:23.999Z</time></trkpt><trkpt lat="46.3519343423348" lon="12.461732521903876"><ele>1030.0</ele><time>2026-04-23T10:06:25.999Z</time></trkpt><trkpt lat="46.351880622622254" lon="12.461831878395278"><ele>1030.0</ele><time>2026-04-23T10:06:27.999Z</time></trkpt><trkpt lat="46.351813502529275" lon="12.461930292578169"><ele>1030.0</ele><time>2026-04-23T10:06:29.999Z</time></trkpt><trkpt lat="46.35175318683667" lon="12.462019082153018"><ele>1030.0</ele><time>2026-04-23T10:06:31.999Z</time></trkpt><trkpt lat="46.351705377607246" lon="12.462124985002358"><ele>1030.0</ele><time>2026-04-23T10:06:33.999Z</time></trkpt><trkpt lat="46.35165592220109" lon="12.462236460529251"><ele>1030.0</ele><time>2026-04-23T10:06:35.999Z</time></trkpt><trkpt lat="46.351612242834975" lon="12.462312589996932"><ele>1031.5</ele><time>2026-04-23T10:06:36.999Z</time></trkpt><trkpt lat="46.35154500673311" lon="12.462422255157218"><ele>1033.0</ele><time>2026-04-23T10:06:38.999Z</time></trkpt><trkpt lat="46.3514800534473" lon="12.46248797014462"><ele>1034.5</ele><time>2026-04-23T10:06:40.999Z</time></trkpt><trkpt lat="46.351402696141975" lon="12.462551921629156"><ele>1036.0</ele><time>2026-04-23T10:06:43.999Z</time></trkpt><trkpt lat="46.35133119850163" lon="12.46259090903933"><ele>1037.5</ele><time>2026-04-23T10:06:45.999Z</time></trkpt><trkpt lat="46.35126421135197" lon="12.462626382562787"><ele>1039.0</ele><time>2026-04-23T10:06:47.999Z</time></trkpt><trkpt lat="46.35119681005517" lon="12.462648094261024"><ele>1035.1666666666665</ele><time>2026-04-23T10:06:49.999Z</time></trkpt><trkpt lat="46.35111983910762" lon="12.462674008040862"><ele>1031.3333333333333</ele><time>2026-04-23T10:06:52.999Z</time></trkpt><trkpt lat="46.35103874167609" lon="12.4627009311517"><ele>1027.5</ele><time>2026-04-23T10:06:55.999Z</time></trkpt><trkpt lat="46.35097752394928" lon="12.462767947563853"><ele>1023.6666666666667</ele><time>2026-04-23T10:06:58.999Z</time></trkpt><trkpt lat="46.35094670880983" lon="12.462863288659236"><ele>1019.8333333333334</ele><time>2026-04-23T10:07:01.999Z</time></trkpt><trkpt lat="46.35094846074939" lon="12.462996803340543"><ele>1016.0</ele><time>2026-04-23T10:07:04.998Z</time></trkpt><trkpt lat="46.350988614184246" lon="12.463099156937336"><ele>1016.0</ele><time>2026-04-23T10:07:06.998Z</time></trkpt><trkpt lat="46.35104613592777" lon="12.463173372228953"><ele>1016.0</ele><time>2026-04-23T10:07:08.998Z</time></trkpt><trkpt lat="46.35110102036011" lon="12.463242418296963"><ele>1016.0</ele><time>2026-04-23T10:07:10.998Z</time></trkpt><trkpt lat="46.3511603699056" lon="12.463283841268405"><ele>1016.0</ele><time>2026-04-23T10:07:12.998Z</time></trkpt><trkpt lat="46.35122805120634" lon="12.463315296338493"><ele>1016.0</ele><time>2026-04-23T10:07:14.998Z</time></trkpt><trkpt lat="46.35131548325657" lon="12.463329293733661"><ele>1016.0</ele><time>2026-04-23T10:07:17.998Z</time></trkpt><trkpt lat="46.351382084851686" lon="12.463351694414493"><ele>1016.0</ele><time>2026-04-23T10:07:20.998Z</time></trkpt><trkpt lat="46.35147455898987" lon="12.463395066728006"><ele>1018.6666666666667</ele><time>2026-04-23T10:07:23.998Z</time></trkpt><trkpt lat="46.35155908843783" lon="12.463434586428562"><ele>1021.3333333333334</ele><time>2026-04-23T10:07:25.998Z</time></trkpt><trkpt lat="46.35163422499292" lon="12.463468420870056"><ele>1024.0</ele><time>2026-04-23T10:07:27.998Z</time></trkpt><trkpt lat="46.35170090304797" lon="12.463500125581247"><ele>1026.6666666666667</ele><time>2026-04-23T10:07:30Z</time></trkpt><trkpt lat="46.35176626839701" lon="12.463504693062296"><ele>1029.3333333333333</ele><time>2026-04-23T10:07:32Z</time></trkpt><trkpt lat="46.351847733707366" lon="12.463547400331834"><ele>1032.0</ele><time>2026-04-23T10:07:34Z</time></trkpt><trkpt lat="46.35190794138811" lon="12.463582343786051"><ele>1032.0</ele><time>2026-04-23T10:07:36Z</time></trkpt><trkpt lat="46.35200406583464" lon="12.463603269317685"><ele>1032.0</ele><time>2026-04-23T10:07:39Z</time></trkpt><trkpt lat="46.35208465694772" lon="12.463641500983817"><ele>1032.0</ele><time>2026-04-23T10:07:41Z</time></trkpt><trkpt lat="46.35214557907458" lon="12.463681479628782"><ele>1032.0</ele><time>2026-04-23T10:07:42Z</time></trkpt><trkpt lat="46.35221761841664" lon="12.463762484224555"><ele>1032.0</ele><time>2026-04-23T10:07:44Z</time></trkpt><trkpt lat="46.35228424585803" lon="12.463821256939298"><ele>1032.0</ele><time>2026-04-23T10:07:46Z</time></trkpt><trkpt lat="46.352355469110655" lon="12.463892864900732"><ele>1029.5</ele><time>2026-04-23T10:07:49Z</time></trkpt><trkpt lat="46.35240934798985" lon="12.46394736607061"><ele>1027.0</ele><time>2026-04-23T10:07:51Z</time></trkpt><trkpt lat="46.35247083794763" lon="12.464030322355246"><ele>1024.5</ele><time>2026-04-23T10:07:54Z</time></trkpt><trkpt lat="46.35252661467504" lon="12.464084854285442"><ele>1022.0</ele><time>2026-04-23T10:07:57Z</time></trkpt><trkpt lat="46.352586471615936" lon="12.464176594705348"><ele>1019.5</ele><time>2026-04-23T10:08:00Z</time></trkpt><trkpt lat="46.352654132163586" lon="12.464271876562728"><ele>1017.0</ele><time>2026-04-23T10:08:03.999Z</time></trkpt><trkpt lat="46.35269813394044" lon="12.464358209664429"><ele>1017.0</ele><time>2026-04-23T10:08:06.999Z</time></trkpt><trkpt lat="46.35276195833268" lon="12.464437413141605"><ele>1017.0</ele><time>2026-04-23T10:08:09.999Z</time></trkpt><trkpt lat="46.352830927086785" lon="12.464548008019117"><ele>1017.0</ele><time>2026-04-23T10:08:12.999Z</time></trkpt><trkpt lat="46.3528837249401" lon="12.464612339514755"><ele>1017.0</ele><time>2026-04-23T10:08:14.999Z</time></trkpt><trkpt lat="46.352925843209746" lon="12.464701310173007"><ele>1017.0</ele><time>2026-04-23T10:08:16.999Z</time></trkpt><trkpt lat="46.35297496653299" lon="12.464772142097152"><ele>1017.0</ele><time>2026-04-23T10:08:18.999Z</time></trkpt><trkpt lat="46.353018607596965" lon="12.4648409030028"><ele>1015.3333333333334</ele><time>2026-04-23T10:08:20.999Z</time></trkpt><trkpt lat="46.35307540850729" lon="12.464925763342162"><ele>1013.6666666666667</ele><time>2026-04-23T10:08:23.999Z</time></trkpt><trkpt lat="46.353127844630095" lon="12.46501385036106"><ele>1012.0</ele><time>2026-04-23T10:08:26.999Z</time></trkpt><trkpt lat="46.35317748278724" lon="12.465075769589102"><ele>1010.3333333333334</ele><time>2026-04-23T10:08:28.999Z</time></trkpt><trkpt lat="46.35324567473743" lon="12.465171026212685"><ele>1008.6666666666667</ele><time>2026-04-23T10:08:31.999Z</time></trkpt><trkpt lat="46.35330049966958" lon="12.465249335622318"><ele>1007.0</ele><time>2026-04-23T10:08:33.999Z</time></trkpt><trkpt lat="46.353363638513684" lon="12.465314126709922"><ele>1007.0000000000001</ele><time>2026-04-23T10:08:35.999Z</time></trkpt><trkpt lat="46.353410529292255" lon="12.465378015891625"><ele>1007.0</ele><time>2026-04-23T10:08:37.999Z</time></trkpt><trkpt lat="46.35346053153605" lon="12.465439169553338"><ele>1007.0</ele><time>2026-04-23T10:08:39.999Z</time></trkpt><trkpt lat="46.35353080912109" lon="12.46551976590097"><ele>1007.0</ele><time>2026-04-23T10:08:42.999Z</time></trkpt><trkpt lat="46.35363008137686" lon="12.4655459590274"><ele>1007.0000000000001</ele><time>2026-04-23T10:08:44.999Z</time></trkpt><trkpt lat="46.35370519580682" lon="12.465616293409107"><ele>1007.0</ele><time>2026-04-23T10:08:46.999Z</time></trkpt><trkpt lat="46.35375160973763" lon="12.465681401983407"><ele>1006.1666666666667</ele><time>2026-04-23T10:08:48.999Z</time></trkpt><trkpt lat="46.3538223990249" lon="12.465746809029365"><ele>1005.3333333333334</ele><time>2026-04-23T10:08:51.999Z</time></trkpt><trkpt lat="46.35388370081849" lon="12.465798836719532"><ele>1004.5</ele><time>2026-04-23T10:08:53.999Z</time></trkpt><trkpt lat="46.35395977340802" lon="12.465858378433342"><ele>1003.6666666666667</ele><time>2026-04-23T10:08:55.999Z</time></trkpt><trkpt lat="46.35403044132092" lon="12.465913247194733"><ele>1002.8333333333334</ele><time>2026-04-23T10:08:57.999Z</time></trkpt><trkpt lat="46.354095293416734" lon="12.465965840459058"><ele>1002.0</ele><time>2026-04-23T10:08:59.999Z</time></trkpt><trkpt lat="46.3541465664186" lon="12.466044311263513"><ele>1002.0</ele><time>2026-04-23T10:09:01.999Z</time></trkpt><trkpt lat="46.35419697546785" lon="12.466115289552786"><ele>1002.0</ele><time>2026-04-23T10:09:03.999Z</time></trkpt><trkpt lat="46.354270461207456" lon="12.466191166234283"><ele>1002.0</ele><time>2026-04-23T10:09:06.999Z</time></trkpt><trkpt lat="46.35432290004935" lon="12.46625779866172"><ele>1002.0</ele><time>2026-04-23T10:09:08.998Z</time></trkpt><trkpt lat="46.354390821033064" lon="12.466338214094602"><ele>1002.0</ele><time>2026-04-23T10:09:11.998Z</time></trkpt><trkpt lat="46.35444761407289" lon="12.46641258391168"><ele>1002.0</ele><time>2026-04-23T10:09:14.998Z</time></trkpt><trkpt lat="46.35450441672341" lon="12.466474768912649"><ele>997.8333333333334</ele><time>2026-04-23T10:09:17.998Z</time></trkpt><trkpt lat="46.35455621113928" lon="12.466538008665509"><ele>993.6666666666667</ele><time>2026-04-23T10:09:26.998Z</time></trkpt><trkpt lat="46.35454742640609" lon="12.466644366167863"><ele>989.5</ele><time>2026-04-23T10:09:46Z</time></trkpt><trkpt lat="46.35447395900846" lon="12.466617420796764"><ele>985.3333333333334</ele><time>2026-04-23T10:09:56Z</time></trkpt><trkpt lat="46.35440919831851" lon="12.466563024757914"><ele>981.1666666666667</ele><time>2026-04-23T10:09:59Z</time></trkpt><trkpt lat="46.35433282529748" lon="12.466526820723358"><ele>977.0</ele><time>2026-04-23T10:10:02Z</time></trkpt><trkpt lat="46.354247487915195" lon="12.466468999030383"><ele>977.0000000000001</ele><time>2026-04-23T10:10:05Z</time></trkpt><trkpt lat="46.35416694691418" lon="12.466428532273907"><ele>977.0</ele><time>2026-04-23T10:10:06.999Z</time></trkpt><trkpt lat="46.35409001376375" lon="12.46639000089277"><ele>977.0</ele><time>2026-04-23T10:10:08.999Z</time></trkpt><trkpt lat="46.354004751957845" lon="12.466372180711534"><ele>977.0</ele><time>2026-04-23T10:10:10.999Z</time></trkpt><trkpt lat="46.353931919918516" lon="12.466322769446252"><ele>977.0000000000001</ele><time>2026-04-23T10:10:12.999Z</time></trkpt><trkpt lat="46.35384946032299" lon="12.466275900386632"><ele>977.0</ele><time>2026-04-23T10:10:14.999Z</time></trkpt><trkpt lat="46.35375189662705" lon="12.466229271923053"><ele>978.8</ele><time>2026-04-23T10:10:16.999Z</time></trkpt><trkpt lat="46.353658414184125" lon="12.466180076250788"><ele>980.6</ele><time>2026-04-23T10:10:18.999Z</time></trkpt><trkpt lat="46.35355648420032" lon="12.466133828768871"><ele>982.3999999999999</ele><time>2026-04-23T10:10:20.999Z</time></trkpt><trkpt lat="46.353464544181364" lon="12.466093041541457"><ele>984.1999999999999</ele><time>2026-04-23T10:10:22.999Z</time></trkpt><trkpt lat="46.35334153176298" lon="12.4660209835544"><ele>986.0</ele><time>2026-04-23T10:10:24.999Z</time></trkpt><trkpt lat="46.35326655126188" lon="12.46596394535679"><ele>986.0000000000001</ele><time>2026-04-23T10:10:25.999Z</time></trkpt><trkpt lat="46.353200179726" lon="12.465896112217044"><ele>986.0</ele><time>2026-04-23T10:10:26.999Z</time></trkpt><trkpt lat="46.35313729963385" lon="12.46583840051158"><ele>986.0</ele><time>2026-04-23T10:10:27.999Z</time></trkpt><trkpt lat="46.35306778893343" lon="12.465793739223193"><ele>986.0</ele><time>2026-04-23T10:10:28.999Z</time></trkpt><trkpt lat="46.35299532438694" lon="12.46576621071602"><ele>986.0000000000001</ele><time>2026-04-23T10:10:29.999Z</time></trkpt><trkpt lat="46.35291596620255" lon="12.465748323456495"><ele>986.0</ele><time>2026-04-23T10:10:30.999Z</time></trkpt><trkpt lat="46.35282269654443" lon="12.46574333692054"><ele>983.1666666666667</ele><time>2026-04-23T10:10:31.999Z</time></trkpt><trkpt lat="46.352733702677234" lon="12.465746558351666"><ele>980.3333333333334</ele><time>2026-04-23T10:10:32.999Z</time></trkpt><trkpt lat="46.35265195147934" lon="12.465730395366865"><ele>977.5</ele><time>2026-04-23T10:10:33.999Z</time></trkpt><trkpt lat="46.35257097207955" lon="12.465684526760342"><ele>974.6666666666667</ele><time>2026-04-23T10:10:34.999Z</time></trkpt><trkpt lat="46.35248884099399" lon="12.465634233193283"><ele>971.8333333333334</ele><time>2026-04-23T10:10:35.999Z</time></trkpt><trkpt lat="46.35240925037234" lon="12.465584175178245"><ele>969.0</ele><time>2026-04-23T10:10:36.999Z</time></trkpt><trkpt lat="46.352327131910585" lon="12.46554060022851"><ele>969.0</ele><time>2026-04-23T10:10:37.999Z</time></trkpt><trkpt lat="46.35224512547566" lon="12.465506149376454"><ele>969.0</ele><time>2026-04-23T10:10:38.999Z</time></trkpt><trkpt lat="46.35215870059266" lon="12.465482785859088"><ele>969.0</ele><time>2026-04-23T10:10:39.999Z</time></trkpt><trkpt lat="46.35207135683468" lon="12.465469459478447"><ele>969.0</ele><time>2026-04-23T10:10:40.999Z</time></trkpt><trkpt lat="46.351984356946936" lon="12.465476203243737"><ele>969.0</ele><time>2026-04-23T10:10:41.999Z</time></trkpt><trkpt lat="46.351896511486544" lon="12.465494385924556"><ele>969.0</ele><time>2026-04-23T10:10:42.999Z</time></trkpt><trkpt lat="46.35181296936943" lon="12.465523422307829"><ele>967.8333333333334</ele><time>2026-04-23T10:10:43.999Z</time></trkpt><trkpt lat="46.35173295361341" lon="12.46556328458666"><ele>966.6666666666667</ele><time>2026-04-23T10:10:44.999Z</time></trkpt><trkpt lat="46.351656699180666" lon="12.465619790161051"><ele>965.5</ele><time>2026-04-23T10:10:45.999Z</time></trkpt><trkpt lat="46.3515894500938" lon="12.465696778108647"><ele>964.3333333333334</ele><time>2026-04-23T10:10:46.999Z</time></trkpt><trkpt lat="46.3515297260359" lon="12.465795447507446"><ele>963.1666666666667</ele><time>2026-04-23T10:10:47.999Z</time></trkpt><trkpt lat="46.351470941366294" lon="12.465901008032851"><ele>962.0</ele><time>2026-04-23T10:10:48.999Z</time></trkpt><trkpt lat="46.35140675185899" lon="12.466009227985117"><ele>961.6666666666667</ele><time>2026-04-23T10:10:49.999Z</time></trkpt><trkpt lat="46.35134900819714" lon="12.466115642771824"><ele>961.3333333333334</ele><time>2026-04-23T10:10:50.999Z</time></trkpt><trkpt lat="46.351295991786465" lon="12.466212253247896"><ele>961.0</ele><time>2026-04-23T10:10:51.999Z</time></trkpt><trkpt lat="46.35125001520693" lon="12.466298773015184"><ele>960.6666666666667</ele><time>2026-04-23T10:10:52.999Z</time></trkpt><trkpt lat="46.351202318406585" lon="12.466375782989578"><ele>960.3333333333334</ele><time>2026-04-23T10:10:53.999Z</time></trkpt><trkpt lat="46.351146985621014" lon="12.466443976802983"><ele>960.0</ele><time>2026-04-23T10:10:54.999Z</time></trkpt><trkpt lat="46.35109085673595" lon="12.466510720994732"><ele>957.8</ele><time>2026-04-23T10:10:55.999Z</time></trkpt><trkpt lat="46.351034271495706" lon="12.466657281369303"><ele>955.6</ele><time>2026-04-23T10:10:57.999Z</time></trkpt><trkpt lat="46.35100162260872" lon="12.466841475358976"><ele>953.4000000000001</ele><time>2026-04-23T10:10:59.999Z</time></trkpt><trkpt lat="46.350977847892665" lon="12.466936123113731"><ele>951.2</ele><time>2026-04-23T10:11:00.999Z</time></trkpt><trkpt lat="46.350930136901425" lon="12.4670883806068"><ele>949.0</ele><time>2026-04-23T10:11:02.999Z</time></trkpt><trkpt lat="46.350876320425904" lon="12.467242289638614"><ele>948.0</ele><time>2026-04-23T10:11:04.999Z</time></trkpt><trkpt lat="46.35082923687223" lon="12.467399585998969"><ele>947.0000000000001</ele><time>2026-04-23T10:11:06.999Z</time></trkpt><trkpt lat="46.350787796838986" lon="12.46754118752255"><ele>946.0000000000001</ele><time>2026-04-23T10:11:08.999Z</time></trkpt><trkpt lat="46.35075271742315" lon="12.467683483419586"><ele>945.0</ele><time>2026-04-23T10:11:10.999Z</time></trkpt><trkpt lat="46.35071487555884" lon="12.467833425425727"><ele>944.0</ele><time>2026-04-23T10:11:12.998Z</time></trkpt><trkpt lat="46.350665068456415" lon="12.467996182542958"><ele>943.3333333333334</ele><time>2026-04-23T10:11:14.998Z</time></trkpt><trkpt lat="46.35063819248663" lon="12.468089585795996"><ele>942.6666666666667</ele><time>2026-04-23T10:11:15.998Z</time></trkpt><trkpt lat="46.35061503564164" lon="12.46818841374056"><ele>942.0</ele><time>2026-04-23T10:11:16.998Z</time></trkpt><trkpt lat="46.350589903077" lon="12.46828444648467"><ele>941.3333333333333</ele><time>2026-04-23T10:11:17.998Z</time></trkpt><trkpt lat="46.350561022423854" lon="12.468379948840987"><ele>940.6666666666666</ele><time>2026-04-23T10:11:18.998Z</time></trkpt><trkpt lat="46.350486927360336" lon="12.468528808223933"><ele>940.0</ele><time>2026-04-23T10:11:20.998Z</time></trkpt><trkpt lat="46.35040530641953" lon="12.468651493596386"><ele>938.9999999999999</ele><time>2026-04-23T10:11:22.998Z</time></trkpt><trkpt lat="46.350322842985456" lon="12.4687236451226"><ele>938.0</ele><time>2026-04-23T10:11:24.998Z</time></trkpt><trkpt lat="46.350258953115585" lon="12.46875921701891"><ele>937.0</ele><time>2026-04-23T10:11:26.998Z</time></trkpt><trkpt lat="46.35019673419341" lon="12.468777517407657"><ele>936.0</ele><time>2026-04-23T10:11:28.998Z</time></trkpt><trkpt lat="46.35013729962582" lon="12.468829080160287"><ele>934.9999999999999</ele><time>2026-04-23T10:11:30.998Z</time></trkpt><trkpt lat="46.350071819420876" lon="12.468912553371979"><ele>934.0</ele><time>2026-04-23T10:11:32.998Z</time></trkpt><trkpt lat="46.35000422583396" lon="12.469031245900252"><ele>934.0</ele><time>2026-04-23T10:11:34.998Z</time></trkpt><trkpt lat="46.34995116261144" lon="12.46917403994795"><ele>934.0000000000001</ele><time>2026-04-23T10:11:36.998Z</time></trkpt><trkpt lat="46.34989424362858" lon="12.469297257408336"><ele>934.0000000000001</ele><time>2026-04-23T10:11:39Z</time></trkpt><trkpt lat="46.34983024973981" lon="12.46943877705229"><ele>934.0</ele><time>2026-04-23T10:11:41Z</time></trkpt><trkpt lat="46.349778803204806" lon="12.469570996791196"><ele>934.0</ele><time>2026-04-23T10:11:43Z</time></trkpt><trkpt lat="46.349697578005014" lon="12.469592234291223"><ele>933.9999999999999</ele><time>2026-04-23T10:11:45Z</time></trkpt><trkpt lat="46.34960261722375" lon="12.469489573044422"><ele>934.0</ele><time>2026-04-23T10:11:47Z</time></trkpt><trkpt lat="46.34955032405759" lon="12.469428976205549"><ele>934.0</ele><time>2026-04-23T10:11:48Z</time></trkpt><trkpt lat="46.34949867246086" lon="12.469370807749906"><ele>934.0</ele><time>2026-04-23T10:11:49Z</time></trkpt><trkpt lat="46.34943972918737" lon="12.469310220993842"><ele>933.9999999999999</ele><time>2026-04-23T10:11:50Z</time></trkpt><trkpt lat="46.34937389508481" lon="12.469243456985296"><ele>934.0</ele><time>2026-04-23T10:11:51Z</time></trkpt><trkpt lat="46.34931105415249" lon="12.46918218143971"><ele>933.9999999999999</ele><time>2026-04-23T10:11:52Z</time></trkpt><trkpt lat="46.34925782376634" lon="12.469121902767434"><ele>934.0</ele><time>2026-04-23T10:11:53Z</time></trkpt><trkpt lat="46.349202795775966" lon="12.469065840189685"><ele>933.9999999999999</ele><time>2026-04-23T10:11:54Z</time></trkpt><trkpt lat="46.349142521965284" lon="12.469001771824757"><ele>933.9999999999999</ele><time>2026-04-23T10:11:55Z</time></trkpt><trkpt lat="46.34908232524384" lon="12.468939668200605"><ele>934.0</ele><time>2026-04-23T10:11:56Z</time></trkpt><trkpt lat="46.349015918722344" lon="12.468869569192975"><ele>933.9999999999999</ele><time>2026-04-23T10:11:57Z</time></trkpt><trkpt lat="46.34895273951149" lon="12.468802726440336"><ele>933.9999999999999</ele><time>2026-04-23T10:11:58Z</time></trkpt><trkpt lat="46.34889215858126" lon="12.468761565719767"><ele>933.4999999999999</ele><time>2026-04-23T10:11:59Z</time></trkpt><trkpt lat="46.34882469158695" lon="12.468749927728263"><ele>933.0</ele><time>2026-04-23T10:12:00Z</time></trkpt><trkpt lat="46.34875298504388" lon="12.468759689569241"><ele>932.5</ele><time>2026-04-23T10:12:01Z</time></trkpt><trkpt lat="46.3486775730888" lon="12.468769442830977"><ele>932.0</ele><time>2026-04-23T10:12:02Z</time></trkpt><trkpt lat="46.34861008541919" lon="12.468765525574014"><ele>931.4999999999999</ele><time>2026-04-23T10:12:03Z</time></trkpt><trkpt lat="46.34854526090184" lon="12.46873660976362"><ele>931.0</ele><time>2026-04-23T10:12:04Z</time></trkpt><trkpt lat="46.34842716498737" lon="12.468690612213438"><ele>930.9999999999999</ele><time>2026-04-23T10:12:06Z</time></trkpt><trkpt lat="46.34835071411707" lon="12.468692377539478"><ele>931.0</ele><time>2026-04-23T10:12:07Z</time></trkpt><trkpt lat="46.34827394611318" lon="12.468706156088114"><ele>931.0</ele><time>2026-04-23T10:12:08Z</time></trkpt><trkpt lat="46.34819754257171" lon="12.468727480960954"><ele>931.0</ele><time>2026-04-23T10:12:09Z</time></trkpt><trkpt lat="46.348119332128654" lon="12.468746311399654"><ele>930.9999999999999</ele><time>2026-04-23T10:12:10Z</time></trkpt><trkpt lat="46.348034385246905" lon="12.468757071279368"><ele>931.0</ele><time>2026-04-23T10:12:10.999Z</time></trkpt><trkpt lat="46.3479503206857" lon="12.468766991369758"><ele>931.6666666666666</ele><time>2026-04-23T10:12:11.999Z</time></trkpt><trkpt lat="46.34786520768257" lon="12.468779837638099"><ele>932.3333333333333</ele><time>2026-04-23T10:12:12.999Z</time></trkpt><trkpt lat="46.34778287112065" lon="12.468794066109124"><ele>933.0</ele><time>2026-04-23T10:12:13.999Z</time></trkpt><trkpt lat="46.34770210720124" lon="12.468817777578627"><ele>933.6666666666667</ele><time>2026-04-23T10:12:14.999Z</time></trkpt><trkpt lat="46.34762405906306" lon="12.46884619774079"><ele>934.3333333333334</ele><time>2026-04-23T10:12:15.999Z</time></trkpt><trkpt lat="46.347542536416626" lon="12.468866346181676"><ele>935.0</ele><time>2026-04-23T10:12:16.999Z</time></trkpt><trkpt lat="46.34746162730489" lon="12.468878872335516"><ele>935.0000000000001</ele><time>2026-04-23T10:12:17.999Z</time></trkpt><trkpt lat="46.34738144355061" lon="12.468889883859516"><ele>935.0</ele><time>2026-04-23T10:12:18.999Z</time></trkpt><trkpt lat="46.34730457758857" lon="12.468905838359197"><ele>935.0000000000001</ele><time>2026-04-23T10:12:19.999Z</time></trkpt><trkpt lat="46.34722941403618" lon="12.468932566197271"><ele>935.0000000000001</ele><time>2026-04-23T10:12:20.999Z</time></trkpt><trkpt lat="46.34716433880431" lon="12.468969725752016"><ele>935.0</ele><time>2026-04-23T10:12:21.999Z</time></trkpt><trkpt lat="46.34710191777147" lon="12.469009708556447"><ele>935.0000000000001</ele><time>2026-04-23T10:12:22.999Z</time></trkpt><trkpt lat="46.34703744719289" lon="12.46904600423995"><ele>935.0000000000001</ele><time>2026-04-23T10:12:23.999Z</time></trkpt><trkpt lat="46.346970412843554" lon="12.469080415851643"><ele>932.857142857143</ele><time>2026-04-23T10:12:24.999Z</time></trkpt><trkpt lat="46.34690431965967" lon="12.469119095961283"><ele>930.7142857142858</ele><time>2026-04-23T10:12:25.999Z</time></trkpt><trkpt lat="46.346842581750465" lon="12.469176620503449"><ele>928.5714285714286</ele><time>2026-04-23T10:12:26.999Z</time></trkpt><trkpt lat="46.34678271414649" lon="12.469234630326465"><ele>926.4285714285714</ele><time>2026-04-23T10:12:27.999Z</time></trkpt><trkpt lat="46.34672492645143" lon="12.469291750605628"><ele>924.2857142857142</ele><time>2026-04-23T10:12:28.999Z</time></trkpt><trkpt lat="46.34666645795063" lon="12.469349966983549"><ele>922.142857142857</ele><time>2026-04-23T10:12:29.999Z</time></trkpt><trkpt lat="46.34660709693987" lon="12.469410113151635"><ele>919.9999999999999</ele><time>2026-04-23T10:12:30.999Z</time></trkpt><trkpt lat="46.346548354010835" lon="12.469469859842349"><ele>920.0000000000001</ele><time>2026-04-23T10:12:31.999Z</time></trkpt><trkpt lat="46.34648260115363" lon="12.469520870532884"><ele>920.0</ele><time>2026-04-23T10:12:32.999Z</time></trkpt><trkpt lat="46.346421477341835" lon="12.469567867283542"><ele>920.0</ele><time>2026-04-23T10:12:33.999Z</time></trkpt><trkpt lat="46.34636267971265" lon="12.469616162012441"><ele>920.0</ele><time>2026-04-23T10:12:34.999Z</time></trkpt><trkpt lat="46.346250986515926" lon="12.46970414609643"><ele>920.0000000000001</ele><time>2026-04-23T10:12:36.999Z</time></trkpt><trkpt lat="46.346187272596964" lon="12.469743647022252"><ele>920.0</ele><time>2026-04-23T10:12:37.999Z</time></trkpt><trkpt lat="46.34613006766604" lon="12.469804794623355"><ele>918.5000000000001</ele><time>2026-04-23T10:12:38.999Z</time></trkpt><trkpt lat="46.34607744265284" lon="12.469881235712785"><ele>917.0</ele><time>2026-04-23T10:12:39.999Z</time></trkpt><trkpt lat="46.34603308572022" lon="12.469961194481895"><ele>915.5</ele><time>2026-04-23T10:12:40.999Z</time></trkpt><trkpt lat="46.345988653870165" lon="12.470039461599809"><ele>914.0</ele><time>2026-04-23T10:12:41.999Z</time></trkpt><trkpt lat="46.3459426439307" lon="12.470112803739557"><ele>912.5000000000001</ele><time>2026-04-23T10:12:42.999Z</time></trkpt><trkpt lat="46.345894756150194" lon="12.470179226421655"><ele>911.0</ele><time>2026-04-23T10:12:43.999Z</time></trkpt><trkpt lat="46.345799333912275" lon="12.470291000614646"><ele>911.0</ele><time>2026-04-23T10:12:45.999Z</time></trkpt><trkpt lat="46.34572281886946" lon="12.470415779708798"><ele>910.9999999999999</ele><time>2026-04-23T10:12:47.999Z</time></trkpt><trkpt lat="46.34564987169411" lon="12.47053388146448"><ele>910.9999999999999</ele><time>2026-04-23T10:12:49.999Z</time></trkpt><trkpt lat="46.34557353816884" lon="12.470644944722645"><ele>911.0</ele><time>2026-04-23T10:12:51.999Z</time></trkpt><trkpt lat="46.345497835033406" lon="12.470746225390732"><ele>911.0</ele><time>2026-04-23T10:12:53.999Z</time></trkpt><trkpt lat="46.345416430996075" lon="12.47083175816767"><ele>909.6666666666667</ele><time>2026-04-23T10:12:55.999Z</time></trkpt><trkpt lat="46.34533668522968" lon="12.470898491744428"><ele>908.3333333333334</ele><time>2026-04-23T10:12:57.999Z</time></trkpt><trkpt lat="46.345263504079405" lon="12.47096091890034"><ele>907.0</ele><time>2026-04-23T10:12:59.999Z</time></trkpt><trkpt lat="46.34520269850474" lon="12.471034649966748"><ele>905.6666666666667</ele><time>2026-04-23T10:13:01.999Z</time></trkpt><trkpt lat="46.345141748679325" lon="12.471105930363189"><ele>904.3333333333334</ele><time>2026-04-23T10:13:03.999Z</time></trkpt><trkpt lat="46.34507602990905" lon="12.471161905806651"><ele>903.0</ele><time>2026-04-23T10:13:05.999Z</time></trkpt><trkpt lat="46.3450127606443" lon="12.471202669858485"><ele>903.0</ele><time>2026-04-23T10:13:07.999Z</time></trkpt><trkpt lat="46.344956842899975" lon="12.471252875594647"><ele>903.0</ele><time>2026-04-23T10:13:09.999Z</time></trkpt><trkpt lat="46.344870235653275" lon="12.471306538963422"><ele>903.0</ele><time>2026-04-23T10:13:12.999Z</time></trkpt><trkpt lat="46.34479994516897" lon="12.471374406264392"><ele>903.0</ele><time>2026-04-23T10:13:15.999Z</time></trkpt><trkpt lat="46.344683403161575" lon="12.471486961698576"><ele>903.0</ele><time>2026-04-23T10:13:17.998Z</time></trkpt><trkpt lat="46.344598135645015" lon="12.471573892176906"><ele>903.0</ele><time>2026-04-23T10:13:18.998Z</time></trkpt><trkpt lat="46.34450644605995" lon="12.471652823006462"><ele>903.0</ele><time>2026-04-23T10:13:19.998Z</time></trkpt><trkpt lat="46.344425770357155" lon="12.471716130343744"><ele>903.0</ele><time>2026-04-23T10:13:20.998Z</time></trkpt><trkpt lat="46.34434791402408" lon="12.471776327867783"><ele>903.0</ele><time>2026-04-23T10:13:21.998Z</time></trkpt><trkpt lat="46.3442714206223" lon="12.471864436891392"><ele>903.0</ele><time>2026-04-23T10:13:22.998Z</time></trkpt><trkpt lat="46.344203158160234" lon="12.471969310375115"><ele>903.0</ele><time>2026-04-23T10:13:23.998Z</time></trkpt><trkpt lat="46.34413820468334" lon="12.47208809142632"><ele>903.0</ele><time>2026-04-23T10:13:24.998Z</time></trkpt><trkpt lat="46.344072314485906" lon="12.472209252211439"><ele>903.0</ele><time>2026-04-23T10:13:25.998Z</time></trkpt><trkpt lat="46.3440028843481" lon="12.472314944370767"><ele>903.0</ele><time>2026-04-23T10:13:26.998Z</time></trkpt><trkpt lat="46.34393570412918" lon="12.472412656643623"><ele>903.0</ele><time>2026-04-23T10:13:27.998Z</time></trkpt><trkpt lat="46.343866083863425" lon="12.472500426822357"><ele>903.0</ele><time>2026-04-23T10:13:28.998Z</time></trkpt><trkpt lat="46.34380431634716" lon="12.472579642912532"><ele>903.0</ele><time>2026-04-23T10:13:29.998Z</time></trkpt><trkpt lat="46.34375727630121" lon="12.472661892170887"><ele>903.0</ele><time>2026-04-23T10:13:30.998Z</time></trkpt><trkpt lat="46.34373194538673" lon="12.472748250020175"><ele>903.0</ele><time>2026-04-23T10:13:31.998Z</time></trkpt><trkpt lat="46.343697783029576" lon="12.472896683498622"><ele>903.0</ele><time>2026-04-23T10:13:33.998Z</time></trkpt><trkpt lat="46.34359439297625" lon="12.472980860510011"><ele>903.0</ele><time>2026-04-23T10:13:35.998Z</time></trkpt><trkpt lat="46.34352024824797" lon="12.472981690072109"><ele>903.0</ele><time>2026-04-23T10:13:36.998Z</time></trkpt><trkpt lat="46.34344019789581" lon="12.472956293461396"><ele>903.0</ele><time>2026-04-23T10:13:37.998Z</time></trkpt><trkpt lat="46.343352747104426" lon="12.472965253902316"><ele>903.0</ele><time>2026-04-23T10:13:38.998Z</time></trkpt><trkpt lat="46.34326356926109" lon="12.473018169601142"><ele>903.0</ele><time>2026-04-23T10:13:39.998Z</time></trkpt><trkpt lat="46.34317821840552" lon="12.473091631570234"><ele>903.0</ele><time>2026-04-23T10:13:40.998Z</time></trkpt><trkpt lat="46.343107048794415" lon="12.473181084754916"><ele>903.0</ele><time>2026-04-23T10:13:41.998Z</time></trkpt><trkpt lat="46.34303342763176" lon="12.473268397899961"><ele>903.0</ele><time>2026-04-23T10:13:42.998Z</time></trkpt><trkpt lat="46.34295258218512" lon="12.473343426157609"><ele>903.0</ele><time>2026-04-23T10:13:43.998Z</time></trkpt><trkpt lat="46.34287211252137" lon="12.473411758732675"><ele>903.0</ele><time>2026-04-23T10:13:45Z</time></trkpt><trkpt lat="46.342788006205666" lon="12.473478882362308"><ele>903.0</ele><time>2026-04-23T10:13:46Z</time></trkpt><trkpt lat="46.34269623897008" lon="12.473534099228344"><ele>903.0</ele><time>2026-04-23T10:13:47Z</time></trkpt><trkpt lat="46.34260229671076" lon="12.473581630483944"><ele>903.0</ele><time>2026-04-23T10:13:48Z</time></trkpt><trkpt lat="46.342499869041184" lon="12.47364919709055"><ele>903.0</ele><time>2026-04-23T10:13:49Z</time></trkpt><trkpt lat="46.34238760195099" lon="12.473689896010379"><ele>903.0</ele><time>2026-04-23T10:13:50Z</time></trkpt><trkpt lat="46.34228118491554" lon="12.473747596027561"><ele>903.0</ele><time>2026-04-23T10:13:51Z</time></trkpt><trkpt lat="46.34216567189699" lon="12.473804195158866"><ele>903.0</ele><time>2026-04-23T10:13:52Z</time></trkpt><trkpt lat="46.34205295056038" lon="12.473857399935449"><ele>903.0</ele><time>2026-04-23T10:13:53Z</time></trkpt><trkpt lat="46.3419408389484" lon="12.473917487809436"><ele>903.0</ele><time>2026-04-23T10:13:54Z</time></trkpt><trkpt lat="46.34182799472575" lon="12.473967534902256"><ele>903.0</ele><time>2026-04-23T10:13:55Z</time></trkpt><trkpt lat="46.34171506564481" lon="12.474005319766096"><ele>903.0</ele><time>2026-04-23T10:13:56Z</time></trkpt><trkpt lat="46.34160942379208" lon="12.474035614723995"><ele>903.0</ele><time>2026-04-23T10:13:57Z</time></trkpt><trkpt lat="46.34150237062763" lon="12.474065747803055"><ele>903.0</ele><time>2026-04-23T10:13:58Z</time></trkpt><trkpt lat="46.34138983106915" lon="12.474077645955395"><ele>903.0</ele><time>2026-04-23T10:13:59Z</time></trkpt><trkpt lat="46.3412811352626" lon="12.474083362019691"><ele>903.0</ele><time>2026-04-23T10:14:00Z</time></trkpt><trkpt lat="46.34117619006728" lon="12.474097393497688"><ele>903.0</ele><time>2026-04-23T10:14:01Z</time></trkpt><trkpt lat="46.34107140498006" lon="12.474128427325159"><ele>903.0</ele><time>2026-04-23T10:14:02Z</time></trkpt><trkpt lat="46.34097102108364" lon="12.474166771090381"><ele>903.0</ele><time>2026-04-23T10:14:03Z</time></trkpt><trkpt lat="46.34086745374244" lon="12.474198268013112"><ele>903.0</ele><time>2026-04-23T10:14:04Z</time></trkpt><trkpt lat="46.34076665241052" lon="12.474205731082565"><ele>903.0</ele><time>2026-04-23T10:14:05Z</time></trkpt><trkpt lat="46.3406695892607" lon="12.47420058600698"><ele>903.0</ele><time>2026-04-23T10:14:06Z</time></trkpt><trkpt lat="46.340574358128755" lon="12.474197133166946"><ele>903.0</ele><time>2026-04-23T10:14:07Z</time></trkpt><trkpt lat="46.34048131182606" lon="12.474223007727117"><ele>903.0</ele><time>2026-04-23T10:14:08Z</time></trkpt><trkpt lat="46.34039623959879" lon="12.474276783239715"><ele>903.0</ele><time>2026-04-23T10:14:09Z</time></trkpt><trkpt lat="46.34031469028028" lon="12.474323106388853"><ele>903.0</ele><time>2026-04-23T10:14:10Z</time></trkpt><trkpt lat="46.34023402016832" lon="12.47436881533692"><ele>903.0</ele><time>2026-04-23T10:14:11Z</time></trkpt><trkpt lat="46.34015406492365" lon="12.474419659095446"><ele>903.0</ele><time>2026-04-23T10:14:12Z</time></trkpt><trkpt lat="46.34007229129157" lon="12.47446411536935"><ele>903.0</ele><time>2026-04-23T10:14:13Z</time></trkpt><trkpt lat="46.339994284152894" lon="12.474491596480368"><ele>903.0</ele><time>2026-04-23T10:14:14Z</time></trkpt><trkpt lat="46.339924134547374" lon="12.474513447547007"><ele>903.0</ele><time>2026-04-23T10:14:15Z</time></trkpt><trkpt lat="46.33986106158973" lon="12.474530499360709"><ele>903.0</ele><time>2026-04-23T10:14:15.999Z</time></trkpt><trkpt lat="46.33974751068451" lon="12.47449619394258"><ele>903.0</ele><time>2026-04-23T10:14:17.999Z</time></trkpt><trkpt lat="46.33964349332288" lon="12.474440349878588"><ele>903.0</ele><time>2026-04-23T10:14:19.999Z</time></trkpt><trkpt lat="46.33952821924792" lon="12.474407485523459"><ele>903.0</ele><time>2026-04-23T10:14:21.999Z</time></trkpt><trkpt lat="46.33941385846275" lon="12.474359623660028"><ele>903.0</ele><time>2026-04-23T10:14:23.999Z</time></trkpt><trkpt lat="46.33935813761475" lon="12.474315422192943"><ele>903.0</ele><time>2026-04-23T10:14:24.999Z</time></trkpt><trkpt lat="46.33930230863859" lon="12.474269154632042"><ele>903.0</ele><time>2026-04-23T10:14:25.999Z</time></trkpt><trkpt lat="46.33924211035774" lon="12.474229990050723"><ele>903.0</ele><time>2026-04-23T10:14:26.999Z</time></trkpt><trkpt lat="46.339183179638894" lon="12.474189492807822"><ele>903.0</ele><time>2026-04-23T10:14:27.999Z</time></trkpt><trkpt lat="46.33912807854942" lon="12.474142624616192"><ele>903.0</ele><time>2026-04-23T10:14:28.999Z</time></trkpt><trkpt lat="46.33907301890519" lon="12.474091402116926"><ele>903.0</ele><time>2026-04-23T10:14:29.999Z</time></trkpt><trkpt lat="46.338982532136285" lon="12.473979541624985"><ele>903.0</ele><time>2026-04-23T10:14:31.999Z</time></trkpt><trkpt lat="46.33889335822994" lon="12.473884147310036"><ele>903.0</ele><time>2026-04-23T10:14:33.999Z</time></trkpt><trkpt lat="46.33878040872661" lon="12.473793041142821"><ele>903.0</ele><time>2026-04-23T10:14:35.999Z</time></trkpt><trkpt lat="46.33872586385068" lon="12.473730684466755"><ele>903.0</ele><time>2026-04-23T10:14:36.999Z</time></trkpt><trkpt lat="46.33867596591893" lon="12.473659187485048"><ele>903.0</ele><time>2026-04-23T10:14:37.999Z</time></trkpt><trkpt lat="46.33862525726462" lon="12.47358438400041"><ele>903.0</ele><time>2026-04-23T10:14:38.999Z</time></trkpt><trkpt lat="46.33857610806398" lon="12.473505834009563"><ele>903.0</ele><time>2026-04-23T10:14:39.999Z</time></trkpt><trkpt lat="46.33852506125352" lon="12.473429527595911"><ele>903.0</ele><time>2026-04-23T10:14:40.999Z</time></trkpt><trkpt lat="46.338472542934085" lon="12.47335691707042"><ele>903.0</ele><time>2026-04-23T10:14:41.999Z</time></trkpt><trkpt lat="46.33841783639096" lon="12.473283072360045"><ele>903.0</ele><time>2026-04-23T10:14:42.999Z</time></trkpt><trkpt lat="46.33836188483605" lon="12.473216669375455"><ele>903.0</ele><time>2026-04-23T10:14:43.999Z</time></trkpt><trkpt lat="46.33829930170869" lon="12.473178561396352"><ele>903.0</ele><time>2026-04-23T10:14:44.999Z</time></trkpt><trkpt lat="46.33823686037006" lon="12.47315738968573"><ele>903.0</ele><time>2026-04-23T10:14:45.999Z</time></trkpt><trkpt lat="46.338115808623215" lon="12.47313183227032"><ele>903.0</ele><time>2026-04-23T10:14:47.999Z</time></trkpt><trkpt lat="46.338001060207205" lon="12.473077673631611"><ele>903.0</ele><time>2026-04-23T10:14:49.999Z</time></trkpt><trkpt lat="46.33793811476927" lon="12.473038152746815"><ele>903.0</ele><time>2026-04-23T10:14:50.999Z</time></trkpt><trkpt lat="46.33787522810251" lon="12.473004883351562"><ele>903.0</ele><time>2026-04-23T10:14:51.999Z</time></trkpt><trkpt lat="46.337812109303805" lon="12.4729791789101"><ele>903.0</ele><time>2026-04-23T10:14:52.999Z</time></trkpt><trkpt lat="46.33774963510394" lon="12.472953927332757"><ele>903.0</ele><time>2026-04-23T10:14:53.999Z</time></trkpt><trkpt lat="46.33763284486135" lon="12.472903978396943"><ele>903.0</ele><time>2026-04-23T10:14:55.999Z</time></trkpt><trkpt lat="46.33752633744204" lon="12.472839042536705"><ele>903.0</ele><time>2026-04-23T10:14:57.999Z</time></trkpt><trkpt lat="46.33741390519159" lon="12.47282515941435"><ele>903.0</ele><time>2026-04-23T10:14:59.999Z</time></trkpt><trkpt lat="46.3373123394361" lon="12.47291647931254"><ele>903.0</ele><time>2026-04-23T10:15:01.999Z</time></trkpt><trkpt lat="46.33727105865015" lon="12.47298669409854"><ele>903.0</ele><time>2026-04-23T10:15:02.999Z</time></trkpt><trkpt lat="46.3372246578947" lon="12.473056636519761"><ele>903.0</ele><time>2026-04-23T10:15:03.999Z</time></trkpt><trkpt lat="46.33716320247471" lon="12.473109362993451"><ele>903.0</ele><time>2026-04-23T10:15:04.999Z</time></trkpt><trkpt lat="46.33709064857756" lon="12.473139728708558"><ele>903.0</ele><time>2026-04-23T10:15:05.999Z</time></trkpt><trkpt lat="46.337017249357665" lon="12.473164315838474"><ele>903.0</ele><time>2026-04-23T10:15:06.999Z</time></trkpt><trkpt lat="46.33694137088557" lon="12.473184459552538"><ele>903.0</ele><time>2026-04-23T10:15:07.999Z</time></trkpt><trkpt lat="46.33686321907529" lon="12.473189990346151"><ele>903.0</ele><time>2026-04-23T10:15:08.999Z</time></trkpt><trkpt lat="46.33678570092993" lon="12.473174238903777"><ele>903.0</ele><time>2026-04-23T10:15:09.999Z</time></trkpt><trkpt lat="46.336710054418454" lon="12.473182506121146"><ele>903.0</ele><time>2026-04-23T10:15:10.999Z</time></trkpt><trkpt lat="46.33663341834751" lon="12.473217661857891"><ele>903.0</ele><time>2026-04-23T10:15:11.999Z</time></trkpt><trkpt lat="46.33655000620115" lon="12.473257789571777"><ele>903.0</ele><time>2026-04-23T10:15:12.999Z</time></trkpt><trkpt lat="46.33646468764347" lon="12.473286952332938"><ele>903.0</ele><time>2026-04-23T10:15:13.999Z</time></trkpt><trkpt lat="46.33637796318521" lon="12.473305573435889"><ele>903.0</ele><time>2026-04-23T10:15:14.999Z</time></trkpt><trkpt lat="46.336290022538705" lon="12.473320216697488"><ele>903.0</ele><time>2026-04-23T10:15:15.999Z</time></trkpt><trkpt lat="46.336201397227654" lon="12.47333537891341"><ele>903.0</ele><time>2026-04-23T10:15:16.999Z</time></trkpt><trkpt lat="46.3361134831691" lon="12.47334860453728"><ele>903.0</ele><time>2026-04-23T10:15:17.999Z</time></trkpt><trkpt lat="46.33602950949597" lon="12.473352594501865"><ele>903.0</ele><time>2026-04-23T10:15:18.999Z</time></trkpt><trkpt lat="46.33595003144403" lon="12.473354531168605"><ele>903.0</ele><time>2026-04-23T10:15:19.999Z</time></trkpt><trkpt lat="46.33587457380852" lon="12.473362974729811"><ele>903.0</ele><time>2026-04-23T10:15:20.998Z</time></trkpt><trkpt lat="46.33579837176246" lon="12.473381241809845"><ele>903.0</ele><time>2026-04-23T10:15:21.998Z</time></trkpt><trkpt lat="46.335723850318054" lon="12.473412017161305"><ele>903.0</ele><time>2026-04-23T10:15:22.998Z</time></trkpt><trkpt lat="46.33565561505309" lon="12.473457470317317"><ele>903.0</ele><time>2026-04-23T10:15:23.998Z</time></trkpt><trkpt lat="46.335588245302574" lon="12.473510624896603"><ele>903.0</ele><time>2026-04-23T10:15:24.998Z</time></trkpt><trkpt lat="46.335524842315486" lon="12.473570286894672"><ele>903.0</ele><time>2026-04-23T10:15:25.998Z</time></trkpt><trkpt lat="46.3354600673568" lon="12.473633211179596"><ele>903.0</ele><time>2026-04-23T10:15:26.998Z</time></trkpt><trkpt lat="46.33539888425245" lon="12.473702099155846"><ele>903.0</ele><time>2026-04-23T10:15:27.998Z</time></trkpt><trkpt lat="46.33533575007817" lon="12.47376822827477"><ele>903.0</ele><time>2026-04-23T10:15:28.998Z</time></trkpt><trkpt lat="46.33527202649989" lon="12.473830136766349"><ele>903.0</ele><time>2026-04-23T10:15:29.998Z</time></trkpt><trkpt lat="46.33521563373703" lon="12.473887979828334"><ele>903.0</ele><time>2026-04-23T10:15:30.998Z</time></trkpt><trkpt lat="46.33516359463384" lon="12.47394181410645"><ele>903.0</ele><time>2026-04-23T10:15:31.998Z</time></trkpt><trkpt lat="46.33506268981235" lon="12.474051101643198"><ele>903.0</ele><time>2026-04-23T10:15:33.998Z</time></trkpt><trkpt lat="46.33495788302622" lon="12.474121472920888"><ele>903.0</ele><time>2026-04-23T10:15:35.998Z</time></trkpt><trkpt lat="46.33484952770846" lon="12.474155117677226"><ele>903.0</ele><time>2026-04-23T10:15:37.998Z</time></trkpt><trkpt lat="46.33473354353129" lon="12.474215908697495"><ele>903.0</ele><time>2026-04-23T10:15:39.998Z</time></trkpt><trkpt lat="46.334671312189926" lon="12.4742615075568"><ele>903.0</ele><time>2026-04-23T10:15:40.998Z</time></trkpt><trkpt lat="46.33457074978564" lon="12.474340487133182"><ele>903.0</ele><time>2026-04-23T10:15:42.998Z</time></trkpt><trkpt lat="46.334454648004815" lon="12.474332807206025"><ele>903.0</ele><time>2026-04-23T10:15:44.998Z</time></trkpt><trkpt lat="46.33438184136605" lon="12.474306472584775"><ele>903.0</ele><time>2026-04-23T10:15:45.998Z</time></trkpt><trkpt lat="46.33430704292701" lon="12.474303989167362"><ele>903.0</ele><time>2026-04-23T10:15:46.998Z</time></trkpt><trkpt lat="46.334242248636556" lon="12.47432546196699"><ele>903.0</ele><time>2026-04-23T10:15:47.998Z</time></trkpt><trkpt lat="46.33417847728406" lon="12.474366713605997"><ele>903.0</ele><time>2026-04-23T10:15:48.998Z</time></trkpt><trkpt lat="46.33411691563653" lon="12.474417606996099"><ele>903.0</ele><time>2026-04-23T10:15:49.998Z</time></trkpt><trkpt lat="46.33404600292888" lon="12.474453264904959"><ele>903.0</ele><time>2026-04-23T10:15:51Z</time></trkpt><trkpt lat="46.333974271598066" lon="12.474480705309656"><ele>903.0</ele><time>2026-04-23T10:15:52Z</time></trkpt><trkpt lat="46.333899145319585" lon="12.474502394798815"><ele>903.0</ele><time>2026-04-23T10:15:53Z</time></trkpt><trkpt lat="46.333819373582834" lon="12.47451346014384"><ele>903.0</ele><time>2026-04-23T10:15:54Z</time></trkpt><trkpt lat="46.33373981815447" lon="12.474510624731982"><ele>903.0</ele><time>2026-04-23T10:15:55Z</time></trkpt><trkpt lat="46.33366502113412" lon="12.474505950883335"><ele>903.0</ele><time>2026-04-23T10:15:56Z</time></trkpt><trkpt lat="46.33359340321131" lon="12.47449736465699"><ele>903.0</ele><time>2026-04-23T10:15:57Z</time></trkpt><trkpt lat="46.3335283557678" lon="12.474483202326027"><ele>903.0</ele><time>2026-04-23T10:15:58Z</time></trkpt><trkpt lat="46.333422902672915" lon="12.474401264706358"><ele>903.0</ele><time>2026-04-23T10:16:00Z</time></trkpt><trkpt lat="46.333381480569805" lon="12.474323980099449"><ele>903.0</ele><time>2026-04-23T10:16:01Z</time></trkpt><trkpt lat="46.33335694246383" lon="12.474226836700833"><ele>903.0</ele><time>2026-04-23T10:16:02Z</time></trkpt><trkpt lat="46.33332993288139" lon="12.474138130604102"><ele>903.0</ele><time>2026-04-23T10:16:03Z</time></trkpt><trkpt lat="46.333297071347374" lon="12.47405018970376"><ele>903.0</ele><time>2026-04-23T10:16:04Z</time></trkpt><trkpt lat="46.33326514310431" lon="12.473959870334108"><ele>903.0</ele><time>2026-04-23T10:16:05Z</time></trkpt><trkpt lat="46.333227352537094" lon="12.473874402363972"><ele>903.0</ele><time>2026-04-23T10:16:06Z</time></trkpt><trkpt lat="46.33318816382935" lon="12.473788481442352"><ele>903.0</ele><time>2026-04-23T10:16:07Z</time></trkpt><trkpt lat="46.33315205713152" lon="12.473705178048261"><ele>903.0</ele><time>2026-04-23T10:16:08Z</time></trkpt><trkpt lat="46.333116236661475" lon="12.473615815526419"><ele>903.0</ele><time>2026-04-23T10:16:09Z</time></trkpt><trkpt lat="46.33308776992014" lon="12.47352521942461"><ele>903.0</ele><time>2026-04-23T10:16:10Z</time></trkpt><trkpt lat="46.33305817970403" lon="12.473437618814046"><ele>903.0</ele><time>2026-04-23T10:16:11Z</time></trkpt><trkpt lat="46.33303050899214" lon="12.473348131900936"><ele>903.0</ele><time>2026-04-23T10:16:12Z</time></trkpt><trkpt lat="46.33300368969209" lon="12.473261018435815"><ele>903.0</ele><time>2026-04-23T10:16:13Z</time></trkpt><trkpt lat="46.33296546443233" lon="12.473180302660342"><ele>903.0</ele><time>2026-04-23T10:16:14Z</time></trkpt><trkpt lat="46.33292232920509" lon="12.473105955938797"><ele>903.0</ele><time>2026-04-23T10:16:15Z</time></trkpt><trkpt lat="46.33287300552529" lon="12.47304104739756"><ele>903.0</ele><time>2026-04-23T10:16:16Z</time></trkpt><trkpt lat="46.332817267204554" lon="12.472986020637483"><ele>903.0</ele><time>2026-04-23T10:16:17Z</time></trkpt><trkpt lat="46.332760933870254" lon="12.472934101806777"><ele>903.0</ele><time>2026-04-23T10:16:18Z</time></trkpt><trkpt lat="46.33270195712887" lon="12.472889452621722"><ele>903.0</ele><time>2026-04-23T10:16:19Z</time></trkpt><trkpt lat="46.3326403753042" lon="12.472842618061996"><ele>903.0</ele><time>2026-04-23T10:16:20Z</time></trkpt><trkpt lat="46.33257960406664" lon="12.47278764855764"><ele>903.0</ele><time>2026-04-23T10:16:20.999Z</time></trkpt><trkpt lat="46.33252174985173" lon="12.472722311093571"><ele>903.0</ele><time>2026-04-23T10:16:21.999Z</time></trkpt><trkpt lat="46.33246135587063" lon="12.472653378415483"><ele>903.0</ele><time>2026-04-23T10:16:22.999Z</time></trkpt><trkpt lat="46.33239171370772" lon="12.472595704538163"><ele>903.0</ele><time>2026-04-23T10:16:23.999Z</time></trkpt><trkpt lat="46.33231509769465" lon="12.472551913722224"><ele>903.0</ele><time>2026-04-23T10:16:24.999Z</time></trkpt><trkpt lat="46.3322353907298" lon="12.472514739470746"><ele>903.0</ele><time>2026-04-23T10:16:25.999Z</time></trkpt><trkpt lat="46.33215520941965" lon="12.472489568430285"><ele>903.0</ele><time>2026-04-23T10:16:26.999Z</time></trkpt><trkpt lat="46.33207587804026" lon="12.47245892303203"><ele>903.0</ele><time>2026-04-23T10:16:27.999Z</time></trkpt><trkpt lat="46.33200185109038" lon="12.47241892591033"><ele>903.0</ele><time>2026-04-23T10:16:28.999Z</time></trkpt><trkpt lat="46.33193093376905" lon="12.472377502621145"><ele>903.0</ele><time>2026-04-23T10:16:29.999Z</time></trkpt><trkpt lat="46.33186342812339" lon="12.472330815722515"><ele>903.0</ele><time>2026-04-23T10:16:30.999Z</time></trkpt><trkpt lat="46.3317946575325" lon="12.472280994051927"><ele>903.0</ele><time>2026-04-23T10:16:31.999Z</time></trkpt><trkpt lat="46.33172716854642" lon="12.472227584302779"><ele>903.0</ele><time>2026-04-23T10:16:32.999Z</time></trkpt><trkpt lat="46.33166139691704" lon="12.472169878972563"><ele>903.0</ele><time>2026-04-23T10:16:33.999Z</time></trkpt><trkpt lat="46.331597636794534" lon="12.472117436851988"><ele>903.0</ele><time>2026-04-23T10:16:34.999Z</time></trkpt><trkpt lat="46.33153750920801" lon="12.472072928913827"><ele>903.0</ele><time>2026-04-23T10:16:35.999Z</time></trkpt><trkpt lat="46.33147879543029" lon="12.472038537125101"><ele>903.0</ele><time>2026-04-23T10:16:36.999Z</time></trkpt><trkpt lat="46.33135600978398" lon="12.471983421822278"><ele>903.0</ele><time>2026-04-23T10:16:38.999Z</time></trkpt><trkpt lat="46.33128830774344" lon="12.471965420135088"><ele>903.0</ele><time>2026-04-23T10:16:39.999Z</time></trkpt><trkpt lat="46.331216885218076" lon="12.471950435366574"><ele>903.0</ele><time>2026-04-23T10:16:40.999Z</time></trkpt><trkpt lat="46.33115027712118" lon="12.471939700714461"><ele>903.0</ele><time>2026-04-23T10:16:41.999Z</time></trkpt><trkpt lat="46.33108249716331" lon="12.471932282687373"><ele>903.0</ele><time>2026-04-23T10:16:42.999Z</time></trkpt><trkpt lat="46.331015633936296" lon="12.471922731014466"><ele>903.0</ele><time>2026-04-23T10:16:43.999Z</time></trkpt><trkpt lat="46.33094898457412" lon="12.471904207844107"><ele>903.0</ele><time>2026-04-23T10:16:44.999Z</time></trkpt><trkpt lat="46.33087895534919" lon="12.471879606548956"><ele>903.0</ele><time>2026-04-23T10:16:45.999Z</time></trkpt><trkpt lat="46.33080803864341" lon="12.471838805892098"><ele>903.0</ele><time>2026-04-23T10:16:46.999Z</time></trkpt><trkpt lat="46.330741386330125" lon="12.471788823822667"><ele>903.0</ele><time>2026-04-23T10:16:47.999Z</time></trkpt><trkpt lat="46.330672762307714" lon="12.471725882284622"><ele>903.0</ele><time>2026-04-23T10:16:48.999Z</time></trkpt><trkpt lat="46.33060165188248" lon="12.471661773618894"><ele>903.0</ele><time>2026-04-23T10:16:49.999Z</time></trkpt><trkpt lat="46.33052881768456" lon="12.471597024450807"><ele>903.0</ele><time>2026-04-23T10:16:50.999Z</time></trkpt><trkpt lat="46.330452176040495" lon="12.471535865216488"><ele>903.0</ele><time>2026-04-23T10:16:51.999Z</time></trkpt><trkpt lat="46.330373209764296" lon="12.471474176332269"><ele>903.0</ele><time>2026-04-23T10:16:52.999Z</time></trkpt><trkpt lat="46.33030139086905" lon="12.47141884580675"><ele>903.0</ele><time>2026-04-23T10:16:53.999Z</time></trkpt><trkpt lat="46.33023973487658" lon="12.471378000076193"><ele>903.0</ele><time>2026-04-23T10:16:54.999Z</time></trkpt><trkpt lat="46.33017229684322" lon="12.471302189850922"><ele>903.0</ele><time>2026-04-23T10:16:56.999Z</time></trkpt><trkpt lat="46.33010834098958" lon="12.471308954858062"><ele>903.0</ele><time>2026-04-23T10:17:01.999Z</time></trkpt><trkpt lat="46.33004109333809" lon="12.47128768556281"><ele>903.0</ele><time>2026-04-23T10:17:05.999Z</time></trkpt><trkpt lat="46.32997083757134" lon="12.471251669440655"><ele>903.0</ele><time>2026-04-23T10:17:09.999Z</time></trkpt><trkpt lat="46.32988791572661" lon="12.471210958677739"><ele>903.0</ele><time>2026-04-23T10:17:12.999Z</time></trkpt><trkpt lat="46.32981101605182" lon="12.471161423886054"><ele>903.0</ele><time>2026-04-23T10:17:14.999Z</time></trkpt><trkpt lat="46.32971242551043" lon="12.471090285694435"><ele>903.0</ele><time>2026-04-23T10:17:16.999Z</time></trkpt><trkpt lat="46.32961158159026" lon="12.470979584909088"><ele>903.0</ele><time>2026-04-23T10:17:18.999Z</time></trkpt><trkpt lat="46.329559042994255" lon="12.470927263718742"><ele>903.0</ele><time>2026-04-23T10:17:19.999Z</time></trkpt><trkpt lat="46.32950148061126" lon="12.47088488189503"><ele>903.0</ele><time>2026-04-23T10:17:20.999Z</time></trkpt><trkpt lat="46.32943970804978" lon="12.470855317277927"><ele>903.0</ele><time>2026-04-23T10:17:21.999Z</time></trkpt><trkpt lat="46.32937654455838" lon="12.470834771943608"><ele>903.0</ele><time>2026-04-23T10:17:22.999Z</time></trkpt><trkpt lat="46.32925279872223" lon="12.470820871693881"><ele>903.0</ele><time>2026-04-23T10:17:24.999Z</time></trkpt><trkpt lat="46.329136610612046" lon="12.47077282538411"><ele>903.0</ele><time>2026-04-23T10:17:26.998Z</time></trkpt><trkpt lat="46.32901610355766" lon="12.470754920359536"><ele>903.0</ele><time>2026-04-23T10:17:28.998Z</time></trkpt><trkpt lat="46.32891717132657" lon="12.47074160693904"><ele>903.0</ele><time>2026-04-23T10:17:30.998Z</time></trkpt><trkpt lat="46.32881985415736" lon="12.470790646336166"><ele>903.0</ele><time>2026-04-23T10:17:32.998Z</time></trkpt><trkpt lat="46.328783990056614" lon="12.470866319094318"><ele>903.0</ele><time>2026-04-23T10:17:33.998Z</time></trkpt><trkpt lat="46.32870930894199" lon="12.470978872737602"><ele>903.0</ele><time>2026-04-23T10:17:35.998Z</time></trkpt><trkpt lat="46.32859385002353" lon="12.471016168905997"><ele>903.0</ele><time>2026-04-23T10:17:37.998Z</time></trkpt><trkpt lat="46.32852567400757" lon="12.471022406585183"><ele>903.0</ele><time>2026-04-23T10:17:38.998Z</time></trkpt><trkpt lat="46.32845868499941" lon="12.471017870935311"><ele>903.0</ele><time>2026-04-23T10:17:39.998Z</time></trkpt><trkpt lat="46.32839231951993" lon="12.470996796879279"><ele>903.0</ele><time>2026-04-23T10:17:40.998Z</time></trkpt><trkpt lat="46.32833370955148" lon="12.47096181169644"><ele>903.0</ele><time>2026-04-23T10:17:41.998Z</time></trkpt><trkpt lat="46.328275840634056" lon="12.47089862652364"><ele>903.0</ele><time>2026-04-23T10:17:42.998Z</time></trkpt><trkpt lat="46.32822932541497" lon="12.470819895451276"><ele>903.0</ele><time>2026-04-23T10:17:43.998Z</time></trkpt><trkpt lat="46.32820029866279" lon="12.47072432870829"><ele>903.0</ele><time>2026-04-23T10:17:44.998Z</time></trkpt><trkpt lat="46.32817333237252" lon="12.470615243317278"><ele>903.0</ele><time>2026-04-23T10:17:45.998Z</time></trkpt><trkpt lat="46.32814198411" lon="12.470476659634794"><ele>903.0</ele><time>2026-04-23T10:17:46.998Z</time></trkpt><trkpt lat="46.328112785090305" lon="12.470346184079776"><ele>903.0</ele><time>2026-04-23T10:17:47.998Z</time></trkpt><trkpt lat="46.328096974595546" lon="12.470212853658209"><ele>903.0</ele><time>2026-04-23T10:17:48.998Z</time></trkpt><trkpt lat="46.32805932386076" lon="12.470086304774373"><ele>903.0</ele><time>2026-04-23T10:17:49.998Z</time></trkpt><trkpt lat="46.32800790109305" lon="12.469964881061209"><ele>903.0</ele><time>2026-04-23T10:17:50.998Z</time></trkpt><trkpt lat="46.32796483403929" lon="12.469839392913208"><ele>903.0</ele><time>2026-04-23T10:17:51.998Z</time></trkpt><trkpt lat="46.32792396242208" lon="12.469718342149474"><ele>903.0</ele><time>2026-04-23T10:17:52.998Z</time></trkpt><trkpt lat="46.3278792682498" lon="12.469600534598928"><ele>903.0</ele><time>2026-04-23T10:17:53.998Z</time></trkpt><trkpt lat="46.32782719219467" lon="12.469491778424063"><ele>903.0</ele><time>2026-04-23T10:17:54.998Z</time></trkpt><trkpt lat="46.32778374703236" lon="12.469380467993325"><ele>903.0</ele><time>2026-04-23T10:17:55.998Z</time></trkpt><trkpt lat="46.327737239498994" lon="12.469274083649125"><ele>903.0</ele><time>2026-04-23T10:17:57Z</time></trkpt><trkpt lat="46.327692302158155" lon="12.469182133813927"><ele>903.0</ele><time>2026-04-23T10:17:58Z</time></trkpt><trkpt lat="46.327649987333174" lon="12.469080323019709"><ele>903.0</ele><time>2026-04-23T10:17:59Z</time></trkpt><trkpt lat="46.327598400355306" lon="12.46899798040829"><ele>903.0</ele><time>2026-04-23T10:18:00Z</time></trkpt><trkpt lat="46.32754320277271" lon="12.46892092853875"><ele>903.0</ele><time>2026-04-23T10:18:01Z</time></trkpt><trkpt lat="46.327489198754165" lon="12.468851701469946"><ele>903.0</ele><time>2026-04-23T10:18:02Z</time></trkpt><trkpt lat="46.327434514310696" lon="12.468784977363239"><ele>903.0</ele><time>2026-04-23T10:18:03Z</time></trkpt><trkpt lat="46.327356880867534" lon="12.46867767985915"><ele>903.0</ele><time>2026-04-23T10:18:05Z</time></trkpt><trkpt lat="46.32730689150505" lon="12.468590701380935"><ele>903.0</ele><time>2026-04-23T10:18:07Z</time></trkpt><trkpt lat="46.3272673351316" lon="12.468478674895591"><ele>903.0</ele><time>2026-04-23T10:18:10Z</time></trkpt><trkpt lat="46.327238339760584" lon="12.468397189072737"><ele>903.0</ele><time>2026-04-23T10:18:12Z</time></trkpt><trkpt lat="46.327218855989685" lon="12.468300170250927"><ele>903.0</ele><time>2026-04-23T10:18:14Z</time></trkpt><trkpt lat="46.32718326665818" lon="12.468195254868803"><ele>903.0</ele><time>2026-04-23T10:18:16Z</time></trkpt><trkpt lat="46.32715445617378" lon="12.468072307319726"><ele>903.0</ele><time>2026-04-23T10:18:18Z</time></trkpt><trkpt lat="46.32713480624841" lon="12.467937805302839"><ele>903.0</ele><time>2026-04-23T10:18:20Z</time></trkpt><trkpt lat="46.32707721596833" lon="12.46780950203705"><ele>903.0</ele><time>2026-04-23T10:18:22Z</time></trkpt><trkpt lat="46.32701168728007" lon="12.46767661699268"><ele>903.0</ele><time>2026-04-23T10:18:24Z</time></trkpt><trkpt lat="46.32695563132541" lon="12.467519815946433"><ele>903.0</ele><time>2026-04-23T10:18:25.999Z</time></trkpt><trkpt lat="46.32692153973749" lon="12.467440634135443"><ele>903.0</ele><time>2026-04-23T10:18:26.999Z</time></trkpt><trkpt lat="46.32690112057005" lon="12.46734343964833"><ele>903.0</ele><time>2026-04-23T10:18:27.999Z</time></trkpt><trkpt lat="46.32688941231596" lon="12.467249474547215"><ele>903.0</ele><time>2026-04-23T10:18:28.999Z</time></trkpt><trkpt lat="46.326878562178344" lon="12.467158181378325"><ele>903.0</ele><time>2026-04-23T10:18:29.999Z</time></trkpt><trkpt lat="46.32685507551789" lon="12.46707077040231"><ele>903.0</ele><time>2026-04-23T10:18:30.999Z</time></trkpt><trkpt lat="46.32683809449794" lon="12.466981764744236"><ele>903.0</ele><time>2026-04-23T10:18:31.999Z</time></trkpt><trkpt lat="46.32682863109105" lon="12.466889874130377"><ele>903.0</ele><time>2026-04-23T10:18:32.999Z</time></trkpt><trkpt lat="46.32680067238006" lon="12.466712904135234"><ele>903.0</ele><time>2026-04-23T10:18:34.999Z</time></trkpt><trkpt lat="46.32676636199041" lon="12.46654608940593"><ele>903.0</ele><time>2026-04-23T10:18:36.999Z</time></trkpt><trkpt lat="46.326694896725996" lon="12.46640532591764"><ele>903.0</ele><time>2026-04-23T10:18:38.999Z</time></trkpt><trkpt lat="46.326598537304264" lon="12.46630056827359"><ele>903.0</ele><time>2026-04-23T10:18:40.999Z</time></trkpt><trkpt lat="46.32649855093092" lon="12.466225069564915"><ele>903.0</ele><time>2026-04-23T10:18:42.999Z</time></trkpt><trkpt lat="46.326401614857446" lon="12.466143549500973"><ele>903.0</ele><time>2026-04-23T10:18:44.999Z</time></trkpt><trkpt lat="46.32631434060215" lon="12.46607234247486"><ele>903.0</ele><time>2026-04-23T10:18:46.999Z</time></trkpt><trkpt lat="46.32622512953796" lon="12.46600368147682"><ele>903.0</ele><time>2026-04-23T10:18:48.999Z</time></trkpt><trkpt lat="46.32612823807682" lon="12.465921541129108"><ele>903.0</ele><time>2026-04-23T10:18:50.999Z</time></trkpt><trkpt lat="46.32603236854817" lon="12.465849829199225"><ele>903.0</ele><time>2026-04-23T10:18:52.999Z</time></trkpt><trkpt lat="46.32594056750742" lon="12.465767208940916"><ele>903.0</ele><time>2026-04-23T10:18:54.999Z</time></trkpt><trkpt lat="46.325846596272164" lon="12.465689833857189"><ele>903.0</ele><time>2026-04-23T10:18:56.999Z</time></trkpt><trkpt lat="46.3257573835951" lon="12.465620563954662"><ele>903.0</ele><time>2026-04-23T10:18:58.999Z</time></trkpt><trkpt lat="46.325684393768974" lon="12.465528185364128"><ele>903.0</ele><time>2026-04-23T10:19:00.999Z</time></trkpt><trkpt lat="46.32560285472391" lon="12.465440672804757"><ele>903.0</ele><time>2026-04-23T10:19:02.999Z</time></trkpt><trkpt lat="46.325528734929605" lon="12.465353023446056"><ele>903.0</ele><time>2026-04-23T10:19:04.999Z</time></trkpt><trkpt lat="46.32545431438605" lon="12.465268911109728"><ele>903.0</ele><time>2026-04-23T10:19:06.999Z</time></trkpt><trkpt lat="46.32538231866615" lon="12.465181480587999"><ele>903.0</ele><time>2026-04-23T10:19:08.999Z</time></trkpt><trkpt lat="46.32531704959587" lon="12.46508912930765"><ele>903.0</ele><time>2026-04-23T10:19:10.999Z</time></trkpt><trkpt lat="46.325250963725885" lon="12.465009225646089"><ele>903.0</ele><time>2026-04-23T10:19:12.999Z</time></trkpt><trkpt lat="46.32519157755519" lon="12.464933493516352"><ele>903.0</ele><time>2026-04-23T10:19:14.999Z</time></trkpt><trkpt lat="46.32514028575302" lon="12.464846671173675"><ele>903.0</ele><time>2026-04-23T10:19:16.999Z</time></trkpt><trkpt lat="46.32508663013094" lon="12.464745991972393"><ele>903.0</ele><time>2026-04-23T10:19:18.999Z</time></trkpt><trkpt lat="46.32504723513195" lon="12.464674585263571"><ele>903.0</ele><time>2026-04-23T10:19:19.999Z</time></trkpt><trkpt lat="46.325006497916284" lon="12.464588432395322"><ele>903.0</ele><time>2026-04-23T10:19:20.999Z</time></trkpt><trkpt lat="46.32496649099755" lon="12.464497068900883"><ele>903.0</ele><time>2026-04-23T10:19:21.999Z</time></trkpt><trkpt lat="46.32492781853554" lon="12.464409081611365"><ele>903.0</ele><time>2026-04-23T10:19:22.999Z</time></trkpt><trkpt lat="46.32488537959436" lon="12.464315438570981"><ele>903.0</ele><time>2026-04-23T10:19:23.999Z</time></trkpt><trkpt lat="46.324851539521056" lon="12.464191198997751"><ele>903.0</ele><time>2026-04-23T10:19:24.999Z</time></trkpt><trkpt lat="46.32482424043092" lon="12.464049834378901"><ele>903.0</ele><time>2026-04-23T10:19:25.999Z</time></trkpt><trkpt lat="46.324798502412456" lon="12.46392378191615"><ele>903.0</ele><time>2026-04-23T10:19:26.999Z</time></trkpt><trkpt lat="46.32476486252652" lon="12.463807921425943"><ele>903.0</ele><time>2026-04-23T10:19:27.999Z</time></trkpt><trkpt lat="46.32471165470946" lon="12.463700332875558"><ele>903.0</ele><time>2026-04-23T10:19:28.999Z</time></trkpt><trkpt lat="46.32464836232153" lon="12.463603215274691"><ele>903.0</ele><time>2026-04-23T10:19:29.999Z</time></trkpt><trkpt lat="46.32459285579497" lon="12.46349412268127"><ele>903.0</ele><time>2026-04-23T10:19:30.999Z</time></trkpt><trkpt lat="46.324555206521964" lon="12.463353211046726"><ele>903.0</ele><time>2026-04-23T10:19:31.999Z</time></trkpt><trkpt lat="46.32451094406356" lon="12.463210940618499"><ele>903.0</ele><time>2026-04-23T10:19:32.999Z</time></trkpt><trkpt lat="46.32443647342388" lon="12.463088996856463"><ele>903.0</ele><time>2026-04-23T10:19:33.998Z</time></trkpt><trkpt lat="46.3243680845316" lon="12.462990867164116"><ele>903.0</ele><time>2026-04-23T10:19:34.998Z</time></trkpt><trkpt lat="46.32430214304988" lon="12.462873791100485"><ele>903.0</ele><time>2026-04-23T10:19:35.998Z</time></trkpt><trkpt lat="46.32424901867838" lon="12.46276458396716"><ele>903.0</ele><time>2026-04-23T10:19:36.998Z</time></trkpt><trkpt lat="46.32420823721794" lon="12.46267549856199"><ele>903.0</ele><time>2026-04-23T10:19:37.998Z</time></trkpt><trkpt lat="46.324171912093895" lon="12.462598120449274"><ele>903.0</ele><time>2026-04-23T10:19:38.998Z</time></trkpt><trkpt lat="46.32409921476843" lon="12.462462309130766"><ele>903.0</ele><time>2026-04-23T10:19:40.998Z</time></trkpt><trkpt lat="46.32405113753341" lon="12.46231187103262"><ele>882.0</ele><time>2026-04-23T10:19:42.998Z</time></trkpt><trkpt lat="46.32399785818825" lon="12.462178667112566"><ele>861.0</ele><time>2026-04-23T10:19:44.998Z</time></trkpt><trkpt lat="46.323947564050634" lon="12.462054910757644"><ele>840.0</ele><time>2026-04-23T10:19:46.998Z</time></trkpt><trkpt lat="46.32389504682277" lon="12.461930090275109"><ele>819.0</ele><time>2026-04-23T10:19:48.998Z</time></trkpt><trkpt lat="46.32382927420775" lon="12.461796020921055"><ele>798.0</ele><time>2026-04-23T10:19:50.998Z</time></trkpt><trkpt lat="46.323796000605036" lon="12.461716443971259"><ele>798.0</ele><time>2026-04-23T10:19:51.998Z</time></trkpt><trkpt lat="46.32376773580502" lon="12.46162355544191"><ele>798.0</ele><time>2026-04-23T10:19:52.998Z</time></trkpt><trkpt lat="46.32371756137813" lon="12.461548226153115"><ele>798.0</ele><time>2026-04-23T10:19:53.998Z</time></trkpt><trkpt lat="46.32366552126514" lon="12.46147144478894"><ele>798.0</ele><time>2026-04-23T10:19:54.998Z</time></trkpt><trkpt lat="46.32361244688156" lon="12.46139195732369"><ele>798.0</ele><time>2026-04-23T10:19:55.998Z</time></trkpt><trkpt lat="46.32356421216944" lon="12.46131395788428"><ele>798.0</ele><time>2026-04-23T10:19:56.998Z</time></trkpt><trkpt lat="46.32351962214158" lon="12.461227041336143"><ele>798.0</ele><time>2026-04-23T10:19:57.998Z</time></trkpt><trkpt lat="46.323474542905394" lon="12.461139786969904"><ele>797.0</ele><time>2026-04-23T10:19:58.998Z</time></trkpt><trkpt lat="46.32342742821066" lon="12.461057581467633"><ele>796.0</ele><time>2026-04-23T10:19:59.998Z</time></trkpt><trkpt lat="46.32336883521917" lon="12.460983753902374"><ele>795.0</ele><time>2026-04-23T10:20:00.998Z</time></trkpt><trkpt lat="46.323304264165685" lon="12.460923594563539"><ele>794.0</ele><time>2026-04-23T10:20:01.998Z</time></trkpt><trkpt lat="46.32321840468867" lon="12.46087319670037"><ele>793.0</ele><time>2026-04-23T10:20:03Z</time></trkpt><trkpt lat="46.32313166586026" lon="12.460831211406493"><ele>792.0</ele><time>2026-04-23T10:20:04Z</time></trkpt><trkpt lat="46.323040859000564" lon="12.460778322774324"><ele>792.0</ele><time>2026-04-23T10:20:05Z</time></trkpt><trkpt lat="46.3229442394772" lon="12.460710669551023"><ele>792.0</ele><time>2026-04-23T10:20:06Z</time></trkpt><trkpt lat="46.32285235359957" lon="12.460638901645726"><ele>792.0</ele><time>2026-04-23T10:20:07Z</time></trkpt><trkpt lat="46.32276222225917" lon="12.460567527488084"><ele>792.0</ele><time>2026-04-23T10:20:08Z</time></trkpt><trkpt lat="46.32267338638195" lon="12.460491868654746"><ele>792.0</ele><time>2026-04-23T10:20:09Z</time></trkpt><trkpt lat="46.32258538363316" lon="12.460406361675632"><ele>791.5</ele><time>2026-04-23T10:20:10Z</time></trkpt><trkpt lat="46.32250009524082" lon="12.460319750137105"><ele>791.0</ele><time>2026-04-23T10:20:11Z</time></trkpt><trkpt lat="46.322419218378364" lon="12.460237618590918"><ele>790.5</ele><time>2026-04-23T10:20:12Z</time></trkpt><trkpt lat="46.32235131203003" lon="12.460168658724204"><ele>790.0</ele><time>2026-04-23T10:20:13Z</time></trkpt><trkpt lat="46.322290263741046" lon="12.460103324714245"><ele>789.5</ele><time>2026-04-23T10:20:14Z</time></trkpt><trkpt lat="46.3222347050424" lon="12.460031862714857"><ele>789.0</ele><time>2026-04-23T10:20:15Z</time></trkpt><trkpt lat="46.32218711520572" lon="12.459955377108932"><ele>789.0</ele><time>2026-04-23T10:20:16Z</time></trkpt><trkpt lat="46.32213742421341" lon="12.459854379474963"><ele>789.0</ele><time>2026-04-23T10:20:17Z</time></trkpt><trkpt lat="46.32208829473081" lon="12.45974038990724"><ele>789.0</ele><time>2026-04-23T10:20:18Z</time></trkpt><trkpt lat="46.32204222174145" lon="12.459631604721919"><ele>789.0</ele><time>2026-04-23T10:20:19Z</time></trkpt><trkpt lat="46.32199905594624" lon="12.459524498367506"><ele>789.0</ele><time>2026-04-23T10:20:20Z</time></trkpt><trkpt lat="46.32195254750879" lon="12.459403205724566"><ele>789.0</ele><time>2026-04-23T10:20:21Z</time></trkpt><trkpt lat="46.32190227193444" lon="12.459267646687373"><ele>786.0</ele><time>2026-04-23T10:20:22Z</time></trkpt><trkpt lat="46.321914143455544" lon="12.459109266690863"><ele>783.0</ele><time>2026-04-23T10:20:23Z</time></trkpt><trkpt lat="46.321901972440116" lon="12.458955100446614"><ele>780.0</ele><time>2026-04-23T10:20:24Z</time></trkpt><trkpt lat="46.32188898823223" lon="12.45879063382202"><ele>777.0</ele><time>2026-04-23T10:20:25Z</time></trkpt><trkpt lat="46.32187169027792" lon="12.458623513912901"><ele>774.0</ele><time>2026-04-23T10:20:26Z</time></trkpt><trkpt lat="46.32183581561828" lon="12.458460922528298"><ele>772.5</ele><time>2026-04-23T10:20:27Z</time></trkpt><trkpt lat="46.321819596861964" lon="12.458301048720667"><ele>771.0</ele><time>2026-04-23T10:20:28Z</time></trkpt><trkpt lat="46.321800065465716" lon="12.458141795553551"><ele>769.5</ele><time>2026-04-23T10:20:29Z</time></trkpt><trkpt lat="46.32177852526986" lon="12.457982887394868"><ele>768.0</ele><time>2026-04-23T10:20:30Z</time></trkpt><trkpt lat="46.32178547221872" lon="12.457800894827322"><ele>767.3333333333334</ele><time>2026-04-23T10:20:31Z</time></trkpt><trkpt lat="46.32179467940737" lon="12.457671495903597"><ele>766.6666666666666</ele><time>2026-04-23T10:20:31.999Z</time></trkpt><trkpt lat="46.32181431889337" lon="12.457578300652056"><ele>766.0</ele><time>2026-04-23T10:20:32.999Z</time></trkpt><trkpt lat="46.32180711988528" lon="12.45747716588073"><ele>765.3333333333333</ele><time>2026-04-23T10:20:33.999Z</time></trkpt><trkpt lat="46.32178677026094" lon="12.457386559348762"><ele>764.6666666666666</ele><time>2026-04-23T10:20:34.999Z</time></trkpt><trkpt lat="46.321731512651354" lon="12.45719513271312"><ele>764.0</ele><time>2026-04-23T10:20:35.999Z</time></trkpt><trkpt lat="46.32164721618532" lon="12.456953640826042"><ele>762.4000000000001</ele><time>2026-04-23T10:20:36.999Z</time></trkpt><trkpt lat="46.32159494093073" lon="12.456751584955663"><ele>760.8</ele><time>2026-04-23T10:20:37.999Z</time></trkpt><trkpt lat="46.321591406603886" lon="12.456617936331046"><ele>759.2</ele><time>2026-04-23T10:20:38.999Z</time></trkpt><trkpt lat="46.32159354300249" lon="12.456455592177214"><ele>757.5999999999999</ele><time>2026-04-23T10:20:39.999Z</time></trkpt><trkpt lat="46.32158984114127" lon="12.456323352420283"><ele>756.0</ele><time>2026-04-23T10:20:40.999Z</time></trkpt><trkpt lat="46.32158452614463" lon="12.456218313859"><ele>754.1999999999999</ele><time>2026-04-23T10:20:41.999Z</time></trkpt><trkpt lat="46.3215569265366" lon="12.4560437953891"><ele>752.4</ele><time>2026-04-23T10:20:43.999Z</time></trkpt><trkpt lat="46.321492360133185" lon="12.455955659596409"><ele>750.6</ele><time>2026-04-23T10:20:44.999Z</time></trkpt><trkpt lat="46.32139983763423" lon="12.455894473947104"><ele>748.8</ele><time>2026-04-23T10:20:45.999Z</time></trkpt><trkpt lat="46.32129573816476" lon="12.455849327264158"><ele>747.0</ele><time>2026-04-23T10:20:46.999Z</time></trkpt><trkpt lat="46.321209728821465" lon="12.455806059037853"><ele>747.0</ele><time>2026-04-23T10:20:47.999Z</time></trkpt><trkpt lat="46.32113837404605" lon="12.455753188479802"><ele>747.0</ele><time>2026-04-23T10:20:48.999Z</time></trkpt><trkpt lat="46.321095793934624" lon="12.455680342486279"><ele>747.0</ele><time>2026-04-23T10:20:49.999Z</time></trkpt><trkpt lat="46.32106767494343" lon="12.455592218202769"><ele>747.0</ele><time>2026-04-23T10:20:50.999Z</time></trkpt><trkpt lat="46.32106512237572" lon="12.455467265855631"><ele>747.0</ele><time>2026-04-23T10:20:51.999Z</time></trkpt><trkpt lat="46.3210681436677" lon="12.45533531119235"><ele>747.0</ele><time>2026-04-23T10:20:52.999Z</time></trkpt><trkpt lat="46.32110001107917" lon="12.455206777292325"><ele>747.2</ele><time>2026-04-23T10:20:53.999Z</time></trkpt><trkpt lat="46.321155401832776" lon="12.455072924375047"><ele>747.4000000000001</ele><time>2026-04-23T10:20:54.999Z</time></trkpt><trkpt lat="46.32119427688427" lon="12.454931009478209"><ele>747.5999999999999</ele><time>2026-04-23T10:20:55.999Z</time></trkpt><trkpt lat="46.32120551284112" lon="12.454792042581914"><ele>747.8</ele><time>2026-04-23T10:20:56.999Z</time></trkpt><trkpt lat="46.32121098090059" lon="12.454677217177897"><ele>748.0</ele><time>2026-04-23T10:20:57.999Z</time></trkpt><trkpt lat="46.32120873089689" lon="12.45456753735705"><ele>748.5999999999999</ele><time>2026-04-23T10:20:58.999Z</time></trkpt><trkpt lat="46.32119169895611" lon="12.454426511671222"><ele>749.1999999999999</ele><time>2026-04-23T10:20:59.999Z</time></trkpt><trkpt lat="46.3211361655524" lon="12.454298282610084"><ele>749.8</ele><time>2026-04-23T10:21:00.999Z</time></trkpt><trkpt lat="46.32107029225535" lon="12.454162709008878"><ele>750.4</ele><time>2026-04-23T10:21:01.999Z</time></trkpt><trkpt lat="46.32104056881661" lon="12.454014618246976"><ele>751.0</ele><time>2026-04-23T10:21:02.999Z</time></trkpt><trkpt lat="46.32101811588599" lon="12.453833907450392"><ele>750.5</ele><time>2026-04-23T10:21:03.999Z</time></trkpt><trkpt lat="46.32098953021599" lon="12.453652972081896"><ele>750.0</ele><time>2026-04-23T10:21:04.999Z</time></trkpt><trkpt lat="46.32095635236781" lon="12.453478484903911"><ele>749.5</ele><time>2026-04-23T10:21:05.999Z</time></trkpt><trkpt lat="46.320923125312284" lon="12.453321448369728"><ele>749.0</ele><time>2026-04-23T10:21:06.999Z</time></trkpt><trkpt lat="46.32088513992729" lon="12.453162712702643"><ele>749.0</ele><time>2026-04-23T10:21:07.999Z</time></trkpt><trkpt lat="46.32085746365969" lon="12.452998193361244"><ele>749.0</ele><time>2026-04-23T10:21:08.999Z</time></trkpt><trkpt lat="46.32084530968235" lon="12.452849498458017"><ele>749.0</ele><time>2026-04-23T10:21:09.999Z</time></trkpt><trkpt lat="46.320862793542034" lon="12.452702399541447"><ele>749.0</ele><time>2026-04-23T10:21:10.999Z</time></trkpt><trkpt lat="46.320865980540795" lon="12.452538168117714"><ele>749.0</ele><time>2026-04-23T10:21:11.999Z</time></trkpt><trkpt lat="46.320885261745616" lon="12.452369001496434"><ele>747.75</ele><time>2026-04-23T10:21:12.999Z</time></trkpt><trkpt lat="46.320876472251435" lon="12.452189364195588"><ele>746.5</ele><time>2026-04-23T10:21:13.999Z</time></trkpt><trkpt lat="46.32084989107951" lon="12.45200642173996"><ele>745.25</ele><time>2026-04-23T10:21:14.999Z</time></trkpt><trkpt lat="46.32082735791607" lon="12.451819699378184"><ele>744.0</ele><time>2026-04-23T10:21:15.999Z</time></trkpt><trkpt lat="46.320790649980324" lon="12.451644191921416"><ele>743.4000000000001</ele><time>2026-04-23T10:21:16.999Z</time></trkpt><trkpt lat="46.320763940277324" lon="12.451485676054025"><ele>742.8</ele><time>2026-04-23T10:21:17.999Z</time></trkpt><trkpt lat="46.320741572787306" lon="12.451352984830864"><ele>742.2</ele><time>2026-04-23T10:21:18.999Z</time></trkpt><trkpt lat="46.32071771228722" lon="12.451212907941082"><ele>741.5999999999999</ele><time>2026-04-23T10:21:19.999Z</time></trkpt><trkpt lat="46.32069263078317" lon="12.451094959634974"><ele>741.0</ele><time>2026-04-23T10:21:20.999Z</time></trkpt><trkpt lat="46.320686016983124" lon="12.450979464895191"><ele>739.5999999999999</ele><time>2026-04-23T10:21:21.999Z</time></trkpt><trkpt lat="46.32064750190647" lon="12.450877703509068"><ele>738.2</ele><time>2026-04-23T10:21:22.999Z</time></trkpt><trkpt lat="46.32058226436971" lon="12.45077977581228"><ele>736.8</ele><time>2026-04-23T10:21:23.999Z</time></trkpt><trkpt lat="46.320515216042516" lon="12.450687143581927"><ele>735.4000000000001</ele><time>2026-04-23T10:21:24.999Z</time></trkpt><trkpt lat="46.32043614343516" lon="12.4506189698159"><ele>734.0</ele><time>2026-04-23T10:21:25.999Z</time></trkpt><trkpt lat="46.32034477193641" lon="12.450564873426359"><ele>734.0</ele><time>2026-04-23T10:21:26.999Z</time></trkpt><trkpt lat="46.320242721735596" lon="12.450516932756267"><ele>734.0</ele><time>2026-04-23T10:21:27.999Z</time></trkpt><trkpt lat="46.320136951482546" lon="12.450475628968844"><ele>734.0</ele><time>2026-04-23T10:21:28.999Z</time></trkpt><trkpt lat="46.32001133265876" lon="12.450427732862149"><ele>734.0</ele><time>2026-04-23T10:21:29.999Z</time></trkpt><trkpt lat="46.319850593804205" lon="12.450366446205253"><ele>739.6666666666666</ele><time>2026-04-23T10:21:30.999Z</time></trkpt><trkpt lat="46.31966719184253" lon="12.450287184466616"><ele>745.3333333333334</ele><time>2026-04-23T10:21:31.999Z</time></trkpt><trkpt lat="46.319470987385714" lon="12.450203698554256"><ele>751.0</ele><time>2026-04-23T10:21:32.999Z</time></trkpt><trkpt lat="46.31926875337531" lon="12.450103764903401"><ele>751.0</ele><time>2026-04-23T10:21:33.999Z</time></trkpt><trkpt lat="46.31909301994107" lon="12.450019149864147"><ele>751.0</ele><time>2026-04-23T10:21:34.999Z</time></trkpt><trkpt lat="46.31894559217557" lon="12.449957436736387"><ele>751.0</ele><time>2026-04-23T10:21:35.999Z</time></trkpt><trkpt lat="46.31882390730795" lon="12.449923000343412"><ele>748.8</ele><time>2026-04-23T10:21:36.999Z</time></trkpt><trkpt lat="46.31872026005256" lon="12.449909472489425"><ele>746.5999999999999</ele><time>2026-04-23T10:21:37.998Z</time></trkpt><trkpt lat="46.31863566129062" lon="12.449882951316754"><ele>744.4</ele><time>2026-04-23T10:21:38.998Z</time></trkpt><trkpt lat="46.31856275728982" lon="12.449832553784667"><ele>742.2</ele><time>2026-04-23T10:21:39.998Z</time></trkpt><trkpt lat="46.318500792233934" lon="12.449703658922278"><ele>740.0</ele><time>2026-04-23T10:21:40.998Z</time></trkpt><trkpt lat="46.318450198057235" lon="12.449548373395203"><ele>740.0</ele><time>2026-04-23T10:21:41.998Z</time></trkpt><trkpt lat="46.31840955218028" lon="12.449384881609786"><ele>740.0</ele><time>2026-04-23T10:21:42.998Z</time></trkpt><trkpt lat="46.318377784592954" lon="12.449217449156349"><ele>740.0</ele><time>2026-04-23T10:21:43.998Z</time></trkpt><trkpt lat="46.31833243932139" lon="12.449045313095855"><ele>740.0</ele><time>2026-04-23T10:21:44.998Z</time></trkpt><trkpt lat="46.318281333203295" lon="12.448866426155284"><ele>742.0</ele><time>2026-04-23T10:21:45.998Z</time></trkpt><trkpt lat="46.318239094131336" lon="12.448671523791969"><ele>744.0</ele><time>2026-04-23T10:21:46.998Z</time></trkpt><trkpt lat="46.31820737508439" lon="12.448487225338079"><ele>746.0</ele><time>2026-04-23T10:21:47.998Z</time></trkpt><trkpt lat="46.318166140256515" lon="12.44831656659265"><ele>748.0</ele><time>2026-04-23T10:21:48.998Z</time></trkpt><trkpt lat="46.318121234102925" lon="12.448147837312623"><ele>746.25</ele><time>2026-04-23T10:21:49.998Z</time></trkpt><trkpt lat="46.31805943698697" lon="12.447982439918173"><ele>744.5</ele><time>2026-04-23T10:21:50.998Z</time></trkpt><trkpt lat="46.31798375095358" lon="12.447833687590808"><ele>742.75</ele><time>2026-04-23T10:21:51.998Z</time></trkpt><trkpt lat="46.3178884121311" lon="12.44769253679784"><ele>741.0</ele><time>2026-04-23T10:21:52.998Z</time></trkpt><trkpt lat="46.317775849444104" lon="12.447568637145041"><ele>741.0</ele><time>2026-04-23T10:21:53.998Z</time></trkpt><trkpt lat="46.31765710771047" lon="12.447446155307105"><ele>741.0</ele><time>2026-04-23T10:21:54.998Z</time></trkpt><trkpt lat="46.31753402568536" lon="12.447329981348064"><ele>741.0</ele><time>2026-04-23T10:21:55.998Z</time></trkpt><trkpt lat="46.31741749190732" lon="12.447228651961765"><ele>741.0</ele><time>2026-04-23T10:21:56.998Z</time></trkpt><trkpt lat="46.31731105477774" lon="12.44714074021213"><ele>739.75</ele><time>2026-04-23T10:21:57.998Z</time></trkpt><trkpt lat="46.31720509589303" lon="12.44705326029053"><ele>738.5</ele><time>2026-04-23T10:21:58.998Z</time></trkpt><trkpt lat="46.31710116100947" lon="12.446962303808641"><ele>737.25</ele><time>2026-04-23T10:21:59.998Z</time></trkpt><trkpt lat="46.31700117079278" lon="12.446865457822415"><ele>736.0</ele><time>2026-04-23T10:22:00.998Z</time></trkpt><trkpt lat="46.316905928040626" lon="12.44675953366219"><ele>736.0</ele><time>2026-04-23T10:22:01.998Z</time></trkpt><trkpt lat="46.316825167949766" lon="12.446637139143972"><ele>736.0</ele><time>2026-04-23T10:22:02.998Z</time></trkpt><trkpt lat="46.316755413242504" lon="12.446510427414323"><ele>736.0</ele><time>2026-04-23T10:22:03.998Z</time></trkpt><trkpt lat="46.316680136472016" lon="12.446402705615453"><ele>736.0</ele><time>2026-04-23T10:22:04.998Z</time></trkpt><trkpt lat="46.31657830773562" lon="12.446306938283849"><ele>736.25</ele><time>2026-04-23T10:22:05.998Z</time></trkpt><trkpt lat="46.31646443817341" lon="12.446215471361176"><ele>736.5</ele><time>2026-04-23T10:22:06.998Z</time></trkpt><trkpt lat="46.31636873329057" lon="12.446110420630472"><ele>736.75</ele><time>2026-04-23T10:22:07.998Z</time></trkpt><trkpt lat="46.316262721675024" lon="12.445986207538242"><ele>737.0</ele><time>2026-04-23T10:22:09Z</time></trkpt><trkpt lat="46.31614818911007" lon="12.445894910627594"><ele>737.0</ele><time>2026-04-23T10:22:10Z</time></trkpt><trkpt lat="46.316020750297575" lon="12.445829445107654"><ele>737.0</ele><time>2026-04-23T10:22:11Z</time></trkpt><trkpt lat="46.315889383878016" lon="12.445769355434088"><ele>737.0</ele><time>2026-04-23T10:22:12Z</time></trkpt><trkpt lat="46.31576050902866" lon="12.445711183097291"><ele>737.0</ele><time>2026-04-23T10:22:13Z</time></trkpt><trkpt lat="46.315628102205224" lon="12.445652955876495"><ele>738.0</ele><time>2026-04-23T10:22:14Z</time></trkpt><trkpt lat="46.31550119852155" lon="12.445593387603264"><ele>739.0</ele><time>2026-04-23T10:22:15Z</time></trkpt><trkpt lat="46.31538470487072" lon="12.445514634993723"><ele>740.0</ele><time>2026-04-23T10:22:16Z</time></trkpt><trkpt lat="46.31528951909459" lon="12.445424699883288"><ele>741.0</ele><time>2026-04-23T10:22:17Z</time></trkpt><trkpt lat="46.31520840884838" lon="12.445319006321341"><ele>741.0</ele><time>2026-04-23T10:22:18Z</time></trkpt><trkpt lat="46.315125554530006" lon="12.445187608901445"><ele>741.0</ele><time>2026-04-23T10:22:19Z</time></trkpt><trkpt lat="46.31500883006071" lon="12.44510879744868"><ele>741.0</ele><time>2026-04-23T10:22:20Z</time></trkpt><trkpt lat="46.3148641716838" lon="12.445120557931896"><ele>741.0</ele><time>2026-04-23T10:22:21Z</time></trkpt><trkpt lat="46.31473493608004" lon="12.445106211940777"><ele>739.25</ele><time>2026-04-23T10:22:22Z</time></trkpt><trkpt lat="46.314605042240366" lon="12.44510130401439"><ele>737.5</ele><time>2026-04-23T10:22:23Z</time></trkpt><trkpt lat="46.31447238923072" lon="12.445100982603947"><ele>735.75</ele><time>2026-04-23T10:22:24Z</time></trkpt><trkpt lat="46.314347430231976" lon="12.445102370130865"><ele>734.0</ele><time>2026-04-23T10:22:25Z</time></trkpt><trkpt lat="46.3142474214036" lon="12.445103973581269"><ele>734.0</ele><time>2026-04-23T10:22:26Z</time></trkpt><trkpt lat="46.314175359896716" lon="12.445088149466608"><ele>734.0</ele><time>2026-04-23T10:22:27Z</time></trkpt><trkpt lat="46.31408414349993" lon="12.444972644047688"><ele>734.0</ele><time>2026-04-23T10:22:29Z</time></trkpt><trkpt lat="46.31408649914547" lon="12.44485732102846"><ele>734.0</ele><time>2026-04-23T10:22:30Z</time></trkpt><trkpt lat="46.314071077642474" lon="12.444720900829155"><ele>734.0</ele><time>2026-04-23T10:22:31Z</time></trkpt><trkpt lat="46.31407869427062" lon="12.444568734018244"><ele>735.2857142857142</ele><time>2026-04-23T10:22:32Z</time></trkpt><trkpt lat="46.31408545542233" lon="12.444437763631285"><ele>736.5714285714287</ele><time>2026-04-23T10:22:33Z</time></trkpt><trkpt lat="46.31408859146358" lon="12.444328720920263"><ele>737.8571428571429</ele><time>2026-04-23T10:22:34Z</time></trkpt><trkpt lat="46.31407100757048" lon="12.444233735573311"><ele>739.1428571428571</ele><time>2026-04-23T10:22:35Z</time></trkpt><trkpt lat="46.314060209541395" lon="12.444136493584178"><ele>740.4285714285713</ele><time>2026-04-23T10:22:36Z</time></trkpt><trkpt lat="46.313999064835514" lon="12.444065841347564"><ele>741.7142857142858</ele><time>2026-04-23T10:22:37Z</time></trkpt><trkpt lat="46.31393887933442" lon="12.444023192215525"><ele>743.0</ele><time>2026-04-23T10:22:38Z</time></trkpt><trkpt lat="46.31385865012446" lon="12.443962262068705"><ele>743.0</ele><time>2026-04-23T10:22:39.999Z</time></trkpt><trkpt lat="46.31379342332079" lon="12.443993288594186"><ele>743.0</ele><time>2026-04-23T10:22:43.999Z</time></trkpt><trkpt lat="46.31374033577234" lon="12.444051529131388"><ele>743.0</ele><time>2026-04-23T10:22:51.999Z</time></trkpt><trkpt lat="46.31367149830393" lon="12.444178465627804"><ele>743.0</ele><time>2026-04-23T10:22:53.999Z</time></trkpt><trkpt lat="46.31364516544418" lon="12.44427496744691"><ele>743.0</ele><time>2026-04-23T10:22:54.999Z</time></trkpt><trkpt lat="46.313600741126514" lon="12.444347275892827"><ele>743.0</ele><time>2026-04-23T10:22:55.999Z</time></trkpt><trkpt lat="46.31355344575872" lon="12.44441188002902"><ele>743.0</ele><time>2026-04-23T10:22:56.999Z</time></trkpt><trkpt lat="46.313498551470474" lon="12.444491861119506"><ele>743.0</ele><time>2026-04-23T10:22:57.999Z</time></trkpt><trkpt lat="46.31344197272304" lon="12.44456202222099"><ele>743.0</ele><time>2026-04-23T10:22:58.999Z</time></trkpt><trkpt lat="46.313382504516795" lon="12.4446247104252"><ele>743.0</ele><time>2026-04-23T10:22:59.999Z</time></trkpt><trkpt lat="46.31330956163981" lon="12.44465665507184"><ele>743.0</ele><time>2026-04-23T10:23:00.999Z</time></trkpt><trkpt lat="46.313241398665575" lon="12.444707070728763"><ele>743.0</ele><time>2026-04-23T10:23:01.999Z</time></trkpt><trkpt lat="46.313165854063946" lon="12.444760762115802"><ele>740.0</ele><time>2026-04-23T10:23:02.999Z</time></trkpt><trkpt lat="46.31308650492204" lon="12.444815317317644"><ele>737.0</ele><time>2026-04-23T10:23:03.999Z</time></trkpt><trkpt lat="46.31300126073769" lon="12.44487392556944"><ele>734.0</ele><time>2026-04-23T10:23:04.999Z</time></trkpt><trkpt lat="46.31292099779427" lon="12.444929112242667"><ele>731.0</ele><time>2026-04-23T10:23:05.999Z</time></trkpt><trkpt lat="46.312844135721356" lon="12.444981960723188"><ele>728.0</ele><time>2026-04-23T10:23:06.999Z</time></trkpt><trkpt lat="46.31277009176691" lon="12.44503793138849"><ele>725.0</ele><time>2026-04-23T10:23:07.999Z</time></trkpt><trkpt lat="46.312693525746155" lon="12.445090063692186"><ele>724.8</ele><time>2026-04-23T10:23:08.999Z</time></trkpt><trkpt lat="46.31261054580616" lon="12.445117397838024"><ele>724.6</ele><time>2026-04-23T10:23:09.999Z</time></trkpt><trkpt lat="46.312527731833285" lon="12.445114896630317"><ele>724.4000000000001</ele><time>2026-04-23T10:23:10.999Z</time></trkpt><trkpt lat="46.31243854860139" lon="12.44506582167059"><ele>724.2</ele><time>2026-04-23T10:23:11.999Z</time></trkpt><trkpt lat="46.31233807815208" lon="12.44500235530672"><ele>724.0</ele><time>2026-04-23T10:23:12.999Z</time></trkpt><trkpt lat="46.31223039347737" lon="12.444944484156169"><ele>722.5</ele><time>2026-04-23T10:23:13.999Z</time></trkpt><trkpt lat="46.3121152907472" lon="12.44492730027037"><ele>721.0</ele><time>2026-04-23T10:23:14.999Z</time></trkpt><trkpt lat="46.31199958225997" lon="12.444944084631976"><ele>719.5</ele><time>2026-04-23T10:23:15.999Z</time></trkpt><trkpt lat="46.31188374731189" lon="12.445003746740191"><ele>718.0</ele><time>2026-04-23T10:23:16.999Z</time></trkpt><trkpt lat="46.31176129611165" lon="12.444979396204374"><ele>718.0</ele><time>2026-04-23T10:23:17.999Z</time></trkpt><trkpt lat="46.311636123829146" lon="12.444952341245846"><ele>718.0</ele><time>2026-04-23T10:23:18.999Z</time></trkpt><trkpt lat="46.31151320297559" lon="12.444927422401234"><ele>718.0</ele><time>2026-04-23T10:23:19.999Z</time></trkpt><trkpt lat="46.31139679112633" lon="12.444896927154945"><ele>718.0</ele><time>2026-04-23T10:23:20.999Z</time></trkpt><trkpt lat="46.311277377639904" lon="12.44484880859625"><ele>716.75</ele><time>2026-04-23T10:23:21.999Z</time></trkpt><trkpt lat="46.31115032574956" lon="12.444783039222528"><ele>715.5</ele><time>2026-04-23T10:23:22.999Z</time></trkpt><trkpt lat="46.31102520239225" lon="12.444718212841149"><ele>714.25</ele><time>2026-04-23T10:23:23.999Z</time></trkpt><trkpt lat="46.310915970982926" lon="12.444604521480242"><ele>713.0</ele><time>2026-04-23T10:23:24.999Z</time></trkpt><trkpt lat="46.31077767454747" lon="12.444569704429227"><ele>712.8</ele><time>2026-04-23T10:23:25.999Z</time></trkpt><trkpt lat="46.31065270547726" lon="12.444537678541696"><ele>712.5999999999999</ele><time>2026-04-23T10:23:26.999Z</time></trkpt><trkpt lat="46.31054000778804" lon="12.444509646776591"><ele>712.4000000000001</ele><time>2026-04-23T10:23:27.999Z</time></trkpt><trkpt lat="46.3104448652121" lon="12.444485051516548"><ele>712.2</ele><time>2026-04-23T10:23:28.999Z</time></trkpt><trkpt lat="46.31036014594871" lon="12.444460892722022"><ele>712.0</ele><time>2026-04-23T10:23:29.999Z</time></trkpt><trkpt lat="46.31027771505823" lon="12.444447132948177"><ele>712.0</ele><time>2026-04-23T10:23:30.999Z</time></trkpt><trkpt lat="46.31021222746487" lon="12.444332262828928"><ele>712.0</ele><time>2026-04-23T10:23:31.999Z</time></trkpt><trkpt lat="46.31010056741984" lon="12.444298887635544"><ele>712.0</ele><time>2026-04-23T10:23:32.999Z</time></trkpt><trkpt lat="46.3100115974131" lon="12.444201696299336"><ele>712.0</ele><time>2026-04-23T10:23:33.999Z</time></trkpt><trkpt lat="46.309914696088875" lon="12.444096602638716"><ele>712.0</ele><time>2026-04-23T10:23:34.999Z</time></trkpt><trkpt lat="46.30981247752523" lon="12.443982279556572"><ele>709.25</ele><time>2026-04-23T10:23:35.999Z</time></trkpt><trkpt lat="46.309731839034434" lon="12.443821297906672"><ele>706.5</ele><time>2026-04-23T10:23:36.999Z</time></trkpt><trkpt lat="46.30961666466147" lon="12.44370579664177"><ele>703.75</ele><time>2026-04-23T10:23:37.999Z</time></trkpt><trkpt lat="46.309499178106414" lon="12.443604815445793"><ele>701.0</ele><time>2026-04-23T10:23:38.999Z</time></trkpt><trkpt lat="46.30938281403762" lon="12.443522126375898"><ele>705.4</ele><time>2026-04-23T10:23:39.999Z</time></trkpt><trkpt lat="46.30927344193861" lon="12.44344646685619"><ele>709.8</ele><time>2026-04-23T10:23:40.999Z</time></trkpt><trkpt lat="46.309187398145276" lon="12.443373088571475"><ele>714.1999999999999</ele><time>2026-04-23T10:23:41.999Z</time></trkpt><trkpt lat="46.30910784472805" lon="12.443268415442418"><ele>718.5999999999999</ele><time>2026-04-23T10:23:42.999Z</time></trkpt><trkpt lat="46.30904181400674" lon="12.443144285019292"><ele>723.0</ele><time>2026-04-23T10:23:43.999Z</time></trkpt><trkpt lat="46.308980711850154" lon="12.443027022198036"><ele>724.5</ele><time>2026-04-23T10:23:44.999Z</time></trkpt><trkpt lat="46.30888648273102" lon="12.44293717548192"><ele>726.0</ele><time>2026-04-23T10:23:45.998Z</time></trkpt><trkpt lat="46.308782180806624" lon="12.442877913202999"><ele>727.5</ele><time>2026-04-23T10:23:46.998Z</time></trkpt><trkpt lat="46.308669759457935" lon="12.442841846904432"><ele>729.0</ele><time>2026-04-23T10:23:47.998Z</time></trkpt><trkpt lat="46.308570564199194" lon="12.442765006634206"><ele>729.0</ele><time>2026-04-23T10:23:48.998Z</time></trkpt><trkpt lat="46.30847522403533" lon="12.44264828911803"><ele>729.0</ele><time>2026-04-23T10:23:49.998Z</time></trkpt><trkpt lat="46.3083611857394" lon="12.442554852483255"><ele>729.0</ele><time>2026-04-23T10:23:50.998Z</time></trkpt><trkpt lat="46.308238783897266" lon="12.442465027056034"><ele>729.0</ele><time>2026-04-23T10:23:51.998Z</time></trkpt><trkpt lat="46.308109473467674" lon="12.442384763966036"><ele>730.75</ele><time>2026-04-23T10:23:52.998Z</time></trkpt><trkpt lat="46.30797644567196" lon="12.442307979762456"><ele>732.5</ele><time>2026-04-23T10:23:53.998Z</time></trkpt><trkpt lat="46.30784095934678" lon="12.442229660713716"><ele>734.25</ele><time>2026-04-23T10:23:54.998Z</time></trkpt><trkpt lat="46.30771454726832" lon="12.442162359540525"><ele>736.0</ele><time>2026-04-23T10:23:55.998Z</time></trkpt><trkpt lat="46.30760898902963" lon="12.442108833349156"><ele>736.0</ele><time>2026-04-23T10:23:56.998Z</time></trkpt><trkpt lat="46.307529132709725" lon="12.44203924594505"><ele>736.0</ele><time>2026-04-23T10:23:57.998Z</time></trkpt><trkpt lat="46.307466747420236" lon="12.441961917357347"><ele>736.0</ele><time>2026-04-23T10:23:58.998Z</time></trkpt><trkpt lat="46.30741912120277" lon="12.441875163842992"><ele>736.0</ele><time>2026-04-23T10:23:59.998Z</time></trkpt><trkpt lat="46.307353224991566" lon="12.441801470551411"><ele>736.0</ele><time>2026-04-23T10:24:00.998Z</time></trkpt><trkpt lat="46.30724748657072" lon="12.441777286791142"><ele>736.0</ele><time>2026-04-23T10:24:01.998Z</time></trkpt><trkpt lat="46.30713096858507" lon="12.441839428614712"><ele>732.5</ele><time>2026-04-23T10:24:02.998Z</time></trkpt><trkpt lat="46.307018318896375" lon="12.441882986628636"><ele>729.0</ele><time>2026-04-23T10:24:03.998Z</time></trkpt><trkpt lat="46.30689644378625" lon="12.441912529197449"><ele>725.5</ele><time>2026-04-23T10:24:04.998Z</time></trkpt><trkpt lat="46.30675267021102" lon="12.441942475190293"><ele>722.0</ele><time>2026-04-23T10:24:05.998Z</time></trkpt><trkpt lat="46.30660573492131" lon="12.442017140599233"><ele>722.0</ele><time>2026-04-23T10:24:06.998Z</time></trkpt><trkpt lat="46.30648054433656" lon="12.442091600039705"><ele>722.0</ele><time>2026-04-23T10:24:07.998Z</time></trkpt><trkpt lat="46.30634242991833" lon="12.442122919589771"><ele>722.0</ele><time>2026-04-23T10:24:08.998Z</time></trkpt><trkpt lat="46.30620464171681" lon="12.442134279216853"><ele>722.0</ele><time>2026-04-23T10:24:09.998Z</time></trkpt><trkpt lat="46.30607565247863" lon="12.442145836476804"><ele>720.6</ele><time>2026-04-23T10:24:10.998Z</time></trkpt><trkpt lat="46.305959564758226" lon="12.44214894720357"><ele>719.2</ele><time>2026-04-23T10:24:11.998Z</time></trkpt><trkpt lat="46.305857453220966" lon="12.442130086794782"><ele>717.8</ele><time>2026-04-23T10:24:12.998Z</time></trkpt><trkpt lat="46.30577358229728" lon="12.44207267464503"><ele>716.4</ele><time>2026-04-23T10:24:13.998Z</time></trkpt><trkpt lat="46.305676984214415" lon="12.441978305106229"><ele>715.0</ele><time>2026-04-23T10:24:15Z</time></trkpt><trkpt lat="46.30557459193993" lon="12.441854008768606"><ele>711.6666666666667</ele><time>2026-04-23T10:24:16Z</time></trkpt><trkpt lat="46.305459792927685" lon="12.44172967149617"><ele>708.3333333333334</ele><time>2026-04-23T10:24:17Z</time></trkpt><trkpt lat="46.30533460463389" lon="12.441607185781622"><ele>705.0</ele><time>2026-04-23T10:24:18Z</time></trkpt><trkpt lat="46.305199716384" lon="12.44149235352122"><ele>705.0</ele><time>2026-04-23T10:24:19Z</time></trkpt><trkpt lat="46.30506413755696" lon="12.441385444109143"><ele>705.0</ele><time>2026-04-23T10:24:20Z</time></trkpt><trkpt lat="46.30492813237211" lon="12.441288021796806"><ele>705.0</ele><time>2026-04-23T10:24:21Z</time></trkpt><trkpt lat="46.30478773465897" lon="12.441198338168064"><ele>705.3333333333334</ele><time>2026-04-23T10:24:22Z</time></trkpt><trkpt lat="46.304641227454844" lon="12.441118351269479"><ele>705.6666666666667</ele><time>2026-04-23T10:24:23Z</time></trkpt><trkpt lat="46.304492239490706" lon="12.441055109233165"><ele>706.0</ele><time>2026-04-23T10:24:24Z</time></trkpt><trkpt lat="46.3043482735332" lon="12.44099490415271"><ele>706.0</ele><time>2026-04-23T10:24:25Z</time></trkpt><trkpt lat="46.30420584174175" lon="12.44092759490757"><ele>706.0</ele><time>2026-04-23T10:24:26Z</time></trkpt><trkpt lat="46.304061644405195" lon="12.44085375069843"><ele>706.0</ele><time>2026-04-23T10:24:27Z</time></trkpt><trkpt lat="46.30392377350608" lon="12.440775600176982"><ele>705.0</ele><time>2026-04-23T10:24:28Z</time></trkpt><trkpt lat="46.30380454763492" lon="12.440698883134607"><ele>704.0</ele><time>2026-04-23T10:24:29Z</time></trkpt><trkpt lat="46.30369541258751" lon="12.440629703297514"><ele>703.0</ele><time>2026-04-23T10:24:30Z</time></trkpt><trkpt lat="46.30358308631305" lon="12.440581258690994"><ele>702.0</ele><time>2026-04-23T10:24:31Z</time></trkpt><trkpt lat="46.30344197922682" lon="12.440548672636456"><ele>702.0</ele><time>2026-04-23T10:24:32Z</time></trkpt><trkpt lat="46.303286323069514" lon="12.440528943232"><ele>702.0</ele><time>2026-04-23T10:24:33Z</time></trkpt><trkpt lat="46.303119976282474" lon="12.440518030792287"><ele>702.0</ele><time>2026-04-23T10:24:34Z</time></trkpt><trkpt lat="46.3029476186229" lon="12.440516488703297"><ele>700.6666666666666</ele><time>2026-04-23T10:24:35Z</time></trkpt><trkpt lat="46.30276971310009" lon="12.440525639316702"><ele>699.3333333333333</ele><time>2026-04-23T10:24:36Z</time></trkpt><trkpt lat="46.30258819113168" lon="12.440554002719395"><ele>698.0</ele><time>2026-04-23T10:24:37Z</time></trkpt><trkpt lat="46.3024116527495" lon="12.44058933742701"><ele>697.3333333333333</ele><time>2026-04-23T10:24:38Z</time></trkpt><trkpt lat="46.302240594938965" lon="12.440626993763479"><ele>696.6666666666666</ele><time>2026-04-23T10:24:39Z</time></trkpt><trkpt lat="46.30207795069361" lon="12.4406663938216"><ele>696.0</ele><time>2026-04-23T10:24:40Z</time></trkpt><trkpt lat="46.30192561214571" lon="12.440704342343082"><ele>696.0</ele><time>2026-04-23T10:24:41Z</time></trkpt><trkpt lat="46.30177592878669" lon="12.440738885705173"><ele>696.0</ele><time>2026-04-23T10:24:42Z</time></trkpt><trkpt lat="46.30163126141423" lon="12.440770522031473"><ele>696.0</ele><time>2026-04-23T10:24:43Z</time></trkpt><trkpt lat="46.301490398193856" lon="12.440800754851907"><ele>696.0</ele><time>2026-04-23T10:24:43.999Z</time></trkpt><trkpt lat="46.30135668214637" lon="12.440832020037874"><ele>695.5</ele><time>2026-04-23T10:24:44.999Z</time></trkpt><trkpt lat="46.30121683859667" lon="12.440866063083911"><ele>695.0</ele><time>2026-04-23T10:24:45.999Z</time></trkpt><trkpt lat="46.30107801598464" lon="12.440892366525208"><ele>694.5</ele><time>2026-04-23T10:24:46.999Z</time></trkpt><trkpt lat="46.30093879872957" lon="12.440893729904934"><ele>694.0</ele><time>2026-04-23T10:24:47.999Z</time></trkpt><trkpt lat="46.30079810105348" lon="12.44086340997549"><ele>694.0</ele><time>2026-04-23T10:24:48.999Z</time></trkpt><trkpt lat="46.300650622646856" lon="12.44083503719117"><ele>694.0</ele><time>2026-04-23T10:24:49.999Z</time></trkpt><trkpt lat="46.30051078270515" lon="12.440816947216161"><ele>694.0</ele><time>2026-04-23T10:24:50.999Z</time></trkpt><trkpt lat="46.300376194963114" lon="12.440803934185789"><ele>694.0</ele><time>2026-04-23T10:24:51.999Z</time></trkpt><trkpt lat="46.300248401459136" lon="12.440796703458398"><ele>693.2</ele><time>2026-04-23T10:24:52.999Z</time></trkpt><trkpt lat="46.30013477836625" lon="12.440795488666492"><ele>692.4000000000001</ele><time>2026-04-23T10:24:53.999Z</time></trkpt><trkpt lat="46.30003204777862" lon="12.440787366214673"><ele>691.6</ele><time>2026-04-23T10:24:54.999Z</time></trkpt><trkpt lat="46.299933235535434" lon="12.440755999843937"><ele>690.8</ele><time>2026-04-23T10:24:55.999Z</time></trkpt><trkpt lat="46.29986086395703" lon="12.440703044891567"><ele>690.0</ele><time>2026-04-23T10:24:56.999Z</time></trkpt><trkpt lat="46.299797818026036" lon="12.440655213899873"><ele>690.1666666666666</ele><time>2026-04-23T10:24:57.999Z</time></trkpt><trkpt lat="46.29973823551758" lon="12.44061177724788"><ele>690.3333333333334</ele><time>2026-04-23T10:24:58.999Z</time></trkpt><trkpt lat="46.29967631333545" lon="12.440571367345756"><ele>690.5</ele><time>2026-04-23T10:24:59.999Z</time></trkpt><trkpt lat="46.299614378444204" lon="12.44051395959665"><ele>690.6666666666667</ele><time>2026-04-23T10:25:00.999Z</time></trkpt><trkpt lat="46.29950651449359" lon="12.440422339893898"><ele>690.8333333333334</ele><time>2026-04-23T10:25:02.999Z</time></trkpt><trkpt lat="46.29945066816286" lon="12.440374904000812"><ele>691.0</ele><time>2026-04-23T10:25:03.999Z</time></trkpt><trkpt lat="46.29938781063607" lon="12.440328341764927"><ele>691.0</ele><time>2026-04-23T10:25:04.999Z</time></trkpt><trkpt lat="46.299309066095" lon="12.440296882438082"><ele>691.0</ele><time>2026-04-23T10:25:05.999Z</time></trkpt><trkpt lat="46.29922485399656" lon="12.440275369756966"><ele>691.0</ele><time>2026-04-23T10:25:06.999Z</time></trkpt><trkpt lat="46.299131626841216" lon="12.440256782039866"><ele>691.0</ele><time>2026-04-23T10:25:07.999Z</time></trkpt><trkpt lat="46.29902664338826" lon="12.440243668502191"><ele>691.0</ele><time>2026-04-23T10:25:08.999Z</time></trkpt><trkpt lat="46.29891951757648" lon="12.440214415216337"><ele>690.75</ele><time>2026-04-23T10:25:09.999Z</time></trkpt><trkpt lat="46.29881002262157" lon="12.440163330798866"><ele>690.5</ele><time>2026-04-23T10:25:10.999Z</time></trkpt><trkpt lat="46.29869513073937" lon="12.440102237117179"><ele>690.25</ele><time>2026-04-23T10:25:11.999Z</time></trkpt><trkpt lat="46.29857905916016" lon="12.440048717046437"><ele>690.0</ele><time>2026-04-23T10:25:12.999Z</time></trkpt><trkpt lat="46.29846484096245" lon="12.44001267264933"><ele>690.0</ele><time>2026-04-23T10:25:13.999Z</time></trkpt><trkpt lat="46.29835647481497" lon="12.439990275941598"><ele>690.0</ele><time>2026-04-23T10:25:14.999Z</time></trkpt><trkpt lat="46.2982538208222" lon="12.439967928873815"><ele>690.0</ele><time>2026-04-23T10:25:15.999Z</time></trkpt><trkpt lat="46.29815392237318" lon="12.439928273066773"><ele>690.0</ele><time>2026-04-23T10:25:16.999Z</time></trkpt><trkpt lat="46.29805916964699" lon="12.439867589947943"><ele>690.0</ele><time>2026-04-23T10:25:17.999Z</time></trkpt><trkpt lat="46.29797904500765" lon="12.43980344454054"><ele>690.25</ele><time>2026-04-23T10:25:18.999Z</time></trkpt><trkpt lat="46.297898828762655" lon="12.439757936363995"><ele>690.5</ele><time>2026-04-23T10:25:19.999Z</time></trkpt><trkpt lat="46.29778376135997" lon="12.439715446295507"><ele>690.75</ele><time>2026-04-23T10:25:20.999Z</time></trkpt><trkpt lat="46.29763676370168" lon="12.439739328797033"><ele>691.0</ele><time>2026-04-23T10:25:21.999Z</time></trkpt><trkpt lat="46.29749283273261" lon="12.439773676077158"><ele>691.0</ele><time>2026-04-23T10:25:22.999Z</time></trkpt><trkpt lat="46.29733930805746" lon="12.43981007782638"><ele>691.0</ele><time>2026-04-23T10:25:23.999Z</time></trkpt><trkpt lat="46.29717883758569" lon="12.439841895290357"><ele>691.0</ele><time>2026-04-23T10:25:24.999Z</time></trkpt><trkpt lat="46.297005928407444" lon="12.439870961814863"><ele>691.0</ele><time>2026-04-23T10:25:25.999Z</time></trkpt><trkpt lat="46.29682717803671" lon="12.43989567330795"><ele>691.0</ele><time>2026-04-23T10:25:26.999Z</time></trkpt><trkpt lat="46.29664463776412" lon="12.43991761568868"><ele>691.0</ele><time>2026-04-23T10:25:27.999Z</time></trkpt><trkpt lat="46.29645920437064" lon="12.439939916627155"><ele>691.0</ele><time>2026-04-23T10:25:28.999Z</time></trkpt><trkpt lat="46.296274285643136" lon="12.439962155668118"><ele>691.0</ele><time>2026-04-23T10:25:29.999Z</time></trkpt><trkpt lat="46.296092760111975" lon="12.439991723186846"><ele>691.0</ele><time>2026-04-23T10:25:30.999Z</time></trkpt><trkpt lat="46.29592114766556" lon="12.440031215858335"><ele>691.0</ele><time>2026-04-23T10:25:31.999Z</time></trkpt><trkpt lat="46.295757209067794" lon="12.440069571298503"><ele>691.0</ele><time>2026-04-23T10:25:32.999Z</time></trkpt><trkpt lat="46.29559703514315" lon="12.440110509513202"><ele>691.0</ele><time>2026-04-23T10:25:33.999Z</time></trkpt><trkpt lat="46.29543492922716" lon="12.440159570481036"><ele>687.6666666666667</ele><time>2026-04-23T10:25:34.999Z</time></trkpt><trkpt lat="46.2952745037496" lon="12.44020782884333"><ele>684.3333333333334</ele><time>2026-04-23T10:25:35.999Z</time></trkpt><trkpt lat="46.29511370987183" lon="12.440257829951822"><ele>681.0</ele><time>2026-04-23T10:25:36.999Z</time></trkpt><trkpt lat="46.294952813064846" lon="12.440307863058655"><ele>681.0</ele><time>2026-04-23T10:25:37.999Z</time></trkpt><trkpt lat="46.29479128645186" lon="12.440358092028722"><ele>681.0</ele><time>2026-04-23T10:25:38.999Z</time></trkpt><trkpt lat="46.29463234587701" lon="12.440406101806982"><ele>681.0</ele><time>2026-04-23T10:25:39.999Z</time></trkpt><trkpt lat="46.294473543627014" lon="12.440448635312238"><ele>677.25</ele><time>2026-04-23T10:25:40.999Z</time></trkpt><trkpt lat="46.29431561926951" lon="12.440484938812457"><ele>673.5</ele><time>2026-04-23T10:25:41.999Z</time></trkpt><trkpt lat="46.29417151649449" lon="12.440521685008909"><ele>669.75</ele><time>2026-04-23T10:25:42.999Z</time></trkpt><trkpt lat="46.294058288726774" lon="12.440582812754952"><ele>666.0</ele><time>2026-04-23T10:25:43.999Z</time></trkpt><trkpt lat="46.293951392409866" lon="12.440622294579502"><ele>665.8</ele><time>2026-04-23T10:25:44.999Z</time></trkpt><trkpt lat="46.2938479218284" lon="12.440659044163386"><ele>665.5999999999999</ele><time>2026-04-23T10:25:45.999Z</time></trkpt><trkpt lat="46.29375301365765" lon="12.440697420727929"><ele>665.4</ele><time>2026-04-23T10:25:46.999Z</time></trkpt><trkpt lat="46.29366027865028" lon="12.440736615548083"><ele>665.2</ele><time>2026-04-23T10:25:47.999Z</time></trkpt><trkpt lat="46.29357083199632" lon="12.440773767024272"><ele>665.0</ele><time>2026-04-23T10:25:48.999Z</time></trkpt><trkpt lat="46.293484310884935" lon="12.440794767508836"><ele>665.0</ele><time>2026-04-23T10:25:49.998Z</time></trkpt><trkpt lat="46.293394207170714" lon="12.440742504154626"><ele>665.0</ele><time>2026-04-23T10:25:50.998Z</time></trkpt><trkpt lat="46.2932927740308" lon="12.440683698767572"><ele>665.0</ele><time>2026-04-23T10:25:51.998Z</time></trkpt><trkpt lat="46.2931713842929" lon="12.440631618921113"><ele>665.0</ele><time>2026-04-23T10:25:52.998Z</time></trkpt><trkpt lat="46.29303915502012" lon="12.440599556825818"><ele>664.4</ele><time>2026-04-23T10:25:53.998Z</time></trkpt><trkpt lat="46.29291034182113" lon="12.440570154732235"><ele>663.8</ele><time>2026-04-23T10:25:54.998Z</time></trkpt><trkpt lat="46.29279857579177" lon="12.440540711597174"><ele>663.2</ele><time>2026-04-23T10:25:55.998Z</time></trkpt><trkpt lat="46.29269965156822" lon="12.440509695239399"><ele>662.6</ele><time>2026-04-23T10:25:56.998Z</time></trkpt><trkpt lat="46.292610130267" lon="12.440479899195825"><ele>662.0</ele><time>2026-04-23T10:25:57.998Z</time></trkpt><trkpt lat="46.29253689459531" lon="12.440446061301877"><ele>663.4000000000001</ele><time>2026-04-23T10:25:58.998Z</time></trkpt><trkpt lat="46.29248605954333" lon="12.440380067179696"><ele>664.8000000000001</ele><time>2026-04-23T10:25:59.998Z</time></trkpt><trkpt lat="46.292455302901715" lon="12.440295501372072"><ele>666.2</ele><time>2026-04-23T10:26:00.998Z</time></trkpt><trkpt lat="46.29240475237889" lon="12.440186725007681"><ele>667.6</ele><time>2026-04-23T10:26:01.998Z</time></trkpt><trkpt lat="46.29235555982108" lon="12.439953949826451"><ele>669.0</ele><time>2026-04-23T10:26:02.998Z</time></trkpt><trkpt lat="46.29229478725969" lon="12.439754383870717"><ele>667.25</ele><time>2026-04-23T10:26:03.998Z</time></trkpt><trkpt lat="46.29223169296763" lon="12.439549686009606"><ele>665.5</ele><time>2026-04-23T10:26:04.998Z</time></trkpt><trkpt lat="46.292169862934905" lon="12.43935134386867"><ele>663.75</ele><time>2026-04-23T10:26:05.998Z</time></trkpt><trkpt lat="46.292111594443206" lon="12.439164426414015"><ele>662.0</ele><time>2026-04-23T10:26:06.998Z</time></trkpt><trkpt lat="46.292027437069734" lon="12.438996192545604"><ele>662.0</ele><time>2026-04-23T10:26:07.998Z</time></trkpt><trkpt lat="46.291937516706426" lon="12.438839338375125"><ele>662.0</ele><time>2026-04-23T10:26:08.998Z</time></trkpt><trkpt lat="46.291845327174684" lon="12.438680014504484"><ele>662.0</ele><time>2026-04-23T10:26:09.998Z</time></trkpt><trkpt lat="46.29174421445843" lon="12.43852615218398"><ele>662.0</ele><time>2026-04-23T10:26:10.998Z</time></trkpt><trkpt lat="46.29164466106177" lon="12.438373678597532"><ele>662.5</ele><time>2026-04-23T10:26:11.998Z</time></trkpt><trkpt lat="46.29154513643667" lon="12.438221248837499"><ele>663.0</ele><time>2026-04-23T10:26:12.998Z</time></trkpt><trkpt lat="46.29144487623051" lon="12.438071705707703"><ele>663.5</ele><time>2026-04-23T10:26:13.998Z</time></trkpt><trkpt lat="46.291339909950445" lon="12.437917450638794"><ele>664.0</ele><time>2026-04-23T10:26:14.998Z</time></trkpt><trkpt lat="46.29121750352947" lon="12.437782769925018"><ele>664.6666666666667</ele><time>2026-04-23T10:26:15.998Z</time></trkpt><trkpt lat="46.291083198718006" lon="12.437673639812687"><ele>665.3333333333334</ele><time>2026-04-23T10:26:16.998Z</time></trkpt><trkpt lat="46.29094874779361" lon="12.437565498809189"><ele>666.0</ele><time>2026-04-23T10:26:17.998Z</time></trkpt><trkpt lat="46.29081511644546" lon="12.437460006085216"><ele>666.0</ele><time>2026-04-23T10:26:18.998Z</time></trkpt><trkpt lat="46.29067256338499" lon="12.437382294109483"><ele>666.0</ele><time>2026-04-23T10:26:19.998Z</time></trkpt><trkpt lat="46.29053774870577" lon="12.4372837159424"><ele>666.0</ele><time>2026-04-23T10:26:21Z</time></trkpt><trkpt lat="46.2904128918139" lon="12.437170985876051"><ele>666.5</ele><time>2026-04-23T10:26:22Z</time></trkpt><trkpt lat="46.29028269932882" lon="12.43707560859203"><ele>667.0</ele><time>2026-04-23T10:26:23Z</time></trkpt><trkpt lat="46.29015646423603" lon="12.436983386860224"><ele>667.5</ele><time>2026-04-23T10:26:24Z</time></trkpt><trkpt lat="46.290031337381954" lon="12.436892865256992"><ele>668.0</ele><time>2026-04-23T10:26:25Z</time></trkpt><trkpt lat="46.289900160446315" lon="12.436795329210828"><ele>668.0</ele><time>2026-04-23T10:26:26Z</time></trkpt><trkpt lat="46.28976234933952" lon="12.436702613825966"><ele>668.0</ele><time>2026-04-23T10:26:27Z</time></trkpt><trkpt lat="46.28962543719775" lon="12.436629221881764"><ele>668.0</ele><time>2026-04-23T10:26:28Z</time></trkpt><trkpt lat="46.28950469408269" lon="12.436578476366066"><ele>668.0</ele><time>2026-04-23T10:26:29Z</time></trkpt><trkpt lat="46.28939418521421" lon="12.436571680865756"><ele>669.1666666666666</ele><time>2026-04-23T10:26:30Z</time></trkpt><trkpt lat="46.289303446676804" lon="12.43654280670321"><ele>670.3333333333333</ele><time>2026-04-23T10:26:31Z</time></trkpt><trkpt lat="46.289228505525514" lon="12.436479253310239"><ele>671.5</ele><time>2026-04-23T10:26:32Z</time></trkpt><trkpt lat="46.28915855287675" lon="12.436428286913792"><ele>672.6666666666666</ele><time>2026-04-23T10:26:33Z</time></trkpt><trkpt lat="46.28908044593505" lon="12.436376643546819"><ele>673.8333333333334</ele><time>2026-04-23T10:26:34Z</time></trkpt><trkpt lat="46.28899977145821" lon="12.436340396431726"><ele>675.0</ele><time>2026-04-23T10:26:35Z</time></trkpt><trkpt lat="46.288949721115706" lon="12.436263257037101"><ele>669.5</ele><time>2026-04-23T10:26:36Z</time></trkpt><trkpt lat="46.288844584436475" lon="12.436174004910063"><ele>664.0</ele><time>2026-04-23T10:26:38Z</time></trkpt><trkpt lat="46.28872709202726" lon="12.436083427611024"><ele>658.5</ele><time>2026-04-23T10:26:40Z</time></trkpt><trkpt lat="46.28864072684559" lon="12.436035621661237"><ele>653.0</ele><time>2026-04-23T10:26:41Z</time></trkpt><trkpt lat="46.28854636366288" lon="12.435969687414206"><ele>653.0</ele><time>2026-04-23T10:26:42Z</time></trkpt><trkpt lat="46.2884421022934" lon="12.435891868523889"><ele>653.0</ele><time>2026-04-23T10:26:43Z</time></trkpt><trkpt lat="46.288338606654335" lon="12.435814326025266"><ele>653.0</ele><time>2026-04-23T10:26:44Z</time></trkpt><trkpt lat="46.28823410738548" lon="12.435727650585035"><ele>653.0</ele><time>2026-04-23T10:26:45Z</time></trkpt><trkpt lat="46.28812907916956" lon="12.435633700039853"><ele>652.0</ele><time>2026-04-23T10:26:46Z</time></trkpt><trkpt lat="46.28802523918307" lon="12.435535615822973"><ele>651.0</ele><time>2026-04-23T10:26:47Z</time></trkpt><trkpt lat="46.287922339104504" lon="12.435438555951436"><ele>650.0</ele><time>2026-04-23T10:26:48Z</time></trkpt><trkpt lat="46.2878271756377" lon="12.435347452944"><ele>649.0</ele><time>2026-04-23T10:26:49Z</time></trkpt><trkpt lat="46.28774623945725" lon="12.435269200192316"><ele>648.8333333333334</ele><time>2026-04-23T10:26:49.999Z</time></trkpt><trkpt lat="46.28768381980916" lon="12.435208850253126"><ele>648.6666666666667</ele><time>2026-04-23T10:26:50.999Z</time></trkpt><trkpt lat="46.28762973224015" lon="12.43515655515043"><ele>648.5</ele><time>2026-04-23T10:26:51.999Z</time></trkpt><trkpt lat="46.287571044879584" lon="12.435102952389638"><ele>648.3333333333334</ele><time>2026-04-23T10:26:52.999Z</time></trkpt><trkpt lat="46.28750481950032" lon="12.435042927834544"><ele>648.1666666666666</ele><time>2026-04-23T10:26:53.999Z</time></trkpt><trkpt lat="46.287411240031126" lon="12.434966351683384"><ele>648.0</ele><time>2026-04-23T10:26:54.999Z</time></trkpt><trkpt lat="46.287295410924095" lon="12.434876327002856"><ele>647.8</ele><time>2026-04-23T10:26:55.999Z</time></trkpt><trkpt lat="46.28717460403191" lon="12.43478243358154"><ele>647.5999999999999</ele><time>2026-04-23T10:26:56.999Z</time></trkpt><trkpt lat="46.28707048951453" lon="12.434710835314005"><ele>647.4000000000001</ele><time>2026-04-23T10:26:57.999Z</time></trkpt><trkpt lat="46.28698423882779" lon="12.4346679413736"><ele>647.2</ele><time>2026-04-23T10:26:58.999Z</time></trkpt><trkpt lat="46.28688294374386" lon="12.43464892337325"><ele>647.0</ele><time>2026-04-23T10:27:00.999Z</time></trkpt><trkpt lat="46.28681476522493" lon="12.434632814673163"><ele>646.75</ele><time>2026-04-23T10:27:12.999Z</time></trkpt><trkpt lat="46.286791469995165" lon="12.43482632805522"><ele>646.5</ele><time>2026-04-23T10:27:13.999Z</time></trkpt><trkpt lat="46.28678338457438" lon="12.434941071321985"><ele>646.25</ele><time>2026-04-23T10:27:14.999Z</time></trkpt><trkpt lat="46.28676897919668" lon="12.435130741334696"><ele>646.0</ele><time>2026-04-23T10:27:15.999Z</time></trkpt><trkpt lat="46.28674692942309" lon="12.435310724066248"><ele>646.0</ele><time>2026-04-23T10:27:16.999Z</time></trkpt><trkpt lat="46.28672520782138" lon="12.435476785500285"><ele>646.0</ele><time>2026-04-23T10:27:17.999Z</time></trkpt><trkpt lat="46.28671062920688" lon="12.435634931326572"><ele>646.0</ele><time>2026-04-23T10:27:18.999Z</time></trkpt><trkpt lat="46.28669602498297" lon="12.435791210951797"><ele>646.0</ele><time>2026-04-23T10:27:19.999Z</time></trkpt><trkpt lat="46.28668500364542" lon="12.435942993341166"><ele>646.0</ele><time>2026-04-23T10:27:20.999Z</time></trkpt><trkpt lat="46.28667963225526" lon="12.436099418412663"><ele>646.0</ele><time>2026-04-23T10:27:21.999Z</time></trkpt><trkpt lat="46.28667863293966" lon="12.436262024320826"><ele>646.0</ele><time>2026-04-23T10:27:22.999Z</time></trkpt><trkpt lat="46.286677555914565" lon="12.436430941010304"><ele>646.0</ele><time>2026-04-23T10:27:23.999Z</time></trkpt><trkpt lat="46.28667899333329" lon="12.436601790387748"><ele>646.0</ele><time>2026-04-23T10:27:24.999Z</time></trkpt><trkpt lat="46.28667692727591" lon="12.436770810007747"><ele>646.0</ele><time>2026-04-23T10:27:25.999Z</time></trkpt><trkpt lat="46.28667740829016" lon="12.436938455465022"><ele>646.0</ele><time>2026-04-23T10:27:26.999Z</time></trkpt><trkpt lat="46.28667947789577" lon="12.437107163246479"><ele>646.0</ele><time>2026-04-23T10:27:27.999Z</time></trkpt><trkpt lat="46.28667959804924" lon="12.437276922973131"><ele>646.0</ele><time>2026-04-23T10:27:28.999Z</time></trkpt><trkpt lat="46.286675936648166" lon="12.437442979491864"><ele>646.25</ele><time>2026-04-23T10:27:29.999Z</time></trkpt><trkpt lat="46.28666983530232" lon="12.437608343154462"><ele>646.5</ele><time>2026-04-23T10:27:30.999Z</time></trkpt><trkpt lat="46.286653569966816" lon="12.437775863747552"><ele>646.75</ele><time>2026-04-23T10:27:31.999Z</time></trkpt><trkpt lat="46.286628191185436" lon="12.43794029220642"><ele>647.0</ele><time>2026-04-23T10:27:32.999Z</time></trkpt><trkpt lat="46.28659842535789" lon="12.438102828719181"><ele>647.5</ele><time>2026-04-23T10:27:33.999Z</time></trkpt><trkpt lat="46.286567327036764" lon="12.438262134877046"><ele>648.0</ele><time>2026-04-23T10:27:34.999Z</time></trkpt><trkpt lat="46.28653256011822" lon="12.438419924200653"><ele>648.5</ele><time>2026-04-23T10:27:35.999Z</time></trkpt><trkpt lat="46.28650215094584" lon="12.43857719204715"><ele>649.0</ele><time>2026-04-23T10:27:36.999Z</time></trkpt><trkpt lat="46.28647175325407" lon="12.43873123968306"><ele>648.75</ele><time>2026-04-23T10:27:37.999Z</time></trkpt><trkpt lat="46.286442046920165" lon="12.438887489732211"><ele>648.5</ele><time>2026-04-23T10:27:38.999Z</time></trkpt><trkpt lat="46.286411972446615" lon="12.439046423336734"><ele>648.25</ele><time>2026-04-23T10:27:39.999Z</time></trkpt><trkpt lat="46.28638166821424" lon="12.439215398469045"><ele>648.0</ele><time>2026-04-23T10:27:40.999Z</time></trkpt><trkpt lat="46.28634823745259" lon="12.439386586288254"><ele>647.0</ele><time>2026-04-23T10:27:41.999Z</time></trkpt><trkpt lat="46.28631523777613" lon="12.439558510322069"><ele>646.0</ele><time>2026-04-23T10:27:42.999Z</time></trkpt><trkpt lat="46.28627737072552" lon="12.439747011472145"><ele>645.0</ele><time>2026-04-23T10:27:43.999Z</time></trkpt><trkpt lat="46.286234545142264" lon="12.439950876482307"><ele>644.0</ele><time>2026-04-23T10:27:44.999Z</time></trkpt><trkpt lat="46.28618683305067" lon="12.440194906495881"><ele>643.0</ele><time>2026-04-23T10:27:45.999Z</time></trkpt><trkpt lat="46.28613904683471" lon="12.440450999102843"><ele>642.0</ele><time>2026-04-23T10:27:46.999Z</time></trkpt><trkpt lat="46.286095545000535" lon="12.440705824432818"><ele>641.0</ele><time>2026-04-23T10:27:47.999Z</time></trkpt><trkpt lat="46.28605286147263" lon="12.440947943014596"><ele>640.6666666666666</ele><time>2026-04-23T10:27:48.999Z</time></trkpt><trkpt lat="46.28600778589598" lon="12.44117750680945"><ele>640.3333333333334</ele><time>2026-04-23T10:27:49.999Z</time></trkpt><trkpt lat="46.28595872557764" lon="12.441403060064307"><ele>640.0</ele><time>2026-04-23T10:27:50.999Z</time></trkpt><trkpt lat="46.285908864052026" lon="12.441624628632859"><ele>639.3333333333334</ele><time>2026-04-23T10:27:51.999Z</time></trkpt><trkpt lat="46.285864197816586" lon="12.441845654229068"><ele>638.6666666666666</ele><time>2026-04-23T10:27:52.999Z</time></trkpt><trkpt lat="46.285824311567694" lon="12.442068507285564"><ele>638.0</ele><time>2026-04-23T10:27:53.999Z</time></trkpt><trkpt lat="46.28578457124346" lon="12.442291768155052"><ele>638.0</ele><time>2026-04-23T10:27:54.998Z</time></trkpt><trkpt lat="46.28574040632002" lon="12.442515397971409"><ele>638.0</ele><time>2026-04-23T10:27:55.998Z</time></trkpt><trkpt lat="46.28569202398454" lon="12.442746018606009"><ele>638.0</ele><time>2026-04-23T10:27:56.998Z</time></trkpt><trkpt lat="46.285640831184665" lon="12.44297449169386"><ele>637.3333333333333</ele><time>2026-04-23T10:27:57.998Z</time></trkpt><trkpt lat="46.2855912691823" lon="12.443210821723383"><ele>636.6666666666666</ele><time>2026-04-23T10:27:58.998Z</time></trkpt><trkpt lat="46.285543513367664" lon="12.443440751539937"><ele>636.0</ele><time>2026-04-23T10:27:59.998Z</time></trkpt><trkpt lat="46.28550175786231" lon="12.443660749895079"><ele>636.3333333333334</ele><time>2026-04-23T10:28:00.998Z</time></trkpt><trkpt lat="46.285455105733256" lon="12.443885930160263"><ele>636.6666666666667</ele><time>2026-04-23T10:28:01.998Z</time></trkpt><trkpt lat="46.28540715722661" lon="12.444115120854534"><ele>637.0</ele><time>2026-04-23T10:28:02.998Z</time></trkpt><trkpt lat="46.28535876287832" lon="12.444338167275978"><ele>637.0</ele><time>2026-04-23T10:28:03.998Z</time></trkpt><trkpt lat="46.28530948791648" lon="12.444558878610241"><ele>637.0</ele><time>2026-04-23T10:28:04.998Z</time></trkpt><trkpt lat="46.285259449638765" lon="12.444768288350604"><ele>637.0</ele><time>2026-04-23T10:28:05.998Z</time></trkpt><trkpt lat="46.28520730972965" lon="12.444958531327337"><ele>637.75</ele><time>2026-04-23T10:28:06.998Z</time></trkpt><trkpt lat="46.28514502303404" lon="12.445141094551666"><ele>638.5</ele><time>2026-04-23T10:28:07.998Z</time></trkpt><trkpt lat="46.285069106487626" lon="12.445319429156962"><ele>639.25</ele><time>2026-04-23T10:28:08.998Z</time></trkpt><trkpt lat="46.284980113922366" lon="12.445484355195381"><ele>640.0</ele><time>2026-04-23T10:28:09.998Z</time></trkpt><trkpt lat="46.284876577643736" lon="12.44563676429611"><ele>640.75</ele><time>2026-04-23T10:28:10.998Z</time></trkpt><trkpt lat="46.28477162827915" lon="12.445774018159408"><ele>641.5</ele><time>2026-04-23T10:28:11.998Z</time></trkpt><trkpt lat="46.28466598679473" lon="12.44590031080285"><ele>642.25</ele><time>2026-04-23T10:28:12.998Z</time></trkpt><trkpt lat="46.284564584513696" lon="12.44603073993816"><ele>643.0</ele><time>2026-04-23T10:28:13.998Z</time></trkpt><trkpt lat="46.2844603472514" lon="12.44616036839155"><ele>643.0</ele><time>2026-04-23T10:28:14.998Z</time></trkpt><trkpt lat="46.28435705707909" lon="12.446289060888256"><ele>643.0</ele><time>2026-04-23T10:28:15.998Z</time></trkpt><trkpt lat="46.28425513038929" lon="12.44642286657039"><ele>643.0</ele><time>2026-04-23T10:28:16.998Z</time></trkpt><trkpt lat="46.284150254119616" lon="12.446557557845471"><ele>643.0</ele><time>2026-04-23T10:28:17.998Z</time></trkpt><trkpt lat="46.28404426035358" lon="12.446692179349073"><ele>643.0</ele><time>2026-04-23T10:28:18.998Z</time></trkpt><trkpt lat="46.28393651265358" lon="12.446828192733896"><ele>643.0</ele><time>2026-04-23T10:28:19.998Z</time></trkpt><trkpt lat="46.283826400311746" lon="12.446962869156764"><ele>643.0</ele><time>2026-04-23T10:28:20.998Z</time></trkpt><trkpt lat="46.28371656235245" lon="12.447089639670063"><ele>643.0</ele><time>2026-04-23T10:28:21.998Z</time></trkpt><trkpt lat="46.28360645177765" lon="12.447215205612498"><ele>642.5</ele><time>2026-04-23T10:28:22.998Z</time></trkpt><trkpt lat="46.28349264490629" lon="12.447341337638845"><ele>642.0</ele><time>2026-04-23T10:28:23.998Z</time></trkpt><trkpt lat="46.283375711054134" lon="12.447458330033163"><ele>641.5</ele><time>2026-04-23T10:28:24.998Z</time></trkpt><trkpt lat="46.28324072872215" lon="12.447557325390507"><ele>641.0</ele><time>2026-04-23T10:28:25.998Z</time></trkpt><trkpt lat="46.28309438131543" lon="12.447645721902386"><ele>640.0</ele><time>2026-04-23T10:28:27Z</time></trkpt><trkpt lat="46.282936591497226" lon="12.44773192965292"><ele>639.0</ele><time>2026-04-23T10:28:28Z</time></trkpt><trkpt lat="46.282758893714366" lon="12.447788006445508"><ele>638.0</ele><time>2026-04-23T10:28:29Z</time></trkpt><trkpt lat="46.282578467861846" lon="12.447865064129093"><ele>637.6666666666666</ele><time>2026-04-23T10:28:30Z</time></trkpt><trkpt lat="46.282397211332" lon="12.447964312887747"><ele>637.3333333333334</ele><time>2026-04-23T10:28:31Z</time></trkpt><trkpt lat="46.28221284331751" lon="12.448040689040376"><ele>637.0</ele><time>2026-04-23T10:28:32Z</time></trkpt><trkpt lat="46.28203276629685" lon="12.448093695315965"><ele>637.0</ele><time>2026-04-23T10:28:33Z</time></trkpt><trkpt lat="46.28185640122657" lon="12.44819274439516"><ele>637.0</ele><time>2026-04-23T10:28:34Z</time></trkpt><trkpt lat="46.28167651659709" lon="12.448272393757875"><ele>637.0</ele><time>2026-04-23T10:28:35Z</time></trkpt><trkpt lat="46.281500365210725" lon="12.448370292741094"><ele>636.0</ele><time>2026-04-23T10:28:36Z</time></trkpt><trkpt lat="46.28132594014026" lon="12.448496669216606"><ele>635.0</ele><time>2026-04-23T10:28:37Z</time></trkpt><trkpt lat="46.28115482261497" lon="12.448638434797855"><ele>634.0</ele><time>2026-04-23T10:28:38Z</time></trkpt><trkpt lat="46.28098158938365" lon="12.448778257567138"><ele>633.6666666666667</ele><time>2026-04-23T10:28:39Z</time></trkpt><trkpt lat="46.28081093896827" lon="12.448918040419409"><ele>633.3333333333334</ele><time>2026-04-23T10:28:40Z</time></trkpt><trkpt lat="46.28064521651074" lon="12.449048676242352"><ele>633.0</ele><time>2026-04-23T10:28:41Z</time></trkpt><trkpt lat="46.28048299773484" lon="12.449173326447552"><ele>632.3333333333334</ele><time>2026-04-23T10:28:42Z</time></trkpt><trkpt lat="46.28032686247858" lon="12.449297681706865"><ele>631.6666666666667</ele><time>2026-04-23T10:28:43Z</time></trkpt><trkpt lat="46.28017146072445" lon="12.449423821201488"><ele>631.0</ele><time>2026-04-23T10:28:44Z</time></trkpt><trkpt lat="46.280018697534736" lon="12.449554020237374"><ele>630.6666666666667</ele><time>2026-04-23T10:28:45Z</time></trkpt><trkpt lat="46.27986229452093" lon="12.449687767467587"><ele>630.3333333333334</ele><time>2026-04-23T10:28:46Z</time></trkpt><trkpt lat="46.27971099524893" lon="12.449829178763201"><ele>630.0</ele><time>2026-04-23T10:28:47Z</time></trkpt><trkpt lat="46.27956809461746" lon="12.449986502854054"><ele>629.6666666666666</ele><time>2026-04-23T10:28:48Z</time></trkpt><trkpt lat="46.27943384169874" lon="12.450157119937773"><ele>629.3333333333333</ele><time>2026-04-23T10:28:49Z</time></trkpt><trkpt lat="46.27930945573556" lon="12.450344450214947"><ele>629.0</ele><time>2026-04-23T10:28:50Z</time></trkpt><trkpt lat="46.27919529851331" lon="12.45054954514045"><ele>628.6666666666666</ele><time>2026-04-23T10:28:51Z</time></trkpt><trkpt lat="46.27909390857062" lon="12.450773880458486"><ele>628.3333333333334</ele><time>2026-04-23T10:28:52Z</time></trkpt><trkpt lat="46.27899589928408" lon="12.451010814268056"><ele>628.0</ele><time>2026-04-23T10:28:53Z</time></trkpt><trkpt lat="46.27890304615025" lon="12.451255716008655"><ele>626.3333333333334</ele><time>2026-04-23T10:28:54Z</time></trkpt><trkpt lat="46.27881345209901" lon="12.451510604769854"><ele>624.6666666666666</ele><time>2026-04-23T10:28:54.999Z</time></trkpt><trkpt lat="46.278722926696666" lon="12.451769043488751"><ele>623.0</ele><time>2026-04-23T10:28:55.999Z</time></trkpt><trkpt lat="46.27862739730232" lon="12.452026092806978"><ele>622.3333333333333</ele><time>2026-04-23T10:28:56.999Z</time></trkpt><trkpt lat="46.278529279341306" lon="12.4522804539398"><ele>621.6666666666666</ele><time>2026-04-23T10:28:57.999Z</time></trkpt><trkpt lat="46.278432037227475" lon="12.452536117900273"><ele>621.0</ele><time>2026-04-23T10:28:58.999Z</time></trkpt><trkpt lat="46.278337587128135" lon="12.452788172234012"><ele>620.6666666666666</ele><time>2026-04-23T10:28:59.999Z</time></trkpt><trkpt lat="46.27824733811646" lon="12.453029717349276"><ele>620.3333333333333</ele><time>2026-04-23T10:29:00.999Z</time></trkpt><trkpt lat="46.27815737872797" lon="12.453262197166683"><ele>620.0</ele><time>2026-04-23T10:29:01.999Z</time></trkpt><trkpt lat="46.27806362384451" lon="12.453483917541014"><ele>619.3333333333333</ele><time>2026-04-23T10:29:02.999Z</time></trkpt><trkpt lat="46.27795636725949" lon="12.453694264206248"><ele>618.6666666666666</ele><time>2026-04-23T10:29:03.999Z</time></trkpt><trkpt lat="46.277833830075025" lon="12.453894612836583"><ele>618.0</ele><time>2026-04-23T10:29:04.999Z</time></trkpt><trkpt lat="46.277694149550726" lon="12.454085175733404"><ele>617.3333333333334</ele><time>2026-04-23T10:29:05.999Z</time></trkpt><trkpt lat="46.27755185846768" lon="12.454268516046318"><ele>616.6666666666667</ele><time>2026-04-23T10:29:06.999Z</time></trkpt><trkpt lat="46.2774030638011" lon="12.454446812929426"><ele>616.0</ele><time>2026-04-23T10:29:07.999Z</time></trkpt><trkpt lat="46.27725168662649" lon="12.454620490361322"><ele>615.3333333333334</ele><time>2026-04-23T10:29:08.999Z</time></trkpt><trkpt lat="46.277100554493884" lon="12.454787805607648"><ele>614.6666666666666</ele><time>2026-04-23T10:29:09.999Z</time></trkpt><trkpt lat="46.27694741435747" lon="12.454953199648134"><ele>614.0</ele><time>2026-04-23T10:29:10.999Z</time></trkpt><trkpt lat="46.276792352368" lon="12.45511937651199"><ele>614.0</ele><time>2026-04-23T10:29:11.999Z</time></trkpt><trkpt lat="46.276636946519886" lon="12.4552879014132"><ele>614.0</ele><time>2026-04-23T10:29:12.999Z</time></trkpt><trkpt lat="46.27648203673184" lon="12.45545810223006"><ele>614.0</ele><time>2026-04-23T10:29:13.999Z</time></trkpt><trkpt lat="46.27632899954546" lon="12.45563058989888"><ele>612.3333333333333</ele><time>2026-04-23T10:29:14.999Z</time></trkpt><trkpt lat="46.27617613444802" lon="12.45580292982827"><ele>610.6666666666666</ele><time>2026-04-23T10:29:15.999Z</time></trkpt><trkpt lat="46.27602013426653" lon="12.45597092244353"><ele>609.0</ele><time>2026-04-23T10:29:16.999Z</time></trkpt><trkpt lat="46.27586367047163" lon="12.456134971119722"><ele>609.3333333333334</ele><time>2026-04-23T10:29:17.999Z</time></trkpt><trkpt lat="46.2757075865124" lon="12.456297073911228"><ele>609.6666666666667</ele><time>2026-04-23T10:29:18.999Z</time></trkpt><trkpt lat="46.27555847683576" lon="12.45646078080609"><ele>610.0</ele><time>2026-04-23T10:29:19.999Z</time></trkpt><trkpt lat="46.275409597312965" lon="12.45662635853558"><ele>608.3333333333334</ele><time>2026-04-23T10:29:20.999Z</time></trkpt><trkpt lat="46.27526371844866" lon="12.45678737137283"><ele>606.6666666666666</ele><time>2026-04-23T10:29:21.999Z</time></trkpt><trkpt lat="46.2751179936343" lon="12.456938687637049"><ele>605.0</ele><time>2026-04-23T10:29:22.999Z</time></trkpt><trkpt lat="46.274972566467504" lon="12.457082170772667"><ele>604.6666666666666</ele><time>2026-04-23T10:29:23.999Z</time></trkpt><trkpt lat="46.27482812902827" lon="12.457219603978938"><ele>604.3333333333334</ele><time>2026-04-23T10:29:24.999Z</time></trkpt><trkpt lat="46.27467057029517" lon="12.457427316617073"><ele>604.0</ele><time>2026-04-23T10:29:25.999Z</time></trkpt><trkpt lat="46.27451345824197" lon="12.457581260776792"><ele>603.3333333333334</ele><time>2026-04-23T10:29:26.999Z</time></trkpt><trkpt lat="46.27435208724299" lon="12.457727895209608"><ele>602.6666666666666</ele><time>2026-04-23T10:29:27.999Z</time></trkpt><trkpt lat="46.27418388635286" lon="12.457850070184586"><ele>602.0</ele><time>2026-04-23T10:29:28.999Z</time></trkpt><trkpt lat="46.27402145059116" lon="12.457966531733604"><ele>600.3333333333333</ele><time>2026-04-23T10:29:29.999Z</time></trkpt><trkpt lat="46.273859527364415" lon="12.458084607726795"><ele>598.6666666666666</ele><time>2026-04-23T10:29:30.999Z</time></trkpt><trkpt lat="46.273692816333636" lon="12.458181934240491"><ele>597.0</ele><time>2026-04-23T10:29:31.999Z</time></trkpt><trkpt lat="46.27352999049483" lon="12.458286559206282"><ele>597.0</ele><time>2026-04-23T10:29:32.999Z</time></trkpt><trkpt lat="46.27336949885568" lon="12.458397049385022"><ele>597.0</ele><time>2026-04-23T10:29:33.999Z</time></trkpt><trkpt lat="46.27320962265687" lon="12.458507254735906"><ele>597.0</ele><time>2026-04-23T10:29:34.999Z</time></trkpt><trkpt lat="46.27305115041116" lon="12.458619332421529"><ele>596.6666666666666</ele><time>2026-04-23T10:29:35.999Z</time></trkpt><trkpt lat="46.272892736477935" lon="12.458728641489662"><ele>596.3333333333333</ele><time>2026-04-23T10:29:36.999Z</time></trkpt><trkpt lat="46.27273125860645" lon="12.458831465691981"><ele>596.0</ele><time>2026-04-23T10:29:37.999Z</time></trkpt><trkpt lat="46.27257295319995" lon="12.458935586521898"><ele>595.3333333333333</ele><time>2026-04-23T10:29:38.999Z</time></trkpt><trkpt lat="46.272414720485365" lon="12.45903800481707"><ele>594.6666666666666</ele><time>2026-04-23T10:29:39.999Z</time></trkpt><trkpt lat="46.272253435916944" lon="12.459143188633067"><ele>594.0</ele><time>2026-04-23T10:29:40.999Z</time></trkpt><trkpt lat="46.27208956929012" lon="12.459252154371903"><ele>592.3333333333334</ele><time>2026-04-23T10:29:41.999Z</time></trkpt><trkpt lat="46.271926530181375" lon="12.459365675866884"><ele>590.6666666666667</ele><time>2026-04-23T10:29:42.999Z</time></trkpt><trkpt lat="46.27176347244219" lon="12.459473972985803"><ele>589.0</ele><time>2026-04-23T10:29:43.999Z</time></trkpt><trkpt lat="46.27159630156074" lon="12.459591962365115"><ele>589.0</ele><time>2026-04-23T10:29:44.999Z</time></trkpt><trkpt lat="46.271427613806694" lon="12.459709116819067"><ele>589.0</ele><time>2026-04-23T10:29:45.999Z</time></trkpt><trkpt lat="46.271263174365515" lon="12.459820353178712"><ele>589.0</ele><time>2026-04-23T10:29:46.999Z</time></trkpt><trkpt lat="46.27109405904047" lon="12.45993355597231"><ele>589.0</ele><time>2026-04-23T10:29:47.999Z</time></trkpt><trkpt lat="46.27091833834878" lon="12.460045796082344"><ele>589.0</ele><time>2026-04-23T10:29:48.999Z</time></trkpt><trkpt lat="46.27075567513226" lon="12.460151681575553"><ele>589.0</ele><time>2026-04-23T10:29:49.999Z</time></trkpt><trkpt lat="46.27059592954834" lon="12.460250636224847"><ele>587.6666666666667</ele><time>2026-04-23T10:29:50.999Z</time></trkpt><trkpt lat="46.27044320875001" lon="12.460352843561367"><ele>586.3333333333334</ele><time>2026-04-23T10:29:51.999Z</time></trkpt><trkpt lat="46.27029339046263" lon="12.460469582682993"><ele>585.0</ele><time>2026-04-23T10:29:52.999Z</time></trkpt><trkpt lat="46.27014277683963" lon="12.460609887711898"><ele>585.0</ele><time>2026-04-23T10:29:53.999Z</time></trkpt><trkpt lat="46.26999768583501" lon="12.460772603397416"><ele>585.0</ele><time>2026-04-23T10:29:54.999Z</time></trkpt><trkpt lat="46.269852389287884" lon="12.460948562545383"><ele>585.0</ele><time>2026-04-23T10:29:55.999Z</time></trkpt><trkpt lat="46.269710349176215" lon="12.461128252536595"><ele>582.6666666666666</ele><time>2026-04-23T10:29:56.999Z</time></trkpt><trkpt lat="46.26957063729145" lon="12.461301611533424"><ele>580.3333333333333</ele><time>2026-04-23T10:29:57.999Z</time></trkpt><trkpt lat="46.2694284728516" lon="12.461471095129715"><ele>578.0</ele><time>2026-04-23T10:29:58.999Z</time></trkpt><trkpt lat="46.26928590490656" lon="12.461632849275183"><ele>578.0</ele><time>2026-04-23T10:29:59.998Z</time></trkpt><trkpt lat="46.269141728486424" lon="12.461798515191303"><ele>578.0</ele><time>2026-04-23T10:30:00.998Z</time></trkpt><trkpt lat="46.26899670074794" lon="12.461971128441446"><ele>578.0</ele><time>2026-04-23T10:30:01.998Z</time></trkpt><trkpt lat="46.26885714091889" lon="12.46214503561805"><ele>577.0</ele><time>2026-04-23T10:30:02.998Z</time></trkpt><trkpt lat="46.26871522487111" lon="12.462317294783189"><ele>576.0</ele><time>2026-04-23T10:30:03.998Z</time></trkpt><trkpt lat="46.26857344033519" lon="12.462486620688832"><ele>575.0</ele><time>2026-04-23T10:30:04.998Z</time></trkpt><trkpt lat="46.26842785730527" lon="12.462652823159475"><ele>575.0</ele><time>2026-04-23T10:30:05.998Z</time></trkpt><trkpt lat="46.26828727685031" lon="12.462821490369691"><ele>575.0</ele><time>2026-04-23T10:30:06.998Z</time></trkpt><trkpt lat="46.26814396671069" lon="12.462990123179656"><ele>575.0</ele><time>2026-04-23T10:30:07.998Z</time></trkpt><trkpt lat="46.268002582751" lon="12.463156408571354"><ele>573.3333333333333</ele><time>2026-04-23T10:30:08.998Z</time></trkpt><trkpt lat="46.26786413509431" lon="12.463323368341209"><ele>571.6666666666666</ele><time>2026-04-23T10:30:09.998Z</time></trkpt><trkpt lat="46.26772823158469" lon="12.463481245622342"><ele>570.0</ele><time>2026-04-23T10:30:10.998Z</time></trkpt><trkpt lat="46.267597410646665" lon="12.46363666184966"><ele>570.3333333333334</ele><time>2026-04-23T10:30:11.998Z</time></trkpt><trkpt lat="46.26746697751587" lon="12.46378138467135"><ele>570.6666666666667</ele><time>2026-04-23T10:30:12.998Z</time></trkpt><trkpt lat="46.267338513218334" lon="12.463926651108672"><ele>571.0</ele><time>2026-04-23T10:30:13.998Z</time></trkpt><trkpt lat="46.26720909607836" lon="12.46407501750537"><ele>568.0</ele><time>2026-04-23T10:30:14.998Z</time></trkpt><trkpt lat="46.2670804774331" lon="12.464228906062022"><ele>565.0</ele><time>2026-04-23T10:30:15.998Z</time></trkpt><trkpt lat="46.266951608472695" lon="12.464386535165428"><ele>562.0</ele><time>2026-04-23T10:30:16.998Z</time></trkpt><trkpt lat="46.266822879284206" lon="12.46455224853479"><ele>563.0</ele><time>2026-04-23T10:30:17.998Z</time></trkpt><trkpt lat="46.26669034602377" lon="12.464712578468905"><ele>564.0</ele><time>2026-04-23T10:30:18.998Z</time></trkpt><trkpt lat="46.266553381696355" lon="12.464874761023957"><ele>565.0</ele><time>2026-04-23T10:30:19.998Z</time></trkpt><trkpt lat="46.266419189069005" lon="12.465033192808145"><ele>563.6666666666667</ele><time>2026-04-23T10:30:20.998Z</time></trkpt><trkpt lat="46.26628332711306" lon="12.465190706807556"><ele>562.3333333333334</ele><time>2026-04-23T10:30:21.998Z</time></trkpt><trkpt lat="46.266151258909325" lon="12.46534075544489"><ele>561.0</ele><time>2026-04-23T10:30:22.998Z</time></trkpt><trkpt lat="46.26602786817951" lon="12.465489144671388"><ele>561.0</ele><time>2026-04-23T10:30:23.998Z</time></trkpt><trkpt lat="46.26589807004706" lon="12.46563063538322"><ele>561.0</ele><time>2026-04-23T10:30:24.998Z</time></trkpt><trkpt lat="46.26576524497235" lon="12.4657611166248"><ele>561.0</ele><time>2026-04-23T10:30:25.998Z</time></trkpt><trkpt lat="46.26563189637597" lon="12.465880109739524"><ele>558.0</ele><time>2026-04-23T10:30:26.998Z</time></trkpt><trkpt lat="46.26548523934502" lon="12.465985275172649"><ele>555.0</ele><time>2026-04-23T10:30:27.998Z</time></trkpt><trkpt lat="46.265326490944304" lon="12.466092319756712"><ele>552.0</ele><time>2026-04-23T10:30:28.998Z</time></trkpt><trkpt lat="46.26515131038374" lon="12.466214859272512"><ele>552.3333333333334</ele><time>2026-04-23T10:30:29.998Z</time></trkpt><trkpt lat="46.26497230512098" lon="12.466344787991606"><ele>552.6666666666667</ele><time>2026-04-23T10:30:30.998Z</time></trkpt><trkpt lat="46.2647932224053" lon="12.466473986907777"><ele>553.0</ele><time>2026-04-23T10:30:31.998Z</time></trkpt><trkpt lat="46.26461430680149" lon="12.466603711911928"><ele>553.0</ele><time>2026-04-23T10:30:33Z</time></trkpt><trkpt lat="46.26443538642232" lon="12.466732900731994"><ele>553.0</ele><time>2026-04-23T10:30:34Z</time></trkpt><trkpt lat="46.26425812961087" lon="12.466860918814021"><ele>553.0</ele><time>2026-04-23T10:30:35Z</time></trkpt><trkpt lat="46.26408258174551" lon="12.466988150154197"><ele>552.3333333333334</ele><time>2026-04-23T10:30:36Z</time></trkpt><trkpt lat="46.263908277000596" lon="12.46711443025719"><ele>551.6666666666666</ele><time>2026-04-23T10:30:37Z</time></trkpt><trkpt lat="46.263741887256565" lon="12.467233305626737"><ele>551.0</ele><time>2026-04-23T10:30:38Z</time></trkpt><trkpt lat="46.26357453350949" lon="12.467345527584756"><ele>551.0</ele><time>2026-04-23T10:30:39Z</time></trkpt><trkpt lat="46.2634019365744" lon="12.467453799329792"><ele>551.0</ele><time>2026-04-23T10:30:40Z</time></trkpt><trkpt lat="46.26322525659974" lon="12.467561759477475"><ele>551.0</ele><time>2026-04-23T10:30:41Z</time></trkpt><trkpt lat="46.26305773051263" lon="12.467661216076657"><ele>551.75</ele><time>2026-04-23T10:30:42Z</time></trkpt><trkpt lat="46.2629418328879" lon="12.467728286282847"><ele>552.5</ele><time>2026-04-23T10:30:43Z</time></trkpt><trkpt lat="46.2628588980859" lon="12.467773346485073"><ele>553.25</ele><time>2026-04-23T10:30:44Z</time></trkpt><trkpt lat="46.26275069075161" lon="12.467840564327856"><ele>554.0</ele><time>2026-04-23T10:30:46Z</time></trkpt><trkpt lat="46.26272396812961" lon="12.468032742337964"><ele>554.0</ele><time>2026-04-23T10:30:49Z</time></trkpt><trkpt lat="46.262709892176424" lon="12.468226101444195"><ele>554.0</ele><time>2026-04-23T10:30:51Z</time></trkpt><trkpt lat="46.26270613665673" lon="12.468357818949928"><ele>554.0</ele><time>2026-04-23T10:30:52Z</time></trkpt><trkpt lat="46.26272940908782" lon="12.468492172511397"><ele>554.0</ele><time>2026-04-23T10:30:53Z</time></trkpt><trkpt lat="46.26274857222875" lon="12.468634138459816"><ele>554.0</ele><time>2026-04-23T10:30:54Z</time></trkpt><trkpt lat="46.2627568178361" lon="12.468790635716871"><ele>553.75</ele><time>2026-04-23T10:30:55Z</time></trkpt><trkpt lat="46.26279338924324" lon="12.468945745373961"><ele>553.5</ele><time>2026-04-23T10:30:56Z</time></trkpt><trkpt lat="46.26281161813578" lon="12.469113176936917"><ele>553.25</ele><time>2026-04-23T10:30:57Z</time></trkpt><trkpt lat="46.26282894430986" lon="12.469278053855875"><ele>553.0</ele><time>2026-04-23T10:30:58Z</time></trkpt><trkpt lat="46.262868014177315" lon="12.469437306783126"><ele>553.0</ele><time>2026-04-23T10:30:59Z</time></trkpt><trkpt lat="46.262880079863045" lon="12.469601396373154"><ele>553.0</ele><time>2026-04-23T10:31:00Z</time></trkpt><trkpt lat="46.26291561778117" lon="12.469778379562502"><ele>553.0</ele><time>2026-04-23T10:31:00.999Z</time></trkpt><trkpt lat="46.262952259616924" lon="12.469954039186346"><ele>553.0</ele><time>2026-04-23T10:31:01.999Z</time></trkpt><trkpt lat="46.262979185716" lon="12.470134303981212"><ele>552.5</ele><time>2026-04-23T10:31:02.999Z</time></trkpt><trkpt lat="46.26303019983947" lon="12.470294508052753"><ele>552.0</ele><time>2026-04-23T10:31:03.999Z</time></trkpt><trkpt lat="46.263047548573596" lon="12.470459829276392"><ele>551.5</ele><time>2026-04-23T10:31:04.999Z</time></trkpt><trkpt lat="46.263079521330596" lon="12.470624920793632"><ele>551.0</ele><time>2026-04-23T10:31:05.999Z</time></trkpt><trkpt lat="46.26310867645867" lon="12.470789185571233"><ele>550.6</ele><time>2026-04-23T10:31:06.999Z</time></trkpt><trkpt lat="46.263136766523274" lon="12.470941045580986"><ele>550.2</ele><time>2026-04-23T10:31:07.999Z</time></trkpt><trkpt lat="46.263181119416465" lon="12.471077640350634"><ele>549.8</ele><time>2026-04-23T10:31:08.999Z</time></trkpt><trkpt lat="46.26320924741102" lon="12.47121709146593"><ele>549.4</ele><time>2026-04-23T10:31:09.999Z</time></trkpt><trkpt lat="46.26323340934148" lon="12.471389793827928"><ele>549.0</ele><time>2026-04-23T10:31:10.999Z</time></trkpt><trkpt lat="46.26328029798795" lon="12.471568165249868"><ele>549.0</ele><time>2026-04-23T10:31:11.999Z</time></trkpt><trkpt lat="46.263335160644246" lon="12.471751025664595"><ele>549.0</ele><time>2026-04-23T10:31:12.999Z</time></trkpt><trkpt lat="46.26339547533769" lon="12.471930510194332"><ele>549.0</ele><time>2026-04-23T10:31:13.999Z</time></trkpt><trkpt lat="46.263453364228205" lon="12.472089723912019"><ele>549.0</ele><time>2026-04-23T10:31:14.999Z</time></trkpt><trkpt lat="46.26350136651121" lon="12.4722204508528"><ele>548.5</ele><time>2026-04-23T10:31:15.999Z</time></trkpt><trkpt lat="46.26353697351993" lon="12.472314193916091"><ele>548.0</ele><time>2026-04-23T10:31:16.999Z</time></trkpt><trkpt lat="46.26357050694901" lon="12.472391828844707"><ele>547.5</ele><time>2026-04-23T10:31:19.999Z</time></trkpt><trkpt lat="46.26363394199581" lon="12.472543975928318"><ele>547.0</ele><time>2026-04-23T10:31:22.999Z</time></trkpt><trkpt lat="46.26367860120074" lon="12.472630537924719"><ele>546.5</ele><time>2026-04-23T10:31:23.999Z</time></trkpt><trkpt lat="46.26372367460709" lon="12.47270809270779"><ele>546.0</ele><time>2026-04-23T10:31:24.999Z</time></trkpt><trkpt lat="46.26376582616272" lon="12.472777837435768"><ele>546.0</ele><time>2026-04-23T10:31:25.999Z</time></trkpt><trkpt lat="46.263822258393574" lon="12.47284023743771"><ele>546.0</ele><time>2026-04-23T10:31:26.999Z</time></trkpt><trkpt lat="46.26387056730456" lon="12.47290615073463"><ele>546.0</ele><time>2026-04-23T10:31:27.999Z</time></trkpt><trkpt lat="46.26393868097623" lon="12.473034433119848"><ele>546.0</ele><time>2026-04-23T10:31:29.999Z</time></trkpt><trkpt lat="46.264029366319775" lon="12.473144244351253"><ele>546.0</ele><time>2026-04-23T10:31:31.999Z</time></trkpt><trkpt lat="46.264115030330714" lon="12.47327048651212"><ele>546.4</ele><time>2026-04-23T10:31:33.999Z</time></trkpt><trkpt lat="46.26416793861357" lon="12.473335438801982"><ele>546.8</ele><time>2026-04-23T10:31:34.999Z</time></trkpt><trkpt lat="46.26424239474228" lon="12.473435542533457"><ele>547.1999999999999</ele><time>2026-04-23T10:31:36.999Z</time></trkpt><trkpt lat="46.264315577390825" lon="12.473552643432452"><ele>547.6</ele><time>2026-04-23T10:31:38.999Z</time></trkpt><trkpt lat="46.264362765591635" lon="12.47365048808485"><ele>548.0</ele><time>2026-04-23T10:31:40.999Z</time></trkpt><trkpt lat="46.26436321787875" lon="12.47380243726054"><ele>547.4285714285714</ele><time>2026-04-23T10:31:42.999Z</time></trkpt><trkpt lat="46.264371314809075" lon="12.473902193916107"><ele>546.8571428571429</ele><time>2026-04-23T10:31:43.999Z</time></trkpt><trkpt lat="46.26438983035515" lon="12.474006778774337"><ele>546.2857142857142</ele><time>2026-04-23T10:31:44.999Z</time></trkpt><trkpt lat="46.26440181050146" lon="12.474117893706726"><ele>545.7142857142858</ele><time>2026-04-23T10:31:45.999Z</time></trkpt><trkpt lat="46.26440608342838" lon="12.474222535043134"><ele>545.1428571428571</ele><time>2026-04-23T10:31:46.999Z</time></trkpt><trkpt lat="46.26441694106471" lon="12.474325073771602"><ele>544.5714285714286</ele><time>2026-04-23T10:31:47.999Z</time></trkpt><trkpt lat="46.26442674693269" lon="12.474423869890556"><ele>544.0</ele><time>2026-04-23T10:31:48.999Z</time></trkpt><trkpt lat="46.26444212154384" lon="12.474588157690377"><ele>543.75</ele><time>2026-04-23T10:31:50.999Z</time></trkpt><trkpt lat="46.264345700889066" lon="12.474647565125736"><ele>543.5</ele><time>2026-04-23T10:31:54.999Z</time></trkpt><trkpt lat="46.26423693022256" lon="12.47465762461914"><ele>543.25</ele><time>2026-04-23T10:31:55.999Z</time></trkpt><trkpt lat="46.2641140157527" lon="12.474638012059646"><ele>543.0</ele><time>2026-04-23T10:31:56.999Z</time></trkpt><trkpt lat="46.263978256496" lon="12.47461645720578"><ele>543.0</ele><time>2026-04-23T10:31:57.999Z</time></trkpt><trkpt lat="46.26386021281702" lon="12.474615784706426"><ele>543.0</ele><time>2026-04-23T10:31:58.999Z</time></trkpt><trkpt lat="46.26374967485804" lon="12.474605341185283"><ele>543.0</ele><time>2026-04-23T10:31:59.999Z</time></trkpt><trkpt lat="46.26356454027186" lon="12.474594112541148"><ele>543.0</ele><time>2026-04-23T10:32:01.999Z</time></trkpt><trkpt lat="46.26349657703016" lon="12.474582756509328"><ele>543.0</ele><time>2026-04-23T10:32:02.999Z</time></trkpt><trkpt lat="46.263428257576216" lon="12.474576595269129"><ele>543.0</ele><time>2026-04-23T10:32:04.999Z</time></trkpt><trkpt lat="46.26336057131138" lon="12.474575578008942"><ele>543.0</ele><time>2026-04-23T10:32:24.998Z</time></trkpt><trkpt lat="46.2632524557535" lon="12.47455215165555"><ele>543.0</ele><time>2026-04-23T10:32:26.998Z</time></trkpt><trkpt lat="46.263205341492814" lon="12.474456549561165"><ele>543.0</ele><time>2026-04-23T10:32:27.998Z</time></trkpt><trkpt lat="46.26315928736164" lon="12.474365384136439"><ele>543.0</ele><time>2026-04-23T10:32:28.998Z</time></trkpt><trkpt lat="46.26311880302847" lon="12.474270791087637"><ele>542.6666666666666</ele><time>2026-04-23T10:32:29.998Z</time></trkpt><trkpt lat="46.26308484611467" lon="12.474190819194094"><ele>542.3333333333334</ele><time>2026-04-23T10:32:30.998Z</time></trkpt><trkpt lat="46.26303689650144" lon="12.474104297392326"><ele>542.0</ele><time>2026-04-23T10:32:32.998Z</time></trkpt><trkpt lat="46.26295472145449" lon="12.474103525204077"><ele>541.6666666666667</ele><time>2026-04-23T10:32:34.998Z</time></trkpt><trkpt lat="46.26287560621337" lon="12.474187908416894"><ele>541.3333333333334</ele><time>2026-04-23T10:32:36.998Z</time></trkpt><trkpt lat="46.262807721965146" lon="12.474211050301474"><ele>541.0</ele><time>2026-04-23T10:32:39Z</time></trkpt><trkpt lat="46.262725591238265" lon="12.474212516940643"><ele>541.0</ele><time>2026-04-23T10:32:41Z</time></trkpt><trkpt lat="46.26262595233791" lon="12.474183823053778"><ele>541.0</ele><time>2026-04-23T10:32:43Z</time></trkpt><trkpt lat="46.262524902247385" lon="12.474166780863913"><ele>541.0</ele><time>2026-04-23T10:32:45Z</time></trkpt><trkpt lat="46.262461939792104" lon="12.474155572398162"><ele>541.0</ele><time>2026-04-23T10:32:46Z</time></trkpt><trkpt lat="46.26233349982032" lon="12.474137340248987"><ele>541.0</ele><time>2026-04-23T10:32:48Z</time></trkpt><trkpt lat="46.26226063356636" lon="12.474150280363341"><ele>540.5</ele><time>2026-04-23T10:32:49Z</time></trkpt><trkpt lat="46.26217591510175" lon="12.474179922377237"><ele>540.0</ele><time>2026-04-23T10:32:50Z</time></trkpt><trkpt lat="46.26208801835939" lon="12.474211145533408"><ele>539.5</ele><time>2026-04-23T10:32:51Z</time></trkpt><trkpt lat="46.26201125626446" lon="12.474236835388915"><ele>539.0</ele><time>2026-04-23T10:32:52Z</time></trkpt><trkpt lat="46.26194350399985" lon="12.474261536268335"><ele>538.5</ele><time>2026-04-23T10:32:53Z</time></trkpt><trkpt lat="46.26188264474744" lon="12.47430378730322"><ele>538.0</ele><time>2026-04-23T10:32:54Z</time></trkpt><trkpt lat="46.26181240842297" lon="12.474314487410709"><ele>538.0</ele><time>2026-04-23T10:32:55Z</time></trkpt><trkpt lat="46.261747075974505" lon="12.474342283953465"><ele>538.0</ele><time>2026-04-23T10:32:56Z</time></trkpt><trkpt lat="46.26168428084694" lon="12.474369001159067"><ele>538.0</ele><time>2026-04-23T10:32:57Z</time></trkpt><trkpt lat="46.261626796339236" lon="12.474418743675933"><ele>538.0</ele><time>2026-04-23T10:32:58Z</time></trkpt><trkpt lat="46.26152005385609" lon="12.47443821394366"><ele>538.0</ele><time>2026-04-23T10:33:00Z</time></trkpt><trkpt lat="46.26145343505461" lon="12.474457044876988"><ele>538.0</ele><time>2026-04-23T10:33:03Z</time></trkpt><trkpt lat="46.2613750692876" lon="12.474440874351032"><ele>537.5</ele><time>2026-04-23T10:33:09.999Z</time></trkpt><trkpt lat="46.26130177863819" lon="12.474462569319773"><ele>537.0</ele><time>2026-04-23T10:33:11.999Z</time></trkpt><trkpt lat="46.261267464412555" lon="12.47456605022367"><ele>536.5</ele><time>2026-04-23T10:33:14.999Z</time></trkpt><trkpt lat="46.26126901351499" lon="12.474661114252934"><ele>536.0</ele><time>2026-04-23T10:33:16.999Z</time></trkpt><trkpt lat="46.26127577393939" lon="12.47478040296101"><ele>535.5</ele><time>2026-04-23T10:33:18.999Z</time></trkpt><trkpt lat="46.261304995272965" lon="12.474899246311345"><ele>535.0</ele><time>2026-04-23T10:33:20.999Z</time></trkpt><trkpt lat="46.2612759301701" lon="12.474781143967471"><ele>535.0</ele><time>2026-04-23T10:33:41.999Z</time></trkpt><trkpt lat="46.26125940815411" lon="12.47468534314898"><ele>535.0</ele><time>2026-04-23T10:33:43.999Z</time></trkpt><trkpt lat="46.261248565156855" lon="12.474571350888516"><ele>535.0</ele><time>2026-04-23T10:33:45.999Z</time></trkpt><trkpt lat="46.26126759305319" lon="12.474481815031128"><ele>535.0</ele><time>2026-04-23T10:33:47.999Z</time></trkpt><trkpt lat="46.26158445869328" lon="12.474463306661978"><ele>535.6</ele><time>2026-04-23T10:33:51.999Z</time></trkpt><trkpt lat="46.261665129206186" lon="12.47443031917881"><ele>536.2</ele><time>2026-04-23T10:33:52.999Z</time></trkpt><trkpt lat="46.26175614831314" lon="12.474384270928356"><ele>536.8</ele><time>2026-04-23T10:33:53.999Z</time></trkpt><trkpt lat="46.26184406537037" lon="12.47434594950558"><ele>537.4</ele><time>2026-04-23T10:33:54.999Z</time></trkpt><trkpt lat="46.26193639272725" lon="12.474306415209659"><ele>538.0</ele><time>2026-04-23T10:33:55.999Z</time></trkpt><trkpt lat="46.2620288212722" lon="12.474271916473967"><ele>538.0</ele><time>2026-04-23T10:33:56.999Z</time></trkpt><trkpt lat="46.262129441012505" lon="12.474240301275207"><ele>538.0</ele><time>2026-04-23T10:33:57.999Z</time></trkpt><trkpt lat="46.26223081203811" lon="12.474208766684677"><ele>538.0</ele><time>2026-04-23T10:33:58.999Z</time></trkpt><trkpt lat="46.262318857750124" lon="12.474187634365137"><ele>538.0</ele><time>2026-04-23T10:33:59.999Z</time></trkpt><trkpt lat="46.262404111802475" lon="12.474179574436276"><ele>538.0</ele><time>2026-04-23T10:34:00.999Z</time></trkpt><trkpt lat="46.26249547883021" lon="12.474191807347712"><ele>538.5</ele><time>2026-04-23T10:34:01.999Z</time></trkpt><trkpt lat="46.26259300532884" lon="12.474218737767337"><ele>539.0</ele><time>2026-04-23T10:34:02.999Z</time></trkpt><trkpt lat="46.262692181613865" lon="12.47423858611705"><ele>539.5</ele><time>2026-04-23T10:34:03.999Z</time></trkpt><trkpt lat="46.262780204756254" lon="12.474233147192432"><ele>540.0</ele><time>2026-04-23T10:34:04.999Z</time></trkpt><trkpt lat="46.26285707472694" lon="12.474210086138537"><ele>540.5</ele><time>2026-04-23T10:34:05.999Z</time></trkpt><trkpt lat="46.26292572621029" lon="12.474175117918696"><ele>541.0</ele><time>2026-04-23T10:34:06.999Z</time></trkpt><trkpt lat="46.26298427475655" lon="12.474125058054767"><ele>541.0</ele><time>2026-04-23T10:34:08.999Z</time></trkpt><trkpt lat="46.263078873586515" lon="12.474181415332371"><ele>541.0</ele><time>2026-04-23T10:34:18.998Z</time></trkpt><trkpt lat="46.26311841485977" lon="12.474296490500578"><ele>541.0</ele><time>2026-04-23T10:34:19.998Z</time></trkpt><trkpt lat="46.26316118851006" lon="12.474423340256966"><ele>541.0</ele><time>2026-04-23T10:34:20.998Z</time></trkpt><trkpt lat="46.26321692094176" lon="12.474584509960486"><ele>541.0</ele><time>2026-04-23T10:34:21.998Z</time></trkpt><trkpt lat="46.26326952441479" lon="12.47476577997494"><ele>541.2</ele><time>2026-04-23T10:34:22.998Z</time></trkpt><trkpt lat="46.26330670903215" lon="12.474919528774484"><ele>541.4000000000001</ele><time>2026-04-23T10:34:23.998Z</time></trkpt><trkpt lat="46.26333891105593" lon="12.475065779910475"><ele>541.6</ele><time>2026-04-23T10:34:24.998Z</time></trkpt><trkpt lat="46.26336750982033" lon="12.475221115976193"><ele>541.8000000000001</ele><time>2026-04-23T10:34:25.998Z</time></trkpt><trkpt lat="46.26338658228756" lon="12.47537946970129"><ele>542.0</ele><time>2026-04-23T10:34:26.998Z</time></trkpt><trkpt lat="46.263398169141425" lon="12.475538621876321"><ele>542.0</ele><time>2026-04-23T10:34:27.998Z</time></trkpt><trkpt lat="46.2634125578052" lon="12.475702892644158"><ele>542.0</ele><time>2026-04-23T10:34:28.998Z</time></trkpt><trkpt lat="46.263428219240154" lon="12.475879359975938"><ele>542.0</ele><time>2026-04-23T10:34:29.998Z</time></trkpt><trkpt lat="46.26344647948766" lon="12.476068104012505"><ele>542.0</ele><time>2026-04-23T10:34:30.998Z</time></trkpt><trkpt lat="46.26346464547857" lon="12.476262925991309"><ele>542.5</ele><time>2026-04-23T10:34:31.998Z</time></trkpt><trkpt lat="46.26348609434475" lon="12.47645912021578"><ele>543.0</ele><time>2026-04-23T10:34:32.998Z</time></trkpt><trkpt lat="46.26350994967739" lon="12.476653503773004"><ele>543.5</ele><time>2026-04-23T10:34:33.998Z</time></trkpt><trkpt lat="46.26353545477083" lon="12.476851558849077"><ele>544.0</ele><time>2026-04-23T10:34:34.998Z</time></trkpt><trkpt lat="46.2635668637892" lon="12.477051196718874"><ele>545.0</ele><time>2026-04-23T10:34:35.998Z</time></trkpt><trkpt lat="46.263604603698866" lon="12.477247328928819"><ele>546.0</ele><time>2026-04-23T10:34:36.998Z</time></trkpt><trkpt lat="46.26365428709584" lon="12.477436193701877"><ele>547.0</ele><time>2026-04-23T10:34:37.998Z</time></trkpt><trkpt lat="46.26370374947413" lon="12.477622394765401"><ele>548.0</ele><time>2026-04-23T10:34:38.998Z</time></trkpt><trkpt lat="46.26375692032573" lon="12.477806081633164"><ele>548.0</ele><time>2026-04-23T10:34:39.998Z</time></trkpt><trkpt lat="46.26381633833169" lon="12.477987051397413"><ele>548.0</ele><time>2026-04-23T10:34:40.998Z</time></trkpt><trkpt lat="46.26388216984365" lon="12.478170657674445"><ele>548.0</ele><time>2026-04-23T10:34:41.998Z</time></trkpt><trkpt lat="46.26395628808243" lon="12.478351092778569"><ele>548.0</ele><time>2026-04-23T10:34:42.998Z</time></trkpt><trkpt lat="46.2640340920147" lon="12.478533474294107"><ele>549.0</ele><time>2026-04-23T10:34:43.998Z</time></trkpt><trkpt lat="46.26411200353329" lon="12.478718279072762"><ele>550.0</ele><time>2026-04-23T10:34:45Z</time></trkpt><trkpt lat="46.26419597231991" lon="12.478900740184399"><ele>551.0</ele><time>2026-04-23T10:34:46Z</time></trkpt><trkpt lat="46.264281172175444" lon="12.479080615712094"><ele>551.0</ele><time>2026-04-23T10:34:47Z</time></trkpt><trkpt lat="46.26436157512995" lon="12.479256860150954"><ele>551.0</ele><time>2026-04-23T10:34:48Z</time></trkpt><trkpt lat="46.26443683258913" lon="12.479421805312661"><ele>551.0</ele><time>2026-04-23T10:34:49Z</time></trkpt><trkpt lat="46.26451323432398" lon="12.47958740557688"><ele>551.0</ele><time>2026-04-23T10:34:50Z</time></trkpt><trkpt lat="46.26459529215051" lon="12.479745244903974"><ele>551.25</ele><time>2026-04-23T10:34:51Z</time></trkpt><trkpt lat="46.26468484516088" lon="12.479900506835117"><ele>551.5</ele><time>2026-04-23T10:34:52Z</time></trkpt><trkpt lat="46.26477812603739" lon="12.480054464599185"><ele>551.75</ele><time>2026-04-23T10:34:53Z</time></trkpt><trkpt lat="46.26487262394423" lon="12.480209876376858"><ele>552.0</ele><time>2026-04-23T10:34:54Z</time></trkpt><trkpt lat="46.264966781843384" lon="12.480368781388233"><ele>553.0</ele><time>2026-04-23T10:34:55Z</time></trkpt><trkpt lat="46.26506165958186" lon="12.480531518854654"><ele>554.0</ele><time>2026-04-23T10:34:56Z</time></trkpt><trkpt lat="46.265157380563274" lon="12.480696534861265"><ele>555.0</ele><time>2026-04-23T10:34:57Z</time></trkpt><trkpt lat="46.265253441215606" lon="12.480862461601202"><ele>556.0</ele><time>2026-04-23T10:34:58Z</time></trkpt><trkpt lat="46.26534955289731" lon="12.481036060248355"><ele>556.0</ele><time>2026-04-23T10:34:59Z</time></trkpt><trkpt lat="46.265443023534395" lon="12.481209339361284"><ele>556.0</ele><time>2026-04-23T10:35:00Z</time></trkpt><trkpt lat="46.26553517729216" lon="12.481384000309934"><ele>556.0</ele><time>2026-04-23T10:35:01Z</time></trkpt><trkpt lat="46.265619243935525" lon="12.481564333542977"><ele>556.5</ele><time>2026-04-23T10:35:02Z</time></trkpt><trkpt lat="46.265696336562655" lon="12.481750475456725"><ele>557.0</ele><time>2026-04-23T10:35:03Z</time></trkpt><trkpt lat="46.26576492425217" lon="12.481941373129832"><ele>557.5</ele><time>2026-04-23T10:35:04Z</time></trkpt><trkpt lat="46.26582220485379" lon="12.482137628793705"><ele>558.0</ele><time>2026-04-23T10:35:05Z</time></trkpt><trkpt lat="46.26586981997762" lon="12.482338373437004"><ele>558.25</ele><time>2026-04-23T10:35:06Z</time></trkpt><trkpt lat="46.2659088070002" lon="12.482541862604657"><ele>558.5</ele><time>2026-04-23T10:35:07Z</time></trkpt><trkpt lat="46.265937481452994" lon="12.482745040326273"><ele>558.75</ele><time>2026-04-23T10:35:08Z</time></trkpt><trkpt lat="46.265958357131574" lon="12.482943891669917"><ele>559.0</ele><time>2026-04-23T10:35:08.999Z</time></trkpt><trkpt lat="46.265976903254035" lon="12.483143902283093"><ele>559.25</ele><time>2026-04-23T10:35:09.999Z</time></trkpt><trkpt lat="46.26599647676553" lon="12.483341024953353"><ele>559.5</ele><time>2026-04-23T10:35:10.999Z</time></trkpt><trkpt lat="46.26601037264589" lon="12.48353712362631"><ele>559.75</ele><time>2026-04-23T10:35:11.999Z</time></trkpt><trkpt lat="46.26602342140735" lon="12.4837359132039"><ele>560.0</ele><time>2026-04-23T10:35:12.999Z</time></trkpt><trkpt lat="46.266038425947805" lon="12.48394102327791"><ele>560.5</ele><time>2026-04-23T10:35:13.999Z</time></trkpt><trkpt lat="46.26605072915636" lon="12.484147031328238"><ele>561.0</ele><time>2026-04-23T10:35:14.999Z</time></trkpt><trkpt lat="46.266058816153645" lon="12.48435949628355"><ele>561.5</ele><time>2026-04-23T10:35:15.999Z</time></trkpt><trkpt lat="46.2660618540388" lon="12.484576852211351"><ele>562.0</ele><time>2026-04-23T10:35:16.999Z</time></trkpt><trkpt lat="46.26606254153" lon="12.484798803701286"><ele>563.0</ele><time>2026-04-23T10:35:17.999Z</time></trkpt><trkpt lat="46.266059908509604" lon="12.485024777036843"><ele>564.0</ele><time>2026-04-23T10:35:18.999Z</time></trkpt><trkpt lat="46.26605732877385" lon="12.485243909404913"><ele>565.0</ele><time>2026-04-23T10:35:19.999Z</time></trkpt><trkpt lat="46.26605404836723" lon="12.48546037647045"><ele>565.0</ele><time>2026-04-23T10:35:20.999Z</time></trkpt><trkpt lat="46.26605076881386" lon="12.485672438167672"><ele>565.0</ele><time>2026-04-23T10:35:21.999Z</time></trkpt><trkpt lat="46.26604987491086" lon="12.485884004513055"><ele>565.0</ele><time>2026-04-23T10:35:22.999Z</time></trkpt><trkpt lat="46.26604942791363" lon="12.48609776784979"><ele>565.0</ele><time>2026-04-23T10:35:23.999Z</time></trkpt><trkpt lat="46.266052148305754" lon="12.486318010388757"><ele>565.0</ele><time>2026-04-23T10:35:24.999Z</time></trkpt><trkpt lat="46.26606019684624" lon="12.486544513515218"><ele>565.0</ele><time>2026-04-23T10:35:25.999Z</time></trkpt><trkpt lat="46.26607415459139" lon="12.486772316508468"><ele>565.0</ele><time>2026-04-23T10:35:26.999Z</time></trkpt><trkpt lat="46.26608924316546" lon="12.487001531947579"><ele>566.0</ele><time>2026-04-23T10:35:27.999Z</time></trkpt><trkpt lat="46.26610703306841" lon="12.487235288838798"><ele>567.0</ele><time>2026-04-23T10:35:28.999Z</time></trkpt><trkpt lat="46.26612549522485" lon="12.487470028385575"><ele>568.0</ele><time>2026-04-23T10:35:29.999Z</time></trkpt><trkpt lat="46.26614667898879" lon="12.487705470366265"><ele>568.3333333333334</ele><time>2026-04-23T10:35:30.999Z</time></trkpt><trkpt lat="46.26617072412214" lon="12.487940046074854"><ele>568.6666666666666</ele><time>2026-04-23T10:35:31.999Z</time></trkpt><trkpt lat="46.266200025364014" lon="12.488171165673572"><ele>569.0</ele><time>2026-04-23T10:35:32.999Z</time></trkpt><trkpt lat="46.266230600170914" lon="12.488400926111996"><ele>569.0</ele><time>2026-04-23T10:35:33.999Z</time></trkpt><trkpt lat="46.26626637075849" lon="12.48862735293471"><ele>569.0</ele><time>2026-04-23T10:35:34.999Z</time></trkpt><trkpt lat="46.26630576438203" lon="12.488852963782293"><ele>569.0</ele><time>2026-04-23T10:35:35.999Z</time></trkpt><trkpt lat="46.2663476063764" lon="12.489074008277884"><ele>568.3333333333333</ele><time>2026-04-23T10:35:36.999Z</time></trkpt><trkpt lat="46.2663892691822" lon="12.4892958421535"><ele>567.6666666666666</ele><time>2026-04-23T10:35:37.999Z</time></trkpt><trkpt lat="46.26642784040619" lon="12.489516279251717"><ele>567.0</ele><time>2026-04-23T10:35:38.999Z</time></trkpt><trkpt lat="46.26646734147847" lon="12.489736619937206"><ele>571.6666666666666</ele><time>2026-04-23T10:35:39.999Z</time></trkpt><trkpt lat="46.26650561619327" lon="12.489957326027522"><ele>576.3333333333333</ele><time>2026-04-23T10:35:40.999Z</time></trkpt><trkpt lat="46.266545680352735" lon="12.490176309353476"><ele>581.0</ele><time>2026-04-23T10:35:41.999Z</time></trkpt><trkpt lat="46.2665863069003" lon="12.490391028649976"><ele>581.0</ele><time>2026-04-23T10:35:42.999Z</time></trkpt><trkpt lat="46.26662585884211" lon="12.490607067217724"><ele>581.0</ele><time>2026-04-23T10:35:43.999Z</time></trkpt><trkpt lat="46.26666284761443" lon="12.490822688736925"><ele>581.0</ele><time>2026-04-23T10:35:44.999Z</time></trkpt><trkpt lat="46.26670317347418" lon="12.491040137041168"><ele>581.0</ele><time>2026-04-23T10:35:45.999Z</time></trkpt><trkpt lat="46.266743996136" lon="12.491251770400858"><ele>581.0</ele><time>2026-04-23T10:35:46.999Z</time></trkpt><trkpt lat="46.26678236661417" lon="12.49146489556255"><ele>581.0</ele><time>2026-04-23T10:35:47.999Z</time></trkpt><trkpt lat="46.26682094477294" lon="12.491679356922738"><ele>580.0</ele><time>2026-04-23T10:35:48.999Z</time></trkpt><trkpt lat="46.2668631252985" lon="12.491894924415911"><ele>579.0</ele><time>2026-04-23T10:35:49.999Z</time></trkpt><trkpt lat="46.26690503741325" lon="12.492112869474326"><ele>578.0</ele><time>2026-04-23T10:35:50.999Z</time></trkpt><trkpt lat="46.26694440994433" lon="12.492326648413117"><ele>577.5</ele><time>2026-04-23T10:35:51.999Z</time></trkpt><trkpt lat="46.26698211647674" lon="12.492527783253934"><ele>577.0</ele><time>2026-04-23T10:35:52.999Z</time></trkpt><trkpt lat="46.26701665754403" lon="12.492722063548184"><ele>576.5</ele><time>2026-04-23T10:35:53.999Z</time></trkpt><trkpt lat="46.267051984288315" lon="12.492915002871793"><ele>576.0</ele><time>2026-04-23T10:35:54.999Z</time></trkpt><trkpt lat="46.26709086328675" lon="12.493111137155754"><ele>575.75</ele><time>2026-04-23T10:35:55.999Z</time></trkpt><trkpt lat="46.26713150672313" lon="12.49331068076951"><ele>575.5</ele><time>2026-04-23T10:35:56.999Z</time></trkpt><trkpt lat="46.26717770649425" lon="12.493513350717134"><ele>575.25</ele><time>2026-04-23T10:35:57.999Z</time></trkpt><trkpt lat="46.26723505335145" lon="12.493715654626266"><ele>575.0</ele><time>2026-04-23T10:35:58.999Z</time></trkpt><trkpt lat="46.26729772751948" lon="12.493921798528161"><ele>575.0</ele><time>2026-04-23T10:35:59.999Z</time></trkpt><trkpt lat="46.26736378982542" lon="12.49412947903355"><ele>575.0</ele><time>2026-04-23T10:36:00.999Z</time></trkpt><trkpt lat="46.267435310032646" lon="12.494337495054051"><ele>575.0</ele><time>2026-04-23T10:36:01.999Z</time></trkpt><trkpt lat="46.26750749631921" lon="12.494547778125957"><ele>573.0</ele><time>2026-04-23T10:36:02.999Z</time></trkpt><trkpt lat="46.267577501324986" lon="12.494759804200227"><ele>571.0</ele><time>2026-04-23T10:36:03.999Z</time></trkpt><trkpt lat="46.26764609972907" lon="12.49497028208053"><ele>569.0</ele><time>2026-04-23T10:36:04.999Z</time></trkpt><trkpt lat="46.26771436461347" lon="12.495178490421159"><ele>569.0</ele><time>2026-04-23T10:36:05.999Z</time></trkpt><trkpt lat="46.26778652740386" lon="12.495385938876996"><ele>569.0</ele><time>2026-04-23T10:36:06.999Z</time></trkpt><trkpt lat="46.267865716608725" lon="12.495597339727967"><ele>569.0</ele><time>2026-04-23T10:36:07.999Z</time></trkpt><trkpt lat="46.26794172424482" lon="12.49581694700751"><ele>568.3333333333333</ele><time>2026-04-23T10:36:08.999Z</time></trkpt><trkpt lat="46.26801869044659" lon="12.496047800352928"><ele>567.6666666666666</ele><time>2026-04-23T10:36:09.999Z</time></trkpt><trkpt lat="46.268092377339414" lon="12.496279772338276"><ele>567.0</ele><time>2026-04-23T10:36:10.999Z</time></trkpt><trkpt lat="46.2681658909505" lon="12.496512283801412"><ele>567.0</ele><time>2026-04-23T10:36:11.999Z</time></trkpt><trkpt lat="46.26824175578937" lon="12.496746821878896"><ele>567.0</ele><time>2026-04-23T10:36:12.999Z</time></trkpt><trkpt lat="46.26839032373378" lon="12.49721905455866"><ele>566.6666666666666</ele><time>2026-04-23T10:36:14.999Z</time></trkpt><trkpt lat="46.2684593669672" lon="12.497460110740267"><ele>566.3333333333333</ele><time>2026-04-23T10:36:15.998Z</time></trkpt><trkpt lat="46.268524141620034" lon="12.497704230372095"><ele>566.0</ele><time>2026-04-23T10:36:16.998Z</time></trkpt><trkpt lat="46.26858044900224" lon="12.497949538797917"><ele>566.0</ele><time>2026-04-23T10:36:17.998Z</time></trkpt><trkpt lat="46.268634363878235" lon="12.498192531258626"><ele>566.0</ele><time>2026-04-23T10:36:18.998Z</time></trkpt><trkpt lat="46.26868240339335" lon="12.498434997931108"><ele>566.0</ele><time>2026-04-23T10:36:19.998Z</time></trkpt><trkpt lat="46.26872487299614" lon="12.498678763065"><ele>566.3333333333333</ele><time>2026-04-23T10:36:20.998Z</time></trkpt><trkpt lat="46.268761399035824" lon="12.49892119463535"><ele>566.6666666666666</ele><time>2026-04-23T10:36:21.998Z</time></trkpt><trkpt lat="46.26879398630135" lon="12.499161373858062"><ele>567.0</ele><time>2026-04-23T10:36:22.998Z</time></trkpt><trkpt lat="46.26882449448827" lon="12.499395799629616"><ele>566.6666666666666</ele><time>2026-04-23T10:36:23.998Z</time></trkpt><trkpt lat="46.26884869691493" lon="12.499627963765056"><ele>566.3333333333333</ele><time>2026-04-23T10:36:24.998Z</time></trkpt><trkpt lat="46.268867744742316" lon="12.499864451825152"><ele>566.0</ele><time>2026-04-23T10:36:25.998Z</time></trkpt><trkpt lat="46.26888551941188" lon="12.500092791566207"><ele>566.0</ele><time>2026-04-23T10:36:26.998Z</time></trkpt><trkpt lat="46.26889931321064" lon="12.500304459099924"><ele>566.0</ele><time>2026-04-23T10:36:27.998Z</time></trkpt><trkpt lat="46.26890488196865" lon="12.500495592809767"><ele>566.0</ele><time>2026-04-23T10:36:28.998Z</time></trkpt><trkpt lat="46.268908623871425" lon="12.500656831731005"><ele>566.0</ele><time>2026-04-23T10:36:29.998Z</time></trkpt><trkpt lat="46.26890803780498" lon="12.500791057948327"><ele>566.6666666666666</ele><time>2026-04-23T10:36:30.998Z</time></trkpt><trkpt lat="46.26890737051922" lon="12.500907083369903"><ele>567.3333333333333</ele><time>2026-04-23T10:36:31.998Z</time></trkpt><trkpt lat="46.2689139926217" lon="12.501003721434895"><ele>568.0</ele><time>2026-04-23T10:36:32.998Z</time></trkpt><trkpt lat="46.268985030007926" lon="12.501138661108028"><ele>568.6666666666666</ele><time>2026-04-23T10:36:34.998Z</time></trkpt><trkpt lat="46.26904354196492" lon="12.50117990829959"><ele>569.3333333333334</ele><time>2026-04-23T10:36:35.998Z</time></trkpt><trkpt lat="46.269118513326084" lon="12.501184954733636"><ele>570.0</ele><time>2026-04-23T10:36:36.998Z</time></trkpt><trkpt lat="46.269198380283875" lon="12.501151308337844"><ele>572.0</ele><time>2026-04-23T10:36:37.998Z</time></trkpt><trkpt lat="46.26927980142105" lon="12.501076279121797"><ele>574.0</ele><time>2026-04-23T10:36:38.998Z</time></trkpt><trkpt lat="46.26936088659364" lon="12.500966642186512"><ele>576.0</ele><time>2026-04-23T10:36:39.998Z</time></trkpt><trkpt lat="46.26943708110015" lon="12.500824388228951"><ele>578.0</ele><time>2026-04-23T10:36:40.998Z</time></trkpt><trkpt lat="46.26951473826408" lon="12.500690681815389"><ele>578.0</ele><time>2026-04-23T10:36:41.998Z</time></trkpt><trkpt lat="46.2695973908892" lon="12.500585924764497"><ele>578.0</ele><time>2026-04-23T10:36:42.998Z</time></trkpt><trkpt lat="46.26967127677474" lon="12.500469196421072"><ele>578.0</ele><time>2026-04-23T10:36:43.998Z</time></trkpt><trkpt lat="46.26973432452464" lon="12.500370220622338"><ele>578.0</ele><time>2026-04-23T10:36:44.998Z</time></trkpt><trkpt lat="46.26986033005865" lon="12.500238859904444"><ele>577.0</ele><time>2026-04-23T10:36:46.998Z</time></trkpt><trkpt lat="46.269928120967776" lon="12.500172599159006"><ele>576.0</ele><time>2026-04-23T10:36:47.998Z</time></trkpt><trkpt lat="46.2700129097356" lon="12.500091397147317"><ele>575.0</ele><time>2026-04-23T10:36:48.998Z</time></trkpt><trkpt lat="46.27010675158201" lon="12.500003688059904"><ele>574.0</ele><time>2026-04-23T10:36:49.998Z</time></trkpt><trkpt lat="46.2701950249859" lon="12.499926114974766"><ele>573.0</ele><time>2026-04-23T10:36:51Z</time></trkpt><trkpt lat="46.27027510113222" lon="12.499858430024554"><ele>573.0</ele><time>2026-04-23T10:36:52Z</time></trkpt><trkpt lat="46.27034679142074" lon="12.499797400190332"><ele>573.0</ele><time>2026-04-23T10:36:53Z</time></trkpt><trkpt lat="46.27040505998811" lon="12.49974501499186"><ele>573.0</ele><time>2026-04-23T10:36:54Z</time></trkpt><trkpt lat="46.270449747753396" lon="12.499676677116236"><ele>573.0</ele><time>2026-04-23T10:36:55Z</time></trkpt><trkpt lat="46.27053720431241" lon="12.499614447992759"><ele>573.0</ele><time>2026-04-23T10:36:57Z</time></trkpt><trkpt lat="46.27060371532374" lon="12.499540402892187"><ele>573.0</ele><time>2026-04-23T10:37:05.999Z</time></trkpt><trkpt lat="46.27065974024553" lon="12.499488061416221"><ele>572.4</ele><time>2026-04-23T10:37:06.999Z</time></trkpt><trkpt lat="46.27073532123755" lon="12.499418736705817"><ele>571.8</ele><time>2026-04-23T10:37:07.999Z</time></trkpt><trkpt lat="46.27082887236133" lon="12.499332210131657"><ele>571.2</ele><time>2026-04-23T10:37:08.999Z</time></trkpt><trkpt lat="46.270929256460114" lon="12.499226520817032"><ele>570.6</ele><time>2026-04-23T10:37:09.999Z</time></trkpt><trkpt lat="46.27103816663779" lon="12.499142556623925"><ele>570.0</ele><time>2026-04-23T10:37:10.999Z</time></trkpt><trkpt lat="46.27112941995306" lon="12.499050418843902"><ele>570.0</ele><time>2026-04-23T10:37:11.999Z</time></trkpt><trkpt lat="46.27121673017342" lon="12.498983627034999"><ele>570.0</ele><time>2026-04-23T10:37:12.999Z</time></trkpt><trkpt lat="46.27132136591795" lon="12.49894595927303"><ele>570.0</ele><time>2026-04-23T10:37:13.999Z</time></trkpt><trkpt lat="46.27143353291502" lon="12.498941369705744"><ele>570.0</ele><time>2026-04-23T10:37:14.999Z</time></trkpt><trkpt lat="46.27154343997133" lon="12.49893072259692"><ele>570.0</ele><time>2026-04-23T10:37:15.999Z</time></trkpt><trkpt lat="46.271649267176166" lon="12.498898734401182"><ele>570.8</ele><time>2026-04-23T10:37:16.999Z</time></trkpt><trkpt lat="46.271752893011325" lon="12.498924343419015"><ele>571.6</ele><time>2026-04-23T10:37:17.999Z</time></trkpt><trkpt lat="46.27185288094253" lon="12.498941906412544"><ele>572.4</ele><time>2026-04-23T10:37:18.999Z</time></trkpt><trkpt lat="46.27194740272511" lon="12.498978261430226"><ele>573.2</ele><time>2026-04-23T10:37:19.999Z</time></trkpt><trkpt lat="46.27204738076949" lon="12.499001069079236"><ele>574.0</ele><time>2026-04-23T10:37:20.999Z</time></trkpt><trkpt lat="46.27214134264254" lon="12.499047727606182"><ele>574.0</ele><time>2026-04-23T10:37:21.999Z</time></trkpt><trkpt lat="46.27223626803522" lon="12.499075303272228"><ele>574.0</ele><time>2026-04-23T10:37:22.999Z</time></trkpt><trkpt lat="46.272334976391285" lon="12.499102515522898"><ele>574.0</ele><time>2026-04-23T10:37:23.999Z</time></trkpt><trkpt lat="46.272433042191096" lon="12.499138035994001"><ele>574.0</ele><time>2026-04-23T10:37:24.999Z</time></trkpt><trkpt lat="46.27252884000219" lon="12.499176429268148"><ele>574.0</ele><time>2026-04-23T10:37:25.999Z</time></trkpt><trkpt lat="46.27262352514347" lon="12.49922161607476"><ele>574.8</ele><time>2026-04-23T10:37:26.999Z</time></trkpt><trkpt lat="46.272720764247225" lon="12.499257883090552"><ele>575.5999999999999</ele><time>2026-04-23T10:37:27.999Z</time></trkpt><trkpt lat="46.27281239270819" lon="12.499324098681464"><ele>576.4</ele><time>2026-04-23T10:37:28.999Z</time></trkpt><trkpt lat="46.27290838462942" lon="12.499372647400708"><ele>577.1999999999999</ele><time>2026-04-23T10:37:29.999Z</time></trkpt><trkpt lat="46.27300318376137" lon="12.499410269239084"><ele>578.0</ele><time>2026-04-23T10:37:30.999Z</time></trkpt><trkpt lat="46.2730938339989" lon="12.499459739401333"><ele>578.0</ele><time>2026-04-23T10:37:31.999Z</time></trkpt><trkpt lat="46.27317987606533" lon="12.499522585828275"><ele>578.0</ele><time>2026-04-23T10:37:32.999Z</time></trkpt><trkpt lat="46.27325710960106" lon="12.499601215299416"><ele>578.0</ele><time>2026-04-23T10:37:33.999Z</time></trkpt><trkpt lat="46.27334018992314" lon="12.499648197627277"><ele>578.0</ele><time>2026-04-23T10:37:34.999Z</time></trkpt><trkpt lat="46.27342656064431" lon="12.49966175954246"><ele>578.0</ele><time>2026-04-23T10:37:35.999Z</time></trkpt><trkpt lat="46.27352369433672" lon="12.499639691162878"><ele>578.0</ele><time>2026-04-23T10:37:36.999Z</time></trkpt><trkpt lat="46.273683141615635" lon="12.499568287343472"><ele>578.0</ele><time>2026-04-23T10:37:38.999Z</time></trkpt><trkpt lat="46.27375348317072" lon="12.499548826598666"><ele>578.0</ele><time>2026-04-23T10:37:40.999Z</time></trkpt><trkpt lat="46.27381385925239" lon="12.499501502400262"><ele>578.0</ele><time>2026-04-23T10:38:14.999Z</time></trkpt><trkpt lat="46.27387837299756" lon="12.499499549508794"><ele>578.0</ele><time>2026-04-23T10:38:15.999Z</time></trkpt><trkpt lat="46.27394314501134" lon="12.499529664420056"><ele>578.0</ele><time>2026-04-23T10:38:16.999Z</time></trkpt><trkpt lat="46.274030128318216" lon="12.499519567837437"><ele>578.25</ele><time>2026-04-23T10:38:17.999Z</time></trkpt><trkpt lat="46.27407508865613" lon="12.499592181783138"><ele>578.5</ele><time>2026-04-23T10:38:18.998Z</time></trkpt><trkpt lat="46.274156818008244" lon="12.499252297126066"><ele>578.75</ele><time>2026-04-23T10:38:19.998Z</time></trkpt><trkpt lat="46.274253240312646" lon="12.499191312165127"><ele>579.0</ele><time>2026-04-23T10:38:21.998Z</time></trkpt><trkpt lat="46.27431984526754" lon="12.499137332028209"><ele>579.0</ele><time>2026-04-23T10:38:22.998Z</time></trkpt><trkpt lat="46.27439170133956" lon="12.499086188525435"><ele>579.0</ele><time>2026-04-23T10:38:23.998Z</time></trkpt><trkpt lat="46.27446743048645" lon="12.499041407445612"><ele>579.0</ele><time>2026-04-23T10:38:24.998Z</time></trkpt><trkpt lat="46.27453915061669" lon="12.499006730372544"><ele>579.0</ele><time>2026-04-23T10:38:25.998Z</time></trkpt><trkpt lat="46.2746033706073" lon="12.49897399599753"><ele>579.0</ele><time>2026-04-23T10:38:26.998Z</time></trkpt><trkpt lat="46.27466386347542" lon="12.498940037288836"><ele>579.0</ele><time>2026-04-23T10:38:27.998Z</time></trkpt><trkpt lat="46.274779119065855" lon="12.498895131728277"><ele>579.6666666666666</ele><time>2026-04-23T10:38:29.998Z</time></trkpt><trkpt lat="46.27484815466668" lon="12.498901379836987"><ele>580.3333333333334</ele><time>2026-04-23T10:38:30.998Z</time></trkpt><trkpt lat="46.27492101129165" lon="12.498929245924801"><ele>581.0</ele><time>2026-04-23T10:38:31.998Z</time></trkpt><trkpt lat="46.274998161249414" lon="12.49895995059248"><ele>581.6666666666667</ele><time>2026-04-23T10:38:32.998Z</time></trkpt><trkpt lat="46.27507717193095" lon="12.498990493010977"><ele>582.3333333333334</ele><time>2026-04-23T10:38:33.998Z</time></trkpt><trkpt lat="46.27515514253854" lon="12.499022069642127"><ele>583.0</ele><time>2026-04-23T10:38:34.998Z</time></trkpt><trkpt lat="46.27523353069091" lon="12.499064475532037"><ele>583.0</ele><time>2026-04-23T10:38:35.998Z</time></trkpt><trkpt lat="46.2753120323539" lon="12.499114395841104"><ele>583.0</ele><time>2026-04-23T10:38:36.998Z</time></trkpt><trkpt lat="46.27539573121864" lon="12.499158498361632"><ele>583.0</ele><time>2026-04-23T10:38:37.998Z</time></trkpt><trkpt lat="46.2754828465643" lon="12.499193525085728"><ele>583.0</ele><time>2026-04-23T10:38:38.998Z</time></trkpt><trkpt lat="46.27556842184622" lon="12.499225530830731"><ele>583.0</ele><time>2026-04-23T10:38:39.998Z</time></trkpt><trkpt lat="46.27564712973718" lon="12.499261958274442"><ele>583.0</ele><time>2026-04-23T10:38:40.998Z</time></trkpt><trkpt lat="46.275723954490765" lon="12.499294970443112"><ele>582.8</ele><time>2026-04-23T10:38:41.998Z</time></trkpt><trkpt lat="46.275787690693626" lon="12.49932655665748"><ele>582.5999999999999</ele><time>2026-04-23T10:38:42.998Z</time></trkpt><trkpt lat="46.27587458896896" lon="12.499391075299773"><ele>582.4000000000001</ele><time>2026-04-23T10:38:44.998Z</time></trkpt><trkpt lat="46.275975952576715" lon="12.499403890434893"><ele>582.2</ele><time>2026-04-23T10:38:46.998Z</time></trkpt><trkpt lat="46.2760928003049" lon="12.499390494919275"><ele>582.0</ele><time>2026-04-23T10:38:48.998Z</time></trkpt><trkpt lat="46.276159914891196" lon="12.49940696371902"><ele>582.0</ele><time>2026-04-23T10:38:49.998Z</time></trkpt><trkpt lat="46.27623992704613" lon="12.499420372453766"><ele>582.0</ele><time>2026-04-23T10:38:50.998Z</time></trkpt><trkpt lat="46.27632862692157" lon="12.499427272549955"><ele>582.0</ele><time>2026-04-23T10:38:51.998Z</time></trkpt><trkpt lat="46.27640894735248" lon="12.499433570684857"><ele>582.0</ele><time>2026-04-23T10:38:52.998Z</time></trkpt><trkpt lat="46.27648212572306" lon="12.499461058980097"><ele>582.0</ele><time>2026-04-23T10:38:53.998Z</time></trkpt><trkpt lat="46.27655512997282" lon="12.499496312102183"><ele>582.0</ele><time>2026-04-23T10:38:54.998Z</time></trkpt><trkpt lat="46.27662685725935" lon="12.499523013837765"><ele>582.0</ele><time>2026-04-23T10:38:55.998Z</time></trkpt><trkpt lat="46.27669869016482" lon="12.499538342590517"><ele>582.0</ele><time>2026-04-23T10:38:56.999Z</time></trkpt><trkpt lat="46.27677673807185" lon="12.499551316506931"><ele>582.0</ele><time>2026-04-23T10:38:57.999Z</time></trkpt><trkpt lat="46.27690511934665" lon="12.499584401394994"><ele>582.0</ele><time>2026-04-23T10:38:59.999Z</time></trkpt><trkpt lat="46.27697674364974" lon="12.499605332253665"><ele>582.0</ele><time>2026-04-23T10:39:00.999Z</time></trkpt><trkpt lat="46.27703943374091" lon="12.499633885901858"><ele>582.0</ele><time>2026-04-23T10:39:01.999Z</time></trkpt><trkpt lat="46.277140587090386" lon="12.499696857244324"><ele>583.0</ele><time>2026-04-23T10:39:03.999Z</time></trkpt><trkpt lat="46.27723451142989" lon="12.499691163726439"><ele>584.0</ele><time>2026-04-23T10:39:05.999Z</time></trkpt><trkpt lat="46.27734803534714" lon="12.499699918864826"><ele>585.0</ele><time>2026-04-23T10:39:07.999Z</time></trkpt><trkpt lat="46.27746227087173" lon="12.499718543192342"><ele>586.0</ele><time>2026-04-23T10:39:09.999Z</time></trkpt><trkpt lat="46.27753060978731" lon="12.499728164590891"><ele>587.0</ele><time>2026-04-23T10:39:10.999Z</time></trkpt><trkpt lat="46.27759910866057" lon="12.499749736566109"><ele>587.4285714285714</ele><time>2026-04-23T10:39:11.999Z</time></trkpt><trkpt lat="46.27766839754142" lon="12.49977167863774"><ele>587.8571428571429</ele><time>2026-04-23T10:39:12.999Z</time></trkpt><trkpt lat="46.27773540322984" lon="12.499780767425941"><ele>588.2857142857143</ele><time>2026-04-23T10:39:13.999Z</time></trkpt><trkpt lat="46.27780072785294" lon="12.499787360515468"><ele>588.7142857142858</ele><time>2026-04-23T10:39:14.999Z</time></trkpt><trkpt lat="46.277868512990324" lon="12.499794657503747"><ele>589.1428571428571</ele><time>2026-04-23T10:39:15.999Z</time></trkpt><trkpt lat="46.27793527858979" lon="12.499797162382219"><ele>589.5714285714287</ele><time>2026-04-23T10:39:16.999Z</time></trkpt><trkpt lat="46.278010220324944" lon="12.499795737163916"><ele>590.0</ele><time>2026-04-23T10:39:17.999Z</time></trkpt><trkpt lat="46.27808800029042" lon="12.49979038388215"><ele>590.0</ele><time>2026-04-23T10:39:18.999Z</time></trkpt><trkpt lat="46.278167009186866" lon="12.499785263845995"><ele>590.0</ele><time>2026-04-23T10:39:19.999Z</time></trkpt><trkpt lat="46.278244973525325" lon="12.499784017954976"><ele>590.0</ele><time>2026-04-23T10:39:20.999Z</time></trkpt><trkpt lat="46.27832135274526" lon="12.499776666146683"><ele>590.0</ele><time>2026-04-23T10:39:21.999Z</time></trkpt><trkpt lat="46.278398323053345" lon="12.499767397654725"><ele>590.0</ele><time>2026-04-23T10:39:22.999Z</time></trkpt><trkpt lat="46.27847273970555" lon="12.49976823260566"><ele>590.0</ele><time>2026-04-23T10:39:23.999Z</time></trkpt><trkpt lat="46.278544249667064" lon="12.499785298958558"><ele>590.0</ele><time>2026-04-23T10:39:24.999Z</time></trkpt><trkpt lat="46.27860907743281" lon="12.499823237577104"><ele>590.0</ele><time>2026-04-23T10:39:25.999Z</time></trkpt><trkpt lat="46.27866504590217" lon="12.499869034966872"><ele>590.0</ele><time>2026-04-23T10:39:26.999Z</time></trkpt><trkpt lat="46.278767473007896" lon="12.499933073118703"><ele>590.0</ele><time>2026-04-23T10:39:28.999Z</time></trkpt><trkpt lat="46.278831103967384" lon="12.499955576178163"><ele>590.0</ele><time>2026-04-23T10:39:29.999Z</time></trkpt><trkpt lat="46.27890076985981" lon="12.499985050301241"><ele>590.0</ele><time>2026-04-23T10:39:30.999Z</time></trkpt><trkpt lat="46.27897110632459" lon="12.500029268288282"><ele>590.5</ele><time>2026-04-23T10:39:31.999Z</time></trkpt><trkpt lat="46.27903832591178" lon="12.500083648252502"><ele>591.0</ele><time>2026-04-23T10:39:32.999Z</time></trkpt><trkpt lat="46.279103339770515" lon="12.500137461075017"><ele>591.5</ele><time>2026-04-23T10:39:33.999Z</time></trkpt><trkpt lat="46.27916844730548" lon="12.500171500276764"><ele>592.0</ele><time>2026-04-23T10:39:34.999Z</time></trkpt><trkpt lat="46.27923478319781" lon="12.500186571758139"><ele>592.5</ele><time>2026-04-23T10:39:35.999Z</time></trkpt><trkpt lat="46.2793502641645" lon="12.500171033601394"><ele>593.0</ele><time>2026-04-23T10:39:37.999Z</time></trkpt><trkpt lat="46.279411092685116" lon="12.50014397703341"><ele>593.0</ele><time>2026-04-23T10:39:38.999Z</time></trkpt><trkpt lat="46.2794774976231" lon="12.500109392400725"><ele>593.0</ele><time>2026-04-23T10:39:39.999Z</time></trkpt><trkpt lat="46.2795447796703" lon="12.500081242198942"><ele>593.0</ele><time>2026-04-23T10:39:40.999Z</time></trkpt><trkpt lat="46.27961403234425" lon="12.500059282281008"><ele>593.0</ele><time>2026-04-23T10:39:41.999Z</time></trkpt><trkpt lat="46.27971683517754" lon="12.49998331860181"><ele>593.0</ele><time>2026-04-23T10:39:43.999Z</time></trkpt><trkpt lat="46.27981696536315" lon="12.499891061538158"><ele>593.0</ele><time>2026-04-23T10:39:45.999Z</time></trkpt><trkpt lat="46.27991010577008" lon="12.499834782880747"><ele>593.6</ele><time>2026-04-23T10:39:47.999Z</time></trkpt><trkpt lat="46.280037463891794" lon="12.499794016631256"><ele>594.1999999999999</ele><time>2026-04-23T10:39:49.999Z</time></trkpt><trkpt lat="46.28010551808755" lon="12.499790191308746"><ele>594.8</ele><time>2026-04-23T10:39:51.999Z</time></trkpt><trkpt lat="46.28020917786179" lon="12.49976632338516"><ele>595.4</ele><time>2026-04-23T10:40:00.999Z</time></trkpt><trkpt lat="46.28030293013992" lon="12.499754595248609"><ele>596.0</ele><time>2026-04-23T10:40:02.999Z</time></trkpt><trkpt lat="46.280417620342035" lon="12.499752771911988"><ele>596.0</ele><time>2026-04-23T10:40:04.999Z</time></trkpt><trkpt lat="46.28054860177814" lon="12.499778680664715"><ele>596.0</ele><time>2026-04-23T10:40:06.999Z</time></trkpt><trkpt lat="46.28061454508626" lon="12.499808113765617"><ele>596.0</ele><time>2026-04-23T10:40:07.999Z</time></trkpt><trkpt lat="46.28068769653137" lon="12.49984489965935"><ele>596.0</ele><time>2026-04-23T10:40:08.999Z</time></trkpt><trkpt lat="46.28075840200699" lon="12.499877499584636"><ele>596.0</ele><time>2026-04-23T10:40:09.999Z</time></trkpt><trkpt lat="46.28083434259204" lon="12.499909903673775"><ele>596.0</ele><time>2026-04-23T10:40:10.999Z</time></trkpt><trkpt lat="46.28090988659745" lon="12.499942946766494"><ele>596.0</ele><time>2026-04-23T10:40:11.999Z</time></trkpt><trkpt lat="46.28098098508919" lon="12.499970081021933"><ele>596.0</ele><time>2026-04-23T10:40:12.999Z</time></trkpt><trkpt lat="46.281046651918" lon="12.499993929694792"><ele>596.0</ele><time>2026-04-23T10:40:13.999Z</time></trkpt><trkpt lat="46.28116372127583" lon="12.50003151959136"><ele>596.0</ele><time>2026-04-23T10:40:15.999Z</time></trkpt><trkpt lat="46.281265587111406" lon="12.500098457219678"><ele>596.0</ele><time>2026-04-23T10:40:17.999Z</time></trkpt><trkpt lat="46.28134886380894" lon="12.500220433332764"><ele>596.0</ele><time>2026-04-23T10:40:19.998Z</time></trkpt><trkpt lat="46.28140684398248" lon="12.500331773013363"><ele>596.0</ele><time>2026-04-23T10:40:21.998Z</time></trkpt><trkpt lat="46.28144571540183" lon="12.500409055193725"><ele>596.0</ele><time>2026-04-23T10:40:23.998Z</time></trkpt><trkpt lat="46.281521226829135" lon="12.500467363970088"><ele>596.0</ele><time>2026-04-23T10:40:30.998Z</time></trkpt><trkpt lat="46.28158749303817" lon="12.500528422346472"><ele>596.0</ele><time>2026-04-23T10:40:34.998Z</time></trkpt><trkpt lat="46.28167410883774" lon="12.500542615600565"><ele>596.0</ele><time>2026-04-23T10:40:36.998Z</time></trkpt><trkpt lat="46.281779757692576" lon="12.500552989534565"><ele>595.3333333333333</ele><time>2026-04-23T10:40:38.998Z</time></trkpt><trkpt lat="46.28187974875407" lon="12.500550549998477"><ele>594.6666666666666</ele><time>2026-04-23T10:40:40.998Z</time></trkpt><trkpt lat="46.281950909676965" lon="12.50057025697078"><ele>594.0</ele><time>2026-04-23T10:40:42.998Z</time></trkpt><trkpt lat="46.28201690008556" lon="12.500594387875118"><ele>593.3333333333334</ele><time>2026-04-23T10:40:45.998Z</time></trkpt><trkpt lat="46.28206151433117" lon="12.500514098176449"><ele>592.6666666666667</ele><time>2026-04-23T10:40:48.998Z</time></trkpt><trkpt lat="46.282026157594316" lon="12.500406690729301"><ele>592.0</ele><time>2026-04-23T10:40:51.998Z</time></trkpt><trkpt lat="46.28195899070734" lon="12.500395235016077"><ele>593.8333333333334</ele><time>2026-04-23T10:40:53.998Z</time></trkpt><trkpt lat="46.28190499741276" lon="12.500458630165285"><ele>595.6666666666667</ele><time>2026-04-23T10:40:55.998Z</time></trkpt><trkpt lat="46.281864147222116" lon="12.500533481392656"><ele>597.5</ele><time>2026-04-23T10:40:57.998Z</time></trkpt><trkpt lat="46.28179748467497" lon="12.500567084081755"><ele>599.3333333333334</ele><time>2026-04-23T10:41:00.998Z</time></trkpt><trkpt lat="46.28170661040001" lon="12.50055166328932"><ele>601.1666666666666</ele><time>2026-04-23T10:41:02.999Z</time></trkpt><trkpt lat="46.28160748324182" lon="12.50052926889043"><ele>603.0</ele><time>2026-04-23T10:41:04.999Z</time></trkpt><trkpt lat="46.28150461343908" lon="12.500508705292585"><ele>604.8333333333334</ele><time>2026-04-23T10:41:06.999Z</time></trkpt><trkpt lat="46.281410540924284" lon="12.500503526558923"><ele>606.6666666666666</ele><time>2026-04-23T10:41:08.999Z</time></trkpt><trkpt lat="46.281346311266816" lon="12.500505534666146"><ele>608.5</ele><time>2026-04-23T10:41:10.999Z</time></trkpt><trkpt lat="46.28126542382867" lon="12.500528999618364"><ele>610.3333333333333</ele><time>2026-04-23T10:41:12.999Z</time></trkpt><trkpt lat="46.28119786305166" lon="12.500546576897612"><ele>612.1666666666666</ele><time>2026-04-23T10:41:14.999Z</time></trkpt><trkpt lat="46.28109378727088" lon="12.50050947105575"><ele>614.0</ele><time>2026-04-23T10:41:16.999Z</time></trkpt><trkpt lat="46.28103198959239" lon="12.500469113579369"><ele>614.0</ele><time>2026-04-23T10:41:17.999Z</time></trkpt><trkpt lat="46.28086054521493" lon="12.500549063274198"><ele>614.0</ele><time>2026-04-23T10:41:19.999Z</time></trkpt><trkpt lat="46.2807988080626" lon="12.500504958041818"><ele>614.0</ele><time>2026-04-23T10:41:20.999Z</time></trkpt><trkpt lat="46.28068202457575" lon="12.500428818635203"><ele>614.0</ele><time>2026-04-23T10:41:22.999Z</time></trkpt><trkpt lat="46.280588648241526" lon="12.500396154314554"><ele>613.8</ele><time>2026-04-23T10:41:24.999Z</time></trkpt><trkpt lat="46.2804671433164" lon="12.500406808206664"><ele>613.5999999999999</ele><time>2026-04-23T10:41:26.999Z</time></trkpt><trkpt lat="46.280384921047784" lon="12.500416265176478"><ele>613.4</ele><time>2026-04-23T10:41:27.999Z</time></trkpt><trkpt lat="46.28029622172584" lon="12.500428978361596"><ele>613.1999999999999</ele><time>2026-04-23T10:41:28.999Z</time></trkpt><trkpt lat="46.280198908151895" lon="12.50044153173861"><ele>613.0</ele><time>2026-04-23T10:41:29.999Z</time></trkpt><trkpt lat="46.280108283587275" lon="12.500445987862546"><ele>613.0</ele><time>2026-04-23T10:41:30.999Z</time></trkpt><trkpt lat="46.280036078639185" lon="12.500433313335837"><ele>613.0</ele><time>2026-04-23T10:41:31.999Z</time></trkpt><trkpt lat="46.27995945464731" lon="12.500405314673085"><ele>613.0</ele><time>2026-04-23T10:41:33.999Z</time></trkpt><trkpt lat="46.280130203641576" lon="12.500517208263078"><ele>613.0</ele><time>2026-04-23T10:41:42.999Z</time></trkpt><trkpt lat="46.280230034926014" lon="12.500499330660794"><ele>613.0</ele><time>2026-04-23T10:41:43.999Z</time></trkpt><trkpt lat="46.28033395212626" lon="12.50046738180349"><ele>613.0</ele><time>2026-04-23T10:41:44.999Z</time></trkpt><trkpt lat="46.28044229184681" lon="12.500441685978478"><ele>613.0</ele><time>2026-04-23T10:41:45.999Z</time></trkpt><trkpt lat="46.280533462826014" lon="12.50042959542524"><ele>613.0</ele><time>2026-04-23T10:41:46.999Z</time></trkpt><trkpt lat="46.2806241351116" lon="12.500450850404325"><ele>613.0</ele><time>2026-04-23T10:41:47.999Z</time></trkpt><trkpt lat="46.28071439505947" lon="12.500527375317413"><ele>613.0</ele><time>2026-04-23T10:41:48.999Z</time></trkpt><trkpt lat="46.28080526551747" lon="12.500610798696789"><ele>613.25</ele><time>2026-04-23T10:41:49.999Z</time></trkpt><trkpt lat="46.280911715792904" lon="12.500664254065027"><ele>613.5</ele><time>2026-04-23T10:41:50.999Z</time></trkpt><trkpt lat="46.28101771626539" lon="12.500730925520156"><ele>613.75</ele><time>2026-04-23T10:41:51.999Z</time></trkpt><trkpt lat="46.28113141679738" lon="12.500802890120251"><ele>614.0</ele><time>2026-04-23T10:41:52.999Z</time></trkpt><trkpt lat="46.28124101050869" lon="12.500871567070515"><ele>614.0</ele><time>2026-04-23T10:41:53.999Z</time></trkpt><trkpt lat="46.28134607143241" lon="12.500944960902538"><ele>614.0</ele><time>2026-04-23T10:41:54.999Z</time></trkpt><trkpt lat="46.2814436816341" lon="12.501050664137486"><ele>614.0</ele><time>2026-04-23T10:41:55.999Z</time></trkpt><trkpt lat="46.28156081820031" lon="12.501118575579268"><ele>614.0</ele><time>2026-04-23T10:41:56.999Z</time></trkpt><trkpt lat="46.281663986925366" lon="12.501223475049667"><ele>619.75</ele><time>2026-04-23T10:41:57.999Z</time></trkpt><trkpt lat="46.28176835508939" lon="12.501320460346564"><ele>625.5</ele><time>2026-04-23T10:41:58.999Z</time></trkpt><trkpt lat="46.281883128798576" lon="12.501398208596928"><ele>631.25</ele><time>2026-04-23T10:41:59.999Z</time></trkpt><trkpt lat="46.28200485240215" lon="12.5014882908251"><ele>637.0</ele><time>2026-04-23T10:42:00.999Z</time></trkpt><trkpt lat="46.282131662931135" lon="12.501547421521042"><ele>637.0</ele><time>2026-04-23T10:42:01.999Z</time></trkpt><trkpt lat="46.282258840505065" lon="12.501606609227075"><ele>637.0</ele><time>2026-04-23T10:42:02.999Z</time></trkpt><trkpt lat="46.282380473703554" lon="12.501666575886308"><ele>637.0</ele><time>2026-04-23T10:42:03.999Z</time></trkpt><trkpt lat="46.282487626083444" lon="12.501749153601253"><ele>637.0</ele><time>2026-04-23T10:42:04.999Z</time></trkpt><trkpt lat="46.28258570898795" lon="12.501839795672918"><ele>632.6</ele><time>2026-04-23T10:42:05.999Z</time></trkpt><trkpt lat="46.28268714500779" lon="12.50187909539402"><ele>628.2</ele><time>2026-04-23T10:42:06.999Z</time></trkpt><trkpt lat="46.282784446220454" lon="12.501905061129628"><ele>623.8</ele><time>2026-04-23T10:42:07.999Z</time></trkpt><trkpt lat="46.282891552149884" lon="12.501890170849753"><ele>619.4</ele><time>2026-04-23T10:42:08.999Z</time></trkpt><trkpt lat="46.2829898794073" lon="12.50186249878939"><ele>615.0</ele><time>2026-04-23T10:42:09.999Z</time></trkpt><trkpt lat="46.2830790807594" lon="12.501837851439584"><ele>613.8</ele><time>2026-04-23T10:42:10.999Z</time></trkpt><trkpt lat="46.28315886680045" lon="12.50188671601462"><ele>612.6</ele><time>2026-04-23T10:42:11.999Z</time></trkpt><trkpt lat="46.283244263236796" lon="12.501953533395538"><ele>611.4</ele><time>2026-04-23T10:42:12.999Z</time></trkpt><trkpt lat="46.28334782350013" lon="12.502034043456947"><ele>610.2</ele><time>2026-04-23T10:42:13.999Z</time></trkpt><trkpt lat="46.28345546215068" lon="12.50212022973134"><ele>609.0</ele><time>2026-04-23T10:42:14.999Z</time></trkpt><trkpt lat="46.28356925072041" lon="12.502212228910869"><ele>610.75</ele><time>2026-04-23T10:42:15.999Z</time></trkpt><trkpt lat="46.283688897771114" lon="12.502292420056998"><ele>612.5</ele><time>2026-04-23T10:42:16.999Z</time></trkpt><trkpt lat="46.2838086119565" lon="12.502380317258986"><ele>614.25</ele><time>2026-04-23T10:42:17.999Z</time></trkpt><trkpt lat="46.28393589816937" lon="12.502442593743025"><ele>616.0</ele><time>2026-04-23T10:42:18.999Z</time></trkpt><trkpt lat="46.284073229635894" lon="12.502490203083909"><ele>616.0</ele><time>2026-04-23T10:42:19.999Z</time></trkpt><trkpt lat="46.28420795426377" lon="12.502538551383509"><ele>616.0</ele><time>2026-04-23T10:42:20.999Z</time></trkpt><trkpt lat="46.28434286841553" lon="12.502592766424153"><ele>616.0</ele><time>2026-04-23T10:42:21.999Z</time></trkpt><trkpt lat="46.284474659737" lon="12.502651935099864"><ele>616.0</ele><time>2026-04-23T10:42:22.999Z</time></trkpt><trkpt lat="46.28460319709508" lon="12.502733945296054"><ele>616.0</ele><time>2026-04-23T10:42:23.998Z</time></trkpt><trkpt lat="46.28474300545718" lon="12.502771882868549"><ele>616.0</ele><time>2026-04-23T10:42:24.998Z</time></trkpt><trkpt lat="46.28486225077762" lon="12.502850033846634"><ele>616.0</ele><time>2026-04-23T10:42:25.998Z</time></trkpt><trkpt lat="46.28495732469303" lon="12.502917938622376"><ele>616.0</ele><time>2026-04-23T10:42:26.998Z</time></trkpt><trkpt lat="46.285034116203384" lon="12.502997919325484"><ele>618.0</ele><time>2026-04-23T10:42:27.998Z</time></trkpt><trkpt lat="46.28505686646608" lon="12.503123764446297"><ele>620.0</ele><time>2026-04-23T10:42:28.998Z</time></trkpt><trkpt lat="46.28509936130522" lon="12.50326977591577"><ele>622.0</ele><time>2026-04-23T10:42:29.998Z</time></trkpt><trkpt lat="46.28512861084368" lon="12.503427891476004"><ele>624.0</ele><time>2026-04-23T10:42:30.998Z</time></trkpt><trkpt lat="46.285157418363646" lon="12.50360180615552"><ele>626.0</ele><time>2026-04-23T10:42:31.998Z</time></trkpt><trkpt lat="46.28519865327366" lon="12.503748263116934"><ele>630.4</ele><time>2026-04-23T10:42:32.998Z</time></trkpt><trkpt lat="46.28525057861415" lon="12.503873427917151"><ele>634.8</ele><time>2026-04-23T10:42:33.998Z</time></trkpt><trkpt lat="46.285323657286305" lon="12.503985246572803"><ele>639.1999999999999</ele><time>2026-04-23T10:42:34.998Z</time></trkpt><trkpt lat="46.28540585605334" lon="12.504097417732831"><ele>643.6</ele><time>2026-04-23T10:42:35.998Z</time></trkpt><trkpt lat="46.28548089534947" lon="12.504223244514591"><ele>648.0</ele><time>2026-04-23T10:42:36.998Z</time></trkpt><trkpt lat="46.28554188786758" lon="12.504354553098844"><ele>644.6</ele><time>2026-04-23T10:42:37.998Z</time></trkpt><trkpt lat="46.285596154854495" lon="12.504462809738323"><ele>641.1999999999999</ele><time>2026-04-23T10:42:38.998Z</time></trkpt><trkpt lat="46.285651429957404" lon="12.504572313262438"><ele>637.8</ele><time>2026-04-23T10:42:39.998Z</time></trkpt><trkpt lat="46.28570355774432" lon="12.50471103533411"><ele>634.4</ele><time>2026-04-23T10:42:40.998Z</time></trkpt><trkpt lat="46.285753818475754" lon="12.504868846588117"><ele>631.0</ele><time>2026-04-23T10:42:41.998Z</time></trkpt><trkpt lat="46.28581703242471" lon="12.505028705484834"><ele>631.0</ele><time>2026-04-23T10:42:42.998Z</time></trkpt><trkpt lat="46.28589287939841" lon="12.505182179477954"><ele>631.0</ele><time>2026-04-23T10:42:43.998Z</time></trkpt><trkpt lat="46.2859689984301" lon="12.505321531651099"><ele>631.0</ele><time>2026-04-23T10:42:44.998Z</time></trkpt><trkpt lat="46.28603925473668" lon="12.50545827937196"><ele>631.0</ele><time>2026-04-23T10:42:45.998Z</time></trkpt><trkpt lat="46.286106319653236" lon="12.505573490918728"><ele>629.0</ele><time>2026-04-23T10:42:46.998Z</time></trkpt><trkpt lat="46.28617442726032" lon="12.505677811864949"><ele>627.0</ele><time>2026-04-23T10:42:47.998Z</time></trkpt><trkpt lat="46.28625267283827" lon="12.50578068655261"><ele>625.0</ele><time>2026-04-23T10:42:48.998Z</time></trkpt><trkpt lat="46.28631838545909" lon="12.505910605898153"><ele>623.0</ele><time>2026-04-23T10:42:49.998Z</time></trkpt><trkpt lat="46.28638658575177" lon="12.506012039471262"><ele>621.0</ele><time>2026-04-23T10:42:50.998Z</time></trkpt><trkpt lat="46.286450738593615" lon="12.506107453314073"><ele>621.0</ele><time>2026-04-23T10:42:51.998Z</time></trkpt><trkpt lat="46.28654883914" lon="12.506174878289304"><ele>621.0</ele><time>2026-04-23T10:42:52.998Z</time></trkpt><trkpt lat="46.28663211914059" lon="12.506277714916441"><ele>621.0</ele><time>2026-04-23T10:42:53.998Z</time></trkpt><trkpt lat="46.28671238372052" lon="12.506382931009256"><ele>621.0</ele><time>2026-04-23T10:42:54.998Z</time></trkpt><trkpt lat="46.28679106643501" lon="12.506481979227441"><ele>621.0</ele><time>2026-04-23T10:42:55.998Z</time></trkpt><trkpt lat="46.286868769359664" lon="12.506557160610154"><ele>622.6666666666666</ele><time>2026-04-23T10:42:56.998Z</time></trkpt><trkpt lat="46.28694891521827" lon="12.506616746080951"><ele>624.3333333333334</ele><time>2026-04-23T10:42:57.998Z</time></trkpt><trkpt lat="46.28703266337093" lon="12.50666762530093"><ele>626.0</ele><time>2026-04-23T10:42:58.998Z</time></trkpt><trkpt lat="46.2871160199203" lon="12.506705807722732"><ele>627.6666666666667</ele><time>2026-04-23T10:42:59.998Z</time></trkpt><trkpt lat="46.28719646567366" lon="12.506738015889498"><ele>629.3333333333334</ele><time>2026-04-23T10:43:00.998Z</time></trkpt><trkpt lat="46.2872783857604" lon="12.506768280121664"><ele>631.0</ele><time>2026-04-23T10:43:01.998Z</time></trkpt><trkpt lat="46.28735889386305" lon="12.506802539959688"><ele>631.0</ele><time>2026-04-23T10:43:02.998Z</time></trkpt><trkpt lat="46.287441581593995" lon="12.50684000567029"><ele>631.0</ele><time>2026-04-23T10:43:03.998Z</time></trkpt><trkpt lat="46.28752615356106" lon="12.506880660246814"><ele>631.0</ele><time>2026-04-23T10:43:04.998Z</time></trkpt><trkpt lat="46.28761660225396" lon="12.506919008007843"><ele>631.0</ele><time>2026-04-23T10:43:05.998Z</time></trkpt><trkpt lat="46.287711558643934" lon="12.506952937414622"><ele>631.0</ele><time>2026-04-23T10:43:06.998Z</time></trkpt><trkpt lat="46.28780580088488" lon="12.506982499067695"><ele>631.0</ele><time>2026-04-23T10:43:07.998Z</time></trkpt><trkpt lat="46.287899111483696" lon="12.506998057879004"><ele>631.0</ele><time>2026-04-23T10:43:08.999Z</time></trkpt><trkpt lat="46.287997381541516" lon="12.506982782598142"><ele>631.0</ele><time>2026-04-23T10:43:09.999Z</time></trkpt><trkpt lat="46.28809524816535" lon="12.50694482983348"><ele>631.0</ele><time>2026-04-23T10:43:10.999Z</time></trkpt><trkpt lat="46.28819322859899" lon="12.506888578263764"><ele>631.0</ele><time>2026-04-23T10:43:11.999Z</time></trkpt><trkpt lat="46.28828739738143" lon="12.506830628319253"><ele>630.6</ele><time>2026-04-23T10:43:12.999Z</time></trkpt><trkpt lat="46.28837723938691" lon="12.50679545586134"><ele>630.2</ele><time>2026-04-23T10:43:13.999Z</time></trkpt><trkpt lat="46.28845306417104" lon="12.506789236820902"><ele>629.8</ele><time>2026-04-23T10:43:14.999Z</time></trkpt><trkpt lat="46.28852437877587" lon="12.506830265411239"><ele>629.4</ele><time>2026-04-23T10:43:15.999Z</time></trkpt><trkpt lat="46.28860781933362" lon="12.50690191203694"><ele>629.0</ele><time>2026-04-23T10:43:16.999Z</time></trkpt><trkpt lat="46.288723605752544" lon="12.506998104450055"><ele>633.75</ele><time>2026-04-23T10:43:17.999Z</time></trkpt><trkpt lat="46.28885000372339" lon="12.50708862457061"><ele>638.5</ele><time>2026-04-23T10:43:18.999Z</time></trkpt><trkpt lat="46.288969398828826" lon="12.507170773882764"><ele>643.25</ele><time>2026-04-23T10:43:19.999Z</time></trkpt><trkpt lat="46.289082625127236" lon="12.507236909603812"><ele>648.0</ele><time>2026-04-23T10:43:20.999Z</time></trkpt><trkpt lat="46.28920211126911" lon="12.50725873159314"><ele>648.0</ele><time>2026-04-23T10:43:21.999Z</time></trkpt><trkpt lat="46.28932391883505" lon="12.507252200646517"><ele>648.0</ele><time>2026-04-23T10:43:22.999Z</time></trkpt><trkpt lat="46.289444125376654" lon="12.507267825109391"><ele>648.0</ele><time>2026-04-23T10:43:23.999Z</time></trkpt><trkpt lat="46.28955070515532" lon="12.50730958412146"><ele>648.0</ele><time>2026-04-23T10:43:24.999Z</time></trkpt><trkpt lat="46.28964662422954" lon="12.507365478376169"><ele>648.0</ele><time>2026-04-23T10:43:25.999Z</time></trkpt><trkpt lat="46.289738114092934" lon="12.507425257094848"><ele>648.0</ele><time>2026-04-23T10:43:26.999Z</time></trkpt><trkpt lat="46.28983596807458" lon="12.50748188339461"><ele>648.0</ele><time>2026-04-23T10:43:27.999Z</time></trkpt><trkpt lat="46.28993697056603" lon="12.507530171135182"><ele>648.0</ele><time>2026-04-23T10:43:28.999Z</time></trkpt><trkpt lat="46.290040442526895" lon="12.507581345688951"><ele>648.0</ele><time>2026-04-23T10:43:29.999Z</time></trkpt><trkpt lat="46.29014230920034" lon="12.50763320330216"><ele>646.8</ele><time>2026-04-23T10:43:30.999Z</time></trkpt><trkpt lat="46.29024934340645" lon="12.50767815536148"><ele>645.5999999999999</ele><time>2026-04-23T10:43:31.999Z</time></trkpt><trkpt lat="46.29035591706812" lon="12.507721413479835"><ele>644.4000000000001</ele><time>2026-04-23T10:43:32.999Z</time></trkpt><trkpt lat="46.29046665646629" lon="12.507763691868247"><ele>643.2</ele><time>2026-04-23T10:43:33.999Z</time></trkpt><trkpt lat="46.290570319935505" lon="12.50780506310837"><ele>642.0</ele><time>2026-04-23T10:43:34.999Z</time></trkpt><trkpt lat="46.290673853547844" lon="12.50784041297522"><ele>641.2</ele><time>2026-04-23T10:43:35.999Z</time></trkpt><trkpt lat="46.290774027246506" lon="12.50786429388158"><ele>640.4000000000001</ele><time>2026-04-23T10:43:36.999Z</time></trkpt><trkpt lat="46.29087155047897" lon="12.507878451623116"><ele>639.5999999999999</ele><time>2026-04-23T10:43:37.999Z</time></trkpt><trkpt lat="46.29096237072532" lon="12.50786826955891"><ele>638.8</ele><time>2026-04-23T10:43:38.999Z</time></trkpt><trkpt lat="46.291050318765116" lon="12.50782684119472"><ele>638.0</ele><time>2026-04-23T10:43:39.999Z</time></trkpt><trkpt lat="46.29113568601502" lon="12.507751084737631"><ele>638.0</ele><time>2026-04-23T10:43:40.999Z</time></trkpt><trkpt lat="46.29120030461035" lon="12.507660141499676"><ele>638.0</ele><time>2026-04-23T10:43:41.999Z</time></trkpt><trkpt lat="46.29125942608001" lon="12.507580232607465"><ele>638.0</ele><time>2026-04-23T10:43:42.999Z</time></trkpt><trkpt lat="46.29131456321121" lon="12.50752506666361"><ele>638.0</ele><time>2026-04-23T10:43:43.999Z</time></trkpt><trkpt lat="46.2914158878698" lon="12.507436818809783"><ele>638.0</ele><time>2026-04-23T10:43:45.999Z</time></trkpt><trkpt lat="46.29151504301109" lon="12.507376819242115"><ele>639.2</ele><time>2026-04-23T10:43:47.999Z</time></trkpt><trkpt lat="46.29163092710204" lon="12.507320438718496"><ele>640.4</ele><time>2026-04-23T10:43:49.999Z</time></trkpt><trkpt lat="46.29171485591337" lon="12.507274012499666"><ele>641.6</ele><time>2026-04-23T10:43:50.999Z</time></trkpt><trkpt lat="46.29179682130105" lon="12.507219498497358"><ele>642.8000000000001</ele><time>2026-04-23T10:43:51.999Z</time></trkpt><trkpt lat="46.29188711176168" lon="12.507183956107863"><ele>644.0</ele><time>2026-04-23T10:43:52.999Z</time></trkpt><trkpt lat="46.291972562867436" lon="12.50717381996183"><ele>644.0</ele><time>2026-04-23T10:43:53.999Z</time></trkpt><trkpt lat="46.29205787462847" lon="12.507177031668338"><ele>644.0</ele><time>2026-04-23T10:43:54.999Z</time></trkpt><trkpt lat="46.292148044677276" lon="12.507233454560923"><ele>644.0</ele><time>2026-04-23T10:43:55.999Z</time></trkpt><trkpt lat="46.29223141708245" lon="12.507321342184426"><ele>644.0</ele><time>2026-04-23T10:43:56.999Z</time></trkpt><trkpt lat="46.29231358778125" lon="12.507418299966272"><ele>644.0</ele><time>2026-04-23T10:43:57.999Z</time></trkpt><trkpt lat="46.292400118621096" lon="12.507500747482318"><ele>643.8000000000001</ele><time>2026-04-23T10:43:58.999Z</time></trkpt><trkpt lat="46.292493401791155" lon="12.507571604132773"><ele>643.6</ele><time>2026-04-23T10:43:59.999Z</time></trkpt><trkpt lat="46.29258879075353" lon="12.507636251254928"><ele>643.4</ele><time>2026-04-23T10:44:00.999Z</time></trkpt><trkpt lat="46.29268000458241" lon="12.50769400384594"><ele>643.2</ele><time>2026-04-23T10:44:01.999Z</time></trkpt><trkpt lat="46.292776600971244" lon="12.50775121261673"><ele>643.0</ele><time>2026-04-23T10:44:02.999Z</time></trkpt><trkpt lat="46.292862735585146" lon="12.507803353085619"><ele>643.0</ele><time>2026-04-23T10:44:03.999Z</time></trkpt><trkpt lat="46.292949795062114" lon="12.507844336844236"><ele>643.0</ele><time>2026-04-23T10:44:04.999Z</time></trkpt><trkpt lat="46.293042915109" lon="12.507878472970395"><ele>643.0</ele><time>2026-04-23T10:44:05.999Z</time></trkpt><trkpt lat="46.293137622738236" lon="12.507909700627064"><ele>643.0</ele><time>2026-04-23T10:44:06.999Z</time></trkpt><trkpt lat="46.29323192718554" lon="12.507939398953933"><ele>643.0</ele><time>2026-04-23T10:44:07.999Z</time></trkpt><trkpt lat="46.29333254006393" lon="12.507958482641426"><ele>644.2</ele><time>2026-04-23T10:44:08.999Z</time></trkpt><trkpt lat="46.29343545013731" lon="12.507977971344198"><ele>645.4</ele><time>2026-04-23T10:44:09.999Z</time></trkpt><trkpt lat="46.29353225288589" lon="12.508008077580122"><ele>646.6</ele><time>2026-04-23T10:44:10.999Z</time></trkpt><trkpt lat="46.29362976857812" lon="12.50804648159015"><ele>647.8000000000001</ele><time>2026-04-23T10:44:11.999Z</time></trkpt><trkpt lat="46.293734867337115" lon="12.508083704180958"><ele>649.0</ele><time>2026-04-23T10:44:12.999Z</time></trkpt><trkpt lat="46.293835892354586" lon="12.508118568471149"><ele>649.4000000000001</ele><time>2026-04-23T10:44:13.999Z</time></trkpt><trkpt lat="46.29393181850285" lon="12.50815136625844"><ele>649.8</ele><time>2026-04-23T10:44:14.999Z</time></trkpt><trkpt lat="46.29402969734075" lon="12.508193496899377"><ele>650.2</ele><time>2026-04-23T10:44:15.999Z</time></trkpt><trkpt lat="46.29412848624342" lon="12.508241245149419"><ele>650.5999999999999</ele><time>2026-04-23T10:44:16.999Z</time></trkpt><trkpt lat="46.29423269582317" lon="12.508273217264874"><ele>651.0</ele><time>2026-04-23T10:44:17.999Z</time></trkpt><trkpt lat="46.29434158217947" lon="12.508293568547968"><ele>651.0</ele><time>2026-04-23T10:44:18.999Z</time></trkpt><trkpt lat="46.29445459007991" lon="12.50830459741416"><ele>651.0</ele><time>2026-04-23T10:44:19.999Z</time></trkpt><trkpt lat="46.294570419538466" lon="12.508307315497643"><ele>651.0</ele><time>2026-04-23T10:44:20.999Z</time></trkpt><trkpt lat="46.29468402855457" lon="12.508311229391765"><ele>651.0</ele><time>2026-04-23T10:44:21.999Z</time></trkpt><trkpt lat="46.294796965711214" lon="12.508308079364891"><ele>651.0</ele><time>2026-04-23T10:44:22.998Z</time></trkpt><trkpt lat="46.294908544761576" lon="12.508311684668769"><ele>651.0</ele><time>2026-04-23T10:44:23.998Z</time></trkpt><trkpt lat="46.29501380360284" lon="12.508325016860818"><ele>651.0</ele><time>2026-04-23T10:44:24.998Z</time></trkpt><trkpt lat="46.29510312318463" lon="12.50832982866632"><ele>651.0</ele><time>2026-04-23T10:44:25.998Z</time></trkpt><trkpt lat="46.29518662948656" lon="12.508330714576834"><ele>651.0</ele><time>2026-04-23T10:44:26.998Z</time></trkpt><trkpt lat="46.29525906992594" lon="12.5083537700299"><ele>651.0</ele><time>2026-04-23T10:44:27.998Z</time></trkpt><trkpt lat="46.29534338063078" lon="12.508411177080005"><ele>651.0</ele><time>2026-04-23T10:44:28.998Z</time></trkpt><trkpt lat="46.29544792787167" lon="12.508481640420856"><ele>651.0</ele><time>2026-04-23T10:44:29.998Z</time></trkpt><trkpt lat="46.29556759440222" lon="12.508517255262078"><ele>651.0</ele><time>2026-04-23T10:44:30.998Z</time></trkpt><trkpt lat="46.29570217407875" lon="12.508546322301179"><ele>651.0</ele><time>2026-04-23T10:44:31.998Z</time></trkpt><trkpt lat="46.2958375828053" lon="12.508582268299428"><ele>651.0</ele><time>2026-04-23T10:44:32.998Z</time></trkpt><trkpt lat="46.295973527858585" lon="12.508612742544075"><ele>651.0</ele><time>2026-04-23T10:44:33.998Z</time></trkpt><trkpt lat="46.29610868210402" lon="12.508633173134749"><ele>651.0</ele><time>2026-04-23T10:44:34.998Z</time></trkpt><trkpt lat="46.29624496182137" lon="12.508660302735992"><ele>651.0</ele><time>2026-04-23T10:44:35.998Z</time></trkpt><trkpt lat="46.29637637126145" lon="12.508695819060712"><ele>651.0</ele><time>2026-04-23T10:44:36.998Z</time></trkpt><trkpt lat="46.29650565732083" lon="12.508741431252128"><ele>651.0</ele><time>2026-04-23T10:44:37.998Z</time></trkpt><trkpt lat="46.29662373171533" lon="12.508789485362877"><ele>651.0</ele><time>2026-04-23T10:44:38.998Z</time></trkpt><trkpt lat="46.296723042754834" lon="12.508847881927275"><ele>653.75</ele><time>2026-04-23T10:44:39.998Z</time></trkpt><trkpt lat="46.29681668611563" lon="12.508932533421579"><ele>656.5</ele><time>2026-04-23T10:44:40.998Z</time></trkpt><trkpt lat="46.29690156120618" lon="12.509066623331892"><ele>659.25</ele><time>2026-04-23T10:44:41.998Z</time></trkpt><trkpt lat="46.296983800079076" lon="12.509203734055731"><ele>662.0</ele><time>2026-04-23T10:44:42.998Z</time></trkpt><trkpt lat="46.29705582406663" lon="12.509359198095295"><ele>662.0</ele><time>2026-04-23T10:44:43.998Z</time></trkpt><trkpt lat="46.29711475423184" lon="12.509500121286486"><ele>662.0</ele><time>2026-04-23T10:44:44.998Z</time></trkpt><trkpt lat="46.297160389156886" lon="12.50963349171214"><ele>662.0</ele><time>2026-04-23T10:44:45.998Z</time></trkpt><trkpt lat="46.297194909323984" lon="12.509774456047117"><ele>662.0</ele><time>2026-04-23T10:44:46.998Z</time></trkpt><trkpt lat="46.29722642155467" lon="12.509920027369144"><ele>662.0</ele><time>2026-04-23T10:44:47.998Z</time></trkpt><trkpt lat="46.29726347831976" lon="12.510074217542154"><ele>662.4000000000001</ele><time>2026-04-23T10:44:48.998Z</time></trkpt><trkpt lat="46.29730490135343" lon="12.510228491143181"><ele>662.8000000000001</ele><time>2026-04-23T10:44:49.998Z</time></trkpt><trkpt lat="46.29733234723305" lon="12.510383898062946"><ele>663.2</ele><time>2026-04-23T10:44:50.998Z</time></trkpt><trkpt lat="46.297354209541396" lon="12.510529954260491"><ele>663.6</ele><time>2026-04-23T10:44:51.998Z</time></trkpt><trkpt lat="46.29738748720377" lon="12.510678036514204"><ele>664.0</ele><time>2026-04-23T10:44:52.998Z</time></trkpt><trkpt lat="46.29742122377049" lon="12.510839615517694"><ele>665.5</ele><time>2026-04-23T10:44:53.998Z</time></trkpt><trkpt lat="46.29746700350401" lon="12.510989437122992"><ele>667.0</ele><time>2026-04-23T10:44:54.998Z</time></trkpt><trkpt lat="46.29753252781488" lon="12.511127434730353"><ele>668.5</ele><time>2026-04-23T10:44:55.998Z</time></trkpt><trkpt lat="46.29757345332214" lon="12.511299609875154"><ele>670.0</ele><time>2026-04-23T10:44:56.998Z</time></trkpt><trkpt lat="46.29765067554159" lon="12.511434049796438"><ele>673.75</ele><time>2026-04-23T10:44:57.998Z</time></trkpt><trkpt lat="46.29773119513699" lon="12.5115633941722"><ele>677.5</ele><time>2026-04-23T10:44:58.998Z</time></trkpt><trkpt lat="46.29782065708123" lon="12.511683322189462"><ele>681.25</ele><time>2026-04-23T10:44:59.998Z</time></trkpt><trkpt lat="46.29791088331445" lon="12.51179255367517"><ele>685.0</ele><time>2026-04-23T10:45:00.998Z</time></trkpt><trkpt lat="46.29798947927874" lon="12.51189899362223"><ele>685.0</ele><time>2026-04-23T10:45:01.998Z</time></trkpt><trkpt lat="46.298057446378095" lon="12.511984848414665"><ele>685.0</ele><time>2026-04-23T10:45:02.998Z</time></trkpt><trkpt lat="46.298122348282256" lon="12.512092803149734"><ele>685.0</ele><time>2026-04-23T10:45:03.998Z</time></trkpt><trkpt lat="46.2981941836981" lon="12.512219726845203"><ele>685.0</ele><time>2026-04-23T10:45:04.998Z</time></trkpt><trkpt lat="46.29827649646282" lon="12.512327023556894"><ele>685.0</ele><time>2026-04-23T10:45:05.998Z</time></trkpt><trkpt lat="46.29835263004155" lon="12.512412190277999"><ele>683.6666666666667</ele><time>2026-04-23T10:45:06.998Z</time></trkpt><trkpt lat="46.298422507158506" lon="12.512476695772493"><ele>682.3333333333334</ele><time>2026-04-23T10:45:07.998Z</time></trkpt><trkpt lat="46.298487956976565" lon="12.512525796248179"><ele>681.0</ele><time>2026-04-23T10:45:08.998Z</time></trkpt><trkpt lat="46.29855765230614" lon="12.512568081688254"><ele>679.6666666666666</ele><time>2026-04-23T10:45:09.998Z</time></trkpt><trkpt lat="46.298632000927384" lon="12.512588111859042"><ele>678.3333333333333</ele><time>2026-04-23T10:45:10.998Z</time></trkpt><trkpt lat="46.298714635119794" lon="12.512593855578128"><ele>677.0</ele><time>2026-04-23T10:45:11.998Z</time></trkpt><trkpt lat="46.29880485927313" lon="12.512599704745595"><ele>677.0</ele><time>2026-04-23T10:45:12.998Z</time></trkpt><trkpt lat="46.29889852837703" lon="12.512621244448207"><ele>677.0</ele><time>2026-04-23T10:45:13.998Z</time></trkpt><trkpt lat="46.29900062791155" lon="12.512641526889656"><ele>677.0</ele><time>2026-04-23T10:45:14.999Z</time></trkpt><trkpt lat="46.29912149623382" lon="12.512656917597655"><ele>677.0</ele><time>2026-04-23T10:45:15.999Z</time></trkpt><trkpt lat="46.299247630193854" lon="12.512682126275866"><ele>677.0</ele><time>2026-04-23T10:45:16.999Z</time></trkpt><trkpt lat="46.29935868524752" lon="12.512716553771604"><ele>676.6</ele><time>2026-04-23T10:45:17.999Z</time></trkpt><trkpt lat="46.2994663142244" lon="12.512751443519262"><ele>676.2</ele><time>2026-04-23T10:45:18.999Z</time></trkpt><trkpt lat="46.299575931649805" lon="12.512787291227873"><ele>675.8</ele><time>2026-04-23T10:45:19.999Z</time></trkpt><trkpt lat="46.299673092243815" lon="12.51282562541033"><ele>675.4</ele><time>2026-04-23T10:45:20.999Z</time></trkpt><trkpt lat="46.29976036610034" lon="12.512867335026076"><ele>675.0</ele><time>2026-04-23T10:45:21.999Z</time></trkpt><trkpt lat="46.29984712911738" lon="12.512919396048392"><ele>676.6</ele><time>2026-04-23T10:45:22.999Z</time></trkpt><trkpt lat="46.299927442943385" lon="12.512970206513586"><ele>678.2</ele><time>2026-04-23T10:45:23.999Z</time></trkpt><trkpt lat="46.2999881320206" lon="12.513021092329934"><ele>679.8</ele><time>2026-04-23T10:45:24.999Z</time></trkpt><trkpt lat="46.300038279516336" lon="12.513080780737177"><ele>681.4</ele><time>2026-04-23T10:45:25.999Z</time></trkpt><trkpt lat="46.300105385236904" lon="12.513237149258273"><ele>683.0</ele><time>2026-04-23T10:45:27.999Z</time></trkpt><trkpt lat="46.300145986112184" lon="12.513387429928228"><ele>683.0</ele><time>2026-04-23T10:45:29.999Z</time></trkpt><trkpt lat="46.30015783112169" lon="12.51350198827827"><ele>683.0</ele><time>2026-04-23T10:45:31.999Z</time></trkpt><trkpt lat="46.30017984944021" lon="12.513653127232287"><ele>683.0</ele><time>2026-04-23T10:45:34.999Z</time></trkpt><trkpt lat="46.30021354570491" lon="12.513809051058109"><ele>683.0</ele><time>2026-04-23T10:45:36.999Z</time></trkpt><trkpt lat="46.30026527853776" lon="12.513986822155303"><ele>683.0</ele><time>2026-04-23T10:45:38.999Z</time></trkpt><trkpt lat="46.300307310573096" lon="12.514087730261695"><ele>683.8571428571429</ele><time>2026-04-23T10:45:39.999Z</time></trkpt><trkpt lat="46.30035804969147" lon="12.514183692170729"><ele>684.7142857142857</ele><time>2026-04-23T10:45:40.999Z</time></trkpt><trkpt lat="46.300405599463716" lon="12.514264161814515"><ele>685.5714285714286</ele><time>2026-04-23T10:45:41.999Z</time></trkpt><trkpt lat="46.300450626028635" lon="12.514332433643869"><ele>686.4285714285714</ele><time>2026-04-23T10:45:42.999Z</time></trkpt><trkpt lat="46.30048998956343" lon="12.514407921741139"><ele>687.2857142857143</ele><time>2026-04-23T10:45:43.999Z</time></trkpt><trkpt lat="46.30052546561346" lon="12.51449735592001"><ele>688.1428571428571</ele><time>2026-04-23T10:45:44.999Z</time></trkpt><trkpt lat="46.30055902521469" lon="12.514591449144683"><ele>689.0</ele><time>2026-04-23T10:45:45.999Z</time></trkpt><trkpt lat="46.300583477064976" lon="12.514687315769775"><ele>689.0</ele><time>2026-04-23T10:45:46.999Z</time></trkpt><trkpt lat="46.30061014394401" lon="12.51477121501978"><ele>689.0</ele><time>2026-04-23T10:45:47.999Z</time></trkpt><trkpt lat="46.30070427141449" lon="12.51488044985463"><ele>689.0</ele><time>2026-04-23T10:45:49.999Z</time></trkpt><trkpt lat="46.30076737771738" lon="12.514919706866225"><ele>689.0</ele><time>2026-04-23T10:45:50.999Z</time></trkpt><trkpt lat="46.30083379729975" lon="12.51495229882202"><ele>689.0</ele><time>2026-04-23T10:45:51.999Z</time></trkpt><trkpt lat="46.3008974786276" lon="12.51500950783484"><ele>689.0</ele><time>2026-04-23T10:45:52.999Z</time></trkpt><trkpt lat="46.30095901648273" lon="12.515092870650944"><ele>689.0</ele><time>2026-04-23T10:45:53.999Z</time></trkpt><trkpt lat="46.30101785410314" lon="12.515180339292693"><ele>689.0</ele><time>2026-04-23T10:45:54.999Z</time></trkpt><trkpt lat="46.30108043721381" lon="12.515271278191008"><ele>689.0</ele><time>2026-04-23T10:45:55.999Z</time></trkpt><trkpt lat="46.30114888293496" lon="12.515367544382558"><ele>689.0</ele><time>2026-04-23T10:45:56.999Z</time></trkpt><trkpt lat="46.30122204788286" lon="12.515454379159303"><ele>689.0</ele><time>2026-04-23T10:45:57.999Z</time></trkpt><trkpt lat="46.30129917422292" lon="12.515529065722092"><ele>688.2</ele><time>2026-04-23T10:45:58.999Z</time></trkpt><trkpt lat="46.30137786988223" lon="12.515602991706889"><ele>687.4000000000001</ele><time>2026-04-23T10:45:59.999Z</time></trkpt><trkpt lat="46.30146589086532" lon="12.515676413393386"><ele>686.6</ele><time>2026-04-23T10:46:00.999Z</time></trkpt><trkpt lat="46.301555547709654" lon="12.515755756728531"><ele>685.8</ele><time>2026-04-23T10:46:01.999Z</time></trkpt><trkpt lat="46.30164950824458" lon="12.51583110881493"><ele>685.0</ele><time>2026-04-23T10:46:02.999Z</time></trkpt><trkpt lat="46.30174782793822" lon="12.515897157907801"><ele>685.0</ele><time>2026-04-23T10:46:03.999Z</time></trkpt><trkpt lat="46.301857190638955" lon="12.515952226455909"><ele>685.0</ele><time>2026-04-23T10:46:04.999Z</time></trkpt><trkpt lat="46.301960237861394" lon="12.516016827179167"><ele>685.0</ele><time>2026-04-23T10:46:05.999Z</time></trkpt><trkpt lat="46.30206602323646" lon="12.51607942853612"><ele>685.0</ele><time>2026-04-23T10:46:06.999Z</time></trkpt><trkpt lat="46.3021686857209" lon="12.516156677370521"><ele>684.75</ele><time>2026-04-23T10:46:07.999Z</time></trkpt><trkpt lat="46.30226336865016" lon="12.51623588617347"><ele>684.5</ele><time>2026-04-23T10:46:08.999Z</time></trkpt><trkpt lat="46.302358327304" lon="12.516329985615638"><ele>684.25</ele><time>2026-04-23T10:46:09.999Z</time></trkpt><trkpt lat="46.30245879110919" lon="12.516421997270196"><ele>684.0</ele><time>2026-04-23T10:46:10.999Z</time></trkpt><trkpt lat="46.302565468464216" lon="12.516516398155272"><ele>685.6</ele><time>2026-04-23T10:46:11.999Z</time></trkpt><trkpt lat="46.302655015520294" lon="12.516604546537932"><ele>687.2</ele><time>2026-04-23T10:46:12.999Z</time></trkpt><trkpt lat="46.30273255688166" lon="12.516698960427606"><ele>688.8000000000001</ele><time>2026-04-23T10:46:13.999Z</time></trkpt><trkpt lat="46.30278810597008" lon="12.516787911469507"><ele>690.4000000000001</ele><time>2026-04-23T10:46:14.999Z</time></trkpt><trkpt lat="46.30282768399635" lon="12.516897945364368"><ele>692.0</ele><time>2026-04-23T10:46:15.999Z</time></trkpt><trkpt lat="46.302857772006135" lon="12.51703619747247"><ele>691.0</ele><time>2026-04-23T10:46:16.999Z</time></trkpt><trkpt lat="46.302881953530004" lon="12.517205206025368"><ele>690.0</ele><time>2026-04-23T10:46:17.999Z</time></trkpt><trkpt lat="46.30293400876535" lon="12.517375716938785"><ele>689.0</ele><time>2026-04-23T10:46:18.999Z</time></trkpt><trkpt lat="46.30300537322082" lon="12.517543597186739"><ele>688.0</ele><time>2026-04-23T10:46:19.999Z</time></trkpt><trkpt lat="46.30308596853563" lon="12.51770766101595"><ele>688.0</ele><time>2026-04-23T10:46:20.999Z</time></trkpt><trkpt lat="46.3031723568519" lon="12.51785877616051"><ele>688.0</ele><time>2026-04-23T10:46:21.999Z</time></trkpt><trkpt lat="46.30326302704816" lon="12.517990847202881"><ele>688.0</ele><time>2026-04-23T10:46:22.999Z</time></trkpt><trkpt lat="46.30336213858801" lon="12.518106022811214"><ele>688.0</ele><time>2026-04-23T10:46:23.999Z</time></trkpt><trkpt lat="46.303464313933766" lon="12.518223095316008"><ele>692.4</ele><time>2026-04-23T10:46:24.999Z</time></trkpt><trkpt lat="46.30356057863551" lon="12.518337551524832"><ele>696.8</ele><time>2026-04-23T10:46:25.999Z</time></trkpt><trkpt lat="46.303664401886444" lon="12.518443944205961"><ele>701.2</ele><time>2026-04-23T10:46:26.999Z</time></trkpt><trkpt lat="46.30374905684329" lon="12.518540322071617"><ele>705.6</ele><time>2026-04-23T10:46:27.999Z</time></trkpt><trkpt lat="46.303796485995804" lon="12.518626217101893"><ele>710.0</ele><time>2026-04-23T10:46:28.999Z</time></trkpt><trkpt lat="46.30385040051053" lon="12.518709716111726"><ele>708.6666666666666</ele><time>2026-04-23T10:46:29.999Z</time></trkpt><trkpt lat="46.30391582344705" lon="12.518783592787914"><ele>707.3333333333333</ele><time>2026-04-23T10:46:30.999Z</time></trkpt><trkpt lat="46.303985775573906" lon="12.518819102932824"><ele>706.0</ele><time>2026-04-23T10:46:31.999Z</time></trkpt><trkpt lat="46.304068446551796" lon="12.518875594045644"><ele>704.6666666666666</ele><time>2026-04-23T10:46:32.999Z</time></trkpt><trkpt lat="46.30414460412521" lon="12.51896066083377"><ele>703.3333333333334</ele><time>2026-04-23T10:46:33.999Z</time></trkpt><trkpt lat="46.30420933048412" lon="12.519053234159596"><ele>702.0</ele><time>2026-04-23T10:46:34.999Z</time></trkpt><trkpt lat="46.30426553414249" lon="12.519156227707573"><ele>702.0</ele><time>2026-04-23T10:46:35.999Z</time></trkpt><trkpt lat="46.304316282642716" lon="12.519268416336395"><ele>702.0</ele><time>2026-04-23T10:46:36.999Z</time></trkpt><trkpt lat="46.30437188621499" lon="12.519380320940925"><ele>702.0</ele><time>2026-04-23T10:46:37.999Z</time></trkpt><trkpt lat="46.30443304322142" lon="12.519491421492711"><ele>702.0</ele><time>2026-04-23T10:46:38.999Z</time></trkpt><trkpt lat="46.304495453162815" lon="12.519609189079212"><ele>702.0</ele><time>2026-04-23T10:46:39.999Z</time></trkpt><trkpt lat="46.304556945973836" lon="12.519719154094181"><ele>702.0</ele><time>2026-04-23T10:46:40.999Z</time></trkpt><trkpt lat="46.304622760497466" lon="12.519825773471617"><ele>702.0</ele><time>2026-04-23T10:46:41.999Z</time></trkpt><trkpt lat="46.30468639495154" lon="12.519934084664667"><ele>702.0</ele><time>2026-04-23T10:46:42.999Z</time></trkpt><trkpt lat="46.30474199355043" lon="12.520048625217697"><ele>702.0</ele><time>2026-04-23T10:46:43.999Z</time></trkpt><trkpt lat="46.304792844872736" lon="12.520170572138307"><ele>702.0</ele><time>2026-04-23T10:46:44.998Z</time></trkpt><trkpt lat="46.30484952864556" lon="12.520296071943957"><ele>704.75</ele><time>2026-04-23T10:46:45.998Z</time></trkpt><trkpt lat="46.304915739340046" lon="12.52042028742674"><ele>707.5</ele><time>2026-04-23T10:46:46.998Z</time></trkpt><trkpt lat="46.304991772927295" lon="12.520542968392121"><ele>710.25</ele><time>2026-04-23T10:46:47.998Z</time></trkpt><trkpt lat="46.305073453559295" lon="12.52066561354532"><ele>713.0</ele><time>2026-04-23T10:46:48.998Z</time></trkpt><trkpt lat="46.30516196864705" lon="12.520780310318631"><ele>713.0</ele><time>2026-04-23T10:46:49.998Z</time></trkpt><trkpt lat="46.30525100098422" lon="12.52089143138825"><ele>713.0</ele><time>2026-04-23T10:46:50.998Z</time></trkpt><trkpt lat="46.30534561332877" lon="12.520989517930552"><ele>713.0</ele><time>2026-04-23T10:46:51.998Z</time></trkpt><trkpt lat="46.305444743992766" lon="12.521079644058279"><ele>713.0</ele><time>2026-04-23T10:46:52.998Z</time></trkpt><trkpt lat="46.305545467824814" lon="12.521168032584093"><ele>714.75</ele><time>2026-04-23T10:46:53.998Z</time></trkpt><trkpt lat="46.30565085429956" lon="12.521247670122516"><ele>716.5</ele><time>2026-04-23T10:46:54.998Z</time></trkpt><trkpt lat="46.30575490936089" lon="12.521320620569862"><ele>718.25</ele><time>2026-04-23T10:46:55.998Z</time></trkpt><trkpt lat="46.30586093075281" lon="12.521385358706748"><ele>720.0</ele><time>2026-04-23T10:46:56.998Z</time></trkpt><trkpt lat="46.30596854169847" lon="12.521444138121465"><ele>720.0</ele><time>2026-04-23T10:46:57.998Z</time></trkpt><trkpt lat="46.30606714176003" lon="12.521495279892754"><ele>720.0</ele><time>2026-04-23T10:46:58.998Z</time></trkpt><trkpt lat="46.30617241239248" lon="12.52154094791151"><ele>720.0</ele><time>2026-04-23T10:46:59.998Z</time></trkpt><trkpt lat="46.30628343914473" lon="12.521586150822205"><ele>720.0</ele><time>2026-04-23T10:47:00.998Z</time></trkpt><trkpt lat="46.30638871641482" lon="12.521634687487358"><ele>720.0</ele><time>2026-04-23T10:47:01.998Z</time></trkpt><trkpt lat="46.306485025449696" lon="12.521679988215539"><ele>718.0</ele><time>2026-04-23T10:47:02.998Z</time></trkpt><trkpt lat="46.30658018383979" lon="12.521725267702292"><ele>716.0</ele><time>2026-04-23T10:47:03.998Z</time></trkpt><trkpt lat="46.30666510636658" lon="12.521765461397951"><ele>714.0</ele><time>2026-04-23T10:47:04.998Z</time></trkpt><trkpt lat="46.30674102725277" lon="12.521797120943202"><ele>712.0</ele><time>2026-04-23T10:47:05.998Z</time></trkpt><trkpt lat="46.306817594284375" lon="12.521826239604648"><ele>710.0</ele><time>2026-04-23T10:47:06.998Z</time></trkpt><trkpt lat="46.306891659362975" lon="12.521866896104854"><ele>708.0</ele><time>2026-04-23T10:47:07.998Z</time></trkpt><trkpt lat="46.306976806114115" lon="12.521911901748487"><ele>708.0</ele><time>2026-04-23T10:47:08.998Z</time></trkpt><trkpt lat="46.307064588111345" lon="12.521977531328607"><ele>708.0</ele><time>2026-04-23T10:47:09.998Z</time></trkpt><trkpt lat="46.30715620582658" lon="12.522062868247119"><ele>708.0</ele><time>2026-04-23T10:47:10.998Z</time></trkpt><trkpt lat="46.30724648015656" lon="12.522167851803687"><ele>708.0</ele><time>2026-04-23T10:47:11.998Z</time></trkpt><trkpt lat="46.30733038053456" lon="12.522295744339054"><ele>708.0</ele><time>2026-04-23T10:47:12.998Z</time></trkpt><trkpt lat="46.30741011310641" lon="12.5224211512398"><ele>708.0</ele><time>2026-04-23T10:47:13.998Z</time></trkpt><trkpt lat="46.30747638094228" lon="12.522536058536433"><ele>708.0</ele><time>2026-04-23T10:47:14.998Z</time></trkpt><trkpt lat="46.30753507633968" lon="12.522664645150876"><ele>708.0</ele><time>2026-04-23T10:47:15.998Z</time></trkpt><trkpt lat="46.30758034857688" lon="12.522800510378918"><ele>708.0</ele><time>2026-04-23T10:47:16.998Z</time></trkpt><trkpt lat="46.30761251068055" lon="12.52292361444428"><ele>708.0</ele><time>2026-04-23T10:47:17.998Z</time></trkpt><trkpt lat="46.30763672185322" lon="12.523062850538418"><ele>711.75</ele><time>2026-04-23T10:47:18.998Z</time></trkpt><trkpt lat="46.307672711552634" lon="12.523216478131586"><ele>715.5</ele><time>2026-04-23T10:47:19.999Z</time></trkpt><trkpt lat="46.30772734877069" lon="12.523377716062766"><ele>719.25</ele><time>2026-04-23T10:47:20.999Z</time></trkpt><trkpt lat="46.307775798739215" lon="12.52353252101258"><ele>723.0</ele><time>2026-04-23T10:47:21.999Z</time></trkpt><trkpt lat="46.30780930963124" lon="12.52369627646538"><ele>724.75</ele><time>2026-04-23T10:47:22.999Z</time></trkpt><trkpt lat="46.30782964783007" lon="12.523863247182646"><ele>726.5</ele><time>2026-04-23T10:47:23.999Z</time></trkpt><trkpt lat="46.30783216909248" lon="12.52403560111382"><ele>728.25</ele><time>2026-04-23T10:47:24.999Z</time></trkpt><trkpt lat="46.30783280678058" lon="12.524210836683558"><ele>730.0</ele><time>2026-04-23T10:47:25.999Z</time></trkpt><trkpt lat="46.30786937172881" lon="12.524378232234838"><ele>730.0</ele><time>2026-04-23T10:47:26.999Z</time></trkpt><trkpt lat="46.30790577819639" lon="12.524532698213852"><ele>730.0</ele><time>2026-04-23T10:47:27.999Z</time></trkpt><trkpt lat="46.30794189258838" lon="12.524681953872651"><ele>730.0</ele><time>2026-04-23T10:47:28.999Z</time></trkpt><trkpt lat="46.30798379945433" lon="12.524817662713895"><ele>730.0</ele><time>2026-04-23T10:47:29.999Z</time></trkpt><trkpt lat="46.30802939361456" lon="12.524935872985761"><ele>730.0</ele><time>2026-04-23T10:47:30.999Z</time></trkpt><trkpt lat="46.308079781546816" lon="12.52505214623469"><ele>730.8</ele><time>2026-04-23T10:47:31.999Z</time></trkpt><trkpt lat="46.30814366276398" lon="12.525165080571707"><ele>731.6</ele><time>2026-04-23T10:47:33Z</time></trkpt><trkpt lat="46.30822492085611" lon="12.525263407996393"><ele>732.4000000000001</ele><time>2026-04-23T10:47:33.999Z</time></trkpt><trkpt lat="46.308309796324835" lon="12.525356650399624"><ele>733.2</ele><time>2026-04-23T10:47:34.999Z</time></trkpt><trkpt lat="46.308387507448714" lon="12.525450570767479"><ele>734.0</ele><time>2026-04-23T10:47:35.999Z</time></trkpt><trkpt lat="46.30846694165387" lon="12.52552293544049"><ele>734.0</ele><time>2026-04-23T10:47:36.999Z</time></trkpt><trkpt lat="46.308563740996036" lon="12.525569388220127"><ele>734.0</ele><time>2026-04-23T10:47:37.999Z</time></trkpt><trkpt lat="46.30867190883006" lon="12.525581080356215"><ele>734.0</ele><time>2026-04-23T10:47:38.999Z</time></trkpt><trkpt lat="46.308782971969286" lon="12.525604706966238"><ele>734.0</ele><time>2026-04-23T10:47:39.999Z</time></trkpt><trkpt lat="46.30889470698083" lon="12.52563934010962"><ele>734.0</ele><time>2026-04-23T10:47:40.999Z</time></trkpt><trkpt lat="46.30900881462077" lon="12.525640188752583"><ele>730.75</ele><time>2026-04-23T10:47:41.999Z</time></trkpt><trkpt lat="46.30912902756141" lon="12.525613419818722"><ele>727.5</ele><time>2026-04-23T10:47:42.999Z</time></trkpt><trkpt lat="46.30924457261223" lon="12.52561147268747"><ele>724.25</ele><time>2026-04-23T10:47:43.999Z</time></trkpt><trkpt lat="46.309355483617686" lon="12.525638494833254"><ele>721.0</ele><time>2026-04-23T10:47:44.999Z</time></trkpt><trkpt lat="46.30945164004059" lon="12.525689035403317"><ele>721.0</ele><time>2026-04-23T10:47:45.999Z</time></trkpt><trkpt lat="46.309539673865416" lon="12.525757370871965"><ele>721.0</ele><time>2026-04-23T10:47:46.999Z</time></trkpt><trkpt lat="46.309623416313414" lon="12.525852665068479"><ele>721.0</ele><time>2026-04-23T10:47:47.999Z</time></trkpt><trkpt lat="46.309686639249676" lon="12.525974168332448"><ele>721.0</ele><time>2026-04-23T10:47:48.999Z</time></trkpt><trkpt lat="46.30971743060023" lon="12.526104980476967"><ele>721.0</ele><time>2026-04-23T10:47:49.999Z</time></trkpt><trkpt lat="46.309709453765485" lon="12.526255123845736"><ele>722.25</ele><time>2026-04-23T10:47:50.999Z</time></trkpt><trkpt lat="46.309708554272504" lon="12.526427256372571"><ele>723.5</ele><time>2026-04-23T10:47:51.999Z</time></trkpt><trkpt lat="46.30973771938022" lon="12.526612697025204"><ele>724.75</ele><time>2026-04-23T10:47:52.999Z</time></trkpt><trkpt lat="46.30978745716909" lon="12.526797887656691"><ele>726.0</ele><time>2026-04-23T10:47:53.999Z</time></trkpt><trkpt lat="46.30981468909189" lon="12.526969347758026"><ele>726.8333333333334</ele><time>2026-04-23T10:47:54.999Z</time></trkpt><trkpt lat="46.30981583555935" lon="12.527122323059677"><ele>727.6666666666666</ele><time>2026-04-23T10:47:55.999Z</time></trkpt><trkpt lat="46.309813945905816" lon="12.527236865808339"><ele>728.5</ele><time>2026-04-23T10:47:56.999Z</time></trkpt><trkpt lat="46.30982916337668" lon="12.527331677817854"><ele>729.3333333333333</ele><time>2026-04-23T10:47:57.999Z</time></trkpt><trkpt lat="46.30986377610187" lon="12.527445996376791"><ele>730.1666666666666</ele><time>2026-04-23T10:47:58.999Z</time></trkpt><trkpt lat="46.30990852779056" lon="12.527566927512872"><ele>731.0</ele><time>2026-04-23T10:47:59.999Z</time></trkpt><trkpt lat="46.309949492889366" lon="12.527683090377897"><ele>731.0</ele><time>2026-04-23T10:48:00.999Z</time></trkpt><trkpt lat="46.309973091686395" lon="12.527800002300491"><ele>731.0</ele><time>2026-04-23T10:48:01.999Z</time></trkpt><trkpt lat="46.30998523631127" lon="12.527916765974151"><ele>731.0</ele><time>2026-04-23T10:48:02.999Z</time></trkpt><trkpt lat="46.31000682483908" lon="12.528028285762664"><ele>731.0</ele><time>2026-04-23T10:48:03.999Z</time></trkpt><trkpt lat="46.31004797507071" lon="12.528125584691244"><ele>731.0</ele><time>2026-04-23T10:48:04.999Z</time></trkpt><trkpt lat="46.31010712603382" lon="12.528206352507263"><ele>731.0</ele><time>2026-04-23T10:48:05.999Z</time></trkpt><trkpt lat="46.31018480815018" lon="12.528270970677532"><ele>733.3333333333333</ele><time>2026-04-23T10:48:06.999Z</time></trkpt><trkpt lat="46.31026768830673" lon="12.52832783370822"><ele>735.6666666666666</ele><time>2026-04-23T10:48:07.999Z</time></trkpt><trkpt lat="46.31034618191225" lon="12.52840428849153"><ele>738.0</ele><time>2026-04-23T10:48:08.999Z</time></trkpt><trkpt lat="46.31040992370483" lon="12.52849860587037"><ele>740.3333333333334</ele><time>2026-04-23T10:48:09.999Z</time></trkpt><trkpt lat="46.310459028007195" lon="12.528598388320697"><ele>742.6666666666667</ele><time>2026-04-23T10:48:10.999Z</time></trkpt><trkpt lat="46.310495021749894" lon="12.528684521582164"><ele>745.0</ele><time>2026-04-23T10:48:11.999Z</time></trkpt><trkpt lat="46.31054083231825" lon="12.528774527041893"><ele>744.0</ele><time>2026-04-23T10:48:12.999Z</time></trkpt><trkpt lat="46.31059714768582" lon="12.528853608704786"><ele>743.0</ele><time>2026-04-23T10:48:13.999Z</time></trkpt><trkpt lat="46.31064582082537" lon="12.528936671380706"><ele>742.0</ele><time>2026-04-23T10:48:14.999Z</time></trkpt><trkpt lat="46.31069149000582" lon="12.529023907670318"><ele>741.0</ele><time>2026-04-23T10:48:15.999Z</time></trkpt><trkpt lat="46.31070986654267" lon="12.529123149570077"><ele>740.0</ele><time>2026-04-23T10:48:16.999Z</time></trkpt><trkpt lat="46.31070051130234" lon="12.52922684598062"><ele>739.0</ele><time>2026-04-23T10:48:17.999Z</time></trkpt><trkpt lat="46.31069636864244" lon="12.529340092848168"><ele>739.0</ele><time>2026-04-23T10:48:18.999Z</time></trkpt><trkpt lat="46.31071765599501" lon="12.529441873453822"><ele>739.0</ele><time>2026-04-23T10:48:19.999Z</time></trkpt><trkpt lat="46.31076979731388" lon="12.529532424136129"><ele>739.0</ele><time>2026-04-23T10:48:20.999Z</time></trkpt><trkpt lat="46.31084149238235" lon="12.529616847188814"><ele>739.0</ele><time>2026-04-23T10:48:21.999Z</time></trkpt><trkpt lat="46.3109132339834" lon="12.529704352725727"><ele>739.0</ele><time>2026-04-23T10:48:22.999Z</time></trkpt><trkpt lat="46.3109782333456" lon="12.52979607439541"><ele>739.0</ele><time>2026-04-23T10:48:23.999Z</time></trkpt><trkpt lat="46.311032396286706" lon="12.529894365175128"><ele>741.8333333333334</ele><time>2026-04-23T10:48:24.999Z</time></trkpt><trkpt lat="46.31108247383766" lon="12.530003675074838"><ele>744.6666666666667</ele><time>2026-04-23T10:48:25.999Z</time></trkpt><trkpt lat="46.31114023304569" lon="12.53011383256418"><ele>747.5</ele><time>2026-04-23T10:48:26.999Z</time></trkpt><trkpt lat="46.311196971024856" lon="12.530211643662286"><ele>750.3333333333334</ele><time>2026-04-23T10:48:27.999Z</time></trkpt><trkpt lat="46.31125777035635" lon="12.53029926230543"><ele>753.1666666666666</ele><time>2026-04-23T10:48:28.999Z</time></trkpt><trkpt lat="46.31131835012215" lon="12.53038983416537"><ele>756.0</ele><time>2026-04-23T10:48:29.999Z</time></trkpt><trkpt lat="46.31137170157485" lon="12.530477702081491"><ele>753.8333333333334</ele><time>2026-04-23T10:48:30.999Z</time></trkpt><trkpt lat="46.3114142797216" lon="12.530580996134482"><ele>751.6666666666666</ele><time>2026-04-23T10:48:31.999Z</time></trkpt><trkpt lat="46.3114616616531" lon="12.530697517218568"><ele>749.5</ele><time>2026-04-23T10:48:32.999Z</time></trkpt><trkpt lat="46.31150731926077" lon="12.530793951394365"><ele>747.3333333333333</ele><time>2026-04-23T10:48:33.999Z</time></trkpt><trkpt lat="46.31155509992047" lon="12.530896427976012"><ele>745.1666666666666</ele><time>2026-04-23T10:48:34.999Z</time></trkpt><trkpt lat="46.31160723520143" lon="12.53098697463302"><ele>743.0</ele><time>2026-04-23T10:48:35.999Z</time></trkpt><trkpt lat="46.311670378674116" lon="12.531072890757722"><ele>743.0</ele><time>2026-04-23T10:48:36.999Z</time></trkpt><trkpt lat="46.31174039978367" lon="12.531145225290059"><ele>743.0</ele><time>2026-04-23T10:48:37.999Z</time></trkpt><trkpt lat="46.31181376904325" lon="12.5312000761848"><ele>743.0</ele><time>2026-04-23T10:48:38.999Z</time></trkpt><trkpt lat="46.311887794548895" lon="12.531254924356226"><ele>743.0</ele><time>2026-04-23T10:48:39.999Z</time></trkpt><trkpt lat="46.31196342455812" lon="12.53132277458526"><ele>743.0</ele><time>2026-04-23T10:48:40.999Z</time></trkpt><trkpt lat="46.31203587880019" lon="12.531394002377278"><ele>743.0</ele><time>2026-04-23T10:48:41.999Z</time></trkpt><trkpt lat="46.312107090240815" lon="12.531482958340318"><ele>743.3333333333333</ele><time>2026-04-23T10:48:42.999Z</time></trkpt><trkpt lat="46.3121632357523" lon="12.531604204481635"><ele>743.6666666666666</ele><time>2026-04-23T10:48:43.999Z</time></trkpt><trkpt lat="46.31221238710747" lon="12.531731218893002"><ele>744.0</ele><time>2026-04-23T10:48:44.999Z</time></trkpt><trkpt lat="46.31226308477399" lon="12.531831649188307"><ele>744.3333333333334</ele><time>2026-04-23T10:48:45.999Z</time></trkpt><trkpt lat="46.31231566755161" lon="12.531917137161471"><ele>744.6666666666667</ele><time>2026-04-23T10:48:46.999Z</time></trkpt><trkpt lat="46.31236316570651" lon="12.53200798736581"><ele>745.0</ele><time>2026-04-23T10:48:47.999Z</time></trkpt><trkpt lat="46.312399170788595" lon="12.532119127580819"><ele>746.4</ele><time>2026-04-23T10:48:48.999Z</time></trkpt><trkpt lat="46.31242698649722" lon="12.532250589018629"><ele>747.8</ele><time>2026-04-23T10:48:49.999Z</time></trkpt><trkpt lat="46.31244416044298" lon="12.532391416704058"><ele>749.2</ele><time>2026-04-23T10:48:50.999Z</time></trkpt><trkpt lat="46.312455355769906" lon="12.532534126842465"><ele>750.6</ele><time>2026-04-23T10:48:51.999Z</time></trkpt><trkpt lat="46.31245652021409" lon="12.532674359770596"><ele>752.0</ele><time>2026-04-23T10:48:52.999Z</time></trkpt><trkpt lat="46.31245410710042" lon="12.53280775074298"><ele>752.3333333333333</ele><time>2026-04-23T10:48:53.999Z</time></trkpt><trkpt lat="46.31245043329585" lon="12.532932110053267"><ele>752.6666666666666</ele><time>2026-04-23T10:48:54.999Z</time></trkpt><trkpt lat="46.31246338429716" lon="12.533053697632088"><ele>753.0</ele><time>2026-04-23T10:48:55.999Z</time></trkpt><trkpt lat="46.312499460703854" lon="12.533158365699572"><ele>753.3333333333334</ele><time>2026-04-23T10:48:56.999Z</time></trkpt><trkpt lat="46.312552333275185" lon="12.533263476197165"><ele>753.6666666666667</ele><time>2026-04-23T10:48:57.999Z</time></trkpt><trkpt lat="46.312608365147355" lon="12.53337261362707"><ele>754.0</ele><time>2026-04-23T10:48:58.999Z</time></trkpt><trkpt lat="46.31265717080299" lon="12.533479112026097"><ele>754.0</ele><time>2026-04-23T10:48:59.999Z</time></trkpt><trkpt lat="46.31269491889703" lon="12.533592760159182"><ele>754.0</ele><time>2026-04-23T10:49:00.999Z</time></trkpt><trkpt lat="46.31273168540589" lon="12.533700119574943"><ele>754.0</ele><time>2026-04-23T10:49:01.999Z</time></trkpt><trkpt lat="46.312768014018985" lon="12.533794616239518"><ele>754.0</ele><time>2026-04-23T10:49:02.999Z</time></trkpt><trkpt lat="46.31280526194838" lon="12.533902153077305"><ele>754.0</ele><time>2026-04-23T10:49:03.999Z</time></trkpt><trkpt lat="46.31283869472101" lon="12.534023360049256"><ele>754.0</ele><time>2026-04-23T10:49:04.999Z</time></trkpt><trkpt lat="46.312865051369286" lon="12.534161951091"><ele>754.6</ele><time>2026-04-23T10:49:05.999Z</time></trkpt><trkpt lat="46.31289336685319" lon="12.534302814658485"><ele>755.2</ele><time>2026-04-23T10:49:06.999Z</time></trkpt><trkpt lat="46.31291940060718" lon="12.534435301031442"><ele>755.8000000000001</ele><time>2026-04-23T10:49:07.999Z</time></trkpt><trkpt lat="46.31294535352366" lon="12.534552848888243"><ele>756.4000000000001</ele><time>2026-04-23T10:49:08.999Z</time></trkpt><trkpt lat="46.31298465257009" lon="12.534663322532944"><ele>757.0</ele><time>2026-04-23T10:49:09.999Z</time></trkpt><trkpt lat="46.313027925131635" lon="12.534768571349652"><ele>759.3333333333334</ele><time>2026-04-23T10:49:10.999Z</time></trkpt><trkpt lat="46.31308063999901" lon="12.534868841498389"><ele>761.6666666666667</ele><time>2026-04-23T10:49:11.998Z</time></trkpt><trkpt lat="46.31313275310875" lon="12.5349545605649"><ele>764.0</ele><time>2026-04-23T10:49:12.998Z</time></trkpt><trkpt lat="46.3131837916983" lon="12.535037585518772"><ele>766.3333333333334</ele><time>2026-04-23T10:49:13.998Z</time></trkpt><trkpt lat="46.31324455728127" lon="12.535133692368468"><ele>768.6666666666666</ele><time>2026-04-23T10:49:14.998Z</time></trkpt><trkpt lat="46.31330522585684" lon="12.53522768117278"><ele>771.0</ele><time>2026-04-23T10:49:15.998Z</time></trkpt><trkpt lat="46.3133621051402" lon="12.535304234270498"><ele>769.5999999999999</ele><time>2026-04-23T10:49:16.998Z</time></trkpt><trkpt lat="46.313430433516174" lon="12.535392424293665"><ele>768.2</ele><time>2026-04-23T10:49:17.998Z</time></trkpt><trkpt lat="46.31350692158898" lon="12.53549194593946"><ele>766.8</ele><time>2026-04-23T10:49:18.998Z</time></trkpt><trkpt lat="46.313591212604145" lon="12.535598072218733"><ele>765.4000000000001</ele><time>2026-04-23T10:49:19.998Z</time></trkpt><trkpt lat="46.31367654306738" lon="12.535703672726148"><ele>764.0</ele><time>2026-04-23T10:49:20.998Z</time></trkpt><trkpt lat="46.31375984190516" lon="12.5358067440615"><ele>764.0</ele><time>2026-04-23T10:49:21.998Z</time></trkpt><trkpt lat="46.31382973022062" lon="12.535895868771094"><ele>764.0</ele><time>2026-04-23T10:49:22.998Z</time></trkpt><trkpt lat="46.31389646371332" lon="12.535989460744743"><ele>764.0</ele><time>2026-04-23T10:49:23.998Z</time></trkpt><trkpt lat="46.31397222766339" lon="12.536079231165177"><ele>764.0</ele><time>2026-04-23T10:49:24.998Z</time></trkpt><trkpt lat="46.314051449910494" lon="12.536168095342916"><ele>764.0</ele><time>2026-04-23T10:49:26Z</time></trkpt><trkpt lat="46.314126071089476" lon="12.536253505805158"><ele>765.2</ele><time>2026-04-23T10:49:27Z</time></trkpt><trkpt lat="46.31419596658339" lon="12.536341755821319"><ele>766.4000000000001</ele><time>2026-04-23T10:49:28Z</time></trkpt><trkpt lat="46.31426795661125" lon="12.53643349966121"><ele>767.6</ele><time>2026-04-23T10:49:29Z</time></trkpt><trkpt lat="46.314336171773604" lon="12.536533607740905"><ele>768.8</ele><time>2026-04-23T10:49:30Z</time></trkpt><trkpt lat="46.31440076798436" lon="12.536635759313564"><ele>770.0</ele><time>2026-04-23T10:49:31Z</time></trkpt><trkpt lat="46.31447074958087" lon="12.53672968553915"><ele>770.0000000000001</ele><time>2026-04-23T10:49:32Z</time></trkpt><trkpt lat="46.3145433587138" lon="12.536813992891169"><ele>770.0</ele><time>2026-04-23T10:49:33Z</time></trkpt><trkpt lat="46.31461623817697" lon="12.536890030447205"><ele>770.0</ele><time>2026-04-23T10:49:34Z</time></trkpt><trkpt lat="46.31467960133936" lon="12.536975060136035"><ele>770.0</ele><time>2026-04-23T10:49:35Z</time></trkpt><trkpt lat="46.314731529949576" lon="12.537070243786559"><ele>770.0000000000001</ele><time>2026-04-23T10:49:36Z</time></trkpt><trkpt lat="46.31478405835875" lon="12.537174944327784"><ele>770.0</ele><time>2026-04-23T10:49:37Z</time></trkpt><trkpt lat="46.31482907434416" lon="12.537283512362025"><ele>773.8</ele><time>2026-04-23T10:49:38Z</time></trkpt><trkpt lat="46.31486371732448" lon="12.53740297223405"><ele>777.6</ele><time>2026-04-23T10:49:39Z</time></trkpt><trkpt lat="46.314884614373916" lon="12.537533253691796"><ele>781.4000000000001</ele><time>2026-04-23T10:49:39.999Z</time></trkpt><trkpt lat="46.31489863008939" lon="12.537670239947003"><ele>785.2</ele><time>2026-04-23T10:49:40.999Z</time></trkpt><trkpt lat="46.31492622106913" lon="12.537802600601587"><ele>789.0</ele><time>2026-04-23T10:49:41.999Z</time></trkpt><trkpt lat="46.31495041365144" lon="12.53793234936765"><ele>789.0</ele><time>2026-04-23T10:49:42.999Z</time></trkpt><trkpt lat="46.314976199967404" lon="12.538066939595772"><ele>789.0</ele><time>2026-04-23T10:49:44Z</time></trkpt><trkpt lat="46.315006894867835" lon="12.538183967122514"><ele>789.0</ele><time>2026-04-23T10:49:45Z</time></trkpt><trkpt lat="46.31503775346848" lon="12.538304897087743"><ele>789.0</ele><time>2026-04-23T10:49:46Z</time></trkpt><trkpt lat="46.3150742008838" lon="12.538425573551823"><ele>789.0</ele><time>2026-04-23T10:49:47Z</time></trkpt><trkpt lat="46.31510077999853" lon="12.538544718168401"><ele>789.0</ele><time>2026-04-23T10:49:48Z</time></trkpt><trkpt lat="46.315133052895" lon="12.538656816631512"><ele>789.3333333333334</ele><time>2026-04-23T10:49:48.999Z</time></trkpt><trkpt lat="46.31517482584617" lon="12.53875029742839"><ele>789.6666666666667</ele><time>2026-04-23T10:49:49.999Z</time></trkpt><trkpt lat="46.315225913510204" lon="12.53883350695189"><ele>790.0</ele><time>2026-04-23T10:49:50.999Z</time></trkpt><trkpt lat="46.315270087350534" lon="12.538930956432512"><ele>790.3333333333334</ele><time>2026-04-23T10:49:51.999Z</time></trkpt><trkpt lat="46.31532465425787" lon="12.539021077393663"><ele>790.6666666666667</ele><time>2026-04-23T10:49:52.999Z</time></trkpt><trkpt lat="46.31537760476381" lon="12.539127844563613"><ele>791.0</ele><time>2026-04-23T10:49:53.999Z</time></trkpt><trkpt lat="46.31541467016836" lon="12.539255950655283"><ele>791.0</ele><time>2026-04-23T10:49:54.999Z</time></trkpt><trkpt lat="46.315456310163384" lon="12.539380652631149"><ele>791.0</ele><time>2026-04-23T10:49:55.999Z</time></trkpt><trkpt lat="46.31549937339227" lon="12.539497373179662"><ele>791.0</ele><time>2026-04-23T10:49:56.999Z</time></trkpt><trkpt lat="46.31553865087005" lon="12.539627059412517"><ele>791.0</ele><time>2026-04-23T10:49:57.999Z</time></trkpt><trkpt lat="46.315582658530495" lon="12.539744066582823"><ele>791.0</ele><time>2026-04-23T10:49:58.999Z</time></trkpt><trkpt lat="46.3156346250846" lon="12.539856710626069"><ele>793.4</ele><time>2026-04-23T10:49:59.999Z</time></trkpt><trkpt lat="46.3156784640062" lon="12.53996640981138"><ele>795.8</ele><time>2026-04-23T10:50:00.999Z</time></trkpt><trkpt lat="46.31573493732338" lon="12.540055040378832"><ele>798.1999999999999</ele><time>2026-04-23T10:50:01.999Z</time></trkpt><trkpt lat="46.315815106905816" lon="12.540136126738807"><ele>800.5999999999999</ele><time>2026-04-23T10:50:02.999Z</time></trkpt><trkpt lat="46.31589428823569" lon="12.540215449546654"><ele>803.0</ele><time>2026-04-23T10:50:03.999Z</time></trkpt><trkpt lat="46.315986974752185" lon="12.54027419238946"><ele>803.0</ele><time>2026-04-23T10:50:04.999Z</time></trkpt><trkpt lat="46.316091083455944" lon="12.540301910491188"><ele>803.0</ele><time>2026-04-23T10:50:05.999Z</time></trkpt><trkpt lat="46.3162044057326" lon="12.540323770825893"><ele>803.0</ele><time>2026-04-23T10:50:06.999Z</time></trkpt><trkpt lat="46.31631569001192" lon="12.540377150572956"><ele>803.0</ele><time>2026-04-23T10:50:07.999Z</time></trkpt><trkpt lat="46.316421635977534" lon="12.540458640403326"><ele>804.0</ele><time>2026-04-23T10:50:08.999Z</time></trkpt><trkpt lat="46.3165334745099" lon="12.540545758167687"><ele>805.0</ele><time>2026-04-23T10:50:09.999Z</time></trkpt><trkpt lat="46.31663951394381" lon="12.540619092784716"><ele>806.0</ele><time>2026-04-23T10:50:10.999Z</time></trkpt><trkpt lat="46.31673596895634" lon="12.540706884977968"><ele>807.0</ele><time>2026-04-23T10:50:11.999Z</time></trkpt><trkpt lat="46.31683083531006" lon="12.540801670314213"><ele>807.0</ele><time>2026-04-23T10:50:12.999Z</time></trkpt><trkpt lat="46.31692430069039" lon="12.540904744118139"><ele>807.0</ele><time>2026-04-23T10:50:13.999Z</time></trkpt><trkpt lat="46.31701117268784" lon="12.541015748478198"><ele>807.0</ele><time>2026-04-23T10:50:14.999Z</time></trkpt><trkpt lat="46.317091407505195" lon="12.541141598102575"><ele>807.0</ele><time>2026-04-23T10:50:15.999Z</time></trkpt><trkpt lat="46.31716571662148" lon="12.54127001265319"><ele>808.2</ele><time>2026-04-23T10:50:16.999Z</time></trkpt><trkpt lat="46.317248360050726" lon="12.541393436590884"><ele>809.4000000000001</ele><time>2026-04-23T10:50:17.999Z</time></trkpt><trkpt lat="46.31733653982777" lon="12.541502811219566"><ele>810.5999999999999</ele><time>2026-04-23T10:50:18.999Z</time></trkpt><trkpt lat="46.317419385507414" lon="12.541606132163515"><ele>811.8</ele><time>2026-04-23T10:50:19.999Z</time></trkpt><trkpt lat="46.317496593438136" lon="12.541693562513"><ele>813.0</ele><time>2026-04-23T10:50:20.999Z</time></trkpt><trkpt lat="46.317564627687695" lon="12.541789097269614"><ele>813.0</ele><time>2026-04-23T10:50:21.999Z</time></trkpt><trkpt lat="46.31762909611527" lon="12.541890444930013"><ele>813.0</ele><time>2026-04-23T10:50:22.999Z</time></trkpt><trkpt lat="46.31768609545615" lon="12.54200315883205"><ele>813.0</ele><time>2026-04-23T10:50:23.999Z</time></trkpt><trkpt lat="46.31772869416777" lon="12.542111766160442"><ele>813.0</ele><time>2026-04-23T10:50:24.999Z</time></trkpt><trkpt lat="46.31775534217884" lon="12.542223133684809"><ele>813.0</ele><time>2026-04-23T10:50:25.999Z</time></trkpt><trkpt lat="46.31776909600223" lon="12.542343576673987"><ele>813.0</ele><time>2026-04-23T10:50:26.999Z</time></trkpt><trkpt lat="46.31777715011358" lon="12.542470239811745"><ele>811.5999999999999</ele><time>2026-04-23T10:50:27.999Z</time></trkpt><trkpt lat="46.317773829708585" lon="12.542593956600074"><ele>810.1999999999999</ele><time>2026-04-23T10:50:28.999Z</time></trkpt><trkpt lat="46.31777281009992" lon="12.542725023239033"><ele>808.8</ele><time>2026-04-23T10:50:29.999Z</time></trkpt><trkpt lat="46.317778281111295" lon="12.542859185313679"><ele>807.4</ele><time>2026-04-23T10:50:30.999Z</time></trkpt><trkpt lat="46.31778751173014" lon="12.542995760563805"><ele>806.0</ele><time>2026-04-23T10:50:31.999Z</time></trkpt><trkpt lat="46.31779679545387" lon="12.543143201337159"><ele>806.0</ele><time>2026-04-23T10:50:32.999Z</time></trkpt><trkpt lat="46.317815050736534" lon="12.54329835293458"><ele>806.0</ele><time>2026-04-23T10:50:33.999Z</time></trkpt><trkpt lat="46.31783756274483" lon="12.543454609560266"><ele>806.0</ele><time>2026-04-23T10:50:34.999Z</time></trkpt><trkpt lat="46.31786842719307" lon="12.543604115821918"><ele>806.0</ele><time>2026-04-23T10:50:35.999Z</time></trkpt><trkpt lat="46.317902244452505" lon="12.543744405854733"><ele>806.0</ele><time>2026-04-23T10:50:36.999Z</time></trkpt><trkpt lat="46.317930433790885" lon="12.543871380796999"><ele>806.3333333333334</ele><time>2026-04-23T10:50:37.999Z</time></trkpt><trkpt lat="46.317954991144624" lon="12.543992996916073"><ele>806.6666666666667</ele><time>2026-04-23T10:50:38.999Z</time></trkpt><trkpt lat="46.31798714712657" lon="12.544115400366172"><ele>807.0</ele><time>2026-04-23T10:50:39.999Z</time></trkpt><trkpt lat="46.318021173059" lon="12.544220656865647"><ele>807.3333333333333</ele><time>2026-04-23T10:50:40.999Z</time></trkpt><trkpt lat="46.31805768816046" lon="12.544325684834467"><ele>807.6666666666666</ele><time>2026-04-23T10:50:41.999Z</time></trkpt><trkpt lat="46.318090477485605" lon="12.544421436224477"><ele>808.0</ele><time>2026-04-23T10:50:42.999Z</time></trkpt><trkpt lat="46.31811926705523" lon="12.544528608493506"><ele>810.4999999999999</ele><time>2026-04-23T10:50:43.999Z</time></trkpt><trkpt lat="46.31815181343166" lon="12.54464965670843"><ele>813.0</ele><time>2026-04-23T10:50:44.999Z</time></trkpt><trkpt lat="46.318175439764985" lon="12.544759128942841"><ele>815.5</ele><time>2026-04-23T10:50:45.999Z</time></trkpt><trkpt lat="46.31819318119125" lon="12.544849951909159"><ele>818.0</ele><time>2026-04-23T10:50:46.999Z</time></trkpt><trkpt lat="46.31821719788298" lon="12.544938578184885"><ele>820.4999999999999</ele><time>2026-04-23T10:50:47.999Z</time></trkpt><trkpt lat="46.31825401150535" lon="12.545037618004862"><ele>823.0</ele><time>2026-04-23T10:50:48.999Z</time></trkpt><trkpt lat="46.3182900413699" lon="12.545146492090407"><ele>822.9999999999999</ele><time>2026-04-23T10:50:49.999Z</time></trkpt><trkpt lat="46.31832499942626" lon="12.545271824718391"><ele>823.0</ele><time>2026-04-23T10:50:50.999Z</time></trkpt><trkpt lat="46.318366320844326" lon="12.545387333614652"><ele>823.0</ele><time>2026-04-23T10:50:51.999Z</time></trkpt><trkpt lat="46.31841089509453" lon="12.545495037672437"><ele>823.0</ele><time>2026-04-23T10:50:52.999Z</time></trkpt><trkpt lat="46.318454254331996" lon="12.545584272343675"><ele>822.9999999999999</ele><time>2026-04-23T10:50:53.999Z</time></trkpt><trkpt lat="46.31850354863156" lon="12.545707598003323"><ele>823.0</ele><time>2026-04-23T10:50:54.999Z</time></trkpt><trkpt lat="46.318545181610375" lon="12.545865542656177"><ele>821.8</ele><time>2026-04-23T10:50:55.999Z</time></trkpt><trkpt lat="46.31858628399456" lon="12.546025551360119"><ele>820.5999999999999</ele><time>2026-04-23T10:50:56.999Z</time></trkpt><trkpt lat="46.31860999806183" lon="12.54614380211502"><ele>819.4000000000001</ele><time>2026-04-23T10:50:57.999Z</time></trkpt><trkpt lat="46.318627520843044" lon="12.546283550781931"><ele>818.2</ele><time>2026-04-23T10:50:59.999Z</time></trkpt><trkpt lat="46.31859839396592" lon="12.546412285278466"><ele>817.0</ele><time>2026-04-23T10:51:01.999Z</time></trkpt><trkpt lat="46.318521140358136" lon="12.546529150519644"><ele>817.0</ele><time>2026-04-23T10:51:03.999Z</time></trkpt><trkpt lat="46.3184273616945" lon="12.546622227336004"><ele>817.0</ele><time>2026-04-23T10:51:05.999Z</time></trkpt><trkpt lat="46.3183260057712" lon="12.54672596375391"><ele>817.0</ele><time>2026-04-23T10:51:07.999Z</time></trkpt><trkpt lat="46.318235418612744" lon="12.546818825686428"><ele>817.0</ele><time>2026-04-23T10:51:09.999Z</time></trkpt><trkpt lat="46.31816071101135" lon="12.546921462521812"><ele>818.3333333333333</ele><time>2026-04-23T10:51:11.999Z</time></trkpt><trkpt lat="46.318156213326795" lon="12.547075112487443"><ele>819.6666666666666</ele><time>2026-04-23T10:51:13.999Z</time></trkpt><trkpt lat="46.318194058053436" lon="12.547162810387473"><ele>821.0</ele><time>2026-04-23T10:51:14.999Z</time></trkpt><trkpt lat="46.31823967970273" lon="12.547250559715227"><ele>822.3333333333333</ele><time>2026-04-23T10:51:15.999Z</time></trkpt><trkpt lat="46.31828113116543" lon="12.54734624930112"><ele>823.6666666666666</ele><time>2026-04-23T10:51:16.999Z</time></trkpt><trkpt lat="46.3183209391807" lon="12.547455683572332"><ele>825.0</ele><time>2026-04-23T10:51:17.999Z</time></trkpt><trkpt lat="46.318350987387454" lon="12.5475755903148"><ele>825.0</ele><time>2026-04-23T10:51:18.999Z</time></trkpt><trkpt lat="46.31836267932788" lon="12.547700728596164"><ele>825.0</ele><time>2026-04-23T10:51:19.999Z</time></trkpt><trkpt lat="46.318364619770286" lon="12.54781699996526"><ele>825.0</ele><time>2026-04-23T10:51:20.999Z</time></trkpt><trkpt lat="46.31835789378025" lon="12.547951155259094"><ele>825.0</ele><time>2026-04-23T10:51:21.999Z</time></trkpt><trkpt lat="46.31834677666799" lon="12.548087541411562"><ele>825.0</ele><time>2026-04-23T10:51:22.999Z</time></trkpt><trkpt lat="46.31833638849214" lon="12.5482044197159"><ele>825.0</ele><time>2026-04-23T10:51:23.999Z</time></trkpt><trkpt lat="46.318316742932055" lon="12.54832485137171"><ele>826.6</ele><time>2026-04-23T10:51:24.999Z</time></trkpt><trkpt lat="46.31829645110119" lon="12.548445515939614"><ele>828.2</ele><time>2026-04-23T10:51:25.999Z</time></trkpt><trkpt lat="46.31828296514453" lon="12.548546942075514"><ele>829.8</ele><time>2026-04-23T10:51:26.999Z</time></trkpt><trkpt lat="46.31829272638621" lon="12.54868694218019"><ele>831.4</ele><time>2026-04-23T10:51:28.999Z</time></trkpt><trkpt lat="46.31839141519411" lon="12.54879610000404"><ele>833.0</ele><time>2026-04-23T10:51:31Z</time></trkpt><trkpt lat="46.318458354077855" lon="12.54885261554332"><ele>833.8333333333334</ele><time>2026-04-23T10:51:32Z</time></trkpt><trkpt lat="46.318530587543314" lon="12.548906892064917"><ele>834.6666666666667</ele><time>2026-04-23T10:51:33Z</time></trkpt><trkpt lat="46.31861073346825" lon="12.548927534699617"><ele>835.5</ele><time>2026-04-23T10:51:34Z</time></trkpt><trkpt lat="46.31869312571993" lon="12.54895274531973"><ele>836.3333333333333</ele><time>2026-04-23T10:51:35Z</time></trkpt><trkpt lat="46.31875637062519" lon="12.54898112305458"><ele>837.1666666666666</ele><time>2026-04-23T10:51:36Z</time></trkpt><trkpt lat="46.31882003203211" lon="12.549023285547465"><ele>838.0</ele><time>2026-04-23T10:51:37Z</time></trkpt><trkpt lat="46.31887947229745" lon="12.54908445401605"><ele>836.6666666666666</ele><time>2026-04-23T10:51:38Z</time></trkpt><trkpt lat="46.31893922582256" lon="12.549168415463113"><ele>835.3333333333333</ele><time>2026-04-23T10:51:39Z</time></trkpt><trkpt lat="46.31899142218375" lon="12.549267983145661"><ele>834.0</ele><time>2026-04-23T10:51:40Z</time></trkpt><trkpt lat="46.31903128638762" lon="12.54936931260816"><ele>832.6666666666667</ele><time>2026-04-23T10:51:41Z</time></trkpt><trkpt lat="46.319065450143924" lon="12.549468047668578"><ele>831.3333333333334</ele><time>2026-04-23T10:51:42Z</time></trkpt><trkpt lat="46.319095282522795" lon="12.549566822973892"><ele>830.0</ele><time>2026-04-23T10:51:43Z</time></trkpt><trkpt lat="46.319117797532826" lon="12.549666012853821"><ele>830.0000000000001</ele><time>2026-04-23T10:51:44Z</time></trkpt><trkpt lat="46.319121462926624" lon="12.5497695526851"><ele>830.0</ele><time>2026-04-23T10:51:45Z</time></trkpt><trkpt lat="46.31912060290819" lon="12.549877429258842"><ele>830.0</ele><time>2026-04-23T10:51:46Z</time></trkpt><trkpt lat="46.319144441501486" lon="12.549993926416551"><ele>830.0</ele><time>2026-04-23T10:51:47Z</time></trkpt><trkpt lat="46.31918604181262" lon="12.550115114549778"><ele>830.0000000000001</ele><time>2026-04-23T10:51:47.999Z</time></trkpt><trkpt lat="46.31922618792123" lon="12.55023860864273"><ele>830.0</ele><time>2026-04-23T10:51:48.999Z</time></trkpt><trkpt lat="46.31926486787337" lon="12.550358820686151"><ele>832.8</ele><time>2026-04-23T10:51:49.999Z</time></trkpt><trkpt lat="46.319306904162424" lon="12.550478975019304"><ele>835.6</ele><time>2026-04-23T10:51:50.999Z</time></trkpt><trkpt lat="46.31934202866414" lon="12.550600395202148"><ele>838.4000000000001</ele><time>2026-04-23T10:51:51.999Z</time></trkpt><trkpt lat="46.319376792833054" lon="12.550726655971154"><ele>841.2</ele><time>2026-04-23T10:51:52.999Z</time></trkpt><trkpt lat="46.319409200389316" lon="12.550860119364895"><ele>844.0</ele><time>2026-04-23T10:51:53.999Z</time></trkpt><trkpt lat="46.319440812754856" lon="12.550987415371813"><ele>844.0</ele><time>2026-04-23T10:51:54.999Z</time></trkpt><trkpt lat="46.31946742072148" lon="12.551116299143043"><ele>844.0</ele><time>2026-04-23T10:51:55.999Z</time></trkpt><trkpt lat="46.319493520855104" lon="12.551244983250873"><ele>844.0</ele><time>2026-04-23T10:51:56.999Z</time></trkpt><trkpt lat="46.31952033890825" lon="12.551380752585446"><ele>844.0</ele><time>2026-04-23T10:51:57.999Z</time></trkpt><trkpt lat="46.31954525922761" lon="12.551513968248482"><ele>844.0</ele><time>2026-04-23T10:51:58.998Z</time></trkpt><trkpt lat="46.319568837702505" lon="12.551654063407598"><ele>845.8000000000001</ele><time>2026-04-23T10:51:59.998Z</time></trkpt><trkpt lat="46.31959512901808" lon="12.551798582419725"><ele>847.6</ele><time>2026-04-23T10:52:00.998Z</time></trkpt><trkpt lat="46.319624454140715" lon="12.551934977438142"><ele>849.4</ele><time>2026-04-23T10:52:01.998Z</time></trkpt><trkpt lat="46.319649616053425" lon="12.552067591196495"><ele>851.2</ele><time>2026-04-23T10:52:02.998Z</time></trkpt><trkpt lat="46.31968165093793" lon="12.552203680526231"><ele>853.0</ele><time>2026-04-23T10:52:03.998Z</time></trkpt><trkpt lat="46.319723419745785" lon="12.552338514344681"><ele>850.5999999999999</ele><time>2026-04-23T10:52:04.998Z</time></trkpt><trkpt lat="46.31978057023351" lon="12.552475588007516"><ele>848.1999999999999</ele><time>2026-04-23T10:52:05.998Z</time></trkpt><trkpt lat="46.31985915572515" lon="12.552596390355395"><ele>845.8</ele><time>2026-04-23T10:52:06.998Z</time></trkpt><trkpt lat="46.31994389601526" lon="12.552698246604688"><ele>843.4</ele><time>2026-04-23T10:52:07.998Z</time></trkpt><trkpt lat="46.32002768772751" lon="12.552782735213386"><ele>841.0</ele><time>2026-04-23T10:52:08.998Z</time></trkpt><trkpt lat="46.3200957328729" lon="12.552865681147754"><ele>844.5999999999999</ele><time>2026-04-23T10:52:09.998Z</time></trkpt><trkpt lat="46.32015455406372" lon="12.552946569155575"><ele>848.2</ele><time>2026-04-23T10:52:10.998Z</time></trkpt><trkpt lat="46.32022246866024" lon="12.553035978640944"><ele>851.8000000000001</ele><time>2026-04-23T10:52:11.998Z</time></trkpt><trkpt lat="46.32030345641686" lon="12.553144543277726"><ele>855.4000000000001</ele><time>2026-04-23T10:52:12.998Z</time></trkpt><trkpt lat="46.32039790571504" lon="12.553254113985943"><ele>859.0</ele><time>2026-04-23T10:52:13.998Z</time></trkpt><trkpt lat="46.3204944100563" lon="12.55335628615283"><ele>859.25</ele><time>2026-04-23T10:52:14.998Z</time></trkpt><trkpt lat="46.3205840547926" lon="12.553466187578458"><ele>859.5</ele><time>2026-04-23T10:52:15.998Z</time></trkpt><trkpt lat="46.32065948590325" lon="12.553576908290474"><ele>859.75</ele><time>2026-04-23T10:52:16.998Z</time></trkpt><trkpt lat="46.32073124360459" lon="12.553697842041778"><ele>860.0</ele><time>2026-04-23T10:52:17.998Z</time></trkpt><trkpt lat="46.32080770509122" lon="12.55382132960964"><ele>860.0</ele><time>2026-04-23T10:52:18.998Z</time></trkpt><trkpt lat="46.320902184966926" lon="12.5539299969616"><ele>860.0</ele><time>2026-04-23T10:52:19.998Z</time></trkpt><trkpt lat="46.32099907314136" lon="12.554034522795599"><ele>860.0</ele><time>2026-04-23T10:52:20.998Z</time></trkpt><trkpt lat="46.32109783918908" lon="12.554142834454652"><ele>860.0</ele><time>2026-04-23T10:52:21.998Z</time></trkpt><trkpt lat="46.32119123648742" lon="12.55426351452619"><ele>860.0000000000001</ele><time>2026-04-23T10:52:22.998Z</time></trkpt><trkpt lat="46.32127403921711" lon="12.554374383722266"><ele>860.0</ele><time>2026-04-23T10:52:23.998Z</time></trkpt><trkpt lat="46.32133653945154" lon="12.55446968930222"><ele>860.0</ele><time>2026-04-23T10:52:24.997Z</time></trkpt><trkpt lat="46.321383635940705" lon="12.554556765895272"><ele>860.0</ele><time>2026-04-23T10:52:25.997Z</time></trkpt><trkpt lat="46.32141142111087" lon="12.554657540216065"><ele>860.0000000000001</ele><time>2026-04-23T10:52:26.997Z</time></trkpt><trkpt lat="46.32141125130673" lon="12.554780331820744"><ele>860.0</ele><time>2026-04-23T10:52:27.997Z</time></trkpt><trkpt lat="46.32138725627915" lon="12.55491081689672"><ele>862.2</ele><time>2026-04-23T10:52:28.997Z</time></trkpt><trkpt lat="46.321366551630334" lon="12.555049660805293"><ele>864.4</ele><time>2026-04-23T10:52:29.997Z</time></trkpt><trkpt lat="46.32134474021814" lon="12.555191355697898"><ele>866.5999999999999</ele><time>2026-04-23T10:52:30.997Z</time></trkpt><trkpt lat="46.32133018843314" lon="12.555342898311197"><ele>868.8</ele><time>2026-04-23T10:52:31.997Z</time></trkpt><trkpt lat="46.321304536790834" lon="12.555496375621823"><ele>871.0</ele><time>2026-04-23T10:52:32.997Z</time></trkpt><trkpt lat="46.321268515191825" lon="12.555644409019317"><ele>872.4</ele><time>2026-04-23T10:52:33.997Z</time></trkpt><trkpt lat="46.321225156911176" lon="12.555786140203248"><ele>873.8</ele><time>2026-04-23T10:52:34.997Z</time></trkpt><trkpt lat="46.32117497878623" lon="12.555922640924857"><ele>875.1999999999999</ele><time>2026-04-23T10:52:35.997Z</time></trkpt><trkpt lat="46.32111910375633" lon="12.556049718036693"><ele>876.5999999999999</ele><time>2026-04-23T10:52:36.997Z</time></trkpt><trkpt lat="46.321063805446215" lon="12.556180889248562"><ele>878.0</ele><time>2026-04-23T10:52:37.997Z</time></trkpt><trkpt lat="46.32101257414488" lon="12.556312275217712"><ele>879.5999999999999</ele><time>2026-04-23T10:52:38.997Z</time></trkpt><trkpt lat="46.32097339978267" lon="12.556441175058008"><ele>881.1999999999999</ele><time>2026-04-23T10:52:39.997Z</time></trkpt><trkpt lat="46.3209516888698" lon="12.556572220419124"><ele>882.8</ele><time>2026-04-23T10:52:40.997Z</time></trkpt><trkpt lat="46.32094993841927" lon="12.556718516217083"><ele>884.4</ele><time>2026-04-23T10:52:41.997Z</time></trkpt><trkpt lat="46.32096909208921" lon="12.556860197328813"><ele>886.0</ele><time>2026-04-23T10:52:42.997Z</time></trkpt><trkpt lat="46.320992765166366" lon="12.556993545744616"><ele>887.4999999999999</ele><time>2026-04-23T10:52:43.997Z</time></trkpt><trkpt lat="46.321022564449905" lon="12.55711593573268"><ele>889.0</ele><time>2026-04-23T10:52:44.997Z</time></trkpt><trkpt lat="46.32106633993908" lon="12.55721493084446"><ele>890.5</ele><time>2026-04-23T10:52:45.997Z</time></trkpt><trkpt lat="46.32112702762772" lon="12.557295451271436"><ele>892.0</ele><time>2026-04-23T10:52:46.997Z</time></trkpt><trkpt lat="46.32120993188376" lon="12.557338945171892"><ele>893.4999999999999</ele><time>2026-04-23T10:52:47.997Z</time></trkpt><trkpt lat="46.32130706954925" lon="12.557358330280765"><ele>895.0</ele><time>2026-04-23T10:52:48.997Z</time></trkpt><trkpt lat="46.32139552173163" lon="12.55740789095463"><ele>891.4</ele><time>2026-04-23T10:52:49.997Z</time></trkpt><trkpt lat="46.32146506735883" lon="12.557488711115434"><ele>887.8</ele><time>2026-04-23T10:52:50.997Z</time></trkpt><trkpt lat="46.32151200601708" lon="12.557582440048161"><ele>884.2</ele><time>2026-04-23T10:52:51.997Z</time></trkpt><trkpt lat="46.32157868602464" lon="12.557674334510777"><ele>880.6</ele><time>2026-04-23T10:52:53.997Z</time></trkpt><trkpt lat="46.321677269599014" lon="12.55764688428678"><ele>877.0</ele><time>2026-04-23T10:52:55.997Z</time></trkpt><trkpt lat="46.32173801406746" lon="12.557466503439846"><ele>876.9999999999999</ele><time>2026-04-23T10:52:57.997Z</time></trkpt><trkpt lat="46.321788460732584" lon="12.557356285995576"><ele>877.0</ele><time>2026-04-23T10:52:58.997Z</time></trkpt><trkpt lat="46.32183799315245" lon="12.557260431978278"><ele>877.0</ele><time>2026-04-23T10:52:59.997Z</time></trkpt><trkpt lat="46.32191146146737" lon="12.557236463990636"><ele>877.0</ele><time>2026-04-23T10:53:00.997Z</time></trkpt><trkpt lat="46.32200287202136" lon="12.557258521965746"><ele>876.9999999999999</ele><time>2026-04-23T10:53:01.997Z</time></trkpt><trkpt lat="46.32209625554653" lon="12.557317752758014"><ele>877.0</ele><time>2026-04-23T10:53:02.997Z</time></trkpt><trkpt lat="46.32219094765176" lon="12.557389714778212"><ele>878.6</ele><time>2026-04-23T10:53:03.997Z</time></trkpt><trkpt lat="46.32228298671666" lon="12.557452875235652"><ele>880.2</ele><time>2026-04-23T10:53:04.997Z</time></trkpt><trkpt lat="46.322376461187936" lon="12.557501528395946"><ele>881.8</ele><time>2026-04-23T10:53:05.997Z</time></trkpt><trkpt lat="46.32246076510743" lon="12.557535748558815"><ele>883.4</ele><time>2026-04-23T10:53:06.997Z</time></trkpt><trkpt lat="46.322545629708635" lon="12.55759349415972"><ele>885.0</ele><time>2026-04-23T10:53:07.997Z</time></trkpt><trkpt lat="46.322624144583415" lon="12.557686256316114"><ele>885.0</ele><time>2026-04-23T10:53:08.997Z</time></trkpt><trkpt lat="46.32268981084421" lon="12.557798636656676"><ele>885.0</ele><time>2026-04-23T10:53:09.997Z</time></trkpt><trkpt lat="46.32275864114617" lon="12.557914482420582"><ele>885.0</ele><time>2026-04-23T10:53:10.997Z</time></trkpt><trkpt lat="46.322836479854644" lon="12.558005423837686"><ele>885.0</ele><time>2026-04-23T10:53:11.997Z</time></trkpt><trkpt lat="46.322909428222985" lon="12.558095139341768"><ele>885.0</ele><time>2026-04-23T10:53:12.997Z</time></trkpt><trkpt lat="46.32297500386719" lon="12.558190678838665"><ele>886.6</ele><time>2026-04-23T10:53:13.997Z</time></trkpt><trkpt lat="46.32302427494301" lon="12.558311556469267"><ele>888.2</ele><time>2026-04-23T10:53:14.997Z</time></trkpt><trkpt lat="46.32305032019075" lon="12.558450062751305"><ele>889.8</ele><time>2026-04-23T10:53:15.997Z</time></trkpt><trkpt lat="46.32305362734049" lon="12.558600244706478"><ele>891.4</ele><time>2026-04-23T10:53:16.997Z</time></trkpt><trkpt lat="46.323048128084196" lon="12.558754816295487"><ele>893.0</ele><time>2026-04-23T10:53:17.997Z</time></trkpt><trkpt lat="46.32304736527095" lon="12.55890750794833"><ele>892.0</ele><time>2026-04-23T10:53:18.997Z</time></trkpt><trkpt lat="46.32306012789056" lon="12.559055536627598"><ele>891.0</ele><time>2026-04-23T10:53:19.997Z</time></trkpt><trkpt lat="46.32309634583878" lon="12.559199355635645"><ele>890.0</ele><time>2026-04-23T10:53:20.997Z</time></trkpt><trkpt lat="46.32315099803457" lon="12.559332935548301"><ele>889.0</ele><time>2026-04-23T10:53:21.997Z</time></trkpt><trkpt lat="46.323220757148526" lon="12.559450168696571"><ele>888.0</ele><time>2026-04-23T10:53:22.997Z</time></trkpt><trkpt lat="46.32330317369418" lon="12.55955114204909"><ele>891.0</ele><time>2026-04-23T10:53:23.997Z</time></trkpt><trkpt lat="46.32339345748787" lon="12.559622226803953"><ele>894.0</ele><time>2026-04-23T10:53:24.997Z</time></trkpt><trkpt lat="46.3234932573657" lon="12.559679662864562"><ele>897.0</ele><time>2026-04-23T10:53:25.997Z</time></trkpt><trkpt lat="46.32359957757678" lon="12.55972870977174"><ele>900.0</ele><time>2026-04-23T10:53:26.997Z</time></trkpt><trkpt lat="46.32370248024422" lon="12.55977195064541"><ele>903.0</ele><time>2026-04-23T10:53:27.997Z</time></trkpt><trkpt lat="46.32379705089647" lon="12.559819887961101"><ele>903.0</ele><time>2026-04-23T10:53:28.997Z</time></trkpt><trkpt lat="46.32388126842328" lon="12.559879818042504"><ele>903.0</ele><time>2026-04-23T10:53:29.997Z</time></trkpt><trkpt lat="46.323962545794956" lon="12.559940103522745"><ele>903.0</ele><time>2026-04-23T10:53:30.997Z</time></trkpt><trkpt lat="46.32404177842401" lon="12.56001174143166"><ele>903.0</ele><time>2026-04-23T10:53:31.997Z</time></trkpt><trkpt lat="46.32411696596046" lon="12.560112825087108"><ele>903.0</ele><time>2026-04-23T10:53:32.997Z</time></trkpt><trkpt lat="46.32418387833" lon="12.560233515598755"><ele>902.2</ele><time>2026-04-23T10:53:33.997Z</time></trkpt><trkpt lat="46.324241215817985" lon="12.560366096445524"><ele>901.4</ele><time>2026-04-23T10:53:34.997Z</time></trkpt><trkpt lat="46.3243039844264" lon="12.560492362883611"><ele>900.6000000000001</ele><time>2026-04-23T10:53:35.997Z</time></trkpt><trkpt lat="46.32436802529336" lon="12.560608733512"><ele>899.8000000000001</ele><time>2026-04-23T10:53:36.998Z</time></trkpt><trkpt lat="46.324419896288056" lon="12.560722604858547"><ele>899.0</ele><time>2026-04-23T10:53:37.998Z</time></trkpt><trkpt lat="46.32445972396026" lon="12.560841051175242"><ele>899.0</ele><time>2026-04-23T10:53:38.998Z</time></trkpt><trkpt lat="46.32448380296333" lon="12.56098383349048"><ele>899.0000000000001</ele><time>2026-04-23T10:53:39.998Z</time></trkpt><trkpt lat="46.32450499545047" lon="12.561121794588182"><ele>899.0000000000001</ele><time>2026-04-23T10:53:40.998Z</time></trkpt><trkpt lat="46.32453952070183" lon="12.56123609897077"><ele>899.0</ele><time>2026-04-23T10:53:41.999Z</time></trkpt><trkpt lat="46.324597608569604" lon="12.561336615763752"><ele>899.0</ele><time>2026-04-23T10:53:42.999Z</time></trkpt><trkpt lat="46.32467053085956" lon="12.561422841925891"><ele>898.0</ele><time>2026-04-23T10:53:43.999Z</time></trkpt><trkpt lat="46.32474848358172" lon="12.561469685806136"><ele>897.0000000000001</ele><time>2026-04-23T10:53:44.999Z</time></trkpt><trkpt lat="46.32482736832098" lon="12.561486775985848"><ele>896.0000000000001</ele><time>2026-04-23T10:53:45.999Z</time></trkpt><trkpt lat="46.32491743164264" lon="12.561465648231419"><ele>895.0</ele><time>2026-04-23T10:53:46.999Z</time></trkpt><trkpt lat="46.32501961020047" lon="12.561413783826891"><ele>894.0</ele><time>2026-04-23T10:53:47.999Z</time></trkpt><trkpt lat="46.325116519612216" lon="12.561365374229107"><ele>894.0</ele><time>2026-04-23T10:53:48.999Z</time></trkpt><trkpt lat="46.3252094325682" lon="12.56133327280927"><ele>894.0000000000001</ele><time>2026-04-23T10:53:49.999Z</time></trkpt><trkpt lat="46.32530229156837" lon="12.561302807561663"><ele>894.0000000000001</ele><time>2026-04-23T10:53:50.999Z</time></trkpt><trkpt lat="46.32539195053655" lon="12.56130075121499"><ele>894.0</ele><time>2026-04-23T10:53:51.999Z</time></trkpt><trkpt lat="46.32547281910299" lon="12.56133983220532"><ele>894.0</ele><time>2026-04-23T10:53:52.999Z</time></trkpt><trkpt lat="46.32554830510385" lon="12.561422646196608"><ele>892.2</ele><time>2026-04-23T10:53:53.999Z</time></trkpt><trkpt lat="46.325612766699436" lon="12.56153072928815"><ele>890.4000000000001</ele><time>2026-04-23T10:53:54.999Z</time></trkpt><trkpt lat="46.32566504692278" lon="12.561638533667663"><ele>888.6</ele><time>2026-04-23T10:53:55.999Z</time></trkpt><trkpt lat="46.325722562156216" lon="12.56172237352308"><ele>886.8</ele><time>2026-04-23T10:53:56.999Z</time></trkpt><trkpt lat="46.325774544425826" lon="12.561779971008342"><ele>885.0</ele><time>2026-04-23T10:53:57.999Z</time></trkpt><trkpt lat="46.32589866623329" lon="12.561769190059167"><ele>885.0</ele><time>2026-04-23T10:53:59.999Z</time></trkpt><trkpt lat="46.32595056258138" lon="12.56168515610624"><ele>885.0</ele><time>2026-04-23T10:54:00.999Z</time></trkpt><trkpt lat="46.32598549977703" lon="12.56155965127683"><ele>885.0</ele><time>2026-04-23T10:54:01.999Z</time></trkpt><trkpt lat="46.3260198448975" lon="12.561446025287559"><ele>885.0</ele><time>2026-04-23T10:54:02.999Z</time></trkpt><trkpt lat="46.32606343485574" lon="12.561359655646953"><ele>885.0</ele><time>2026-04-23T10:54:03.999Z</time></trkpt><trkpt lat="46.326128200423916" lon="12.561294482806554"><ele>885.0</ele><time>2026-04-23T10:54:04.999Z</time></trkpt><trkpt lat="46.32621825146489" lon="12.561267661635016"><ele>885.0</ele><time>2026-04-23T10:54:05.999Z</time></trkpt><trkpt lat="46.32631500407099" lon="12.561282552922155"><ele>885.0</ele><time>2026-04-23T10:54:06.999Z</time></trkpt><trkpt lat="46.32641121867268" lon="12.56130253414911"><ele>885.0</ele><time>2026-04-23T10:54:07.999Z</time></trkpt><trkpt lat="46.32650774337268" lon="12.5613075684449"><ele>885.0</ele><time>2026-04-23T10:54:08.999Z</time></trkpt><trkpt lat="46.32659604397682" lon="12.561298897489689"><ele>885.0</ele><time>2026-04-23T10:54:09.999Z</time></trkpt><trkpt lat="46.32667913715878" lon="12.561292303432651"><ele>886.2</ele><time>2026-04-23T10:54:10.999Z</time></trkpt><trkpt lat="46.3267685131841" lon="12.561293622786627"><ele>887.4</ele><time>2026-04-23T10:54:11.999Z</time></trkpt><trkpt lat="46.32686335758533" lon="12.561298028604037"><ele>888.5999999999999</ele><time>2026-04-23T10:54:12.999Z</time></trkpt><trkpt lat="46.326956062404534" lon="12.5613049088332"><ele>889.8</ele><time>2026-04-23T10:54:13.999Z</time></trkpt><trkpt lat="46.32704892298895" lon="12.561309281867725"><ele>891.0</ele><time>2026-04-23T10:54:14.999Z</time></trkpt><trkpt lat="46.32713743923791" lon="12.561317657821334"><ele>888.1999999999999</ele><time>2026-04-23T10:54:15.999Z</time></trkpt><trkpt lat="46.32722821945939" lon="12.561333020793706"><ele>885.3999999999999</ele><time>2026-04-23T10:54:16.999Z</time></trkpt><trkpt lat="46.32731602186939" lon="12.561362345748492"><ele>882.6</ele><time>2026-04-23T10:54:17.999Z</time></trkpt><trkpt lat="46.32740269546572" lon="12.561406375726802"><ele>879.8</ele><time>2026-04-23T10:54:18.999Z</time></trkpt><trkpt lat="46.32748890569654" lon="12.561451333109343"><ele>877.0</ele><time>2026-04-23T10:54:19.999Z</time></trkpt><trkpt lat="46.327574349701486" lon="12.561489221685248"><ele>876.9999999999999</ele><time>2026-04-23T10:54:20.999Z</time></trkpt><trkpt lat="46.32766164108862" lon="12.561521702017268"><ele>877.0</ele><time>2026-04-23T10:54:21.999Z</time></trkpt><trkpt lat="46.32774593631873" lon="12.561552424184324"><ele>877.0</ele><time>2026-04-23T10:54:22.999Z</time></trkpt><trkpt lat="46.3278310270924" lon="12.561584507055226"><ele>877.0</ele><time>2026-04-23T10:54:23.999Z</time></trkpt><trkpt lat="46.32791462068979" lon="12.561621652506958"><ele>876.9999999999999</ele><time>2026-04-23T10:54:24.999Z</time></trkpt><trkpt lat="46.32799645632535" lon="12.56165993818675"><ele>877.0</ele><time>2026-04-23T10:54:25.999Z</time></trkpt><trkpt lat="46.32808199829813" lon="12.56169107034733"><ele>873.6</ele><time>2026-04-23T10:54:26.999Z</time></trkpt><trkpt lat="46.32816517219229" lon="12.561729472341256"><ele>870.2</ele><time>2026-04-23T10:54:27.999Z</time></trkpt><trkpt lat="46.32824373327043" lon="12.56178289915244"><ele>866.8</ele><time>2026-04-23T10:54:28.999Z</time></trkpt><trkpt lat="46.32832635414877" lon="12.56184833653714"><ele>863.4</ele><time>2026-04-23T10:54:29.999Z</time></trkpt><trkpt lat="46.32842408162021" lon="12.561922532517926"><ele>860.0</ele><time>2026-04-23T10:54:30.999Z</time></trkpt><trkpt lat="46.32852810290963" lon="12.561978231245607"><ele>860.0</ele><time>2026-04-23T10:54:31.999Z</time></trkpt><trkpt lat="46.32862609762645" lon="12.562017540745977"><ele>860.0</ele><time>2026-04-23T10:54:32.999Z</time></trkpt><trkpt lat="46.328723059879664" lon="12.562046103106892"><ele>860.0</ele><time>2026-04-23T10:54:33.999Z</time></trkpt><trkpt lat="46.328817800596774" lon="12.562071622869126"><ele>860.0</ele><time>2026-04-23T10:54:34.999Z</time></trkpt><trkpt lat="46.328909542618554" lon="12.562102622936811"><ele>860.0</ele><time>2026-04-23T10:54:35.999Z</time></trkpt><trkpt lat="46.328997058782" lon="12.56213388770293"><ele>859.8</ele><time>2026-04-23T10:54:36.999Z</time></trkpt><trkpt lat="46.32908025750455" lon="12.5621688532139"><ele>859.6</ele><time>2026-04-23T10:54:37.999Z</time></trkpt><trkpt lat="46.32916240240101" lon="12.562189179819127"><ele>859.4000000000001</ele><time>2026-04-23T10:54:38.999Z</time></trkpt><trkpt lat="46.329246171181445" lon="12.56221989794737"><ele>859.2</ele><time>2026-04-23T10:54:39.999Z</time></trkpt><trkpt lat="46.32933824386082" lon="12.562273677011008"><ele>859.0</ele><time>2026-04-23T10:54:40.999Z</time></trkpt><trkpt lat="46.32941237426338" lon="12.562361874861699"><ele>859.0</ele><time>2026-04-23T10:54:41.999Z</time></trkpt><trkpt lat="46.32947863397222" lon="12.562476796342448"><ele>859.0000000000001</ele><time>2026-04-23T10:54:42.999Z</time></trkpt><trkpt lat="46.32952543366586" lon="12.562596319275666"><ele>859.0000000000001</ele><time>2026-04-23T10:54:43.999Z</time></trkpt><trkpt lat="46.3295585090072" lon="12.56267627145373"><ele>859.0</ele><time>2026-04-23T10:54:44.999Z</time></trkpt><trkpt lat="46.32962414634144" lon="12.562837557330388"><ele>859.0</ele><time>2026-04-23T10:54:46.999Z</time></trkpt><trkpt lat="46.329660659663155" lon="12.56295077578753"><ele>858.6</ele><time>2026-04-23T10:54:47.999Z</time></trkpt><trkpt lat="46.329691755475245" lon="12.563071125461702"><ele>858.2</ele><time>2026-04-23T10:54:48.999Z</time></trkpt><trkpt lat="46.32972036078206" lon="12.563199219002886"><ele>857.8000000000001</ele><time>2026-04-23T10:54:49.999Z</time></trkpt><trkpt lat="46.32976538009922" lon="12.563322367439678"><ele>857.4000000000001</ele><time>2026-04-23T10:54:50.999Z</time></trkpt><trkpt lat="46.329826644096705" lon="12.563444125284509"><ele>857.0</ele><time>2026-04-23T10:54:51.999Z</time></trkpt><trkpt lat="46.32989470335831" lon="12.563559660980127"><ele>857.0</ele><time>2026-04-23T10:54:52.999Z</time></trkpt><trkpt lat="46.32997028636216" lon="12.563663046326159"><ele>857.0</ele><time>2026-04-23T10:54:53.999Z</time></trkpt><trkpt lat="46.33004953326876" lon="12.563753697287181"><ele>857.0</ele><time>2026-04-23T10:54:54.999Z</time></trkpt><trkpt lat="46.33012748776304" lon="12.563837996213595"><ele>857.0</ele><time>2026-04-23T10:54:55.999Z</time></trkpt><trkpt lat="46.33020587401011" lon="12.563921378073829"><ele>857.0</ele><time>2026-04-23T10:54:56.999Z</time></trkpt><trkpt lat="46.330284704816215" lon="12.564011933006832"><ele>858.0</ele><time>2026-04-23T10:54:57.999Z</time></trkpt><trkpt lat="46.33036453847427" lon="12.56410518747661"><ele>859.0</ele><time>2026-04-23T10:54:58.999Z</time></trkpt><trkpt lat="46.33044614620697" lon="12.564197981249382"><ele>860.0</ele><time>2026-04-23T10:54:59.999Z</time></trkpt><trkpt lat="46.33052522720284" lon="12.564285036938776"><ele>861.0</ele><time>2026-04-23T10:55:00.999Z</time></trkpt><trkpt lat="46.33059895619058" lon="12.564370200694984"><ele>862.0</ele><time>2026-04-23T10:55:01.999Z</time></trkpt><trkpt lat="46.330675152839646" lon="12.56444679652114"><ele>861.9999999999999</ele><time>2026-04-23T10:55:02.999Z</time></trkpt><trkpt lat="46.330752904813444" lon="12.564509762782645"><ele>862.0</ele><time>2026-04-23T10:55:03.999Z</time></trkpt><trkpt lat="46.33083127063294" lon="12.56456633333068"><ele>862.0</ele><time>2026-04-23T10:55:04.999Z</time></trkpt><trkpt lat="46.33090865433482" lon="12.564583338311532"><ele>862.0</ele><time>2026-04-23T10:55:05.999Z</time></trkpt><trkpt lat="46.33099331281984" lon="12.564572560127447"><ele>861.9999999999999</ele><time>2026-04-23T10:55:06.999Z</time></trkpt><trkpt lat="46.3310848146159" lon="12.564545916213223"><ele>862.0</ele><time>2026-04-23T10:55:07.999Z</time></trkpt><trkpt lat="46.33117257687719" lon="12.564503399080651"><ele>862.0</ele><time>2026-04-23T10:55:08.999Z</time></trkpt><trkpt lat="46.33125812045651" lon="12.564452879082351"><ele>862.0</ele><time>2026-04-23T10:55:09.999Z</time></trkpt><trkpt lat="46.33134349928483" lon="12.564400532349138"><ele>862.0</ele><time>2026-04-23T10:55:10.999Z</time></trkpt><trkpt lat="46.33142966797653" lon="12.564348471477716"><ele>862.0</ele><time>2026-04-23T10:55:11.999Z</time></trkpt><trkpt lat="46.331519050245156" lon="12.564306755727394"><ele>862.0</ele><time>2026-04-23T10:55:12.999Z</time></trkpt><trkpt lat="46.33160476787108" lon="12.564266011496272"><ele>863.2</ele><time>2026-04-23T10:55:13.999Z</time></trkpt><trkpt lat="46.33168990773158" lon="12.564227660502644"><ele>864.4000000000001</ele><time>2026-04-23T10:55:14.999Z</time></trkpt><trkpt lat="46.33177827864017" lon="12.564181720479219"><ele>865.5999999999999</ele><time>2026-04-23T10:55:15.999Z</time></trkpt><trkpt lat="46.33186191809185" lon="12.56412564557617"><ele>866.8</ele><time>2026-04-23T10:55:16.999Z</time></trkpt><trkpt lat="46.3319421576981" lon="12.564076190149374"><ele>868.0</ele><time>2026-04-23T10:55:17.999Z</time></trkpt><trkpt lat="46.33202181317993" lon="12.564017003198442"><ele>867.9999999999999</ele><time>2026-04-23T10:55:18.999Z</time></trkpt><trkpt lat="46.332103760563434" lon="12.563964865817855"><ele>868.0</ele><time>2026-04-23T10:55:19.999Z</time></trkpt><trkpt lat="46.33218327314772" lon="12.563912236991916"><ele>868.0</ele><time>2026-04-23T10:55:20.999Z</time></trkpt><trkpt lat="46.33225995227889" lon="12.563853068439933"><ele>868.0</ele><time>2026-04-23T10:55:21.999Z</time></trkpt><trkpt lat="46.33233570835358" lon="12.56382373162115"><ele>867.9999999999999</ele><time>2026-04-23T10:55:22.999Z</time></trkpt><trkpt lat="46.33241102363403" lon="12.563821023642507"><ele>868.0</ele><time>2026-04-23T10:55:23.999Z</time></trkpt><trkpt lat="46.33248731856372" lon="12.563840099477693"><ele>869.5999999999999</ele><time>2026-04-23T10:55:24.999Z</time></trkpt><trkpt lat="46.33255714444213" lon="12.563894194941"><ele>871.1999999999999</ele><time>2026-04-23T10:55:25.999Z</time></trkpt><trkpt lat="46.33261649733735" lon="12.563954212871947"><ele>872.8</ele><time>2026-04-23T10:55:26.999Z</time></trkpt><trkpt lat="46.332717656404405" lon="12.564049944987485"><ele>874.4</ele><time>2026-04-23T10:55:28.999Z</time></trkpt><trkpt lat="46.33281110010569" lon="12.564168485854346"><ele>876.0</ele><time>2026-04-23T10:55:30.999Z</time></trkpt><trkpt lat="46.33283742461563" lon="12.564348217980196"><ele>876.0</ele><time>2026-04-23T10:55:32.999Z</time></trkpt><trkpt lat="46.332825174584414" lon="12.564456205041079"><ele>876.0</ele><time>2026-04-23T10:55:33.999Z</time></trkpt><trkpt lat="46.33281698332747" lon="12.564568324058374"><ele>876.0</ele><time>2026-04-23T10:55:34.999Z</time></trkpt><trkpt lat="46.33283733555994" lon="12.56468212083417"><ele>876.0</ele><time>2026-04-23T10:55:35.999Z</time></trkpt><trkpt lat="46.3328861064675" lon="12.564803751703703"><ele>876.0</ele><time>2026-04-23T10:55:36.999Z</time></trkpt><trkpt lat="46.332945461029226" lon="12.564905945609661"><ele>876.0</ele><time>2026-04-23T10:55:37.999Z</time></trkpt><trkpt lat="46.33302507029756" lon="12.564989915748304"><ele>875.5999999999999</ele><time>2026-04-23T10:55:38.999Z</time></trkpt><trkpt lat="46.333112508936935" lon="12.565078071421935"><ele>875.1999999999999</ele><time>2026-04-23T10:55:39.998Z</time></trkpt><trkpt lat="46.33320364138476" lon="12.565162338278277"><ele>874.8000000000001</ele><time>2026-04-23T10:55:40.998Z</time></trkpt><trkpt lat="46.333294183536125" lon="12.565236022659603"><ele>874.4000000000001</ele><time>2026-04-23T10:55:42Z</time></trkpt><trkpt lat="46.33338202839346" lon="12.56528386151793"><ele>874.0</ele><time>2026-04-23T10:55:43Z</time></trkpt><trkpt lat="46.333458718302246" lon="12.565325561105023"><ele>874.8000000000001</ele><time>2026-04-23T10:55:44Z</time></trkpt><trkpt lat="46.33354037775327" lon="12.565372500983687"><ele>875.6000000000001</ele><time>2026-04-23T10:55:45Z</time></trkpt><trkpt lat="46.33364143665944" lon="12.565411011626313"><ele>876.4</ele><time>2026-04-23T10:55:46Z</time></trkpt><trkpt lat="46.3337338207946" lon="12.565451777658497"><ele>877.2</ele><time>2026-04-23T10:55:47Z</time></trkpt><trkpt lat="46.333822381045415" lon="12.565497234693508"><ele>878.0</ele><time>2026-04-23T10:55:48Z</time></trkpt><trkpt lat="46.333907027380626" lon="12.565543523190767"><ele>878.0</ele><time>2026-04-23T10:55:49Z</time></trkpt><trkpt lat="46.33399434361457" lon="12.56559424172292"><ele>878.0</ele><time>2026-04-23T10:55:50Z</time></trkpt><trkpt lat="46.334086604837914" lon="12.565648797012846"><ele>878.0</ele><time>2026-04-23T10:55:51Z</time></trkpt><trkpt lat="46.33418182476491" lon="12.565707243983422"><ele>878.0</ele><time>2026-04-23T10:55:52Z</time></trkpt><trkpt lat="46.3342778292949" lon="12.56576836869668"><ele>878.0</ele><time>2026-04-23T10:55:53Z</time></trkpt><trkpt lat="46.334369407226966" lon="12.565797133975467"><ele>878.0</ele><time>2026-04-23T10:55:54Z</time></trkpt><trkpt lat="46.33446833731469" lon="12.565808899405765"><ele>878.0</ele><time>2026-04-23T10:55:55Z</time></trkpt><trkpt lat="46.334559512336625" lon="12.565850467003372"><ele>878.0</ele><time>2026-04-23T10:55:56Z</time></trkpt><trkpt lat="46.3346498752563" lon="12.565920729254367"><ele>878.0</ele><time>2026-04-23T10:55:57Z</time></trkpt><trkpt lat="46.33473476434243" lon="12.566005950166252"><ele>878.0</ele><time>2026-04-23T10:55:58Z</time></trkpt><trkpt lat="46.33482334761079" lon="12.566067972573347"><ele>879.25</ele><time>2026-04-23T10:55:59Z</time></trkpt><trkpt lat="46.334931550747186" lon="12.566095474030147"><ele>880.5</ele><time>2026-04-23T10:56:00Z</time></trkpt><trkpt lat="46.33503823037516" lon="12.566127831773004"><ele>881.75</ele><time>2026-04-23T10:56:01Z</time></trkpt><trkpt lat="46.33514583686753" lon="12.56617757779861"><ele>883.0</ele><time>2026-04-23T10:56:02Z</time></trkpt><trkpt lat="46.3352464115153" lon="12.566268108890746"><ele>883.5999999999999</ele><time>2026-04-23T10:56:03Z</time></trkpt><trkpt lat="46.335325496433896" lon="12.566387381465095"><ele>884.1999999999999</ele><time>2026-04-23T10:56:04Z</time></trkpt><trkpt lat="46.33538113856239" lon="12.56652420842816"><ele>884.8</ele><time>2026-04-23T10:56:05Z</time></trkpt><trkpt lat="46.335414856890566" lon="12.566648323348472"><ele>885.4</ele><time>2026-04-23T10:56:06Z</time></trkpt><trkpt lat="46.33546588116192" lon="12.566765715675533"><ele>886.0</ele><time>2026-04-23T10:56:08Z</time></trkpt><trkpt lat="46.33555648342003" lon="12.566794348216922"><ele>886.5999999999999</ele><time>2026-04-23T10:56:10Z</time></trkpt><trkpt lat="46.335635329623685" lon="12.566790978768832"><ele>887.1999999999999</ele><time>2026-04-23T10:56:11Z</time></trkpt><trkpt lat="46.33571101941501" lon="12.566789847269037"><ele>887.8000000000001</ele><time>2026-04-23T10:56:12Z</time></trkpt><trkpt lat="46.335775626590845" lon="12.566797966053855"><ele>888.4000000000001</ele><time>2026-04-23T10:56:13Z</time></trkpt><trkpt lat="46.33589286045506" lon="12.566845742449766"><ele>889.0</ele><time>2026-04-23T10:56:15Z</time></trkpt><trkpt lat="46.33598025539986" lon="12.566985036898483"><ele>888.1666666666666</ele><time>2026-04-23T10:56:17Z</time></trkpt><trkpt lat="46.33602395270395" lon="12.567078996514455"><ele>887.3333333333333</ele><time>2026-04-23T10:56:18Z</time></trkpt><trkpt lat="46.336068378934655" lon="12.567179776151562"><ele>886.5</ele><time>2026-04-23T10:56:19Z</time></trkpt><trkpt lat="46.336116396059296" lon="12.567283635703193"><ele>885.6666666666667</ele><time>2026-04-23T10:56:20Z</time></trkpt><trkpt lat="46.336169193266215" lon="12.56738911403253"><ele>884.8333333333334</ele><time>2026-04-23T10:56:21Z</time></trkpt><trkpt lat="46.33622650299673" lon="12.56749685406601"><ele>884.0</ele><time>2026-04-23T10:56:21.999Z</time></trkpt><trkpt lat="46.33628766037398" lon="12.567613325121016"><ele>884.0</ele><time>2026-04-23T10:56:22.999Z</time></trkpt><trkpt lat="46.33634047339055" lon="12.567713493500918"><ele>884.0000000000001</ele><time>2026-04-23T10:56:23.999Z</time></trkpt><trkpt lat="46.336386741781965" lon="12.567797702221753"><ele>884.0000000000001</ele><time>2026-04-23T10:56:24.999Z</time></trkpt><trkpt lat="46.336461067842315" lon="12.567929031628577"><ele>884.0</ele><time>2026-04-23T10:56:26.999Z</time></trkpt><trkpt lat="46.33656464317053" lon="12.568004786937664"><ele>884.0</ele><time>2026-04-23T10:56:28.999Z</time></trkpt><trkpt lat="46.33663305866036" lon="12.568043905241474"><ele>887.0</ele><time>2026-04-23T10:56:29.999Z</time></trkpt><trkpt lat="46.33676522770718" lon="12.568196432066808"><ele>890.0</ele><time>2026-04-23T10:56:31.999Z</time></trkpt><trkpt lat="46.3368577182043" lon="12.568324371920431"><ele>893.0</ele><time>2026-04-23T10:56:32.999Z</time></trkpt><trkpt lat="46.33694897824721" lon="12.568451204465894"><ele>896.0</ele><time>2026-04-23T10:56:33.999Z</time></trkpt><trkpt lat="46.337030049578146" lon="12.568560954919507"><ele>896.0</ele><time>2026-04-23T10:56:34.999Z</time></trkpt><trkpt lat="46.33710488455241" lon="12.568663032399698"><ele>895.9999999999999</ele><time>2026-04-23T10:56:35.999Z</time></trkpt><trkpt lat="46.337173429817206" lon="12.56875202058188"><ele>895.9999999999999</ele><time>2026-04-23T10:56:36.999Z</time></trkpt><trkpt lat="46.33723878340083" lon="12.568838502875225"><ele>896.0</ele><time>2026-04-23T10:56:37.999Z</time></trkpt><trkpt lat="46.337321166624236" lon="12.5689223714487"><ele>896.0</ele><time>2026-04-23T10:56:38.999Z</time></trkpt><trkpt lat="46.33741316917797" lon="12.56898028131574"><ele>896.0</ele><time>2026-04-23T10:56:39.999Z</time></trkpt><trkpt lat="46.33749482725269" lon="12.569035946169624"><ele>895.9999999999999</ele><time>2026-04-23T10:56:40.999Z</time></trkpt><trkpt lat="46.33756957701012" lon="12.569108263969808"><ele>895.9999999999999</ele><time>2026-04-23T10:56:41.999Z</time></trkpt><trkpt lat="46.33765326360654" lon="12.569178828280904"><ele>896.0</ele><time>2026-04-23T10:56:42.999Z</time></trkpt><trkpt lat="46.33777041838763" lon="12.569210390651364"><ele>896.0</ele><time>2026-04-23T10:56:43.999Z</time></trkpt><trkpt lat="46.33788925450667" lon="12.569248418043381"><ele>896.0000000000001</ele><time>2026-04-23T10:56:44.999Z</time></trkpt><trkpt lat="46.337983953020306" lon="12.569278901115748"><ele>896.0</ele><time>2026-04-23T10:56:45.999Z</time></trkpt><trkpt lat="46.33805611592107" lon="12.569301140013527"><ele>896.0</ele><time>2026-04-23T10:56:46.999Z</time></trkpt><trkpt lat="46.33811321174621" lon="12.569363996428976"><ele>896.0</ele><time>2026-04-23T10:56:47.999Z</time></trkpt><trkpt lat="46.33818261954126" lon="12.569459736142544"><ele>896.0000000000001</ele><time>2026-04-23T10:56:48.999Z</time></trkpt><trkpt lat="46.338263028648036" lon="12.569566335501634"><ele>896.0</ele><time>2026-04-23T10:56:49.999Z</time></trkpt><trkpt lat="46.33835599323494" lon="12.569675109557917"><ele>896.25</ele><time>2026-04-23T10:56:50.999Z</time></trkpt><trkpt lat="46.33845776901798" lon="12.569776677042286"><ele>896.5</ele><time>2026-04-23T10:56:51.999Z</time></trkpt><trkpt lat="46.338569488587105" lon="12.56987363780994"><ele>896.75</ele><time>2026-04-23T10:56:52.999Z</time></trkpt><trkpt lat="46.33868271140491" lon="12.569943654899962"><ele>897.0</ele><time>2026-04-23T10:56:53.999Z</time></trkpt><trkpt lat="46.3387850377151" lon="12.570022075391174"><ele>896.25</ele><time>2026-04-23T10:56:54.999Z</time></trkpt><trkpt lat="46.338886311961595" lon="12.570116127129976"><ele>895.5</ele><time>2026-04-23T10:56:55.999Z</time></trkpt><trkpt lat="46.33898697766452" lon="12.570221448451601"><ele>894.75</ele><time>2026-04-23T10:56:56.999Z</time></trkpt><trkpt lat="46.33908401480309" lon="12.570340366260492"><ele>894.0</ele><time>2026-04-23T10:56:57.999Z</time></trkpt><trkpt lat="46.339174321506455" lon="12.570466578647993"><ele>894.0</ele><time>2026-04-23T10:56:58.999Z</time></trkpt><trkpt lat="46.33925810357413" lon="12.570590576942731"><ele>894.0</ele><time>2026-04-23T10:56:59.999Z</time></trkpt><trkpt lat="46.339337303460596" lon="12.57071226390036"><ele>894.0</ele><time>2026-04-23T10:57:00.999Z</time></trkpt><trkpt lat="46.33940532853471" lon="12.570833563487822"><ele>894.0</ele><time>2026-04-23T10:57:01.999Z</time></trkpt><trkpt lat="46.33947565353292" lon="12.57094924576951"><ele>894.0</ele><time>2026-04-23T10:57:02.999Z</time></trkpt><trkpt lat="46.339555495814295" lon="12.571051533371023"><ele>894.0000000000001</ele><time>2026-04-23T10:57:03.999Z</time></trkpt><trkpt lat="46.33962181300143" lon="12.571155561179593"><ele>894.0000000000001</ele><time>2026-04-23T10:57:04.999Z</time></trkpt><trkpt lat="46.339679215215874" lon="12.571280954003074"><ele>894.0</ele><time>2026-04-23T10:57:05.999Z</time></trkpt><trkpt lat="46.33971876620553" lon="12.5714175631583"><ele>894.0</ele><time>2026-04-23T10:57:06.999Z</time></trkpt><trkpt lat="46.339747086447474" lon="12.571535781362298"><ele>895.6</ele><time>2026-04-23T10:57:07.999Z</time></trkpt><trkpt lat="46.339777466367956" lon="12.571659060930061"><ele>897.2</ele><time>2026-04-23T10:57:08.999Z</time></trkpt><trkpt lat="46.339812844680246" lon="12.571794999299378"><ele>898.8000000000001</ele><time>2026-04-23T10:57:09.999Z</time></trkpt><trkpt lat="46.339863505728616" lon="12.57192931928829"><ele>900.4000000000001</ele><time>2026-04-23T10:57:10.999Z</time></trkpt><trkpt lat="46.33991994212662" lon="12.572056112567813"><ele>902.0</ele><time>2026-04-23T10:57:11.999Z</time></trkpt><trkpt lat="46.33996129779245" lon="12.572177251896534"><ele>902.0</ele><time>2026-04-23T10:57:12.999Z</time></trkpt><trkpt lat="46.33998975678053" lon="12.572305719136619"><ele>902.0</ele><time>2026-04-23T10:57:13.999Z</time></trkpt><trkpt lat="46.34001500499102" lon="12.572443427732841"><ele>902.0</ele><time>2026-04-23T10:57:14.999Z</time></trkpt><trkpt lat="46.340042096038076" lon="12.572585470075673"><ele>902.0</ele><time>2026-04-23T10:57:15.999Z</time></trkpt><trkpt lat="46.3400755049696" lon="12.5727226231928"><ele>902.0</ele><time>2026-04-23T10:57:16.999Z</time></trkpt><trkpt lat="46.34010933607849" lon="12.572857981027685"><ele>901.0</ele><time>2026-04-23T10:57:17.999Z</time></trkpt><trkpt lat="46.34014668155537" lon="12.572994809679878"><ele>900.0</ele><time>2026-04-23T10:57:18.999Z</time></trkpt><trkpt lat="46.34020593787966" lon="12.573128135795061"><ele>899.0</ele><time>2026-04-23T10:57:19.999Z</time></trkpt><trkpt lat="46.34028498586799" lon="12.573253800673015"><ele>898.0</ele><time>2026-04-23T10:57:20.999Z</time></trkpt><trkpt lat="46.34036354102551" lon="12.57338943813116"><ele>898.0</ele><time>2026-04-23T10:57:21.999Z</time></trkpt><trkpt lat="46.34042559857438" lon="12.573538491553853"><ele>898.0</ele><time>2026-04-23T10:57:22.999Z</time></trkpt><trkpt lat="46.34047484150519" lon="12.573696140541443"><ele>898.0</ele><time>2026-04-23T10:57:23.999Z</time></trkpt><trkpt lat="46.34051883250412" lon="12.573855256585135"><ele>898.0</ele><time>2026-04-23T10:57:24.999Z</time></trkpt><trkpt lat="46.34057280462186" lon="12.574033202814908"><ele>900.0</ele><time>2026-04-23T10:57:25.999Z</time></trkpt><trkpt lat="46.3406415761006" lon="12.574239855645104"><ele>902.0</ele><time>2026-04-23T10:57:26.999Z</time></trkpt><trkpt lat="46.34072072143165" lon="12.574455493784702"><ele>904.0</ele><time>2026-04-23T10:57:27.999Z</time></trkpt><trkpt lat="46.340794820668016" lon="12.574647557269273"><ele>904.0</ele><time>2026-04-23T10:57:28.999Z</time></trkpt><trkpt lat="46.34086896759971" lon="12.574827196447423"><ele>904.0</ele><time>2026-04-23T10:57:29.999Z</time></trkpt><trkpt lat="46.34095172537811" lon="12.575012445873611"><ele>904.0</ele><time>2026-04-23T10:57:30.999Z</time></trkpt><trkpt lat="46.341019291894234" lon="12.575179170951172"><ele>904.0</ele><time>2026-04-23T10:57:31.999Z</time></trkpt><trkpt lat="46.341067685568916" lon="12.57532533859601"><ele>904.25</ele><time>2026-04-23T10:57:32.999Z</time></trkpt><trkpt lat="46.34109240938385" lon="12.575476837927296"><ele>904.5</ele><time>2026-04-23T10:57:33.999Z</time></trkpt><trkpt lat="46.34110860663512" lon="12.575648589801917"><ele>904.75</ele><time>2026-04-23T10:57:34.999Z</time></trkpt><trkpt lat="46.34111748122922" lon="12.575852048026334"><ele>905.0</ele><time>2026-04-23T10:57:35.999Z</time></trkpt><trkpt lat="46.34111135430975" lon="12.576054361575691"><ele>905.75</ele><time>2026-04-23T10:57:36.998Z</time></trkpt><trkpt lat="46.34107541360239" lon="12.576223055306262"><ele>906.5</ele><time>2026-04-23T10:57:37.998Z</time></trkpt><trkpt lat="46.34102007005317" lon="12.576376967394408"><ele>907.25</ele><time>2026-04-23T10:57:38.998Z</time></trkpt><trkpt lat="46.340952718246534" lon="12.576545120765566"><ele>908.0</ele><time>2026-04-23T10:57:39.998Z</time></trkpt><trkpt lat="46.34090701558788" lon="12.576713779408758"><ele>908.0</ele><time>2026-04-23T10:57:40.998Z</time></trkpt><trkpt lat="46.34087552287687" lon="12.576897079633016"><ele>908.0</ele><time>2026-04-23T10:57:41.998Z</time></trkpt><trkpt lat="46.34084450271608" lon="12.577076447754186"><ele>908.0</ele><time>2026-04-23T10:57:42.998Z</time></trkpt><trkpt lat="46.3408050893637" lon="12.577257550245573"><ele>908.0</ele><time>2026-04-23T10:57:43.998Z</time></trkpt><trkpt lat="46.340772633134854" lon="12.577437992984269"><ele>909.0</ele><time>2026-04-23T10:57:44.998Z</time></trkpt><trkpt lat="46.34075545264429" lon="12.577597569781803"><ele>910.0</ele><time>2026-04-23T10:57:45.998Z</time></trkpt><trkpt lat="46.340739012277716" lon="12.577751891605237"><ele>911.0</ele><time>2026-04-23T10:57:46.998Z</time></trkpt><trkpt lat="46.34074210054273" lon="12.577917411263927"><ele>912.0</ele><time>2026-04-23T10:57:48Z</time></trkpt><trkpt lat="46.340770539095026" lon="12.578090253083698"><ele>912.0</ele><time>2026-04-23T10:57:49Z</time></trkpt><trkpt lat="46.34080242789098" lon="12.578262513754161"><ele>912.0</ele><time>2026-04-23T10:57:50Z</time></trkpt><trkpt lat="46.340826412741784" lon="12.578429295675614"><ele>912.0</ele><time>2026-04-23T10:57:51Z</time></trkpt><trkpt lat="46.3408462402814" lon="12.578587683973312"><ele>912.0</ele><time>2026-04-23T10:57:52Z</time></trkpt><trkpt lat="46.34086759090542" lon="12.578731171272928"><ele>910.8</ele><time>2026-04-23T10:57:53Z</time></trkpt><trkpt lat="46.34089271817727" lon="12.57887707857136"><ele>909.6</ele><time>2026-04-23T10:57:54Z</time></trkpt><trkpt lat="46.34090085648279" lon="12.579027907136371"><ele>908.3999999999999</ele><time>2026-04-23T10:57:55Z</time></trkpt><trkpt lat="46.3409001762215" lon="12.579181982571923"><ele>907.1999999999999</ele><time>2026-04-23T10:57:56Z</time></trkpt><trkpt lat="46.340901520445065" lon="12.579312621999929"><ele>906.0</ele><time>2026-04-23T10:57:57Z</time></trkpt><trkpt lat="46.34090703531987" lon="12.5794085983536"><ele>906.5999999999999</ele><time>2026-04-23T10:57:58Z</time></trkpt><trkpt lat="46.34092407187043" lon="12.579524777227533"><ele>907.1999999999999</ele><time>2026-04-23T10:58:00Z</time></trkpt><trkpt lat="46.340964128615084" lon="12.57966937291888"><ele>907.8000000000001</ele><time>2026-04-23T10:58:02Z</time></trkpt><trkpt lat="46.34101415441019" lon="12.579777461076715"><ele>908.4000000000001</ele><time>2026-04-23T10:58:03Z</time></trkpt><trkpt lat="46.34107650760627" lon="12.579892082917068"><ele>909.0</ele><time>2026-04-23T10:58:04Z</time></trkpt><trkpt lat="46.34114372630927" lon="12.58002269664379"><ele>909.0</ele><time>2026-04-23T10:58:05Z</time></trkpt><trkpt lat="46.34120827343227" lon="12.580169158840429"><ele>909.0</ele><time>2026-04-23T10:58:06Z</time></trkpt><trkpt lat="46.341270997539276" lon="12.58032242320579"><ele>909.0</ele><time>2026-04-23T10:58:07Z</time></trkpt><trkpt lat="46.34132525958235" lon="12.580487858688064"><ele>909.0</ele><time>2026-04-23T10:58:08Z</time></trkpt><trkpt lat="46.341365881638474" lon="12.58065689124158"><ele>909.75</ele><time>2026-04-23T10:58:09Z</time></trkpt><trkpt lat="46.34138176149848" lon="12.58082457831684"><ele>910.5</ele><time>2026-04-23T10:58:10Z</time></trkpt><trkpt lat="46.341408370636415" lon="12.580990437585053"><ele>911.25</ele><time>2026-04-23T10:58:11Z</time></trkpt><trkpt lat="46.34146878326956" lon="12.581155177791569"><ele>912.0</ele><time>2026-04-23T10:58:12Z</time></trkpt><trkpt lat="46.34155256086126" lon="12.581330367515795"><ele>915.75</ele><time>2026-04-23T10:58:13Z</time></trkpt><trkpt lat="46.34161833452187" lon="12.581514258562636"><ele>919.5</ele><time>2026-04-23T10:58:14Z</time></trkpt><trkpt lat="46.34166327256338" lon="12.581704879045189"><ele>923.25</ele><time>2026-04-23T10:58:15Z</time></trkpt><trkpt lat="46.341696980213605" lon="12.581890236900142"><ele>927.0</ele><time>2026-04-23T10:58:16Z</time></trkpt><trkpt lat="46.34174488784003" lon="12.582063983557086"><ele>927.0</ele><time>2026-04-23T10:58:17Z</time></trkpt><trkpt lat="46.34180616289302" lon="12.582235968454667"><ele>927.0</ele><time>2026-04-23T10:58:18Z</time></trkpt><trkpt lat="46.34186398126281" lon="12.582405598996186"><ele>927.0</ele><time>2026-04-23T10:58:19Z</time></trkpt><trkpt lat="46.34191493814162" lon="12.582570318945555"><ele>927.0</ele><time>2026-04-23T10:58:20Z</time></trkpt><trkpt lat="46.34195911385581" lon="12.582718416745532"><ele>926.8</ele><time>2026-04-23T10:58:21Z</time></trkpt><trkpt lat="46.34200828133817" lon="12.582863682455441"><ele>926.6</ele><time>2026-04-23T10:58:22Z</time></trkpt><trkpt lat="46.34206598162166" lon="12.583001999033502"><ele>926.3999999999999</ele><time>2026-04-23T10:58:23Z</time></trkpt><trkpt lat="46.342134619614114" lon="12.583121555072518"><ele>926.1999999999999</ele><time>2026-04-23T10:58:23.999Z</time></trkpt><trkpt lat="46.34222204334986" lon="12.583230210042153"><ele>926.0</ele><time>2026-04-23T10:58:24.999Z</time></trkpt><trkpt lat="46.34232338026582" lon="12.583322047977457"><ele>926.8</ele><time>2026-04-23T10:58:25.999Z</time></trkpt><trkpt lat="46.34242998327792" lon="12.583393282257495"><ele>927.5999999999999</ele><time>2026-04-23T10:58:26.999Z</time></trkpt><trkpt lat="46.342513701008194" lon="12.583471516860266"><ele>928.4</ele><time>2026-04-23T10:58:27.999Z</time></trkpt><trkpt lat="46.34257616080401" lon="12.583579603690154"><ele>929.2</ele><time>2026-04-23T10:58:28.999Z</time></trkpt><trkpt lat="46.34262362710304" lon="12.583699319272833"><ele>930.0</ele><time>2026-04-23T10:58:29.999Z</time></trkpt><trkpt lat="46.34266286120626" lon="12.58382541035028"><ele>930.0</ele><time>2026-04-23T10:58:30.999Z</time></trkpt><trkpt lat="46.342720418981344" lon="12.58394635799793"><ele>930.0</ele><time>2026-04-23T10:58:31.999Z</time></trkpt><trkpt lat="46.3427987982901" lon="12.584058782225545"><ele>930.0</ele><time>2026-04-23T10:58:32.999Z</time></trkpt><trkpt lat="46.34288858538622" lon="12.584171180945022"><ele>930.0</ele><time>2026-04-23T10:58:33.999Z</time></trkpt><trkpt lat="46.34296907346991" lon="12.584276410428044"><ele>930.0</ele><time>2026-04-23T10:58:34.999Z</time></trkpt><trkpt lat="46.34303660178371" lon="12.584367036374912"><ele>930.3333333333334</ele><time>2026-04-23T10:58:35.999Z</time></trkpt><trkpt lat="46.3430910463836" lon="12.58444697955542"><ele>930.6666666666667</ele><time>2026-04-23T10:58:36.999Z</time></trkpt><trkpt lat="46.343132096900696" lon="12.584537991614546"><ele>931.0</ele><time>2026-04-23T10:58:37.999Z</time></trkpt><trkpt lat="46.34318448016729" lon="12.584626080204476"><ele>931.3333333333334</ele><time>2026-04-23T10:58:38.999Z</time></trkpt><trkpt lat="46.34325098576105" lon="12.584700369080142"><ele>931.6666666666667</ele><time>2026-04-23T10:58:39.999Z</time></trkpt><trkpt lat="46.34331676730584" lon="12.584779565144315"><ele>932.0</ele><time>2026-04-23T10:58:40.999Z</time></trkpt><trkpt lat="46.343376690292374" lon="12.584865853762029"><ele>932.0000000000001</ele><time>2026-04-23T10:58:41.999Z</time></trkpt><trkpt lat="46.34344228810686" lon="12.584949813003146"><ele>932.0</ele><time>2026-04-23T10:58:42.999Z</time></trkpt><trkpt lat="46.343496756589" lon="12.585028571179476"><ele>932.0</ele><time>2026-04-23T10:58:43.999Z</time></trkpt><trkpt lat="46.34354694641237" lon="12.585104426257544"><ele>932.0</ele><time>2026-04-23T10:58:44.999Z</time></trkpt><trkpt lat="46.343591542984775" lon="12.585213777025787"><ele>932.0000000000001</ele><time>2026-04-23T10:58:45.999Z</time></trkpt><trkpt lat="46.34362099260297" lon="12.585345937569592"><ele>932.0</ele><time>2026-04-23T10:58:46.999Z</time></trkpt><trkpt lat="46.34364651773481" lon="12.58549871024807"><ele>936.5</ele><time>2026-04-23T10:58:47.999Z</time></trkpt><trkpt lat="46.343679505629254" lon="12.585654752866683"><ele>941.0</ele><time>2026-04-23T10:58:48.999Z</time></trkpt><trkpt lat="46.34371661038666" lon="12.58581748745719"><ele>945.5</ele><time>2026-04-23T10:58:49.999Z</time></trkpt><trkpt lat="46.343742578981164" lon="12.585980061785815"><ele>950.0</ele><time>2026-04-23T10:58:50.999Z</time></trkpt><trkpt lat="46.343765988163206" lon="12.586144753209211"><ele>954.5</ele><time>2026-04-23T10:58:51.999Z</time></trkpt><trkpt lat="46.34378909741525" lon="12.586314832615955"><ele>959.0</ele><time>2026-04-23T10:58:52.999Z</time></trkpt><trkpt lat="46.3438106940863" lon="12.586482629516476"><ele>963.5</ele><time>2026-04-23T10:58:53.999Z</time></trkpt><trkpt lat="46.34383551162639" lon="12.586656075303322"><ele>968.0</ele><time>2026-04-23T10:58:54.999Z</time></trkpt><trkpt lat="46.34386643390936" lon="12.586829621493651"><ele>959.75</ele><time>2026-04-23T10:58:55.999Z</time></trkpt><trkpt lat="46.34390441439394" lon="12.587004759229007"><ele>951.5</ele><time>2026-04-23T10:58:56.999Z</time></trkpt><trkpt lat="46.34394396034094" lon="12.587172564061271"><ele>943.25</ele><time>2026-04-23T10:58:57.999Z</time></trkpt><trkpt lat="46.3439773094404" lon="12.587327634726515"><ele>935.0</ele><time>2026-04-23T10:58:58.999Z</time></trkpt><trkpt lat="46.34400322144607" lon="12.587450660308223"><ele>935.0</ele><time>2026-04-23T10:58:59.999Z</time></trkpt><trkpt lat="46.34403207923833" lon="12.587566912240257"><ele>935.0</ele><time>2026-04-23T10:59:00.999Z</time></trkpt><trkpt lat="46.34407811053658" lon="12.587703021318296"><ele>935.0</ele><time>2026-04-23T10:59:01.999Z</time></trkpt><trkpt lat="46.34412726578127" lon="12.587847532866435"><ele>935.0</ele><time>2026-04-23T10:59:02.999Z</time></trkpt><trkpt lat="46.34418078096109" lon="12.587998183892063"><ele>935.0</ele><time>2026-04-23T10:59:03.999Z</time></trkpt><trkpt lat="46.34424368722988" lon="12.588150822729952"><ele>934.0</ele><time>2026-04-23T10:59:04.999Z</time></trkpt><trkpt lat="46.34431407655111" lon="12.58829915129921"><ele>933.0</ele><time>2026-04-23T10:59:05.999Z</time></trkpt><trkpt lat="46.34437959309439" lon="12.58844754055189"><ele>932.0</ele><time>2026-04-23T10:59:06.999Z</time></trkpt><trkpt lat="46.344435303937345" lon="12.588609137907364"><ele>931.0</ele><time>2026-04-23T10:59:07.999Z</time></trkpt><trkpt lat="46.34448550638506" lon="12.588775072186813"><ele>931.0</ele><time>2026-04-23T10:59:08.999Z</time></trkpt><trkpt lat="46.34453313499105" lon="12.588936932196649"><ele>931.0</ele><time>2026-04-23T10:59:09.999Z</time></trkpt><trkpt lat="46.34457457807826" lon="12.589091617619854"><ele>931.0</ele><time>2026-04-23T10:59:10.999Z</time></trkpt><trkpt lat="46.3446039165862" lon="12.589255763465868"><ele>931.0</ele><time>2026-04-23T10:59:11.999Z</time></trkpt><trkpt lat="46.34461208710958" lon="12.589421736600217"><ele>931.0</ele><time>2026-04-23T10:59:12.999Z</time></trkpt><trkpt lat="46.34462360068961" lon="12.589593678381577"><ele>931.0</ele><time>2026-04-23T10:59:13.999Z</time></trkpt><trkpt lat="46.344641127899855" lon="12.589771983803875"><ele>931.0</ele><time>2026-04-23T10:59:14.999Z</time></trkpt><trkpt lat="46.34466669593516" lon="12.589949424636105"><ele>931.0</ele><time>2026-04-23T10:59:15.999Z</time></trkpt><trkpt lat="46.34470505876554" lon="12.590120635298534"><ele>930.8</ele><time>2026-04-23T10:59:16.999Z</time></trkpt><trkpt lat="46.34474722072094" lon="12.590283780071694"><ele>930.5999999999999</ele><time>2026-04-23T10:59:17.999Z</time></trkpt><trkpt lat="46.34477492612384" lon="12.590430927918995"><ele>930.4</ele><time>2026-04-23T10:59:18.999Z</time></trkpt><trkpt lat="46.34479366409453" lon="12.590576681716936"><ele>930.2</ele><time>2026-04-23T10:59:19.999Z</time></trkpt><trkpt lat="46.344811747343456" lon="12.5907277404823"><ele>930.0</ele><time>2026-04-23T10:59:20.999Z</time></trkpt><trkpt lat="46.344822827467624" lon="12.59086381489683"><ele>930.0</ele><time>2026-04-23T10:59:21.999Z</time></trkpt><trkpt lat="46.3448308595346" lon="12.590984183316356"><ele>930.0</ele><time>2026-04-23T10:59:22.999Z</time></trkpt><trkpt lat="46.344868552666654" lon="12.59118960530114"><ele>930.0</ele><time>2026-04-23T10:59:24.999Z</time></trkpt><trkpt lat="46.34490503773424" lon="12.591283282999674"><ele>930.0</ele><time>2026-04-23T10:59:25.999Z</time></trkpt><trkpt lat="46.34494634062875" lon="12.591368729508922"><ele>930.0</ele><time>2026-04-23T10:59:26.999Z</time></trkpt><trkpt lat="46.34498813058159" lon="12.591455991189958"><ele>930.2857142857142</ele><time>2026-04-23T10:59:27.999Z</time></trkpt><trkpt lat="46.34502439886323" lon="12.59154717648712"><ele>930.5714285714287</ele><time>2026-04-23T10:59:28.999Z</time></trkpt><trkpt lat="46.345042146950426" lon="12.591636894071863"><ele>930.8571428571429</ele><time>2026-04-23T10:59:29.999Z</time></trkpt><trkpt lat="46.34505914375927" lon="12.591736307050905"><ele>931.1428571428571</ele><time>2026-04-23T10:59:30.999Z</time></trkpt><trkpt lat="46.345080164123786" lon="12.591835970521167"><ele>931.4285714285713</ele><time>2026-04-23T10:59:31.999Z</time></trkpt><trkpt lat="46.34509401919918" lon="12.591937482469788"><ele>931.7142857142858</ele><time>2026-04-23T10:59:32.999Z</time></trkpt><trkpt lat="46.345105096754004" lon="12.592043433790977"><ele>932.0</ele><time>2026-04-23T10:59:33.999Z</time></trkpt><trkpt lat="46.3451185916602" lon="12.592151910358938"><ele>932.5000000000001</ele><time>2026-04-23T10:59:34.998Z</time></trkpt><trkpt lat="46.34512939069043" lon="12.59225602655063"><ele>933.0</ele><time>2026-04-23T10:59:35.998Z</time></trkpt><trkpt lat="46.34514004907659" lon="12.5923477495843"><ele>933.5</ele><time>2026-04-23T10:59:36.998Z</time></trkpt><trkpt lat="46.345160486096724" lon="12.59249918643805"><ele>934.0</ele><time>2026-04-23T10:59:38.998Z</time></trkpt><trkpt lat="46.34517388800727" lon="12.5926424055104"><ele>934.5000000000001</ele><time>2026-04-23T10:59:40.998Z</time></trkpt><trkpt lat="46.34523655886614" lon="12.592716626410857"><ele>935.0</ele><time>2026-04-23T10:59:44.998Z</time></trkpt><trkpt lat="46.3453001623454" lon="12.592720861521132"><ele>935.0000000000001</ele><time>2026-04-23T10:59:46.998Z</time></trkpt><trkpt lat="46.345367258434614" lon="12.59268976776951"><ele>935.0</ele><time>2026-04-23T10:59:49.998Z</time></trkpt><trkpt lat="46.3453405105636" lon="12.592596129471078"><ele>935.0000000000001</ele><time>2026-04-23T10:59:51.998Z</time></trkpt><trkpt lat="46.34527609081506" lon="12.59256370885507"><ele>935.0000000000001</ele><time>2026-04-23T11:00:18Z</time></trkpt><trkpt lat="46.34521419099864" lon="12.592522339740233"><ele>935.0</ele><time>2026-04-23T11:00:19.999Z</time></trkpt><trkpt lat="46.345166117373296" lon="12.592454600122354"><ele>935.0000000000001</ele><time>2026-04-23T11:00:21.999Z</time></trkpt><trkpt lat="46.345137197035314" lon="12.592322897318423"><ele>935.0000000000001</ele><time>2026-04-23T11:00:23.999Z</time></trkpt><trkpt lat="46.345123130710675" lon="12.592190730469817"><ele>935.0000000000001</ele><time>2026-04-23T11:00:25.999Z</time></trkpt><trkpt lat="46.34510612832288" lon="12.592058306288978"><ele>935.0</ele><time>2026-04-23T11:00:27.999Z</time></trkpt><trkpt lat="46.34508642665504" lon="12.591935682585477"><ele>935.0</ele><time>2026-04-23T11:00:29.999Z</time></trkpt><trkpt lat="46.34507615364611" lon="12.591832941451878"><ele>935.0</ele><time>2026-04-23T11:00:31.999Z</time></trkpt><trkpt lat="46.3450575425829" lon="12.59173832620188"><ele>935.0000000000001</ele><time>2026-04-23T11:02:04Z</time></trkpt><trkpt lat="46.345023322645694" lon="12.591634413204366"><ele>935.0</ele><time>2026-04-23T11:02:07Z</time></trkpt><trkpt lat="46.345092237870624" lon="12.591567151346231"><ele>935.0</ele><time>2026-04-23T11:02:10Z</time></trkpt><trkpt lat="46.3451539051577" lon="12.591597430675767"><ele>935.0</ele><time>2026-04-23T11:02:12Z</time></trkpt><trkpt lat="46.34517791092216" lon="12.591694521944007"><ele>935.0</ele><time>2026-04-23T11:02:14Z</time></trkpt><trkpt lat="46.345129096216596" lon="12.591816464040729"><ele>935.0</ele><time>2026-04-23T11:02:16Z</time></trkpt><trkpt lat="46.34509133609823" lon="12.591959586673356"><ele>935.0</ele><time>2026-04-23T11:02:18Z</time></trkpt><trkpt lat="46.34511021457934" lon="12.59212526233305"><ele>935.0000000000001</ele><time>2026-04-23T11:02:20Z</time></trkpt><trkpt lat="46.345126520975846" lon="12.59222874803694"><ele>935.0</ele><time>2026-04-23T11:02:21Z</time></trkpt><trkpt lat="46.345134828485975" lon="12.592339548277337"><ele>935.0000000000001</ele><time>2026-04-23T11:02:21.999Z</time></trkpt><trkpt lat="46.34514740828496" lon="12.59245233278727"><ele>935.0000000000001</ele><time>2026-04-23T11:02:22.999Z</time></trkpt><trkpt lat="46.34516148099872" lon="12.592551821222916"><ele>935.0</ele><time>2026-04-23T11:02:23.999Z</time></trkpt><trkpt lat="46.34517047514731" lon="12.592654259659534"><ele>935.0000000000001</ele><time>2026-04-23T11:02:24.999Z</time></trkpt><trkpt lat="46.3451816396227" lon="12.592765667442333"><ele>935.0000000000001</ele><time>2026-04-23T11:02:25.999Z</time></trkpt><trkpt lat="46.34519681749299" lon="12.592869552626617"><ele>935.5</ele><time>2026-04-23T11:02:26.999Z</time></trkpt><trkpt lat="46.34520667077283" lon="12.593042403849296"><ele>936.0</ele><time>2026-04-23T11:02:28.999Z</time></trkpt><trkpt lat="46.34516846754672" lon="12.593216179008548"><ele>936.5</ele><time>2026-04-23T11:02:30.999Z</time></trkpt><trkpt lat="46.34507397242351" lon="12.593349118421497"><ele>937.0</ele><time>2026-04-23T11:02:32.999Z</time></trkpt><trkpt lat="46.345008351705694" lon="12.59342870737736"><ele>936.9999999999999</ele><time>2026-04-23T11:02:33.999Z</time></trkpt><trkpt lat="46.34494710770013" lon="12.593519358135016"><ele>937.0</ele><time>2026-04-23T11:02:34.999Z</time></trkpt><trkpt lat="46.344888854840484" lon="12.59362122232048"><ele>937.0</ele><time>2026-04-23T11:02:35.999Z</time></trkpt><trkpt lat="46.34483926292154" lon="12.593726323122386"><ele>937.0</ele><time>2026-04-23T11:02:36.999Z</time></trkpt><trkpt lat="46.34479245208295" lon="12.5938323567824"><ele>936.9999999999999</ele><time>2026-04-23T11:02:37.999Z</time></trkpt><trkpt lat="46.34474878706481" lon="12.593924708578355"><ele>937.0</ele><time>2026-04-23T11:02:38.999Z</time></trkpt><trkpt lat="46.34470410744719" lon="12.594015177097239"><ele>937.8333333333333</ele><time>2026-04-23T11:02:39.999Z</time></trkpt><trkpt lat="46.34465180150585" lon="12.594101245485433"><ele>938.6666666666666</ele><time>2026-04-23T11:02:40.999Z</time></trkpt><trkpt lat="46.344598567901215" lon="12.59418848153283"><ele>939.5</ele><time>2026-04-23T11:02:41.999Z</time></trkpt><trkpt lat="46.344546272661844" lon="12.594279935353821"><ele>940.3333333333333</ele><time>2026-04-23T11:02:42.999Z</time></trkpt><trkpt lat="46.34449435913045" lon="12.594372208962394"><ele>941.1666666666666</ele><time>2026-04-23T11:02:43.999Z</time></trkpt><trkpt lat="46.34444613864196" lon="12.594459349119361"><ele>942.0</ele><time>2026-04-23T11:02:44.999Z</time></trkpt><trkpt lat="46.344404619274385" lon="12.59454142892555"><ele>942.0</ele><time>2026-04-23T11:02:45.999Z</time></trkpt><trkpt lat="46.34436916079166" lon="12.594620526099495"><ele>942.0</ele><time>2026-04-23T11:02:46.999Z</time></trkpt><trkpt lat="46.344281749032746" lon="12.594719073812149"><ele>942.0</ele><time>2026-04-23T11:02:48.999Z</time></trkpt><trkpt lat="46.34421504489737" lon="12.594753102462962"><ele>942.0</ele><time>2026-04-23T11:02:49.999Z</time></trkpt><trkpt lat="46.34414184519903" lon="12.594759121788321"><ele>942.0</ele><time>2026-04-23T11:02:50.999Z</time></trkpt><trkpt lat="46.344067223753775" lon="12.594766250326288"><ele>942.0</ele><time>2026-04-23T11:02:51.999Z</time></trkpt><trkpt lat="46.34399476701584" lon="12.59477739110153"><ele>942.0000000000001</ele><time>2026-04-23T11:02:52.999Z</time></trkpt><trkpt lat="46.343928653192634" lon="12.594810432174217"><ele>942.0</ele><time>2026-04-23T11:02:53.999Z</time></trkpt><trkpt lat="46.34387043119111" lon="12.594861088248852"><ele>942.0000000000001</ele><time>2026-04-23T11:02:54.999Z</time></trkpt><trkpt lat="46.343816680293436" lon="12.594928167395276"><ele>942.0000000000001</ele><time>2026-04-23T11:02:55.999Z</time></trkpt><trkpt lat="46.3437697513143" lon="12.59501639757202"><ele>942.0</ele><time>2026-04-23T11:02:56.999Z</time></trkpt><trkpt lat="46.34372711205987" lon="12.595104373442252"><ele>942.0000000000001</ele><time>2026-04-23T11:02:57.999Z</time></trkpt><trkpt lat="46.34368873224437" lon="12.595192577213377"><ele>942.0000000000001</ele><time>2026-04-23T11:02:58.999Z</time></trkpt><trkpt lat="46.343645309705664" lon="12.595270593948898"><ele>945.2</ele><time>2026-04-23T11:02:59.999Z</time></trkpt><trkpt lat="46.34359521919212" lon="12.595335564820953"><ele>948.4000000000001</ele><time>2026-04-23T11:03:00.999Z</time></trkpt><trkpt lat="46.343527967962686" lon="12.595389364231966"><ele>951.5999999999999</ele><time>2026-04-23T11:03:01.999Z</time></trkpt><trkpt lat="46.34345708739233" lon="12.595425902507682"><ele>954.8</ele><time>2026-04-23T11:03:02.999Z</time></trkpt><trkpt lat="46.34335563674658" lon="12.5955171821721"><ele>958.0</ele><time>2026-04-23T11:03:04.999Z</time></trkpt><trkpt lat="46.34329035901449" lon="12.595674741749615"><ele>957.9999999999999</ele><time>2026-04-23T11:03:06.999Z</time></trkpt><trkpt lat="46.343257937443106" lon="12.595761246990492"><ele>958.0</ele><time>2026-04-23T11:03:07.999Z</time></trkpt><trkpt lat="46.34322699929665" lon="12.595841343992824"><ele>958.0</ele><time>2026-04-23T11:03:08.999Z</time></trkpt><trkpt lat="46.34317701275839" lon="12.59599739547187"><ele>958.0</ele><time>2026-04-23T11:03:10.999Z</time></trkpt><trkpt lat="46.3431519199461" lon="12.596090360073037"><ele>957.9999999999999</ele><time>2026-04-23T11:03:11.999Z</time></trkpt><trkpt lat="46.343132439750754" lon="12.596182156607032"><ele>958.0</ele><time>2026-04-23T11:03:12.999Z</time></trkpt><trkpt lat="46.343119049944626" lon="12.596281746993846"><ele>957.3333333333333</ele><time>2026-04-23T11:03:13.999Z</time></trkpt><trkpt lat="46.34309659268535" lon="12.596473219383032"><ele>956.6666666666666</ele><time>2026-04-23T11:03:15.999Z</time></trkpt><trkpt lat="46.34309129581492" lon="12.596588911785515"><ele>956.0</ele><time>2026-04-23T11:03:16.999Z</time></trkpt><trkpt lat="46.34308758788949" lon="12.596699615983372"><ele>955.3333333333333</ele><time>2026-04-23T11:03:17.999Z</time></trkpt><trkpt lat="46.34308632036533" lon="12.596804762102574"><ele>954.6666666666666</ele><time>2026-04-23T11:03:18.999Z</time></trkpt><trkpt lat="46.34308474336866" lon="12.596899605230323"><ele>954.0</ele><time>2026-04-23T11:03:19.999Z</time></trkpt><trkpt lat="46.34308536647609" lon="12.597066664098023"><ele>954.0</ele><time>2026-04-23T11:03:21.999Z</time></trkpt><trkpt lat="46.34305331345182" lon="12.5971803936177"><ele>954.0</ele><time>2026-04-23T11:03:23.999Z</time></trkpt><trkpt lat="46.34305050718773" lon="12.597274506969383"><ele>954.0</ele><time>2026-04-23T11:03:26.999Z</time></trkpt><trkpt lat="46.34309806496973" lon="12.597164750649606"><ele>954.0</ele><time>2026-04-23T11:03:30.998Z</time></trkpt><trkpt lat="46.343074651644514" lon="12.59697436695948"><ele>954.0</ele><time>2026-04-23T11:03:32.998Z</time></trkpt><trkpt lat="46.34307531093489" lon="12.59686988897794"><ele>954.0</ele><time>2026-04-23T11:03:33.998Z</time></trkpt><trkpt lat="46.34308289905824" lon="12.596759659780265"><ele>953.6666666666666</ele><time>2026-04-23T11:03:34.998Z</time></trkpt><trkpt lat="46.3430884541429" lon="12.596643144416163"><ele>953.3333333333333</ele><time>2026-04-23T11:03:35.998Z</time></trkpt><trkpt lat="46.343089840746714" lon="12.59653655574048"><ele>953.0</ele><time>2026-04-23T11:03:36.998Z</time></trkpt><trkpt lat="46.343093131166036" lon="12.596434183980291"><ele>952.6666666666666</ele><time>2026-04-23T11:03:37.998Z</time></trkpt><trkpt lat="46.3431031225996" lon="12.596326844952863"><ele>952.3333333333333</ele><time>2026-04-23T11:03:38.998Z</time></trkpt><trkpt lat="46.34312156928787" lon="12.596220313989205"><ele>952.0</ele><time>2026-04-23T11:03:39.998Z</time></trkpt><trkpt lat="46.34314302629737" lon="12.596116163208224"><ele>952.9999999999999</ele><time>2026-04-23T11:03:40.998Z</time></trkpt><trkpt lat="46.34316670385224" lon="12.596016339627711"><ele>954.0</ele><time>2026-04-23T11:03:41.998Z</time></trkpt><trkpt lat="46.34319335351429" lon="12.595920112132331"><ele>955.0</ele><time>2026-04-23T11:03:42.998Z</time></trkpt><trkpt lat="46.34322738393398" lon="12.595821023747721"><ele>956.0</ele><time>2026-04-23T11:03:43.998Z</time></trkpt><trkpt lat="46.34325947625136" lon="12.595737492829127"><ele>956.9999999999999</ele><time>2026-04-23T11:03:44.998Z</time></trkpt><trkpt lat="46.343322924338366" lon="12.59559045289948"><ele>958.0</ele><time>2026-04-23T11:03:46.998Z</time></trkpt><trkpt lat="46.34336386181073" lon="12.595507076597313"><ele>958.0</ele><time>2026-04-23T11:03:47.998Z</time></trkpt><trkpt lat="46.34341152870614" lon="12.595445206585566"><ele>958.0</ele><time>2026-04-23T11:03:48.998Z</time></trkpt><trkpt lat="46.34347478828615" lon="12.595394108995869"><ele>958.0</ele><time>2026-04-23T11:03:49.998Z</time></trkpt><trkpt lat="46.34355296109872" lon="12.595347235649605"><ele>958.0</ele><time>2026-04-23T11:03:50.998Z</time></trkpt><trkpt lat="46.34362116492343" lon="12.59529529575876"><ele>958.0</ele><time>2026-04-23T11:03:51.998Z</time></trkpt><trkpt lat="46.34367811597577" lon="12.595234310670977"><ele>958.0</ele><time>2026-04-23T11:03:52.998Z</time></trkpt><trkpt lat="46.34372288547795" lon="12.59514459558662"><ele>958.0</ele><time>2026-04-23T11:03:53.998Z</time></trkpt><trkpt lat="46.34376533324468" lon="12.595039718066529"><ele>956.8333333333333</ele><time>2026-04-23T11:03:54.998Z</time></trkpt><trkpt lat="46.34381580157679" lon="12.594944313436487"><ele>955.6666666666666</ele><time>2026-04-23T11:03:55.998Z</time></trkpt><trkpt lat="46.34386517914218" lon="12.594863066452689"><ele>954.5</ele><time>2026-04-23T11:03:56.998Z</time></trkpt><trkpt lat="46.3439207127051" lon="12.594698293197935"><ele>953.3333333333333</ele><time>2026-04-23T11:03:58.998Z</time></trkpt><trkpt lat="46.34394951756335" lon="12.594602008211751"><ele>952.1666666666666</ele><time>2026-04-23T11:03:59.998Z</time></trkpt><trkpt lat="46.34398807240002" lon="12.594518976895998"><ele>951.0</ele><time>2026-04-23T11:04:00.998Z</time></trkpt><trkpt lat="46.34403796251544" lon="12.594443152076241"><ele>951.0</ele><time>2026-04-23T11:04:01.998Z</time></trkpt><trkpt lat="46.34409551851806" lon="12.594357592490846"><ele>951.0</ele><time>2026-04-23T11:04:02.998Z</time></trkpt><trkpt lat="46.34415942689039" lon="12.594260363283563"><ele>951.0</ele><time>2026-04-23T11:04:03.998Z</time></trkpt><trkpt lat="46.34422110180388" lon="12.59417245268961"><ele>951.0</ele><time>2026-04-23T11:04:04.998Z</time></trkpt><trkpt lat="46.34428825104919" lon="12.59408738414403"><ele>951.0</ele><time>2026-04-23T11:04:06Z</time></trkpt><trkpt lat="46.34435309379621" lon="12.593980958194216"><ele>951.0</ele><time>2026-04-23T11:04:07Z</time></trkpt><trkpt lat="46.34441139544203" lon="12.593893061285888"><ele>951.0</ele><time>2026-04-23T11:04:08Z</time></trkpt><trkpt lat="46.344456372482675" lon="12.593818281851334"><ele>951.0</ele><time>2026-04-23T11:04:09Z</time></trkpt><trkpt lat="46.344499570696215" lon="12.593743213383272"><ele>951.0</ele><time>2026-04-23T11:04:10Z</time></trkpt><trkpt lat="46.34454482330543" lon="12.593670406205733"><ele>951.0</ele><time>2026-04-23T11:04:11Z</time></trkpt><trkpt lat="46.34459926753913" lon="12.59360324814275"><ele>951.0</ele><time>2026-04-23T11:04:12Z</time></trkpt><trkpt lat="46.3446604378582" lon="12.593572470840645"><ele>951.0</ele><time>2026-04-23T11:04:13Z</time></trkpt><trkpt lat="46.34473625919713" lon="12.593552229831438"><ele>951.0</ele><time>2026-04-23T11:04:14Z</time></trkpt><trkpt lat="46.34482124345977" lon="12.593513929955447"><ele>948.6666666666666</ele><time>2026-04-23T11:04:15Z</time></trkpt><trkpt lat="46.34489877979573" lon="12.593456091259803"><ele>946.3333333333333</ele><time>2026-04-23T11:04:16Z</time></trkpt><trkpt lat="46.34496929866407" lon="12.593396066093774"><ele>944.0</ele><time>2026-04-23T11:04:17Z</time></trkpt><trkpt lat="46.345040508279205" lon="12.593338735191685"><ele>941.6666666666666</ele><time>2026-04-23T11:04:18Z</time></trkpt><trkpt lat="46.34510551443847" lon="12.593283574207542"><ele>939.3333333333333</ele><time>2026-04-23T11:04:19Z</time></trkpt><trkpt lat="46.34515549351438" lon="12.593225214899393"><ele>937.0</ele><time>2026-04-23T11:04:20Z</time></trkpt><trkpt lat="46.345205501591295" lon="12.593085675223817"><ele>936.9999999999999</ele><time>2026-04-23T11:04:21.999Z</time></trkpt><trkpt lat="46.34521827964714" lon="12.592993638772443"><ele>937.0</ele><time>2026-04-23T11:04:22.999Z</time></trkpt><trkpt lat="46.34522314160258" lon="12.59288591541598"><ele>937.0</ele><time>2026-04-23T11:04:23.999Z</time></trkpt><trkpt lat="46.345215436106905" lon="12.592782998986891"><ele>937.0</ele><time>2026-04-23T11:04:24.999Z</time></trkpt><trkpt lat="46.34519057962011" lon="12.592673166455672"><ele>936.9999999999999</ele><time>2026-04-23T11:04:25.999Z</time></trkpt><trkpt lat="46.34517379231667" lon="12.592548819260175"><ele>937.0</ele><time>2026-04-23T11:04:26.999Z</time></trkpt><trkpt lat="46.34515660415086" lon="12.592418541985452"><ele>936.6666666666666</ele><time>2026-04-23T11:04:27.999Z</time></trkpt><trkpt lat="46.345142690919715" lon="12.592290476393677"><ele>936.3333333333333</ele><time>2026-04-23T11:04:28.999Z</time></trkpt><trkpt lat="46.34512609872621" lon="12.592164652572633"><ele>936.0</ele><time>2026-04-23T11:04:29.999Z</time></trkpt><trkpt lat="46.34510653707248" lon="12.592045287158406"><ele>935.6666666666667</ele><time>2026-04-23T11:04:30.999Z</time></trkpt><trkpt lat="46.34508915118947" lon="12.591935678198155"><ele>935.3333333333334</ele><time>2026-04-23T11:04:31.999Z</time></trkpt><trkpt lat="46.345066651362636" lon="12.59180263771334"><ele>935.0</ele><time>2026-04-23T11:04:32.999Z</time></trkpt><trkpt lat="46.34503963258991" lon="12.591661350289774"><ele>934.4</ele><time>2026-04-23T11:04:33.999Z</time></trkpt><trkpt lat="46.34500033766788" lon="12.59151397520909"><ele>933.8</ele><time>2026-04-23T11:04:34.999Z</time></trkpt><trkpt lat="46.344949660637184" lon="12.591373599659326"><ele>933.2</ele><time>2026-04-23T11:04:35.999Z</time></trkpt><trkpt lat="46.344895052543464" lon="12.591254058983951"><ele>932.6</ele><time>2026-04-23T11:04:36.999Z</time></trkpt><trkpt lat="46.34484445229649" lon="12.591133560136914"><ele>932.0</ele><time>2026-04-23T11:04:37.999Z</time></trkpt><trkpt lat="46.34481758254539" lon="12.590980786199111"><ele>931.5</ele><time>2026-04-23T11:04:38.999Z</time></trkpt><trkpt lat="46.34481036179354" lon="12.59080537097185"><ele>931.0</ele><time>2026-04-23T11:04:39.999Z</time></trkpt><trkpt lat="46.344797744865815" lon="12.590629577448793"><ele>930.5</ele><time>2026-04-23T11:04:40.999Z</time></trkpt><trkpt lat="46.344771727490624" lon="12.59045477965806"><ele>930.0</ele><time>2026-04-23T11:04:41.999Z</time></trkpt><trkpt lat="46.34473909912164" lon="12.590286723349701"><ele>930.25</ele><time>2026-04-23T11:04:42.999Z</time></trkpt><trkpt lat="46.34470242087464" lon="12.590113094433356"><ele>930.5</ele><time>2026-04-23T11:04:43.999Z</time></trkpt><trkpt lat="46.34466545692386" lon="12.589933364328534"><ele>930.75</ele><time>2026-04-23T11:04:44.999Z</time></trkpt><trkpt lat="46.344632251963546" lon="12.589752289274427"><ele>931.0</ele><time>2026-04-23T11:04:45.999Z</time></trkpt><trkpt lat="46.34461613949892" lon="12.589569149523783"><ele>931.0</ele><time>2026-04-23T11:04:46.999Z</time></trkpt><trkpt lat="46.3446055858547" lon="12.589394854173745"><ele>931.0</ele><time>2026-04-23T11:04:47.999Z</time></trkpt><trkpt lat="46.34459072407952" lon="12.589223022756004"><ele>931.0</ele><time>2026-04-23T11:04:48.999Z</time></trkpt><trkpt lat="46.344557890432185" lon="12.589048339455616"><ele>931.0</ele><time>2026-04-23T11:04:49.999Z</time></trkpt><trkpt lat="46.34450653405527" lon="12.588872542914334"><ele>931.0</ele><time>2026-04-23T11:04:50.999Z</time></trkpt><trkpt lat="46.344453643843764" lon="12.588695007415287"><ele>931.0</ele><time>2026-04-23T11:04:51.999Z</time></trkpt><trkpt lat="46.344398073635155" lon="12.588525306367066"><ele>931.0</ele><time>2026-04-23T11:04:52.999Z</time></trkpt><trkpt lat="46.344334391125706" lon="12.58836652454527"><ele>931.0</ele><time>2026-04-23T11:04:53.999Z</time></trkpt><trkpt lat="46.344270535301476" lon="12.58820730414265"><ele>931.0</ele><time>2026-04-23T11:04:54.999Z</time></trkpt><trkpt lat="46.34420507945018" lon="12.588052450309648"><ele>930.9999999999999</ele><time>2026-04-23T11:04:55.999Z</time></trkpt><trkpt lat="46.34414895539823" lon="12.587911656934281"><ele>930.9999999999999</ele><time>2026-04-23T11:04:56.999Z</time></trkpt><trkpt lat="46.34410574244607" lon="12.587783554409528"><ele>931.0</ele><time>2026-04-23T11:04:57.999Z</time></trkpt><trkpt lat="46.34406798621825" lon="12.587670318291899"><ele>931.0</ele><time>2026-04-23T11:04:58.999Z</time></trkpt><trkpt lat="46.34403528372407" lon="12.587566778442111"><ele>931.1666666666666</ele><time>2026-04-23T11:04:59.999Z</time></trkpt><trkpt lat="46.34401075458998" lon="12.587470112536174"><ele>931.3333333333333</ele><time>2026-04-23T11:05:00.999Z</time></trkpt><trkpt lat="46.34398333848115" lon="12.587379259039533"><ele>931.5</ele><time>2026-04-23T11:05:01.999Z</time></trkpt><trkpt lat="46.343951890399154" lon="12.58724260972806"><ele>931.6666666666667</ele><time>2026-04-23T11:05:02.999Z</time></trkpt><trkpt lat="46.343919583998364" lon="12.587089979180119"><ele>931.8333333333334</ele><time>2026-04-23T11:05:03.999Z</time></trkpt><trkpt lat="46.34389256211846" lon="12.586963733426112"><ele>932.0</ele><time>2026-04-23T11:05:04.999Z</time></trkpt><trkpt lat="46.343860715117046" lon="12.586811361389326"><ele>936.5</ele><time>2026-04-23T11:05:05.999Z</time></trkpt><trkpt lat="46.34383385843517" lon="12.586644383928572"><ele>941.0</ele><time>2026-04-23T11:05:06.999Z</time></trkpt><trkpt lat="46.343804286547154" lon="12.586469821447164"><ele>945.5</ele><time>2026-04-23T11:05:07.999Z</time></trkpt><trkpt lat="46.34378519768297" lon="12.586300665238417"><ele>950.0</ele><time>2026-04-23T11:05:08.999Z</time></trkpt><trkpt lat="46.34377196186769" lon="12.58613603856912"><ele>950.0</ele><time>2026-04-23T11:05:09.999Z</time></trkpt><trkpt lat="46.34374707659528" lon="12.585982679395679"><ele>950.0</ele><time>2026-04-23T11:05:10.999Z</time></trkpt><trkpt lat="46.34372054923836" lon="12.585840837757091"><ele>950.0</ele><time>2026-04-23T11:05:11.999Z</time></trkpt><trkpt lat="46.343696041025105" lon="12.585708656566352"><ele>950.0</ele><time>2026-04-23T11:05:12.999Z</time></trkpt><trkpt lat="46.34367738416137" lon="12.585585928493622"><ele>950.0</ele><time>2026-04-23T11:05:13.999Z</time></trkpt><trkpt lat="46.34365018050026" lon="12.58545620906792"><ele>947.0000000000001</ele><time>2026-04-23T11:05:14.999Z</time></trkpt><trkpt lat="46.34362057867861" lon="12.585342120449788"><ele>944.0</ele><time>2026-04-23T11:05:15.999Z</time></trkpt><trkpt lat="46.34359276370487" lon="12.585228114492496"><ele>941.0</ele><time>2026-04-23T11:05:16.999Z</time></trkpt><trkpt lat="46.34356024764028" lon="12.585126758933145"><ele>938.0</ele><time>2026-04-23T11:05:17.999Z</time></trkpt><trkpt lat="46.34351421447056" lon="12.585047900077182"><ele>935.0000000000001</ele><time>2026-04-23T11:05:18.999Z</time></trkpt><trkpt lat="46.343464245972456" lon="12.584967652975319"><ele>932.0</ele><time>2026-04-23T11:05:19.999Z</time></trkpt><trkpt lat="46.34339765343047" lon="12.584881706992118"><ele>932.0</ele><time>2026-04-23T11:05:20.999Z</time></trkpt><trkpt lat="46.3433250663173" lon="12.584781081402793"><ele>932.0</ele><time>2026-04-23T11:05:21.999Z</time></trkpt><trkpt lat="46.34325578928188" lon="12.584686642788641"><ele>932.0</ele><time>2026-04-23T11:05:22.999Z</time></trkpt><trkpt lat="46.34318229154206" lon="12.584596717214502"><ele>932.0</ele><time>2026-04-23T11:05:23.999Z</time></trkpt><trkpt lat="46.34310748853958" lon="12.584500367343654"><ele>932.0</ele><time>2026-04-23T11:05:24.999Z</time></trkpt><trkpt lat="46.343033767238104" lon="12.584376778862566"><ele>931.6</ele><time>2026-04-23T11:05:25.999Z</time></trkpt><trkpt lat="46.34297072422948" lon="12.58425799348183"><ele>931.2</ele><time>2026-04-23T11:05:26.999Z</time></trkpt><trkpt lat="46.34288898962357" lon="12.5841547701053"><ele>930.8</ele><time>2026-04-23T11:05:27.999Z</time></trkpt><trkpt lat="46.34280329426545" lon="12.58405163117727"><ele>930.4</ele><time>2026-04-23T11:05:28.999Z</time></trkpt><trkpt lat="46.34272261038455" lon="12.583944039980222"><ele>930.0</ele><time>2026-04-23T11:05:29.999Z</time></trkpt><trkpt lat="46.342649522976984" lon="12.583818937793863"><ele>930.0</ele><time>2026-04-23T11:05:30.999Z</time></trkpt><trkpt lat="46.34260229826864" lon="12.583687637472233"><ele>930.0</ele><time>2026-04-23T11:05:31.999Z</time></trkpt><trkpt lat="46.342565508618286" lon="12.583569915099574"><ele>930.0</ele><time>2026-04-23T11:05:32.999Z</time></trkpt><trkpt lat="46.34251619417313" lon="12.583473713633479"><ele>930.0</ele><time>2026-04-23T11:05:33.998Z</time></trkpt><trkpt lat="46.34244232543117" lon="12.583379170975357"><ele>930.0</ele><time>2026-04-23T11:05:34.998Z</time></trkpt><trkpt lat="46.34234474467337" lon="12.583291830351603"><ele>929.25</ele><time>2026-04-23T11:05:35.998Z</time></trkpt><trkpt lat="46.342240370974736" lon="12.583213782867285"><ele>928.5</ele><time>2026-04-23T11:05:36.998Z</time></trkpt><trkpt lat="46.34214954817015" lon="12.583125210999095"><ele>927.75</ele><time>2026-04-23T11:05:37.998Z</time></trkpt><trkpt lat="46.34207946711259" lon="12.58299550404342"><ele>927.0</ele><time>2026-04-23T11:05:38.998Z</time></trkpt><trkpt lat="46.34201374602879" lon="12.582845726917336"><ele>927.0</ele><time>2026-04-23T11:05:39.998Z</time></trkpt><trkpt lat="46.3419542109197" lon="12.582682602453277"><ele>927.0</ele><time>2026-04-23T11:05:40.998Z</time></trkpt><trkpt lat="46.341894001879645" lon="12.582509932475311"><ele>927.0</ele><time>2026-04-23T11:05:41.998Z</time></trkpt><trkpt lat="46.341835024429294" lon="12.582326444986426"><ele>927.0</ele><time>2026-04-23T11:05:42.998Z</time></trkpt><trkpt lat="46.34177596008205" lon="12.582144043989091"><ele>929.25</ele><time>2026-04-23T11:05:43.998Z</time></trkpt><trkpt lat="46.34171697487228" lon="12.5819679653698"><ele>931.5</ele><time>2026-04-23T11:05:44.998Z</time></trkpt><trkpt lat="46.34166920842984" lon="12.581792679301858"><ele>933.75</ele><time>2026-04-23T11:05:45.998Z</time></trkpt><trkpt lat="46.34163054960997" lon="12.581622084062953"><ele>936.0</ele><time>2026-04-23T11:05:46.998Z</time></trkpt><trkpt lat="46.3415889610654" lon="12.58145302311482"><ele>936.0</ele><time>2026-04-23T11:05:47.998Z</time></trkpt><trkpt lat="46.34153848522098" lon="12.581292557782719"><ele>935.9999999999999</ele><time>2026-04-23T11:05:48.998Z</time></trkpt><trkpt lat="46.34148323461815" lon="12.581157174539456"><ele>935.9999999999999</ele><time>2026-04-23T11:05:49.998Z</time></trkpt><trkpt lat="46.34143203207374" lon="12.581038261743108"><ele>936.0</ele><time>2026-04-23T11:05:50.998Z</time></trkpt><trkpt lat="46.341385602067476" lon="12.580902303036348"><ele>936.0</ele><time>2026-04-23T11:05:51.998Z</time></trkpt><trkpt lat="46.341354128616224" lon="12.580743770411805"><ele>930.0</ele><time>2026-04-23T11:05:52.998Z</time></trkpt><trkpt lat="46.34133223827887" lon="12.580566782480886"><ele>924.0</ele><time>2026-04-23T11:05:53.998Z</time></trkpt><trkpt lat="46.3412868614106" lon="12.580393077468843"><ele>918.0</ele><time>2026-04-23T11:05:54.998Z</time></trkpt><trkpt lat="46.34122797987011" lon="12.58022683477611"><ele>912.0</ele><time>2026-04-23T11:05:55.998Z</time></trkpt><trkpt lat="46.3411700148075" lon="12.580076929798938"><ele>911.4000000000001</ele><time>2026-04-23T11:05:56.998Z</time></trkpt><trkpt lat="46.34110707508692" lon="12.579936757286978"><ele>910.8000000000001</ele><time>2026-04-23T11:05:57.998Z</time></trkpt><trkpt lat="46.34104543508173" lon="12.579810737719475"><ele>910.2</ele><time>2026-04-23T11:05:58.998Z</time></trkpt><trkpt lat="46.34098975242403" lon="12.579701865326957"><ele>909.6</ele><time>2026-04-23T11:05:59.998Z</time></trkpt><trkpt lat="46.34093998078206" lon="12.579591932090457"><ele>909.0</ele><time>2026-04-23T11:06:00.998Z</time></trkpt><trkpt lat="46.340903689308846" lon="12.579446271977677"><ele>908.4000000000001</ele><time>2026-04-23T11:06:01.998Z</time></trkpt><trkpt lat="46.34089042153642" lon="12.579285314566617"><ele>907.8000000000001</ele><time>2026-04-23T11:06:02.998Z</time></trkpt><trkpt lat="46.34089112703308" lon="12.579116353695534"><ele>907.1999999999999</ele><time>2026-04-23T11:06:03.998Z</time></trkpt><trkpt lat="46.34088855082183" lon="12.578958418173753"><ele>906.5999999999999</ele><time>2026-04-23T11:06:04.998Z</time></trkpt><trkpt lat="46.340881410164826" lon="12.57880513884212"><ele>906.0</ele><time>2026-04-23T11:06:05.998Z</time></trkpt><trkpt lat="46.3408630407715" lon="12.578670269379092"><ele>907.5</ele><time>2026-04-23T11:06:06.998Z</time></trkpt><trkpt lat="46.34083515690808" lon="12.578539959433911"><ele>909.0</ele><time>2026-04-23T11:06:07.998Z</time></trkpt><trkpt lat="46.34080729698316" lon="12.578377871316665"><ele>910.5</ele><time>2026-04-23T11:06:08.998Z</time></trkpt><trkpt lat="46.34078528595498" lon="12.57820174067735"><ele>912.0</ele><time>2026-04-23T11:06:09.998Z</time></trkpt><trkpt lat="46.34076571850928" lon="12.578029792579049"><ele>912.0</ele><time>2026-04-23T11:06:11Z</time></trkpt><trkpt lat="46.34074865157711" lon="12.57787052751693"><ele>912.0</ele><time>2026-04-23T11:06:12Z</time></trkpt><trkpt lat="46.34074080604233" lon="12.577713722493154"><ele>912.0</ele><time>2026-04-23T11:06:13Z</time></trkpt><trkpt lat="46.34076098867113" lon="12.577539135723242"><ele>912.0</ele><time>2026-04-23T11:06:14Z</time></trkpt><trkpt lat="46.34079215667986" lon="12.577361805885346"><ele>912.75</ele><time>2026-04-23T11:06:15Z</time></trkpt><trkpt lat="46.340817836945" lon="12.577178812063728"><ele>913.5</ele><time>2026-04-23T11:06:16Z</time></trkpt><trkpt lat="46.340844800264435" lon="12.576996149316457"><ele>914.25</ele><time>2026-04-23T11:06:17Z</time></trkpt><trkpt lat="46.34088016713476" lon="12.576822134102171"><ele>915.0</ele><time>2026-04-23T11:06:18Z</time></trkpt><trkpt lat="46.34091644539037" lon="12.576658567274746"><ele>913.6</ele><time>2026-04-23T11:06:19Z</time></trkpt><trkpt lat="46.34095168216798" lon="12.576499989153096"><ele>912.2</ele><time>2026-04-23T11:06:19.999Z</time></trkpt><trkpt lat="46.34100157068745" lon="12.576355117241103"><ele>910.8</ele><time>2026-04-23T11:06:20.999Z</time></trkpt><trkpt lat="46.34105607179161" lon="12.576221787291034"><ele>909.4</ele><time>2026-04-23T11:06:21.999Z</time></trkpt><trkpt lat="46.34108796109781" lon="12.576063732028189"><ele>908.0</ele><time>2026-04-23T11:06:22.999Z</time></trkpt><trkpt lat="46.341103419157754" lon="12.575891161056534"><ele>907.25</ele><time>2026-04-23T11:06:23.999Z</time></trkpt><trkpt lat="46.341105168436705" lon="12.57570989850802"><ele>906.5</ele><time>2026-04-23T11:06:24.999Z</time></trkpt><trkpt lat="46.34109030157709" lon="12.57552748654808"><ele>905.75</ele><time>2026-04-23T11:06:25.999Z</time></trkpt><trkpt lat="46.34106045381346" lon="12.575359030158875"><ele>905.0</ele><time>2026-04-23T11:06:26.999Z</time></trkpt><trkpt lat="46.34102288064247" lon="12.575190109936575"><ele>904.75</ele><time>2026-04-23T11:06:27.999Z</time></trkpt><trkpt lat="46.34095786669945" lon="12.5750206159613"><ele>904.5</ele><time>2026-04-23T11:06:28.999Z</time></trkpt><trkpt lat="46.34087892350905" lon="12.574853944246156"><ele>904.25</ele><time>2026-04-23T11:06:29.999Z</time></trkpt><trkpt lat="46.340804184129006" lon="12.574679956196952"><ele>904.0</ele><time>2026-04-23T11:06:30.999Z</time></trkpt><trkpt lat="46.34073281938407" lon="12.57449783754277"><ele>902.5</ele><time>2026-04-23T11:06:31.999Z</time></trkpt><trkpt lat="46.34066641024449" lon="12.574314863888892"><ele>901.0</ele><time>2026-04-23T11:06:32.999Z</time></trkpt><trkpt lat="46.340604074811104" lon="12.574131995220402"><ele>899.5</ele><time>2026-04-23T11:06:33.999Z</time></trkpt><trkpt lat="46.3405435786199" lon="12.57395155170857"><ele>898.0</ele><time>2026-04-23T11:06:34.999Z</time></trkpt><trkpt lat="46.3404884062767" lon="12.573773432233223"><ele>898.0</ele><time>2026-04-23T11:06:35.999Z</time></trkpt><trkpt lat="46.34043430072844" lon="12.573597561642133"><ele>898.0</ele><time>2026-04-23T11:06:36.999Z</time></trkpt><trkpt lat="46.34037182702935" lon="12.573427367683365"><ele>898.0</ele><time>2026-04-23T11:06:37.999Z</time></trkpt><trkpt lat="46.340298136278285" lon="12.573269860314598"><ele>898.0</ele><time>2026-04-23T11:06:38.999Z</time></trkpt><trkpt lat="46.340224393375074" lon="12.573137117753346"><ele>898.0</ele><time>2026-04-23T11:06:39.999Z</time></trkpt><trkpt lat="46.3401645978884" lon="12.573015625324368"><ele>898.0</ele><time>2026-04-23T11:06:40.999Z</time></trkpt><trkpt lat="46.340117216646505" lon="12.572887731264085"><ele>898.0</ele><time>2026-04-23T11:06:41.999Z</time></trkpt><trkpt lat="46.34007715458922" lon="12.572738648109256"><ele>898.0</ele><time>2026-04-23T11:06:42.999Z</time></trkpt><trkpt lat="46.34004172158943" lon="12.57257877078056"><ele>898.0</ele><time>2026-04-23T11:06:43.999Z</time></trkpt><trkpt lat="46.34000614932609" lon="12.572413918703244"><ele>899.0</ele><time>2026-04-23T11:06:44.999Z</time></trkpt><trkpt lat="46.33997015919199" lon="12.57224841943958"><ele>900.0</ele><time>2026-04-23T11:06:45.999Z</time></trkpt><trkpt lat="46.33993381409647" lon="12.57208537999219"><ele>901.0</ele><time>2026-04-23T11:06:46.999Z</time></trkpt><trkpt lat="46.339883362213044" lon="12.571927062308012"><ele>902.0</ele><time>2026-04-23T11:06:47.999Z</time></trkpt><trkpt lat="46.339819634378145" lon="12.57176765700296"><ele>900.4000000000001</ele><time>2026-04-23T11:06:48.999Z</time></trkpt><trkpt lat="46.339765262412676" lon="12.571605411101464"><ele>898.8000000000001</ele><time>2026-04-23T11:06:49.999Z</time></trkpt><trkpt lat="46.3397204012522" lon="12.571462123264542"><ele>897.2</ele><time>2026-04-23T11:06:50.999Z</time></trkpt><trkpt lat="46.33968355559656" lon="12.571341109965973"><ele>895.6</ele><time>2026-04-23T11:06:51.999Z</time></trkpt><trkpt lat="46.33964089257701" lon="12.571217838572723"><ele>894.0</ele><time>2026-04-23T11:06:52.999Z</time></trkpt><trkpt lat="46.339582287985905" lon="12.571081564334191"><ele>894.0</ele><time>2026-04-23T11:06:53.999Z</time></trkpt><trkpt lat="46.3395120910962" lon="12.570966411017217"><ele>894.0</ele><time>2026-04-23T11:06:54.999Z</time></trkpt><trkpt lat="46.3394224545316" lon="12.570866135602266"><ele>894.0</ele><time>2026-04-23T11:06:55.999Z</time></trkpt><trkpt lat="46.33933059860505" lon="12.570733326973025"><ele>894.0</ele><time>2026-04-23T11:06:56.999Z</time></trkpt><trkpt lat="46.33924008204225" lon="12.570582590298955"><ele>894.0</ele><time>2026-04-23T11:06:57.999Z</time></trkpt><trkpt lat="46.3391351472392" lon="12.570435015232393"><ele>894.0</ele><time>2026-04-23T11:06:58.999Z</time></trkpt><trkpt lat="46.33902302367063" lon="12.570297080060259"><ele>894.0</ele><time>2026-04-23T11:06:59.999Z</time></trkpt><trkpt lat="46.33892355818841" lon="12.570177322636022"><ele>894.0</ele><time>2026-04-23T11:07:00.999Z</time></trkpt><trkpt lat="46.33881881402291" lon="12.570075087610489"><ele>894.75</ele><time>2026-04-23T11:07:01.999Z</time></trkpt><trkpt lat="46.338693041146264" lon="12.569971261324566"><ele>895.5</ele><time>2026-04-23T11:07:02.999Z</time></trkpt><trkpt lat="46.338565212547074" lon="12.569866522479503"><ele>896.25</ele><time>2026-04-23T11:07:03.999Z</time></trkpt><trkpt lat="46.33844399253781" lon="12.56977249482214"><ele>897.0</ele><time>2026-04-23T11:07:04.999Z</time></trkpt><trkpt lat="46.33833201887604" lon="12.569678179559368"><ele>897.0</ele><time>2026-04-23T11:07:05.999Z</time></trkpt><trkpt lat="46.33824576096577" lon="12.56957338789835"><ele>897.0</ele><time>2026-04-23T11:07:06.999Z</time></trkpt><trkpt lat="46.338166151461635" lon="12.56946729982643"><ele>897.0</ele><time>2026-04-23T11:07:07.999Z</time></trkpt><trkpt lat="46.33808844875404" lon="12.569366757634544"><ele>897.0</ele><time>2026-04-23T11:07:08.999Z</time></trkpt><trkpt lat="46.33802659982259" lon="12.569295889811153"><ele>897.0</ele><time>2026-04-23T11:07:09.999Z</time></trkpt><trkpt lat="46.33796019952501" lon="12.56925183190092"><ele>896.8</ele><time>2026-04-23T11:07:10.999Z</time></trkpt><trkpt lat="46.33786725748338" lon="12.569217808674185"><ele>896.6</ele><time>2026-04-23T11:07:11.999Z</time></trkpt><trkpt lat="46.3377600304098" lon="12.56919744382568"><ele>896.3999999999999</ele><time>2026-04-23T11:07:12.999Z</time></trkpt><trkpt lat="46.33764602963786" lon="12.569170602663279"><ele>896.1999999999999</ele><time>2026-04-23T11:07:13.999Z</time></trkpt><trkpt lat="46.33754936704883" lon="12.569127375677901"><ele>896.0</ele><time>2026-04-23T11:07:14.999Z</time></trkpt><trkpt lat="46.33746715408447" lon="12.56906646520888"><ele>896.0</ele><time>2026-04-23T11:07:15.999Z</time></trkpt><trkpt lat="46.33738826411043" lon="12.568967262716113"><ele>896.0</ele><time>2026-04-23T11:07:16.999Z</time></trkpt><trkpt lat="46.337269192421346" lon="12.568880285651924"><ele>896.0</ele><time>2026-04-23T11:07:17.999Z</time></trkpt><trkpt lat="46.337159772853816" lon="12.568784420316929"><ele>896.0</ele><time>2026-04-23T11:07:18.999Z</time></trkpt><trkpt lat="46.3370570379522" lon="12.568635675196816"><ele>896.0</ele><time>2026-04-23T11:07:19.999Z</time></trkpt><trkpt lat="46.336950255444286" lon="12.56847990014121"><ele>896.0</ele><time>2026-04-23T11:07:20.999Z</time></trkpt><trkpt lat="46.33683635538006" lon="12.568330438044809"><ele>896.0</ele><time>2026-04-23T11:07:21.999Z</time></trkpt><trkpt lat="46.33673602159814" lon="12.56819925264032"><ele>896.0</ele><time>2026-04-23T11:07:22.999Z</time></trkpt><trkpt lat="46.33665962160929" lon="12.56809442829056"><ele>896.0</ele><time>2026-04-23T11:07:23.999Z</time></trkpt><trkpt lat="46.3365813989086" lon="12.568013546948242"><ele>895.9999999999999</ele><time>2026-04-23T11:07:24.999Z</time></trkpt><trkpt lat="46.33650011645724" lon="12.567967391796955"><ele>895.9999999999999</ele><time>2026-04-23T11:07:25.999Z</time></trkpt><trkpt lat="46.33642548541308" lon="12.567900962402183"><ele>896.0</ele><time>2026-04-23T11:07:26.999Z</time></trkpt><trkpt lat="46.33635486843896" lon="12.567777043074036"><ele>896.0</ele><time>2026-04-23T11:07:27.999Z</time></trkpt><trkpt lat="46.336274080322504" lon="12.56761614766607"><ele>894.25</ele><time>2026-04-23T11:07:28.999Z</time></trkpt><trkpt lat="46.33617953255699" lon="12.567431652103998"><ele>892.5</ele><time>2026-04-23T11:07:29.999Z</time></trkpt><trkpt lat="46.33608608675463" lon="12.567241256287748"><ele>890.75</ele><time>2026-04-23T11:07:30.999Z</time></trkpt><trkpt lat="46.33601773983517" lon="12.56709445255035"><ele>889.0</ele><time>2026-04-23T11:07:31.999Z</time></trkpt><trkpt lat="46.33596201333741" lon="12.566977343721268"><ele>888.9999999999999</ele><time>2026-04-23T11:07:32.999Z</time></trkpt><trkpt lat="46.33591645114586" lon="12.56689133696481"><ele>889.0</ele><time>2026-04-23T11:07:33.999Z</time></trkpt><trkpt lat="46.33585778551686" lon="12.566839837725041"><ele>889.0</ele><time>2026-04-23T11:07:34.999Z</time></trkpt><trkpt lat="46.335788164610165" lon="12.566810008041594"><ele>889.0</ele><time>2026-04-23T11:07:35.999Z</time></trkpt><trkpt lat="46.335702438226214" lon="12.566800158727961"><ele>888.9999999999999</ele><time>2026-04-23T11:07:36.999Z</time></trkpt><trkpt lat="46.33561331820183" lon="12.566792004301421"><ele>889.0</ele><time>2026-04-23T11:07:37.999Z</time></trkpt><trkpt lat="46.33553341475183" lon="12.566769981212103"><ele>888.4000000000001</ele><time>2026-04-23T11:07:38.999Z</time></trkpt><trkpt lat="46.335468685335535" lon="12.566772166916625"><ele>887.8000000000001</ele><time>2026-04-23T11:07:39.999Z</time></trkpt><trkpt lat="46.335384327837964" lon="12.566690132825492"><ele>887.1999999999999</ele><time>2026-04-23T11:07:41.999Z</time></trkpt><trkpt lat="46.33534556821562" lon="12.566531806600485"><ele>886.5999999999999</ele><time>2026-04-23T11:07:43.998Z</time></trkpt><trkpt lat="46.33530356332998" lon="12.566374997198903"><ele>886.0</ele><time>2026-04-23T11:07:45.998Z</time></trkpt><trkpt lat="46.33524628498644" lon="12.566263178795245"><ele>886.0</ele><time>2026-04-23T11:07:47.998Z</time></trkpt><trkpt lat="46.335193622974124" lon="12.566201934487237"><ele>885.9999999999999</ele><time>2026-04-23T11:07:49.998Z</time></trkpt><trkpt lat="46.33505144897877" lon="12.566137109704556"><ele>885.9999999999999</ele><time>2026-04-23T11:07:56.998Z</time></trkpt><trkpt lat="46.33495258855628" lon="12.566086465759698"><ele>886.0</ele><time>2026-04-23T11:07:57.998Z</time></trkpt><trkpt lat="46.33487707982227" lon="12.566063520200709"><ele>886.0</ele><time>2026-04-23T11:07:58.998Z</time></trkpt><trkpt lat="46.33496766492017" lon="12.566078414541234"><ele>886.0</ele><time>2026-04-23T11:08:14.998Z</time></trkpt><trkpt lat="46.33508446019549" lon="12.566142393819943"><ele>886.0</ele><time>2026-04-23T11:08:15.998Z</time></trkpt><trkpt lat="46.33518901358948" lon="12.56622511010123"><ele>886.0</ele><time>2026-04-23T11:08:17Z</time></trkpt><trkpt lat="46.33528568442159" lon="12.566336406281446"><ele>886.0</ele><time>2026-04-23T11:08:18Z</time></trkpt><trkpt lat="46.33535025387045" lon="12.566455894754275"><ele>885.9999999999999</ele><time>2026-04-23T11:08:19Z</time></trkpt><trkpt lat="46.33538666401216" lon="12.566573133705162"><ele>886.0</ele><time>2026-04-23T11:08:20Z</time></trkpt><trkpt lat="46.335418444630726" lon="12.56668224153111"><ele>886.0</ele><time>2026-04-23T11:08:21Z</time></trkpt><trkpt lat="46.33544622899712" lon="12.56676449241663"><ele>886.0</ele><time>2026-04-23T11:08:22Z</time></trkpt><trkpt lat="46.33547950105161" lon="12.5668784391879"><ele>885.9999999999999</ele><time>2026-04-23T11:08:24Z</time></trkpt><trkpt lat="46.33551399234333" lon="12.567032898582259"><ele>886.0</ele><time>2026-04-23T11:08:26Z</time></trkpt><trkpt lat="46.33556437839224" lon="12.567194289282046"><ele>885.5999999999999</ele><time>2026-04-23T11:08:28Z</time></trkpt><trkpt lat="46.335580787202844" lon="12.567349868446783"><ele>885.1999999999999</ele><time>2026-04-23T11:08:30Z</time></trkpt><trkpt lat="46.335585757568595" lon="12.56750839136464"><ele>884.8000000000001</ele><time>2026-04-23T11:08:32Z</time></trkpt><trkpt lat="46.33560143038658" lon="12.567622709389248"><ele>884.4000000000001</ele><time>2026-04-23T11:08:34Z</time></trkpt><trkpt lat="46.335653605533416" lon="12.567719296959622"><ele>884.0</ele><time>2026-04-23T11:08:36Z</time></trkpt><trkpt lat="46.335722641178094" lon="12.567809203610203"><ele>884.6</ele><time>2026-04-23T11:08:38Z</time></trkpt><trkpt lat="46.335798122708255" lon="12.56791396439671"><ele>885.2</ele><time>2026-04-23T11:08:39.999Z</time></trkpt><trkpt lat="46.33586795033751" lon="12.567984362570925"><ele>885.8000000000001</ele><time>2026-04-23T11:08:41.999Z</time></trkpt><trkpt lat="46.335955331281696" lon="12.568064065341074"><ele>886.4000000000001</ele><time>2026-04-23T11:08:43.999Z</time></trkpt><trkpt lat="46.336045755877045" lon="12.56818159035838"><ele>887.0</ele><time>2026-04-23T11:08:45.999Z</time></trkpt><trkpt lat="46.33610147277643" lon="12.568320172238723"><ele>887.0</ele><time>2026-04-23T11:08:47.999Z</time></trkpt><trkpt lat="46.336155995124" lon="12.568435816034203"><ele>887.0</ele><time>2026-04-23T11:08:49.999Z</time></trkpt><trkpt lat="46.336208383766476" lon="12.568504482169994"><ele>887.0</ele><time>2026-04-23T11:08:51.999Z</time></trkpt><trkpt lat="46.33629174522631" lon="12.5686065966951"><ele>887.0</ele><time>2026-04-23T11:08:54.999Z</time></trkpt><trkpt lat="46.33638610946671" lon="12.56871479555846"><ele>887.0</ele><time>2026-04-23T11:08:56.999Z</time></trkpt><trkpt lat="46.336435324903974" lon="12.568783572069341"><ele>887.8</ele><time>2026-04-23T11:08:57.999Z</time></trkpt><trkpt lat="46.33652293975339" lon="12.568892851718092"><ele>888.6</ele><time>2026-04-23T11:08:59.999Z</time></trkpt><trkpt lat="46.33658121301614" lon="12.568935277526302"><ele>889.3999999999999</ele><time>2026-04-23T11:09:00.999Z</time></trkpt><trkpt lat="46.336641025248724" lon="12.56897257161803"><ele>890.1999999999999</ele><time>2026-04-23T11:09:01.999Z</time></trkpt><trkpt lat="46.33674110896502" lon="12.569063986894022"><ele>891.0</ele><time>2026-04-23T11:09:03.999Z</time></trkpt><trkpt lat="46.33683202165581" lon="12.569129920550177"><ele>891.0</ele><time>2026-04-23T11:09:05.999Z</time></trkpt><trkpt lat="46.33691320711169" lon="12.569188540132727"><ele>891.0</ele><time>2026-04-23T11:09:07.999Z</time></trkpt><trkpt lat="46.33696463786827" lon="12.569253513448563"><ele>891.0</ele><time>2026-04-23T11:09:10.999Z</time></trkpt><trkpt lat="46.33703872218383" lon="12.569363726638528"><ele>891.0</ele><time>2026-04-23T11:09:12.999Z</time></trkpt><trkpt lat="46.33708385378343" lon="12.56944762594169"><ele>891.0</ele><time>2026-04-23T11:09:14.999Z</time></trkpt><trkpt lat="46.337018041589864" lon="12.569503702178393"><ele>891.0</ele><time>2026-04-23T11:09:22.999Z</time></trkpt><trkpt lat="46.33695156152886" lon="12.569461929779456"><ele>891.0</ele><time>2026-04-23T11:09:24.999Z</time></trkpt><trkpt lat="46.336915065484085" lon="12.569316659647557"><ele>890.9999999999999</ele><time>2026-04-23T11:09:26.999Z</time></trkpt><trkpt lat="46.33689630727889" lon="12.569229592844385"><ele>890.9999999999999</ele><time>2026-04-23T11:09:28.999Z</time></trkpt><trkpt lat="46.3368296041345" lon="12.569146929311293"><ele>891.0</ele><time>2026-04-23T11:09:30.999Z</time></trkpt><trkpt lat="46.33674343385507" lon="12.56908464504288"><ele>891.0</ele><time>2026-04-23T11:09:32.999Z</time></trkpt><trkpt lat="46.3366586951263" lon="12.568995796549908"><ele>891.0</ele><time>2026-04-23T11:09:34.999Z</time></trkpt><trkpt lat="46.33655683375731" lon="12.56891739567673"><ele>891.0</ele><time>2026-04-23T11:09:36.999Z</time></trkpt><trkpt lat="46.33650119909852" lon="12.568871050617496"><ele>891.0</ele><time>2026-04-23T11:09:37.999Z</time></trkpt><trkpt lat="46.33641994449755" lon="12.568784660742542"><ele>891.0</ele><time>2026-04-23T11:09:39.999Z</time></trkpt><trkpt lat="46.33635674007619" lon="12.568693502382018"><ele>891.0</ele><time>2026-04-23T11:09:41.999Z</time></trkpt><trkpt lat="46.336308469447005" lon="12.568629187938946"><ele>891.0</ele><time>2026-04-23T11:09:42.999Z</time></trkpt><trkpt lat="46.33623324599247" lon="12.568518891589287"><ele>890.1999999999999</ele><time>2026-04-23T11:09:44.999Z</time></trkpt><trkpt lat="46.33616349826823" lon="12.568426983071843"><ele>889.3999999999999</ele><time>2026-04-23T11:09:46.998Z</time></trkpt><trkpt lat="46.33610409861223" lon="12.568331882937489"><ele>888.6</ele><time>2026-04-23T11:09:48.998Z</time></trkpt><trkpt lat="46.33605993759644" lon="12.568210250430347"><ele>887.8</ele><time>2026-04-23T11:09:50.998Z</time></trkpt><trkpt lat="46.33598541615095" lon="12.568090970935682"><ele>887.0</ele><time>2026-04-23T11:09:52.998Z</time></trkpt><trkpt lat="46.33588113418823" lon="12.568001021226271"><ele>887.0</ele><time>2026-04-23T11:09:54.998Z</time></trkpt><trkpt lat="46.335782043126315" lon="12.567904878332582"><ele>887.0</ele><time>2026-04-23T11:09:56.998Z</time></trkpt><trkpt lat="46.3357050695974" lon="12.567793063397868"><ele>887.0</ele><time>2026-04-23T11:09:58.998Z</time></trkpt><trkpt lat="46.33562410026429" lon="12.567666137458193"><ele>887.0</ele><time>2026-04-23T11:10:00.998Z</time></trkpt><trkpt lat="46.33558187621521" lon="12.567545927429686"><ele>887.0</ele><time>2026-04-23T11:10:02.998Z</time></trkpt><trkpt lat="46.33557317908868" lon="12.567433618472025"><ele>886.8333333333334</ele><time>2026-04-23T11:10:04.998Z</time></trkpt><trkpt lat="46.33557985564117" lon="12.567334190763901"><ele>886.6666666666667</ele><time>2026-04-23T11:10:06.998Z</time></trkpt><trkpt lat="46.33557096921175" lon="12.567221306845028"><ele>886.5</ele><time>2026-04-23T11:10:08.998Z</time></trkpt><trkpt lat="46.335538345769194" lon="12.567075265986237"><ele>886.3333333333333</ele><time>2026-04-23T11:10:10.998Z</time></trkpt><trkpt lat="46.33549916247244" lon="12.566917495728536"><ele>886.1666666666666</ele><time>2026-04-23T11:10:12.998Z</time></trkpt><trkpt lat="46.3354734980226" lon="12.566830456391761"><ele>886.0</ele><time>2026-04-23T11:10:13.998Z</time></trkpt><trkpt lat="46.335419084815946" lon="12.566686370553368"><ele>885.9999999999999</ele><time>2026-04-23T11:10:15.998Z</time></trkpt><trkpt lat="46.3353901199485" lon="12.566598322053792"><ele>886.0</ele><time>2026-04-23T11:10:16.998Z</time></trkpt><trkpt lat="46.335356544888455" lon="12.566502598989318"><ele>886.0</ele><time>2026-04-23T11:10:17.998Z</time></trkpt><trkpt lat="46.335310308039524" lon="12.566397614249746"><ele>886.0</ele><time>2026-04-23T11:10:18.998Z</time></trkpt><trkpt lat="46.33525400155591" lon="12.566291646097177"><ele>885.9999999999999</ele><time>2026-04-23T11:10:19.998Z</time></trkpt><trkpt lat="46.33518497089895" lon="12.566209623301654"><ele>886.0</ele><time>2026-04-23T11:10:20.998Z</time></trkpt><trkpt lat="46.335107764451514" lon="12.566147170437274"><ele>885.4</ele><time>2026-04-23T11:10:22Z</time></trkpt><trkpt lat="46.3350181926287" lon="12.566098884494156"><ele>884.8</ele><time>2026-04-23T11:10:23Z</time></trkpt><trkpt lat="46.334922351948215" lon="12.566074060936504"><ele>884.1999999999999</ele><time>2026-04-23T11:10:24Z</time></trkpt><trkpt lat="46.33483209029067" lon="12.566053901178023"><ele>883.5999999999999</ele><time>2026-04-23T11:10:25Z</time></trkpt><trkpt lat="46.334746948967215" lon="12.566007580824031"><ele>883.0</ele><time>2026-04-23T11:10:26Z</time></trkpt><trkpt lat="46.33466484748557" lon="12.565948339045585"><ele>882.1666666666666</ele><time>2026-04-23T11:10:27Z</time></trkpt><trkpt lat="46.33459312516475" lon="12.565885891072572"><ele>881.3333333333333</ele><time>2026-04-23T11:10:28Z</time></trkpt><trkpt lat="46.334518439828706" lon="12.565829456338864"><ele>880.5</ele><time>2026-04-23T11:10:29Z</time></trkpt><trkpt lat="46.33443260919181" lon="12.565784247794914"><ele>879.6666666666667</ele><time>2026-04-23T11:10:30Z</time></trkpt><trkpt lat="46.33433858411656" lon="12.565766205761305"><ele>878.8333333333334</ele><time>2026-04-23T11:10:31Z</time></trkpt><trkpt lat="46.33424427397086" lon="12.565745552016626"><ele>878.0</ele><time>2026-04-23T11:10:32Z</time></trkpt><trkpt lat="46.33414841647981" lon="12.565693824114403"><ele>878.0</ele><time>2026-04-23T11:10:33Z</time></trkpt><trkpt lat="46.33405079961728" lon="12.565624961070185"><ele>878.0</ele><time>2026-04-23T11:10:34Z</time></trkpt><trkpt lat="46.333948200659506" lon="12.565562124049148"><ele>878.0</ele><time>2026-04-23T11:10:35Z</time></trkpt><trkpt lat="46.333842555096915" lon="12.565503614462695"><ele>878.0</ele><time>2026-04-23T11:10:36Z</time></trkpt><trkpt lat="46.33374896826633" lon="12.565452329530206"><ele>878.0</ele><time>2026-04-23T11:10:37Z</time></trkpt><trkpt lat="46.33366180471406" lon="12.565416460117985"><ele>877.2</ele><time>2026-04-23T11:10:38Z</time></trkpt><trkpt lat="46.33356917041757" lon="12.565389201326338"><ele>876.4</ele><time>2026-04-23T11:10:39Z</time></trkpt><trkpt lat="46.333470816359004" lon="12.565348085241828"><ele>875.6000000000001</ele><time>2026-04-23T11:10:40Z</time></trkpt><trkpt lat="46.333371311920246" lon="12.565287909728164"><ele>874.8000000000001</ele><time>2026-04-23T11:10:41Z</time></trkpt><trkpt lat="46.33327341512393" lon="12.565219738433559"><ele>874.0</ele><time>2026-04-23T11:10:41.999Z</time></trkpt><trkpt lat="46.33317753707354" lon="12.56515326890786"><ele>874.0</ele><time>2026-04-23T11:10:42.999Z</time></trkpt><trkpt lat="46.33309179837448" lon="12.565072170587314"><ele>874.0000000000001</ele><time>2026-04-23T11:10:43.999Z</time></trkpt><trkpt lat="46.33300707089359" lon="12.564979405135725"><ele>874.0000000000001</ele><time>2026-04-23T11:10:44.999Z</time></trkpt><trkpt lat="46.332936877876" lon="12.56488627274453"><ele>874.0</ele><time>2026-04-23T11:10:45.999Z</time></trkpt><trkpt lat="46.33287625419205" lon="12.564791987272242"><ele>874.0</ele><time>2026-04-23T11:10:46.999Z</time></trkpt><trkpt lat="46.33283445322441" lon="12.564691319274921"><ele>874.3333333333333</ele><time>2026-04-23T11:10:47.999Z</time></trkpt><trkpt lat="46.332811740964154" lon="12.564592557060946"><ele>874.6666666666666</ele><time>2026-04-23T11:10:48.999Z</time></trkpt><trkpt lat="46.33280571644116" lon="12.564496096417624"><ele>875.0</ele><time>2026-04-23T11:10:49.999Z</time></trkpt><trkpt lat="46.33281626503915" lon="12.564400899843482"><ele>875.3333333333333</ele><time>2026-04-23T11:10:50.999Z</time></trkpt><trkpt lat="46.33281434105663" lon="12.564229613339677"><ele>875.6666666666666</ele><time>2026-04-23T11:10:52.999Z</time></trkpt><trkpt lat="46.3327587150251" lon="12.564100310424957"><ele>876.0</ele><time>2026-04-23T11:10:54.999Z</time></trkpt><trkpt lat="46.33270640874069" lon="12.564047268494022"><ele>876.0</ele><time>2026-04-23T11:10:55.999Z</time></trkpt><trkpt lat="46.332638803865905" lon="12.563990174105676"><ele>876.0</ele><time>2026-04-23T11:10:56.999Z</time></trkpt><trkpt lat="46.33255909129358" lon="12.563927943741717"><ele>876.0</ele><time>2026-04-23T11:10:57.999Z</time></trkpt><trkpt lat="46.33247746285976" lon="12.563863728054848"><ele>876.0</ele><time>2026-04-23T11:10:58.999Z</time></trkpt><trkpt lat="46.332405065053166" lon="12.563828533488877"><ele>876.0</ele><time>2026-04-23T11:10:59.999Z</time></trkpt><trkpt lat="46.332334513551224" lon="12.563826499542511"><ele>876.0</ele><time>2026-04-23T11:11:00.999Z</time></trkpt><trkpt lat="46.33226058977459" lon="12.56385693916516"><ele>874.4</ele><time>2026-04-23T11:11:01.999Z</time></trkpt><trkpt lat="46.33217367798149" lon="12.563908531690993"><ele>872.8</ele><time>2026-04-23T11:11:02.999Z</time></trkpt><trkpt lat="46.33207628250487" lon="12.563978752508106"><ele>871.1999999999999</ele><time>2026-04-23T11:11:03.999Z</time></trkpt><trkpt lat="46.33197795684635" lon="12.56405294136681"><ele>869.5999999999999</ele><time>2026-04-23T11:11:04.999Z</time></trkpt><trkpt lat="46.33189243478833" lon="12.564113254667156"><ele>868.0</ele><time>2026-04-23T11:11:05.999Z</time></trkpt><trkpt lat="46.331818354023376" lon="12.564161920530907"><ele>868.0</ele><time>2026-04-23T11:11:06.999Z</time></trkpt><trkpt lat="46.331735714772826" lon="12.564216253463284"><ele>868.0</ele><time>2026-04-23T11:11:07.999Z</time></trkpt><trkpt lat="46.331640228947386" lon="12.564266015500696"><ele>868.0</ele><time>2026-04-23T11:11:08.999Z</time></trkpt><trkpt lat="46.33154765905643" lon="12.56430769270295"><ele>868.0</ele><time>2026-04-23T11:11:09.999Z</time></trkpt><trkpt lat="46.33146446056136" lon="12.564345772695608"><ele>868.0</ele><time>2026-04-23T11:11:10.999Z</time></trkpt><trkpt lat="46.33138323004833" lon="12.564384674975877"><ele>866.8</ele><time>2026-04-23T11:11:11.999Z</time></trkpt><trkpt lat="46.331293952886035" lon="12.564433780749402"><ele>865.5999999999999</ele><time>2026-04-23T11:11:12.999Z</time></trkpt><trkpt lat="46.33120544253243" lon="12.564484181998417"><ele>864.4000000000001</ele><time>2026-04-23T11:11:13.999Z</time></trkpt><trkpt lat="46.331117400108276" lon="12.56453407690954"><ele>863.2</ele><time>2026-04-23T11:11:14.999Z</time></trkpt><trkpt lat="46.331031440893874" lon="12.564568105916692"><ele>862.0</ele><time>2026-04-23T11:11:15.999Z</time></trkpt><trkpt lat="46.33093879129122" lon="12.56459800701285"><ele>862.0</ele><time>2026-04-23T11:11:16.999Z</time></trkpt><trkpt lat="46.33083846128693" lon="12.564594915286353"><ele>862.0</ele><time>2026-04-23T11:11:17.999Z</time></trkpt><trkpt lat="46.33073968703838" lon="12.564553855263851"><ele>862.0</ele><time>2026-04-23T11:11:18.999Z</time></trkpt><trkpt lat="46.330658466154084" lon="12.564480503595405"><ele>862.0</ele><time>2026-04-23T11:11:19.999Z</time></trkpt><trkpt lat="46.330585929177715" lon="12.5643916124551"><ele>862.0</ele><time>2026-04-23T11:11:20.999Z</time></trkpt><trkpt lat="46.33050879721219" lon="12.564291633907672"><ele>863.0</ele><time>2026-04-23T11:11:21.999Z</time></trkpt><trkpt lat="46.330424088856475" lon="12.564192014184867"><ele>864.0</ele><time>2026-04-23T11:11:22.999Z</time></trkpt><trkpt lat="46.330336408473144" lon="12.564096111304028"><ele>865.0</ele><time>2026-04-23T11:11:23.999Z</time></trkpt><trkpt lat="46.33025229381922" lon="12.564004570868295"><ele>866.0</ele><time>2026-04-23T11:11:24.999Z</time></trkpt><trkpt lat="46.330173260645545" lon="12.563910098902754"><ele>867.0</ele><time>2026-04-23T11:11:25.999Z</time></trkpt><trkpt lat="46.330095967815545" lon="12.563817109423287"><ele>867.0</ele><time>2026-04-23T11:11:26.999Z</time></trkpt><trkpt lat="46.33001562536389" lon="12.563728211834057"><ele>867.0</ele><time>2026-04-23T11:11:27.999Z</time></trkpt><trkpt lat="46.329937874985276" lon="12.563635468935122"><ele>867.0</ele><time>2026-04-23T11:11:28.999Z</time></trkpt><trkpt lat="46.329860889723385" lon="12.5635273932166"><ele>867.0</ele><time>2026-04-23T11:11:29.999Z</time></trkpt><trkpt lat="46.32979336608862" lon="12.563402554077417"><ele>867.0</ele><time>2026-04-23T11:11:30.999Z</time></trkpt><trkpt lat="46.32973591259001" lon="12.56326388200429"><ele>866.8</ele><time>2026-04-23T11:11:31.999Z</time></trkpt><trkpt lat="46.32968594213698" lon="12.563122640616252"><ele>866.6</ele><time>2026-04-23T11:11:32.999Z</time></trkpt><trkpt lat="46.329651785923744" lon="12.562980842340849"><ele>866.3999999999999</ele><time>2026-04-23T11:11:33.999Z</time></trkpt><trkpt lat="46.32961195841605" lon="12.562838909630068"><ele>866.1999999999999</ele><time>2026-04-23T11:11:34.999Z</time></trkpt><trkpt lat="46.32956210945519" lon="12.562704664726551"><ele>866.0</ele><time>2026-04-23T11:11:35.999Z</time></trkpt><trkpt lat="46.329504096365326" lon="12.562568836078457"><ele>864.5999999999999</ele><time>2026-04-23T11:11:36.999Z</time></trkpt><trkpt lat="46.32944642361916" lon="12.562446157796373"><ele>863.1999999999999</ele><time>2026-04-23T11:11:37.999Z</time></trkpt><trkpt lat="46.32938096849486" lon="12.562337879928645"><ele>861.8000000000001</ele><time>2026-04-23T11:11:38.999Z</time></trkpt><trkpt lat="46.329294013119444" lon="12.562242325044508"><ele>860.4000000000001</ele><time>2026-04-23T11:11:39.999Z</time></trkpt><trkpt lat="46.32919072955442" lon="12.562174429163214"><ele>859.0</ele><time>2026-04-23T11:11:40.999Z</time></trkpt><trkpt lat="46.32907584913464" lon="12.562144769305457"><ele>859.0</ele><time>2026-04-23T11:11:41.999Z</time></trkpt><trkpt lat="46.32895205324491" lon="12.562119929205355"><ele>859.0</ele><time>2026-04-23T11:11:42.999Z</time></trkpt><trkpt lat="46.328811348486994" lon="12.562078463867161"><ele>859.0</ele><time>2026-04-23T11:11:43.999Z</time></trkpt><trkpt lat="46.32866027222696" lon="12.562033987804911"><ele>859.0</ele><time>2026-04-23T11:11:44.999Z</time></trkpt><trkpt lat="46.328500155016265" lon="12.561973220647342"><ele>859.3333333333333</ele><time>2026-04-23T11:11:45.999Z</time></trkpt><trkpt lat="46.32834071789432" lon="12.56188355641456"><ele>859.6666666666667</ele><time>2026-04-23T11:11:46.999Z</time></trkpt><trkpt lat="46.32818443462183" lon="12.561775822566174"><ele>860.0</ele><time>2026-04-23T11:11:47.999Z</time></trkpt><trkpt lat="46.328008482673916" lon="12.561670975974199"><ele>865.6666666666667</ele><time>2026-04-23T11:11:48.999Z</time></trkpt><trkpt lat="46.327818066037125" lon="12.56159299324633"><ele>871.3333333333333</ele><time>2026-04-23T11:11:49.999Z</time></trkpt><trkpt lat="46.32762404626662" lon="12.561515241646989"><ele>877.0</ele><time>2026-04-23T11:11:50.998Z</time></trkpt><trkpt lat="46.32744694462295" lon="12.561435539130974"><ele>877.0</ele><time>2026-04-23T11:11:51.998Z</time></trkpt><trkpt lat="46.32730762707761" lon="12.561368509128712"><ele>877.0</ele><time>2026-04-23T11:11:52.998Z</time></trkpt><trkpt lat="46.32718378405652" lon="12.561326502676474"><ele>877.0</ele><time>2026-04-23T11:11:53.998Z</time></trkpt><trkpt lat="46.32704608776896" lon="12.561303504362751"><ele>877.0</ele><time>2026-04-23T11:11:54.998Z</time></trkpt><trkpt lat="46.32690274988874" lon="12.561298093092713"><ele>880.5</ele><time>2026-04-23T11:11:55.998Z</time></trkpt><trkpt lat="46.32676846135043" lon="12.561296343688047"><ele>884.0</ele><time>2026-04-23T11:11:56.998Z</time></trkpt><trkpt lat="46.326654990431074" lon="12.561292965210896"><ele>887.5</ele><time>2026-04-23T11:11:57.998Z</time></trkpt><trkpt lat="46.326542531291686" lon="12.561289721172384"><ele>891.0</ele><time>2026-04-23T11:11:58.998Z</time></trkpt><trkpt lat="46.32642878976652" lon="12.561294704862071"><ele>890.0</ele><time>2026-04-23T11:11:59.998Z</time></trkpt><trkpt lat="46.32632397526096" lon="12.561297398027747"><ele>889.0</ele><time>2026-04-23T11:12:00.998Z</time></trkpt><trkpt lat="46.32623383389961" lon="12.561297149526936"><ele>888.0</ele><time>2026-04-23T11:12:01.998Z</time></trkpt><trkpt lat="46.32615222635103" lon="12.561301321177675"><ele>887.0</ele><time>2026-04-23T11:12:02.998Z</time></trkpt><trkpt lat="46.32607982460999" lon="12.56133251470694"><ele>886.0</ele><time>2026-04-23T11:12:03.998Z</time></trkpt><trkpt lat="46.326017117204096" lon="12.561407383776563"><ele>885.0</ele><time>2026-04-23T11:12:04.998Z</time></trkpt><trkpt lat="46.32596661416138" lon="12.561523030971866"><ele>885.0</ele><time>2026-04-23T11:12:05.998Z</time></trkpt><trkpt lat="46.325934384493664" lon="12.561655318010473"><ele>885.0</ele><time>2026-04-23T11:12:06.998Z</time></trkpt><trkpt lat="46.32589557760981" lon="12.561733103470658"><ele>885.0</ele><time>2026-04-23T11:12:07.998Z</time></trkpt><trkpt lat="46.325844091514256" lon="12.561790277186223"><ele>885.0</ele><time>2026-04-23T11:12:08.998Z</time></trkpt><trkpt lat="46.325725824050814" lon="12.561748946032324"><ele>885.0</ele><time>2026-04-23T11:12:10.998Z</time></trkpt><trkpt lat="46.32567768315615" lon="12.561665987379218"><ele>885.0</ele><time>2026-04-23T11:12:11.998Z</time></trkpt><trkpt lat="46.32562475275326" lon="12.561572160942802"><ele>885.0</ele><time>2026-04-23T11:12:12.998Z</time></trkpt><trkpt lat="46.32556593631139" lon="12.561479248353516"><ele>885.0</ele><time>2026-04-23T11:12:13.998Z</time></trkpt><trkpt lat="46.325503201770836" lon="12.561399079925208"><ele>885.0</ele><time>2026-04-23T11:12:14.998Z</time></trkpt><trkpt lat="46.325439485214936" lon="12.561342409879424"><ele>885.0</ele><time>2026-04-23T11:12:15.998Z</time></trkpt><trkpt lat="46.32536483030194" lon="12.561311171617616"><ele>885.0</ele><time>2026-04-23T11:12:16.998Z</time></trkpt><trkpt lat="46.3252682704657" lon="12.561310097652218"><ele>885.0</ele><time>2026-04-23T11:12:17.998Z</time></trkpt><trkpt lat="46.325166342657774" lon="12.561340954170605"><ele>886.5</ele><time>2026-04-23T11:12:18.998Z</time></trkpt><trkpt lat="46.325065342655485" lon="12.56138275934315"><ele>888.0</ele><time>2026-04-23T11:12:19.998Z</time></trkpt><trkpt lat="46.32497610727726" lon="12.561422678207007"><ele>889.5</ele><time>2026-04-23T11:12:20.998Z</time></trkpt><trkpt lat="46.32489208447744" lon="12.56145988643079"><ele>891.0</ele><time>2026-04-23T11:12:21.998Z</time></trkpt><trkpt lat="46.32481215288751" lon="12.561476271902622"><ele>892.5</ele><time>2026-04-23T11:12:22.998Z</time></trkpt><trkpt lat="46.324735392920736" lon="12.561453818561416"><ele>894.0</ele><time>2026-04-23T11:12:23.998Z</time></trkpt><trkpt lat="46.32465349310316" lon="12.5613932579603"><ele>895.0</ele><time>2026-04-23T11:12:24.998Z</time></trkpt><trkpt lat="46.32457889249101" lon="12.561295324426816"><ele>896.0000000000001</ele><time>2026-04-23T11:12:25.998Z</time></trkpt><trkpt lat="46.32451781538244" lon="12.56117130499692"><ele>897.0000000000001</ele><time>2026-04-23T11:12:26.998Z</time></trkpt><trkpt lat="46.324471578418084" lon="12.561020840804543"><ele>898.0</ele><time>2026-04-23T11:12:28Z</time></trkpt><trkpt lat="46.32444339702075" lon="12.560842595004258"><ele>899.0</ele><time>2026-04-23T11:12:29Z</time></trkpt><trkpt lat="46.324395029910384" lon="12.56068194407475"><ele>899.0</ele><time>2026-04-23T11:12:30Z</time></trkpt><trkpt lat="46.32432903402554" lon="12.560534791427894"><ele>899.0</ele><time>2026-04-23T11:12:31Z</time></trkpt><trkpt lat="46.32425103985819" lon="12.560398375799128"><ele>899.0</ele><time>2026-04-23T11:12:32Z</time></trkpt><trkpt lat="46.32417710738652" lon="12.560265798324691"><ele>899.0</ele><time>2026-04-23T11:12:33Z</time></trkpt><trkpt lat="46.3241141672891" lon="12.560134606517854"><ele>900.0</ele><time>2026-04-23T11:12:34Z</time></trkpt><trkpt lat="46.32403994805902" lon="12.560017177437912"><ele>901.0</ele><time>2026-04-23T11:12:35Z</time></trkpt><trkpt lat="46.3239424579561" lon="12.559931785266638"><ele>902.0</ele><time>2026-04-23T11:12:36Z</time></trkpt><trkpt lat="46.32382332483777" lon="12.55985550292484"><ele>903.0</ele><time>2026-04-23T11:12:37Z</time></trkpt><trkpt lat="46.32369325093929" lon="12.55977621344695"><ele>903.0</ele><time>2026-04-23T11:12:38Z</time></trkpt><trkpt lat="46.323556295807464" lon="12.5597000128047"><ele>903.0</ele><time>2026-04-23T11:12:39Z</time></trkpt><trkpt lat="46.32342595286942" lon="12.559626927022233"><ele>903.0</ele><time>2026-04-23T11:12:40Z</time></trkpt><trkpt lat="46.32331666392738" lon="12.559550846091074"><ele>903.0</ele><time>2026-04-23T11:12:41Z</time></trkpt><trkpt lat="46.32322745693398" lon="12.559447514206553"><ele>902.25</ele><time>2026-04-23T11:12:42Z</time></trkpt><trkpt lat="46.32314677371624" lon="12.559317543455526"><ele>901.5</ele><time>2026-04-23T11:12:43Z</time></trkpt><trkpt lat="46.32309195617858" lon="12.559170991601555"><ele>900.75</ele><time>2026-04-23T11:12:44Z</time></trkpt><trkpt lat="46.3230600513938" lon="12.559003743671314"><ele>900.0</ele><time>2026-04-23T11:12:45Z</time></trkpt><trkpt lat="46.32305281914522" lon="12.558820040675739"><ele>898.6</ele><time>2026-04-23T11:12:46Z</time></trkpt><trkpt lat="46.32304768718934" lon="12.558642072884618"><ele>897.2</ele><time>2026-04-23T11:12:46.999Z</time></trkpt><trkpt lat="46.32304389099941" lon="12.558485781303034"><ele>895.8</ele><time>2026-04-23T11:12:47.999Z</time></trkpt><trkpt lat="46.32302870209864" lon="12.558356139066968"><ele>894.4</ele><time>2026-04-23T11:12:48.999Z</time></trkpt><trkpt lat="46.32298879228251" lon="12.558222916349168"><ele>893.0</ele><time>2026-04-23T11:12:49.999Z</time></trkpt><trkpt lat="46.32292176637084" lon="12.558101290842979"><ele>893.0</ele><time>2026-04-23T11:12:50.999Z</time></trkpt><trkpt lat="46.32282869728957" lon="12.557984994197493"><ele>893.0</ele><time>2026-04-23T11:12:51.999Z</time></trkpt><trkpt lat="46.32273983604534" lon="12.557866725783441"><ele>893.0</ele><time>2026-04-23T11:12:52.999Z</time></trkpt><trkpt lat="46.3226624229997" lon="12.557749652222501"><ele>893.0</ele><time>2026-04-23T11:12:53.999Z</time></trkpt><trkpt lat="46.32258851408404" lon="12.557641262173192"><ele>891.0</ele><time>2026-04-23T11:12:54.999Z</time></trkpt><trkpt lat="46.32249886451788" lon="12.557547247584907"><ele>889.0</ele><time>2026-04-23T11:12:55.999Z</time></trkpt><trkpt lat="46.32238669419084" lon="12.557489540078096"><ele>887.0</ele><time>2026-04-23T11:12:56.999Z</time></trkpt><trkpt lat="46.32226069348805" lon="12.557444998771885"><ele>885.0</ele><time>2026-04-23T11:12:57.999Z</time></trkpt><trkpt lat="46.3221468441369" lon="12.557386049162188"><ele>883.6666666666666</ele><time>2026-04-23T11:12:58.999Z</time></trkpt><trkpt lat="46.322049726238134" lon="12.557325427937934"><ele>882.3333333333333</ele><time>2026-04-23T11:12:59.999Z</time></trkpt><trkpt lat="46.321969987039225" lon="12.557284346738262"><ele>881.0</ele><time>2026-04-23T11:13:00.999Z</time></trkpt><trkpt lat="46.32189554006731" lon="12.557271638698044"><ele>879.6666666666666</ele><time>2026-04-23T11:13:01.999Z</time></trkpt><trkpt lat="46.32182506092759" lon="12.557295606305555"><ele>878.3333333333333</ele><time>2026-04-23T11:13:02.999Z</time></trkpt><trkpt lat="46.32177136928" lon="12.557357366590253"><ele>877.0</ele><time>2026-04-23T11:13:03.999Z</time></trkpt><trkpt lat="46.32173186323316" lon="12.557437203861895"><ele>876.9999999999999</ele><time>2026-04-23T11:13:04.999Z</time></trkpt><trkpt lat="46.32169691286496" lon="12.557515162886745"><ele>877.0</ele><time>2026-04-23T11:13:05.999Z</time></trkpt><trkpt lat="46.32163279468748" lon="12.557623172702554"><ele>877.0</ele><time>2026-04-23T11:13:07.999Z</time></trkpt><trkpt lat="46.321541864945445" lon="12.557639460419256"><ele>877.0</ele><time>2026-04-23T11:13:09.999Z</time></trkpt><trkpt lat="46.32146943956333" lon="12.557607562053375"><ele>876.9999999999999</ele><time>2026-04-23T11:13:11.999Z</time></trkpt><trkpt lat="46.32143400078982" lon="12.55751751590259"><ele>877.0</ele><time>2026-04-23T11:13:12.999Z</time></trkpt><trkpt lat="46.32137920770609" lon="12.557412254420825"><ele>878.4999999999999</ele><time>2026-04-23T11:13:13.999Z</time></trkpt><trkpt lat="46.32130925439261" lon="12.557313333081364"><ele>880.0</ele><time>2026-04-23T11:13:14.999Z</time></trkpt><trkpt lat="46.3212147519515" lon="12.557265116302192"><ele>881.5</ele><time>2026-04-23T11:13:15.999Z</time></trkpt><trkpt lat="46.321131677537664" lon="12.557242551801307"><ele>883.0</ele><time>2026-04-23T11:13:16.999Z</time></trkpt><trkpt lat="46.32106948322121" lon="12.55720234266724"><ele>884.4999999999999</ele><time>2026-04-23T11:13:17.999Z</time></trkpt><trkpt lat="46.32102132741475" lon="12.55711783180211"><ele>886.0</ele><time>2026-04-23T11:13:18.999Z</time></trkpt><trkpt lat="46.32100138907268" lon="12.557013060029476"><ele>886.0</ele><time>2026-04-23T11:13:19.999Z</time></trkpt><trkpt lat="46.32098842562098" lon="12.556897250589405"><ele>885.9999999999999</ele><time>2026-04-23T11:13:20.999Z</time></trkpt><trkpt lat="46.320968244307416" lon="12.55675727890898"><ele>885.9999999999999</ele><time>2026-04-23T11:13:21.999Z</time></trkpt><trkpt lat="46.320960796619985" lon="12.556615036134232"><ele>886.0</ele><time>2026-04-23T11:13:22.999Z</time></trkpt><trkpt lat="46.32096250522761" lon="12.556475763444784"><ele>886.0</ele><time>2026-04-23T11:13:23.999Z</time></trkpt><trkpt lat="46.320985564596256" lon="12.55634285000256"><ele>886.0</ele><time>2026-04-23T11:13:24.999Z</time></trkpt><trkpt lat="46.32102025906828" lon="12.556221843927753"><ele>885.9999999999999</ele><time>2026-04-23T11:13:25.999Z</time></trkpt><trkpt lat="46.32107632180923" lon="12.55611689409301"><ele>885.9999999999999</ele><time>2026-04-23T11:13:26.999Z</time></trkpt><trkpt lat="46.32113049028531" lon="12.55600463396549"><ele>886.0</ele><time>2026-04-23T11:13:27.999Z</time></trkpt><trkpt lat="46.32118705972427" lon="12.555879878652048"><ele>886.0</ele><time>2026-04-23T11:13:28.999Z</time></trkpt><trkpt lat="46.32124060472552" lon="12.555734022526874"><ele>884.0</ele><time>2026-04-23T11:13:29.999Z</time></trkpt><trkpt lat="46.32128872581371" lon="12.555561939074098"><ele>882.0</ele><time>2026-04-23T11:13:30.999Z</time></trkpt><trkpt lat="46.32132825252384" lon="12.555370765562694"><ele>880.0</ele><time>2026-04-23T11:13:31.999Z</time></trkpt><trkpt lat="46.321355830379005" lon="12.55516274346855"><ele>878.0</ele><time>2026-04-23T11:13:32.999Z</time></trkpt><trkpt lat="46.32138006641215" lon="12.554962360523243"><ele>876.8333333333334</ele><time>2026-04-23T11:13:33.999Z</time></trkpt><trkpt lat="46.321397125111346" lon="12.55481731090212"><ele>875.6666666666667</ele><time>2026-04-23T11:13:34.999Z</time></trkpt><trkpt lat="46.32140948791946" lon="12.554705986843315"><ele>874.5</ele><time>2026-04-23T11:13:35.999Z</time></trkpt><trkpt lat="46.32141064499994" lon="12.554607912849516"><ele>873.3333333333333</ele><time>2026-04-23T11:13:36.999Z</time></trkpt><trkpt lat="46.32138735449339" lon="12.554507740995442"><ele>872.1666666666666</ele><time>2026-04-23T11:13:37.999Z</time></trkpt><trkpt lat="46.32133123239295" lon="12.554404164998083"><ele>871.0</ele><time>2026-04-23T11:13:38.999Z</time></trkpt><trkpt lat="46.32124117902262" lon="12.554297104572676"><ele>868.25</ele><time>2026-04-23T11:13:39.999Z</time></trkpt><trkpt lat="46.321138677653224" lon="12.554183025630241"><ele>865.5</ele><time>2026-04-23T11:13:40.999Z</time></trkpt><trkpt lat="46.321026342387775" lon="12.554066905487673"><ele>862.75</ele><time>2026-04-23T11:13:41.999Z</time></trkpt><trkpt lat="46.320922259626215" lon="12.553957165173097"><ele>860.0</ele><time>2026-04-23T11:13:42.999Z</time></trkpt><trkpt lat="46.320820929645684" lon="12.553842267474156"><ele>860.0</ele><time>2026-04-23T11:13:43.999Z</time></trkpt><trkpt lat="46.32073265060278" lon="12.55371971389055"><ele>860.0</ele><time>2026-04-23T11:13:44.999Z</time></trkpt><trkpt lat="46.320661172839486" lon="12.553594586290684"><ele>860.0</ele><time>2026-04-23T11:13:45.999Z</time></trkpt><trkpt lat="46.320589243987385" lon="12.55348243995155"><ele>860.0</ele><time>2026-04-23T11:13:46.999Z</time></trkpt><trkpt lat="46.32051219711609" lon="12.553385552253637"><ele>860.0</ele><time>2026-04-23T11:13:47.999Z</time></trkpt><trkpt lat="46.32043232338131" lon="12.553299296923564"><ele>859.8</ele><time>2026-04-23T11:13:48.999Z</time></trkpt><trkpt lat="46.32035818218759" lon="12.553207559526706"><ele>859.6</ele><time>2026-04-23T11:13:49.999Z</time></trkpt><trkpt lat="46.32028156085307" lon="12.553110553538103"><ele>859.4000000000001</ele><time>2026-04-23T11:13:50.999Z</time></trkpt><trkpt lat="46.32019587513094" lon="12.552994751053802"><ele>859.2</ele><time>2026-04-23T11:13:51.999Z</time></trkpt><trkpt lat="46.32009789660717" lon="12.552870676038498"><ele>859.0</ele><time>2026-04-23T11:13:52.998Z</time></trkpt><trkpt lat="46.31999773863828" lon="12.552748981380452"><ele>859.0</ele><time>2026-04-23T11:13:53.998Z</time></trkpt><trkpt lat="46.319905552577865" lon="12.552635207414747"><ele>859.0</ele><time>2026-04-23T11:13:54.998Z</time></trkpt><trkpt lat="46.31981918217455" lon="12.552526771869307"><ele>859.0</ele><time>2026-04-23T11:13:55.998Z</time></trkpt><trkpt lat="46.319746544625545" lon="12.552407866220188"><ele>859.0</ele><time>2026-04-23T11:13:56.998Z</time></trkpt><trkpt lat="46.31969401833136" lon="12.552271427413686"><ele>859.0</ele><time>2026-04-23T11:13:57.998Z</time></trkpt><trkpt lat="46.31966066000544" lon="12.552131449959694"><ele>859.0000000000001</ele><time>2026-04-23T11:13:58.998Z</time></trkpt><trkpt lat="46.3196376065957" lon="12.551996270082203"><ele>859.0000000000001</ele><time>2026-04-23T11:13:59.998Z</time></trkpt><trkpt lat="46.319616005610136" lon="12.551862131946152"><ele>859.0</ele><time>2026-04-23T11:14:00.998Z</time></trkpt><trkpt lat="46.31959074541179" lon="12.551720373530857"><ele>859.0</ele><time>2026-04-23T11:14:01.998Z</time></trkpt><trkpt lat="46.31955974651447" lon="12.551576520704366"><ele>857.8000000000001</ele><time>2026-04-23T11:14:02.998Z</time></trkpt><trkpt lat="46.31953166341197" lon="12.5514388770757"><ele>856.6000000000001</ele><time>2026-04-23T11:14:03.998Z</time></trkpt><trkpt lat="46.3195023273256" lon="12.551294662172086"><ele>855.4</ele><time>2026-04-23T11:14:04.998Z</time></trkpt><trkpt lat="46.3194718900059" lon="12.551147767167324"><ele>854.2</ele><time>2026-04-23T11:14:05.998Z</time></trkpt><trkpt lat="46.31944294701957" lon="12.551002333084723"><ele>853.0</ele><time>2026-04-23T11:14:06.998Z</time></trkpt><trkpt lat="46.3194090024407" lon="12.550850707283386"><ele>851.2</ele><time>2026-04-23T11:14:07.998Z</time></trkpt><trkpt lat="46.319368876753046" lon="12.55070949554236"><ele>849.4</ele><time>2026-04-23T11:14:08.998Z</time></trkpt><trkpt lat="46.319336215867516" lon="12.550588304539586"><ele>847.6</ele><time>2026-04-23T11:14:09.998Z</time></trkpt><trkpt lat="46.31929966710644" lon="12.55046156220649"><ele>845.8000000000001</ele><time>2026-04-23T11:14:10.998Z</time></trkpt><trkpt lat="46.31925778447577" lon="12.550321902039277"><ele>844.0</ele><time>2026-04-23T11:14:11.998Z</time></trkpt><trkpt lat="46.319215530986426" lon="12.550183246637488"><ele>841.6666666666666</ele><time>2026-04-23T11:14:12.998Z</time></trkpt><trkpt lat="46.31917855648042" lon="12.550065344069685"><ele>839.3333333333333</ele><time>2026-04-23T11:14:13.998Z</time></trkpt><trkpt lat="46.31914443623668" lon="12.549959365399971"><ele>837.0</ele><time>2026-04-23T11:14:14.998Z</time></trkpt><trkpt lat="46.31911736089457" lon="12.549845620358369"><ele>834.6666666666667</ele><time>2026-04-23T11:14:15.998Z</time></trkpt><trkpt lat="46.319099473658795" lon="12.549718050621765"><ele>832.3333333333334</ele><time>2026-04-23T11:14:16.998Z</time></trkpt><trkpt lat="46.319087631669646" lon="12.54959820037721"><ele>830.0</ele><time>2026-04-23T11:14:17.998Z</time></trkpt><trkpt lat="46.31906485353002" lon="12.549483251446983"><ele>829.2</ele><time>2026-04-23T11:14:18.998Z</time></trkpt><trkpt lat="46.31902197889623" lon="12.549363680584412"><ele>828.4</ele><time>2026-04-23T11:14:19.998Z</time></trkpt><trkpt lat="46.31897774119465" lon="12.54925556513198"><ele>827.5999999999999</ele><time>2026-04-23T11:14:20.998Z</time></trkpt><trkpt lat="46.31892252065046" lon="12.549145695976025"><ele>826.8</ele><time>2026-04-23T11:14:21.998Z</time></trkpt><trkpt lat="46.31884798635247" lon="12.549040328351603"><ele>826.0</ele><time>2026-04-23T11:14:22.998Z</time></trkpt><trkpt lat="46.318756403050536" lon="12.548959855869793"><ele>827.1666666666666</ele><time>2026-04-23T11:14:23.998Z</time></trkpt><trkpt lat="46.31865594248365" lon="12.548912260537353"><ele>828.3333333333333</ele><time>2026-04-23T11:14:24.998Z</time></trkpt><trkpt lat="46.31855861916514" lon="12.548881574651507"><ele>829.5</ele><time>2026-04-23T11:14:25.998Z</time></trkpt><trkpt lat="46.31847522217206" lon="12.548842446178433"><ele>830.6666666666667</ele><time>2026-04-23T11:14:26.998Z</time></trkpt><trkpt lat="46.31840437087833" lon="12.548797557056107"><ele>831.8333333333334</ele><time>2026-04-23T11:14:27.998Z</time></trkpt><trkpt lat="46.318353913022875" lon="12.548742633285654"><ele>833.0</ele><time>2026-04-23T11:14:28.998Z</time></trkpt><trkpt lat="46.318288492772986" lon="12.548626550287395"><ele>833.0</ele><time>2026-04-23T11:14:30.998Z</time></trkpt><trkpt lat="46.31828819726892" lon="12.548440732800113"><ele>833.0</ele><time>2026-04-23T11:14:33Z</time></trkpt><trkpt lat="46.31831589134399" lon="12.548307128956337"><ele>833.0</ele><time>2026-04-23T11:14:34Z</time></trkpt><trkpt lat="46.31834222759792" lon="12.548165353477495"><ele>833.0</ele><time>2026-04-23T11:14:35Z</time></trkpt><trkpt lat="46.318354306650924" lon="12.548026712213069"><ele>833.0</ele><time>2026-04-23T11:14:36Z</time></trkpt><trkpt lat="46.31835830298501" lon="12.547893866105797"><ele>831.6666666666667</ele><time>2026-04-23T11:14:37Z</time></trkpt><trkpt lat="46.31835481785864" lon="12.547770829799045"><ele>830.3333333333334</ele><time>2026-04-23T11:14:38Z</time></trkpt><trkpt lat="46.31835557379179" lon="12.547654978658132"><ele>829.0</ele><time>2026-04-23T11:14:39Z</time></trkpt><trkpt lat="46.318347914840366" lon="12.547541945208497"><ele>827.6666666666667</ele><time>2026-04-23T11:14:40Z</time></trkpt><trkpt lat="46.31832569000641" lon="12.547441780678392"><ele>826.3333333333334</ele><time>2026-04-23T11:14:41Z</time></trkpt><trkpt lat="46.318282342652516" lon="12.547332858504458"><ele>825.0</ele><time>2026-04-23T11:14:42Z</time></trkpt><trkpt lat="46.31823893742238" lon="12.547224842200212"><ele>825.0</ele><time>2026-04-23T11:14:43Z</time></trkpt><trkpt lat="46.31819909858303" lon="12.547135694119952"><ele>825.0</ele><time>2026-04-23T11:14:44Z</time></trkpt><trkpt lat="46.3181624342454" lon="12.54705559902383"><ele>825.0</ele><time>2026-04-23T11:14:45Z</time></trkpt><trkpt lat="46.318155030334694" lon="12.546884254810065"><ele>825.0</ele><time>2026-04-23T11:14:47Z</time></trkpt><trkpt lat="46.31819900329387" lon="12.546806902963361"><ele>825.0</ele><time>2026-04-23T11:14:48Z</time></trkpt><trkpt lat="46.31826081519375" lon="12.546749675152775"><ele>825.0</ele><time>2026-04-23T11:14:49Z</time></trkpt><trkpt lat="46.31832094524751" lon="12.54670557379171"><ele>823.8571428571428</ele><time>2026-04-23T11:14:50Z</time></trkpt><trkpt lat="46.31837875107923" lon="12.546661629581868"><ele>822.7142857142858</ele><time>2026-04-23T11:14:50.999Z</time></trkpt><trkpt lat="46.31843457721795" lon="12.546600335343058"><ele>821.5714285714286</ele><time>2026-04-23T11:14:51.999Z</time></trkpt><trkpt lat="46.318493511721734" lon="12.546522597631682"><ele>820.4285714285713</ele><time>2026-04-23T11:14:52.999Z</time></trkpt><trkpt lat="46.318558040281864" lon="12.546450381458664"><ele>819.2857142857142</ele><time>2026-04-23T11:14:53.999Z</time></trkpt><trkpt lat="46.31860588651353" lon="12.54637244522737"><ele>818.1428571428571</ele><time>2026-04-23T11:14:54.999Z</time></trkpt><trkpt lat="46.318625267023" lon="12.546259855817254"><ele>817.0</ele><time>2026-04-23T11:14:55.999Z</time></trkpt><trkpt lat="46.318612035976265" lon="12.54612274215619"><ele>816.8</ele><time>2026-04-23T11:14:56.999Z</time></trkpt><trkpt lat="46.31857794967024" lon="12.545982705263746"><ele>816.6</ele><time>2026-04-23T11:14:57.999Z</time></trkpt><trkpt lat="46.31853540629575" lon="12.545835046355776"><ele>816.4</ele><time>2026-04-23T11:14:58.999Z</time></trkpt><trkpt lat="46.31849325190801" lon="12.545687556445753"><ele>816.1999999999999</ele><time>2026-04-23T11:14:59.999Z</time></trkpt><trkpt lat="46.31845084041472" lon="12.545558328935531"><ele>816.0</ele><time>2026-04-23T11:15:00.999Z</time></trkpt><trkpt lat="46.318406918505744" lon="12.545448482046599"><ele>817.1666666666666</ele><time>2026-04-23T11:15:01.999Z</time></trkpt><trkpt lat="46.3183632870873" lon="12.545352762563448"><ele>818.3333333333333</ele><time>2026-04-23T11:15:02.999Z</time></trkpt><trkpt lat="46.318322472842446" lon="12.545256310932473"><ele>819.5</ele><time>2026-04-23T11:15:03.999Z</time></trkpt><trkpt lat="46.31828654221211" lon="12.545140906616258"><ele>820.6666666666666</ele><time>2026-04-23T11:15:04.999Z</time></trkpt><trkpt lat="46.3182459082873" lon="12.545019073417253"><ele>821.8333333333333</ele><time>2026-04-23T11:15:05.999Z</time></trkpt><trkpt lat="46.318207115928054" lon="12.544902157562763"><ele>823.0</ele><time>2026-04-23T11:15:06.999Z</time></trkpt><trkpt lat="46.31817042729846" lon="12.544785991191661"><ele>823.0</ele><time>2026-04-23T11:15:07.999Z</time></trkpt><trkpt lat="46.318146664025704" lon="12.544646157228822"><ele>823.0</ele><time>2026-04-23T11:15:08.999Z</time></trkpt><trkpt lat="46.31811393795629" lon="12.544494237190301"><ele>823.0</ele><time>2026-04-23T11:15:09.999Z</time></trkpt><trkpt lat="46.318070114435976" lon="12.544352172973493"><ele>823.0</ele><time>2026-04-23T11:15:10.999Z</time></trkpt><trkpt lat="46.31802371937437" lon="12.54421710763551"><ele>823.0</ele><time>2026-04-23T11:15:11.999Z</time></trkpt><trkpt lat="46.31798308252043" lon="12.544085146533188"><ele>819.25</ele><time>2026-04-23T11:15:12.999Z</time></trkpt><trkpt lat="46.31794230535339" lon="12.54393937387947"><ele>815.5</ele><time>2026-04-23T11:15:13.999Z</time></trkpt><trkpt lat="46.317899631819714" lon="12.543786784260794"><ele>811.75</ele><time>2026-04-23T11:15:14.999Z</time></trkpt><trkpt lat="46.31786973378028" lon="12.543630787473612"><ele>808.0</ele><time>2026-04-23T11:15:15.999Z</time></trkpt><trkpt lat="46.31784190558329" lon="12.543466521220289"><ele>807.5</ele><time>2026-04-23T11:15:16.999Z</time></trkpt><trkpt lat="46.3178159073222" lon="12.543296817526798"><ele>807.0</ele><time>2026-04-23T11:15:17.999Z</time></trkpt><trkpt lat="46.31779316627937" lon="12.54312711438491"><ele>806.5</ele><time>2026-04-23T11:15:18.999Z</time></trkpt><trkpt lat="46.31777857638446" lon="12.54296425045368"><ele>806.0</ele><time>2026-04-23T11:15:19.999Z</time></trkpt><trkpt lat="46.31777026294025" lon="12.542821527377773"><ele>805.8</ele><time>2026-04-23T11:15:20.999Z</time></trkpt><trkpt lat="46.31776592579745" lon="12.5426880282295"><ele>805.5999999999999</ele><time>2026-04-23T11:15:21.999Z</time></trkpt><trkpt lat="46.31776197831737" lon="12.542544765140544"><ele>805.4</ele><time>2026-04-23T11:15:22.999Z</time></trkpt><trkpt lat="46.31775723108902" lon="12.542400552106109"><ele>805.2</ele><time>2026-04-23T11:15:23.999Z</time></trkpt><trkpt lat="46.317747450896775" lon="12.542258024643909"><ele>805.0</ele><time>2026-04-23T11:15:24.999Z</time></trkpt><trkpt lat="46.31772325844492" lon="12.542126314611325"><ele>806.6</ele><time>2026-04-23T11:15:25.999Z</time></trkpt><trkpt lat="46.317682843070976" lon="12.54201097820381"><ele>808.2</ele><time>2026-04-23T11:15:26.999Z</time></trkpt><trkpt lat="46.31762333650673" lon="12.5418919327052"><ele>809.8</ele><time>2026-04-23T11:15:27.999Z</time></trkpt><trkpt lat="46.31754804200147" lon="12.541776839162921"><ele>811.4</ele><time>2026-04-23T11:15:28.999Z</time></trkpt><trkpt lat="46.31746217853994" lon="12.541664157308926"><ele>813.0</ele><time>2026-04-23T11:15:29.999Z</time></trkpt><trkpt lat="46.317367942482115" lon="12.54155442573485"><ele>813.0</ele><time>2026-04-23T11:15:30.999Z</time></trkpt><trkpt lat="46.3172692994951" lon="12.541441595117576"><ele>813.0</ele><time>2026-04-23T11:15:31.999Z</time></trkpt><trkpt lat="46.317174345908406" lon="12.54131455139046"><ele>813.0</ele><time>2026-04-23T11:15:32.999Z</time></trkpt><trkpt lat="46.317093920269606" lon="12.541172990831749"><ele>813.0</ele><time>2026-04-23T11:15:33.999Z</time></trkpt><trkpt lat="46.317016898681196" lon="12.541039646661044"><ele>811.5</ele><time>2026-04-23T11:15:34.999Z</time></trkpt><trkpt lat="46.316931181574304" lon="12.540923051257016"><ele>810.0</ele><time>2026-04-23T11:15:35.999Z</time></trkpt><trkpt lat="46.31683607782153" lon="12.540818893347094"><ele>808.5</ele><time>2026-04-23T11:15:36.999Z</time></trkpt><trkpt lat="46.316734872909194" lon="12.540723913770584"><ele>807.0</ele><time>2026-04-23T11:15:37.999Z</time></trkpt><trkpt lat="46.31663287555021" lon="12.54063496534677"><ele>807.0</ele><time>2026-04-23T11:15:38.999Z</time></trkpt><trkpt lat="46.316524082552064" lon="12.540554525503538"><ele>807.0</ele><time>2026-04-23T11:15:39.999Z</time></trkpt><trkpt lat="46.31642048379556" lon="12.540473342291452"><ele>807.0</ele><time>2026-04-23T11:15:40.999Z</time></trkpt><trkpt lat="46.316317342773814" lon="12.54040390194833"><ele>807.0</ele><time>2026-04-23T11:15:41.999Z</time></trkpt><trkpt lat="46.31622104728385" lon="12.540340424013786"><ele>806.2</ele><time>2026-04-23T11:15:42.999Z</time></trkpt><trkpt lat="46.31612712241875" lon="12.540294714589232"><ele>805.4000000000001</ele><time>2026-04-23T11:15:43.999Z</time></trkpt><trkpt lat="46.31603498094384" lon="12.540264083971453"><ele>804.5999999999999</ele><time>2026-04-23T11:15:44.999Z</time></trkpt><trkpt lat="46.315946935381625" lon="12.54023138280409"><ele>803.8</ele><time>2026-04-23T11:15:45.999Z</time></trkpt><trkpt lat="46.31586698719235" lon="12.540175902426862"><ele>803.0</ele><time>2026-04-23T11:15:46.999Z</time></trkpt><trkpt lat="46.31579418285688" lon="12.540100012157072"><ele>803.0000000000001</ele><time>2026-04-23T11:15:47.999Z</time></trkpt><trkpt lat="46.31571994270009" lon="12.540013748906205"><ele>803.0</ele><time>2026-04-23T11:15:48.999Z</time></trkpt><trkpt lat="46.31565491740449" lon="12.53991970134108"><ele>803.0</ele><time>2026-04-23T11:15:49.999Z</time></trkpt><trkpt lat="46.315603062185595" lon="12.539815539076129"><ele>803.0</ele><time>2026-04-23T11:15:50.999Z</time></trkpt><trkpt lat="46.315561667857864" lon="12.539713475119195"><ele>803.0000000000001</ele><time>2026-04-23T11:15:51.999Z</time></trkpt><trkpt lat="46.31552337310082" lon="12.53960120083688"><ele>803.0</ele><time>2026-04-23T11:15:52.999Z</time></trkpt><trkpt lat="46.31548340074484" lon="12.539508915872107"><ele>801.0000000000001</ele><time>2026-04-23T11:15:53.999Z</time></trkpt><trkpt lat="46.315442787361754" lon="12.539393535312879"><ele>799.0</ele><time>2026-04-23T11:15:54.999Z</time></trkpt><trkpt lat="46.31539933898677" lon="12.539277014631269"><ele>797.0</ele><time>2026-04-23T11:15:55.999Z</time></trkpt><trkpt lat="46.315356852945385" lon="12.539173001495353"><ele>795.0</ele><time>2026-04-23T11:15:56.999Z</time></trkpt><trkpt lat="46.3153124417519" lon="12.539071333677335"><ele>793.0000000000001</ele><time>2026-04-23T11:15:57.998Z</time></trkpt><trkpt lat="46.31526427810629" lon="12.538953647200218"><ele>791.0</ele><time>2026-04-23T11:15:58.998Z</time></trkpt><trkpt lat="46.31521285780889" lon="12.538831115588337"><ele>790.5999999999999</ele><time>2026-04-23T11:15:59.998Z</time></trkpt><trkpt lat="46.31516442219521" lon="12.53871200502476"><ele>790.2</ele><time>2026-04-23T11:16:00.998Z</time></trkpt><trkpt lat="46.31511547187125" lon="12.538595625745586"><ele>789.8</ele><time>2026-04-23T11:16:01.998Z</time></trkpt><trkpt lat="46.31507204682956" lon="12.538473297520193"><ele>789.4000000000001</ele><time>2026-04-23T11:16:02.998Z</time></trkpt><trkpt lat="46.31504006732944" lon="12.538347187949196"><ele>789.0</ele><time>2026-04-23T11:16:03.998Z</time></trkpt><trkpt lat="46.3150040679328" lon="12.538208937140672"><ele>789.0</ele><time>2026-04-23T11:16:04.998Z</time></trkpt><trkpt lat="46.31496598788158" lon="12.53805112911714"><ele>789.0</ele><time>2026-04-23T11:16:05.998Z</time></trkpt><trkpt lat="46.314930822214926" lon="12.537881324473375"><ele>789.0</ele><time>2026-04-23T11:16:06.998Z</time></trkpt><trkpt lat="46.314905498043956" lon="12.537707722785099"><ele>789.0</ele><time>2026-04-23T11:16:07.998Z</time></trkpt><trkpt lat="46.31488325655371" lon="12.537539660726917"><ele>789.0</ele><time>2026-04-23T11:16:08.998Z</time></trkpt><trkpt lat="46.314856354297156" lon="12.537387279795148"><ele>789.0</ele><time>2026-04-23T11:16:09.998Z</time></trkpt><trkpt lat="46.31482122155927" lon="12.537250385721045"><ele>789.0</ele><time>2026-04-23T11:16:10.998Z</time></trkpt><trkpt lat="46.31477254824467" lon="12.537129675235118"><ele>789.0</ele><time>2026-04-23T11:16:11.998Z</time></trkpt><trkpt lat="46.3147075757895" lon="12.537019057674176"><ele>789.0</ele><time>2026-04-23T11:16:12.998Z</time></trkpt><trkpt lat="46.3146205772781" lon="12.536922794724287"><ele>784.25</ele><time>2026-04-23T11:16:13.998Z</time></trkpt><trkpt lat="46.3145365943218" lon="12.536808226236808"><ele>779.5</ele><time>2026-04-23T11:16:14.998Z</time></trkpt><trkpt lat="46.31445136773371" lon="12.536699361667692"><ele>774.75</ele><time>2026-04-23T11:16:15.998Z</time></trkpt><trkpt lat="46.31436738481902" lon="12.536595839401507"><ele>770.0</ele><time>2026-04-23T11:16:16.998Z</time></trkpt><trkpt lat="46.314281868025056" lon="12.536490551459801"><ele>770.0</ele><time>2026-04-23T11:16:17.998Z</time></trkpt><trkpt lat="46.31419672964011" lon="12.536383964973615"><ele>770.0</ele><time>2026-04-23T11:16:18.998Z</time></trkpt><trkpt lat="46.31410976423894" lon="12.536277783323284"><ele>770.0</ele><time>2026-04-23T11:16:19.998Z</time></trkpt><trkpt lat="46.3140294278368" lon="12.536172515872341"><ele>770.0</ele><time>2026-04-23T11:16:20.998Z</time></trkpt><trkpt lat="46.313952741108764" lon="12.536071040187974"><ele>770.0</ele><time>2026-04-23T11:16:21.998Z</time></trkpt><trkpt lat="46.31387663266736" lon="12.53597882840438"><ele>768.8</ele><time>2026-04-23T11:16:22.998Z</time></trkpt><trkpt lat="46.31380717955" lon="12.535891365439026"><ele>767.6</ele><time>2026-04-23T11:16:23.998Z</time></trkpt><trkpt lat="46.313736024225" lon="12.535796403194615"><ele>766.4000000000001</ele><time>2026-04-23T11:16:24.998Z</time></trkpt><trkpt lat="46.31366369901311" lon="12.535698069823633"><ele>765.2</ele><time>2026-04-23T11:16:25.998Z</time></trkpt><trkpt lat="46.313594828485726" lon="12.5355965262882"><ele>764.0</ele><time>2026-04-23T11:16:26.998Z</time></trkpt><trkpt lat="46.313519399524246" lon="12.535503148235549"><ele>764.0</ele><time>2026-04-23T11:16:27.998Z</time></trkpt><trkpt lat="46.31343661429344" lon="12.535407483309852"><ele>764.0</ele><time>2026-04-23T11:16:28.998Z</time></trkpt><trkpt lat="46.31335723937065" lon="12.535309213444169"><ele>764.0</ele><time>2026-04-23T11:16:29.998Z</time></trkpt><trkpt lat="46.313281189415086" lon="12.535209897993262"><ele>764.0</ele><time>2026-04-23T11:16:30.998Z</time></trkpt><trkpt lat="46.31320989274467" lon="12.535105397855336"><ele>764.0</ele><time>2026-04-23T11:16:31.998Z</time></trkpt><trkpt lat="46.313135836559496" lon="12.534989051909685"><ele>763.6</ele><time>2026-04-23T11:16:32.998Z</time></trkpt><trkpt lat="46.31306599025467" lon="12.534864747878794"><ele>763.2</ele><time>2026-04-23T11:16:33.998Z</time></trkpt><trkpt lat="46.31299306470291" lon="12.534730827129524"><ele>762.8000000000001</ele><time>2026-04-23T11:16:34.998Z</time></trkpt><trkpt lat="46.312937500028376" lon="12.534589489129118"><ele>762.4000000000001</ele><time>2026-04-23T11:16:35.998Z</time></trkpt><trkpt lat="46.31290323282883" lon="12.53444451373051"><ele>762.0</ele><time>2026-04-23T11:16:36.998Z</time></trkpt><trkpt lat="46.31287683688402" lon="12.534280208540403"><ele>760.75</ele><time>2026-04-23T11:16:37.998Z</time></trkpt><trkpt lat="46.312841542229016" lon="12.53410890511943"><ele>759.5</ele><time>2026-04-23T11:16:39Z</time></trkpt><trkpt lat="46.31280182071994" lon="12.533942940192281"><ele>758.25</ele><time>2026-04-23T11:16:40Z</time></trkpt><trkpt lat="46.31275641367425" lon="12.53377800967023"><ele>757.0</ele><time>2026-04-23T11:16:41Z</time></trkpt><trkpt lat="46.31269703841622" lon="12.533615302728366"><ele>756.25</ele><time>2026-04-23T11:16:42Z</time></trkpt><trkpt lat="46.31261649008616" lon="12.533432423379935"><ele>755.5</ele><time>2026-04-23T11:16:43Z</time></trkpt><trkpt lat="46.31254662260173" lon="12.533273759169644"><ele>754.75</ele><time>2026-04-23T11:16:44Z</time></trkpt><trkpt lat="46.312494794494526" lon="12.533132331859305"><ele>754.0</ele><time>2026-04-23T11:16:45Z</time></trkpt><trkpt lat="46.31245536193738" lon="12.532996376679437"><ele>753.5</ele><time>2026-04-23T11:16:46Z</time></trkpt><trkpt lat="46.31243588341749" lon="12.532851165636098"><ele>753.0</ele><time>2026-04-23T11:16:47Z</time></trkpt><trkpt lat="46.31244091869245" lon="12.532679017847528"><ele>752.5</ele><time>2026-04-23T11:16:48Z</time></trkpt><trkpt lat="46.31243811435267" lon="12.532502967886527"><ele>752.0</ele><time>2026-04-23T11:16:49Z</time></trkpt><trkpt lat="46.31242592515437" lon="12.532341893070042"><ele>752.0</ele><time>2026-04-23T11:16:50Z</time></trkpt><trkpt lat="46.312401186162475" lon="12.532198480434095"><ele>752.0</ele><time>2026-04-23T11:16:51Z</time></trkpt><trkpt lat="46.31236245434147" lon="12.532069141925225"><ele>752.0</ele><time>2026-04-23T11:16:52Z</time></trkpt><trkpt lat="46.3123131722091" lon="12.53194206572494"><ele>752.0</ele><time>2026-04-23T11:16:53Z</time></trkpt><trkpt lat="46.312253039752235" lon="12.531815748791676"><ele>752.0</ele><time>2026-04-23T11:16:54Z</time></trkpt><trkpt lat="46.31218817701278" lon="12.531686362606317"><ele>750.6</ele><time>2026-04-23T11:16:55Z</time></trkpt><trkpt lat="46.312125226260115" lon="12.531563272563552"><ele>749.2</ele><time>2026-04-23T11:16:55.999Z</time></trkpt><trkpt lat="46.312069750672585" lon="12.531452199123603"><ele>747.8</ele><time>2026-04-23T11:16:56.999Z</time></trkpt><trkpt lat="46.31200510436794" lon="12.531363941101592"><ele>746.4</ele><time>2026-04-23T11:16:57.999Z</time></trkpt><trkpt lat="46.31193331886632" lon="12.531302667216044"><ele>745.0</ele><time>2026-04-23T11:16:58.999Z</time></trkpt><trkpt lat="46.31185486889685" lon="12.531240664653948"><ele>744.6</ele><time>2026-04-23T11:16:59.999Z</time></trkpt><trkpt lat="46.311775757311054" lon="12.531179902323542"><ele>744.2</ele><time>2026-04-23T11:17:00.999Z</time></trkpt><trkpt lat="46.31170085603649" lon="12.531105279086908"><ele>743.8</ele><time>2026-04-23T11:17:01.999Z</time></trkpt><trkpt lat="46.31162211759656" lon="12.531016963176683"><ele>743.4</ele><time>2026-04-23T11:17:02.999Z</time></trkpt><trkpt lat="46.311554260022454" lon="12.530899016701772"><ele>743.0</ele><time>2026-04-23T11:17:03.999Z</time></trkpt><trkpt lat="46.31148314295728" lon="12.530762355071703"><ele>743.0</ele><time>2026-04-23T11:17:04.999Z</time></trkpt><trkpt lat="46.311416375916366" lon="12.5306278589784"><ele>743.0</ele><time>2026-04-23T11:17:05.999Z</time></trkpt><trkpt lat="46.31135050021441" lon="12.53049976224812"><ele>743.0</ele><time>2026-04-23T11:17:06.999Z</time></trkpt><trkpt lat="46.31127554844187" lon="12.530372737392764"><ele>743.0</ele><time>2026-04-23T11:17:07.999Z</time></trkpt><trkpt lat="46.311199769047214" lon="12.530250582441269"><ele>746.25</ele><time>2026-04-23T11:17:08.999Z</time></trkpt><trkpt lat="46.3111265804193" lon="12.530122230048436"><ele>749.5</ele><time>2026-04-23T11:17:09.999Z</time></trkpt><trkpt lat="46.3110450587648" lon="12.529982027069716"><ele>752.75</ele><time>2026-04-23T11:17:10.999Z</time></trkpt><trkpt lat="46.310975534082864" lon="12.529854413069172"><ele>756.0</ele><time>2026-04-23T11:17:11.999Z</time></trkpt><trkpt lat="46.310919313891176" lon="12.529732329326482"><ele>756.0</ele><time>2026-04-23T11:17:12.999Z</time></trkpt><trkpt lat="46.31084981554781" lon="12.529639279986487"><ele>756.0</ele><time>2026-04-23T11:17:13.999Z</time></trkpt><trkpt lat="46.310784697368845" lon="12.529553660898932"><ele>756.0</ele><time>2026-04-23T11:17:14.999Z</time></trkpt><trkpt lat="46.310732194662094" lon="12.529464042301319"><ele>756.0</ele><time>2026-04-23T11:17:15.999Z</time></trkpt><trkpt lat="46.3106928880965" lon="12.529360623986948"><ele>756.0</ele><time>2026-04-23T11:17:16.999Z</time></trkpt><trkpt lat="46.310678740402096" lon="12.529234053730836"><ele>756.0</ele><time>2026-04-23T11:17:17.999Z</time></trkpt><trkpt lat="46.31068713866968" lon="12.529107709329367"><ele>754.1666666666666</ele><time>2026-04-23T11:17:18.999Z</time></trkpt><trkpt lat="46.31068960004243" lon="12.52900615267003"><ele>752.3333333333334</ele><time>2026-04-23T11:17:19.999Z</time></trkpt><trkpt lat="46.31065854006702" lon="12.52891739810843"><ele>750.5</ele><time>2026-04-23T11:17:20.999Z</time></trkpt><trkpt lat="46.310599142557614" lon="12.528824767064773"><ele>748.6666666666667</ele><time>2026-04-23T11:17:21.999Z</time></trkpt><trkpt lat="46.31052003769991" lon="12.528722296956795"><ele>746.8333333333334</ele><time>2026-04-23T11:17:22.999Z</time></trkpt><trkpt lat="46.31044893963969" lon="12.528593990162193"><ele>745.0</ele><time>2026-04-23T11:17:23.999Z</time></trkpt><trkpt lat="46.31039220043638" lon="12.52847678763686"><ele>745.0</ele><time>2026-04-23T11:17:24.999Z</time></trkpt><trkpt lat="46.310326942368924" lon="12.528379911009752"><ele>745.0</ele><time>2026-04-23T11:17:25.999Z</time></trkpt><trkpt lat="46.31024773099448" lon="12.5282904847632"><ele>745.0</ele><time>2026-04-23T11:17:26.999Z</time></trkpt><trkpt lat="46.310170584625" lon="12.528221837972925"><ele>745.0</ele><time>2026-04-23T11:17:27.999Z</time></trkpt><trkpt lat="46.31010004125078" lon="12.52817121957297"><ele>745.0</ele><time>2026-04-23T11:17:28.999Z</time></trkpt><trkpt lat="46.3100426839727" lon="12.528103743655858"><ele>745.0</ele><time>2026-04-23T11:17:29.999Z</time></trkpt><trkpt lat="46.3099921784552" lon="12.528007664211465"><ele>742.2</ele><time>2026-04-23T11:17:30.999Z</time></trkpt><trkpt lat="46.30996367974039" lon="12.527871106925035"><ele>739.4</ele><time>2026-04-23T11:17:31.999Z</time></trkpt><trkpt lat="46.30995097608111" lon="12.527729560251458"><ele>736.5999999999999</ele><time>2026-04-23T11:17:32.999Z</time></trkpt><trkpt lat="46.30992991161957" lon="12.52758205185368"><ele>733.8</ele><time>2026-04-23T11:17:33.999Z</time></trkpt><trkpt lat="46.30988790712458" lon="12.52745047066631"><ele>731.0</ele><time>2026-04-23T11:17:34.999Z</time></trkpt><trkpt lat="46.309841796794146" lon="12.527342697225393"><ele>731.0</ele><time>2026-04-23T11:17:35.999Z</time></trkpt><trkpt lat="46.30981252753571" lon="12.527217336797968"><ele>731.0</ele><time>2026-04-23T11:17:36.999Z</time></trkpt><trkpt lat="46.30979808187988" lon="12.52705755115668"><ele>731.0</ele><time>2026-04-23T11:17:37.999Z</time></trkpt><trkpt lat="46.309794961927224" lon="12.52689495134721"><ele>731.0</ele><time>2026-04-23T11:17:38.999Z</time></trkpt><trkpt lat="46.30978969415506" lon="12.526748051831019"><ele>731.0</ele><time>2026-04-23T11:17:39.999Z</time></trkpt><trkpt lat="46.309762571729216" lon="12.526617659023008"><ele>729.0</ele><time>2026-04-23T11:17:40.999Z</time></trkpt><trkpt lat="46.309720934376074" lon="12.526487506205992"><ele>727.0</ele><time>2026-04-23T11:17:41.999Z</time></trkpt><trkpt lat="46.30969469930385" lon="12.52633069179853"><ele>725.0</ele><time>2026-04-23T11:17:42.999Z</time></trkpt><trkpt lat="46.30968906287063" lon="12.526178383126723"><ele>723.0</ele><time>2026-04-23T11:17:43.999Z</time></trkpt><trkpt lat="46.30968744500802" lon="12.52605582298546"><ele>721.0</ele><time>2026-04-23T11:17:44.999Z</time></trkpt><trkpt lat="46.309664870866875" lon="12.525950961510398"><ele>721.0</ele><time>2026-04-23T11:17:45.999Z</time></trkpt><trkpt lat="46.30961107724643" lon="12.525845622759432"><ele>721.0</ele><time>2026-04-23T11:17:46.999Z</time></trkpt><trkpt lat="46.30952650121395" lon="12.525757888807282"><ele>721.0</ele><time>2026-04-23T11:17:47.999Z</time></trkpt><trkpt lat="46.30943894709673" lon="12.525694148733105"><ele>721.0</ele><time>2026-04-23T11:17:48.999Z</time></trkpt><trkpt lat="46.3093495021915" lon="12.525655973784184"><ele>721.0</ele><time>2026-04-23T11:17:49.999Z</time></trkpt><trkpt lat="46.309253694709454" lon="12.525624225082051"><ele>721.0</ele><time>2026-04-23T11:17:50.999Z</time></trkpt><trkpt lat="46.30915996706139" lon="12.525625211783815"><ele>721.0</ele><time>2026-04-23T11:17:52Z</time></trkpt><trkpt lat="46.30905318604084" lon="12.525648893033283"><ele>721.0</ele><time>2026-04-23T11:17:53Z</time></trkpt><trkpt lat="46.30894335313528" lon="12.525647135533395"><ele>721.0</ele><time>2026-04-23T11:17:54Z</time></trkpt><trkpt lat="46.30883004783745" lon="12.525624842884406"><ele>721.0</ele><time>2026-04-23T11:17:55Z</time></trkpt><trkpt lat="46.308720733989986" lon="12.525594714334824"><ele>719.4</ele><time>2026-04-23T11:17:56Z</time></trkpt><trkpt lat="46.3086147443011" lon="12.525564536945284"><ele>717.8</ele><time>2026-04-23T11:17:57Z</time></trkpt><trkpt lat="46.308513295884154" lon="12.525539272738248"><ele>716.1999999999999</ele><time>2026-04-23T11:17:58Z</time></trkpt><trkpt lat="46.308418306354085" lon="12.525491654728159"><ele>714.5999999999999</ele><time>2026-04-23T11:17:59Z</time></trkpt><trkpt lat="46.30832094423278" lon="12.525399356951802"><ele>713.0</ele><time>2026-04-23T11:18:00Z</time></trkpt><trkpt lat="46.308233014515096" lon="12.525276903242265"><ele>713.0</ele><time>2026-04-23T11:18:01Z</time></trkpt><trkpt lat="46.3081509274827" lon="12.525174013180468"><ele>713.0</ele><time>2026-04-23T11:18:01.999Z</time></trkpt><trkpt lat="46.30806732264697" lon="12.525047941528921"><ele>713.0</ele><time>2026-04-23T11:18:02.999Z</time></trkpt><trkpt lat="46.30800471224634" lon="12.524909727214155"><ele>713.0</ele><time>2026-04-23T11:18:03.999Z</time></trkpt><trkpt lat="46.30795255729344" lon="12.524766257336987"><ele>717.25</ele><time>2026-04-23T11:18:04.999Z</time></trkpt><trkpt lat="46.30790692403857" lon="12.524618757712124"><ele>721.5</ele><time>2026-04-23T11:18:05.999Z</time></trkpt><trkpt lat="46.30786926829039" lon="12.524452183156138"><ele>725.75</ele><time>2026-04-23T11:18:06.999Z</time></trkpt><trkpt lat="46.3078396477606" lon="12.524269267810572"><ele>730.0</ele><time>2026-04-23T11:18:07.999Z</time></trkpt><trkpt lat="46.30781325214278" lon="12.524074647794304"><ele>730.0</ele><time>2026-04-23T11:18:08.999Z</time></trkpt><trkpt lat="46.307801039117614" lon="12.523873554099703"><ele>730.0</ele><time>2026-04-23T11:18:09.999Z</time></trkpt><trkpt lat="46.30778377696075" lon="12.523669318910516"><ele>730.0</ele><time>2026-04-23T11:18:10.999Z</time></trkpt><trkpt lat="46.30773670424908" lon="12.523468349777199"><ele>730.0</ele><time>2026-04-23T11:18:11.999Z</time></trkpt><trkpt lat="46.30767922465692" lon="12.523260956328164"><ele>728.6</ele><time>2026-04-23T11:18:12.999Z</time></trkpt><trkpt lat="46.3076241783571" lon="12.52308350603199"><ele>727.2</ele><time>2026-04-23T11:18:13.999Z</time></trkpt><trkpt lat="46.307583647740096" lon="12.522933115416212"><ele>725.8</ele><time>2026-04-23T11:18:14.999Z</time></trkpt><trkpt lat="46.307552608924254" lon="12.522801501858467"><ele>724.4</ele><time>2026-04-23T11:18:15.999Z</time></trkpt><trkpt lat="46.307512262527965" lon="12.522692772552977"><ele>723.0</ele><time>2026-04-23T11:18:16.999Z</time></trkpt><trkpt lat="46.3074599108741" lon="12.522579471827632"><ele>725.4</ele><time>2026-04-23T11:18:17.999Z</time></trkpt><trkpt lat="46.30742769287386" lon="12.522465396533319"><ele>727.8</ele><time>2026-04-23T11:18:18.999Z</time></trkpt><trkpt lat="46.30737383836745" lon="12.522343081538066"><ele>730.2</ele><time>2026-04-23T11:18:19.999Z</time></trkpt><trkpt lat="46.30730220785071" lon="12.522218620522255"><ele>732.6</ele><time>2026-04-23T11:18:20.999Z</time></trkpt><trkpt lat="46.307220349167814" lon="12.522097682063595"><ele>735.0</ele><time>2026-04-23T11:18:21.999Z</time></trkpt><trkpt lat="46.30713690175198" lon="12.52199670912672"><ele>728.25</ele><time>2026-04-23T11:18:22.999Z</time></trkpt><trkpt lat="46.30703114136009" lon="12.521935115673978"><ele>721.5</ele><time>2026-04-23T11:18:23.999Z</time></trkpt><trkpt lat="46.30693601561086" lon="12.521882132614966"><ele>714.75</ele><time>2026-04-23T11:18:24.999Z</time></trkpt><trkpt lat="46.306823356261475" lon="12.521833927083398"><ele>708.0</ele><time>2026-04-23T11:18:25.999Z</time></trkpt><trkpt lat="46.30670152059076" lon="12.521779964051433"><ele>708.0</ele><time>2026-04-23T11:18:26.999Z</time></trkpt><trkpt lat="46.30657561212958" lon="12.521730907098997"><ele>708.0</ele><time>2026-04-23T11:18:27.999Z</time></trkpt><trkpt lat="46.30644491857822" lon="12.521697559226517"><ele>708.0</ele><time>2026-04-23T11:18:28.999Z</time></trkpt><trkpt lat="46.30630344065649" lon="12.521647493248032"><ele>708.0</ele><time>2026-04-23T11:18:29.999Z</time></trkpt><trkpt lat="46.30619350028268" lon="12.521586537831459"><ele>711.0</ele><time>2026-04-23T11:18:30.999Z</time></trkpt><trkpt lat="46.306082606121095" lon="12.521520773969103"><ele>714.0</ele><time>2026-04-23T11:18:31.999Z</time></trkpt><trkpt lat="46.30598056145757" lon="12.521467487896327"><ele>717.0</ele><time>2026-04-23T11:18:32.999Z</time></trkpt><trkpt lat="46.30587172138417" lon="12.521394288884482"><ele>720.0</ele><time>2026-04-23T11:18:33.999Z</time></trkpt><trkpt lat="46.30575368892116" lon="12.521301692634971"><ele>718.25</ele><time>2026-04-23T11:18:34.999Z</time></trkpt><trkpt lat="46.30564407852192" lon="12.521226967182963"><ele>716.5</ele><time>2026-04-23T11:18:35.999Z</time></trkpt><trkpt lat="46.305528842745076" lon="12.521147842407546"><ele>714.75</ele><time>2026-04-23T11:18:36.999Z</time></trkpt><trkpt lat="46.30536976273883" lon="12.521038253149724"><ele>713.0</ele><time>2026-04-23T11:18:37.999Z</time></trkpt><trkpt lat="46.30522510534424" lon="12.520893070399628"><ele>713.0</ele><time>2026-04-23T11:18:38.999Z</time></trkpt><trkpt lat="46.30509086835238" lon="12.52074070198132"><ele>713.0</ele><time>2026-04-23T11:18:39.999Z</time></trkpt><trkpt lat="46.30497171961316" lon="12.520577221191806"><ele>713.0</ele><time>2026-04-23T11:18:40.999Z</time></trkpt><trkpt lat="46.304867731041305" lon="12.520403249798303"><ele>710.25</ele><time>2026-04-23T11:18:41.999Z</time></trkpt><trkpt lat="46.30479226701231" lon="12.520227771749662"><ele>707.5</ele><time>2026-04-23T11:18:42.999Z</time></trkpt><trkpt lat="46.30471708889395" lon="12.52005657949692"><ele>704.75</ele><time>2026-04-23T11:18:44.001Z</time></trkpt><trkpt lat="46.30463062436964" lon="12.51988731341218"><ele>702.0</ele><time>2026-04-23T11:18:45.001Z</time></trkpt><trkpt lat="46.30454799178465" lon="12.519726500406577"><ele>702.0</ele><time>2026-04-23T11:18:46.001Z</time></trkpt><trkpt lat="46.30446212642806" lon="12.51957723760133"><ele>702.0</ele><time>2026-04-23T11:18:47.001Z</time></trkpt><trkpt lat="46.304380440009915" lon="12.519412383820198"><ele>702.0</ele><time>2026-04-23T11:18:48.001Z</time></trkpt><trkpt lat="46.30429573532509" lon="12.519239020947154"><ele>702.0</ele><time>2026-04-23T11:18:49.001Z</time></trkpt><trkpt lat="46.30421038739555" lon="12.51906899795026"><ele>702.0</ele><time>2026-04-23T11:18:50.001Z</time></trkpt><trkpt lat="46.30411422407038" lon="12.518921769635542"><ele>702.0</ele><time>2026-04-23T11:18:51.001Z</time></trkpt><trkpt lat="46.30401686675347" lon="12.518799679090323"><ele>702.0</ele><time>2026-04-23T11:18:52.001Z</time></trkpt><trkpt lat="46.30392054846921" lon="12.518725789469155"><ele>702.0</ele><time>2026-04-23T11:18:53.001Z</time></trkpt><trkpt lat="46.30382689276766" lon="12.518663575183037"><ele>704.0</ele><time>2026-04-23T11:18:54.001Z</time></trkpt><trkpt lat="46.30374787185814" lon="12.518574587987564"><ele>706.0</ele><time>2026-04-23T11:18:55.001Z</time></trkpt><trkpt lat="46.303670813432426" lon="12.518457859103059"><ele>708.0</ele><time>2026-04-23T11:18:56.001Z</time></trkpt><trkpt lat="46.30357591788929" lon="12.518350359743012"><ele>710.0</ele><time>2026-04-23T11:18:57.001Z</time></trkpt><trkpt lat="46.30346380908988" lon="12.518233532729694"><ele>710.0</ele><time>2026-04-23T11:18:58.001Z</time></trkpt><trkpt lat="46.3033634408498" lon="12.518123202909667"><ele>710.0</ele><time>2026-04-23T11:18:59Z</time></trkpt><trkpt lat="46.30326997397584" lon="12.518005381010118"><ele>710.0</ele><time>2026-04-23T11:19:00Z</time></trkpt><trkpt lat="46.303173194442266" lon="12.517872374405801"><ele>710.0</ele><time>2026-04-23T11:19:01Z</time></trkpt><trkpt lat="46.30308767256028" lon="12.517726553152004"><ele>711.0</ele><time>2026-04-23T11:19:02Z</time></trkpt><trkpt lat="46.30301695113563" lon="12.51756977852046"><ele>712.0</ele><time>2026-04-23T11:19:03Z</time></trkpt><trkpt lat="46.30294860391789" lon="12.51742008642051"><ele>713.0</ele><time>2026-04-23T11:19:04Z</time></trkpt><trkpt lat="46.302892491130194" lon="12.517268065671642"><ele>714.0</ele><time>2026-04-23T11:19:05Z</time></trkpt><trkpt lat="46.30285589578011" lon="12.517111279793403"><ele>709.6</ele><time>2026-04-23T11:19:06Z</time></trkpt><trkpt lat="46.30283743111034" lon="12.516965735596026"><ele>705.2</ele><time>2026-04-23T11:19:07Z</time></trkpt><trkpt lat="46.302817918895386" lon="12.51684658113119"><ele>700.8000000000001</ele><time>2026-04-23T11:19:08Z</time></trkpt><trkpt lat="46.30277951628569" lon="12.516746308508706"><ele>696.4000000000001</ele><time>2026-04-23T11:19:09Z</time></trkpt><trkpt lat="46.30270739409088" lon="12.51664623816964"><ele>692.0</ele><time>2026-04-23T11:19:10Z</time></trkpt><trkpt lat="46.302600628666966" lon="12.516540221848523"><ele>692.0</ele><time>2026-04-23T11:19:11Z</time></trkpt><trkpt lat="46.30248324312774" lon="12.516426966525925"><ele>692.0</ele><time>2026-04-23T11:19:12Z</time></trkpt><trkpt lat="46.302356854785856" lon="12.516316967170859"><ele>692.0</ele><time>2026-04-23T11:19:13Z</time></trkpt><trkpt lat="46.30222883060515" lon="12.516207835093711"><ele>692.0</ele><time>2026-04-23T11:19:14Z</time></trkpt><trkpt lat="46.302104237717515" lon="12.516107503134965"><ele>690.25</ele><time>2026-04-23T11:19:15Z</time></trkpt><trkpt lat="46.301978980134045" lon="12.51602110263772"><ele>688.5</ele><time>2026-04-23T11:19:16Z</time></trkpt><trkpt lat="46.3018526415851" lon="12.515946191432601"><ele>686.75</ele><time>2026-04-23T11:19:17Z</time></trkpt><trkpt lat="46.30172111130222" lon="12.515877550513023"><ele>685.0</ele><time>2026-04-23T11:19:18Z</time></trkpt><trkpt lat="46.30159465925551" lon="12.51580030595883"><ele>685.0</ele><time>2026-04-23T11:19:19Z</time></trkpt><trkpt lat="46.30149224247099" lon="12.515710846223104"><ele>685.0</ele><time>2026-04-23T11:19:20Z</time></trkpt><trkpt lat="46.30138744227898" lon="12.515611490656674"><ele>685.0</ele><time>2026-04-23T11:19:21Z</time></trkpt><trkpt lat="46.30128579509167" lon="12.515517985432398"><ele>685.0</ele><time>2026-04-23T11:19:22Z</time></trkpt><trkpt lat="46.301194717864306" lon="12.515422762641203"><ele>685.8</ele><time>2026-04-23T11:19:23Z</time></trkpt><trkpt lat="46.301119540269745" lon="12.515333371983484"><ele>686.6</ele><time>2026-04-23T11:19:24Z</time></trkpt><trkpt lat="46.30105231864315" lon="12.51524607832597"><ele>687.4000000000001</ele><time>2026-04-23T11:19:25Z</time></trkpt><trkpt lat="46.301000346705884" lon="12.51517205756252"><ele>688.2</ele><time>2026-04-23T11:19:26Z</time></trkpt><trkpt lat="46.30093182036839" lon="12.515090582030599"><ele>689.0</ele><time>2026-04-23T11:19:27Z</time></trkpt><trkpt lat="46.30084851243588" lon="12.515008908457215"><ele>689.0</ele><time>2026-04-23T11:19:28Z</time></trkpt><trkpt lat="46.30076212211339" lon="12.51493683869584"><ele>689.0</ele><time>2026-04-23T11:19:29Z</time></trkpt><trkpt lat="46.300691225864604" lon="12.5148870092934"><ele>689.0</ele><time>2026-04-23T11:19:30Z</time></trkpt><trkpt lat="46.3006332926722" lon="12.514842359293016"><ele>689.0</ele><time>2026-04-23T11:19:31Z</time></trkpt><trkpt lat="46.30054765859457" lon="12.514722130458468"><ele>689.0</ele><time>2026-04-23T11:19:33Z</time></trkpt><trkpt lat="46.300517760712324" lon="12.5146276794624"><ele>689.0</ele><time>2026-04-23T11:19:34Z</time></trkpt><trkpt lat="46.30049412502489" lon="12.514511924013021"><ele>691.2</ele><time>2026-04-23T11:19:35Z</time></trkpt><trkpt lat="46.30045476644153" lon="12.514392266348299"><ele>693.4000000000001</ele><time>2026-04-23T11:19:36Z</time></trkpt><trkpt lat="46.30040128032902" lon="12.514278820774383"><ele>695.6</ele><time>2026-04-23T11:19:37Z</time></trkpt><trkpt lat="46.30034913552488" lon="12.51417012817207"><ele>697.8</ele><time>2026-04-23T11:19:38Z</time></trkpt><trkpt lat="46.30029188526381" lon="12.514049797116387"><ele>700.0</ele><time>2026-04-23T11:19:39Z</time></trkpt><trkpt lat="46.30023355250553" lon="12.513940044388685"><ele>700.0</ele><time>2026-04-23T11:19:40Z</time></trkpt><trkpt lat="46.30018984786195" lon="12.513832855177597"><ele>700.0</ele><time>2026-04-23T11:19:41Z</time></trkpt><trkpt lat="46.30015937947782" lon="12.513712839191056"><ele>700.0</ele><time>2026-04-23T11:19:42Z</time></trkpt><trkpt lat="46.30014921089689" lon="12.51359885373641"><ele>700.0</ele><time>2026-04-23T11:19:43Z</time></trkpt><trkpt lat="46.30014673558843" lon="12.513497650740701"><ele>700.0</ele><time>2026-04-23T11:19:44Z</time></trkpt><trkpt lat="46.30013107273455" lon="12.513394200373515"><ele>700.0</ele><time>2026-04-23T11:19:45Z</time></trkpt><trkpt lat="46.30009623261283" lon="12.513281533188163"><ele>697.1666666666667</ele><time>2026-04-23T11:19:46Z</time></trkpt><trkpt lat="46.3000610806258" lon="12.513168104869134"><ele>694.3333333333334</ele><time>2026-04-23T11:19:47Z</time></trkpt><trkpt lat="46.300022046834904" lon="12.513080608233718"><ele>691.5</ele><time>2026-04-23T11:19:48Z</time></trkpt><trkpt lat="46.29997539024135" lon="12.513013092970722"><ele>688.6666666666666</ele><time>2026-04-23T11:19:49Z</time></trkpt><trkpt lat="46.299908481772434" lon="12.512952396419509"><ele>685.8333333333333</ele><time>2026-04-23T11:19:50Z</time></trkpt><trkpt lat="46.29982043578759" lon="12.512898127607555"><ele>683.0</ele><time>2026-04-23T11:19:51Z</time></trkpt><trkpt lat="46.299715059764026" lon="12.512850601556929"><ele>680.0</ele><time>2026-04-23T11:19:52Z</time></trkpt><trkpt lat="46.29958034978617" lon="12.512789955356386"><ele>677.0</ele><time>2026-04-23T11:19:53Z</time></trkpt><trkpt lat="46.299445965169106" lon="12.512730449043044"><ele>674.0</ele><time>2026-04-23T11:19:54Z</time></trkpt><trkpt lat="46.2993301790181" lon="12.512703019793456"><ele>671.0</ele><time>2026-04-23T11:19:55Z</time></trkpt><trkpt lat="46.29921013890232" lon="12.512674695999511"><ele>671.0</ele><time>2026-04-23T11:19:56Z</time></trkpt><trkpt lat="46.2990776815856" lon="12.512639375280427"><ele>671.0</ele><time>2026-04-23T11:19:57Z</time></trkpt><trkpt lat="46.298940673900425" lon="12.512605386486616"><ele>671.0</ele><time>2026-04-23T11:19:58Z</time></trkpt><trkpt lat="46.29881766790971" lon="12.512578316785518"><ele>671.0</ele><time>2026-04-23T11:19:59Z</time></trkpt><trkpt lat="46.29871118828498" lon="12.512560560673199"><ele>672.1999999999999</ele><time>2026-04-23T11:20:00Z</time></trkpt><trkpt lat="46.29861690998767" lon="12.512561694466749"><ele>673.4</ele><time>2026-04-23T11:20:01Z</time></trkpt><trkpt lat="46.29852947947478" lon="12.51255463340348"><ele>674.6</ele><time>2026-04-23T11:20:02Z</time></trkpt><trkpt lat="46.29843920967899" lon="12.512522234638524"><ele>675.8</ele><time>2026-04-23T11:20:03Z</time></trkpt><trkpt lat="46.29835253502982" lon="12.51245566656648"><ele>677.0</ele><time>2026-04-23T11:20:04Z</time></trkpt><trkpt lat="46.298269863689086" lon="12.5123695134325"><ele>677.0</ele><time>2026-04-23T11:20:05Z</time></trkpt><trkpt lat="46.298191408422646" lon="12.512260058330869"><ele>677.0</ele><time>2026-04-23T11:20:05.999Z</time></trkpt><trkpt lat="46.29812721894413" lon="12.512164890401602"><ele>677.0</ele><time>2026-04-23T11:20:06.999Z</time></trkpt><trkpt lat="46.29807068810102" lon="12.51207303564773"><ele>677.0</ele><time>2026-04-23T11:20:07.999Z</time></trkpt><trkpt lat="46.298014257315174" lon="12.511957474610904"><ele>677.0</ele><time>2026-04-23T11:20:08.999Z</time></trkpt><trkpt lat="46.2979320074095" lon="12.51184373215472"><ele>679.0</ele><time>2026-04-23T11:20:09.999Z</time></trkpt><trkpt lat="46.29783121156645" lon="12.511733605194218"><ele>681.0</ele><time>2026-04-23T11:20:10.999Z</time></trkpt><trkpt lat="46.297733535173315" lon="12.511607489671762"><ele>683.0</ele><time>2026-04-23T11:20:11.999Z</time></trkpt><trkpt lat="46.29764997210406" lon="12.511477712511365"><ele>685.0</ele><time>2026-04-23T11:20:12.999Z</time></trkpt><trkpt lat="46.2975762077566" lon="12.51134597481536"><ele>682.0</ele><time>2026-04-23T11:20:13.999Z</time></trkpt><trkpt lat="46.29750756632849" lon="12.51121826823187"><ele>679.0</ele><time>2026-04-23T11:20:14.999Z</time></trkpt><trkpt lat="46.29745214689131" lon="12.511100266978426"><ele>676.0</ele><time>2026-04-23T11:20:15.999Z</time></trkpt><trkpt lat="46.29741016399507" lon="12.510951766087922"><ele>673.0</ele><time>2026-04-23T11:20:16.999Z</time></trkpt><trkpt lat="46.29737800110882" lon="12.510783296282861"><ele>670.0</ele><time>2026-04-23T11:20:17.999Z</time></trkpt><trkpt lat="46.297348133490736" lon="12.510621047132107"><ele>670.0</ele><time>2026-04-23T11:20:18.999Z</time></trkpt><trkpt lat="46.29731941690882" lon="12.510457292516838"><ele>670.0</ele><time>2026-04-23T11:20:19.999Z</time></trkpt><trkpt lat="46.29729402795419" lon="12.510279177837923"><ele>670.0</ele><time>2026-04-23T11:20:20.999Z</time></trkpt><trkpt lat="46.29726481990617" lon="12.510110301304216"><ele>670.0</ele><time>2026-04-23T11:20:21.999Z</time></trkpt><trkpt lat="46.297223992987476" lon="12.509961986221478"><ele>668.4</ele><time>2026-04-23T11:20:22.999Z</time></trkpt><trkpt lat="46.29718408557167" lon="12.509818838159305"><ele>666.8</ele><time>2026-04-23T11:20:23.999Z</time></trkpt><trkpt lat="46.2971526714079" lon="12.509680027397508"><ele>665.2</ele><time>2026-04-23T11:20:24.999Z</time></trkpt><trkpt lat="46.297112030568215" lon="12.50953720347328"><ele>663.6</ele><time>2026-04-23T11:20:25.999Z</time></trkpt><trkpt lat="46.297054325718776" lon="12.509378473358911"><ele>662.0</ele><time>2026-04-23T11:20:26.999Z</time></trkpt><trkpt lat="46.296981817425376" lon="12.509226930301237"><ele>662.0</ele><time>2026-04-23T11:20:27.999Z</time></trkpt><trkpt lat="46.296913208434866" lon="12.509092728536187"><ele>662.0</ele><time>2026-04-23T11:20:28.999Z</time></trkpt><trkpt lat="46.296840060925796" lon="12.50898363155626"><ele>662.0</ele><time>2026-04-23T11:20:29.999Z</time></trkpt><trkpt lat="46.29675946173981" lon="12.508895400106871"><ele>662.0</ele><time>2026-04-23T11:20:30.999Z</time></trkpt><trkpt lat="46.296664754418615" lon="12.508820017303856"><ele>662.0</ele><time>2026-04-23T11:20:31.999Z</time></trkpt><trkpt lat="46.29654951800833" lon="12.508759550475835"><ele>659.25</ele><time>2026-04-23T11:20:32.999Z</time></trkpt><trkpt lat="46.2964183623395" lon="12.508727053132748"><ele>656.5</ele><time>2026-04-23T11:20:33.999Z</time></trkpt><trkpt lat="46.29628775409937" lon="12.508691943928438"><ele>653.75</ele><time>2026-04-23T11:20:34.999Z</time></trkpt><trkpt lat="46.29615407791899" lon="12.508662099221706"><ele>651.0</ele><time>2026-04-23T11:20:35.999Z</time></trkpt><trkpt lat="46.29601775846034" lon="12.508635827120322"><ele>651.0</ele><time>2026-04-23T11:20:36.999Z</time></trkpt><trkpt lat="46.29588491096996" lon="12.508610532199533"><ele>651.0</ele><time>2026-04-23T11:20:37.999Z</time></trkpt><trkpt lat="46.29575565757216" lon="12.50857591886957"><ele>651.0</ele><time>2026-04-23T11:20:38.999Z</time></trkpt><trkpt lat="46.29563014976111" lon="12.508540889920402"><ele>651.0</ele><time>2026-04-23T11:20:39.999Z</time></trkpt><trkpt lat="46.29550969919801" lon="12.5085097612015"><ele>651.0</ele><time>2026-04-23T11:20:40.999Z</time></trkpt><trkpt lat="46.29539675110952" lon="12.50846540016575"><ele>651.0</ele><time>2026-04-23T11:20:41.999Z</time></trkpt><trkpt lat="46.29529736915141" lon="12.508406974327091"><ele>651.0</ele><time>2026-04-23T11:20:42.999Z</time></trkpt><trkpt lat="46.29521781299662" lon="12.508352400607935"><ele>651.0</ele><time>2026-04-23T11:20:43.999Z</time></trkpt><trkpt lat="46.295137845978736" lon="12.508326945846367"><ele>651.0</ele><time>2026-04-23T11:20:44.999Z</time></trkpt><trkpt lat="46.29504531872345" lon="12.508327240295927"><ele>651.0</ele><time>2026-04-23T11:20:45.999Z</time></trkpt><trkpt lat="46.29494128716125" lon="12.508331883763603"><ele>651.0</ele><time>2026-04-23T11:20:46.999Z</time></trkpt><trkpt lat="46.29482899068998" lon="12.508326737983513"><ele>651.0</ele><time>2026-04-23T11:20:47.999Z</time></trkpt><trkpt lat="46.29471609300697" lon="12.508318420229994"><ele>651.0</ele><time>2026-04-23T11:20:48.999Z</time></trkpt><trkpt lat="46.29460816816006" lon="12.508315976023669"><ele>651.0</ele><time>2026-04-23T11:20:50.001Z</time></trkpt><trkpt lat="46.29450836829359" lon="12.50831420899078"><ele>651.0</ele><time>2026-04-23T11:20:51.001Z</time></trkpt><trkpt lat="46.29441141563201" lon="12.508317847181813"><ele>651.0</ele><time>2026-04-23T11:20:52.001Z</time></trkpt><trkpt lat="46.29430518172758" lon="12.508300890147215"><ele>651.0</ele><time>2026-04-23T11:20:53.001Z</time></trkpt><trkpt lat="46.2941896092072" lon="12.508276727216668"><ele>651.0</ele><time>2026-04-23T11:20:54.001Z</time></trkpt><trkpt lat="46.29407344701067" lon="12.50823720154109"><ele>651.0</ele><time>2026-04-23T11:20:55.001Z</time></trkpt><trkpt lat="46.293956821112054" lon="12.508187074985292"><ele>650.5999999999999</ele><time>2026-04-23T11:20:56.001Z</time></trkpt><trkpt lat="46.29384335303458" lon="12.508135904542156"><ele>650.2</ele><time>2026-04-23T11:20:57.001Z</time></trkpt><trkpt lat="46.29372813528652" lon="12.508093935461366"><ele>649.8</ele><time>2026-04-23T11:20:58.001Z</time></trkpt><trkpt lat="46.29362446795386" lon="12.508061662392834"><ele>649.4000000000001</ele><time>2026-04-23T11:20:59Z</time></trkpt><trkpt lat="46.29353146733561" lon="12.508030910099412"><ele>649.0</ele><time>2026-04-23T11:21:00Z</time></trkpt><trkpt lat="46.29344167648449" lon="12.50799213165977"><ele>649.0</ele><time>2026-04-23T11:21:01Z</time></trkpt><trkpt lat="46.29334525332619" lon="12.507953570376662"><ele>649.0</ele><time>2026-04-23T11:21:02Z</time></trkpt><trkpt lat="46.29323684829037" lon="12.507931045383692"><ele>649.0</ele><time>2026-04-23T11:21:03Z</time></trkpt><trkpt lat="46.29312225217893" lon="12.507908258097233"><ele>649.0</ele><time>2026-04-23T11:21:04Z</time></trkpt><trkpt lat="46.29300466087806" lon="12.50787087583257"><ele>649.0</ele><time>2026-04-23T11:21:05Z</time></trkpt><trkpt lat="46.292898440524056" lon="12.507825855622775"><ele>647.5</ele><time>2026-04-23T11:21:06Z</time></trkpt><trkpt lat="46.292789774915136" lon="12.507772728858122"><ele>646.0</ele><time>2026-04-23T11:21:07Z</time></trkpt><trkpt lat="46.29268378438368" lon="12.507710317599061"><ele>644.5</ele><time>2026-04-23T11:21:08Z</time></trkpt><trkpt lat="46.29258107630915" lon="12.507636787241182"><ele>643.0</ele><time>2026-04-23T11:21:09Z</time></trkpt><trkpt lat="46.29248094654721" lon="12.507566242857969"><ele>643.0</ele><time>2026-04-23T11:21:10Z</time></trkpt><trkpt lat="46.29238699706844" lon="12.507492747714961"><ele>643.0</ele><time>2026-04-23T11:21:11Z</time></trkpt><trkpt lat="46.29231083920938" lon="12.507422128184448"><ele>643.0</ele><time>2026-04-23T11:21:12Z</time></trkpt><trkpt lat="46.292236125099784" lon="12.50735516272896"><ele>643.0</ele><time>2026-04-23T11:21:13Z</time></trkpt><trkpt lat="46.29216085278887" lon="12.50728804452818"><ele>643.0</ele><time>2026-04-23T11:21:14Z</time></trkpt><trkpt lat="46.292081598948755" lon="12.507219078109147"><ele>643.2</ele><time>2026-04-23T11:21:15Z</time></trkpt><trkpt lat="46.2919997629121" lon="12.507174120528326"><ele>643.4</ele><time>2026-04-23T11:21:15.999Z</time></trkpt><trkpt lat="46.29191665848224" lon="12.507162872569229"><ele>643.6</ele><time>2026-04-23T11:21:16.999Z</time></trkpt><trkpt lat="46.29182490291321" lon="12.507186696888594"><ele>643.8000000000001</ele><time>2026-04-23T11:21:17.999Z</time></trkpt><trkpt lat="46.29172860965011" lon="12.507252988503886"><ele>644.0</ele><time>2026-04-23T11:21:18.999Z</time></trkpt><trkpt lat="46.291617486413514" lon="12.507334245610075"><ele>644.0</ele><time>2026-04-23T11:21:19.999Z</time></trkpt><trkpt lat="46.29147051362226" lon="12.507420813890487"><ele>644.0</ele><time>2026-04-23T11:21:20.999Z</time></trkpt><trkpt lat="46.29135479570878" lon="12.507499898354396"><ele>644.0</ele><time>2026-04-23T11:21:21.999Z</time></trkpt><trkpt lat="46.29125386872794" lon="12.507596490684893"><ele>644.0</ele><time>2026-04-23T11:21:22.999Z</time></trkpt><trkpt lat="46.29116787769658" lon="12.507691207748307"><ele>642.8000000000001</ele><time>2026-04-23T11:21:23.999Z</time></trkpt><trkpt lat="46.291086160483516" lon="12.5077787084784"><ele>641.6</ele><time>2026-04-23T11:21:24.999Z</time></trkpt><trkpt lat="46.29100516794135" lon="12.507847404061353"><ele>640.4</ele><time>2026-04-23T11:21:25.999Z</time></trkpt><trkpt lat="46.290914471777135" lon="12.507883652718409"><ele>639.2</ele><time>2026-04-23T11:21:26.999Z</time></trkpt><trkpt lat="46.290811201635385" lon="12.507891114973502"><ele>638.0</ele><time>2026-04-23T11:21:27.999Z</time></trkpt><trkpt lat="46.290699330567996" lon="12.507868940780785"><ele>639.0</ele><time>2026-04-23T11:21:28.999Z</time></trkpt><trkpt lat="46.29057865202667" lon="12.507824844704292"><ele>640.0</ele><time>2026-04-23T11:21:29.999Z</time></trkpt><trkpt lat="46.29044613902643" lon="12.50778034305162"><ele>641.0</ele><time>2026-04-23T11:21:30.999Z</time></trkpt><trkpt lat="46.2903076790369" lon="12.50772568852013"><ele>642.0</ele><time>2026-04-23T11:21:31.999Z</time></trkpt><trkpt lat="46.29017500637391" lon="12.50766188871909"><ele>642.0</ele><time>2026-04-23T11:21:32.999Z</time></trkpt><trkpt lat="46.290038581371206" lon="12.507598431226546"><ele>642.0</ele><time>2026-04-23T11:21:33.999Z</time></trkpt><trkpt lat="46.28990340826787" lon="12.507527731273662"><ele>642.0</ele><time>2026-04-23T11:21:34.999Z</time></trkpt><trkpt lat="46.289772541829144" lon="12.507451188907899"><ele>642.0</ele><time>2026-04-23T11:21:35.999Z</time></trkpt><trkpt lat="46.289638521474366" lon="12.507377909021024"><ele>643.5</ele><time>2026-04-23T11:21:36.999Z</time></trkpt><trkpt lat="46.289514844866844" lon="12.507313896551961"><ele>645.0</ele><time>2026-04-23T11:21:37.999Z</time></trkpt><trkpt lat="46.28939138237556" lon="12.507258373911025"><ele>646.5</ele><time>2026-04-23T11:21:38.999Z</time></trkpt><trkpt lat="46.28925425737583" lon="12.507230002842153"><ele>648.0</ele><time>2026-04-23T11:21:39.999Z</time></trkpt><trkpt lat="46.28911461258708" lon="12.507222684395044"><ele>648.0</ele><time>2026-04-23T11:21:40.999Z</time></trkpt><trkpt lat="46.288983226170856" lon="12.507209066112893"><ele>648.0</ele><time>2026-04-23T11:21:41.999Z</time></trkpt><trkpt lat="46.28886050629109" lon="12.5071383278894"><ele>648.0</ele><time>2026-04-23T11:21:42.999Z</time></trkpt><trkpt lat="46.28874712805504" lon="12.507041733267796"><ele>648.0</ele><time>2026-04-23T11:21:43.999Z</time></trkpt><trkpt lat="46.288639015810496" lon="12.506957949545876"><ele>644.8333333333334</ele><time>2026-04-23T11:21:44.999Z</time></trkpt><trkpt lat="46.28854019666881" lon="12.506877673685747"><ele>641.6666666666666</ele><time>2026-04-23T11:21:45.998Z</time></trkpt><trkpt lat="46.28845967621481" lon="12.506811351960954"><ele>638.5</ele><time>2026-04-23T11:21:46.998Z</time></trkpt><trkpt lat="46.28839451465724" lon="12.506769286506348"><ele>635.3333333333333</ele><time>2026-04-23T11:21:47.998Z</time></trkpt><trkpt lat="46.28832175312686" lon="12.50676300014352"><ele>632.1666666666666</ele><time>2026-04-23T11:21:48.998Z</time></trkpt><trkpt lat="46.28823911202339" lon="12.50679759091677"><ele>629.0</ele><time>2026-04-23T11:21:49.998Z</time></trkpt><trkpt lat="46.28814403827349" lon="12.506862656344289"><ele>629.4</ele><time>2026-04-23T11:21:50.998Z</time></trkpt><trkpt lat="46.28804137420759" lon="12.506937220916369"><ele>629.8</ele><time>2026-04-23T11:21:51.998Z</time></trkpt><trkpt lat="46.28794058483048" lon="12.506986658799812"><ele>630.2</ele><time>2026-04-23T11:21:52.998Z</time></trkpt><trkpt lat="46.287838319717224" lon="12.507012997797961"><ele>630.6</ele><time>2026-04-23T11:21:53.998Z</time></trkpt><trkpt lat="46.287732014558266" lon="12.507004766385368"><ele>631.0</ele><time>2026-04-23T11:21:54.998Z</time></trkpt><trkpt lat="46.287627698084506" lon="12.506963173563873"><ele>631.0</ele><time>2026-04-23T11:21:55.998Z</time></trkpt><trkpt lat="46.28753881383908" lon="12.506917280039234"><ele>631.0</ele><time>2026-04-23T11:21:56.998Z</time></trkpt><trkpt lat="46.287449463372894" lon="12.506876426652"><ele>631.0</ele><time>2026-04-23T11:21:57.998Z</time></trkpt><trkpt lat="46.287367694814755" lon="12.506849180016848"><ele>631.0</ele><time>2026-04-23T11:21:58.998Z</time></trkpt><trkpt lat="46.28728429189952" lon="12.50680884143289"><ele>631.0</ele><time>2026-04-23T11:21:59.998Z</time></trkpt><trkpt lat="46.28719798728761" lon="12.506758525587127"><ele>632.4</ele><time>2026-04-23T11:22:00.998Z</time></trkpt><trkpt lat="46.287109073584915" lon="12.506718325157989"><ele>633.8</ele><time>2026-04-23T11:22:01.998Z</time></trkpt><trkpt lat="46.28702195779378" lon="12.506665105310143"><ele>635.1999999999999</ele><time>2026-04-23T11:22:02.998Z</time></trkpt><trkpt lat="46.286929219988984" lon="12.506599664571857"><ele>636.6</ele><time>2026-04-23T11:22:03.998Z</time></trkpt><trkpt lat="46.28684092830311" lon="12.506535725501951"><ele>638.0</ele><time>2026-04-23T11:22:04.998Z</time></trkpt><trkpt lat="46.28675765591234" lon="12.506451056138108"><ele>638.0</ele><time>2026-04-23T11:22:05.998Z</time></trkpt><trkpt lat="46.28667753937087" lon="12.506355531043209"><ele>638.0</ele><time>2026-04-23T11:22:06.998Z</time></trkpt><trkpt lat="46.2866000620745" lon="12.506242675869794"><ele>638.0</ele><time>2026-04-23T11:22:07.998Z</time></trkpt><trkpt lat="46.28652519977221" lon="12.506133763751627"><ele>638.0</ele><time>2026-04-23T11:22:08.998Z</time></trkpt><trkpt lat="46.28645409637042" lon="12.506021024138244"><ele>638.0</ele><time>2026-04-23T11:22:09.998Z</time></trkpt><trkpt lat="46.286377561868015" lon="12.50592241837289"><ele>636.6</ele><time>2026-04-23T11:22:10.998Z</time></trkpt><trkpt lat="46.28629249860256" lon="12.505819210347942"><ele>635.1999999999999</ele><time>2026-04-23T11:22:11.998Z</time></trkpt><trkpt lat="46.28620572233162" lon="12.50570458308046"><ele>633.8</ele><time>2026-04-23T11:22:12.998Z</time></trkpt><trkpt lat="46.28612316733124" lon="12.50559003006115"><ele>632.4</ele><time>2026-04-23T11:22:13.998Z</time></trkpt><trkpt lat="46.28605315682416" lon="12.50547835446701"><ele>631.0</ele><time>2026-04-23T11:22:14.998Z</time></trkpt><trkpt lat="46.2859922558174" lon="12.50536448844962"><ele>631.0</ele><time>2026-04-23T11:22:15.998Z</time></trkpt><trkpt lat="46.28592939977844" lon="12.505240986276696"><ele>631.0</ele><time>2026-04-23T11:22:16.998Z</time></trkpt><trkpt lat="46.28586773501411" lon="12.505118057667497"><ele>631.0</ele><time>2026-04-23T11:22:17.998Z</time></trkpt><trkpt lat="46.28580693936833" lon="12.50499714561306"><ele>631.0</ele><time>2026-04-23T11:22:18.998Z</time></trkpt><trkpt lat="46.28574972153576" lon="12.504873380845408"><ele>631.0</ele><time>2026-04-23T11:22:19.998Z</time></trkpt><trkpt lat="46.285701722570884" lon="12.504732198845765"><ele>631.0</ele><time>2026-04-23T11:22:20.998Z</time></trkpt><trkpt lat="46.28565815585765" lon="12.504596335390328"><ele>631.0</ele><time>2026-04-23T11:22:21.998Z</time></trkpt><trkpt lat="46.285606074433055" lon="12.504468311752348"><ele>631.0</ele><time>2026-04-23T11:22:22.998Z</time></trkpt><trkpt lat="46.28553620310121" lon="12.504351810363527"><ele>631.0</ele><time>2026-04-23T11:22:23.998Z</time></trkpt><trkpt lat="46.28547429706723" lon="12.50424257438434"><ele>631.0</ele><time>2026-04-23T11:22:24.998Z</time></trkpt><trkpt lat="46.285418453444024" lon="12.504109273745598"><ele>630.0</ele><time>2026-04-23T11:22:25.998Z</time></trkpt><trkpt lat="46.28534565699888" lon="12.503994878268314"><ele>629.0</ele><time>2026-04-23T11:22:26.998Z</time></trkpt><trkpt lat="46.28527207673056" lon="12.503877506812945"><ele>628.0</ele><time>2026-04-23T11:22:27.998Z</time></trkpt><trkpt lat="46.285203456960026" lon="12.503749756738552"><ele>627.0</ele><time>2026-04-23T11:22:28.998Z</time></trkpt><trkpt lat="46.285157889746465" lon="12.503597593816169"><ele>626.0</ele><time>2026-04-23T11:22:29.998Z</time></trkpt><trkpt lat="46.28513051600836" lon="12.503447452226107"><ele>626.0</ele><time>2026-04-23T11:22:30.998Z</time></trkpt><trkpt lat="46.28509614144419" lon="12.503297915555333"><ele>626.0</ele><time>2026-04-23T11:22:31.998Z</time></trkpt><trkpt lat="46.285067662279246" lon="12.503164809154786"><ele>626.0</ele><time>2026-04-23T11:22:32.998Z</time></trkpt><trkpt lat="46.28503672167032" lon="12.503046559271684"><ele>626.0</ele><time>2026-04-23T11:22:33.998Z</time></trkpt><trkpt lat="46.284999198126954" lon="12.50294278651006"><ele>626.0</ele><time>2026-04-23T11:22:34.998Z</time></trkpt><trkpt lat="46.284936673045166" lon="12.502858709045128"><ele>623.5</ele><time>2026-04-23T11:22:35.998Z</time></trkpt><trkpt lat="46.28485190009237" lon="12.502797493579179"><ele>621.0</ele><time>2026-04-23T11:22:36.998Z</time></trkpt><trkpt lat="46.28473830490352" lon="12.502759019070885"><ele>618.5</ele><time>2026-04-23T11:22:37.998Z</time></trkpt><trkpt lat="46.28461549415792" lon="12.50272155083962"><ele>616.0</ele><time>2026-04-23T11:22:38.998Z</time></trkpt><trkpt lat="46.28449782801272" lon="12.502675235579977"><ele>616.0</ele><time>2026-04-23T11:22:39.998Z</time></trkpt><trkpt lat="46.284388681429874" lon="12.502623310071401"><ele>616.0</ele><time>2026-04-23T11:22:40.998Z</time></trkpt><trkpt lat="46.284275478617026" lon="12.502564554825353"><ele>616.0</ele><time>2026-04-23T11:22:41.998Z</time></trkpt><trkpt lat="46.284162120542796" lon="12.502515385043129"><ele>616.0</ele><time>2026-04-23T11:22:42.998Z</time></trkpt><trkpt lat="46.284049849072055" lon="12.502465564281195"><ele>616.0</ele><time>2026-04-23T11:22:43.998Z</time></trkpt><trkpt lat="46.28393800166592" lon="12.502422712701291"><ele>616.0</ele><time>2026-04-23T11:22:44.998Z</time></trkpt><trkpt lat="46.28382427760294" lon="12.5023743152046"><ele>616.0</ele><time>2026-04-23T11:22:45.998Z</time></trkpt><trkpt lat="46.28370904483989" lon="12.502321759420319"><ele>616.0</ele><time>2026-04-23T11:22:46.998Z</time></trkpt><trkpt lat="46.28358915629966" lon="12.502240029664833"><ele>614.25</ele><time>2026-04-23T11:22:47.998Z</time></trkpt><trkpt lat="46.28346977160405" lon="12.502134887561601"><ele>612.5</ele><time>2026-04-23T11:22:48.998Z</time></trkpt><trkpt lat="46.283356999720255" lon="12.502033035341668"><ele>610.75</ele><time>2026-04-23T11:22:49.998Z</time></trkpt><trkpt lat="46.28325637163788" lon="12.501947222035685"><ele>609.0</ele><time>2026-04-23T11:22:50.998Z</time></trkpt><trkpt lat="46.283163055918095" lon="12.501877738781667"><ele>610.2</ele><time>2026-04-23T11:22:51.998Z</time></trkpt><trkpt lat="46.28307691161171" lon="12.5018355576446"><ele>611.4</ele><time>2026-04-23T11:22:52.998Z</time></trkpt><trkpt lat="46.282983050052685" lon="12.501827582058198"><ele>612.6</ele><time>2026-04-23T11:22:53.998Z</time></trkpt><trkpt lat="46.28288280005706" lon="12.501856554294035"><ele>613.8</ele><time>2026-04-23T11:22:54.998Z</time></trkpt><trkpt lat="46.28278521284759" lon="12.501891995111988"><ele>615.0</ele><time>2026-04-23T11:22:56Z</time></trkpt><trkpt lat="46.28268443127944" lon="12.501894567704634"><ele>615.0</ele><time>2026-04-23T11:22:57Z</time></trkpt><trkpt lat="46.28258318334065" lon="12.501850577724566"><ele>615.0</ele><time>2026-04-23T11:22:58Z</time></trkpt><trkpt lat="46.2824826738338" lon="12.501766575696754"><ele>615.0</ele><time>2026-04-23T11:22:59Z</time></trkpt><trkpt lat="46.282377529130564" lon="12.50168221094185"><ele>615.0</ele><time>2026-04-23T11:23:00Z</time></trkpt><trkpt lat="46.282268518661574" lon="12.501607179391707"><ele>620.5</ele><time>2026-04-23T11:23:01Z</time></trkpt><trkpt lat="46.282146730606286" lon="12.501544657094179"><ele>626.0</ele><time>2026-04-23T11:23:02Z</time></trkpt><trkpt lat="46.2820073368855" lon="12.501474725255049"><ele>631.5</ele><time>2026-04-23T11:23:03Z</time></trkpt><trkpt lat="46.281880483304015" lon="12.501409146975595"><ele>637.0</ele><time>2026-04-23T11:23:04Z</time></trkpt><trkpt lat="46.28176642898417" lon="12.50133384256035"><ele>631.25</ele><time>2026-04-23T11:23:05Z</time></trkpt><trkpt lat="46.28165565225929" lon="12.501241930305245"><ele>625.5</ele><time>2026-04-23T11:23:06Z</time></trkpt><trkpt lat="46.281545039876036" lon="12.501129218401232"><ele>619.75</ele><time>2026-04-23T11:23:07Z</time></trkpt><trkpt lat="46.281431841177834" lon="12.501016644707835"><ele>614.0</ele><time>2026-04-23T11:23:08Z</time></trkpt><trkpt lat="46.281312312945516" lon="12.50092094421795"><ele>614.0</ele><time>2026-04-23T11:23:09Z</time></trkpt><trkpt lat="46.2812062398573" lon="12.500823121509919"><ele>614.0</ele><time>2026-04-23T11:23:10Z</time></trkpt><trkpt lat="46.281105989914" lon="12.500751194350324"><ele>614.0</ele><time>2026-04-23T11:23:11Z</time></trkpt><trkpt lat="46.281005422026354" lon="12.500679348430054"><ele>614.0</ele><time>2026-04-23T11:23:12Z</time></trkpt><trkpt lat="46.2809008336598" lon="12.500604630503933"><ele>614.0</ele><time>2026-04-23T11:23:13Z</time></trkpt><trkpt lat="46.28079878168657" lon="12.500531724150745"><ele>614.0</ele><time>2026-04-23T11:23:14Z</time></trkpt><trkpt lat="46.280699365771234" lon="12.50046525077715"><ele>614.0</ele><time>2026-04-23T11:23:15Z</time></trkpt><trkpt lat="46.280613424935865" lon="12.500428500487143"><ele>614.0</ele><time>2026-04-23T11:23:16Z</time></trkpt><trkpt lat="46.28053948105491" lon="12.500404062100056"><ele>614.0</ele><time>2026-04-23T11:23:17Z</time></trkpt><trkpt lat="46.28044663181849" lon="12.50040204410412"><ele>613.75</ele><time>2026-04-23T11:23:18Z</time></trkpt><trkpt lat="46.28032743738334" lon="12.500441547952937"><ele>613.5</ele><time>2026-04-23T11:23:19Z</time></trkpt><trkpt lat="46.280199169512" lon="12.50048852552699"><ele>613.25</ele><time>2026-04-23T11:23:20Z</time></trkpt><trkpt lat="46.28007376407128" lon="12.500466043807501"><ele>613.0</ele><time>2026-04-23T11:23:21Z</time></trkpt><trkpt lat="46.27996105550963" lon="12.500438685297087"><ele>613.0</ele><time>2026-04-23T11:23:22Z</time></trkpt><trkpt lat="46.27985307407103" lon="12.500424895347736"><ele>613.0</ele><time>2026-04-23T11:23:23Z</time></trkpt><trkpt lat="46.27974240449927" lon="12.500470825729888"><ele>613.0</ele><time>2026-04-23T11:23:24Z</time></trkpt><trkpt lat="46.27962806729635" lon="12.500513700821521"><ele>613.0</ele><time>2026-04-23T11:23:25Z</time></trkpt><trkpt lat="46.279513793806274" lon="12.50056640755023"><ele>612.25</ele><time>2026-04-23T11:23:26Z</time></trkpt><trkpt lat="46.27939809117786" lon="12.500555663615522"><ele>611.5</ele><time>2026-04-23T11:23:27Z</time></trkpt><trkpt lat="46.27928213801415" lon="12.50055750340327"><ele>610.75</ele><time>2026-04-23T11:23:28Z</time></trkpt><trkpt lat="46.279162274807135" lon="12.5005594052375"><ele>610.0</ele><time>2026-04-23T11:23:29Z</time></trkpt><trkpt lat="46.2790436235563" lon="12.500559698237973"><ele>610.0</ele><time>2026-04-23T11:23:30Z</time></trkpt><trkpt lat="46.2789250895752" lon="12.500557991334714"><ele>610.0</ele><time>2026-04-23T11:23:31Z</time></trkpt><trkpt lat="46.278803689514824" lon="12.500566688351899"><ele>610.0</ele><time>2026-04-23T11:23:32Z</time></trkpt><trkpt lat="46.27868388283061" lon="12.500537663838829"><ele>610.0</ele><time>2026-04-23T11:23:33Z</time></trkpt><trkpt lat="46.278560836611625" lon="12.500544378197185"><ele>610.0</ele><time>2026-04-23T11:23:34Z</time></trkpt><trkpt lat="46.278449832798884" lon="12.500574052174104"><ele>610.0</ele><time>2026-04-23T11:23:35Z</time></trkpt><trkpt lat="46.27836901074663" lon="12.500612843244227"><ele>610.0</ele><time>2026-04-23T11:23:36Z</time></trkpt><trkpt lat="46.27828968966719" lon="12.5006193924262"><ele>610.0</ele><time>2026-04-23T11:23:37Z</time></trkpt><trkpt lat="46.27820859733281" lon="12.500644076978277"><ele>610.0</ele><time>2026-04-23T11:23:38Z</time></trkpt><trkpt lat="46.278132351658705" lon="12.500668206446283"><ele>610.0</ele><time>2026-04-23T11:23:39Z</time></trkpt><trkpt lat="46.27805597013621" lon="12.500690794282091"><ele>610.0</ele><time>2026-04-23T11:23:40Z</time></trkpt><trkpt lat="46.277984360570116" lon="12.500729535809018"><ele>610.0</ele><time>2026-04-23T11:23:41Z</time></trkpt><trkpt lat="46.27791140090396" lon="12.50071645568135"><ele>610.0</ele><time>2026-04-23T11:23:42Z</time></trkpt><trkpt lat="46.27784060243625" lon="12.500697715559877"><ele>610.0</ele><time>2026-04-23T11:23:43Z</time></trkpt><trkpt lat="46.2777702888789" lon="12.500666341260471"><ele>610.0</ele><time>2026-04-23T11:23:44Z</time></trkpt><trkpt lat="46.277703061191445" lon="12.500587996746823"><ele>610.0</ele><time>2026-04-23T11:23:45Z</time></trkpt><trkpt lat="46.27762790872884" lon="12.500501657836285"><ele>610.0</ele><time>2026-04-23T11:23:46Z</time></trkpt><trkpt lat="46.2775576891812" lon="12.50045106695083"><ele>610.0</ele><time>2026-04-23T11:23:47Z</time></trkpt><trkpt lat="46.27747961170958" lon="12.500457607524503"><ele>610.0</ele><time>2026-04-23T11:23:48Z</time></trkpt><trkpt lat="46.2773967787102" lon="12.500485659296631"><ele>610.0</ele><time>2026-04-23T11:23:49Z</time></trkpt><trkpt lat="46.277312547497175" lon="12.50054985716001"><ele>610.0</ele><time>2026-04-23T11:23:50Z</time></trkpt><trkpt lat="46.277224376760344" lon="12.500630432223527"><ele>610.0</ele><time>2026-04-23T11:23:51Z</time></trkpt><trkpt lat="46.2771407653025" lon="12.500697084482622"><ele>608.5</ele><time>2026-04-23T11:23:52Z</time></trkpt><trkpt lat="46.277070012857884" lon="12.500761840952247"><ele>607.0</ele><time>2026-04-23T11:23:53Z</time></trkpt><trkpt lat="46.27702014664699" lon="12.500842187148717"><ele>605.5</ele><time>2026-04-23T11:23:54Z</time></trkpt><trkpt lat="46.27698843237149" lon="12.500938885771582"><ele>604.0</ele><time>2026-04-23T11:23:55Z</time></trkpt><trkpt lat="46.27695431876214" lon="12.50102219042703"><ele>602.5</ele><time>2026-04-23T11:23:56Z</time></trkpt><trkpt lat="46.27685008175592" lon="12.501083636328703"><ele>601.0</ele><time>2026-04-23T11:23:58Z</time></trkpt><trkpt lat="46.27680074609514" lon="12.500969678733133"><ele>601.0</ele><time>2026-04-23T11:23:59Z</time></trkpt><trkpt lat="46.27666876290105" lon="12.500935772299572"><ele>601.0</ele><time>2026-04-23T11:24:01Z</time></trkpt><trkpt lat="46.27657605802848" lon="12.50096161077678"><ele>601.0</ele><time>2026-04-23T11:24:02Z</time></trkpt><trkpt lat="46.27648037584268" lon="12.500953021091918"><ele>601.0</ele><time>2026-04-23T11:24:03Z</time></trkpt><trkpt lat="46.276379044506676" lon="12.500982796431051"><ele>601.0</ele><time>2026-04-23T11:24:04Z</time></trkpt><trkpt lat="46.27627817408622" lon="12.500982342008886"><ele>600.8333333333334</ele><time>2026-04-23T11:24:05Z</time></trkpt><trkpt lat="46.27619026250253" lon="12.50098142596704"><ele>600.6666666666667</ele><time>2026-04-23T11:24:06Z</time></trkpt><trkpt lat="46.27611859924795" lon="12.500990143504758"><ele>600.5</ele><time>2026-04-23T11:24:06.999Z</time></trkpt><trkpt lat="46.276056117461245" lon="12.501004479559217"><ele>600.3333333333334</ele><time>2026-04-23T11:24:07.999Z</time></trkpt><trkpt lat="46.27593918864784" lon="12.500966179156661"><ele>600.1666666666666</ele><time>2026-04-23T11:24:09.999Z</time></trkpt><trkpt lat="46.27589178234184" lon="12.500862154699567"><ele>600.0</ele><time>2026-04-23T11:24:10.999Z</time></trkpt><trkpt lat="46.27581970828678" lon="12.500779940577505"><ele>600.0</ele><time>2026-04-23T11:24:11.999Z</time></trkpt><trkpt lat="46.27574069193691" lon="12.500691615161907"><ele>600.0</ele><time>2026-04-23T11:24:12.999Z</time></trkpt><trkpt lat="46.27566487546939" lon="12.500616463887638"><ele>600.0</ele><time>2026-04-23T11:24:13.999Z</time></trkpt><trkpt lat="46.27559373270262" lon="12.500545596849033"><ele>600.0</ele><time>2026-04-23T11:24:14.999Z</time></trkpt><trkpt lat="46.275526680306" lon="12.500479129544875"><ele>600.0</ele><time>2026-04-23T11:24:15.999Z</time></trkpt><trkpt lat="46.27545970460704" lon="12.500415383975616"><ele>600.0</ele><time>2026-04-23T11:24:16.999Z</time></trkpt><trkpt lat="46.2753937376365" lon="12.500356058215202"><ele>597.8</ele><time>2026-04-23T11:24:17.999Z</time></trkpt><trkpt lat="46.27532610534782" lon="12.500298959888422"><ele>595.6</ele><time>2026-04-23T11:24:18.999Z</time></trkpt><trkpt lat="46.275259169755984" lon="12.500243068742673"><ele>593.4</ele><time>2026-04-23T11:24:19.999Z</time></trkpt><trkpt lat="46.2751179466293" lon="12.500136529100335"><ele>591.2</ele><time>2026-04-23T11:24:21.999Z</time></trkpt><trkpt lat="46.27504298659895" lon="12.500092491505251"><ele>589.0</ele><time>2026-04-23T11:24:22.999Z</time></trkpt><trkpt lat="46.27496115516345" lon="12.500054315119323"><ele>589.0</ele><time>2026-04-23T11:24:23.999Z</time></trkpt><trkpt lat="46.27486509538618" lon="12.500023489725855"><ele>589.0</ele><time>2026-04-23T11:24:24.999Z</time></trkpt><trkpt lat="46.27476257485661" lon="12.500000774240585"><ele>589.0</ele><time>2026-04-23T11:24:25.999Z</time></trkpt><trkpt lat="46.274662107751844" lon="12.499996637386305"><ele>589.0</ele><time>2026-04-23T11:24:26.999Z</time></trkpt><trkpt lat="46.27456532564656" lon="12.499970717947184"><ele>589.0</ele><time>2026-04-23T11:24:27.999Z</time></trkpt><trkpt lat="46.27446560601347" lon="12.499940609755171"><ele>588.0</ele><time>2026-04-23T11:24:28.999Z</time></trkpt><trkpt lat="46.27435801925468" lon="12.499898372726037"><ele>587.0</ele><time>2026-04-23T11:24:29.999Z</time></trkpt><trkpt lat="46.27425384385332" lon="12.499849215463135"><ele>586.0</ele><time>2026-04-23T11:24:30.999Z</time></trkpt><trkpt lat="46.27415345767142" lon="12.499795776789044"><ele>585.0</ele><time>2026-04-23T11:24:31.999Z</time></trkpt><trkpt lat="46.27407236232919" lon="12.49972024747268"><ele>584.0</ele><time>2026-04-23T11:24:32.999Z</time></trkpt><trkpt lat="46.27398807070901" lon="12.49967341735411"><ele>584.4</ele><time>2026-04-23T11:24:33.999Z</time></trkpt><trkpt lat="46.27391837968269" lon="12.499609093455025"><ele>584.8</ele><time>2026-04-23T11:24:34.999Z</time></trkpt><trkpt lat="46.27384110145248" lon="12.49952381304939"><ele>585.2</ele><time>2026-04-23T11:24:35.999Z</time></trkpt><trkpt lat="46.2737493367509" lon="12.499497646709584"><ele>585.6</ele><time>2026-04-23T11:24:36.999Z</time></trkpt><trkpt lat="46.27365798862864" lon="12.499573869309927"><ele>586.0</ele><time>2026-04-23T11:24:37.999Z</time></trkpt><trkpt lat="46.27356232377315" lon="12.499605165070559"><ele>586.0</ele><time>2026-04-23T11:24:38.999Z</time></trkpt><trkpt lat="46.27345855443619" lon="12.499604940940436"><ele>586.0</ele><time>2026-04-23T11:24:39.999Z</time></trkpt><trkpt lat="46.27337911712796" lon="12.49961877753251"><ele>586.0</ele><time>2026-04-23T11:24:40.999Z</time></trkpt><trkpt lat="46.273268979281234" lon="12.499571854760553"><ele>586.0</ele><time>2026-04-23T11:24:41.999Z</time></trkpt><trkpt lat="46.27318483359029" lon="12.499474128130538"><ele>586.0</ele><time>2026-04-23T11:24:42.999Z</time></trkpt><trkpt lat="46.27307716037261" lon="12.499411989374838"><ele>584.0</ele><time>2026-04-23T11:24:43.999Z</time></trkpt><trkpt lat="46.27296490660551" lon="12.49935159243889"><ele>582.0</ele><time>2026-04-23T11:24:44.999Z</time></trkpt><trkpt lat="46.27282827288299" lon="12.499300531919056"><ele>580.0</ele><time>2026-04-23T11:24:45.999Z</time></trkpt><trkpt lat="46.272680614422846" lon="12.49921789316223"><ele>578.0</ele><time>2026-04-23T11:24:46.999Z</time></trkpt><trkpt lat="46.27234515790804" lon="12.499094960695052"><ele>576.6666666666666</ele><time>2026-04-23T11:24:48.999Z</time></trkpt><trkpt lat="46.272173844247334" lon="12.499012340982935"><ele>575.3333333333334</ele><time>2026-04-23T11:24:49.999Z</time></trkpt><trkpt lat="46.2720168804551" lon="12.49895551121182"><ele>574.0</ele><time>2026-04-23T11:24:50.999Z</time></trkpt><trkpt lat="46.27186558282229" lon="12.498898720027452"><ele>574.0</ele><time>2026-04-23T11:24:51.999Z</time></trkpt><trkpt lat="46.27174158824755" lon="12.498881167814138"><ele>574.0</ele><time>2026-04-23T11:24:52.999Z</time></trkpt><trkpt lat="46.27160723639789" lon="12.498874207379336"><ele>574.0</ele><time>2026-04-23T11:24:53.999Z</time></trkpt><trkpt lat="46.2714527423711" lon="12.498890262190285"><ele>574.0</ele><time>2026-04-23T11:24:54.999Z</time></trkpt><trkpt lat="46.27130840760496" lon="12.498909411018321"><ele>573.2</ele><time>2026-04-23T11:24:55.999Z</time></trkpt><trkpt lat="46.27118573265977" lon="12.498923840219625"><ele>572.4</ele><time>2026-04-23T11:24:56.999Z</time></trkpt><trkpt lat="46.27108829770315" lon="12.498976265393967"><ele>571.6</ele><time>2026-04-23T11:24:57.999Z</time></trkpt><trkpt lat="46.27100167598611" lon="12.499062496686715"><ele>570.8</ele><time>2026-04-23T11:24:58.999Z</time></trkpt><trkpt lat="46.27092427368664" lon="12.499171045293982"><ele>570.0</ele><time>2026-04-23T11:24:59.999Z</time></trkpt><trkpt lat="46.270834367870265" lon="12.499290205652896"><ele>570.0</ele><time>2026-04-23T11:25:00.999Z</time></trkpt><trkpt lat="46.270723757803246" lon="12.499410409251313"><ele>570.0</ele><time>2026-04-23T11:25:02Z</time></trkpt><trkpt lat="46.27060602870868" lon="12.499517998061165"><ele>570.0</ele><time>2026-04-23T11:25:03Z</time></trkpt><trkpt lat="46.27049778880279" lon="12.499613598672111"><ele>570.0</ele><time>2026-04-23T11:25:04Z</time></trkpt><trkpt lat="46.27039705897046" lon="12.49970680921967"><ele>570.6</ele><time>2026-04-23T11:25:05Z</time></trkpt><trkpt lat="46.270307021941726" lon="12.499790947840811"><ele>571.2</ele><time>2026-04-23T11:25:06Z</time></trkpt><trkpt lat="46.27022156229955" lon="12.49986463812206"><ele>571.8</ele><time>2026-04-23T11:25:07Z</time></trkpt><trkpt lat="46.27014138124375" lon="12.499934392762786"><ele>572.4</ele><time>2026-04-23T11:25:08Z</time></trkpt><trkpt lat="46.27005530292297" lon="12.500001568709068"><ele>573.0</ele><time>2026-04-23T11:25:09Z</time></trkpt><trkpt lat="46.26996824045768" lon="12.500078988819489"><ele>573.0</ele><time>2026-04-23T11:25:10Z</time></trkpt><trkpt lat="46.269892606324504" lon="12.500154682719801"><ele>573.0</ele><time>2026-04-23T11:25:11Z</time></trkpt><trkpt lat="46.26983888750954" lon="12.500208436342179"><ele>573.0</ele><time>2026-04-23T11:25:12Z</time></trkpt><trkpt lat="46.26977819537176" lon="12.500234489281812"><ele>573.0</ele><time>2026-04-23T11:25:22Z</time></trkpt><trkpt lat="46.26972195363568" lon="12.50029810982714"><ele>573.0</ele><time>2026-04-23T11:25:31Z</time></trkpt><trkpt lat="46.269661176662" lon="12.500094504303672"><ele>573.0</ele><time>2026-04-23T11:25:34Z</time></trkpt><trkpt lat="46.26960903445164" lon="12.499997209445688"><ele>572.5</ele><time>2026-04-23T11:25:35Z</time></trkpt><trkpt lat="46.26953492984051" lon="12.499925581184684"><ele>572.0</ele><time>2026-04-23T11:25:36Z</time></trkpt><trkpt lat="46.26945415502795" lon="12.499866046778068"><ele>571.5</ele><time>2026-04-23T11:25:37Z</time></trkpt><trkpt lat="46.26937929228006" lon="12.49984889568274"><ele>571.0</ele><time>2026-04-23T11:25:38Z</time></trkpt><trkpt lat="46.269280625275016" lon="12.4998714997405"><ele>570.5</ele><time>2026-04-23T11:25:40Z</time></trkpt><trkpt lat="46.26936398208166" lon="12.499856704863939"><ele>570.0</ele><time>2026-04-23T11:25:53Z</time></trkpt><trkpt lat="46.26945983550328" lon="12.499918877057176"><ele>570.0</ele><time>2026-04-23T11:25:54Z</time></trkpt><trkpt lat="46.26954293478908" lon="12.499969996123818"><ele>570.0</ele><time>2026-04-23T11:25:55Z</time></trkpt><trkpt lat="46.26961801044898" lon="12.500068004900315"><ele>570.0</ele><time>2026-04-23T11:25:56Z</time></trkpt><trkpt lat="46.26965899262445" lon="12.500198230838102"><ele>570.0</ele><time>2026-04-23T11:25:57Z</time></trkpt><trkpt lat="46.269662718270666" lon="12.500336420188125"><ele>570.0</ele><time>2026-04-23T11:25:58Z</time></trkpt><trkpt lat="46.26968855779278" lon="12.500450191480931"><ele>571.6</ele><time>2026-04-23T11:25:59Z</time></trkpt><trkpt lat="46.269579613424554" lon="12.50058812963193"><ele>573.2</ele><time>2026-04-23T11:26:00Z</time></trkpt><trkpt lat="46.26950467235015" lon="12.500683226649498"><ele>574.8</ele><time>2026-04-23T11:26:01Z</time></trkpt><trkpt lat="46.269432293647185" lon="12.500776038259554"><ele>576.4</ele><time>2026-04-23T11:26:02Z</time></trkpt><trkpt lat="46.26936426383898" lon="12.500875376669093"><ele>578.0</ele><time>2026-04-23T11:26:03Z</time></trkpt><trkpt lat="46.269283853932976" lon="12.50095103072579"><ele>578.0</ele><time>2026-04-23T11:26:04Z</time></trkpt><trkpt lat="46.269192545349405" lon="12.500983634213902"><ele>578.0</ele><time>2026-04-23T11:26:05Z</time></trkpt><trkpt lat="46.26909827207199" lon="12.500986450139663"><ele>578.0</ele><time>2026-04-23T11:26:06Z</time></trkpt><trkpt lat="46.26901740575182" lon="12.500966881359028"><ele>578.0</ele><time>2026-04-23T11:26:07Z</time></trkpt><trkpt lat="46.268939178229715" lon="12.500976801089058"><ele>578.0</ele><time>2026-04-23T11:26:09Z</time></trkpt><trkpt lat="46.268945342705344" lon="12.50075703673499"><ele>576.0</ele><time>2026-04-23T11:26:10Z</time></trkpt><trkpt lat="46.26894254318724" lon="12.500610862323567"><ele>574.0</ele><time>2026-04-23T11:26:11Z</time></trkpt><trkpt lat="46.268937822834474" lon="12.500427635638795"><ele>572.0</ele><time>2026-04-23T11:26:12Z</time></trkpt><trkpt lat="46.268926712953416" lon="12.500212961267367"><ele>570.0</ele><time>2026-04-23T11:26:13Z</time></trkpt><trkpt lat="46.26891219956645" lon="12.499972744040148"><ele>569.0</ele><time>2026-04-23T11:26:14Z</time></trkpt><trkpt lat="46.26889374394449" lon="12.499715917007697"><ele>568.0</ele><time>2026-04-23T11:26:15Z</time></trkpt><trkpt lat="46.2688517122778" lon="12.499456173152371"><ele>567.0</ele><time>2026-04-23T11:26:15.999Z</time></trkpt><trkpt lat="46.26882736668307" lon="12.499178432181418"><ele>567.0</ele><time>2026-04-23T11:26:16.999Z</time></trkpt><trkpt lat="46.26878184977562" lon="12.498886760039515"><ele>567.0</ele><time>2026-04-23T11:26:17.999Z</time></trkpt><trkpt lat="46.2687339525677" lon="12.498579250413016"><ele>567.0</ele><time>2026-04-23T11:26:18.999Z</time></trkpt><trkpt lat="46.268676651752315" lon="12.498264377046768"><ele>566.5</ele><time>2026-04-23T11:26:19.999Z</time></trkpt><trkpt lat="46.26860773146448" lon="12.497945054062"><ele>566.0</ele><time>2026-04-23T11:26:20.999Z</time></trkpt><trkpt lat="46.26852661735506" lon="12.497624251167068"><ele>566.0</ele><time>2026-04-23T11:26:21.999Z</time></trkpt><trkpt lat="46.268454229727716" lon="12.497296625978322"><ele>566.0</ele><time>2026-04-23T11:26:22.999Z</time></trkpt><trkpt lat="46.26836024932834" lon="12.496981263911659"><ele>566.5</ele><time>2026-04-23T11:26:23.999Z</time></trkpt><trkpt lat="46.268244786105214" lon="12.496678111496358"><ele>567.0</ele><time>2026-04-23T11:26:24.999Z</time></trkpt><trkpt lat="46.26815622175862" lon="12.496357159230525"><ele>567.0</ele><time>2026-04-23T11:26:25.999Z</time></trkpt><trkpt lat="46.26803728781351" lon="12.49606060695952"><ele>567.0</ele><time>2026-04-23T11:26:26.999Z</time></trkpt><trkpt lat="46.26793456967259" lon="12.495757895504775"><ele>567.0</ele><time>2026-04-23T11:26:27.999Z</time></trkpt><trkpt lat="46.26783170337945" lon="12.495453047923226"><ele>567.0</ele><time>2026-04-23T11:26:28.999Z</time></trkpt><trkpt lat="46.26773323965889" lon="12.495152205198687"><ele>568.0</ele><time>2026-04-23T11:26:29.999Z</time></trkpt><trkpt lat="46.267635012898495" lon="12.494851893304425"><ele>569.0</ele><time>2026-04-23T11:26:30.999Z</time></trkpt><trkpt lat="46.2675367078466" lon="12.494562555852038"><ele>571.0</ele><time>2026-04-23T11:26:31.999Z</time></trkpt><trkpt lat="46.26744512042492" lon="12.494294696350003"><ele>573.0</ele><time>2026-04-23T11:26:32.999Z</time></trkpt><trkpt lat="46.26736117229345" lon="12.494044329443422"><ele>575.0</ele><time>2026-04-23T11:26:33.999Z</time></trkpt><trkpt lat="46.26729723842406" lon="12.49379996541578"><ele>573.6666666666666</ele><time>2026-04-23T11:26:34.999Z</time></trkpt><trkpt lat="46.26723244468363" lon="12.493571343870244"><ele>572.3333333333334</ele><time>2026-04-23T11:26:35.999Z</time></trkpt><trkpt lat="46.26717253848015" lon="12.493335286934"><ele>571.0</ele><time>2026-04-23T11:26:36.999Z</time></trkpt><trkpt lat="46.26711064366206" lon="12.493101420158931"><ele>572.6666666666667</ele><time>2026-04-23T11:26:37.999Z</time></trkpt><trkpt lat="46.267061850055185" lon="12.492862307419204"><ele>574.3333333333334</ele><time>2026-04-23T11:26:38.999Z</time></trkpt><trkpt lat="46.26701673826052" lon="12.49262157432445"><ele>576.0</ele><time>2026-04-23T11:26:39.999Z</time></trkpt><trkpt lat="46.26697273851238" lon="12.492386442524001"><ele>576.0</ele><time>2026-04-23T11:26:40.999Z</time></trkpt><trkpt lat="46.26693062114583" lon="12.492149730588755"><ele>576.0</ele><time>2026-04-23T11:26:41.999Z</time></trkpt><trkpt lat="46.26689048584914" lon="12.491913543031897"><ele>576.0</ele><time>2026-04-23T11:26:42.999Z</time></trkpt><trkpt lat="46.26684823111435" lon="12.491677570354947"><ele>576.6666666666666</ele><time>2026-04-23T11:26:43.999Z</time></trkpt><trkpt lat="46.26680491397051" lon="12.49144471812465"><ele>577.3333333333333</ele><time>2026-04-23T11:26:44.999Z</time></trkpt><trkpt lat="46.26676100990933" lon="12.491213889768341"><ele>578.0</ele><time>2026-04-23T11:26:45.999Z</time></trkpt><trkpt lat="46.2667207180727" lon="12.490984676285334"><ele>579.0</ele><time>2026-04-23T11:26:46.999Z</time></trkpt><trkpt lat="46.2666798407796" lon="12.490758940324358"><ele>580.0</ele><time>2026-04-23T11:26:47.999Z</time></trkpt><trkpt lat="46.26663515052824" lon="12.490530882711036"><ele>581.0</ele><time>2026-04-23T11:26:48.999Z</time></trkpt><trkpt lat="46.26660664258006" lon="12.490292929698233"><ele>581.0</ele><time>2026-04-23T11:26:49.999Z</time></trkpt><trkpt lat="46.26656310050861" lon="12.490056824751811"><ele>581.0</ele><time>2026-04-23T11:26:50.999Z</time></trkpt><trkpt lat="46.26651934278993" lon="12.489819550452735"><ele>581.0</ele><time>2026-04-23T11:26:51.999Z</time></trkpt><trkpt lat="46.266475266671684" lon="12.489580549648865"><ele>576.3333333333333</ele><time>2026-04-23T11:26:52.999Z</time></trkpt><trkpt lat="46.26643059636042" lon="12.489338364811756"><ele>571.6666666666666</ele><time>2026-04-23T11:26:53.999Z</time></trkpt><trkpt lat="46.26637077093468" lon="12.489100834070376"><ele>567.0</ele><time>2026-04-23T11:26:54.999Z</time></trkpt><trkpt lat="46.266326537295576" lon="12.488855320804321"><ele>567.6666666666666</ele><time>2026-04-23T11:26:55.999Z</time></trkpt><trkpt lat="46.26628534367428" lon="12.488607623693449"><ele>568.3333333333333</ele><time>2026-04-23T11:26:56.999Z</time></trkpt><trkpt lat="46.26624626945619" lon="12.488356237763151"><ele>569.0</ele><time>2026-04-23T11:26:57.999Z</time></trkpt><trkpt lat="46.266208035726976" lon="12.488101822862614"><ele>568.6666666666666</ele><time>2026-04-23T11:26:58.999Z</time></trkpt><trkpt lat="46.266190017216296" lon="12.487842733019432"><ele>568.3333333333334</ele><time>2026-04-23T11:26:59.999Z</time></trkpt><trkpt lat="46.26616013841117" lon="12.487583126640416"><ele>568.0</ele><time>2026-04-23T11:27:00.999Z</time></trkpt><trkpt lat="46.26613550905169" lon="12.487327252841686"><ele>567.0</ele><time>2026-04-23T11:27:01.999Z</time></trkpt><trkpt lat="46.26611737316473" lon="12.48708481694151"><ele>566.0</ele><time>2026-04-23T11:27:02.999Z</time></trkpt><trkpt lat="46.266088224366825" lon="12.486851943199165"><ele>565.0</ele><time>2026-04-23T11:27:03.999Z</time></trkpt><trkpt lat="46.266085643252964" lon="12.486620855587496"><ele>565.0</ele><time>2026-04-23T11:27:04.999Z</time></trkpt><trkpt lat="46.266077803492145" lon="12.486384140076774"><ele>565.0</ele><time>2026-04-23T11:27:05.999Z</time></trkpt><trkpt lat="46.2660735306839" lon="12.486151023875953"><ele>565.0</ele><time>2026-04-23T11:27:06.999Z</time></trkpt><trkpt lat="46.26607154826359" lon="12.485915466770104"><ele>565.0</ele><time>2026-04-23T11:27:08Z</time></trkpt><trkpt lat="46.26607319389876" lon="12.485686773283353"><ele>565.0</ele><time>2026-04-23T11:27:09Z</time></trkpt><trkpt lat="46.26607426296569" lon="12.485458197287842"><ele>565.0</ele><time>2026-04-23T11:27:10Z</time></trkpt><trkpt lat="46.26607687506397" lon="12.485232963016003"><ele>565.0</ele><time>2026-04-23T11:27:11Z</time></trkpt><trkpt lat="46.26607916183015" lon="12.485002352981805"><ele>565.0</ele><time>2026-04-23T11:27:12Z</time></trkpt><trkpt lat="46.266079280634486" lon="12.48477108830266"><ele>565.0</ele><time>2026-04-23T11:27:13Z</time></trkpt><trkpt lat="46.2660956783769" lon="12.484535760083595"><ele>564.0</ele><time>2026-04-23T11:27:14Z</time></trkpt><trkpt lat="46.26607599071008" lon="12.484303626478765"><ele>563.0</ele><time>2026-04-23T11:27:15Z</time></trkpt><trkpt lat="46.266066681232" lon="12.484077540023858"><ele>562.0</ele><time>2026-04-23T11:27:16Z</time></trkpt><trkpt lat="46.266053006960746" lon="12.483856250781805"><ele>561.3333333333334</ele><time>2026-04-23T11:27:17Z</time></trkpt><trkpt lat="46.26603728570972" lon="12.483631462141435"><ele>560.6666666666666</ele><time>2026-04-23T11:27:18Z</time></trkpt><trkpt lat="46.26602008714155" lon="12.483404838262185"><ele>560.0</ele><time>2026-04-23T11:27:19Z</time></trkpt><trkpt lat="46.266001403949794" lon="12.483180569978085"><ele>560.0</ele><time>2026-04-23T11:27:20Z</time></trkpt><trkpt lat="46.265979695008475" lon="12.482956523352204"><ele>560.0</ele><time>2026-04-23T11:27:21Z</time></trkpt><trkpt lat="46.26595691359258" lon="12.482733931632927"><ele>560.0</ele><time>2026-04-23T11:27:22Z</time></trkpt><trkpt lat="46.26592354553028" lon="12.482520698193358"><ele>559.6666666666666</ele><time>2026-04-23T11:27:23Z</time></trkpt><trkpt lat="46.265886193352166" lon="12.482311980737904"><ele>559.3333333333334</ele><time>2026-04-23T11:27:24Z</time></trkpt><trkpt lat="46.26583678291387" lon="12.482103666563113"><ele>559.0</ele><time>2026-04-23T11:27:25Z</time></trkpt><trkpt lat="46.26577405180015" lon="12.481904248701735"><ele>558.6666666666667</ele><time>2026-04-23T11:27:26Z</time></trkpt><trkpt lat="46.26571557753408" lon="12.481692870576262"><ele>558.3333333333334</ele><time>2026-04-23T11:27:27Z</time></trkpt><trkpt lat="46.26562228093559" lon="12.481513089095944"><ele>558.0</ele><time>2026-04-23T11:27:28Z</time></trkpt><trkpt lat="46.26553025683821" lon="12.481329170706685"><ele>557.3333333333334</ele><time>2026-04-23T11:27:29Z</time></trkpt><trkpt lat="46.265437595845334" lon="12.481150270868335"><ele>556.6666666666667</ele><time>2026-04-23T11:27:30Z</time></trkpt><trkpt lat="46.26533689926413" lon="12.48097445844729"><ele>556.0</ele><time>2026-04-23T11:27:31Z</time></trkpt><trkpt lat="46.26523676141092" lon="12.480804751610336"><ele>556.0</ele><time>2026-04-23T11:27:32Z</time></trkpt><trkpt lat="46.26513684431935" lon="12.480635882047922"><ele>556.0</ele><time>2026-04-23T11:27:33Z</time></trkpt><trkpt lat="46.26504111073032" lon="12.480465769925697"><ele>556.0</ele><time>2026-04-23T11:27:34Z</time></trkpt><trkpt lat="46.264946874071455" lon="12.4802975933875"><ele>555.75</ele><time>2026-04-23T11:27:35Z</time></trkpt><trkpt lat="46.26485068825747" lon="12.480128860869355"><ele>555.5</ele><time>2026-04-23T11:27:36Z</time></trkpt><trkpt lat="46.264756278161634" lon="12.479962096248501"><ele>555.25</ele><time>2026-04-23T11:27:37Z</time></trkpt><trkpt lat="46.26466228569258" lon="12.479805849240693"><ele>555.0</ele><time>2026-04-23T11:27:38Z</time></trkpt><trkpt lat="46.264572115688914" lon="12.479640630585603"><ele>554.0</ele><time>2026-04-23T11:27:39Z</time></trkpt><trkpt lat="46.26448651764671" lon="12.479476793664958"><ele>553.0</ele><time>2026-04-23T11:27:40Z</time></trkpt><trkpt lat="46.26441325150728" lon="12.479315600132718"><ele>552.0</ele><time>2026-04-23T11:27:41Z</time></trkpt><trkpt lat="46.26433939883301" lon="12.479150657870498"><ele>551.0</ele><time>2026-04-23T11:27:42Z</time></trkpt><trkpt lat="46.26427594092084" lon="12.478980232051212"><ele>551.0</ele><time>2026-04-23T11:27:43Z</time></trkpt><trkpt lat="46.264212548942986" lon="12.47881402722466"><ele>551.0</ele><time>2026-04-23T11:27:44Z</time></trkpt><trkpt lat="46.26414199577927" lon="12.47865835940803"><ele>551.0</ele><time>2026-04-23T11:27:45Z</time></trkpt><trkpt lat="46.26405373081067" lon="12.47852342798891"><ele>551.0</ele><time>2026-04-23T11:27:46Z</time></trkpt><trkpt lat="46.26398706367559" lon="12.478369896384173"><ele>550.25</ele><time>2026-04-23T11:27:47Z</time></trkpt><trkpt lat="46.26391746913546" lon="12.478222302267"><ele>549.5</ele><time>2026-04-23T11:27:48Z</time></trkpt><trkpt lat="46.26386956380406" lon="12.478053098287793"><ele>548.75</ele><time>2026-04-23T11:27:49Z</time></trkpt><trkpt lat="46.26381398699341" lon="12.477895837665333"><ele>548.0</ele><time>2026-04-23T11:27:50Z</time></trkpt><trkpt lat="46.26376304171269" lon="12.477738346020196"><ele>548.0</ele><time>2026-04-23T11:27:51Z</time></trkpt><trkpt lat="46.26371564514545" lon="12.47757824540671"><ele>548.0</ele><time>2026-04-23T11:27:52Z</time></trkpt><trkpt lat="46.26367043563324" lon="12.477414281073797"><ele>548.0</ele><time>2026-04-23T11:27:53Z</time></trkpt><trkpt lat="46.26363501921178" lon="12.477245620191669"><ele>548.0</ele><time>2026-04-23T11:27:54Z</time></trkpt><trkpt lat="46.26360038892388" lon="12.477073434847313"><ele>547.0</ele><time>2026-04-23T11:27:55Z</time></trkpt><trkpt lat="46.263569111119324" lon="12.47690206701833"><ele>546.0</ele><time>2026-04-23T11:27:56Z</time></trkpt><trkpt lat="46.26352756293869" lon="12.476731327626393"><ele>545.0</ele><time>2026-04-23T11:27:57Z</time></trkpt><trkpt lat="46.263505706181725" lon="12.476556753449536"><ele>544.0</ele><time>2026-04-23T11:27:58Z</time></trkpt><trkpt lat="46.263490180922744" lon="12.476380125550216"><ele>543.5</ele><time>2026-04-23T11:27:59Z</time></trkpt><trkpt lat="46.26348839076046" lon="12.476206308093545"><ele>543.0</ele><time>2026-04-23T11:28:00Z</time></trkpt><trkpt lat="46.26347225409017" lon="12.47603027779105"><ele>542.5</ele><time>2026-04-23T11:28:01Z</time></trkpt><trkpt lat="46.26345661994709" lon="12.475858632308043"><ele>542.0</ele><time>2026-04-23T11:28:02Z</time></trkpt><trkpt lat="46.263440440121705" lon="12.475684927273017"><ele>542.0</ele><time>2026-04-23T11:28:03Z</time></trkpt><trkpt lat="46.263421579202" lon="12.475501961891231"><ele>542.0</ele><time>2026-04-23T11:28:04Z</time></trkpt><trkpt lat="46.26338578316959" lon="12.47531476565238"><ele>542.0</ele><time>2026-04-23T11:28:05Z</time></trkpt><trkpt lat="46.263359449173855" lon="12.47511167243527"><ele>542.0</ele><time>2026-04-23T11:28:06Z</time></trkpt><trkpt lat="46.26332233585041" lon="12.474902388701896"><ele>542.0</ele><time>2026-04-23T11:28:07Z</time></trkpt><trkpt lat="46.263279036866464" lon="12.474668534254162"><ele>542.0</ele><time>2026-04-23T11:28:08Z</time></trkpt><trkpt lat="46.263214485934" lon="12.474492176062805"><ele>542.0</ele><time>2026-04-23T11:28:09Z</time></trkpt><trkpt lat="46.26313010423343" lon="12.474306764590985"><ele>541.6666666666666</ele><time>2026-04-23T11:28:10Z</time></trkpt><trkpt lat="46.263048938080615" lon="12.474107581763699"><ele>541.3333333333334</ele><time>2026-04-23T11:28:11Z</time></trkpt><trkpt lat="46.262952124581076" lon="12.473929847994613"><ele>541.0</ele><time>2026-04-23T11:28:12Z</time></trkpt><trkpt lat="46.262854039632984" lon="12.473765924673078"><ele>541.5</ele><time>2026-04-23T11:28:13Z</time></trkpt><trkpt lat="46.2627536293489" lon="12.473602249821303"><ele>542.0</ele><time>2026-04-23T11:28:14Z</time></trkpt><trkpt lat="46.26265417318429" lon="12.473440444984597"><ele>542.5</ele><time>2026-04-23T11:28:15Z</time></trkpt><trkpt lat="46.262561342278914" lon="12.473289979804015"><ele>543.0</ele><time>2026-04-23T11:28:16Z</time></trkpt><trkpt lat="46.262452698172574" lon="12.473143508285407"><ele>542.0</ele><time>2026-04-23T11:28:17Z</time></trkpt><trkpt lat="46.262274251847685" lon="12.472819148106447"><ele>541.0</ele><time>2026-04-23T11:28:19Z</time></trkpt><trkpt lat="46.26218293974932" lon="12.472667581398595"><ele>540.0</ele><time>2026-04-23T11:28:20Z</time></trkpt><trkpt lat="46.2620907742835" lon="12.472516941204983"><ele>540.0</ele><time>2026-04-23T11:28:21Z</time></trkpt><trkpt lat="46.26198867494845" lon="12.472350064575076"><ele>540.0</ele><time>2026-04-23T11:28:22Z</time></trkpt><trkpt lat="46.26189228983056" lon="12.472193543177669"><ele>540.0</ele><time>2026-04-23T11:28:22.999Z</time></trkpt><trkpt lat="46.26179383186066" lon="12.472034893375536"><ele>540.0</ele><time>2026-04-23T11:28:23.999Z</time></trkpt><trkpt lat="46.2616825878603" lon="12.471855640862978"><ele>540.6666666666666</ele><time>2026-04-23T11:28:24.999Z</time></trkpt><trkpt lat="46.26156645027248" lon="12.471668503072927"><ele>541.3333333333333</ele><time>2026-04-23T11:28:25.999Z</time></trkpt><trkpt lat="46.26145238324787" lon="12.471484701690782"><ele>542.0</ele><time>2026-04-23T11:28:26.999Z</time></trkpt><trkpt lat="46.261346628212806" lon="12.471314293797876"><ele>541.6666666666666</ele><time>2026-04-23T11:28:27.999Z</time></trkpt><trkpt lat="46.26124091316123" lon="12.471143950301563"><ele>541.3333333333334</ele><time>2026-04-23T11:28:28.999Z</time></trkpt><trkpt lat="46.261124092180154" lon="12.470986897183506"><ele>541.0</ele><time>2026-04-23T11:28:29.999Z</time></trkpt><trkpt lat="46.26102059059228" lon="12.470817125782284"><ele>541.0</ele><time>2026-04-23T11:28:30.999Z</time></trkpt><trkpt lat="46.26091997373549" lon="12.470650571972694"><ele>541.0</ele><time>2026-04-23T11:28:31.999Z</time></trkpt><trkpt lat="46.260822612313916" lon="12.470496956225302"><ele>541.0</ele><time>2026-04-23T11:28:32.999Z</time></trkpt><trkpt lat="46.26073760805332" lon="12.470354466373296"><ele>541.0</ele><time>2026-04-23T11:28:33.999Z</time></trkpt><trkpt lat="46.260651682450465" lon="12.470230261155603"><ele>539.4</ele><time>2026-04-23T11:28:34.999Z</time></trkpt><trkpt lat="46.2605778487352" lon="12.47010653173234"><ele>537.8</ele><time>2026-04-23T11:28:35.999Z</time></trkpt><trkpt lat="46.26051076258732" lon="12.46999095645416"><ele>536.1999999999999</ele><time>2026-04-23T11:28:36.999Z</time></trkpt><trkpt lat="46.26045858273916" lon="12.469877521866586"><ele>534.6</ele><time>2026-04-23T11:28:37.999Z</time></trkpt><trkpt lat="46.260424015276364" lon="12.469758455376068"><ele>533.0</ele><time>2026-04-23T11:28:38.999Z</time></trkpt><trkpt lat="46.26038892710485" lon="12.469648466063463"><ele>533.8333333333333</ele><time>2026-04-23T11:28:39.999Z</time></trkpt><trkpt lat="46.26036735736672" lon="12.46953666664338"><ele>534.6666666666666</ele><time>2026-04-23T11:28:40.999Z</time></trkpt><trkpt lat="46.26035803634165" lon="12.469443641292107"><ele>535.5</ele><time>2026-04-23T11:28:41.999Z</time></trkpt><trkpt lat="46.260353648311636" lon="12.469333697462377"><ele>536.3333333333334</ele><time>2026-04-23T11:28:43.999Z</time></trkpt><trkpt lat="46.260275686859956" lon="12.469270070557885"><ele>537.1666666666667</ele><time>2026-04-23T11:28:45.999Z</time></trkpt><trkpt lat="46.26020329121079" lon="12.469241319851305"><ele>538.0</ele><time>2026-04-23T11:28:46.999Z</time></trkpt><trkpt lat="46.26011365883938" lon="12.469215006290206"><ele>538.0</ele><time>2026-04-23T11:28:47.999Z</time></trkpt><trkpt lat="46.26001913985639" lon="12.46916332735523"><ele>538.0</ele><time>2026-04-23T11:28:48.999Z</time></trkpt><trkpt lat="46.25993054690261" lon="12.469064973377893"><ele>538.0</ele><time>2026-04-23T11:28:49.999Z</time></trkpt><trkpt lat="46.25987001018387" lon="12.468916400120627"><ele>538.0</ele><time>2026-04-23T11:28:50.999Z</time></trkpt><trkpt lat="46.25978743248169" lon="12.468805567574147"><ele>538.0</ele><time>2026-04-23T11:28:51.999Z</time></trkpt><trkpt lat="46.259717683641654" lon="12.468687704206259"><ele>538.25</ele><time>2026-04-23T11:28:52.999Z</time></trkpt><trkpt lat="46.25965930987037" lon="12.468570308177831"><ele>538.5</ele><time>2026-04-23T11:28:53.999Z</time></trkpt><trkpt lat="46.25960624128465" lon="12.468436544689553"><ele>538.75</ele><time>2026-04-23T11:28:54.999Z</time></trkpt><trkpt lat="46.25956194167498" lon="12.46826840350606"><ele>539.0</ele><time>2026-04-23T11:28:55.999Z</time></trkpt><trkpt lat="46.25954749684457" lon="12.468070073212816"><ele>536.3333333333333</ele><time>2026-04-23T11:28:56.999Z</time></trkpt><trkpt lat="46.25952163937319" lon="12.467859475419102"><ele>533.6666666666666</ele><time>2026-04-23T11:28:57.999Z</time></trkpt><trkpt lat="46.2594948897913" lon="12.467644681515765"><ele>531.0</ele><time>2026-04-23T11:28:58.999Z</time></trkpt><trkpt lat="46.259452087949875" lon="12.467434291320759"><ele>531.0</ele><time>2026-04-23T11:28:59.999Z</time></trkpt><trkpt lat="46.259429146079086" lon="12.467226402346412"><ele>531.0</ele><time>2026-04-23T11:29:00.999Z</time></trkpt><trkpt lat="46.259402630273165" lon="12.467036715160257"><ele>531.0</ele><time>2026-04-23T11:29:01.999Z</time></trkpt><trkpt lat="46.25939615623969" lon="12.46685563230844"><ele>531.0</ele><time>2026-04-23T11:29:02.999Z</time></trkpt><trkpt lat="46.25935991516851" lon="12.46669506855878"><ele>531.0</ele><time>2026-04-23T11:29:03.999Z</time></trkpt><trkpt lat="46.25934004179212" lon="12.466542556069436"><ele>531.0</ele><time>2026-04-23T11:29:04.999Z</time></trkpt><trkpt lat="46.25930536845055" lon="12.466415353177828"><ele>531.0</ele><time>2026-04-23T11:29:05.999Z</time></trkpt><trkpt lat="46.25926007726619" lon="12.466299643606305"><ele>531.0</ele><time>2026-04-23T11:29:06.999Z</time></trkpt><trkpt lat="46.25917458136857" lon="12.466216424465943"><ele>531.0</ele><time>2026-04-23T11:29:07.999Z</time></trkpt><trkpt lat="46.259050860649666" lon="12.466210997056857"><ele>530.75</ele><time>2026-04-23T11:29:08.999Z</time></trkpt><trkpt lat="46.25892886653922" lon="12.466220793365723"><ele>530.5</ele><time>2026-04-23T11:29:09.999Z</time></trkpt><trkpt lat="46.25880114101131" lon="12.466267918032212"><ele>530.25</ele><time>2026-04-23T11:29:10.999Z</time></trkpt><trkpt lat="46.25866723102111" lon="12.466338282452822"><ele>530.0</ele><time>2026-04-23T11:29:11.999Z</time></trkpt><trkpt lat="46.25854362724099" lon="12.466415226857599"><ele>530.0</ele><time>2026-04-23T11:29:12.999Z</time></trkpt><trkpt lat="46.258399338644146" lon="12.466476986272115"><ele>530.0</ele><time>2026-04-23T11:29:14Z</time></trkpt><trkpt lat="46.258259161554335" lon="12.466528563111627"><ele>530.0</ele><time>2026-04-23T11:29:15Z</time></trkpt><trkpt lat="46.25811601926502" lon="12.466519865756494"><ele>530.0</ele><time>2026-04-23T11:29:16Z</time></trkpt><trkpt lat="46.25796479203838" lon="12.46650089363726"><ele>528.6666666666666</ele><time>2026-04-23T11:29:17Z</time></trkpt><trkpt lat="46.257808140460455" lon="12.46650383835611"><ele>527.3333333333334</ele><time>2026-04-23T11:29:18Z</time></trkpt><trkpt lat="46.25766244872456" lon="12.46650342373504"><ele>526.0</ele><time>2026-04-23T11:29:19Z</time></trkpt><trkpt lat="46.257509393799914" lon="12.466526783340852"><ele>526.0</ele><time>2026-04-23T11:29:20Z</time></trkpt><trkpt lat="46.25735544474355" lon="12.466507921128915"><ele>526.0</ele><time>2026-04-23T11:29:21Z</time></trkpt><trkpt lat="46.257198587923895" lon="12.466479152207402"><ele>526.0</ele><time>2026-04-23T11:29:22Z</time></trkpt><trkpt lat="46.25704986923398" lon="12.466465151028688"><ele>526.3333333333334</ele><time>2026-04-23T11:29:23Z</time></trkpt><trkpt lat="46.2569198464843" lon="12.466373099943574"><ele>526.6666666666666</ele><time>2026-04-23T11:29:24Z</time></trkpt><trkpt lat="46.256787786308685" lon="12.46626728011625"><ele>527.0</ele><time>2026-04-23T11:29:25Z</time></trkpt><trkpt lat="46.25664058169238" lon="12.466151228741825"><ele>527.0</ele><time>2026-04-23T11:29:26Z</time></trkpt><trkpt lat="46.25649208798793" lon="12.466034330316598"><ele>527.0</ele><time>2026-04-23T11:29:27Z</time></trkpt><trkpt lat="46.25634348014669" lon="12.465918859669303"><ele>527.0</ele><time>2026-04-23T11:29:28Z</time></trkpt><trkpt lat="46.25620321566084" lon="12.46580987193675"><ele>526.25</ele><time>2026-04-23T11:29:29Z</time></trkpt><trkpt lat="46.25606583267809" lon="12.465727017394386"><ele>525.5</ele><time>2026-04-23T11:29:30Z</time></trkpt><trkpt lat="46.25595459415041" lon="12.465605648448621"><ele>524.75</ele><time>2026-04-23T11:29:31Z</time></trkpt><trkpt lat="46.255862651454514" lon="12.465455065902349"><ele>524.0</ele><time>2026-04-23T11:29:32Z</time></trkpt><trkpt lat="46.25581225207197" lon="12.465248360308664"><ele>524.0</ele><time>2026-04-23T11:29:33Z</time></trkpt><trkpt lat="46.25575241502711" lon="12.465025532505578"><ele>524.0</ele><time>2026-04-23T11:29:34Z</time></trkpt><trkpt lat="46.25569134161786" lon="12.464801649550184"><ele>524.0</ele><time>2026-04-23T11:29:35Z</time></trkpt><trkpt lat="46.25560249555487" lon="12.464599298648377"><ele>523.6666666666666</ele><time>2026-04-23T11:29:36Z</time></trkpt><trkpt lat="46.25550865398873" lon="12.464402753333442"><ele>523.3333333333334</ele><time>2026-04-23T11:29:37Z</time></trkpt><trkpt lat="46.25540183952813" lon="12.464238510571525"><ele>523.0</ele><time>2026-04-23T11:29:38Z</time></trkpt><trkpt lat="46.25530189261783" lon="12.46409239093292"><ele>523.0</ele><time>2026-04-23T11:29:39Z</time></trkpt><trkpt lat="46.25518791238498" lon="12.463973909807413"><ele>523.0</ele><time>2026-04-23T11:29:40Z</time></trkpt><trkpt lat="46.25505417780941" lon="12.46388221412298"><ele>523.0</ele><time>2026-04-23T11:29:41Z</time></trkpt><trkpt lat="46.25490848514059" lon="12.463819845959723"><ele>523.0</ele><time>2026-04-23T11:29:42Z</time></trkpt><trkpt lat="46.25475623689771" lon="12.463791606806582"><ele>522.3333333333334</ele><time>2026-04-23T11:29:43Z</time></trkpt><trkpt lat="46.25460551116235" lon="12.46380348479472"><ele>521.6666666666666</ele><time>2026-04-23T11:29:44Z</time></trkpt><trkpt lat="46.25445465225694" lon="12.463857924818141"><ele>521.0</ele><time>2026-04-23T11:29:45Z</time></trkpt><trkpt lat="46.25430709758779" lon="12.463938271801092"><ele>521.0</ele><time>2026-04-23T11:29:46Z</time></trkpt><trkpt lat="46.254173090383546" lon="12.464003386483922"><ele>521.0</ele><time>2026-04-23T11:29:47Z</time></trkpt><trkpt lat="46.25403749794824" lon="12.464008311409758"><ele>521.0</ele><time>2026-04-23T11:29:48Z</time></trkpt><trkpt lat="46.25389946998156" lon="12.46398882516847"><ele>521.0</ele><time>2026-04-23T11:29:49Z</time></trkpt><trkpt lat="46.25375655368673" lon="12.463951276465076"><ele>518.3333333333333</ele><time>2026-04-23T11:29:50Z</time></trkpt><trkpt lat="46.25360819739217" lon="12.46391354399538"><ele>515.6666666666666</ele><time>2026-04-23T11:29:51Z</time></trkpt><trkpt lat="46.25346186139151" lon="12.4638430149396"><ele>513.0</ele><time>2026-04-23T11:29:52Z</time></trkpt><trkpt lat="46.25330153798533" lon="12.463766954841192"><ele>517.3333333333334</ele><time>2026-04-23T11:29:53Z</time></trkpt><trkpt lat="46.2531326630349" lon="12.463678560435369"><ele>521.6666666666667</ele><time>2026-04-23T11:29:54Z</time></trkpt><trkpt lat="46.25296585645286" lon="12.46358189513388"><ele>526.0</ele><time>2026-04-23T11:29:55Z</time></trkpt><trkpt lat="46.252803284394766" lon="12.463479414849257"><ele>526.0</ele><time>2026-04-23T11:29:56Z</time></trkpt><trkpt lat="46.25264582369061" lon="12.463379293462307"><ele>526.0</ele><time>2026-04-23T11:29:57Z</time></trkpt><trkpt lat="46.25248443889489" lon="12.463292120526877"><ele>526.0</ele><time>2026-04-23T11:29:58Z</time></trkpt><trkpt lat="46.252316230228345" lon="12.463224931728043"><ele>522.3333333333334</ele><time>2026-04-23T11:29:59Z</time></trkpt><trkpt lat="46.252145410547655" lon="12.46317316968131"><ele>518.6666666666666</ele><time>2026-04-23T11:30:00Z</time></trkpt><trkpt lat="46.251974773799716" lon="12.463114008922943"><ele>515.0</ele><time>2026-04-23T11:30:01Z</time></trkpt><trkpt lat="46.2518036694497" lon="12.463075484904557"><ele>515.0</ele><time>2026-04-23T11:30:02Z</time></trkpt><trkpt lat="46.25163295263248" lon="12.46303802750992"><ele>515.0</ele><time>2026-04-23T11:30:03Z</time></trkpt><trkpt lat="46.2514702593034" lon="12.46301702207785"><ele>515.0</ele><time>2026-04-23T11:30:04Z</time></trkpt><trkpt lat="46.25133303823694" lon="12.46293947403385"><ele>516.0</ele><time>2026-04-23T11:30:05Z</time></trkpt><trkpt lat="46.25121346955643" lon="12.462853100298174"><ele>517.0</ele><time>2026-04-23T11:30:06Z</time></trkpt><trkpt lat="46.25109586587762" lon="12.462750699768797"><ele>518.0</ele><time>2026-04-23T11:30:07Z</time></trkpt><trkpt lat="46.25097353892726" lon="12.462692131689986"><ele>519.0</ele><time>2026-04-23T11:30:08Z</time></trkpt><trkpt lat="46.25086094889415" lon="12.46264639519915"><ele>519.0</ele><time>2026-04-23T11:30:09Z</time></trkpt><trkpt lat="46.25075481569722" lon="12.462637334706864"><ele>519.0</ele><time>2026-04-23T11:30:10Z</time></trkpt><trkpt lat="46.2506559350051" lon="12.462655450458909"><ele>519.0</ele><time>2026-04-23T11:30:11Z</time></trkpt><trkpt lat="46.25056518526826" lon="12.462694424028273"><ele>519.0</ele><time>2026-04-23T11:30:12Z</time></trkpt><trkpt lat="46.250475619584826" lon="12.462712635587485"><ele>519.0</ele><time>2026-04-23T11:30:13Z</time></trkpt><trkpt lat="46.250395084329476" lon="12.462741208098294"><ele>522.6666666666666</ele><time>2026-04-23T11:30:14Z</time></trkpt><trkpt lat="46.250327173632165" lon="12.462808286012798"><ele>526.3333333333334</ele><time>2026-04-23T11:30:15Z</time></trkpt><trkpt lat="46.2502686231527" lon="12.462871629360235"><ele>530.0</ele><time>2026-04-23T11:30:16Z</time></trkpt><trkpt lat="46.250238560460936" lon="12.46297092193306"><ele>533.6666666666667</ele><time>2026-04-23T11:30:17Z</time></trkpt><trkpt lat="46.25023099360498" lon="12.463082803116981"><ele>537.3333333333334</ele><time>2026-04-23T11:30:18Z</time></trkpt><trkpt lat="46.25022117270593" lon="12.463197092092278"><ele>541.0</ele><time>2026-04-23T11:30:19Z</time></trkpt><trkpt lat="46.25017945715636" lon="12.463337023315871"><ele>541.0</ele><time>2026-04-23T11:30:20Z</time></trkpt><trkpt lat="46.25013003405779" lon="12.463468116514807"><ele>541.0</ele><time>2026-04-23T11:30:21Z</time></trkpt><trkpt lat="46.25007356219896" lon="12.463584612910871"><ele>541.0</ele><time>2026-04-23T11:30:22Z</time></trkpt><trkpt lat="46.250000780176165" lon="12.46368481188357"><ele>541.0</ele><time>2026-04-23T11:30:23Z</time></trkpt><trkpt lat="46.2499255297804" lon="12.463780311697493"><ele>541.0</ele><time>2026-04-23T11:30:24Z</time></trkpt><trkpt lat="46.24985412181206" lon="12.463866750612478"><ele>549.5</ele><time>2026-04-23T11:30:25Z</time></trkpt><trkpt lat="46.24978670020217" lon="12.463954229621244"><ele>558.0</ele><time>2026-04-23T11:30:26Z</time></trkpt><trkpt lat="46.24973749403438" lon="12.464054260694171"><ele>566.5</ele><time>2026-04-23T11:30:27Z</time></trkpt><trkpt lat="46.24969860494084" lon="12.464163398412568"><ele>575.0</ele><time>2026-04-23T11:30:28Z</time></trkpt><trkpt lat="46.249656687552516" lon="12.464269835851576"><ele>583.5</ele><time>2026-04-23T11:30:29Z</time></trkpt><trkpt lat="46.24960666695228" lon="12.46438139627036"><ele>592.0</ele><time>2026-04-23T11:30:30Z</time></trkpt><trkpt lat="46.2495653713951" lon="12.464498855080711"><ele>592.0</ele><time>2026-04-23T11:30:31Z</time></trkpt><trkpt lat="46.24951909489054" lon="12.464612842106312"><ele>592.0</ele><time>2026-04-23T11:30:32Z</time></trkpt><trkpt lat="46.24947724531344" lon="12.464730511158734"><ele>592.0</ele><time>2026-04-23T11:30:33Z</time></trkpt><trkpt lat="46.24943365368609" lon="12.464848783210694"><ele>592.0</ele><time>2026-04-23T11:30:33.999Z</time></trkpt><trkpt lat="46.249396112710365" lon="12.464964531968905"><ele>592.0</ele><time>2026-04-23T11:30:34.999Z</time></trkpt><trkpt lat="46.249376673734204" lon="12.465097134323864"><ele>590.0</ele><time>2026-04-23T11:30:35.999Z</time></trkpt><trkpt lat="46.24937910980992" lon="12.465273490321023"><ele>588.0</ele><time>2026-04-23T11:30:36.999Z</time></trkpt><trkpt lat="46.249404178483715" lon="12.46548344224283"><ele>586.0</ele><time>2026-04-23T11:30:37.999Z</time></trkpt><trkpt lat="46.24942337632847" lon="12.465717197926285"><ele>584.0</ele><time>2026-04-23T11:30:38.999Z</time></trkpt><trkpt lat="46.24942285720193" lon="12.46595719804301"><ele>578.0</ele><time>2026-04-23T11:30:39.999Z</time></trkpt><trkpt lat="46.24941140953313" lon="12.466206978142992"><ele>572.0</ele><time>2026-04-23T11:30:40.999Z</time></trkpt><trkpt lat="46.249393741261386" lon="12.466450216497739"><ele>566.0</ele><time>2026-04-23T11:30:41.999Z</time></trkpt><trkpt lat="46.249381847807605" lon="12.466725973452101"><ele>561.3333333333333</ele><time>2026-04-23T11:30:42.999Z</time></trkpt><trkpt lat="46.24938290393663" lon="12.467019460430995"><ele>556.6666666666666</ele><time>2026-04-23T11:30:43.999Z</time></trkpt><trkpt lat="46.24939197200301" lon="12.467306777041099"><ele>552.0</ele><time>2026-04-23T11:30:44.999Z</time></trkpt><trkpt lat="46.24940661869776" lon="12.467567311605505"><ele>551.3333333333334</ele><time>2026-04-23T11:30:45.999Z</time></trkpt><trkpt lat="46.249410092803814" lon="12.46782643876548"><ele>550.6666666666667</ele><time>2026-04-23T11:30:46.999Z</time></trkpt><trkpt lat="46.2494023175136" lon="12.468094137311242"><ele>550.0</ele><time>2026-04-23T11:30:47.999Z</time></trkpt><trkpt lat="46.249360893329055" lon="12.468363196253957"><ele>544.6666666666667</ele><time>2026-04-23T11:30:48.999Z</time></trkpt><trkpt lat="46.249327169833506" lon="12.46865068800041"><ele>539.3333333333334</ele><time>2026-04-23T11:30:49.999Z</time></trkpt><trkpt lat="46.24927485882232" lon="12.468919719876622"><ele>534.0</ele><time>2026-04-23T11:30:50.999Z</time></trkpt><trkpt lat="46.249231247133174" lon="12.46915643323759"><ele>529.6666666666666</ele><time>2026-04-23T11:30:51.999Z</time></trkpt><trkpt lat="46.2491838409194" lon="12.469372172561462"><ele>525.3333333333333</ele><time>2026-04-23T11:30:52.999Z</time></trkpt><trkpt lat="46.24911542717652" lon="12.469576832968997"><ele>521.0</ele><time>2026-04-23T11:30:53.999Z</time></trkpt><trkpt lat="46.249022065956254" lon="12.469760942257206"><ele>519.5</ele><time>2026-04-23T11:30:54.999Z</time></trkpt><trkpt lat="46.24892471319765" lon="12.469921118710218"><ele>518.0</ele><time>2026-04-23T11:30:55.999Z</time></trkpt><trkpt lat="46.248825663020554" lon="12.47005925699585"><ele>516.5</ele><time>2026-04-23T11:30:56.999Z</time></trkpt><trkpt lat="46.24872004752185" lon="12.47020532811861"><ele>515.0</ele><time>2026-04-23T11:30:57.999Z</time></trkpt><trkpt lat="46.24861114242557" lon="12.470357718633233"><ele>512.6666666666666</ele><time>2026-04-23T11:30:58.999Z</time></trkpt><trkpt lat="46.24849655692438" lon="12.470512554838495"><ele>510.33333333333337</ele><time>2026-04-23T11:30:59.999Z</time></trkpt><trkpt lat="46.24837784948315" lon="12.470660645080516"><ele>508.0</ele><time>2026-04-23T11:31:00.999Z</time></trkpt><trkpt lat="46.248245694349215" lon="12.470798793560851"><ele>508.6666666666667</ele><time>2026-04-23T11:31:01.999Z</time></trkpt><trkpt lat="46.24811908850075" lon="12.47093622555337"><ele>509.33333333333337</ele><time>2026-04-23T11:31:02.999Z</time></trkpt><trkpt lat="46.24799480479404" lon="12.471070068335221"><ele>510.0</ele><time>2026-04-23T11:31:03.999Z</time></trkpt><trkpt lat="46.24786449555971" lon="12.471195299041419"><ele>510.0</ele><time>2026-04-23T11:31:04.999Z</time></trkpt><trkpt lat="46.24771153674327" lon="12.47127316596286"><ele>510.0</ele><time>2026-04-23T11:31:05.999Z</time></trkpt><trkpt lat="46.24755685374774" lon="12.471342600244997"><ele>510.0</ele><time>2026-04-23T11:31:06.999Z</time></trkpt><trkpt lat="46.24740568316659" lon="12.471422886815335"><ele>508.66666666666663</ele><time>2026-04-23T11:31:07.999Z</time></trkpt><trkpt lat="46.24724994639167" lon="12.471491080056776"><ele>507.3333333333333</ele><time>2026-04-23T11:31:08.999Z</time></trkpt><trkpt lat="46.247097002813014" lon="12.471577304424654"><ele>506.0</ele><time>2026-04-23T11:31:09.999Z</time></trkpt><trkpt lat="46.24694798047714" lon="12.4716878392944"><ele>506.0</ele><time>2026-04-23T11:31:10.999Z</time></trkpt><trkpt lat="46.246808617099845" lon="12.471821661523942"><ele>506.0</ele><time>2026-04-23T11:31:11.999Z</time></trkpt><trkpt lat="46.246680047139556" lon="12.471984395033383"><ele>506.0</ele><time>2026-04-23T11:31:12.999Z</time></trkpt><trkpt lat="46.24656399516931" lon="12.47217704148776"><ele>505.3333333333333</ele><time>2026-04-23T11:31:13.999Z</time></trkpt><trkpt lat="46.24645635021165" lon="12.472399785238878"><ele>504.66666666666663</ele><time>2026-04-23T11:31:14.999Z</time></trkpt><trkpt lat="46.24634166016091" lon="12.472637836205392"><ele>504.0</ele><time>2026-04-23T11:31:15.999Z</time></trkpt><trkpt lat="46.24621972201618" lon="12.47288452480405"><ele>506.33333333333337</ele><time>2026-04-23T11:31:16.999Z</time></trkpt><trkpt lat="46.24609603754213" lon="12.47314118142105"><ele>508.6666666666667</ele><time>2026-04-23T11:31:17.999Z</time></trkpt><trkpt lat="46.24597258246919" lon="12.47340028492572"><ele>511.0</ele><time>2026-04-23T11:31:18.999Z</time></trkpt><trkpt lat="46.245848300550506" lon="12.47366010387881"><ele>509.33333333333337</ele><time>2026-04-23T11:31:20Z</time></trkpt><trkpt lat="46.24572254257054" lon="12.473913084942922"><ele>507.66666666666663</ele><time>2026-04-23T11:31:21Z</time></trkpt><trkpt lat="46.24559702158868" lon="12.474161804753665"><ele>506.0</ele><time>2026-04-23T11:31:22Z</time></trkpt><trkpt lat="46.245474943850155" lon="12.474411663202254"><ele>508.66666666666663</ele><time>2026-04-23T11:31:23Z</time></trkpt><trkpt lat="46.245363122807326" lon="12.474655360654479"><ele>511.33333333333337</ele><time>2026-04-23T11:31:24Z</time></trkpt><trkpt lat="46.24527514978728" lon="12.474861753099297"><ele>514.0</ele><time>2026-04-23T11:31:25Z</time></trkpt><trkpt lat="46.245198009990226" lon="12.475048659162917"><ele>514.0</ele><time>2026-04-23T11:31:26Z</time></trkpt><trkpt lat="46.24514102272295" lon="12.475225351252746"><ele>514.0</ele><time>2026-04-23T11:31:27Z</time></trkpt><trkpt lat="46.245098389521765" lon="12.475403065585203"><ele>514.0</ele><time>2026-04-23T11:31:28Z</time></trkpt><trkpt lat="46.245051622730806" lon="12.475563364109611"><ele>514.0</ele><time>2026-04-23T11:31:29Z</time></trkpt><trkpt lat="46.245000797448874" lon="12.475714945745553"><ele>512.5</ele><time>2026-04-23T11:31:30Z</time></trkpt><trkpt lat="46.24494953743238" lon="12.475876510665648"><ele>511.0</ele><time>2026-04-23T11:31:31Z</time></trkpt><trkpt lat="46.24490150031443" lon="12.47604158730777"><ele>509.5</ele><time>2026-04-23T11:31:32Z</time></trkpt><trkpt lat="46.24485191292723" lon="12.476208255989873"><ele>508.0</ele><time>2026-04-23T11:31:33Z</time></trkpt><trkpt lat="46.244805265064" lon="12.476379907490522"><ele>510.75</ele><time>2026-04-23T11:31:34Z</time></trkpt><trkpt lat="46.24474154472122" lon="12.47654046772051"><ele>513.5</ele><time>2026-04-23T11:31:35Z</time></trkpt><trkpt lat="46.24469233059687" lon="12.476707320884005"><ele>516.25</ele><time>2026-04-23T11:31:36Z</time></trkpt><trkpt lat="46.24464506610314" lon="12.47688660035511"><ele>519.0</ele><time>2026-04-23T11:31:37Z</time></trkpt><trkpt lat="46.2445928896874" lon="12.477051653579997"><ele>519.75</ele><time>2026-04-23T11:31:38Z</time></trkpt><trkpt lat="46.24454362796837" lon="12.477229523518172"><ele>520.5</ele><time>2026-04-23T11:31:39Z</time></trkpt><trkpt lat="46.24449627672443" lon="12.4774063427072"><ele>521.25</ele><time>2026-04-23T11:31:40Z</time></trkpt><trkpt lat="46.24445366243762" lon="12.477590410611901"><ele>522.0</ele><time>2026-04-23T11:31:41Z</time></trkpt><trkpt lat="46.24441469018405" lon="12.477777376538436"><ele>522.5</ele><time>2026-04-23T11:31:42Z</time></trkpt><trkpt lat="46.24438372000861" lon="12.477968360661809"><ele>523.0</ele><time>2026-04-23T11:31:43Z</time></trkpt><trkpt lat="46.2443499274892" lon="12.478158499633043"><ele>523.5</ele><time>2026-04-23T11:31:44Z</time></trkpt><trkpt lat="46.2443161375938" lon="12.47834020331582"><ele>524.0</ele><time>2026-04-23T11:31:45Z</time></trkpt><trkpt lat="46.24428062586532" lon="12.478522928424656"><ele>524.0</ele><time>2026-04-23T11:31:46Z</time></trkpt><trkpt lat="46.24425634783411" lon="12.478705354131133"><ele>524.0</ele><time>2026-04-23T11:31:47Z</time></trkpt><trkpt lat="46.244226394103" lon="12.478890524282297"><ele>524.0</ele><time>2026-04-23T11:31:48Z</time></trkpt><trkpt lat="46.24419594717045" lon="12.479077804520934"><ele>524.0</ele><time>2026-04-23T11:31:49Z</time></trkpt><trkpt lat="46.2441617870701" lon="12.479272385521043"><ele>522.5</ele><time>2026-04-23T11:31:50Z</time></trkpt><trkpt lat="46.2441304437875" lon="12.479460192367481"><ele>521.0</ele><time>2026-04-23T11:31:51Z</time></trkpt><trkpt lat="46.244098667947334" lon="12.479655163931886"><ele>519.5</ele><time>2026-04-23T11:31:52Z</time></trkpt><trkpt lat="46.24405995066716" lon="12.479845612783143"><ele>518.0</ele><time>2026-04-23T11:31:53Z</time></trkpt><trkpt lat="46.24402872664495" lon="12.480038964229276"><ele>516.0</ele><time>2026-04-23T11:31:54Z</time></trkpt><trkpt lat="46.24400094783763" lon="12.480229011961804"><ele>514.0</ele><time>2026-04-23T11:31:55Z</time></trkpt><trkpt lat="46.243970968222875" lon="12.480418188174372"><ele>512.0</ele><time>2026-04-23T11:31:56Z</time></trkpt><trkpt lat="46.24393221801389" lon="12.480625526118839"><ele>510.0</ele><time>2026-04-23T11:31:57Z</time></trkpt><trkpt lat="46.24391190049175" lon="12.480865871904818"><ele>521.6666666666666</ele><time>2026-04-23T11:31:58Z</time></trkpt><trkpt lat="46.243895673391236" lon="12.481149003109866"><ele>533.3333333333333</ele><time>2026-04-23T11:31:59Z</time></trkpt><trkpt lat="46.243871201776656" lon="12.481406903740645"><ele>545.0</ele><time>2026-04-23T11:32:00Z</time></trkpt><trkpt lat="46.24385036611416" lon="12.481660617845744"><ele>545.0</ele><time>2026-04-23T11:32:01Z</time></trkpt><trkpt lat="46.243832379149296" lon="12.481909335051274"><ele>545.0</ele><time>2026-04-23T11:32:02Z</time></trkpt><trkpt lat="46.243819694173354" lon="12.48214516717212"><ele>545.0</ele><time>2026-04-23T11:32:03Z</time></trkpt><trkpt lat="46.24380714560312" lon="12.482366364076904"><ele>548.25</ele><time>2026-04-23T11:32:04Z</time></trkpt><trkpt lat="46.24379788501156" lon="12.482582728625104"><ele>551.5</ele><time>2026-04-23T11:32:05Z</time></trkpt><trkpt lat="46.24378873645875" lon="12.48279832425448"><ele>554.75</ele><time>2026-04-23T11:32:06Z</time></trkpt><trkpt lat="46.243778549057005" lon="12.483009842099017"><ele>558.0</ele><time>2026-04-23T11:32:07Z</time></trkpt><trkpt lat="46.2437726707241" lon="12.483218860219072"><ele>558.0</ele><time>2026-04-23T11:32:08Z</time></trkpt><trkpt lat="46.243759323718855" lon="12.483420227843755"><ele>558.0</ele><time>2026-04-23T11:32:09Z</time></trkpt><trkpt lat="46.24373659413681" lon="12.483615640283933"><ele>558.0</ele><time>2026-04-23T11:32:10Z</time></trkpt><trkpt lat="46.24367028630295" lon="12.483804846111006"><ele>558.0</ele><time>2026-04-23T11:32:11Z</time></trkpt><trkpt lat="46.24359539154092" lon="12.483998846997173"><ele>549.3333333333334</ele><time>2026-04-23T11:32:12Z</time></trkpt><trkpt lat="46.24351472241877" lon="12.484188619999246"><ele>540.6666666666667</ele><time>2026-04-23T11:32:13Z</time></trkpt><trkpt lat="46.24344382595551" lon="12.484383860326085"><ele>532.0</ele><time>2026-04-23T11:32:14Z</time></trkpt><trkpt lat="46.24337677952818" lon="12.484575283676698"><ele>529.0</ele><time>2026-04-23T11:32:15Z</time></trkpt><trkpt lat="46.24329669103833" lon="12.484745736418786"><ele>526.0</ele><time>2026-04-23T11:32:16Z</time></trkpt><trkpt lat="46.24320128129015" lon="12.484901309084432"><ele>523.0</ele><time>2026-04-23T11:32:17Z</time></trkpt><trkpt lat="46.24309861979676" lon="12.485048529885798"><ele>520.0</ele><time>2026-04-23T11:32:18Z</time></trkpt><trkpt lat="46.24300848838883" lon="12.48520991530072"><ele>520.0</ele><time>2026-04-23T11:32:19Z</time></trkpt><trkpt lat="46.24290921266351" lon="12.48533573531819"><ele>520.0</ele><time>2026-04-23T11:32:20Z</time></trkpt><trkpt lat="46.24280112375647" lon="12.485413142863127"><ele>520.0</ele><time>2026-04-23T11:32:21Z</time></trkpt><trkpt lat="46.24269582134962" lon="12.48548190561448"><ele>520.0</ele><time>2026-04-23T11:32:22Z</time></trkpt><trkpt lat="46.242586578996544" lon="12.485564418080958"><ele>516.0</ele><time>2026-04-23T11:32:23Z</time></trkpt><trkpt lat="46.24246227847033" lon="12.485625231168783"><ele>512.0</ele><time>2026-04-23T11:32:24Z</time></trkpt><trkpt lat="46.2423408137917" lon="12.485700021669038"><ele>508.0</ele><time>2026-04-23T11:32:25Z</time></trkpt><trkpt lat="46.242216402657746" lon="12.485779660116966"><ele>504.0</ele><time>2026-04-23T11:32:26Z</time></trkpt><trkpt lat="46.24208597137546" lon="12.485863444546506"><ele>504.0</ele><time>2026-04-23T11:32:27Z</time></trkpt><trkpt lat="46.241942897520715" lon="12.48594665805181"><ele>504.0</ele><time>2026-04-23T11:32:28Z</time></trkpt><trkpt lat="46.241793275310116" lon="12.486027941063684"><ele>504.0</ele><time>2026-04-23T11:32:29Z</time></trkpt><trkpt lat="46.2416434717807" lon="12.486108175352431"><ele>504.0</ele><time>2026-04-23T11:32:30Z</time></trkpt><trkpt lat="46.24148662820794" lon="12.486144510434501"><ele>504.0</ele><time>2026-04-23T11:32:31Z</time></trkpt><trkpt lat="46.24133234962259" lon="12.486188298794962"><ele>504.0</ele><time>2026-04-23T11:32:32Z</time></trkpt><trkpt lat="46.24117906692933" lon="12.486240201620019"><ele>510.0</ele><time>2026-04-23T11:32:33Z</time></trkpt><trkpt lat="46.241022922306215" lon="12.486254430707492"><ele>516.0</ele><time>2026-04-23T11:32:34Z</time></trkpt><trkpt lat="46.24086119550151" lon="12.486271624790803"><ele>522.0</ele><time>2026-04-23T11:32:35Z</time></trkpt><trkpt lat="46.24070257823991" lon="12.486293076074482"><ele>510.0</ele><time>2026-04-23T11:32:36Z</time></trkpt><trkpt lat="46.240542011335165" lon="12.486317905264803"><ele>498.0</ele><time>2026-04-23T11:32:37Z</time></trkpt><trkpt lat="46.24038135196045" lon="12.486348501203306"><ele>486.0</ele><time>2026-04-23T11:32:38Z</time></trkpt><trkpt lat="46.240218396964266" lon="12.486382569683295"><ele>486.0</ele><time>2026-04-23T11:32:39Z</time></trkpt><trkpt lat="46.240076586032984" lon="12.486409604371277"><ele>486.0</ele><time>2026-04-23T11:32:40Z</time></trkpt><trkpt lat="46.23992746877882" lon="12.486442863576404"><ele>486.0</ele><time>2026-04-23T11:32:41Z</time></trkpt><trkpt lat="46.239773774784325" lon="12.486495839071402"><ele>491.75</ele><time>2026-04-23T11:32:42Z</time></trkpt><trkpt lat="46.239643861565334" lon="12.486546784931356"><ele>497.5</ele><time>2026-04-23T11:32:43Z</time></trkpt><trkpt lat="46.23952164742857" lon="12.48663233228281"><ele>503.25</ele><time>2026-04-23T11:32:43.999Z</time></trkpt><trkpt lat="46.23940752278212" lon="12.48677197863811"><ele>509.0</ele><time>2026-04-23T11:32:44.999Z</time></trkpt><trkpt lat="46.23930278484874" lon="12.486939953525356"><ele>499.66666666666663</ele><time>2026-04-23T11:32:45.999Z</time></trkpt><trkpt lat="46.239196723753004" lon="12.48711092463986"><ele>490.33333333333337</ele><time>2026-04-23T11:32:46.999Z</time></trkpt><trkpt lat="46.23906746984484" lon="12.487255282220993"><ele>481.0</ele><time>2026-04-23T11:32:47.999Z</time></trkpt><trkpt lat="46.238967682860455" lon="12.487441772136796"><ele>482.0</ele><time>2026-04-23T11:32:48.999Z</time></trkpt><trkpt lat="46.23885490969038" lon="12.487595251954557"><ele>483.0</ele><time>2026-04-23T11:32:49.999Z</time></trkpt><trkpt lat="46.238749478945586" lon="12.487736992240798"><ele>484.0</ele><time>2026-04-23T11:32:50.999Z</time></trkpt><trkpt lat="46.238646340879846" lon="12.487851495954846"><ele>485.0</ele><time>2026-04-23T11:32:51.999Z</time></trkpt><trkpt lat="46.23852336649478" lon="12.487972481783085"><ele>485.0</ele><time>2026-04-23T11:32:52.999Z</time></trkpt><trkpt lat="46.23838121012051" lon="12.488053685080631"><ele>485.0</ele><time>2026-04-23T11:32:53.999Z</time></trkpt><trkpt lat="46.238215679998206" lon="12.488105615662711"><ele>485.0</ele><time>2026-04-23T11:32:54.999Z</time></trkpt><trkpt lat="46.23804257017208" lon="12.488154095297958"><ele>487.0</ele><time>2026-04-23T11:32:55.999Z</time></trkpt><trkpt lat="46.2378817885874" lon="12.488212766239085"><ele>489.0</ele><time>2026-04-23T11:32:56.999Z</time></trkpt><trkpt lat="46.23773676523487" lon="12.48832579020371"><ele>491.0</ele><time>2026-04-23T11:32:57.999Z</time></trkpt><trkpt lat="46.237617473409436" lon="12.488457837717815"><ele>491.0</ele><time>2026-04-23T11:32:58.999Z</time></trkpt><trkpt lat="46.237474061774414" lon="12.48856786052857"><ele>491.0</ele><time>2026-04-23T11:32:59.999Z</time></trkpt><trkpt lat="46.237315548027176" lon="12.488643607298226"><ele>491.0</ele><time>2026-04-23T11:33:00.999Z</time></trkpt><trkpt lat="46.237145061947636" lon="12.488689704975934"><ele>492.3333333333333</ele><time>2026-04-23T11:33:01.999Z</time></trkpt><trkpt lat="46.23698343307997" lon="12.48872057493059"><ele>493.66666666666663</ele><time>2026-04-23T11:33:02.999Z</time></trkpt><trkpt lat="46.23683376161685" lon="12.488737162357804"><ele>495.0</ele><time>2026-04-23T11:33:03.999Z</time></trkpt><trkpt lat="46.23669340450118" lon="12.488715836359592"><ele>495.0</ele><time>2026-04-23T11:33:04.999Z</time></trkpt><trkpt lat="46.23654693984219" lon="12.488672045483646"><ele>495.0</ele><time>2026-04-23T11:33:05.999Z</time></trkpt><trkpt lat="46.236387445976966" lon="12.488616391826366"><ele>495.0</ele><time>2026-04-23T11:33:06.999Z</time></trkpt><trkpt lat="46.23622423765851" lon="12.488569517557066"><ele>491.66666666666663</ele><time>2026-04-23T11:33:07.999Z</time></trkpt><trkpt lat="46.23605380267189" lon="12.488532922217749"><ele>488.3333333333333</ele><time>2026-04-23T11:33:08.999Z</time></trkpt><trkpt lat="46.23588398198071" lon="12.488503509325142"><ele>485.0</ele><time>2026-04-23T11:33:09.999Z</time></trkpt><trkpt lat="46.23571474676415" lon="12.488469070609108"><ele>483.0</ele><time>2026-04-23T11:33:10.999Z</time></trkpt><trkpt lat="46.235549329347386" lon="12.488439340659147"><ele>481.0</ele><time>2026-04-23T11:33:11.999Z</time></trkpt><trkpt lat="46.235383195222774" lon="12.488420966488253"><ele>479.0</ele><time>2026-04-23T11:33:12.999Z</time></trkpt><trkpt lat="46.23521525391742" lon="12.488417216330346"><ele>479.0</ele><time>2026-04-23T11:33:13.999Z</time></trkpt><trkpt lat="46.235047015519164" lon="12.488439082790034"><ele>479.0</ele><time>2026-04-23T11:33:14.999Z</time></trkpt><trkpt lat="46.234878512156584" lon="12.488488710570277"><ele>479.0</ele><time>2026-04-23T11:33:15.999Z</time></trkpt><trkpt lat="46.234712975635716" lon="12.488554212965312"><ele>479.3333333333333</ele><time>2026-04-23T11:33:16.999Z</time></trkpt><trkpt lat="46.23454612459875" lon="12.488614630834563"><ele>479.66666666666663</ele><time>2026-04-23T11:33:17.999Z</time></trkpt><trkpt lat="46.23438567894838" lon="12.488651243950207"><ele>480.0</ele><time>2026-04-23T11:33:18.999Z</time></trkpt><trkpt lat="46.234232553384786" lon="12.488652752232364"><ele>480.0</ele><time>2026-04-23T11:33:19.999Z</time></trkpt><trkpt lat="46.234089551306674" lon="12.48860264391276"><ele>480.0</ele><time>2026-04-23T11:33:20.999Z</time></trkpt><trkpt lat="46.23395116401757" lon="12.48850487959935"><ele>480.0</ele><time>2026-04-23T11:33:21.999Z</time></trkpt><trkpt lat="46.23380784335723" lon="12.48837568505984"><ele>477.66666666666663</ele><time>2026-04-23T11:33:22.999Z</time></trkpt><trkpt lat="46.23365852026082" lon="12.488248837075963"><ele>475.3333333333333</ele><time>2026-04-23T11:33:23.999Z</time></trkpt><trkpt lat="46.23350243472351" lon="12.488127496448943"><ele>473.0</ele><time>2026-04-23T11:33:24.999Z</time></trkpt><trkpt lat="46.23334356644396" lon="12.488008776886566"><ele>473.75</ele><time>2026-04-23T11:33:26Z</time></trkpt><trkpt lat="46.23319215476144" lon="12.48790430414849"><ele>474.5</ele><time>2026-04-23T11:33:27Z</time></trkpt><trkpt lat="46.23308959739703" lon="12.48783322660649"><ele>475.25</ele><time>2026-04-23T11:33:28Z</time></trkpt><trkpt lat="46.232976367389185" lon="12.487752876450894"><ele>476.0</ele><time>2026-04-23T11:33:29Z</time></trkpt><trkpt lat="46.23284060721961" lon="12.487643377957909"><ele>476.0</ele><time>2026-04-23T11:33:30Z</time></trkpt><trkpt lat="46.232694357687315" lon="12.487505277473323"><ele>476.0</ele><time>2026-04-23T11:33:31Z</time></trkpt><trkpt lat="46.23254103169019" lon="12.487344190405802"><ele>476.0</ele><time>2026-04-23T11:33:32Z</time></trkpt><trkpt lat="46.23238791705273" lon="12.487186425626579"><ele>474.66666666666663</ele><time>2026-04-23T11:33:33Z</time></trkpt><trkpt lat="46.232226491605836" lon="12.487036964944053"><ele>473.33333333333337</ele><time>2026-04-23T11:33:34Z</time></trkpt><trkpt lat="46.23205903144022" lon="12.48689607613358"><ele>472.0</ele><time>2026-04-23T11:33:35Z</time></trkpt><trkpt lat="46.231884893287415" lon="12.486755930518466"><ele>472.0</ele><time>2026-04-23T11:33:36Z</time></trkpt><trkpt lat="46.231717873349545" lon="12.486600371706439"><ele>472.0</ele><time>2026-04-23T11:33:37Z</time></trkpt><trkpt lat="46.2315613283041" lon="12.486439601815622"><ele>472.0</ele><time>2026-04-23T11:33:38Z</time></trkpt><trkpt lat="46.23141019336446" lon="12.486276842532122"><ele>473.33333333333337</ele><time>2026-04-23T11:33:39Z</time></trkpt><trkpt lat="46.23126037597448" lon="12.486110957892258"><ele>474.66666666666663</ele><time>2026-04-23T11:33:40Z</time></trkpt><trkpt lat="46.23109886472361" lon="12.485965745976209"><ele>476.0</ele><time>2026-04-23T11:33:41Z</time></trkpt><trkpt lat="46.23094274104193" lon="12.485834281781598"><ele>476.0</ele><time>2026-04-23T11:33:42Z</time></trkpt><trkpt lat="46.230798344574794" lon="12.485726302723501"><ele>476.0</ele><time>2026-04-23T11:33:43Z</time></trkpt><trkpt lat="46.23065984015394" lon="12.485642789144254"><ele>476.0</ele><time>2026-04-23T11:33:44Z</time></trkpt><trkpt lat="46.23049541476613" lon="12.48560792134271"><ele>475.3333333333333</ele><time>2026-04-23T11:33:45Z</time></trkpt><trkpt lat="46.23030754587818" lon="12.48560609988824"><ele>474.66666666666663</ele><time>2026-04-23T11:33:46Z</time></trkpt><trkpt lat="46.230132203898606" lon="12.485613779060749"><ele>474.0</ele><time>2026-04-23T11:33:47Z</time></trkpt><trkpt lat="46.229970023470834" lon="12.485636409293878"><ele>475.66666666666663</ele><time>2026-04-23T11:33:48Z</time></trkpt><trkpt lat="46.22980271528257" lon="12.485709159265822"><ele>477.3333333333333</ele><time>2026-04-23T11:33:49Z</time></trkpt><trkpt lat="46.2296341718773" lon="12.485831279886767"><ele>479.0</ele><time>2026-04-23T11:33:50Z</time></trkpt><trkpt lat="46.22947418528206" lon="12.485959837312349"><ele>479.0</ele><time>2026-04-23T11:33:51Z</time></trkpt><trkpt lat="46.2293185575638" lon="12.486071163505377"><ele>479.0</ele><time>2026-04-23T11:33:52Z</time></trkpt><trkpt lat="46.22917073897595" lon="12.486167083120256"><ele>479.0</ele><time>2026-04-23T11:33:53Z</time></trkpt><trkpt lat="46.229022859004715" lon="12.486251754617943"><ele>474.3333333333333</ele><time>2026-04-23T11:33:54Z</time></trkpt><trkpt lat="46.228867138225844" lon="12.486335620938503"><ele>469.66666666666663</ele><time>2026-04-23T11:33:55Z</time></trkpt><trkpt lat="46.22870786490995" lon="12.486403380987857"><ele>465.0</ele><time>2026-04-23T11:33:56Z</time></trkpt><trkpt lat="46.22854971322329" lon="12.486457723039289"><ele>465.0</ele><time>2026-04-23T11:33:57Z</time></trkpt><trkpt lat="46.22840558255076" lon="12.486497138072918"><ele>465.0</ele><time>2026-04-23T11:33:58Z</time></trkpt><trkpt lat="46.22827012362139" lon="12.486533832476738"><ele>465.0</ele><time>2026-04-23T11:33:59Z</time></trkpt><trkpt lat="46.228137498673426" lon="12.486573063139396"><ele>465.0</ele><time>2026-04-23T11:34:00Z</time></trkpt><trkpt lat="46.22800404721139" lon="12.48660847262792"><ele>467.5</ele><time>2026-04-23T11:34:01Z</time></trkpt><trkpt lat="46.227880794781974" lon="12.486622235837956"><ele>470.0</ele><time>2026-04-23T11:34:02Z</time></trkpt><trkpt lat="46.227764682115534" lon="12.486608927040729"><ele>472.5</ele><time>2026-04-23T11:34:03Z</time></trkpt><trkpt lat="46.22765651773673" lon="12.486582344831689"><ele>475.0</ele><time>2026-04-23T11:34:04Z</time></trkpt><trkpt lat="46.22754894099926" lon="12.486567330755438"><ele>475.0</ele><time>2026-04-23T11:34:05Z</time></trkpt><trkpt lat="46.22743707228008" lon="12.486590992923704"><ele>475.0</ele><time>2026-04-23T11:34:06Z</time></trkpt><trkpt lat="46.227334398639194" lon="12.486661860669583"><ele>475.0</ele><time>2026-04-23T11:34:07Z</time></trkpt><trkpt lat="46.227234517253066" lon="12.486757403765793"><ele>475.0</ele><time>2026-04-23T11:34:08Z</time></trkpt><trkpt lat="46.227135749209694" lon="12.486852724251568"><ele>473.75</ele><time>2026-04-23T11:34:09Z</time></trkpt><trkpt lat="46.22702925727434" lon="12.486944924807442"><ele>472.5</ele><time>2026-04-23T11:34:10Z</time></trkpt><trkpt lat="46.22691805325443" lon="12.487052738254711"><ele>471.25</ele><time>2026-04-23T11:34:11Z</time></trkpt><trkpt lat="46.226795246052646" lon="12.487152098831382"><ele>470.0</ele><time>2026-04-23T11:34:12Z</time></trkpt><trkpt lat="46.226682685695735" lon="12.4872464277184"><ele>470.0</ele><time>2026-04-23T11:34:13Z</time></trkpt><trkpt lat="46.226563130964756" lon="12.487381602786966"><ele>470.0</ele><time>2026-04-23T11:34:14Z</time></trkpt><trkpt lat="46.22642076534501" lon="12.487558575136733"><ele>470.0</ele><time>2026-04-23T11:34:15Z</time></trkpt><trkpt lat="46.22626733845413" lon="12.487748657806241"><ele>470.66666666666663</ele><time>2026-04-23T11:34:16Z</time></trkpt><trkpt lat="46.22611552640771" lon="12.487946164357696"><ele>471.33333333333337</ele><time>2026-04-23T11:34:17Z</time></trkpt><trkpt lat="46.22598198321179" lon="12.48814420714279"><ele>472.0</ele><time>2026-04-23T11:34:18Z</time></trkpt><trkpt lat="46.22584806033828" lon="12.488339820421519"><ele>472.0</ele><time>2026-04-23T11:34:19Z</time></trkpt><trkpt lat="46.22571516828486" lon="12.488531896656418"><ele>472.0</ele><time>2026-04-23T11:34:20Z</time></trkpt><trkpt lat="46.225584065316866" lon="12.488710794908666"><ele>472.0</ele><time>2026-04-23T11:34:21Z</time></trkpt><trkpt lat="46.22545333305408" lon="12.488889403385823"><ele>474.6666666666667</ele><time>2026-04-23T11:34:22Z</time></trkpt><trkpt lat="46.22531818835098" lon="12.48907190181089"><ele>477.33333333333337</ele><time>2026-04-23T11:34:23Z</time></trkpt><trkpt lat="46.22517574930559" lon="12.48926069216269"><ele>480.0</ele><time>2026-04-23T11:34:24Z</time></trkpt><trkpt lat="46.2250305635897" lon="12.489450300953843"><ele>481.0</ele><time>2026-04-23T11:34:25Z</time></trkpt><trkpt lat="46.22488224345457" lon="12.48963717437483"><ele>482.0</ele><time>2026-04-23T11:34:26Z</time></trkpt><trkpt lat="46.22472778981954" lon="12.489818774014598"><ele>483.0</ele><time>2026-04-23T11:34:27Z</time></trkpt><trkpt lat="46.22456833514351" lon="12.489997961852541"><ele>483.0</ele><time>2026-04-23T11:34:28Z</time></trkpt><trkpt lat="46.224407655922725" lon="12.490174233025273"><ele>483.0</ele><time>2026-04-23T11:34:29Z</time></trkpt><trkpt lat="46.22424418598657" lon="12.490348216862994"><ele>483.0</ele><time>2026-04-23T11:34:30Z</time></trkpt><trkpt lat="46.22407770999169" lon="12.490520428962693"><ele>487.66666666666663</ele><time>2026-04-23T11:34:31Z</time></trkpt><trkpt lat="46.22391464705477" lon="12.490672032793464"><ele>492.3333333333333</ele><time>2026-04-23T11:34:32Z</time></trkpt><trkpt lat="46.22375016994081" lon="12.490821659023627"><ele>497.0</ele><time>2026-04-23T11:34:33Z</time></trkpt><trkpt lat="46.223556881780695" lon="12.490975116139277"><ele>497.0</ele><time>2026-04-23T11:34:34Z</time></trkpt><trkpt lat="46.2234522087608" lon="12.49111729108439"><ele>497.0</ele><time>2026-04-23T11:34:35Z</time></trkpt><trkpt lat="46.22331106128094" lon="12.491264823782842"><ele>497.0</ele><time>2026-04-23T11:34:36Z</time></trkpt><trkpt lat="46.223142821934765" lon="12.49141124164886"><ele>492.3333333333333</ele><time>2026-04-23T11:34:37Z</time></trkpt><trkpt lat="46.22298194316993" lon="12.491546046263544"><ele>487.66666666666663</ele><time>2026-04-23T11:34:38Z</time></trkpt><trkpt lat="46.22280250352772" lon="12.49167666099053"><ele>483.0</ele><time>2026-04-23T11:34:39Z</time></trkpt><trkpt lat="46.22262779817372" lon="12.49181963023389"><ele>483.0</ele><time>2026-04-23T11:34:40Z</time></trkpt><trkpt lat="46.22243713675562" lon="12.4919481738492"><ele>483.0</ele><time>2026-04-23T11:34:41Z</time></trkpt><trkpt lat="46.22225994134946" lon="12.492094248683713"><ele>483.0</ele><time>2026-04-23T11:34:42Z</time></trkpt><trkpt lat="46.22209094931917" lon="12.492441819812703"><ele>478.33333333333337</ele><time>2026-04-23T11:34:42.999Z</time></trkpt><trkpt lat="46.22194302238734" lon="12.492426989272666"><ele>473.6666666666667</ele><time>2026-04-23T11:34:43.999Z</time></trkpt><trkpt lat="46.221780200017896" lon="12.492549518583719"><ele>469.0</ele><time>2026-04-23T11:34:44.999Z</time></trkpt><trkpt lat="46.22161491539524" lon="12.492677269654106"><ele>465.0</ele><time>2026-04-23T11:34:45.999Z</time></trkpt><trkpt lat="46.22144438748156" lon="12.492791809342911"><ele>461.0</ele><time>2026-04-23T11:34:46.999Z</time></trkpt><trkpt lat="46.22127283959101" lon="12.492890253532686"><ele>457.0</ele><time>2026-04-23T11:34:47.999Z</time></trkpt><trkpt lat="46.221101363495045" lon="12.492992459987402"><ele>457.0</ele><time>2026-04-23T11:34:48.999Z</time></trkpt><trkpt lat="46.22093235342823" lon="12.493102873743187"><ele>457.0</ele><time>2026-04-23T11:34:49.999Z</time></trkpt><trkpt lat="46.220767275736655" lon="12.493237485086274"><ele>457.0</ele><time>2026-04-23T11:34:50.999Z</time></trkpt><trkpt lat="46.220610630278664" lon="12.493404146183444"><ele>456.33333333333337</ele><time>2026-04-23T11:34:51.999Z</time></trkpt><trkpt lat="46.22046252283442" lon="12.493590985296306"><ele>455.66666666666663</ele><time>2026-04-23T11:34:52.999Z</time></trkpt><trkpt lat="46.220315729460005" lon="12.493784923068661"><ele>455.0</ele><time>2026-04-23T11:34:53.999Z</time></trkpt><trkpt lat="46.220166217098985" lon="12.49397406384999"><ele>455.0</ele><time>2026-04-23T11:34:54.999Z</time></trkpt><trkpt lat="46.22001732992009" lon="12.49416309809397"><ele>455.0</ele><time>2026-04-23T11:34:55.999Z</time></trkpt><trkpt lat="46.219863491131754" lon="12.494325660379154"><ele>455.0</ele><time>2026-04-23T11:34:56.999Z</time></trkpt><trkpt lat="46.21970518398708" lon="12.494466146056045"><ele>456.66666666666663</ele><time>2026-04-23T11:34:57.999Z</time></trkpt><trkpt lat="46.219544371125956" lon="12.494624712058611"><ele>458.33333333333337</ele><time>2026-04-23T11:34:58.999Z</time></trkpt><trkpt lat="46.2193966205861" lon="12.494837006624328"><ele>460.0</ele><time>2026-04-23T11:34:59.999Z</time></trkpt><trkpt lat="46.21925126331761" lon="12.495093584112727"><ele>460.0</ele><time>2026-04-23T11:35:00.999Z</time></trkpt><trkpt lat="46.21910268546039" lon="12.49536942804911"><ele>460.0</ele><time>2026-04-23T11:35:01.999Z</time></trkpt><trkpt lat="46.21894675410362" lon="12.495638843434277"><ele>465.0</ele><time>2026-04-23T11:35:02.999Z</time></trkpt><trkpt lat="46.21878847241319" lon="12.495890103815853"><ele>470.0</ele><time>2026-04-23T11:35:03.999Z</time></trkpt><trkpt lat="46.21863629336809" lon="12.496114962009946"><ele>463.66666666666663</ele><time>2026-04-23T11:35:04.999Z</time></trkpt><trkpt lat="46.21847622666408" lon="12.496336752298316"><ele>457.33333333333337</ele><time>2026-04-23T11:35:05.999Z</time></trkpt><trkpt lat="46.21832793929318" lon="12.496545199611592"><ele>451.0</ele><time>2026-04-23T11:35:06.999Z</time></trkpt><trkpt lat="46.21819535561848" lon="12.496767432489467"><ele>461.6666666666667</ele><time>2026-04-23T11:35:07.999Z</time></trkpt><trkpt lat="46.21808444417291" lon="12.497009324805614"><ele>472.33333333333337</ele><time>2026-04-23T11:35:08.999Z</time></trkpt><trkpt lat="46.2179880915539" lon="12.497281723205122"><ele>483.0</ele><time>2026-04-23T11:35:09.999Z</time></trkpt><trkpt lat="46.2179086876934" lon="12.497585012409173"><ele>483.0</ele><time>2026-04-23T11:35:10.999Z</time></trkpt><trkpt lat="46.21784504222179" lon="12.497901989935883"><ele>483.0</ele><time>2026-04-23T11:35:11.999Z</time></trkpt><trkpt lat="46.217781872354365" lon="12.49822239674472"><ele>476.5</ele><time>2026-04-23T11:35:12.999Z</time></trkpt><trkpt lat="46.21770348818076" lon="12.498540753685813"><ele>470.0</ele><time>2026-04-23T11:35:13.999Z</time></trkpt><trkpt lat="46.2176057794316" lon="12.498844425793878"><ele>463.5</ele><time>2026-04-23T11:35:14.999Z</time></trkpt><trkpt lat="46.21749249894224" lon="12.499131104508194"><ele>457.0</ele><time>2026-04-23T11:35:15.999Z</time></trkpt><trkpt lat="46.21737790402704" lon="12.49941333207545"><ele>464.6666666666667</ele><time>2026-04-23T11:35:16.999Z</time></trkpt><trkpt lat="46.21727333879762" lon="12.499683301511551"><ele>472.33333333333337</ele><time>2026-04-23T11:35:17.999Z</time></trkpt><trkpt lat="46.217157638360064" lon="12.49993944081511"><ele>480.0</ele><time>2026-04-23T11:35:18.999Z</time></trkpt><trkpt lat="46.21702635892585" lon="12.500193447800742"><ele>468.5</ele><time>2026-04-23T11:35:19.999Z</time></trkpt><trkpt lat="46.21688387575672" lon="12.500443917816268"><ele>457.0</ele><time>2026-04-23T11:35:20.999Z</time></trkpt><trkpt lat="46.21673666003147" lon="12.500696041367236"><ele>457.0</ele><time>2026-04-23T11:35:21.999Z</time></trkpt><trkpt lat="46.21658729888576" lon="12.50095189099572"><ele>457.0</ele><time>2026-04-23T11:35:22.999Z</time></trkpt><trkpt lat="46.21644100867951" lon="12.501211199626189"><ele>465.0</ele><time>2026-04-23T11:35:23.999Z</time></trkpt><trkpt lat="46.21630452168086" lon="12.501467199207111"><ele>473.0</ele><time>2026-04-23T11:35:24.999Z</time></trkpt><trkpt lat="46.216179206430176" lon="12.501735448905263"><ele>481.0</ele><time>2026-04-23T11:35:25.999Z</time></trkpt><trkpt lat="46.216061213419046" lon="12.502012840942513"><ele>475.0</ele><time>2026-04-23T11:35:26.999Z</time></trkpt><trkpt lat="46.21595063543767" lon="12.502293513420009"><ele>469.0</ele><time>2026-04-23T11:35:27.999Z</time></trkpt><trkpt lat="46.21585551408957" lon="12.502579800749702"><ele>463.0</ele><time>2026-04-23T11:35:28.999Z</time></trkpt><trkpt lat="46.21577861598564" lon="12.502883911145684"><ele>458.0</ele><time>2026-04-23T11:35:29.999Z</time></trkpt><trkpt lat="46.215705708961146" lon="12.503207920311327"><ele>453.0</ele><time>2026-04-23T11:35:30.999Z</time></trkpt><trkpt lat="46.21562751932665" lon="12.503528776396461"><ele>477.0</ele><time>2026-04-23T11:35:32Z</time></trkpt><trkpt lat="46.21555569148377" lon="12.5038507367816"><ele>501.0</ele><time>2026-04-23T11:35:33Z</time></trkpt><trkpt lat="46.215500542501395" lon="12.504186675596323"><ele>501.0</ele><time>2026-04-23T11:35:34Z</time></trkpt><trkpt lat="46.21544889473113" lon="12.504547768777934"><ele>501.0</ele><time>2026-04-23T11:35:35Z</time></trkpt><trkpt lat="46.215389383301364" lon="12.50491884030803"><ele>493.5</ele><time>2026-04-23T11:35:36Z</time></trkpt><trkpt lat="46.21532403967647" lon="12.505275597932043"><ele>486.0</ele><time>2026-04-23T11:35:37Z</time></trkpt><trkpt lat="46.2152651091689" lon="12.505605355001745"><ele>480.33333333333337</ele><time>2026-04-23T11:35:38Z</time></trkpt><trkpt lat="46.21521908265475" lon="12.505905196507353"><ele>474.6666666666667</ele><time>2026-04-23T11:35:39Z</time></trkpt><trkpt lat="46.21517736245296" lon="12.506177610217213"><ele>469.0</ele><time>2026-04-23T11:35:40Z</time></trkpt><trkpt lat="46.21511792203671" lon="12.506453708641939"><ele>463.33333333333337</ele><time>2026-04-23T11:35:41Z</time></trkpt><trkpt lat="46.215026567094526" lon="12.50673229483256"><ele>457.66666666666663</ele><time>2026-04-23T11:35:42Z</time></trkpt><trkpt lat="46.21494715808132" lon="12.507007922854816"><ele>452.0</ele><time>2026-04-23T11:35:43Z</time></trkpt><trkpt lat="46.21472097008325" lon="12.507370639558507"><ele>454.5</ele><time>2026-04-23T11:35:44Z</time></trkpt><trkpt lat="46.214599177993485" lon="12.50767212998719"><ele>457.0</ele><time>2026-04-23T11:35:45Z</time></trkpt><trkpt lat="46.214471579633525" lon="12.507944024279917"><ele>457.0</ele><time>2026-04-23T11:35:46Z</time></trkpt><trkpt lat="46.21433662188948" lon="12.508209148887305"><ele>457.0</ele><time>2026-04-23T11:35:47Z</time></trkpt><trkpt lat="46.21419202969801" lon="12.508476641561309"><ele>457.0</ele><time>2026-04-23T11:35:48Z</time></trkpt><trkpt lat="46.21405058246508" lon="12.508734222274382"><ele>457.0</ele><time>2026-04-23T11:35:49Z</time></trkpt><trkpt lat="46.2139066551368" lon="12.50898073820938"><ele>460.33333333333337</ele><time>2026-04-23T11:35:50Z</time></trkpt><trkpt lat="46.213773549981006" lon="12.509202756293183"><ele>463.66666666666663</ele><time>2026-04-23T11:35:51Z</time></trkpt><trkpt lat="46.21365271766575" lon="12.509409984889025"><ele>467.0</ele><time>2026-04-23T11:35:52Z</time></trkpt><trkpt lat="46.213547486683474" lon="12.509597694924262"><ele>460.0</ele><time>2026-04-23T11:35:53Z</time></trkpt><trkpt lat="46.213446727861594" lon="12.509779491477737"><ele>453.0</ele><time>2026-04-23T11:35:54Z</time></trkpt><trkpt lat="46.21335378960839" lon="12.509954776846088"><ele>446.0</ele><time>2026-04-23T11:35:55Z</time></trkpt><trkpt lat="46.21325310845043" lon="12.51010995384208"><ele>445.3333333333333</ele><time>2026-04-23T11:35:56Z</time></trkpt><trkpt lat="46.213142655804255" lon="12.510245806654428"><ele>444.66666666666663</ele><time>2026-04-23T11:35:57Z</time></trkpt><trkpt lat="46.21300960375086" lon="12.510358541722683"><ele>444.0</ele><time>2026-04-23T11:35:58Z</time></trkpt><trkpt lat="46.212880548253246" lon="12.51048906003709"><ele>441.0</ele><time>2026-04-23T11:35:59Z</time></trkpt><trkpt lat="46.21275004702934" lon="12.510617461169032"><ele>438.0</ele><time>2026-04-23T11:36:00Z</time></trkpt><trkpt lat="46.21262049040604" lon="12.510746117097126"><ele>435.0</ele><time>2026-04-23T11:36:01Z</time></trkpt><trkpt lat="46.21249356828881" lon="12.510870421406896"><ele>435.0</ele><time>2026-04-23T11:36:02Z</time></trkpt><trkpt lat="46.21236999923285" lon="12.510989864703085"><ele>435.0</ele><time>2026-04-23T11:36:03Z</time></trkpt><trkpt lat="46.2122619841166" lon="12.511085037498548"><ele>435.0</ele><time>2026-04-23T11:36:04Z</time></trkpt><trkpt lat="46.21215803498935" lon="12.511156520717657"><ele>435.0</ele><time>2026-04-23T11:36:05Z</time></trkpt><trkpt lat="46.21205398132949" lon="12.511144436698622"><ele>437.5</ele><time>2026-04-23T11:36:06Z</time></trkpt><trkpt lat="46.21194018742465" lon="12.511071795631043"><ele>440.0</ele><time>2026-04-23T11:36:07Z</time></trkpt><trkpt lat="46.21182751198594" lon="12.510944480616924"><ele>442.5</ele><time>2026-04-23T11:36:08Z</time></trkpt><trkpt lat="46.211718339773974" lon="12.510765155051585"><ele>445.0</ele><time>2026-04-23T11:36:09Z</time></trkpt><trkpt lat="46.21160419613096" lon="12.510559583249812"><ele>448.6666666666667</ele><time>2026-04-23T11:36:10Z</time></trkpt><trkpt lat="46.211471724960845" lon="12.5103451070779"><ele>452.33333333333337</ele><time>2026-04-23T11:36:11Z</time></trkpt><trkpt lat="46.211318454603564" lon="12.51014367573457"><ele>456.0</ele><time>2026-04-23T11:36:12Z</time></trkpt><trkpt lat="46.21114846622065" lon="12.509944127081289"><ele>456.0</ele><time>2026-04-23T11:36:13Z</time></trkpt><trkpt lat="46.210980115793845" lon="12.509744178160204"><ele>456.0</ele><time>2026-04-23T11:36:14Z</time></trkpt><trkpt lat="46.21082453945411" lon="12.50956301732812"><ele>456.0</ele><time>2026-04-23T11:36:15Z</time></trkpt><trkpt lat="46.21068813293599" lon="12.509400817784604"><ele>451.25</ele><time>2026-04-23T11:36:16Z</time></trkpt><trkpt lat="46.21056644565191" lon="12.509252901052614"><ele>446.5</ele><time>2026-04-23T11:36:17Z</time></trkpt><trkpt lat="46.210447009757196" lon="12.509126119722191"><ele>441.75</ele><time>2026-04-23T11:36:18Z</time></trkpt><trkpt lat="46.210326026257384" lon="12.509036892540399"><ele>437.0</ele><time>2026-04-23T11:36:19Z</time></trkpt><trkpt lat="46.210188904668875" lon="12.508992043589032"><ele>437.0</ele><time>2026-04-23T11:36:20Z</time></trkpt><trkpt lat="46.21004830653908" lon="12.508994502557522"><ele>437.0</ele><time>2026-04-23T11:36:21Z</time></trkpt><trkpt lat="46.209915798851966" lon="12.509053076254899"><ele>437.0</ele><time>2026-04-23T11:36:22Z</time></trkpt><trkpt lat="46.20979714126689" lon="12.509172792996553"><ele>437.0</ele><time>2026-04-23T11:36:23Z</time></trkpt><trkpt lat="46.20969882337959" lon="12.509347327345552"><ele>436.0</ele><time>2026-04-23T11:36:24Z</time></trkpt><trkpt lat="46.20960278031539" lon="12.509545049807667"><ele>435.0</ele><time>2026-04-23T11:36:25Z</time></trkpt><trkpt lat="46.2094794562797" lon="12.50973908425945"><ele>434.0</ele><time>2026-04-23T11:36:26Z</time></trkpt><trkpt lat="46.20932490835841" lon="12.509905565214046"><ele>437.3333333333333</ele><time>2026-04-23T11:36:27Z</time></trkpt><trkpt lat="46.20917284436413" lon="12.510025829406226"><ele>440.66666666666663</ele><time>2026-04-23T11:36:28Z</time></trkpt><trkpt lat="46.20901991053986" lon="12.510151230576067"><ele>444.0</ele><time>2026-04-23T11:36:29Z</time></trkpt><trkpt lat="46.208882074498234" lon="12.510308486887537"><ele>442.33333333333337</ele><time>2026-04-23T11:36:30Z</time></trkpt><trkpt lat="46.20875098174164" lon="12.510486286657867"><ele>440.6666666666667</ele><time>2026-04-23T11:36:31Z</time></trkpt><trkpt lat="46.20862658978377" lon="12.510695723168165"><ele>439.0</ele><time>2026-04-23T11:36:32Z</time></trkpt><trkpt lat="46.20852243825423" lon="12.51094104527111"><ele>439.0</ele><time>2026-04-23T11:36:33Z</time></trkpt><trkpt lat="46.20842315948945" lon="12.511191508146876"><ele>439.0</ele><time>2026-04-23T11:36:34Z</time></trkpt><trkpt lat="46.208316029375865" lon="12.51140284341497"><ele>439.0</ele><time>2026-04-23T11:36:35Z</time></trkpt><trkpt lat="46.2081793131101" lon="12.511585417679925"><ele>438.33333333333337</ele><time>2026-04-23T11:36:36Z</time></trkpt><trkpt lat="46.208005145951525" lon="12.511761395643584"><ele>437.66666666666663</ele><time>2026-04-23T11:36:37Z</time></trkpt><trkpt lat="46.207820649687996" lon="12.511940488226204"><ele>437.0</ele><time>2026-04-23T11:36:38Z</time></trkpt><trkpt lat="46.20763197080946" lon="12.512129269111698"><ele>435.5</ele><time>2026-04-23T11:36:39Z</time></trkpt><trkpt lat="46.20743237881288" lon="12.51230989402827"><ele>434.0</ele><time>2026-04-23T11:36:40Z</time></trkpt><trkpt lat="46.2072214958165" lon="12.512471747341484"><ele>434.0</ele><time>2026-04-23T11:36:41Z</time></trkpt><trkpt lat="46.20700999742633" lon="12.512619444072174"><ele>434.0</ele><time>2026-04-23T11:36:42Z</time></trkpt><trkpt lat="46.206798141249294" lon="12.51275884381958"><ele>434.0</ele><time>2026-04-23T11:36:43Z</time></trkpt><trkpt lat="46.20658016704678" lon="12.51287932881894"><ele>434.0</ele><time>2026-04-23T11:36:44Z</time></trkpt><trkpt lat="46.20634673418002" lon="12.51297860224555"><ele>442.5</ele><time>2026-04-23T11:36:45Z</time></trkpt><trkpt lat="46.20611943495333" lon="12.513082578862731"><ele>451.0</ele><time>2026-04-23T11:36:46Z</time></trkpt><trkpt lat="46.20589131635579" lon="12.513180816191158"><ele>451.0</ele><time>2026-04-23T11:36:47Z</time></trkpt><trkpt lat="46.20567037908418" lon="12.51328927425372"><ele>451.0</ele><time>2026-04-23T11:36:48Z</time></trkpt><trkpt lat="46.20545891966942" lon="12.513419159242755"><ele>450.33333333333337</ele><time>2026-04-23T11:36:49Z</time></trkpt><trkpt lat="46.205255031421814" lon="12.513549415813419"><ele>449.66666666666663</ele><time>2026-04-23T11:36:50Z</time></trkpt><trkpt lat="46.20506578712058" lon="12.513668504046151"><ele>449.0</ele><time>2026-04-23T11:36:51Z</time></trkpt><trkpt lat="46.204893913581714" lon="12.513785019110848"><ele>442.3333333333333</ele><time>2026-04-23T11:36:52Z</time></trkpt><trkpt lat="46.204729021112755" lon="12.513932712017832"><ele>435.66666666666663</ele><time>2026-04-23T11:36:53Z</time></trkpt><trkpt lat="46.2045505989379" lon="12.514103361942002"><ele>429.0</ele><time>2026-04-23T11:36:54Z</time></trkpt><trkpt lat="46.20437455758925" lon="12.514257733616404"><ele>429.0</ele><time>2026-04-23T11:36:54.999Z</time></trkpt><trkpt lat="46.204212565769325" lon="12.514400760339681"><ele>429.0</ele><time>2026-04-23T11:36:55.999Z</time></trkpt><trkpt lat="46.2040593096906" lon="12.51456171587281"><ele>429.0</ele><time>2026-04-23T11:36:56.999Z</time></trkpt><trkpt lat="46.20390936039166" lon="12.514765076669438"><ele>429.5</ele><time>2026-04-23T11:36:57.999Z</time></trkpt><trkpt lat="46.20377493461519" lon="12.515020076464856"><ele>430.0</ele><time>2026-04-23T11:36:58.999Z</time></trkpt><trkpt lat="46.20362631762421" lon="12.515269952376574"><ele>433.0</ele><time>2026-04-23T11:36:59.999Z</time></trkpt><trkpt lat="46.2034603491479" lon="12.515482135864037"><ele>436.0</ele><time>2026-04-23T11:37:00.999Z</time></trkpt><trkpt lat="46.203297402169014" lon="12.515647780472138"><ele>439.0</ele><time>2026-04-23T11:37:01.999Z</time></trkpt><trkpt lat="46.203153704217144" lon="12.515779303604559"><ele>439.5</ele><time>2026-04-23T11:37:02.999Z</time></trkpt><trkpt lat="46.203022933346006" lon="12.51587038633963"><ele>440.0</ele><time>2026-04-23T11:37:03.999Z</time></trkpt><trkpt lat="46.20290315597432" lon="12.515971109519814"><ele>440.5</ele><time>2026-04-23T11:37:04.999Z</time></trkpt><trkpt lat="46.202792500137505" lon="12.516133880796852"><ele>441.0</ele><time>2026-04-23T11:37:05.999Z</time></trkpt><trkpt lat="46.202696340363715" lon="12.516355467685042"><ele>441.0</ele><time>2026-04-23T11:37:06.999Z</time></trkpt><trkpt lat="46.20259081177319" lon="12.51658889224585"><ele>441.0</ele><time>2026-04-23T11:37:07.999Z</time></trkpt><trkpt lat="46.20245860339098" lon="12.516820072045569"><ele>441.0</ele><time>2026-04-23T11:37:08.999Z</time></trkpt><trkpt lat="46.2023116878479" lon="12.516976871938974"><ele>437.0</ele><time>2026-04-23T11:37:09.999Z</time></trkpt><trkpt lat="46.202166621805446" lon="12.517131609518389"><ele>433.0</ele><time>2026-04-23T11:37:10.999Z</time></trkpt><trkpt lat="46.20203676943119" lon="12.517341383727556"><ele>429.0</ele><time>2026-04-23T11:37:11.999Z</time></trkpt><trkpt lat="46.20191463071955" lon="12.51760627534821"><ele>429.0</ele><time>2026-04-23T11:37:12.999Z</time></trkpt><trkpt lat="46.2018064980042" lon="12.517874209864189"><ele>429.0</ele><time>2026-04-23T11:37:13.999Z</time></trkpt><trkpt lat="46.201697267861064" lon="12.518115259933046"><ele>429.0</ele><time>2026-04-23T11:37:14.999Z</time></trkpt><trkpt lat="46.20159354263357" lon="12.518333852347629"><ele>427.33333333333337</ele><time>2026-04-23T11:37:15.999Z</time></trkpt><trkpt lat="46.20149614063169" lon="12.518537826144652"><ele>425.6666666666667</ele><time>2026-04-23T11:37:16.999Z</time></trkpt><trkpt lat="46.20139775233256" lon="12.51873872512685"><ele>424.0</ele><time>2026-04-23T11:37:17.999Z</time></trkpt><trkpt lat="46.20130087123311" lon="12.518938532272912"><ele>424.0</ele><time>2026-04-23T11:37:18.999Z</time></trkpt><trkpt lat="46.20120651112434" lon="12.519132575458901"><ele>424.0</ele><time>2026-04-23T11:37:19.999Z</time></trkpt><trkpt lat="46.20111312985748" lon="12.519308727460256"><ele>424.0</ele><time>2026-04-23T11:37:20.999Z</time></trkpt><trkpt lat="46.20103162895682" lon="12.519469934235381"><ele>426.25</ele><time>2026-04-23T11:37:21.999Z</time></trkpt><trkpt lat="46.20095729344097" lon="12.519637779182252"><ele>428.5</ele><time>2026-04-23T11:37:22.999Z</time></trkpt><trkpt lat="46.20090371234359" lon="12.519815563509049"><ele>430.75</ele><time>2026-04-23T11:37:23.999Z</time></trkpt><trkpt lat="46.2008546686433" lon="12.519984821076973"><ele>433.0</ele><time>2026-04-23T11:37:24.999Z</time></trkpt><trkpt lat="46.20082583618748" lon="12.520159903000254"><ele>433.0</ele><time>2026-04-23T11:37:25.999Z</time></trkpt><trkpt lat="46.200797277882614" lon="12.52033921629824"><ele>433.0</ele><time>2026-04-23T11:37:26.999Z</time></trkpt><trkpt lat="46.20075597676225" lon="12.5205163508089"><ele>433.0</ele><time>2026-04-23T11:37:27.999Z</time></trkpt><trkpt lat="46.20071618265956" lon="12.520701780235882"><ele>433.0</ele><time>2026-04-23T11:37:28.999Z</time></trkpt><trkpt lat="46.20068036232048" lon="12.520895878371888"><ele>430.0</ele><time>2026-04-23T11:37:29.999Z</time></trkpt><trkpt lat="46.20063977908759" lon="12.52109309144787"><ele>427.0</ele><time>2026-04-23T11:37:30.999Z</time></trkpt><trkpt lat="46.20059317431814" lon="12.521289389285235"><ele>424.0</ele><time>2026-04-23T11:37:31.999Z</time></trkpt><trkpt lat="46.20054643953791" lon="12.52147506006412"><ele>421.0</ele><time>2026-04-23T11:37:32.999Z</time></trkpt><trkpt lat="46.2005053520057" lon="12.52164066002496"><ele>421.0</ele><time>2026-04-23T11:37:33.999Z</time></trkpt><trkpt lat="46.2004680803944" lon="12.521798050108934"><ele>421.0</ele><time>2026-04-23T11:37:34.999Z</time></trkpt><trkpt lat="46.200432805416554" lon="12.521959237040084"><ele>421.0</ele><time>2026-04-23T11:37:35.999Z</time></trkpt><trkpt lat="46.20039599437371" lon="12.52212325179913"><ele>421.0</ele><time>2026-04-23T11:37:37.001Z</time></trkpt><trkpt lat="46.200357308729885" lon="12.522288842941466"><ele>422.5</ele><time>2026-04-23T11:37:38.001Z</time></trkpt><trkpt lat="46.20032208487023" lon="12.522453094529864"><ele>424.0</ele><time>2026-04-23T11:37:39.001Z</time></trkpt><trkpt lat="46.20029539096099" lon="12.52262550899729"><ele>425.5</ele><time>2026-04-23T11:37:40.001Z</time></trkpt><trkpt lat="46.20027551144974" lon="12.522801515323378"><ele>427.0</ele><time>2026-04-23T11:37:41.001Z</time></trkpt><trkpt lat="46.20025844876705" lon="12.52298229283686"><ele>427.5</ele><time>2026-04-23T11:37:42.001Z</time></trkpt><trkpt lat="46.20024071655781" lon="12.523162245565977"><ele>428.0</ele><time>2026-04-23T11:37:43.001Z</time></trkpt><trkpt lat="46.20022151916353" lon="12.52334576137064"><ele>428.5</ele><time>2026-04-23T11:37:44.001Z</time></trkpt><trkpt lat="46.20020170411886" lon="12.523518013835178"><ele>429.0</ele><time>2026-04-23T11:37:45.001Z</time></trkpt><trkpt lat="46.20018161332881" lon="12.523681985958518"><ele>429.0</ele><time>2026-04-23T11:37:46Z</time></trkpt><trkpt lat="46.2001611789232" lon="12.523846222564138"><ele>429.0</ele><time>2026-04-23T11:37:47Z</time></trkpt><trkpt lat="46.20013911431812" lon="12.524016343620849"><ele>429.0</ele><time>2026-04-23T11:37:48Z</time></trkpt><trkpt lat="46.200120161878154" lon="12.524185398387655"><ele>429.0</ele><time>2026-04-23T11:37:49Z</time></trkpt><trkpt lat="46.20009719803695" lon="12.524360555556513"><ele>429.0</ele><time>2026-04-23T11:37:50Z</time></trkpt><trkpt lat="46.20005482748319" lon="12.52453423872248"><ele>429.0</ele><time>2026-04-23T11:37:51Z</time></trkpt><trkpt lat="46.200005309450255" lon="12.524707365311645"><ele>429.0</ele><time>2026-04-23T11:37:52Z</time></trkpt><trkpt lat="46.1999546288927" lon="12.52487807842596"><ele>429.0</ele><time>2026-04-23T11:37:53Z</time></trkpt><trkpt lat="46.19990103340678" lon="12.525039841475282"><ele>430.0</ele><time>2026-04-23T11:37:54Z</time></trkpt><trkpt lat="46.19983391689684" lon="12.525187812039379"><ele>431.0</ele><time>2026-04-23T11:37:55Z</time></trkpt><trkpt lat="46.199739990238015" lon="12.525309426726087"><ele>432.0</ele><time>2026-04-23T11:37:56Z</time></trkpt><trkpt lat="46.199631023946246" lon="12.52540070571643"><ele>433.0</ele><time>2026-04-23T11:37:57Z</time></trkpt><trkpt lat="46.199518273542516" lon="12.525502988663751"><ele>430.5</ele><time>2026-04-23T11:37:58Z</time></trkpt><trkpt lat="46.199410104077266" lon="12.52564186284831"><ele>428.0</ele><time>2026-04-23T11:37:59Z</time></trkpt><trkpt lat="46.19931629222619" lon="12.5257978676952"><ele>425.5</ele><time>2026-04-23T11:38:00Z</time></trkpt><trkpt lat="46.19924938610534" lon="12.52595895691113"><ele>423.0</ele><time>2026-04-23T11:38:01Z</time></trkpt><trkpt lat="46.199221345862426" lon="12.526135066368107"><ele>421.66666666666663</ele><time>2026-04-23T11:38:02Z</time></trkpt><trkpt lat="46.1992218851598" lon="12.526331859319631"><ele>420.3333333333333</ele><time>2026-04-23T11:38:03Z</time></trkpt><trkpt lat="46.19925521235818" lon="12.526547823346657"><ele>419.0</ele><time>2026-04-23T11:38:04Z</time></trkpt><trkpt lat="46.19931509631466" lon="12.526795539186312"><ele>419.0</ele><time>2026-04-23T11:38:05Z</time></trkpt><trkpt lat="46.19937289832837" lon="12.527050964018404"><ele>419.0</ele><time>2026-04-23T11:38:06Z</time></trkpt><trkpt lat="46.19941341615774" lon="12.52730437694765"><ele>419.0</ele><time>2026-04-23T11:38:07Z</time></trkpt><trkpt lat="46.19942283739802" lon="12.527582495682033"><ele>420.0</ele><time>2026-04-23T11:38:08Z</time></trkpt><trkpt lat="46.19940004859921" lon="12.527895165419741"><ele>421.0</ele><time>2026-04-23T11:38:09Z</time></trkpt><trkpt lat="46.19938000050535" lon="12.528213210535021"><ele>422.0</ele><time>2026-04-23T11:38:10Z</time></trkpt><trkpt lat="46.19936322677535" lon="12.528528916036333"><ele>422.0</ele><time>2026-04-23T11:38:11Z</time></trkpt><trkpt lat="46.19935433875879" lon="12.528827966220907"><ele>422.0</ele><time>2026-04-23T11:38:12Z</time></trkpt><trkpt lat="46.19935362078507" lon="12.529116175467406"><ele>422.0</ele><time>2026-04-23T11:38:13Z</time></trkpt><trkpt lat="46.199350770564315" lon="12.529408441116269"><ele>422.0</ele><time>2026-04-23T11:38:14Z</time></trkpt><trkpt lat="46.199334467305775" lon="12.529701525647429"><ele>422.0</ele><time>2026-04-23T11:38:15Z</time></trkpt><trkpt lat="46.19930524387735" lon="12.529992381331372"><ele>422.0</ele><time>2026-04-23T11:38:16Z</time></trkpt><trkpt lat="46.199264935102946" lon="12.530272689356877"><ele>421.3333333333333</ele><time>2026-04-23T11:38:17Z</time></trkpt><trkpt lat="46.19921768554965" lon="12.530548020030965"><ele>420.66666666666663</ele><time>2026-04-23T11:38:18Z</time></trkpt><trkpt lat="46.19915642799205" lon="12.530798926340033"><ele>420.0</ele><time>2026-04-23T11:38:19Z</time></trkpt><trkpt lat="46.19908378093974" lon="12.531023385971077"><ele>420.0</ele><time>2026-04-23T11:38:20Z</time></trkpt><trkpt lat="46.19898764860485" lon="12.531227556668345"><ele>420.0</ele><time>2026-04-23T11:38:21Z</time></trkpt><trkpt lat="46.19885400072011" lon="12.531420243741593"><ele>420.0</ele><time>2026-04-23T11:38:22Z</time></trkpt><trkpt lat="46.198700183461106" lon="12.531602496780327"><ele>420.0</ele><time>2026-04-23T11:38:23Z</time></trkpt><trkpt lat="46.19853829551748" lon="12.531782489306368"><ele>420.0</ele><time>2026-04-23T11:38:24Z</time></trkpt><trkpt lat="46.19837197504662" lon="12.531960321765744"><ele>420.0</ele><time>2026-04-23T11:38:25Z</time></trkpt><trkpt lat="46.19819574439992" lon="12.532128037707047"><ele>416.0</ele><time>2026-04-23T11:38:26Z</time></trkpt><trkpt lat="46.19800761936588" lon="12.532277230789475"><ele>412.0</ele><time>2026-04-23T11:38:27Z</time></trkpt><trkpt lat="46.197821652794225" lon="12.532418108823588"><ele>408.0</ele><time>2026-04-23T11:38:28Z</time></trkpt><trkpt lat="46.197647390954295" lon="12.532546057033601"><ele>408.0</ele><time>2026-04-23T11:38:29Z</time></trkpt><trkpt lat="46.19748054335094" lon="12.532671735492382"><ele>408.0</ele><time>2026-04-23T11:38:30Z</time></trkpt><trkpt lat="46.19731571726011" lon="12.532798089894511"><ele>408.0</ele><time>2026-04-23T11:38:31Z</time></trkpt><trkpt lat="46.1971593512285" lon="12.532937384215368"><ele>410.33333333333337</ele><time>2026-04-23T11:38:32Z</time></trkpt><trkpt lat="46.19700977706739" lon="12.533099095981779"><ele>412.6666666666667</ele><time>2026-04-23T11:38:33Z</time></trkpt><trkpt lat="46.196862866481155" lon="12.533258811070999"><ele>415.0</ele><time>2026-04-23T11:38:34Z</time></trkpt><trkpt lat="46.196716611529325" lon="12.533405630242662"><ele>415.0</ele><time>2026-04-23T11:38:35Z</time></trkpt><trkpt lat="46.196594095792705" lon="12.53359057720254"><ele>415.0</ele><time>2026-04-23T11:38:36Z</time></trkpt><trkpt lat="46.1965146625666" lon="12.533805663681349"><ele>415.0</ele><time>2026-04-23T11:38:37Z</time></trkpt><trkpt lat="46.19644120168313" lon="12.534051224701042"><ele>415.6666666666667</ele><time>2026-04-23T11:38:38Z</time></trkpt><trkpt lat="46.19638028888169" lon="12.534323594276875"><ele>416.33333333333337</ele><time>2026-04-23T11:38:39Z</time></trkpt><trkpt lat="46.19632239455139" lon="12.53460404868593"><ele>417.0</ele><time>2026-04-23T11:38:40Z</time></trkpt><trkpt lat="46.196264394055596" lon="12.534888627910627"><ele>417.0</ele><time>2026-04-23T11:38:41Z</time></trkpt><trkpt lat="46.19620312488794" lon="12.535182158999023"><ele>417.0</ele><time>2026-04-23T11:38:42Z</time></trkpt><trkpt lat="46.196143767946246" lon="12.53548428831922"><ele>417.0</ele><time>2026-04-23T11:38:43Z</time></trkpt><trkpt lat="46.19609166755854" lon="12.535783525781563"><ele>416.66666666666663</ele><time>2026-04-23T11:38:44Z</time></trkpt><trkpt lat="46.19603884518758" lon="12.536077513368095"><ele>416.3333333333333</ele><time>2026-04-23T11:38:45Z</time></trkpt><trkpt lat="46.19598398141166" lon="12.536351597584337"><ele>416.0</ele><time>2026-04-23T11:38:46Z</time></trkpt><trkpt lat="46.1959307069307" lon="12.536599211955526"><ele>416.0</ele><time>2026-04-23T11:38:47Z</time></trkpt><trkpt lat="46.19586797949783" lon="12.536816029888662"><ele>416.0</ele><time>2026-04-23T11:38:48Z</time></trkpt><trkpt lat="46.19577430966714" lon="12.537004647022234"><ele>416.0</ele><time>2026-04-23T11:38:49Z</time></trkpt><trkpt lat="46.195666853493194" lon="12.53717865951872"><ele>414.66666666666663</ele><time>2026-04-23T11:38:50Z</time></trkpt><trkpt lat="46.19555179175493" lon="12.537354725173662"><ele>413.33333333333337</ele><time>2026-04-23T11:38:51Z</time></trkpt><trkpt lat="46.19548312423644" lon="12.537604987000424"><ele>412.0</ele><time>2026-04-23T11:38:52Z</time></trkpt><trkpt lat="46.1954074006984" lon="12.53786802045492"><ele>411.6666666666667</ele><time>2026-04-23T11:38:53Z</time></trkpt><trkpt lat="46.19533208904455" lon="12.538142878511389"><ele>411.33333333333337</ele><time>2026-04-23T11:38:54Z</time></trkpt><trkpt lat="46.195257314850764" lon="12.53842770721937"><ele>411.0</ele><time>2026-04-23T11:38:55Z</time></trkpt><trkpt lat="46.195185979274434" lon="12.53872231059543"><ele>411.66666666666663</ele><time>2026-04-23T11:38:56Z</time></trkpt><trkpt lat="46.19512334294383" lon="12.539023531729722"><ele>412.3333333333333</ele><time>2026-04-23T11:38:57Z</time></trkpt><trkpt lat="46.19506914229886" lon="12.539306276376188"><ele>413.0</ele><time>2026-04-23T11:38:58Z</time></trkpt><trkpt lat="46.19502140430316" lon="12.539570958633323"><ele>413.3333333333333</ele><time>2026-04-23T11:38:59Z</time></trkpt><trkpt lat="46.194975787628536" lon="12.539825719113542"><ele>413.66666666666663</ele><time>2026-04-23T11:39:00Z</time></trkpt><trkpt lat="46.19493997276867" lon="12.540082294510036"><ele>414.0</ele><time>2026-04-23T11:39:01Z</time></trkpt><trkpt lat="46.194907858479" lon="12.540336253246188"><ele>415.33333333333337</ele><time>2026-04-23T11:39:02Z</time></trkpt><trkpt lat="46.19488049693419" lon="12.540578433814373"><ele>416.6666666666667</ele><time>2026-04-23T11:39:03Z</time></trkpt><trkpt lat="46.1948450298847" lon="12.540811434442801"><ele>418.0</ele><time>2026-04-23T11:39:04Z</time></trkpt><trkpt lat="46.194804549609785" lon="12.541033552207596"><ele>417.0</ele><time>2026-04-23T11:39:04.999Z</time></trkpt><trkpt lat="46.19474617490437" lon="12.541261196141075"><ele>416.0</ele><time>2026-04-23T11:39:05.999Z</time></trkpt><trkpt lat="46.19468136834337" lon="12.54148527204258"><ele>415.0</ele><time>2026-04-23T11:39:06.999Z</time></trkpt><trkpt lat="46.19461757380114" lon="12.541714202375053"><ele>415.0</ele><time>2026-04-23T11:39:07.999Z</time></trkpt><trkpt lat="46.19455454328186" lon="12.541922855232853"><ele>415.0</ele><time>2026-04-23T11:39:08.999Z</time></trkpt><trkpt lat="46.194493380023026" lon="12.542115224209848"><ele>415.0</ele><time>2026-04-23T11:39:09.999Z</time></trkpt><trkpt lat="46.19443606905724" lon="12.542285308521883"><ele>415.0</ele><time>2026-04-23T11:39:10.999Z</time></trkpt><trkpt lat="46.194381325726354" lon="12.542429343853165"><ele>413.5</ele><time>2026-04-23T11:39:11.999Z</time></trkpt><trkpt lat="46.19430960866288" lon="12.542549396384047"><ele>412.0</ele><time>2026-04-23T11:39:12.999Z</time></trkpt><trkpt lat="46.19421709797686" lon="12.542656285013942"><ele>410.5</ele><time>2026-04-23T11:39:13.999Z</time></trkpt><trkpt lat="46.194128209308495" lon="12.54275183629144"><ele>409.0</ele><time>2026-04-23T11:39:14.999Z</time></trkpt><trkpt lat="46.194057246436465" lon="12.542874811817239"><ele>410.33333333333337</ele><time>2026-04-23T11:39:15.999Z</time></trkpt><trkpt lat="46.19398810548189" lon="12.543062572873204"><ele>411.66666666666663</ele><time>2026-04-23T11:39:16.999Z</time></trkpt><trkpt lat="46.193920859928554" lon="12.543281519519695"><ele>413.0</ele><time>2026-04-23T11:39:17.999Z</time></trkpt><trkpt lat="46.193852806057954" lon="12.543512005361489"><ele>412.0</ele><time>2026-04-23T11:39:18.999Z</time></trkpt><trkpt lat="46.193772109988444" lon="12.543754509786975"><ele>411.0</ele><time>2026-04-23T11:39:19.999Z</time></trkpt><trkpt lat="46.19369527037844" lon="12.543991892661458"><ele>410.0</ele><time>2026-04-23T11:39:20.999Z</time></trkpt><trkpt lat="46.19362580868043" lon="12.544210767484897"><ele>410.0</ele><time>2026-04-23T11:39:21.999Z</time></trkpt><trkpt lat="46.19355445938342" lon="12.544424914983347"><ele>410.0</ele><time>2026-04-23T11:39:22.999Z</time></trkpt><trkpt lat="46.19346154597583" lon="12.544623622046402"><ele>410.0</ele><time>2026-04-23T11:39:23.999Z</time></trkpt><trkpt lat="46.19334211239129" lon="12.544756426164387"><ele>408.0</ele><time>2026-04-23T11:39:24.999Z</time></trkpt><trkpt lat="46.193241391785826" lon="12.544917862521624"><ele>406.0</ele><time>2026-04-23T11:39:25.999Z</time></trkpt><trkpt lat="46.193129944365886" lon="12.545055620864538"><ele>404.0</ele><time>2026-04-23T11:39:26.999Z</time></trkpt><trkpt lat="46.193034028012676" lon="12.545179350743478"><ele>402.0</ele><time>2026-04-23T11:39:27.999Z</time></trkpt><trkpt lat="46.19294639154387" lon="12.545291114079786"><ele>408.5</ele><time>2026-04-23T11:39:28.999Z</time></trkpt><trkpt lat="46.19286155463016" lon="12.545399340594152"><ele>415.0</ele><time>2026-04-23T11:39:29.999Z</time></trkpt><trkpt lat="46.19277010062192" lon="12.545494636054405"><ele>421.5</ele><time>2026-04-23T11:39:30.999Z</time></trkpt><trkpt lat="46.19266717376694" lon="12.545566344453347"><ele>428.0</ele><time>2026-04-23T11:39:31.999Z</time></trkpt><trkpt lat="46.19255281749259" lon="12.545608224463061"><ele>428.0</ele><time>2026-04-23T11:39:32.999Z</time></trkpt><trkpt lat="46.192444227115" lon="12.545668880227877"><ele>428.0</ele><time>2026-04-23T11:39:33.999Z</time></trkpt><trkpt lat="46.192334519172746" lon="12.545731406990207"><ele>428.0</ele><time>2026-04-23T11:39:34.999Z</time></trkpt><trkpt lat="46.1922236587637" lon="12.545798498344299"><ele>428.0</ele><time>2026-04-23T11:39:35.999Z</time></trkpt><trkpt lat="46.19211531444595" lon="12.545868054794541"><ele>422.25</ele><time>2026-04-23T11:39:36.999Z</time></trkpt><trkpt lat="46.19199871713336" lon="12.54592544068389"><ele>416.5</ele><time>2026-04-23T11:39:37.999Z</time></trkpt><trkpt lat="46.19189413206222" lon="12.545948626683574"><ele>410.75</ele><time>2026-04-23T11:39:38.999Z</time></trkpt><trkpt lat="46.1917892003081" lon="12.545962491313256"><ele>405.0</ele><time>2026-04-23T11:39:39.999Z</time></trkpt><trkpt lat="46.191671270408676" lon="12.546035283492389"><ele>405.0</ele><time>2026-04-23T11:39:40.999Z</time></trkpt><trkpt lat="46.19154058780591" lon="12.546077772310639"><ele>405.0</ele><time>2026-04-23T11:39:41.999Z</time></trkpt><trkpt lat="46.19141632919522" lon="12.546150290594717"><ele>405.0</ele><time>2026-04-23T11:39:43Z</time></trkpt><trkpt lat="46.191297931580934" lon="12.546233052065238"><ele>405.0</ele><time>2026-04-23T11:39:44Z</time></trkpt><trkpt lat="46.19118715197605" lon="12.546333341225127"><ele>405.5</ele><time>2026-04-23T11:39:45Z</time></trkpt><trkpt lat="46.19107951960175" lon="12.546432098635893"><ele>406.0</ele><time>2026-04-23T11:39:46Z</time></trkpt><trkpt lat="46.190972772669575" lon="12.546543988004395"><ele>406.5</ele><time>2026-04-23T11:39:47Z</time></trkpt><trkpt lat="46.19088436682038" lon="12.546678965959403"><ele>407.0</ele><time>2026-04-23T11:39:48Z</time></trkpt><trkpt lat="46.19083491456034" lon="12.546855968435047"><ele>407.0</ele><time>2026-04-23T11:39:49Z</time></trkpt><trkpt lat="46.19077095773608" lon="12.547021557808723"><ele>407.0</ele><time>2026-04-23T11:39:50Z</time></trkpt><trkpt lat="46.19072060170013" lon="12.547189266240295"><ele>407.0</ele><time>2026-04-23T11:39:51Z</time></trkpt><trkpt lat="46.190662979568756" lon="12.547343582859598"><ele>407.0</ele><time>2026-04-23T11:39:52Z</time></trkpt><trkpt lat="46.190592696984034" lon="12.54748198614725"><ele>406.25</ele><time>2026-04-23T11:39:53Z</time></trkpt><trkpt lat="46.19052007583879" lon="12.547610228497387"><ele>405.5</ele><time>2026-04-23T11:39:54Z</time></trkpt><trkpt lat="46.19044758079774" lon="12.547731279713561"><ele>404.75</ele><time>2026-04-23T11:39:55Z</time></trkpt><trkpt lat="46.1903805327965" lon="12.547856157769802"><ele>404.0</ele><time>2026-04-23T11:39:56Z</time></trkpt><trkpt lat="46.19032328723105" lon="12.548002333779957"><ele>404.0</ele><time>2026-04-23T11:39:57Z</time></trkpt><trkpt lat="46.190285112161945" lon="12.548157363858294"><ele>404.0</ele><time>2026-04-23T11:39:58Z</time></trkpt><trkpt lat="46.19025843310345" lon="12.548331388025654"><ele>404.0</ele><time>2026-04-23T11:39:59Z</time></trkpt><trkpt lat="46.19022656014635" lon="12.548514446693583"><ele>404.0</ele><time>2026-04-23T11:40:00Z</time></trkpt><trkpt lat="46.19019761813583" lon="12.548626434287538"><ele>404.25</ele><time>2026-04-23T11:40:01Z</time></trkpt><trkpt lat="46.19016517051289" lon="12.54880077000682"><ele>404.5</ele><time>2026-04-23T11:40:02Z</time></trkpt><trkpt lat="46.19013670161313" lon="12.54897823964549"><ele>404.75</ele><time>2026-04-23T11:40:03Z</time></trkpt><trkpt lat="46.1901194527801" lon="12.549162881815816"><ele>405.0</ele><time>2026-04-23T11:40:04Z</time></trkpt><trkpt lat="46.19010736310146" lon="12.549351685824035"><ele>405.0</ele><time>2026-04-23T11:40:05Z</time></trkpt><trkpt lat="46.1901146046635" lon="12.54953956611808"><ele>405.0</ele><time>2026-04-23T11:40:06Z</time></trkpt><trkpt lat="46.1901249457212" lon="12.549732611564052"><ele>405.0</ele><time>2026-04-23T11:40:07Z</time></trkpt><trkpt lat="46.190137397614684" lon="12.549927452923226"><ele>405.0</ele><time>2026-04-23T11:40:08Z</time></trkpt><trkpt lat="46.190144596336395" lon="12.550118690888198"><ele>405.25</ele><time>2026-04-23T11:40:09Z</time></trkpt><trkpt lat="46.19013454822231" lon="12.550309376407986"><ele>405.5</ele><time>2026-04-23T11:40:10Z</time></trkpt><trkpt lat="46.19008500098355" lon="12.550483904298373"><ele>405.75</ele><time>2026-04-23T11:40:11Z</time></trkpt><trkpt lat="46.19004692293837" lon="12.550666157720569"><ele>406.0</ele><time>2026-04-23T11:40:12Z</time></trkpt><trkpt lat="46.19002050201144" lon="12.550847458851278"><ele>407.0</ele><time>2026-04-23T11:40:13Z</time></trkpt><trkpt lat="46.18998766817308" lon="12.551021515396569"><ele>408.0</ele><time>2026-04-23T11:40:14Z</time></trkpt><trkpt lat="46.18997377972422" lon="12.55119105406928"><ele>409.0</ele><time>2026-04-23T11:40:15Z</time></trkpt><trkpt lat="46.18998003083705" lon="12.55135815769802"><ele>410.0</ele><time>2026-04-23T11:40:16Z</time></trkpt><trkpt lat="46.19000807364213" lon="12.551529950522234"><ele>410.0</ele><time>2026-04-23T11:40:17Z</time></trkpt><trkpt lat="46.19003857816353" lon="12.551707166045023"><ele>410.0</ele><time>2026-04-23T11:40:18Z</time></trkpt><trkpt lat="46.190060090606714" lon="12.55189129864544"><ele>410.0</ele><time>2026-04-23T11:40:19Z</time></trkpt><trkpt lat="46.19007878560392" lon="12.55208200926598"><ele>410.0</ele><time>2026-04-23T11:40:20Z</time></trkpt><trkpt lat="46.190099705488734" lon="12.552272524237237"><ele>409.0</ele><time>2026-04-23T11:40:21Z</time></trkpt><trkpt lat="46.19011722291438" lon="12.552464630783232"><ele>408.0</ele><time>2026-04-23T11:40:22Z</time></trkpt><trkpt lat="46.19013456678271" lon="12.55264990104079"><ele>407.0</ele><time>2026-04-23T11:40:23Z</time></trkpt><trkpt lat="46.19015638998023" lon="12.552841647393993"><ele>406.0</ele><time>2026-04-23T11:40:24Z</time></trkpt><trkpt lat="46.19017703179507" lon="12.553032987729168"><ele>405.5</ele><time>2026-04-23T11:40:25Z</time></trkpt><trkpt lat="46.19019498316493" lon="12.553220178431127"><ele>405.0</ele><time>2026-04-23T11:40:26Z</time></trkpt><trkpt lat="46.19021159324033" lon="12.553391649788875"><ele>404.5</ele><time>2026-04-23T11:40:27Z</time></trkpt><trkpt lat="46.190231180377396" lon="12.553548476908194"><ele>404.0</ele><time>2026-04-23T11:40:28Z</time></trkpt><trkpt lat="46.19025343902943" lon="12.55371197958099"><ele>403.0</ele><time>2026-04-23T11:40:29Z</time></trkpt><trkpt lat="46.190274744494594" lon="12.553876131087284"><ele>402.0</ele><time>2026-04-23T11:40:30Z</time></trkpt><trkpt lat="46.190291297332706" lon="12.554039271719985"><ele>401.0</ele><time>2026-04-23T11:40:31Z</time></trkpt><trkpt lat="46.19030531131734" lon="12.554200508395239"><ele>400.0</ele><time>2026-04-23T11:40:32Z</time></trkpt><trkpt lat="46.19032533222139" lon="12.554358595474012"><ele>400.0</ele><time>2026-04-23T11:40:33Z</time></trkpt><trkpt lat="46.19033889446695" lon="12.554518199398649"><ele>400.0</ele><time>2026-04-23T11:40:34Z</time></trkpt><trkpt lat="46.19034360211407" lon="12.554675563809193"><ele>400.0</ele><time>2026-04-23T11:40:35Z</time></trkpt><trkpt lat="46.19035518500735" lon="12.554835212617872"><ele>400.0</ele><time>2026-04-23T11:40:36Z</time></trkpt><trkpt lat="46.19036808336368" lon="12.554994206767013"><ele>400.0</ele><time>2026-04-23T11:40:37Z</time></trkpt><trkpt lat="46.19038121347608" lon="12.555153173662813"><ele>399.8</ele><time>2026-04-23T11:40:38Z</time></trkpt><trkpt lat="46.190399297305326" lon="12.555307895767303"><ele>399.6</ele><time>2026-04-23T11:40:39Z</time></trkpt><trkpt lat="46.19041303254307" lon="12.55546727931272"><ele>399.4</ele><time>2026-04-23T11:40:40Z</time></trkpt><trkpt lat="46.19042733732299" lon="12.555626566488945"><ele>399.2</ele><time>2026-04-23T11:40:41Z</time></trkpt><trkpt lat="46.190440787130974" lon="12.555786855612114"><ele>399.0</ele><time>2026-04-23T11:40:42Z</time></trkpt><trkpt lat="46.19045743278573" lon="12.55594353799592"><ele>399.0</ele><time>2026-04-23T11:40:43Z</time></trkpt><trkpt lat="46.19047514355297" lon="12.556099902399552"><ele>399.0</ele><time>2026-04-23T11:40:44Z</time></trkpt><trkpt lat="46.19048598801689" lon="12.556252962045368"><ele>399.0</ele><time>2026-04-23T11:40:45Z</time></trkpt><trkpt lat="46.190498705385366" lon="12.556411866000243"><ele>399.0</ele><time>2026-04-23T11:40:46Z</time></trkpt><trkpt lat="46.19052285897952" lon="12.556564653775943"><ele>399.0</ele><time>2026-04-23T11:40:47Z</time></trkpt><trkpt lat="46.19054106623368" lon="12.556718084792644"><ele>399.0</ele><time>2026-04-23T11:40:48Z</time></trkpt><trkpt lat="46.19055416148398" lon="12.556871361355038"><ele>399.0</ele><time>2026-04-23T11:40:48.999Z</time></trkpt><trkpt lat="46.19057450600945" lon="12.557017076785954"><ele>399.0</ele><time>2026-04-23T11:40:49.999Z</time></trkpt><trkpt lat="46.190590081635314" lon="12.557171840543827"><ele>399.0</ele><time>2026-04-23T11:40:50.999Z</time></trkpt><trkpt lat="46.19059450384575" lon="12.55731637049525"><ele>399.0</ele><time>2026-04-23T11:40:51.999Z</time></trkpt><trkpt lat="46.19063119007902" lon="12.557457392420321"><ele>399.0</ele><time>2026-04-23T11:40:52.999Z</time></trkpt><trkpt lat="46.190667490779234" lon="12.557614977829433"><ele>399.0</ele><time>2026-04-23T11:40:53.999Z</time></trkpt><trkpt lat="46.19067275765606" lon="12.557797069411581"><ele>399.0</ele><time>2026-04-23T11:40:54.999Z</time></trkpt><trkpt lat="46.190751897702036" lon="12.558001449677286"><ele>399.0</ele><time>2026-04-23T11:40:55.999Z</time></trkpt><trkpt lat="46.19066636863747" lon="12.558098871681521"><ele>399.0</ele><time>2026-04-23T11:40:56.999Z</time></trkpt><trkpt lat="46.190662499086365" lon="12.558254535585766"><ele>399.0</ele><time>2026-04-23T11:40:57.999Z</time></trkpt><trkpt lat="46.19067168138951" lon="12.558404367947416"><ele>399.0</ele><time>2026-04-23T11:40:58.999Z</time></trkpt><trkpt lat="46.190694234061645" lon="12.558558716544201"><ele>399.0</ele><time>2026-04-23T11:40:59.999Z</time></trkpt><trkpt lat="46.19072447748224" lon="12.558721778001628"><ele>399.0</ele><time>2026-04-23T11:41:00.999Z</time></trkpt><trkpt lat="46.19075235892482" lon="12.558868541610106"><ele>401.6</ele><time>2026-04-23T11:41:01.999Z</time></trkpt><trkpt lat="46.19075955666902" lon="12.55901204901857"><ele>404.2</ele><time>2026-04-23T11:41:02.999Z</time></trkpt><trkpt lat="46.190770320998844" lon="12.559154879254057"><ele>406.8</ele><time>2026-04-23T11:41:03.999Z</time></trkpt><trkpt lat="46.19075365577533" lon="12.559280866261878"><ele>409.40000000000003</ele><time>2026-04-23T11:41:04.999Z</time></trkpt><trkpt lat="46.1907430688341" lon="12.559416890791066"><ele>412.0</ele><time>2026-04-23T11:41:05.999Z</time></trkpt><trkpt lat="46.19077247467335" lon="12.559550026276058"><ele>412.6</ele><time>2026-04-23T11:41:06.999Z</time></trkpt><trkpt lat="46.19077443177818" lon="12.559686739387164"><ele>413.20000000000005</ele><time>2026-04-23T11:41:07.999Z</time></trkpt><trkpt lat="46.19078993504671" lon="12.559823496083338"><ele>413.8</ele><time>2026-04-23T11:41:08.999Z</time></trkpt><trkpt lat="46.190806123451274" lon="12.559966296480045"><ele>414.4</ele><time>2026-04-23T11:41:09.999Z</time></trkpt><trkpt lat="46.19081975839871" lon="12.560107469210719"><ele>415.0</ele><time>2026-04-23T11:41:10.999Z</time></trkpt><trkpt lat="46.190827820547305" lon="12.560254938024523"><ele>414.6</ele><time>2026-04-23T11:41:11.999Z</time></trkpt><trkpt lat="46.1908336883263" lon="12.560396912933822"><ele>414.2</ele><time>2026-04-23T11:41:12.999Z</time></trkpt><trkpt lat="46.19083155767657" lon="12.560535947035532"><ele>413.79999999999995</ele><time>2026-04-23T11:41:13.999Z</time></trkpt><trkpt lat="46.19083070097774" lon="12.560680214132152"><ele>413.4</ele><time>2026-04-23T11:41:14.999Z</time></trkpt><trkpt lat="46.19082858503737" lon="12.560821364281557"><ele>413.0</ele><time>2026-04-23T11:41:15.999Z</time></trkpt><trkpt lat="46.190825154359565" lon="12.560963492301804"><ele>413.0</ele><time>2026-04-23T11:41:16.999Z</time></trkpt><trkpt lat="46.190823469880264" lon="12.561109485696297"><ele>413.0</ele><time>2026-04-23T11:41:17.999Z</time></trkpt><trkpt lat="46.190822479618085" lon="12.561259796886924"><ele>413.0</ele><time>2026-04-23T11:41:18.999Z</time></trkpt><trkpt lat="46.190820172842606" lon="12.561412132446504"><ele>413.0</ele><time>2026-04-23T11:41:19.999Z</time></trkpt><trkpt lat="46.19081758530639" lon="12.561569147175206"><ele>413.0</ele><time>2026-04-23T11:41:20.999Z</time></trkpt><trkpt lat="46.19082552028671" lon="12.561725996449555"><ele>412.2</ele><time>2026-04-23T11:41:21.999Z</time></trkpt><trkpt lat="46.1908224001005" lon="12.561888641205147"><ele>411.4</ele><time>2026-04-23T11:41:22.999Z</time></trkpt><trkpt lat="46.19082658214892" lon="12.562049578895014"><ele>410.59999999999997</ele><time>2026-04-23T11:41:23.999Z</time></trkpt><trkpt lat="46.19084552977721" lon="12.562202778696573"><ele>409.79999999999995</ele><time>2026-04-23T11:41:24.999Z</time></trkpt><trkpt lat="46.19087278093369" lon="12.562347097525597"><ele>409.0</ele><time>2026-04-23T11:41:25.999Z</time></trkpt><trkpt lat="46.19089650804449" lon="12.56248557980175"><ele>408.2</ele><time>2026-04-23T11:41:26.999Z</time></trkpt><trkpt lat="46.19092109424277" lon="12.562626523234586"><ele>407.4</ele><time>2026-04-23T11:41:27.999Z</time></trkpt><trkpt lat="46.19094746810094" lon="12.56276623448374"><ele>406.6</ele><time>2026-04-23T11:41:28.999Z</time></trkpt><trkpt lat="46.19097248687122" lon="12.562894851949101"><ele>405.8</ele><time>2026-04-23T11:41:29.999Z</time></trkpt><trkpt lat="46.19100359507979" lon="12.563034353546188"><ele>405.0</ele><time>2026-04-23T11:41:30.999Z</time></trkpt><trkpt lat="46.19102609043234" lon="12.563178728284026"><ele>405.0</ele><time>2026-04-23T11:41:31.999Z</time></trkpt><trkpt lat="46.19105138244023" lon="12.563317902298511"><ele>405.0</ele><time>2026-04-23T11:41:32.999Z</time></trkpt><trkpt lat="46.19108287947227" lon="12.56346072606548"><ele>405.0</ele><time>2026-04-23T11:41:33.999Z</time></trkpt><trkpt lat="46.19111161511924" lon="12.563603221629169"><ele>405.0</ele><time>2026-04-23T11:41:34.999Z</time></trkpt><trkpt lat="46.19114309006809" lon="12.563742595428812"><ele>405.0</ele><time>2026-04-23T11:41:35.999Z</time></trkpt><trkpt lat="46.191173511532575" lon="12.563886886150561"><ele>405.2</ele><time>2026-04-23T11:41:36.999Z</time></trkpt><trkpt lat="46.19119664637441" lon="12.564035768917872"><ele>405.4</ele><time>2026-04-23T11:41:37.999Z</time></trkpt><trkpt lat="46.19121938369597" lon="12.564183080370956"><ele>405.6</ele><time>2026-04-23T11:41:38.999Z</time></trkpt><trkpt lat="46.19124480132783" lon="12.56433661332208"><ele>405.8</ele><time>2026-04-23T11:41:39.999Z</time></trkpt><trkpt lat="46.191269892530535" lon="12.564493741192834"><ele>406.0</ele><time>2026-04-23T11:41:40.999Z</time></trkpt><trkpt lat="46.191299817798345" lon="12.564655531198657"><ele>405.5</ele><time>2026-04-23T11:41:41.999Z</time></trkpt><trkpt lat="46.191328708703466" lon="12.564822677067461"><ele>405.0</ele><time>2026-04-23T11:41:42.999Z</time></trkpt><trkpt lat="46.19135701527914" lon="12.564994791655723"><ele>404.5</ele><time>2026-04-23T11:41:43.999Z</time></trkpt><trkpt lat="46.19138740459117" lon="12.565174099898949"><ele>404.0</ele><time>2026-04-23T11:41:44.999Z</time></trkpt><trkpt lat="46.191411979710026" lon="12.565355109591332"><ele>402.5</ele><time>2026-04-23T11:41:45.999Z</time></trkpt><trkpt lat="46.191422057102" lon="12.565536276915712"><ele>401.0</ele><time>2026-04-23T11:41:46.999Z</time></trkpt><trkpt lat="46.191398608398565" lon="12.565725157170606"><ele>399.5</ele><time>2026-04-23T11:41:47.999Z</time></trkpt><trkpt lat="46.1913635796993" lon="12.56591450087913"><ele>398.0</ele><time>2026-04-23T11:41:49Z</time></trkpt><trkpt lat="46.19133252209554" lon="12.566103524726726"><ele>397.25</ele><time>2026-04-23T11:41:50Z</time></trkpt><trkpt lat="46.19130609691335" lon="12.566296544200528"><ele>396.5</ele><time>2026-04-23T11:41:51Z</time></trkpt><trkpt lat="46.19127994297765" lon="12.566490338676099"><ele>395.75</ele><time>2026-04-23T11:41:52Z</time></trkpt><trkpt lat="46.19126047644514" lon="12.566689668765132"><ele>395.0</ele><time>2026-04-23T11:41:53Z</time></trkpt><trkpt lat="46.19124786448542" lon="12.566868822455692"><ele>394.5</ele><time>2026-04-23T11:41:54Z</time></trkpt><trkpt lat="46.19125473226213" lon="12.567028698777563"><ele>394.0</ele><time>2026-04-23T11:41:55Z</time></trkpt><trkpt lat="46.19129730503675" lon="12.56717746828079"><ele>393.5</ele><time>2026-04-23T11:41:56Z</time></trkpt><trkpt lat="46.191377417177705" lon="12.567298776019227"><ele>393.0</ele><time>2026-04-23T11:41:57Z</time></trkpt><trkpt lat="46.19147834260181" lon="12.56740360641051"><ele>398.0</ele><time>2026-04-23T11:41:58Z</time></trkpt><trkpt lat="46.1915749191502" lon="12.567513053012895"><ele>403.0</ele><time>2026-04-23T11:41:59Z</time></trkpt><trkpt lat="46.19163374692747" lon="12.567666812713883"><ele>408.0</ele><time>2026-04-23T11:42:00Z</time></trkpt><trkpt lat="46.19161755968802" lon="12.567857807824174"><ele>413.0</ele><time>2026-04-23T11:42:01Z</time></trkpt><trkpt lat="46.19164316379645" lon="12.568048305111976"><ele>413.25</ele><time>2026-04-23T11:42:02Z</time></trkpt><trkpt lat="46.19163733755373" lon="12.568237803253126"><ele>413.5</ele><time>2026-04-23T11:42:03Z</time></trkpt><trkpt lat="46.19159592403059" lon="12.56840658269628"><ele>413.75</ele><time>2026-04-23T11:42:04Z</time></trkpt><trkpt lat="46.19151815046257" lon="12.568553166080598"><ele>414.0</ele><time>2026-04-23T11:42:05Z</time></trkpt><trkpt lat="46.19139826573654" lon="12.568625614300183"><ele>412.6</ele><time>2026-04-23T11:42:06Z</time></trkpt><trkpt lat="46.19127955833094" lon="12.568673069706502"><ele>411.2</ele><time>2026-04-23T11:42:07Z</time></trkpt><trkpt lat="46.191192061461955" lon="12.568746114175347"><ele>409.8</ele><time>2026-04-23T11:42:08Z</time></trkpt><trkpt lat="46.191120853922136" lon="12.568822412096207"><ele>408.40000000000003</ele><time>2026-04-23T11:42:09Z</time></trkpt><trkpt lat="46.19107540623179" lon="12.568962889398426"><ele>407.0</ele><time>2026-04-23T11:42:10Z</time></trkpt><trkpt lat="46.19105363082683" lon="12.569151873855127"><ele>407.0</ele><time>2026-04-23T11:42:11Z</time></trkpt><trkpt lat="46.191055155380035" lon="12.569358077679562"><ele>407.0</ele><time>2026-04-23T11:42:12Z</time></trkpt><trkpt lat="46.1910489678786" lon="12.569573706280826"><ele>407.0</ele><time>2026-04-23T11:42:13Z</time></trkpt><trkpt lat="46.191020713251774" lon="12.569783620453197"><ele>407.0</ele><time>2026-04-23T11:42:14Z</time></trkpt><trkpt lat="46.19098041649014" lon="12.56998296630432"><ele>407.25</ele><time>2026-04-23T11:42:15Z</time></trkpt><trkpt lat="46.190944878071875" lon="12.570158237963206"><ele>407.5</ele><time>2026-04-23T11:42:16Z</time></trkpt><trkpt lat="46.1909169864969" lon="12.57032006800844"><ele>407.75</ele><time>2026-04-23T11:42:17Z</time></trkpt><trkpt lat="46.190899182211616" lon="12.570476736080927"><ele>408.0</ele><time>2026-04-23T11:42:18Z</time></trkpt><trkpt lat="46.19089893980055" lon="12.57063190975694"><ele>408.2</ele><time>2026-04-23T11:42:19Z</time></trkpt><trkpt lat="46.19091256666261" lon="12.570781835741338"><ele>408.4</ele><time>2026-04-23T11:42:20Z</time></trkpt><trkpt lat="46.19093201260296" lon="12.570924665446576"><ele>408.59999999999997</ele><time>2026-04-23T11:42:21Z</time></trkpt><trkpt lat="46.19095248301851" lon="12.571060486848785"><ele>408.79999999999995</ele><time>2026-04-23T11:42:22Z</time></trkpt><trkpt lat="46.19096270159017" lon="12.571200307312237"><ele>409.0</ele><time>2026-04-23T11:42:23Z</time></trkpt><trkpt lat="46.1909495359497" lon="12.571346908477166"><ele>409.25</ele><time>2026-04-23T11:42:24Z</time></trkpt><trkpt lat="46.1909046518409" lon="12.571497979442878"><ele>409.5</ele><time>2026-04-23T11:42:25Z</time></trkpt><trkpt lat="46.19084795621481" lon="12.571653749459907"><ele>409.75</ele><time>2026-04-23T11:42:26Z</time></trkpt><trkpt lat="46.1908122885708" lon="12.571826798798368"><ele>410.0</ele><time>2026-04-23T11:42:27Z</time></trkpt><trkpt lat="46.19080223253665" lon="12.572017871495005"><ele>409.5</ele><time>2026-04-23T11:42:28Z</time></trkpt><trkpt lat="46.190822194125126" lon="12.57221207114235"><ele>409.0</ele><time>2026-04-23T11:42:29Z</time></trkpt><trkpt lat="46.19087343540865" lon="12.572401571698984"><ele>408.5</ele><time>2026-04-23T11:42:30Z</time></trkpt><trkpt lat="46.190949056340195" lon="12.57257240638302"><ele>408.0</ele><time>2026-04-23T11:42:31Z</time></trkpt><trkpt lat="46.19105100495506" lon="12.572719088863924"><ele>408.0</ele><time>2026-04-23T11:42:32Z</time></trkpt><trkpt lat="46.19117564919245" lon="12.57283540205817"><ele>408.0</ele><time>2026-04-23T11:42:33Z</time></trkpt><trkpt lat="46.191314167764695" lon="12.572934200163843"><ele>408.0</ele><time>2026-04-23T11:42:34Z</time></trkpt><trkpt lat="46.191453884698596" lon="12.573029836994918"><ele>410.75</ele><time>2026-04-23T11:42:35Z</time></trkpt><trkpt lat="46.19157742317718" lon="12.573128760920367"><ele>413.5</ele><time>2026-04-23T11:42:36Z</time></trkpt><trkpt lat="46.1916879803006" lon="12.573218294111514"><ele>416.25</ele><time>2026-04-23T11:42:37Z</time></trkpt><trkpt lat="46.19177082694886" lon="12.57332179963538"><ele>419.0</ele><time>2026-04-23T11:42:38Z</time></trkpt><trkpt lat="46.191823206572955" lon="12.573460210147813"><ele>419.0</ele><time>2026-04-23T11:42:39Z</time></trkpt><trkpt lat="46.19184843382754" lon="12.573628974041327"><ele>419.0</ele><time>2026-04-23T11:42:40Z</time></trkpt><trkpt lat="46.19183602769517" lon="12.573806536650556"><ele>419.0</ele><time>2026-04-23T11:42:41Z</time></trkpt><trkpt lat="46.191787918779205" lon="12.573971508220154"><ele>419.0</ele><time>2026-04-23T11:42:42Z</time></trkpt><trkpt lat="46.191714176695974" lon="12.574113202578646"><ele>418.25</ele><time>2026-04-23T11:42:43Z</time></trkpt><trkpt lat="46.191618256799224" lon="12.574213117410109"><ele>417.5</ele><time>2026-04-23T11:42:44Z</time></trkpt><trkpt lat="46.19150030178037" lon="12.574237954526946"><ele>416.75</ele><time>2026-04-23T11:42:45Z</time></trkpt><trkpt lat="46.1913842772319" lon="12.574257336646157"><ele>416.0</ele><time>2026-04-23T11:42:46Z</time></trkpt><trkpt lat="46.1912642043771" lon="12.574235727401966"><ele>415.0</ele><time>2026-04-23T11:42:47Z</time></trkpt><trkpt lat="46.19114701511612" lon="12.574253652659161"><ele>414.0</ele><time>2026-04-23T11:42:48Z</time></trkpt><trkpt lat="46.19103441783956" lon="12.574316208980061"><ele>413.0</ele><time>2026-04-23T11:42:49Z</time></trkpt><trkpt lat="46.19093213262004" lon="12.574417651568638"><ele>412.0</ele><time>2026-04-23T11:42:50Z</time></trkpt><trkpt lat="46.19084990134602" lon="12.574554825518357"><ele>412.0</ele><time>2026-04-23T11:42:51Z</time></trkpt><trkpt lat="46.19078616526132" lon="12.574714962035184"><ele>412.0</ele><time>2026-04-23T11:42:52Z</time></trkpt><trkpt lat="46.19073505898151" lon="12.574886814388552"><ele>412.0</ele><time>2026-04-23T11:42:53Z</time></trkpt><trkpt lat="46.1906844898889" lon="12.575066559522199"><ele>412.0</ele><time>2026-04-23T11:42:54Z</time></trkpt><trkpt lat="46.190630901733265" lon="12.575248751619027"><ele>406.5</ele><time>2026-04-23T11:42:55Z</time></trkpt><trkpt lat="46.19057567957658" lon="12.575430054529146"><ele>401.0</ele><time>2026-04-23T11:42:56Z</time></trkpt><trkpt lat="46.190523100860524" lon="12.5756098797522"><ele>395.5</ele><time>2026-04-23T11:42:57Z</time></trkpt><trkpt lat="46.19047924479712" lon="12.575790278914027"><ele>390.0</ele><time>2026-04-23T11:42:58Z</time></trkpt><trkpt lat="46.19044891282496" lon="12.575968895525698"><ele>390.0</ele><time>2026-04-23T11:42:59Z</time></trkpt><trkpt lat="46.190441965877454" lon="12.576155383352159"><ele>390.0</ele><time>2026-04-23T11:43:00Z</time></trkpt><trkpt lat="46.19046626038374" lon="12.576343166262678"><ele>390.0</ele><time>2026-04-23T11:43:01Z</time></trkpt><trkpt lat="46.19051658707306" lon="12.576525314451583"><ele>390.0</ele><time>2026-04-23T11:43:02Z</time></trkpt><trkpt lat="46.190575826433395" lon="12.576685130860303"><ele>390.4</ele><time>2026-04-23T11:43:03Z</time></trkpt><trkpt lat="46.19062398337459" lon="12.576816102860535"><ele>390.8</ele><time>2026-04-23T11:43:04Z</time></trkpt><trkpt lat="46.19067158459626" lon="12.576942937774877"><ele>391.20000000000005</ele><time>2026-04-23T11:43:05Z</time></trkpt><trkpt lat="46.19072110033175" lon="12.57706755183223"><ele>391.6</ele><time>2026-04-23T11:43:06Z</time></trkpt><trkpt lat="46.190777326601314" lon="12.577199236537192"><ele>392.0</ele><time>2026-04-23T11:43:07Z</time></trkpt><trkpt lat="46.19083746816616" lon="12.577335641559792"><ele>394.25</ele><time>2026-04-23T11:43:08Z</time></trkpt><trkpt lat="46.190899985364126" lon="12.57747553302127"><ele>396.5</ele><time>2026-04-23T11:43:09Z</time></trkpt><trkpt lat="46.19096774159324" lon="12.577620203506482"><ele>398.75</ele><time>2026-04-23T11:43:10Z</time></trkpt><trkpt lat="46.19103420375952" lon="12.57776849051337"><ele>401.0</ele><time>2026-04-23T11:43:11Z</time></trkpt><trkpt lat="46.19109943781889" lon="12.57792686153205"><ele>401.0</ele><time>2026-04-23T11:43:12Z</time></trkpt><trkpt lat="46.191164677739145" lon="12.578085084114436"><ele>401.0</ele><time>2026-04-23T11:43:12.999Z</time></trkpt><trkpt lat="46.191235149552455" lon="12.578240083266568"><ele>401.0</ele><time>2026-04-23T11:43:13.999Z</time></trkpt><trkpt lat="46.191299968778274" lon="12.578396633076784"><ele>401.0</ele><time>2026-04-23T11:43:14.999Z</time></trkpt><trkpt lat="46.191362304783446" lon="12.578562485467035"><ele>400.5</ele><time>2026-04-23T11:43:15.999Z</time></trkpt><trkpt lat="46.19142343189453" lon="12.57873102725667"><ele>400.0</ele><time>2026-04-23T11:43:16.999Z</time></trkpt><trkpt lat="46.191482415105924" lon="12.578902823810918"><ele>399.5</ele><time>2026-04-23T11:43:17.999Z</time></trkpt><trkpt lat="46.191538549878736" lon="12.579082755899636"><ele>399.0</ele><time>2026-04-23T11:43:18.999Z</time></trkpt><trkpt lat="46.191591405555585" lon="12.57927547157078"><ele>401.25</ele><time>2026-04-23T11:43:19.999Z</time></trkpt><trkpt lat="46.19164676302709" lon="12.579473819850122"><ele>403.5</ele><time>2026-04-23T11:43:20.999Z</time></trkpt><trkpt lat="46.19169916367533" lon="12.579676775062769"><ele>405.75</ele><time>2026-04-23T11:43:21.999Z</time></trkpt><trkpt lat="46.19174609551739" lon="12.57988203583732"><ele>408.0</ele><time>2026-04-23T11:43:22.999Z</time></trkpt><trkpt lat="46.19178452766055" lon="12.580079400179867"><ele>408.0</ele><time>2026-04-23T11:43:23.999Z</time></trkpt><trkpt lat="46.19181934384722" lon="12.580257215254706"><ele>408.0</ele><time>2026-04-23T11:43:24.999Z</time></trkpt><trkpt lat="46.19184689421787" lon="12.580419299468659"><ele>408.0</ele><time>2026-04-23T11:43:25.999Z</time></trkpt><trkpt lat="46.191873526167704" lon="12.5805699327194"><ele>408.0</ele><time>2026-04-23T11:43:26.999Z</time></trkpt><trkpt lat="46.19189127061549" lon="12.580709893465022"><ele>408.0</ele><time>2026-04-23T11:43:27.999Z</time></trkpt><trkpt lat="46.19190606583101" lon="12.580835952655647"><ele>408.0</ele><time>2026-04-23T11:43:28.999Z</time></trkpt><trkpt lat="46.19191612727679" lon="12.580939620488135"><ele>408.0</ele><time>2026-04-23T11:43:29.999Z</time></trkpt><trkpt lat="46.191891823570046" lon="12.581072641522441"><ele>408.0</ele><time>2026-04-23T11:43:31.999Z</time></trkpt><trkpt lat="46.19186838105982" lon="12.581173447407119"><ele>408.0</ele><time>2026-04-23T11:43:34.999Z</time></trkpt><trkpt lat="46.191875626083515" lon="12.581268283840323"><ele>408.0</ele><time>2026-04-23T11:43:36.999Z</time></trkpt><trkpt lat="46.19194100609015" lon="12.581276888789246"><ele>408.0</ele><time>2026-04-23T11:44:35Z</time></trkpt><trkpt lat="46.191945688994196" lon="12.581154188980577"><ele>408.0</ele><time>2026-04-23T11:44:37Z</time></trkpt><trkpt lat="46.191964489278604" lon="12.58101040949616"><ele>408.0</ele><time>2026-04-23T11:44:38Z</time></trkpt><trkpt lat="46.1919370948291" lon="12.580847256229232"><ele>408.0</ele><time>2026-04-23T11:44:39Z</time></trkpt><trkpt lat="46.19191189413978" lon="12.580639404273938"><ele>408.0</ele><time>2026-04-23T11:44:40Z</time></trkpt><trkpt lat="46.19188064827207" lon="12.580403532493017"><ele>408.66666666666663</ele><time>2026-04-23T11:44:41Z</time></trkpt><trkpt lat="46.19183744065033" lon="12.580149838068538"><ele>409.3333333333333</ele><time>2026-04-23T11:44:42Z</time></trkpt><trkpt lat="46.191780608514684" lon="12.579888052254995"><ele>410.0</ele><time>2026-04-23T11:44:43Z</time></trkpt><trkpt lat="46.19172128623109" lon="12.579627982788965"><ele>409.3333333333333</ele><time>2026-04-23T11:44:44Z</time></trkpt><trkpt lat="46.19165635698114" lon="12.579376041115113"><ele>408.66666666666663</ele><time>2026-04-23T11:44:45Z</time></trkpt><trkpt lat="46.19158802283225" lon="12.579136677470304"><ele>408.0</ele><time>2026-04-23T11:44:46Z</time></trkpt><trkpt lat="46.19151394032368" lon="12.578896667056828"><ele>405.66666666666663</ele><time>2026-04-23T11:44:47Z</time></trkpt><trkpt lat="46.19143424036109" lon="12.578664009836624"><ele>403.3333333333333</ele><time>2026-04-23T11:44:48Z</time></trkpt><trkpt lat="46.19135265009929" lon="12.57843386788013"><ele>401.0</ele><time>2026-04-23T11:44:49Z</time></trkpt><trkpt lat="46.19126628583772" lon="12.57821200379901"><ele>401.0</ele><time>2026-04-23T11:44:50Z</time></trkpt><trkpt lat="46.191175766222386" lon="12.577994483223485"><ele>401.0</ele><time>2026-04-23T11:44:51Z</time></trkpt><trkpt lat="46.19108347425516" lon="12.577784479491454"><ele>401.0</ele><time>2026-04-23T11:44:52Z</time></trkpt><trkpt lat="46.19098851787264" lon="12.577580462374671"><ele>401.66666666666663</ele><time>2026-04-23T11:44:53Z</time></trkpt><trkpt lat="46.190895832029845" lon="12.57737810512112"><ele>402.33333333333337</ele><time>2026-04-23T11:44:54Z</time></trkpt><trkpt lat="46.19080832797739" lon="12.57717543623692"><ele>403.0</ele><time>2026-04-23T11:44:55Z</time></trkpt><trkpt lat="46.19072337766751" lon="12.576973400063979"><ele>399.33333333333337</ele><time>2026-04-23T11:44:56Z</time></trkpt><trkpt lat="46.19064294892718" lon="12.576761369310947"><ele>395.66666666666663</ele><time>2026-04-23T11:44:57Z</time></trkpt><trkpt lat="46.19056628375343" lon="12.57655091761255"><ele>392.0</ele><time>2026-04-23T11:44:58Z</time></trkpt><trkpt lat="46.19050863575472" lon="12.5763493639017"><ele>391.5</ele><time>2026-04-23T11:44:59Z</time></trkpt><trkpt lat="46.1904773364357" lon="12.576157560374172"><ele>391.0</ele><time>2026-04-23T11:45:00Z</time></trkpt><trkpt lat="46.190481114351776" lon="12.575960302076034"><ele>390.5</ele><time>2026-04-23T11:45:01Z</time></trkpt><trkpt lat="46.19053384036006" lon="12.57575775271896"><ele>390.0</ele><time>2026-04-23T11:45:02Z</time></trkpt><trkpt lat="46.190613056765265" lon="12.57556548921793"><ele>397.33333333333337</ele><time>2026-04-23T11:45:03Z</time></trkpt><trkpt lat="46.19070043215109" lon="12.575362530755196"><ele>404.6666666666667</ele><time>2026-04-23T11:45:04Z</time></trkpt><trkpt lat="46.19078140607955" lon="12.57514804351702"><ele>412.0</ele><time>2026-04-23T11:45:05Z</time></trkpt><trkpt lat="46.19076557092762" lon="12.574932557297833"><ele>412.0</ele><time>2026-04-23T11:45:06Z</time></trkpt><trkpt lat="46.19084169513559" lon="12.574715412195344"><ele>412.0</ele><time>2026-04-23T11:45:07Z</time></trkpt><trkpt lat="46.190927945023844" lon="12.574509565061112"><ele>412.0</ele><time>2026-04-23T11:45:08Z</time></trkpt><trkpt lat="46.19103543279042" lon="12.57438934753249"><ele>413.0</ele><time>2026-04-23T11:45:09Z</time></trkpt><trkpt lat="46.19115892148908" lon="12.574321013388772"><ele>414.0</ele><time>2026-04-23T11:45:10Z</time></trkpt><trkpt lat="46.19128237861736" lon="12.574294857108532"><ele>415.0</ele><time>2026-04-23T11:45:11Z</time></trkpt><trkpt lat="46.19142791680387" lon="12.574281848681364"><ele>416.0</ele><time>2026-04-23T11:45:12Z</time></trkpt><trkpt lat="46.19155821007127" lon="12.574242579665109"><ele>416.0</ele><time>2026-04-23T11:45:13Z</time></trkpt><trkpt lat="46.191684813255954" lon="12.574203113589427"><ele>416.0</ele><time>2026-04-23T11:45:14Z</time></trkpt><trkpt lat="46.19179342013018" lon="12.574096750507623"><ele>416.0</ele><time>2026-04-23T11:45:14.999Z</time></trkpt><trkpt lat="46.191864699044274" lon="12.573937677320478"><ele>416.0</ele><time>2026-04-23T11:45:15.999Z</time></trkpt><trkpt lat="46.191897591931" lon="12.573756028396382"><ele>416.75</ele><time>2026-04-23T11:45:16.999Z</time></trkpt><trkpt lat="46.191902416437976" lon="12.573572305346987"><ele>417.5</ele><time>2026-04-23T11:45:17.999Z</time></trkpt><trkpt lat="46.191868850376046" lon="12.573394346232018"><ele>418.25</ele><time>2026-04-23T11:45:18.999Z</time></trkpt><trkpt lat="46.19179600427997" lon="12.573241378954338"><ele>419.0</ele><time>2026-04-23T11:45:19.999Z</time></trkpt><trkpt lat="46.191684247941254" lon="12.573121447528848"><ele>419.0</ele><time>2026-04-23T11:45:20.999Z</time></trkpt><trkpt lat="46.19154182314892" lon="12.573011813816457"><ele>419.0</ele><time>2026-04-23T11:45:21.999Z</time></trkpt><trkpt lat="46.19139477025211" lon="12.572914739365364"><ele>419.0</ele><time>2026-04-23T11:45:22.999Z</time></trkpt><trkpt lat="46.191249671597184" lon="12.57280703494876"><ele>416.25</ele><time>2026-04-23T11:45:23.999Z</time></trkpt><trkpt lat="46.19111213235628" lon="12.57269243078272"><ele>413.5</ele><time>2026-04-23T11:45:24.999Z</time></trkpt><trkpt lat="46.19101135803375" lon="12.57255692585691"><ele>410.75</ele><time>2026-04-23T11:45:25.999Z</time></trkpt><trkpt lat="46.190928360485444" lon="12.572391212146238"><ele>408.0</ele><time>2026-04-23T11:45:26.999Z</time></trkpt><trkpt lat="46.19088566801039" lon="12.572183744381103"><ele>408.66666666666663</ele><time>2026-04-23T11:45:27.999Z</time></trkpt><trkpt lat="46.19085959306687" lon="12.57196334394909"><ele>409.3333333333333</ele><time>2026-04-23T11:45:28.999Z</time></trkpt><trkpt lat="46.19087021831835" lon="12.571747980304943"><ele>410.0</ele><time>2026-04-23T11:45:29.999Z</time></trkpt><trkpt lat="46.19092838033817" lon="12.571549874668564"><ele>410.0</ele><time>2026-04-23T11:45:30.999Z</time></trkpt><trkpt lat="46.190986418873834" lon="12.571341395508863"><ele>410.0</ele><time>2026-04-23T11:45:31.999Z</time></trkpt><trkpt lat="46.19099596280411" lon="12.571124080355656"><ele>410.0</ele><time>2026-04-23T11:45:32.999Z</time></trkpt><trkpt lat="46.190978404452416" lon="12.570904190303638"><ele>409.66666666666663</ele><time>2026-04-23T11:45:33.999Z</time></trkpt><trkpt lat="46.19094111462" lon="12.570678505288235"><ele>409.33333333333337</ele><time>2026-04-23T11:45:34.999Z</time></trkpt><trkpt lat="46.19094087184491" lon="12.570448847788004"><ele>409.0</ele><time>2026-04-23T11:45:35.999Z</time></trkpt><trkpt lat="46.190966857440465" lon="12.57022103550369"><ele>408.6666666666667</ele><time>2026-04-23T11:45:36.999Z</time></trkpt><trkpt lat="46.19100876154389" lon="12.569993857309303"><ele>408.33333333333337</ele><time>2026-04-23T11:45:37.999Z</time></trkpt><trkpt lat="46.19104112230664" lon="12.569762026307165"><ele>408.0</ele><time>2026-04-23T11:45:38.999Z</time></trkpt><trkpt lat="46.191083323001436" lon="12.56954325275922"><ele>407.75</ele><time>2026-04-23T11:45:39.999Z</time></trkpt><trkpt lat="46.191104661430124" lon="12.569330389416624"><ele>407.5</ele><time>2026-04-23T11:45:40.999Z</time></trkpt><trkpt lat="46.19111122132504" lon="12.56912707479457"><ele>407.25</ele><time>2026-04-23T11:45:41.999Z</time></trkpt><trkpt lat="46.19114034189241" lon="12.568943643906646"><ele>407.0</ele><time>2026-04-23T11:45:42.999Z</time></trkpt><trkpt lat="46.19119320785276" lon="12.568805796024632"><ele>407.0</ele><time>2026-04-23T11:45:43.999Z</time></trkpt><trkpt lat="46.191268211908444" lon="12.56871807764781"><ele>407.0</ele><time>2026-04-23T11:45:44.999Z</time></trkpt><trkpt lat="46.19136559316111" lon="12.56869338426478"><ele>407.0</ele><time>2026-04-23T11:45:45.999Z</time></trkpt><trkpt lat="46.19146100294776" lon="12.568607420518203"><ele>407.0</ele><time>2026-04-23T11:45:46.999Z</time></trkpt><trkpt lat="46.19156497237317" lon="12.568527044978556"><ele>407.0</ele><time>2026-04-23T11:45:47.999Z</time></trkpt><trkpt lat="46.19164003982503" lon="12.56838662506745"><ele>408.5</ele><time>2026-04-23T11:45:48.999Z</time></trkpt><trkpt lat="46.19167403731707" lon="12.568215390461193"><ele>410.0</ele><time>2026-04-23T11:45:49.999Z</time></trkpt><trkpt lat="46.1916718903114" lon="12.568033910255053"><ele>411.5</ele><time>2026-04-23T11:45:50.999Z</time></trkpt><trkpt lat="46.191655845243915" lon="12.567857674513915"><ele>413.0</ele><time>2026-04-23T11:45:51.999Z</time></trkpt><trkpt lat="46.19163584984854" lon="12.567680842623464"><ele>413.0</ele><time>2026-04-23T11:45:52.999Z</time></trkpt><trkpt lat="46.19159298551303" lon="12.567508966713007"><ele>413.0</ele><time>2026-04-23T11:45:53.999Z</time></trkpt><trkpt lat="46.19154023711362" lon="12.567334802475434"><ele>413.0</ele><time>2026-04-23T11:45:54.999Z</time></trkpt><trkpt lat="46.19141091430166" lon="12.567219683925902"><ele>413.0</ele><time>2026-04-23T11:45:55.999Z</time></trkpt><trkpt lat="46.19130959318548" lon="12.567103258955383"><ele>408.5</ele><time>2026-04-23T11:45:56.999Z</time></trkpt><trkpt lat="46.19125991330202" lon="12.566969469202148"><ele>404.0</ele><time>2026-04-23T11:45:57.999Z</time></trkpt><trkpt lat="46.191282078655" lon="12.566793282717919"><ele>399.5</ele><time>2026-04-23T11:45:58.999Z</time></trkpt><trkpt lat="46.19131489495648" lon="12.566589534597169"><ele>395.0</ele><time>2026-04-23T11:46:00Z</time></trkpt><trkpt lat="46.19132967262521" lon="12.566368273732197"><ele>395.75</ele><time>2026-04-23T11:46:01Z</time></trkpt><trkpt lat="46.19136232118672" lon="12.566154341483683"><ele>396.5</ele><time>2026-04-23T11:46:02Z</time></trkpt><trkpt lat="46.1913867253183" lon="12.565940803216293"><ele>397.25</ele><time>2026-04-23T11:46:03Z</time></trkpt><trkpt lat="46.19140821014715" lon="12.565741141631301"><ele>398.0</ele><time>2026-04-23T11:46:04Z</time></trkpt><trkpt lat="46.19144161380696" lon="12.565555149714045"><ele>398.0</ele><time>2026-04-23T11:46:05Z</time></trkpt><trkpt lat="46.191432687851105" lon="12.565376606235226"><ele>398.0</ele><time>2026-04-23T11:46:06Z</time></trkpt><trkpt lat="46.191419686047915" lon="12.565208767564247"><ele>398.0</ele><time>2026-04-23T11:46:07Z</time></trkpt><trkpt lat="46.19138766314219" lon="12.56503791840533"><ele>398.0</ele><time>2026-04-23T11:46:08Z</time></trkpt><trkpt lat="46.19135486728787" lon="12.564866640295975"><ele>399.5</ele><time>2026-04-23T11:46:09Z</time></trkpt><trkpt lat="46.19132920315521" lon="12.564699306057616"><ele>401.0</ele><time>2026-04-23T11:46:10Z</time></trkpt><trkpt lat="46.191302295124615" lon="12.564535277735942"><ele>402.5</ele><time>2026-04-23T11:46:11Z</time></trkpt><trkpt lat="46.19127075586742" lon="12.56436910568367"><ele>404.0</ele><time>2026-04-23T11:46:12Z</time></trkpt><trkpt lat="46.19124026347119" lon="12.564200436253671"><ele>404.25</ele><time>2026-04-23T11:46:13Z</time></trkpt><trkpt lat="46.191211896501606" lon="12.564029708897339"><ele>404.5</ele><time>2026-04-23T11:46:14Z</time></trkpt><trkpt lat="46.19118255865344" lon="12.563858864210063"><ele>404.75</ele><time>2026-04-23T11:46:15Z</time></trkpt><trkpt lat="46.191150839905546" lon="12.563688477076573"><ele>405.0</ele><time>2026-04-23T11:46:16Z</time></trkpt><trkpt lat="46.19111814536451" lon="12.563514304786192"><ele>405.0</ele><time>2026-04-23T11:46:17Z</time></trkpt><trkpt lat="46.191083083020274" lon="12.563340014983018"><ele>405.0</ele><time>2026-04-23T11:46:18Z</time></trkpt><trkpt lat="46.191050302029915" lon="12.563160315469037"><ele>405.0</ele><time>2026-04-23T11:46:19Z</time></trkpt><trkpt lat="46.19101812167443" lon="12.562978653892543"><ele>405.0</ele><time>2026-04-23T11:46:20Z</time></trkpt><trkpt lat="46.19098872381256" lon="12.562799150053078"><ele>405.0</ele><time>2026-04-23T11:46:21Z</time></trkpt><trkpt lat="46.19095765134437" lon="12.56262541438023"><ele>405.0</ele><time>2026-04-23T11:46:22Z</time></trkpt><trkpt lat="46.19092981526426" lon="12.562457639253203"><ele>405.0</ele><time>2026-04-23T11:46:23Z</time></trkpt><trkpt lat="46.19090090688708" lon="12.562308046611966"><ele>405.0</ele><time>2026-04-23T11:46:24Z</time></trkpt><trkpt lat="46.19086867331783" lon="12.562158828671498"><ele>405.8</ele><time>2026-04-23T11:46:25Z</time></trkpt><trkpt lat="46.190843165694986" lon="12.562008909758267"><ele>406.6</ele><time>2026-04-23T11:46:26Z</time></trkpt><trkpt lat="46.190849647985324" lon="12.561856518091476"><ele>407.4</ele><time>2026-04-23T11:46:27Z</time></trkpt><trkpt lat="46.190849627109046" lon="12.561701653241725"><ele>408.2</ele><time>2026-04-23T11:46:28Z</time></trkpt><trkpt lat="46.19083603891585" lon="12.561547289550523"><ele>409.0</ele><time>2026-04-23T11:46:29Z</time></trkpt><trkpt lat="46.190840175945965" lon="12.56139759692728"><ele>409.0</ele><time>2026-04-23T11:46:30Z</time></trkpt><trkpt lat="46.19084086885399" lon="12.561256022040011"><ele>409.0</ele><time>2026-04-23T11:46:31Z</time></trkpt><trkpt lat="46.19085672334789" lon="12.561114450050999"><ele>409.0</ele><time>2026-04-23T11:46:32Z</time></trkpt><trkpt lat="46.19085829802958" lon="12.5609701664621"><ele>409.0</ele><time>2026-04-23T11:46:33Z</time></trkpt><trkpt lat="46.19086176170915" lon="12.56082667118507"><ele>409.0</ele><time>2026-04-23T11:46:34Z</time></trkpt><trkpt lat="46.190848291235866" lon="12.56068787965746"><ele>409.79999999999995</ele><time>2026-04-23T11:46:35Z</time></trkpt><trkpt lat="46.19086484234136" lon="12.560546944873934"><ele>410.59999999999997</ele><time>2026-04-23T11:46:36Z</time></trkpt><trkpt lat="46.19086401724933" lon="12.560402459181505"><ele>411.4</ele><time>2026-04-23T11:46:37Z</time></trkpt><trkpt lat="46.19084975457121" lon="12.560261921321064"><ele>412.2</ele><time>2026-04-23T11:46:38Z</time></trkpt><trkpt lat="46.1908464195884" lon="12.56011444838637"><ele>413.0</ele><time>2026-04-23T11:46:39Z</time></trkpt><trkpt lat="46.19083095858996" lon="12.559974538676691"><ele>412.79999999999995</ele><time>2026-04-23T11:46:40Z</time></trkpt><trkpt lat="46.190815194362955" lon="12.559829652957937"><ele>412.6</ele><time>2026-04-23T11:46:41Z</time></trkpt><trkpt lat="46.19080766846591" lon="12.559682430036512"><ele>412.4</ele><time>2026-04-23T11:46:42Z</time></trkpt><trkpt lat="46.19077569854068" lon="12.559538670642757"><ele>412.20000000000005</ele><time>2026-04-23T11:46:43Z</time></trkpt><trkpt lat="46.19076777387177" lon="12.559396813658726"><ele>412.0</ele><time>2026-04-23T11:46:44Z</time></trkpt><trkpt lat="46.19078692912215" lon="12.559261045816715"><ele>412.0</ele><time>2026-04-23T11:46:45Z</time></trkpt><trkpt lat="46.19079760283282" lon="12.559122638989109"><ele>412.0</ele><time>2026-04-23T11:46:46Z</time></trkpt><trkpt lat="46.19077369910339" lon="12.558979374177662"><ele>412.0</ele><time>2026-04-23T11:46:47Z</time></trkpt><trkpt lat="46.190754231769" lon="12.558823892644149"><ele>412.0</ele><time>2026-04-23T11:46:48Z</time></trkpt><trkpt lat="46.190721738437844" lon="12.558658253935434"><ele>412.0</ele><time>2026-04-23T11:46:49Z</time></trkpt><trkpt lat="46.19068720388766" lon="12.558498674367897"><ele>412.20000000000005</ele><time>2026-04-23T11:46:50Z</time></trkpt><trkpt lat="46.190663321235256" lon="12.558335552767806"><ele>412.4</ele><time>2026-04-23T11:46:51Z</time></trkpt><trkpt lat="46.1906831282644" lon="12.55818044459189"><ele>412.6</ele><time>2026-04-23T11:46:52Z</time></trkpt><trkpt lat="46.19066085069956" lon="12.558028859642258"><ele>412.79999999999995</ele><time>2026-04-23T11:46:53Z</time></trkpt><trkpt lat="46.190669138654854" lon="12.557879012415887"><ele>413.0</ele><time>2026-04-23T11:46:54Z</time></trkpt><trkpt lat="46.19068530315604" lon="12.55772885083701"><ele>413.2</ele><time>2026-04-23T11:46:55Z</time></trkpt><trkpt lat="46.19068480698951" lon="12.557579999261195"><ele>413.4</ele><time>2026-04-23T11:46:56Z</time></trkpt><trkpt lat="46.19066182683905" lon="12.557431698919702"><ele>413.59999999999997</ele><time>2026-04-23T11:46:57Z</time></trkpt><trkpt lat="46.19062109935332" lon="12.557285170971898"><ele>413.79999999999995</ele><time>2026-04-23T11:46:58Z</time></trkpt><trkpt lat="46.19060991466857" lon="12.557130327910263"><ele>414.0</ele><time>2026-04-23T11:46:59Z</time></trkpt><trkpt lat="46.19060057244311" lon="12.556974157015933"><ele>410.25</ele><time>2026-04-23T11:47:00Z</time></trkpt><trkpt lat="46.19057977516358" lon="12.556808317939163"><ele>406.5</ele><time>2026-04-23T11:47:01Z</time></trkpt><trkpt lat="46.19056165803455" lon="12.556657301393026"><ele>402.75</ele><time>2026-04-23T11:47:02Z</time></trkpt><trkpt lat="46.19054288841938" lon="12.556496142090896"><ele>399.0</ele><time>2026-04-23T11:47:03Z</time></trkpt><trkpt lat="46.190525520902206" lon="12.556328408514899"><ele>399.0</ele><time>2026-04-23T11:47:04Z</time></trkpt><trkpt lat="46.19050887627411" lon="12.55616765636026"><ele>399.0</ele><time>2026-04-23T11:47:05Z</time></trkpt><trkpt lat="46.19049349105921" lon="12.556013841273653"><ele>399.0</ele><time>2026-04-23T11:47:06Z</time></trkpt><trkpt lat="46.19047726666683" lon="12.555846782355458"><ele>399.0</ele><time>2026-04-23T11:47:07Z</time></trkpt><trkpt lat="46.1904600507466" lon="12.5556695139186"><ele>399.0</ele><time>2026-04-23T11:47:08Z</time></trkpt><trkpt lat="46.19044446555084" lon="12.55549131304029"><ele>399.0</ele><time>2026-04-23T11:47:09Z</time></trkpt><trkpt lat="46.19042915358311" lon="12.555313400426243"><ele>399.0</ele><time>2026-04-23T11:47:10Z</time></trkpt><trkpt lat="46.19041408453691" lon="12.555134409092132"><ele>399.0</ele><time>2026-04-23T11:47:11Z</time></trkpt><trkpt lat="46.19040008742927" lon="12.554958259543858"><ele>398.75</ele><time>2026-04-23T11:47:12Z</time></trkpt><trkpt lat="46.1903846569724" lon="12.554778797802344"><ele>398.5</ele><time>2026-04-23T11:47:13Z</time></trkpt><trkpt lat="46.19036812186817" lon="12.554591610494386"><ele>398.25</ele><time>2026-04-23T11:47:14Z</time></trkpt><trkpt lat="46.19035141219449" lon="12.55440703963604"><ele>398.0</ele><time>2026-04-23T11:47:15Z</time></trkpt><trkpt lat="46.19031861349745" lon="12.55422211492952"><ele>398.5</ele><time>2026-04-23T11:47:16Z</time></trkpt><trkpt lat="46.19029991363868" lon="12.55403176315651"><ele>399.0</ele><time>2026-04-23T11:47:17Z</time></trkpt><trkpt lat="46.19029823486169" lon="12.553836552560654"><ele>399.5</ele><time>2026-04-23T11:47:17.999Z</time></trkpt><trkpt lat="46.19028051504244" lon="12.55364607075077"><ele>400.0</ele><time>2026-04-23T11:47:18.999Z</time></trkpt><trkpt lat="46.19026264315884" lon="12.553453954227123"><ele>401.0</ele><time>2026-04-23T11:47:19.999Z</time></trkpt><trkpt lat="46.190244620809246" lon="12.553260220256954"><ele>402.0</ele><time>2026-04-23T11:47:20.999Z</time></trkpt><trkpt lat="46.190225237013976" lon="12.553066294546236"><ele>403.0</ele><time>2026-04-23T11:47:21.999Z</time></trkpt><trkpt lat="46.190205516085264" lon="12.55287301354883"><ele>404.0</ele><time>2026-04-23T11:47:22.999Z</time></trkpt><trkpt lat="46.1901847793251" lon="12.55268067409024"><ele>404.5</ele><time>2026-04-23T11:47:23.999Z</time></trkpt><trkpt lat="46.19016372874944" lon="12.552485423862189"><ele>405.0</ele><time>2026-04-23T11:47:24.999Z</time></trkpt><trkpt lat="46.190142300206674" lon="12.552290375824537"><ele>405.5</ele><time>2026-04-23T11:47:25.999Z</time></trkpt><trkpt lat="46.1901197483709" lon="12.552092449010546"><ele>406.0</ele><time>2026-04-23T11:47:26.999Z</time></trkpt><trkpt lat="46.190096933509984" lon="12.551892213761782"><ele>407.0</ele><time>2026-04-23T11:47:27.999Z</time></trkpt><trkpt lat="46.19007420157307" lon="12.551692717187446"><ele>408.0</ele><time>2026-04-23T11:47:28.999Z</time></trkpt><trkpt lat="46.19002792799372" lon="12.551497252159521"><ele>409.0</ele><time>2026-04-23T11:47:29.999Z</time></trkpt><trkpt lat="46.19001214499784" lon="12.55131006428865"><ele>410.0</ele><time>2026-04-23T11:47:30.999Z</time></trkpt><trkpt lat="46.190005091052974" lon="12.551132665953022"><ele>410.0</ele><time>2026-04-23T11:47:31.999Z</time></trkpt><trkpt lat="46.19001829391658" lon="12.550937721910657"><ele>410.0</ele><time>2026-04-23T11:47:32.999Z</time></trkpt><trkpt lat="46.19004305617193" lon="12.55074455125456"><ele>410.0</ele><time>2026-04-23T11:47:33.999Z</time></trkpt><trkpt lat="46.190082643545495" lon="12.550540912185804"><ele>410.0</ele><time>2026-04-23T11:47:34.999Z</time></trkpt><trkpt lat="46.19014984786489" lon="12.550325200449523"><ele>408.66666666666663</ele><time>2026-04-23T11:47:35.999Z</time></trkpt><trkpt lat="46.19016381326855" lon="12.550068552693133"><ele>407.33333333333337</ele><time>2026-04-23T11:47:36.999Z</time></trkpt><trkpt lat="46.19017648475336" lon="12.549770767718885"><ele>406.0</ele><time>2026-04-23T11:47:37.999Z</time></trkpt><trkpt lat="46.190164141471165" lon="12.549489615053142"><ele>405.6666666666667</ele><time>2026-04-23T11:47:38.999Z</time></trkpt><trkpt lat="46.1901451327186" lon="12.54923149425253"><ele>405.33333333333337</ele><time>2026-04-23T11:47:39.999Z</time></trkpt><trkpt lat="46.190186109571314" lon="12.548984674678897"><ele>405.0</ele><time>2026-04-23T11:47:40.999Z</time></trkpt><trkpt lat="46.19022242035736" lon="12.548738629301852"><ele>404.66666666666663</ele><time>2026-04-23T11:47:41.999Z</time></trkpt><trkpt lat="46.190265020874136" lon="12.548490459498483"><ele>404.3333333333333</ele><time>2026-04-23T11:47:42.999Z</time></trkpt><trkpt lat="46.19030560936763" lon="12.548251523514537"><ele>404.0</ele><time>2026-04-23T11:47:43.999Z</time></trkpt><trkpt lat="46.190332593664536" lon="12.548037646072753"><ele>402.0</ele><time>2026-04-23T11:47:44.999Z</time></trkpt><trkpt lat="46.190398757597" lon="12.547865312404037"><ele>400.0</ele><time>2026-04-23T11:47:45.999Z</time></trkpt><trkpt lat="46.19050899213049" lon="12.54770611416093"><ele>398.0</ele><time>2026-04-23T11:47:46.999Z</time></trkpt><trkpt lat="46.19061967583077" lon="12.547509244441695"><ele>401.0</ele><time>2026-04-23T11:47:47.999Z</time></trkpt><trkpt lat="46.19072111209197" lon="12.547299951118157"><ele>404.0</ele><time>2026-04-23T11:47:48.999Z</time></trkpt><trkpt lat="46.19079076599913" lon="12.547079089802"><ele>407.0</ele><time>2026-04-23T11:47:49.999Z</time></trkpt><trkpt lat="46.19083315697788" lon="12.546876520904567"><ele>407.0</ele><time>2026-04-23T11:47:50.999Z</time></trkpt><trkpt lat="46.19089589699973" lon="12.546708870222677"><ele>407.0</ele><time>2026-04-23T11:47:51.999Z</time></trkpt><trkpt lat="46.19100477628223" lon="12.54656576703307"><ele>407.0</ele><time>2026-04-23T11:47:52.999Z</time></trkpt><trkpt lat="46.191135125241594" lon="12.54643886886313"><ele>407.0</ele><time>2026-04-23T11:47:53.999Z</time></trkpt><trkpt lat="46.19127269515157" lon="12.546287829752183"><ele>406.3333333333333</ele><time>2026-04-23T11:47:54.999Z</time></trkpt><trkpt lat="46.19143728926109" lon="12.546189287001988"><ele>405.66666666666663</ele><time>2026-04-23T11:47:55.999Z</time></trkpt><trkpt lat="46.191589066952204" lon="12.546102595041077"><ele>405.0</ele><time>2026-04-23T11:47:56.999Z</time></trkpt><trkpt lat="46.19173986236324" lon="12.546014188609194"><ele>405.0</ele><time>2026-04-23T11:47:57.999Z</time></trkpt><trkpt lat="46.19190531837171" lon="12.545994605622877"><ele>405.0</ele><time>2026-04-23T11:47:58.999Z</time></trkpt><trkpt lat="46.19206759735462" lon="12.545946345142571"><ele>405.0</ele><time>2026-04-23T11:47:59.999Z</time></trkpt><trkpt lat="46.192224671538355" lon="12.545827236691988"><ele>412.66666666666663</ele><time>2026-04-23T11:48:00.999Z</time></trkpt><trkpt lat="46.19239762087539" lon="12.54574657875405"><ele>420.3333333333333</ele><time>2026-04-23T11:48:01.999Z</time></trkpt><trkpt lat="46.192561157219934" lon="12.54565504072575"><ele>428.0</ele><time>2026-04-23T11:48:02.999Z</time></trkpt><trkpt lat="46.192713046843" lon="12.545567564081455"><ele>428.0</ele><time>2026-04-23T11:48:03.999Z</time></trkpt><trkpt lat="46.192854987376386" lon="12.545455727572675"><ele>428.0</ele><time>2026-04-23T11:48:05Z</time></trkpt><trkpt lat="46.1929879151217" lon="12.54528801756367"><ele>428.0</ele><time>2026-04-23T11:48:06Z</time></trkpt><trkpt lat="46.193122074200964" lon="12.545108862233484"><ele>428.0</ele><time>2026-04-23T11:48:07Z</time></trkpt><trkpt lat="46.19325620573558" lon="12.544933868217736"><ele>428.0</ele><time>2026-04-23T11:48:08Z</time></trkpt><trkpt lat="46.19338258732826" lon="12.544768138878535"><ele>428.0</ele><time>2026-04-23T11:48:09Z</time></trkpt><trkpt lat="46.193509859421525" lon="12.544588378434295"><ele>422.0</ele><time>2026-04-23T11:48:10Z</time></trkpt><trkpt lat="46.19361091205161" lon="12.54436128263677"><ele>416.0</ele><time>2026-04-23T11:48:11Z</time></trkpt><trkpt lat="46.1936890157429" lon="12.54410824582983"><ele>410.0</ele><time>2026-04-23T11:48:12Z</time></trkpt><trkpt lat="46.19376791837234" lon="12.54385422041216"><ele>411.0</ele><time>2026-04-23T11:48:13Z</time></trkpt><trkpt lat="46.19384728953005" lon="12.543604268452844"><ele>412.0</ele><time>2026-04-23T11:48:14Z</time></trkpt><trkpt lat="46.19391925918133" lon="12.543377539063728"><ele>413.0</ele><time>2026-04-23T11:48:15Z</time></trkpt><trkpt lat="46.193983292514794" lon="12.543168822882622"><ele>412.0</ele><time>2026-04-23T11:48:16Z</time></trkpt><trkpt lat="46.19402746218267" lon="12.542984810496613"><ele>411.0</ele><time>2026-04-23T11:48:17Z</time></trkpt><trkpt lat="46.19408656747918" lon="12.542838430760055"><ele>410.0</ele><time>2026-04-23T11:48:18Z</time></trkpt><trkpt lat="46.194185147138064" lon="12.542706546350542"><ele>409.0</ele><time>2026-04-23T11:48:19Z</time></trkpt><trkpt lat="46.19429944042691" lon="12.542594723220178"><ele>409.0</ele><time>2026-04-23T11:48:20Z</time></trkpt><trkpt lat="46.19438820828121" lon="12.542457668768568"><ele>409.0</ele><time>2026-04-23T11:48:21Z</time></trkpt><trkpt lat="46.194452602484695" lon="12.542281739507908"><ele>409.0</ele><time>2026-04-23T11:48:22Z</time></trkpt><trkpt lat="46.19452701568554" lon="12.54210101681993"><ele>409.0</ele><time>2026-04-23T11:48:23Z</time></trkpt><trkpt lat="46.19458962014306" lon="12.541898349514607"><ele>411.0</ele><time>2026-04-23T11:48:24Z</time></trkpt><trkpt lat="46.19465258699963" lon="12.54168723635639"><ele>413.0</ele><time>2026-04-23T11:48:25Z</time></trkpt><trkpt lat="46.194700710426815" lon="12.541460845443165"><ele>415.0</ele><time>2026-04-23T11:48:26Z</time></trkpt><trkpt lat="46.19476426587046" lon="12.541234787053359"><ele>416.0</ele><time>2026-04-23T11:48:27Z</time></trkpt><trkpt lat="46.194824349874914" lon="12.541004596705703"><ele>417.0</ele><time>2026-04-23T11:48:28Z</time></trkpt><trkpt lat="46.19488941387459" lon="12.540768804593764"><ele>418.0</ele><time>2026-04-23T11:48:29Z</time></trkpt><trkpt lat="46.194919241503676" lon="12.54051184001133"><ele>416.6666666666667</ele><time>2026-04-23T11:48:30Z</time></trkpt><trkpt lat="46.19495118720575" lon="12.540252730228369"><ele>415.33333333333337</ele><time>2026-04-23T11:48:31Z</time></trkpt><trkpt lat="46.1949835968701" lon="12.539989880061752"><ele>414.0</ele><time>2026-04-23T11:48:32Z</time></trkpt><trkpt lat="46.19502101359183" lon="12.53972369081631"><ele>413.66666666666663</ele><time>2026-04-23T11:48:33Z</time></trkpt><trkpt lat="46.19506691968049" lon="12.539464873923858"><ele>413.3333333333333</ele><time>2026-04-23T11:48:34Z</time></trkpt><trkpt lat="46.19511762040004" lon="12.539204783126316"><ele>413.0</ele><time>2026-04-23T11:48:35Z</time></trkpt><trkpt lat="46.19515809641537" lon="12.538940730580439"><ele>412.3333333333333</ele><time>2026-04-23T11:48:36Z</time></trkpt><trkpt lat="46.195214502828755" lon="12.538679573962094"><ele>411.66666666666663</ele><time>2026-04-23T11:48:37Z</time></trkpt><trkpt lat="46.195270870575584" lon="12.538418905838446"><ele>411.0</ele><time>2026-04-23T11:48:38Z</time></trkpt><trkpt lat="46.19533339537943" lon="12.538155059635535"><ele>411.0</ele><time>2026-04-23T11:48:39Z</time></trkpt><trkpt lat="46.1954055511134" lon="12.53789478133793"><ele>411.0</ele><time>2026-04-23T11:48:40Z</time></trkpt><trkpt lat="46.19547998706584" lon="12.53764881640581"><ele>411.0</ele><time>2026-04-23T11:48:41Z</time></trkpt><trkpt lat="46.19555363362662" lon="12.537430524601318"><ele>411.33333333333337</ele><time>2026-04-23T11:48:42Z</time></trkpt><trkpt lat="46.19564755111387" lon="12.537231948510883"><ele>411.6666666666667</ele><time>2026-04-23T11:48:43Z</time></trkpt><trkpt lat="46.19576087917798" lon="12.537041359422417"><ele>412.0</ele><time>2026-04-23T11:48:44Z</time></trkpt><trkpt lat="46.19586310161444" lon="12.536835934572817"><ele>411.33333333333337</ele><time>2026-04-23T11:48:45Z</time></trkpt><trkpt lat="46.1959412475681" lon="12.5365889533764"><ele>410.66666666666663</ele><time>2026-04-23T11:48:46Z</time></trkpt><trkpt lat="46.19600217034473" lon="12.536310518061567"><ele>410.0</ele><time>2026-04-23T11:48:47Z</time></trkpt><trkpt lat="46.19607382050815" lon="12.536032932085245"><ele>410.0</ele><time>2026-04-23T11:48:48Z</time></trkpt><trkpt lat="46.19610970737734" lon="12.535736375914857"><ele>410.0</ele><time>2026-04-23T11:48:49Z</time></trkpt><trkpt lat="46.1961654620194" lon="12.535448153708568"><ele>410.0</ele><time>2026-04-23T11:48:50Z</time></trkpt><trkpt lat="46.19622005363164" lon="12.535164066122052"><ele>412.3333333333333</ele><time>2026-04-23T11:48:51Z</time></trkpt><trkpt lat="46.19627720767917" lon="12.534877879175129"><ele>414.66666666666663</ele><time>2026-04-23T11:48:52Z</time></trkpt><trkpt lat="46.19633269014489" lon="12.534599839960842"><ele>417.0</ele><time>2026-04-23T11:48:53Z</time></trkpt><trkpt lat="46.19638818913086" lon="12.534334954748365"><ele>416.33333333333337</ele><time>2026-04-23T11:48:54Z</time></trkpt><trkpt lat="46.19645055085591" lon="12.534079412019798"><ele>415.6666666666667</ele><time>2026-04-23T11:48:55Z</time></trkpt><trkpt lat="46.19652449665111" lon="12.533840130564982"><ele>415.0</ele><time>2026-04-23T11:48:56Z</time></trkpt><trkpt lat="46.196617136798125" lon="12.533625900763719"><ele>415.0</ele><time>2026-04-23T11:48:57Z</time></trkpt><trkpt lat="46.196740040577055" lon="12.533428521976147"><ele>415.0</ele><time>2026-04-23T11:48:58Z</time></trkpt><trkpt lat="46.196888128724034" lon="12.533248657914342"><ele>415.0</ele><time>2026-04-23T11:48:59Z</time></trkpt><trkpt lat="46.19705225572144" lon="12.533079195445982"><ele>415.0</ele><time>2026-04-23T11:49:00Z</time></trkpt><trkpt lat="46.19722175108429" lon="12.532911924973908"><ele>415.0</ele><time>2026-04-23T11:49:01Z</time></trkpt><trkpt lat="46.19740095491547" lon="12.532761186337032"><ele>415.0</ele><time>2026-04-23T11:49:02Z</time></trkpt><trkpt lat="46.19759030381365" lon="12.532624623862997"><ele>412.6666666666667</ele><time>2026-04-23T11:49:03Z</time></trkpt><trkpt lat="46.19778248729461" lon="12.53248118690329"><ele>410.33333333333337</ele><time>2026-04-23T11:49:04Z</time></trkpt><trkpt lat="46.19797129769247" lon="12.532333430146751"><ele>408.0</ele><time>2026-04-23T11:49:05Z</time></trkpt><trkpt lat="46.19815384381729" lon="12.532189572446564"><ele>412.0</ele><time>2026-04-23T11:49:06Z</time></trkpt><trkpt lat="46.19833970781272" lon="12.53205333702615"><ele>416.0</ele><time>2026-04-23T11:49:07Z</time></trkpt><trkpt lat="46.198500439146805" lon="12.531855711902088"><ele>420.0</ele><time>2026-04-23T11:49:08Z</time></trkpt><trkpt lat="46.198656361418635" lon="12.531672868984042"><ele>420.0</ele><time>2026-04-23T11:49:09Z</time></trkpt><trkpt lat="46.198798911771064" lon="12.531498347558648"><ele>420.0</ele><time>2026-04-23T11:49:10Z</time></trkpt><trkpt lat="46.19894393079202" lon="12.531344301554752"><ele>420.0</ele><time>2026-04-23T11:49:11Z</time></trkpt><trkpt lat="46.19906539478312" lon="12.531143592872494"><ele>420.0</ele><time>2026-04-23T11:49:12Z</time></trkpt><trkpt lat="46.19915745942753" lon="12.530908112474531"><ele>420.0</ele><time>2026-04-23T11:49:13Z</time></trkpt><trkpt lat="46.19922659483588" lon="12.53065113152588"><ele>420.0</ele><time>2026-04-23T11:49:14Z</time></trkpt><trkpt lat="46.19927940752219" lon="12.530378856957782"><ele>420.66666666666663</ele><time>2026-04-23T11:49:15Z</time></trkpt><trkpt lat="46.19932421978995" lon="12.53009562087563"><ele>421.3333333333333</ele><time>2026-04-23T11:49:16Z</time></trkpt><trkpt lat="46.1993589119291" lon="12.529807019790846"><ele>422.0</ele><time>2026-04-23T11:49:17Z</time></trkpt><trkpt lat="46.1993815039046" lon="12.529510795183738"><ele>422.0</ele><time>2026-04-23T11:49:18Z</time></trkpt><trkpt lat="46.199375531235866" lon="12.529212488203738"><ele>422.0</ele><time>2026-04-23T11:49:19Z</time></trkpt><trkpt lat="46.19937195175035" lon="12.528907179240141"><ele>422.0</ele><time>2026-04-23T11:49:20Z</time></trkpt><trkpt lat="46.19937687045447" lon="12.528585488049776"><ele>422.0</ele><time>2026-04-23T11:49:21Z</time></trkpt><trkpt lat="46.19938908064315" lon="12.528247325769192"><ele>422.0</ele><time>2026-04-23T11:49:22Z</time></trkpt><trkpt lat="46.199402691026165" lon="12.52793241334633"><ele>420.3333333333333</ele><time>2026-04-23T11:49:22.999Z</time></trkpt><trkpt lat="46.199415102981824" lon="12.527637198550744"><ele>418.66666666666663</ele><time>2026-04-23T11:49:23.999Z</time></trkpt><trkpt lat="46.199437042314365" lon="12.527355794237014"><ele>417.0</ele><time>2026-04-23T11:49:24.999Z</time></trkpt><trkpt lat="46.19941073834403" lon="12.527075638676411"><ele>417.66666666666663</ele><time>2026-04-23T11:49:25.999Z</time></trkpt><trkpt lat="46.199360850984526" lon="12.526821457138018"><ele>418.3333333333333</ele><time>2026-04-23T11:49:26.999Z</time></trkpt><trkpt lat="46.199311546366154" lon="12.526585622096297"><ele>419.0</ele><time>2026-04-23T11:49:27.999Z</time></trkpt><trkpt lat="46.199273714210385" lon="12.526364743538005"><ele>420.0</ele><time>2026-04-23T11:49:28.999Z</time></trkpt><trkpt lat="46.19925075725973" lon="12.526151519990336"><ele>421.0</ele><time>2026-04-23T11:49:29.999Z</time></trkpt><trkpt lat="46.19928160857333" lon="12.525950884441537"><ele>422.0</ele><time>2026-04-23T11:49:30.999Z</time></trkpt><trkpt lat="46.19934887351194" lon="12.525778748447086"><ele>423.0</ele><time>2026-04-23T11:49:31.999Z</time></trkpt><trkpt lat="46.199448754696775" lon="12.525627207391347"><ele>423.0</ele><time>2026-04-23T11:49:32.999Z</time></trkpt><trkpt lat="46.19956368646108" lon="12.525500061024063"><ele>423.0</ele><time>2026-04-23T11:49:33.999Z</time></trkpt><trkpt lat="46.19967144884933" lon="12.525382492087587"><ele>423.0</ele><time>2026-04-23T11:49:34.999Z</time></trkpt><trkpt lat="46.19977424550703" lon="12.525259312324893"><ele>423.0</ele><time>2026-04-23T11:49:35.999Z</time></trkpt><trkpt lat="46.199863796462886" lon="12.525123399034621"><ele>424.5</ele><time>2026-04-23T11:49:36.999Z</time></trkpt><trkpt lat="46.19993272096789" lon="12.52497124504596"><ele>426.0</ele><time>2026-04-23T11:49:37.999Z</time></trkpt><trkpt lat="46.19997420416603" lon="12.524801613091961"><ele>427.5</ele><time>2026-04-23T11:49:38.999Z</time></trkpt><trkpt lat="46.20001895848724" lon="12.524629098484674"><ele>429.0</ele><time>2026-04-23T11:49:39.999Z</time></trkpt><trkpt lat="46.20006348190647" lon="12.524458591093723"><ele>429.0</ele><time>2026-04-23T11:49:40.999Z</time></trkpt><trkpt lat="46.20010154857605" lon="12.524289943893292"><ele>429.0</ele><time>2026-04-23T11:49:41.999Z</time></trkpt><trkpt lat="46.20013130105083" lon="12.52412390085243"><ele>429.0</ele><time>2026-04-23T11:49:42.999Z</time></trkpt><trkpt lat="46.20016882906399" lon="12.523954728704947"><ele>429.0</ele><time>2026-04-23T11:49:43.999Z</time></trkpt><trkpt lat="46.20018864744119" lon="12.52378214345358"><ele>429.0</ele><time>2026-04-23T11:49:44.999Z</time></trkpt><trkpt lat="46.20021014895936" lon="12.523613246965558"><ele>429.0</ele><time>2026-04-23T11:49:45.999Z</time></trkpt><trkpt lat="46.20023036511808" lon="12.523448037754594"><ele>429.0</ele><time>2026-04-23T11:49:46.999Z</time></trkpt><trkpt lat="46.20023319212493" lon="12.523281873591776"><ele>429.0</ele><time>2026-04-23T11:49:47.999Z</time></trkpt><trkpt lat="46.20025268854133" lon="12.523124063287641"><ele>429.0</ele><time>2026-04-23T11:49:48.999Z</time></trkpt><trkpt lat="46.20027257731876" lon="12.522959906703154"><ele>429.0</ele><time>2026-04-23T11:49:49.999Z</time></trkpt><trkpt lat="46.20029432314594" lon="12.522788129977387"><ele>429.0</ele><time>2026-04-23T11:49:50.999Z</time></trkpt><trkpt lat="46.200319363446816" lon="12.522606353642084"><ele>429.0</ele><time>2026-04-23T11:49:51.999Z</time></trkpt><trkpt lat="46.20035189247411" lon="12.522410691496821"><ele>428.5</ele><time>2026-04-23T11:49:52.999Z</time></trkpt><trkpt lat="46.20038971370712" lon="12.522217883851427"><ele>428.0</ele><time>2026-04-23T11:49:53.999Z</time></trkpt><trkpt lat="46.20042987088011" lon="12.522025963769138"><ele>427.5</ele><time>2026-04-23T11:49:54.999Z</time></trkpt><trkpt lat="46.20046864515845" lon="12.521842598732258"><ele>427.0</ele><time>2026-04-23T11:49:55.999Z</time></trkpt><trkpt lat="46.200507727998435" lon="12.521666900499516"><ele>425.5</ele><time>2026-04-23T11:49:56.999Z</time></trkpt><trkpt lat="46.20054803409202" lon="12.521489202388633"><ele>424.0</ele><time>2026-04-23T11:49:57.999Z</time></trkpt><trkpt lat="46.20058825850708" lon="12.521314429548937"><ele>422.5</ele><time>2026-04-23T11:49:58.999Z</time></trkpt><trkpt lat="46.200628838631104" lon="12.521140898808278"><ele>421.0</ele><time>2026-04-23T11:49:59.999Z</time></trkpt><trkpt lat="46.20066896484829" lon="12.520968825702843"><ele>424.0</ele><time>2026-04-23T11:50:00.999Z</time></trkpt><trkpt lat="46.20070605897289" lon="12.520799571012184"><ele>427.0</ele><time>2026-04-23T11:50:01.999Z</time></trkpt><trkpt lat="46.20074041001455" lon="12.52063261290604"><ele>430.0</ele><time>2026-04-23T11:50:02.999Z</time></trkpt><trkpt lat="46.20077373638283" lon="12.520469425841783"><ele>433.0</ele><time>2026-04-23T11:50:03.999Z</time></trkpt><trkpt lat="46.20080471675127" lon="12.520303658106194"><ele>433.0</ele><time>2026-04-23T11:50:04.999Z</time></trkpt><trkpt lat="46.200837078617454" lon="12.520133326884192"><ele>433.0</ele><time>2026-04-23T11:50:05.999Z</time></trkpt><trkpt lat="46.20087361865339" lon="12.519960472825373"><ele>433.0</ele><time>2026-04-23T11:50:06.999Z</time></trkpt><trkpt lat="46.20091394755608" lon="12.519789266261968"><ele>433.0</ele><time>2026-04-23T11:50:07.999Z</time></trkpt><trkpt lat="46.20096894979247" lon="12.519619531794458"><ele>428.5</ele><time>2026-04-23T11:50:08.999Z</time></trkpt><trkpt lat="46.201046086951145" lon="12.51945057359706"><ele>424.0</ele><time>2026-04-23T11:50:09.999Z</time></trkpt><trkpt lat="46.20124847009728" lon="12.519062160435299"><ele>424.0</ele><time>2026-04-23T11:50:12Z</time></trkpt><trkpt lat="46.201343859333754" lon="12.518863390844038"><ele>424.0</ele><time>2026-04-23T11:50:13Z</time></trkpt><trkpt lat="46.201438407695385" lon="12.518662871400947"><ele>424.0</ele><time>2026-04-23T11:50:14Z</time></trkpt><trkpt lat="46.20153376128288" lon="12.518462864474746"><ele>425.6666666666667</ele><time>2026-04-23T11:50:15Z</time></trkpt><trkpt lat="46.20162784724426" lon="12.51826470663405"><ele>427.33333333333337</ele><time>2026-04-23T11:50:16Z</time></trkpt><trkpt lat="46.201721072213196" lon="12.51806713475294"><ele>429.0</ele><time>2026-04-23T11:50:17Z</time></trkpt><trkpt lat="46.201809548304226" lon="12.517867076819973"><ele>429.0</ele><time>2026-04-23T11:50:18Z</time></trkpt><trkpt lat="46.20189474485903" lon="12.517669471441321"><ele>429.0</ele><time>2026-04-23T11:50:19Z</time></trkpt><trkpt lat="46.201982547516465" lon="12.517473106917418"><ele>429.0</ele><time>2026-04-23T11:50:20Z</time></trkpt><trkpt lat="46.20208052056262" lon="12.517289993357494"><ele>429.0</ele><time>2026-04-23T11:50:21Z</time></trkpt><trkpt lat="46.20218852289938" lon="12.517116038502294"><ele>429.0</ele><time>2026-04-23T11:50:22Z</time></trkpt><trkpt lat="46.202305133816935" lon="12.51695750659507"><ele>429.0</ele><time>2026-04-23T11:50:23Z</time></trkpt><trkpt lat="46.20241768742806" lon="12.516832537115963"><ele>427.0</ele><time>2026-04-23T11:50:24Z</time></trkpt><trkpt lat="46.20252788171091" lon="12.516712524865007"><ele>425.0</ele><time>2026-04-23T11:50:25Z</time></trkpt><trkpt lat="46.20262897882492" lon="12.516561566407074"><ele>423.0</ele><time>2026-04-23T11:50:26Z</time></trkpt><trkpt lat="46.202709960551026" lon="12.516383717219897"><ele>421.0</ele><time>2026-04-23T11:50:27Z</time></trkpt><trkpt lat="46.20278919836054" lon="12.51619742290771"><ele>421.0</ele><time>2026-04-23T11:50:28Z</time></trkpt><trkpt lat="46.20288792608582" lon="12.51603121301482"><ele>421.0</ele><time>2026-04-23T11:50:29Z</time></trkpt><trkpt lat="46.20300874387003" lon="12.515883522076734"><ele>421.0</ele><time>2026-04-23T11:50:30Z</time></trkpt><trkpt lat="46.20314967810759" lon="12.51578811866096"><ele>424.0</ele><time>2026-04-23T11:50:31Z</time></trkpt><trkpt lat="46.20328452257186" lon="12.515663446006043"><ele>427.0</ele><time>2026-04-23T11:50:32Z</time></trkpt><trkpt lat="46.20342082306097" lon="12.51553238812716"><ele>430.0</ele><time>2026-04-23T11:50:33Z</time></trkpt><trkpt lat="46.20354798283568" lon="12.515379408344494"><ele>430.0</ele><time>2026-04-23T11:50:34Z</time></trkpt><trkpt lat="46.20367325873426" lon="12.51521379455049"><ele>430.0</ele><time>2026-04-23T11:50:35Z</time></trkpt><trkpt lat="46.20378828687305" lon="12.515034873751533"><ele>430.0</ele><time>2026-04-23T11:50:36Z</time></trkpt><trkpt lat="46.203897433853825" lon="12.514840425797976"><ele>429.6666666666667</ele><time>2026-04-23T11:50:37Z</time></trkpt><trkpt lat="46.2040076440423" lon="12.514650716217268"><ele>429.33333333333337</ele><time>2026-04-23T11:50:38Z</time></trkpt><trkpt lat="46.20413764012747" lon="12.514485291303759"><ele>429.0</ele><time>2026-04-23T11:50:39Z</time></trkpt><trkpt lat="46.20428974958171" lon="12.514353870318274"><ele>429.0</ele><time>2026-04-23T11:50:40Z</time></trkpt><trkpt lat="46.204441270770005" lon="12.514231042872119"><ele>429.0</ele><time>2026-04-23T11:50:41Z</time></trkpt><trkpt lat="46.204581295618" lon="12.514103086702129"><ele>429.0</ele><time>2026-04-23T11:50:42Z</time></trkpt><trkpt lat="46.20471639476229" lon="12.513973972236833"><ele>435.66666666666663</ele><time>2026-04-23T11:50:43Z</time></trkpt><trkpt lat="46.20485049668613" lon="12.513851712067426"><ele>442.3333333333333</ele><time>2026-04-23T11:50:44Z</time></trkpt><trkpt lat="46.20498953168492" lon="12.513735533545036"><ele>449.0</ele><time>2026-04-23T11:50:45Z</time></trkpt><trkpt lat="46.20513758410997" lon="12.51363432356436"><ele>449.0</ele><time>2026-04-23T11:50:46Z</time></trkpt><trkpt lat="46.20528593126939" lon="12.513546134248156"><ele>449.0</ele><time>2026-04-23T11:50:47Z</time></trkpt><trkpt lat="46.20543882975253" lon="12.513456998196906"><ele>449.0</ele><time>2026-04-23T11:50:48Z</time></trkpt><trkpt lat="46.205593703232914" lon="12.513361348926916"><ele>449.66666666666663</ele><time>2026-04-23T11:50:49Z</time></trkpt><trkpt lat="46.20574786617899" lon="12.51326453965338"><ele>450.33333333333337</ele><time>2026-04-23T11:50:50Z</time></trkpt><trkpt lat="46.20590858426248" lon="12.513178406294736"><ele>451.0</ele><time>2026-04-23T11:50:51Z</time></trkpt><trkpt lat="46.20607563672575" lon="12.513115949957916"><ele>451.0</ele><time>2026-04-23T11:50:52Z</time></trkpt><trkpt lat="46.20624595693723" lon="12.513053066155868"><ele>451.0</ele><time>2026-04-23T11:50:53Z</time></trkpt><trkpt lat="46.206415802563285" lon="12.51297694803572"><ele>451.0</ele><time>2026-04-23T11:50:54Z</time></trkpt><trkpt lat="46.20658776057261" lon="12.512894396411006"><ele>445.33333333333337</ele><time>2026-04-23T11:50:55Z</time></trkpt><trkpt lat="46.20675912385851" lon="12.51280712883063"><ele>439.66666666666663</ele><time>2026-04-23T11:50:56Z</time></trkpt><trkpt lat="46.20692860337724" lon="12.512709483841263"><ele>434.0</ele><time>2026-04-23T11:50:57Z</time></trkpt><trkpt lat="46.20709305435122" lon="12.512595731634576"><ele>434.0</ele><time>2026-04-23T11:50:58Z</time></trkpt><trkpt lat="46.207256756145426" lon="12.512472155053729"><ele>434.0</ele><time>2026-04-23T11:50:59Z</time></trkpt><trkpt lat="46.20742116624942" lon="12.512345586657176"><ele>434.0</ele><time>2026-04-23T11:51:00Z</time></trkpt><trkpt lat="46.207586529796096" lon="12.512214909469018"><ele>435.0</ele><time>2026-04-23T11:51:01Z</time></trkpt><trkpt lat="46.20774663632077" lon="12.512067061852116"><ele>436.0</ele><time>2026-04-23T11:51:02Z</time></trkpt><trkpt lat="46.20790002684148" lon="12.511907773427708"><ele>437.0</ele><time>2026-04-23T11:51:03Z</time></trkpt><trkpt lat="46.20804513366396" lon="12.511753941153755"><ele>445.0</ele><time>2026-04-23T11:51:04Z</time></trkpt><trkpt lat="46.20817984968641" lon="12.511609987083247"><ele>453.0</ele><time>2026-04-23T11:51:05Z</time></trkpt><trkpt lat="46.2083064821301" lon="12.511455859470574"><ele>461.0</ele><time>2026-04-23T11:51:06Z</time></trkpt><trkpt lat="46.208419103195844" lon="12.511276081057039"><ele>453.66666666666663</ele><time>2026-04-23T11:51:07Z</time></trkpt><trkpt lat="46.20852087921277" lon="12.511077993795249"><ele>446.33333333333337</ele><time>2026-04-23T11:51:08Z</time></trkpt><trkpt lat="46.208610710480635" lon="12.510864094553504"><ele>439.0</ele><time>2026-04-23T11:51:09Z</time></trkpt><trkpt lat="46.20870280875588" lon="12.510651008197103"><ele>439.0</ele><time>2026-04-23T11:51:10Z</time></trkpt><trkpt lat="46.20881582519312" lon="12.510457937654639"><ele>439.0</ele><time>2026-04-23T11:51:11Z</time></trkpt><trkpt lat="46.20895340852312" lon="12.510290509210652"><ele>439.0</ele><time>2026-04-23T11:51:12Z</time></trkpt><trkpt lat="46.20910078901818" lon="12.510139904562447"><ele>440.6666666666667</ele><time>2026-04-23T11:51:13Z</time></trkpt><trkpt lat="46.209253656539154" lon="12.51001660549748"><ele>442.33333333333337</ele><time>2026-04-23T11:51:14Z</time></trkpt><trkpt lat="46.20940169719807" lon="12.509903374287438"><ele>444.0</ele><time>2026-04-23T11:51:15Z</time></trkpt><trkpt lat="46.20953269181126" lon="12.509765133923944"><ele>444.0</ele><time>2026-04-23T11:51:16Z</time></trkpt><trkpt lat="46.20964145938603" lon="12.509583481375643"><ele>444.0</ele><time>2026-04-23T11:51:17Z</time></trkpt><trkpt lat="46.209740371053066" lon="12.509401955087535"><ele>444.0</ele><time>2026-04-23T11:51:18Z</time></trkpt><trkpt lat="46.20984202717166" lon="12.509245572881502"><ele>442.25</ele><time>2026-04-23T11:51:18.999Z</time></trkpt><trkpt lat="46.209953853845214" lon="12.50913728530053"><ele>440.5</ele><time>2026-04-23T11:51:19.999Z</time></trkpt><trkpt lat="46.210080586992184" lon="12.509069089970957"><ele>438.75</ele><time>2026-04-23T11:51:20.999Z</time></trkpt><trkpt lat="46.210218791471874" lon="12.50906155003158"><ele>437.0</ele><time>2026-04-23T11:51:21.999Z</time></trkpt><trkpt lat="46.21034860984901" lon="12.509112082495065"><ele>437.0</ele><time>2026-04-23T11:51:22.999Z</time></trkpt><trkpt lat="46.21047188755983" lon="12.509211557906696"><ele>437.0</ele><time>2026-04-23T11:51:23.999Z</time></trkpt><trkpt lat="46.21058999291881" lon="12.509365250119998"><ele>437.0</ele><time>2026-04-23T11:51:24.999Z</time></trkpt><trkpt lat="46.21071108114165" lon="12.509515263771481"><ele>443.3333333333333</ele><time>2026-04-23T11:51:25.999Z</time></trkpt><trkpt lat="46.210887159233735" lon="12.509734054228598"><ele>449.66666666666663</ele><time>2026-04-23T11:51:26.999Z</time></trkpt><trkpt lat="46.21104173839511" lon="12.509930889572233"><ele>456.0</ele><time>2026-04-23T11:51:27.999Z</time></trkpt><trkpt lat="46.211181590549195" lon="12.510089474136429"><ele>456.0</ele><time>2026-04-23T11:51:28.999Z</time></trkpt><trkpt lat="46.2113205522118" lon="12.510256349972039"><ele>456.0</ele><time>2026-04-23T11:51:29.999Z</time></trkpt><trkpt lat="46.21145434189664" lon="12.510423280574093"><ele>456.0</ele><time>2026-04-23T11:51:30.999Z</time></trkpt><trkpt lat="46.21157341083369" lon="12.51060301360901"><ele>453.25</ele><time>2026-04-23T11:51:31.999Z</time></trkpt><trkpt lat="46.21169604919689" lon="12.510784863693017"><ele>450.5</ele><time>2026-04-23T11:51:32.999Z</time></trkpt><trkpt lat="46.21179084895711" lon="12.510944568502016"><ele>447.75</ele><time>2026-04-23T11:51:33.999Z</time></trkpt><trkpt lat="46.21187210379068" lon="12.511072269716703"><ele>445.0</ele><time>2026-04-23T11:51:34.999Z</time></trkpt><trkpt lat="46.21196993594087" lon="12.511167938698758"><ele>445.0</ele><time>2026-04-23T11:51:35.999Z</time></trkpt><trkpt lat="46.21209553792206" lon="12.511217660726714"><ele>445.0</ele><time>2026-04-23T11:51:36.999Z</time></trkpt><trkpt lat="46.21222921323666" lon="12.511211819212612"><ele>445.0</ele><time>2026-04-23T11:51:37.999Z</time></trkpt><trkpt lat="46.21234837784885" lon="12.511124156849192"><ele>445.0</ele><time>2026-04-23T11:51:38.999Z</time></trkpt><trkpt lat="46.212452866922" lon="12.510988033557526"><ele>441.6666666666667</ele><time>2026-04-23T11:51:39.999Z</time></trkpt><trkpt lat="46.212565048211815" lon="12.510832756159118"><ele>438.33333333333337</ele><time>2026-04-23T11:51:40.999Z</time></trkpt><trkpt lat="46.21270698519082" lon="12.510690168978375"><ele>435.0</ele><time>2026-04-23T11:51:41.999Z</time></trkpt><trkpt lat="46.21284131229475" lon="12.510556368475074"><ele>435.0</ele><time>2026-04-23T11:51:42.999Z</time></trkpt><trkpt lat="46.21296583668198" lon="12.510429311119392"><ele>435.0</ele><time>2026-04-23T11:51:43.999Z</time></trkpt><trkpt lat="46.21309874831792" lon="12.510283262082858"><ele>435.0</ele><time>2026-04-23T11:51:44.999Z</time></trkpt><trkpt lat="46.21323294643763" lon="12.510141177527897"><ele>438.66666666666663</ele><time>2026-04-23T11:51:45.999Z</time></trkpt><trkpt lat="46.21336598023951" lon="12.50999458860656"><ele>442.3333333333333</ele><time>2026-04-23T11:51:46.999Z</time></trkpt><trkpt lat="46.21347850691585" lon="12.509821123066367"><ele>446.0</ele><time>2026-04-23T11:51:47.999Z</time></trkpt><trkpt lat="46.21358009704675" lon="12.509587094776814"><ele>444.3333333333333</ele><time>2026-04-23T11:51:48.999Z</time></trkpt><trkpt lat="46.21370608926227" lon="12.509337074371778"><ele>442.66666666666663</ele><time>2026-04-23T11:51:49.999Z</time></trkpt><trkpt lat="46.21384862378115" lon="12.509075090132837"><ele>441.0</ele><time>2026-04-23T11:51:50.999Z</time></trkpt><trkpt lat="46.213998664662604" lon="12.508796636303044"><ele>449.0</ele><time>2026-04-23T11:51:51.999Z</time></trkpt><trkpt lat="46.21414818980809" lon="12.508515896454009"><ele>457.0</ele><time>2026-04-23T11:51:52.999Z</time></trkpt><trkpt lat="46.21429205365437" lon="12.508241700488853"><ele>457.0</ele><time>2026-04-23T11:51:53.999Z</time></trkpt><trkpt lat="46.2144324079402" lon="12.507971705777452"><ele>457.0</ele><time>2026-04-23T11:51:54.999Z</time></trkpt><trkpt lat="46.214563409233314" lon="12.507695443269789"><ele>471.5</ele><time>2026-04-23T11:51:55.999Z</time></trkpt><trkpt lat="46.21468591966353" lon="12.507414377261467"><ele>486.0</ele><time>2026-04-23T11:51:56.999Z</time></trkpt><trkpt lat="46.214801516954694" lon="12.507127118556548"><ele>469.0</ele><time>2026-04-23T11:51:57.999Z</time></trkpt><trkpt lat="46.214913060203166" lon="12.506839259121234"><ele>452.0</ele><time>2026-04-23T11:51:58.999Z</time></trkpt><trkpt lat="46.21501960086452" lon="12.506553149917913"><ele>452.0</ele><time>2026-04-23T11:51:59.999Z</time></trkpt><trkpt lat="46.215115567643345" lon="12.506256629576892"><ele>452.0</ele><time>2026-04-23T11:52:00.999Z</time></trkpt><trkpt lat="46.21519570015726" lon="12.505945914508148"><ele>457.66666666666663</ele><time>2026-04-23T11:52:01.999Z</time></trkpt><trkpt lat="46.215258720559625" lon="12.505664737391578"><ele>463.33333333333337</ele><time>2026-04-23T11:52:02.999Z</time></trkpt><trkpt lat="46.21531371398667" lon="12.505412004876662"><ele>469.0</ele><time>2026-04-23T11:52:03.999Z</time></trkpt><trkpt lat="46.215373229585005" lon="12.505123745431408"><ele>477.5</ele><time>2026-04-23T11:52:04.999Z</time></trkpt><trkpt lat="46.215432076535535" lon="12.504800446246483"><ele>486.0</ele><time>2026-04-23T11:52:05.999Z</time></trkpt><trkpt lat="46.21548257675903" lon="12.50446003701828"><ele>493.5</ele><time>2026-04-23T11:52:06.999Z</time></trkpt><trkpt lat="46.215535599728554" lon="12.50410822042665"><ele>501.0</ele><time>2026-04-23T11:52:07.999Z</time></trkpt><trkpt lat="46.21559568809131" lon="12.503760102418587"><ele>477.0</ele><time>2026-04-23T11:52:08.999Z</time></trkpt><trkpt lat="46.215668372423664" lon="12.503424093677818"><ele>453.0</ele><time>2026-04-23T11:52:09.999Z</time></trkpt><trkpt lat="46.21575456989733" lon="12.50310681079558"><ele>458.0</ele><time>2026-04-23T11:52:10.999Z</time></trkpt><trkpt lat="46.21583053601252" lon="12.502795261782188"><ele>463.0</ele><time>2026-04-23T11:52:11.999Z</time></trkpt><trkpt lat="46.2159077369794" lon="12.502491054990207"><ele>463.0</ele><time>2026-04-23T11:52:12.999Z</time></trkpt><trkpt lat="46.21600715486458" lon="12.502189768808986"><ele>463.0</ele><time>2026-04-23T11:52:13.999Z</time></trkpt><trkpt lat="46.216123664655626" lon="12.50188945061185"><ele>472.0</ele><time>2026-04-23T11:52:14.999Z</time></trkpt><trkpt lat="46.21626059100876" lon="12.501597070916837"><ele>481.0</ele><time>2026-04-23T11:52:16Z</time></trkpt><trkpt lat="46.21640841754388" lon="12.50131648986983"><ele>469.0</ele><time>2026-04-23T11:52:17Z</time></trkpt><trkpt lat="46.21656355262978" lon="12.501047138159384"><ele>457.0</ele><time>2026-04-23T11:52:18Z</time></trkpt><trkpt lat="46.21672249113044" lon="12.50078069034163"><ele>457.0</ele><time>2026-04-23T11:52:19Z</time></trkpt><trkpt lat="46.21687853153747" lon="12.500513399678221"><ele>457.0</ele><time>2026-04-23T11:52:20Z</time></trkpt><trkpt lat="46.21702809117896" lon="12.500244800287241"><ele>468.5</ele><time>2026-04-23T11:52:21Z</time></trkpt><trkpt lat="46.217170106946476" lon="12.499977411361696"><ele>480.0</ele><time>2026-04-23T11:52:22Z</time></trkpt><trkpt lat="46.217295993585445" lon="12.49971702540199"><ele>472.33333333333337</ele><time>2026-04-23T11:52:23Z</time></trkpt><trkpt lat="46.217416359981605" lon="12.499446798767414"><ele>464.6666666666667</ele><time>2026-04-23T11:52:24Z</time></trkpt><trkpt lat="46.217529794589126" lon="12.499166176435272"><ele>457.0</ele><time>2026-04-23T11:52:25Z</time></trkpt><trkpt lat="46.2176397346571" lon="12.498868099654311"><ele>463.5</ele><time>2026-04-23T11:52:26Z</time></trkpt><trkpt lat="46.21773784852252" lon="12.498563203681433"><ele>470.0</ele><time>2026-04-23T11:52:27Z</time></trkpt><trkpt lat="46.21781887129246" lon="12.498248251417367"><ele>470.0</ele><time>2026-04-23T11:52:28Z</time></trkpt><trkpt lat="46.217881092290554" lon="12.497924745096505"><ele>470.0</ele><time>2026-04-23T11:52:29Z</time></trkpt><trkpt lat="46.217938105782686" lon="12.497603636628574"><ele>474.3333333333333</ele><time>2026-04-23T11:52:30Z</time></trkpt><trkpt lat="46.218006702415174" lon="12.497301782565529"><ele>478.66666666666663</ele><time>2026-04-23T11:52:31Z</time></trkpt><trkpt lat="46.21810225406032" lon="12.49701806583198"><ele>483.0</ele><time>2026-04-23T11:52:32Z</time></trkpt><trkpt lat="46.21822830441584" lon="12.496752840975033"><ele>478.66666666666663</ele><time>2026-04-23T11:52:33Z</time></trkpt><trkpt lat="46.21836956830405" lon="12.496513638725613"><ele>474.3333333333333</ele><time>2026-04-23T11:52:34Z</time></trkpt><trkpt lat="46.21853772518099" lon="12.496306092590494"><ele>470.0</ele><time>2026-04-23T11:52:35Z</time></trkpt><trkpt lat="46.218695504727734" lon="12.496105713903807"><ele>470.0</ele><time>2026-04-23T11:52:36Z</time></trkpt><trkpt lat="46.21883153316659" lon="12.495897317993261"><ele>470.0</ele><time>2026-04-23T11:52:37Z</time></trkpt><trkpt lat="46.218953212525776" lon="12.495687115807273"><ele>470.0</ele><time>2026-04-23T11:52:38Z</time></trkpt><trkpt lat="46.21906737093427" lon="12.495481096855036"><ele>466.66666666666663</ele><time>2026-04-23T11:52:39Z</time></trkpt><trkpt lat="46.21918182492191" lon="12.495277894496114"><ele>463.33333333333337</ele><time>2026-04-23T11:52:40Z</time></trkpt><trkpt lat="46.219293155313174" lon="12.495083909469646"><ele>460.0</ele><time>2026-04-23T11:52:41Z</time></trkpt><trkpt lat="46.21940409113198" lon="12.494896718843737"><ele>460.0</ele><time>2026-04-23T11:52:42Z</time></trkpt><trkpt lat="46.21952240398664" lon="12.494718849600725"><ele>460.0</ele><time>2026-04-23T11:52:43Z</time></trkpt><trkpt lat="46.219653765708806" lon="12.494561442067285"><ele>460.0</ele><time>2026-04-23T11:52:44Z</time></trkpt><trkpt lat="46.21979581181575" lon="12.494436391584339"><ele>458.33333333333337</ele><time>2026-04-23T11:52:45Z</time></trkpt><trkpt lat="46.21993699540395" lon="12.49431937615001"><ele>456.66666666666663</ele><time>2026-04-23T11:52:46Z</time></trkpt><trkpt lat="46.22007277294315" lon="12.494185437879759"><ele>455.0</ele><time>2026-04-23T11:52:47Z</time></trkpt><trkpt lat="46.22019387148106" lon="12.494028347731634"><ele>455.0</ele><time>2026-04-23T11:52:48Z</time></trkpt><trkpt lat="46.22029854772035" lon="12.493878792001373"><ele>455.0</ele><time>2026-04-23T11:52:49Z</time></trkpt><trkpt lat="46.220400098860935" lon="12.493745329162754"><ele>455.0</ele><time>2026-04-23T11:52:50Z</time></trkpt><trkpt lat="46.220504273140286" lon="12.493625279361462"><ele>455.0</ele><time>2026-04-23T11:52:51Z</time></trkpt><trkpt lat="46.22061143871333" lon="12.493495975998199"><ele>455.5</ele><time>2026-04-23T11:52:52Z</time></trkpt><trkpt lat="46.22072034635089" lon="12.493365594186045"><ele>456.0</ele><time>2026-04-23T11:52:53Z</time></trkpt><trkpt lat="46.22083460928743" lon="12.493242897008775"><ele>456.5</ele><time>2026-04-23T11:52:54Z</time></trkpt><trkpt lat="46.2209634332937" lon="12.49312718963876"><ele>457.0</ele><time>2026-04-23T11:52:55Z</time></trkpt><trkpt lat="46.22110239313105" lon="12.49303480619642"><ele>457.0</ele><time>2026-04-23T11:52:56Z</time></trkpt><trkpt lat="46.22124532817241" lon="12.492952302229947"><ele>457.0</ele><time>2026-04-23T11:52:57Z</time></trkpt><trkpt lat="46.2213988107083" lon="12.492874794033169"><ele>457.0</ele><time>2026-04-23T11:52:58Z</time></trkpt><trkpt lat="46.221561550786326" lon="12.492781953942366"><ele>461.0</ele><time>2026-04-23T11:52:59Z</time></trkpt><trkpt lat="46.22173015015435" lon="12.492663552746798"><ele>465.0</ele><time>2026-04-23T11:53:00Z</time></trkpt><trkpt lat="46.22190997672321" lon="12.492512902450795"><ele>469.0</ele><time>2026-04-23T11:53:01Z</time></trkpt><trkpt lat="46.22209889021082" lon="12.492354477809481"><ele>469.0</ele><time>2026-04-23T11:53:02Z</time></trkpt><trkpt lat="46.222291185900346" lon="12.492206330120702"><ele>469.0</ele><time>2026-04-23T11:53:03Z</time></trkpt><trkpt lat="46.222470180237835" lon="12.492074148673092"><ele>469.0</ele><time>2026-04-23T11:53:04Z</time></trkpt><trkpt lat="46.22264194088211" lon="12.491935699485133"><ele>473.6666666666667</ele><time>2026-04-23T11:53:05Z</time></trkpt><trkpt lat="46.22281229366885" lon="12.491780860017583"><ele>478.33333333333337</ele><time>2026-04-23T11:53:06Z</time></trkpt><trkpt lat="46.2229573935118" lon="12.49165134763819"><ele>483.0</ele><time>2026-04-23T11:53:07Z</time></trkpt><trkpt lat="46.223110135304886" lon="12.49150016509438"><ele>487.66666666666663</ele><time>2026-04-23T11:53:08Z</time></trkpt><trkpt lat="46.22325525086124" lon="12.491375330719755"><ele>492.3333333333333</ele><time>2026-04-23T11:53:09Z</time></trkpt><trkpt lat="46.22339598708702" lon="12.491244411967877"><ele>497.0</ele><time>2026-04-23T11:53:10Z</time></trkpt><trkpt lat="46.22353458322581" lon="12.491099101917243"><ele>497.0</ele><time>2026-04-23T11:53:11Z</time></trkpt><trkpt lat="46.22367421837493" lon="12.49102007012206"><ele>497.0</ele><time>2026-04-23T11:53:12Z</time></trkpt><trkpt lat="46.223801959533255" lon="12.490883786508917"><ele>497.0</ele><time>2026-04-23T11:53:13Z</time></trkpt><trkpt lat="46.223952414658605" lon="12.490792360729655"><ele>484.66666666666663</ele><time>2026-04-23T11:53:14Z</time></trkpt><trkpt lat="46.22410062659945" lon="12.490711825165988"><ele>472.33333333333337</ele><time>2026-04-23T11:53:15Z</time></trkpt><trkpt lat="46.22421977889935" lon="12.490551226106682"><ele>460.0</ele><time>2026-04-23T11:53:16Z</time></trkpt><trkpt lat="46.22436394087223" lon="12.490513905578702"><ele>460.0</ele><time>2026-04-23T11:53:17Z</time></trkpt><trkpt lat="46.224515913775065" lon="12.490456076289558"><ele>460.0</ele><time>2026-04-23T11:53:18Z</time></trkpt><trkpt lat="46.224608353395894" lon="12.490337226049759"><ele>460.0</ele><time>2026-04-23T11:53:18.999Z</time></trkpt><trkpt lat="46.22475137497887" lon="12.490239707442825"><ele>460.0</ele><time>2026-04-23T11:53:19.999Z</time></trkpt><trkpt lat="46.224908931239604" lon="12.490147907459926"><ele>458.33333333333337</ele><time>2026-04-23T11:53:20.999Z</time></trkpt><trkpt lat="46.22507473346506" lon="12.490061601812425"><ele>456.66666666666663</ele><time>2026-04-23T11:53:21.999Z</time></trkpt><trkpt lat="46.225171402111776" lon="12.489847105454023"><ele>455.0</ele><time>2026-04-23T11:53:22.999Z</time></trkpt><trkpt lat="46.225298721701066" lon="12.489680540036966"><ele>467.5</ele><time>2026-04-23T11:53:23.999Z</time></trkpt><trkpt lat="46.225427702576816" lon="12.489506945526632"><ele>480.0</ele><time>2026-04-23T11:53:24.999Z</time></trkpt><trkpt lat="46.225510913252364" lon="12.489106469710865"><ele>470.66666666666663</ele><time>2026-04-23T11:53:25.999Z</time></trkpt><trkpt lat="46.22566023124553" lon="12.488934141521387"><ele>461.3333333333333</ele><time>2026-04-23T11:53:27.068Z</time></trkpt><trkpt lat="46.22581737888182" lon="12.488791142946962"><ele>452.0</ele><time>2026-04-23T11:53:28.029Z</time></trkpt><trkpt lat="46.226402031929055" lon="12.487921872575255"><ele>458.0</ele><time>2026-04-23T11:53:29.999Z</time></trkpt><trkpt lat="46.22636777839798" lon="12.487697948139488"><ele>464.0</ele><time>2026-04-23T11:53:30.999Z</time></trkpt><trkpt lat="46.226498803029614" lon="12.487502723551442"><ele>470.0</ele><time>2026-04-23T11:53:31.999Z</time></trkpt><trkpt lat="46.22666705140906" lon="12.487298119883505"><ele>470.0</ele><time>2026-04-23T11:53:32.999Z</time></trkpt><trkpt lat="46.226865235446326" lon="12.48712066740588"><ele>470.0</ele><time>2026-04-23T11:53:33.999Z</time></trkpt><trkpt lat="46.22706016684528" lon="12.486951416456039"><ele>471.66666666666663</ele><time>2026-04-23T11:53:34.999Z</time></trkpt><trkpt lat="46.227221459615514" lon="12.486812611885128"><ele>473.33333333333337</ele><time>2026-04-23T11:53:35.999Z</time></trkpt><trkpt lat="46.2273616780429" lon="12.486694854422009"><ele>475.0</ele><time>2026-04-23T11:53:36.999Z</time></trkpt><trkpt lat="46.22750233873232" lon="12.486609274109789"><ele>475.0</ele><time>2026-04-23T11:53:37.999Z</time></trkpt><trkpt lat="46.22765689141236" lon="12.486575321118497"><ele>475.0</ele><time>2026-04-23T11:53:38.999Z</time></trkpt><trkpt lat="46.22785570099962" lon="12.486597288584877"><ele>475.0</ele><time>2026-04-23T11:53:39.999Z</time></trkpt><trkpt lat="46.22802680634752" lon="12.486622543158825"><ele>471.6666666666667</ele><time>2026-04-23T11:53:40.999Z</time></trkpt><trkpt lat="46.228240615802996" lon="12.486589904326479"><ele>468.33333333333337</ele><time>2026-04-23T11:53:41.999Z</time></trkpt><trkpt lat="46.22846333477444" lon="12.48650804298653"><ele>465.0</ele><time>2026-04-23T11:53:42.999Z</time></trkpt><trkpt lat="46.228692823486625" lon="12.48642860157827"><ele>465.0</ele><time>2026-04-23T11:53:43.999Z</time></trkpt><trkpt lat="46.22891326974626" lon="12.486337510562333"><ele>465.0</ele><time>2026-04-23T11:53:44.999Z</time></trkpt><trkpt lat="46.22914034998705" lon="12.486219549992327"><ele>472.0</ele><time>2026-04-23T11:53:45.999Z</time></trkpt><trkpt lat="46.22936340685434" lon="12.48608006308408"><ele>479.0</ele><time>2026-04-23T11:53:46.999Z</time></trkpt><trkpt lat="46.22956834175273" lon="12.485946849395699"><ele>479.0</ele><time>2026-04-23T11:53:47.999Z</time></trkpt><trkpt lat="46.22973417428366" lon="12.485833340154391"><ele>479.0</ele><time>2026-04-23T11:53:48.999Z</time></trkpt><trkpt lat="46.22988167881357" lon="12.485731174073551"><ele>479.0</ele><time>2026-04-23T11:53:49.999Z</time></trkpt><trkpt lat="46.230044021296514" lon="12.485643509077294"><ele>477.3333333333333</ele><time>2026-04-23T11:53:50.999Z</time></trkpt><trkpt lat="46.2302275784625" lon="12.48562207475327"><ele>475.66666666666663</ele><time>2026-04-23T11:53:51.999Z</time></trkpt><trkpt lat="46.23042568113415" lon="12.485637304734553"><ele>474.0</ele><time>2026-04-23T11:53:52.999Z</time></trkpt><trkpt lat="46.23061130447336" lon="12.485672483947727"><ele>474.66666666666663</ele><time>2026-04-23T11:53:53.999Z</time></trkpt><trkpt lat="46.23077623888467" lon="12.485726550394917"><ele>475.3333333333333</ele><time>2026-04-23T11:53:54.999Z</time></trkpt><trkpt lat="46.23092959747072" lon="12.485827080812774"><ele>476.0</ele><time>2026-04-23T11:53:55.999Z</time></trkpt><trkpt lat="46.231088404456706" lon="12.485977632599834"><ele>476.0</ele><time>2026-04-23T11:53:56.999Z</time></trkpt><trkpt lat="46.231256994494" lon="12.48614483603419"><ele>476.0</ele><time>2026-04-23T11:53:57.999Z</time></trkpt><trkpt lat="46.2314336483216" lon="12.486323181687593"><ele>476.0</ele><time>2026-04-23T11:53:58.999Z</time></trkpt><trkpt lat="46.23159578749913" lon="12.486500833840717"><ele>474.66666666666663</ele><time>2026-04-23T11:53:59.999Z</time></trkpt><trkpt lat="46.2317583897399" lon="12.486653007038553"><ele>473.33333333333337</ele><time>2026-04-23T11:54:00.999Z</time></trkpt><trkpt lat="46.231914107632" lon="12.486796351647438"><ele>472.0</ele><time>2026-04-23T11:54:01.999Z</time></trkpt><trkpt lat="46.23206020093711" lon="12.48693353613138"><ele>472.0</ele><time>2026-04-23T11:54:02.999Z</time></trkpt><trkpt lat="46.23221486315993" lon="12.487070711136456"><ele>472.0</ele><time>2026-04-23T11:54:03.999Z</time></trkpt><trkpt lat="46.23235097709174" lon="12.487200421134762"><ele>472.0</ele><time>2026-04-23T11:54:04.999Z</time></trkpt><trkpt lat="46.23248802256613" lon="12.487325335766114"><ele>473.33333333333337</ele><time>2026-04-23T11:54:05.999Z</time></trkpt><trkpt lat="46.23262138254394" lon="12.48745970785568"><ele>474.66666666666663</ele><time>2026-04-23T11:54:06.999Z</time></trkpt><trkpt lat="46.23274777529994" lon="12.48758977779204"><ele>476.0</ele><time>2026-04-23T11:54:07.999Z</time></trkpt><trkpt lat="46.23287551036335" lon="12.487702654562908"><ele>476.0</ele><time>2026-04-23T11:54:08.999Z</time></trkpt><trkpt lat="46.233008077650844" lon="12.48780106844946"><ele>476.0</ele><time>2026-04-23T11:54:09.999Z</time></trkpt><trkpt lat="46.23314578062644" lon="12.487895341125341"><ele>476.0</ele><time>2026-04-23T11:54:10.999Z</time></trkpt><trkpt lat="46.23328693402313" lon="12.487987345893462"><ele>475.0</ele><time>2026-04-23T11:54:11.999Z</time></trkpt><trkpt lat="46.23342502550075" lon="12.48808771816316"><ele>474.0</ele><time>2026-04-23T11:54:12.999Z</time></trkpt><trkpt lat="46.23355754442241" lon="12.488199683273635"><ele>473.0</ele><time>2026-04-23T11:54:13.999Z</time></trkpt><trkpt lat="46.23369172054677" lon="12.488313357678344"><ele>473.0</ele><time>2026-04-23T11:54:14.999Z</time></trkpt><trkpt lat="46.23382755601538" lon="12.488421994985245"><ele>473.0</ele><time>2026-04-23T11:54:15.999Z</time></trkpt><trkpt lat="46.23396542403425" lon="12.488527162885326"><ele>473.0</ele><time>2026-04-23T11:54:16.999Z</time></trkpt><trkpt lat="46.23410856950314" lon="12.488617631178325"><ele>474.75</ele><time>2026-04-23T11:54:17.999Z</time></trkpt><trkpt lat="46.234250575697345" lon="12.488670688837027"><ele>476.5</ele><time>2026-04-23T11:54:18.999Z</time></trkpt><trkpt lat="46.234400568011715" lon="12.488680893763494"><ele>478.25</ele><time>2026-04-23T11:54:19.999Z</time></trkpt><trkpt lat="46.23455114278553" lon="12.488648719110593"><ele>480.0</ele><time>2026-04-23T11:54:20.999Z</time></trkpt><trkpt lat="46.23470782360743" lon="12.48858847614579"><ele>479.66666666666663</ele><time>2026-04-23T11:54:22Z</time></trkpt><trkpt lat="46.23486828681949" lon="12.488525570362723"><ele>479.3333333333333</ele><time>2026-04-23T11:54:23Z</time></trkpt><trkpt lat="46.235032790679185" lon="12.488479092167438"><ele>479.0</ele><time>2026-04-23T11:54:24Z</time></trkpt><trkpt lat="46.23520064420113" lon="12.488458096147657"><ele>479.0</ele><time>2026-04-23T11:54:25Z</time></trkpt><trkpt lat="46.235369607903976" lon="12.488459503582028"><ele>479.0</ele><time>2026-04-23T11:54:26Z</time></trkpt><trkpt lat="46.23553881672431" lon="12.4884648701043"><ele>479.0</ele><time>2026-04-23T11:54:27Z</time></trkpt><trkpt lat="46.23570781496877" lon="12.488480424211687"><ele>481.0</ele><time>2026-04-23T11:54:28Z</time></trkpt><trkpt lat="46.23587593633459" lon="12.48851104954313"><ele>483.0</ele><time>2026-04-23T11:54:29Z</time></trkpt><trkpt lat="46.23604308225272" lon="12.48855047461264"><ele>485.0</ele><time>2026-04-23T11:54:30Z</time></trkpt><trkpt lat="46.23621372023953" lon="12.488586749231503"><ele>485.0</ele><time>2026-04-23T11:54:31Z</time></trkpt><trkpt lat="46.23638178082967" lon="12.4886292656986"><ele>485.0</ele><time>2026-04-23T11:54:32Z</time></trkpt><trkpt lat="46.236533032941686" lon="12.488685932449815"><ele>485.0</ele><time>2026-04-23T11:54:33Z</time></trkpt><trkpt lat="46.23668946848331" lon="12.488734228949262"><ele>488.3333333333333</ele><time>2026-04-23T11:54:34Z</time></trkpt><trkpt lat="46.23686429455351" lon="12.488746517132524"><ele>491.66666666666663</ele><time>2026-04-23T11:54:35Z</time></trkpt><trkpt lat="46.23706021433577" lon="12.488715756975708"><ele>495.0</ele><time>2026-04-23T11:54:36Z</time></trkpt><trkpt lat="46.237255178496234" lon="12.488662679475686"><ele>493.66666666666663</ele><time>2026-04-23T11:54:37Z</time></trkpt><trkpt lat="46.23744087845312" lon="12.48858186323111"><ele>492.3333333333333</ele><time>2026-04-23T11:54:38Z</time></trkpt><trkpt lat="46.23762080210086" lon="12.488466203392601"><ele>491.0</ele><time>2026-04-23T11:54:39Z</time></trkpt><trkpt lat="46.23779865677071" lon="12.48831738164418"><ele>491.0</ele><time>2026-04-23T11:54:40Z</time></trkpt><trkpt lat="46.23797562559412" lon="12.488191002609673"><ele>491.0</ele><time>2026-04-23T11:54:41Z</time></trkpt><trkpt lat="46.23816085814318" lon="12.488109435956634"><ele>491.0</ele><time>2026-04-23T11:54:42Z</time></trkpt><trkpt lat="46.23833691945115" lon="12.48806977140449"><ele>489.0</ele><time>2026-04-23T11:54:43Z</time></trkpt><trkpt lat="46.23850106363984" lon="12.487996798878712"><ele>487.0</ele><time>2026-04-23T11:54:44Z</time></trkpt><trkpt lat="46.238653979668385" lon="12.48787901896772"><ele>485.0</ele><time>2026-04-23T11:54:45Z</time></trkpt><trkpt lat="46.23879247985579" lon="12.487722835037806"><ele>483.66666666666663</ele><time>2026-04-23T11:54:46Z</time></trkpt><trkpt lat="46.23892669923618" lon="12.487526674247452"><ele>482.33333333333337</ele><time>2026-04-23T11:54:47Z</time></trkpt><trkpt lat="46.23908382381027" lon="12.487303083816263"><ele>481.0</ele><time>2026-04-23T11:54:48Z</time></trkpt><trkpt lat="46.23923512929938" lon="12.487077603622954"><ele>490.33333333333337</ele><time>2026-04-23T11:54:49Z</time></trkpt><trkpt lat="46.239370579984396" lon="12.486882493892743"><ele>499.66666666666663</ele><time>2026-04-23T11:54:50Z</time></trkpt><trkpt lat="46.23950141328914" lon="12.486720380790686"><ele>509.0</ele><time>2026-04-23T11:54:51Z</time></trkpt><trkpt lat="46.23962217154685" lon="12.48660402484831"><ele>509.0</ele><time>2026-04-23T11:54:52Z</time></trkpt><trkpt lat="46.23976470325751" lon="12.486531687748123"><ele>509.0</ele><time>2026-04-23T11:54:53Z</time></trkpt><trkpt lat="46.23993876109658" lon="12.486489942462818"><ele>509.0</ele><time>2026-04-23T11:54:54Z</time></trkpt><trkpt lat="46.2401243323493" lon="12.486448917119167"><ele>501.3333333333333</ele><time>2026-04-23T11:54:55Z</time></trkpt><trkpt lat="46.24032639903362" lon="12.486404900434131"><ele>493.66666666666663</ele><time>2026-04-23T11:54:56Z</time></trkpt><trkpt lat="46.24054024206361" lon="12.486365131378495"><ele>486.0</ele><time>2026-04-23T11:54:57Z</time></trkpt><trkpt lat="46.240760899742455" lon="12.486332125641884"><ele>485.0</ele><time>2026-04-23T11:54:58Z</time></trkpt><trkpt lat="46.2409673576903" lon="12.48629893469314"><ele>484.0</ele><time>2026-04-23T11:54:59Z</time></trkpt><trkpt lat="46.24116525614705" lon="12.486268433218893"><ele>483.0</ele><time>2026-04-23T11:55:00Z</time></trkpt><trkpt lat="46.24136342116068" lon="12.486231037791061"><ele>490.0</ele><time>2026-04-23T11:55:01Z</time></trkpt><trkpt lat="46.241534613939415" lon="12.48617117895663"><ele>497.0</ele><time>2026-04-23T11:55:02Z</time></trkpt><trkpt lat="46.241689583376" lon="12.486096718608096"><ele>504.0</ele><time>2026-04-23T11:55:03Z</time></trkpt><trkpt lat="46.24183867408129" lon="12.486019060986361"><ele>504.0</ele><time>2026-04-23T11:55:04Z</time></trkpt><trkpt lat="46.24197909589987" lon="12.485939913617331"><ele>504.0</ele><time>2026-04-23T11:55:05Z</time></trkpt><trkpt lat="46.2421054282967" lon="12.485867744684535"><ele>504.0</ele><time>2026-04-23T11:55:06Z</time></trkpt><trkpt lat="46.24221806623591" lon="12.485803843722369"><ele>504.0</ele><time>2026-04-23T11:55:07Z</time></trkpt><trkpt lat="46.242321488526265" lon="12.485748068547352"><ele>501.4</ele><time>2026-04-23T11:55:08Z</time></trkpt><trkpt lat="46.24241926103487" lon="12.485689789117206"><ele>498.79999999999995</ele><time>2026-04-23T11:55:09Z</time></trkpt><trkpt lat="46.24251966398998" lon="12.485627699740778"><ele>496.20000000000005</ele><time>2026-04-23T11:55:10Z</time></trkpt><trkpt lat="46.2426227359407" lon="12.485567287125653"><ele>493.6</ele><time>2026-04-23T11:55:11Z</time></trkpt><trkpt lat="46.24272466469286" lon="12.48550545958854"><ele>491.0</ele><time>2026-04-23T11:55:12Z</time></trkpt><trkpt lat="46.24282450541139" lon="12.485436778329547"><ele>493.75</ele><time>2026-04-23T11:55:13Z</time></trkpt><trkpt lat="46.24291909104962" lon="12.485347031707164"><ele>496.5</ele><time>2026-04-23T11:55:14Z</time></trkpt><trkpt lat="46.243004746056094" lon="12.48523024182508"><ele>499.25</ele><time>2026-04-23T11:55:15Z</time></trkpt><trkpt lat="46.24308921281782" lon="12.485107449651677"><ele>502.0</ele><time>2026-04-23T11:55:16Z</time></trkpt><trkpt lat="46.24316782699375" lon="12.484989330894003"><ele>502.0</ele><time>2026-04-23T11:55:17Z</time></trkpt><trkpt lat="46.24324535026496" lon="12.484877783603736"><ele>502.00000000000006</ele><time>2026-04-23T11:55:18Z</time></trkpt><trkpt lat="46.243319682445225" lon="12.484761841930355"><ele>502.00000000000006</ele><time>2026-04-23T11:55:19Z</time></trkpt><trkpt lat="46.24338384198472" lon="12.484630181347342"><ele>502.0</ele><time>2026-04-23T11:55:20Z</time></trkpt><trkpt lat="46.24343555679821" lon="12.484486633413622"><ele>502.0</ele><time>2026-04-23T11:55:21Z</time></trkpt><trkpt lat="46.24348285498063" lon="12.484337290138974"><ele>508.0</ele><time>2026-04-23T11:55:22Z</time></trkpt><trkpt lat="46.24353807841459" lon="12.484198174674779"><ele>514.0</ele><time>2026-04-23T11:55:23Z</time></trkpt><trkpt lat="46.243592311901025" lon="12.484066044896636"><ele>520.0</ele><time>2026-04-23T11:55:24Z</time></trkpt><trkpt lat="46.243648945632" lon="12.48393475542633"><ele>526.0</ele><time>2026-04-23T11:55:25Z</time></trkpt><trkpt lat="46.243696715155835" lon="12.483797224665569"><ele>532.0</ele><time>2026-04-23T11:55:26Z</time></trkpt><trkpt lat="46.24373291245654" lon="12.483656389211633"><ele>537.2</ele><time>2026-04-23T11:55:27Z</time></trkpt><trkpt lat="46.24377756498645" lon="12.483514275047254"><ele>542.4000000000001</ele><time>2026-04-23T11:55:28Z</time></trkpt><trkpt lat="46.24379061476895" lon="12.48335197108691"><ele>547.5999999999999</ele><time>2026-04-23T11:55:29Z</time></trkpt><trkpt lat="46.24378421994922" lon="12.4831882762876"><ele>552.8</ele><time>2026-04-23T11:55:30Z</time></trkpt><trkpt lat="46.243791498564995" lon="12.483022653226586"><ele>558.0</ele><time>2026-04-23T11:55:31Z</time></trkpt><trkpt lat="46.24379725622697" lon="12.482853817906301"><ele>559.0</ele><time>2026-04-23T11:55:32Z</time></trkpt><trkpt lat="46.24380445565222" lon="12.482680848053613"><ele>560.0</ele><time>2026-04-23T11:55:33Z</time></trkpt><trkpt lat="46.24382740685067" lon="12.482507238628754"><ele>561.0</ele><time>2026-04-23T11:55:34Z</time></trkpt><trkpt lat="46.243837448580884" lon="12.482331252136204"><ele>562.0</ele><time>2026-04-23T11:55:35Z</time></trkpt><trkpt lat="46.243847284832604" lon="12.482157854986315"><ele>557.75</ele><time>2026-04-23T11:55:36Z</time></trkpt><trkpt lat="46.243856936210946" lon="12.481987716799484"><ele>553.5</ele><time>2026-04-23T11:55:37Z</time></trkpt><trkpt lat="46.24386799791401" lon="12.481822861576523"><ele>549.25</ele><time>2026-04-23T11:55:38Z</time></trkpt><trkpt lat="46.2438797756322" lon="12.48165805824106"><ele>545.0</ele><time>2026-04-23T11:55:39Z</time></trkpt><trkpt lat="46.24389351419006" lon="12.481495732979894"><ele>545.0</ele><time>2026-04-23T11:55:40Z</time></trkpt><trkpt lat="46.24390724098036" lon="12.481333904619806"><ele>545.0</ele><time>2026-04-23T11:55:41Z</time></trkpt><trkpt lat="46.24390541619" lon="12.48117202937692"><ele>545.0</ele><time>2026-04-23T11:55:42Z</time></trkpt><trkpt lat="46.243920080831444" lon="12.481013942674794"><ele>545.0</ele><time>2026-04-23T11:55:43Z</time></trkpt><trkpt lat="46.24395062738747" lon="12.480861182178593"><ele>545.0</ele><time>2026-04-23T11:55:44Z</time></trkpt><trkpt lat="46.243966183292166" lon="12.480706779862558"><ele>538.0</ele><time>2026-04-23T11:55:44.999Z</time></trkpt><trkpt lat="46.243983706158275" lon="12.480553941521089"><ele>531.0</ele><time>2026-04-23T11:55:45.999Z</time></trkpt><trkpt lat="46.244002669529046" lon="12.480403020946458"><ele>524.0</ele><time>2026-04-23T11:55:46.999Z</time></trkpt><trkpt lat="46.2440244109291" lon="12.48025235162514"><ele>517.0</ele><time>2026-04-23T11:55:47.999Z</time></trkpt><trkpt lat="46.244048727702435" lon="12.480097388126767"><ele>510.0</ele><time>2026-04-23T11:55:48.999Z</time></trkpt><trkpt lat="46.24407579430002" lon="12.47993540498742"><ele>510.0</ele><time>2026-04-23T11:55:49.999Z</time></trkpt><trkpt lat="46.24408969718142" lon="12.479765163747329"><ele>510.0</ele><time>2026-04-23T11:55:50.999Z</time></trkpt><trkpt lat="46.244120853940245" lon="12.479601090814148"><ele>510.0</ele><time>2026-04-23T11:55:51.999Z</time></trkpt><trkpt lat="46.24414823987288" lon="12.479437429790131"><ele>510.0</ele><time>2026-04-23T11:55:52.999Z</time></trkpt><trkpt lat="46.24417561671626" lon="12.479274063533463"><ele>512.0</ele><time>2026-04-23T11:55:53.999Z</time></trkpt><trkpt lat="46.24420546413639" lon="12.479113787804181"><ele>514.0</ele><time>2026-04-23T11:55:54.999Z</time></trkpt><trkpt lat="46.24423516941789" lon="12.478956412792268"><ele>516.0</ele><time>2026-04-23T11:55:55.999Z</time></trkpt><trkpt lat="46.24426333694844" lon="12.478799724544674"><ele>518.0</ele><time>2026-04-23T11:55:56.999Z</time></trkpt><trkpt lat="46.24428763278919" lon="12.478641629632108"><ele>518.8</ele><time>2026-04-23T11:55:57.999Z</time></trkpt><trkpt lat="46.244313970908685" lon="12.478483855635497"><ele>519.5999999999999</ele><time>2026-04-23T11:55:58.999Z</time></trkpt><trkpt lat="46.24435464332675" lon="12.478331925512496"><ele>520.4000000000001</ele><time>2026-04-23T11:55:59.999Z</time></trkpt><trkpt lat="46.244365803544746" lon="12.47816863899554"><ele>521.2</ele><time>2026-04-23T11:56:00.999Z</time></trkpt><trkpt lat="46.24439460681849" lon="12.47801528728907"><ele>522.0</ele><time>2026-04-23T11:56:01.999Z</time></trkpt><trkpt lat="46.244423204230365" lon="12.477863378286735"><ele>522.0</ele><time>2026-04-23T11:56:02.999Z</time></trkpt><trkpt lat="46.24445118279738" lon="12.477711425692954"><ele>522.0</ele><time>2026-04-23T11:56:03.999Z</time></trkpt><trkpt lat="46.244483164052276" lon="12.477562535615265"><ele>522.0</ele><time>2026-04-23T11:56:04.999Z</time></trkpt><trkpt lat="46.2445216161501" lon="12.4774171124356"><ele>522.0</ele><time>2026-04-23T11:56:05.999Z</time></trkpt><trkpt lat="46.244560021471415" lon="12.477275374224195"><ele>522.0</ele><time>2026-04-23T11:56:06.999Z</time></trkpt><trkpt lat="46.24459956355551" lon="12.477136076249675"><ele>521.4</ele><time>2026-04-23T11:56:07.999Z</time></trkpt><trkpt lat="46.24463987168903" lon="12.476996767310553"><ele>520.8000000000001</ele><time>2026-04-23T11:56:08.999Z</time></trkpt><trkpt lat="46.24468066675909" lon="12.476857668741708"><ele>520.2</ele><time>2026-04-23T11:56:09.999Z</time></trkpt><trkpt lat="46.244720546123744" lon="12.476715745902933"><ele>519.6</ele><time>2026-04-23T11:56:10.999Z</time></trkpt><trkpt lat="46.24476193752414" lon="12.476571109419126"><ele>519.0</ele><time>2026-04-23T11:56:11.999Z</time></trkpt><trkpt lat="46.244807138050994" lon="12.47642355749923"><ele>516.25</ele><time>2026-04-23T11:56:12.999Z</time></trkpt><trkpt lat="46.24485236590449" lon="12.476275559934587"><ele>513.5</ele><time>2026-04-23T11:56:13.999Z</time></trkpt><trkpt lat="46.244897334559006" lon="12.476126505590775"><ele>510.75</ele><time>2026-04-23T11:56:14.999Z</time></trkpt><trkpt lat="46.24494189360299" lon="12.475975198448118"><ele>508.0</ele><time>2026-04-23T11:56:15.999Z</time></trkpt><trkpt lat="46.24498637668591" lon="12.475824531821035"><ele>508.0</ele><time>2026-04-23T11:56:16.999Z</time></trkpt><trkpt lat="46.24503180708815" lon="12.47567006997725"><ele>508.0</ele><time>2026-04-23T11:56:17.999Z</time></trkpt><trkpt lat="46.24507968640674" lon="12.475518195975557"><ele>508.0</ele><time>2026-04-23T11:56:18.999Z</time></trkpt><trkpt lat="46.24512696805937" lon="12.475367122578051"><ele>508.0</ele><time>2026-04-23T11:56:19.999Z</time></trkpt><trkpt lat="46.24517508671376" lon="12.475220052109062"><ele>509.2</ele><time>2026-04-23T11:56:20.999Z</time></trkpt><trkpt lat="46.245223893308136" lon="12.475075481620818"><ele>510.4</ele><time>2026-04-23T11:56:21.999Z</time></trkpt><trkpt lat="46.24527598686087" lon="12.47493245592612"><ele>511.59999999999997</ele><time>2026-04-23T11:56:22.999Z</time></trkpt><trkpt lat="46.2453338168428" lon="12.474795508386608"><ele>512.8</ele><time>2026-04-23T11:56:23.999Z</time></trkpt><trkpt lat="46.24539193177597" lon="12.474660946692632"><ele>514.0</ele><time>2026-04-23T11:56:24.999Z</time></trkpt><trkpt lat="46.245450958041786" lon="12.474527838504455"><ele>515.0</ele><time>2026-04-23T11:56:25.999Z</time></trkpt><trkpt lat="46.24551305196329" lon="12.474397588651797"><ele>516.0</ele><time>2026-04-23T11:56:27Z</time></trkpt><trkpt lat="46.24557457215119" lon="12.4742670411985"><ele>517.0</ele><time>2026-04-23T11:56:28Z</time></trkpt><trkpt lat="46.245636398871106" lon="12.4741355290573"><ele>518.0</ele><time>2026-04-23T11:56:29Z</time></trkpt><trkpt lat="46.245700859328565" lon="12.474004434443216"><ele>519.0</ele><time>2026-04-23T11:56:30Z</time></trkpt><trkpt lat="46.24576468617703" lon="12.473874139658525"><ele>517.4</ele><time>2026-04-23T11:56:31Z</time></trkpt><trkpt lat="46.24582968323973" lon="12.473745436094116"><ele>515.8</ele><time>2026-04-23T11:56:32Z</time></trkpt><trkpt lat="46.245895842068876" lon="12.473617352100936"><ele>514.2</ele><time>2026-04-23T11:56:33Z</time></trkpt><trkpt lat="46.24596041945028" lon="12.473487467027677"><ele>512.6</ele><time>2026-04-23T11:56:34Z</time></trkpt><trkpt lat="46.246021191455355" lon="12.47335575280008"><ele>511.0</ele><time>2026-04-23T11:56:35Z</time></trkpt><trkpt lat="46.24608382111605" lon="12.473227509475144"><ele>511.0</ele><time>2026-04-23T11:56:36Z</time></trkpt><trkpt lat="46.24614750971982" lon="12.473102108392911"><ele>511.0</ele><time>2026-04-23T11:56:37Z</time></trkpt><trkpt lat="46.24621086066938" lon="12.472977580764587"><ele>511.0</ele><time>2026-04-23T11:56:38Z</time></trkpt><trkpt lat="46.24627462529128" lon="12.472849521330229"><ele>511.0</ele><time>2026-04-23T11:56:39Z</time></trkpt><trkpt lat="46.24633724385364" lon="12.4727191468971"><ele>511.0</ele><time>2026-04-23T11:56:40Z</time></trkpt><trkpt lat="46.24640181434656" lon="12.472586143481712"><ele>509.75</ele><time>2026-04-23T11:56:41Z</time></trkpt><trkpt lat="46.24646740288574" lon="12.472455125802043"><ele>508.5</ele><time>2026-04-23T11:56:42Z</time></trkpt><trkpt lat="46.2465362100616" lon="12.4723201247499"><ele>507.25</ele><time>2026-04-23T11:56:43Z</time></trkpt><trkpt lat="46.246610987211476" lon="12.472181770362255"><ele>506.0</ele><time>2026-04-23T11:56:44Z</time></trkpt><trkpt lat="46.2466942083477" lon="12.472048102541905"><ele>506.0</ele><time>2026-04-23T11:56:45Z</time></trkpt><trkpt lat="46.24678736547591" lon="12.47192112574143"><ele>506.0</ele><time>2026-04-23T11:56:46Z</time></trkpt><trkpt lat="46.24688628291715" lon="12.471803474782707"><ele>506.0</ele><time>2026-04-23T11:56:47Z</time></trkpt><trkpt lat="46.246992872655014" lon="12.471704920024191"><ele>506.0</ele><time>2026-04-23T11:56:48Z</time></trkpt><trkpt lat="46.24710830360201" lon="12.471626261421823"><ele>506.0</ele><time>2026-04-23T11:56:49Z</time></trkpt><trkpt lat="46.24723007748895" lon="12.471559396278234"><ele>506.0</ele><time>2026-04-23T11:56:50Z</time></trkpt><trkpt lat="46.247355065482495" lon="12.4714956799566"><ele>506.0</ele><time>2026-04-23T11:56:51Z</time></trkpt><trkpt lat="46.24747694575504" lon="12.471438537925918"><ele>506.0</ele><time>2026-04-23T11:56:52Z</time></trkpt><trkpt lat="46.24758839909244" lon="12.4713831681473"><ele>505.5</ele><time>2026-04-23T11:56:53Z</time></trkpt><trkpt lat="46.247700423877674" lon="12.471324818473379"><ele>505.0</ele><time>2026-04-23T11:56:54Z</time></trkpt><trkpt lat="46.24781089695424" lon="12.471257899770885"><ele>504.5</ele><time>2026-04-23T11:56:55Z</time></trkpt><trkpt lat="46.247908160619254" lon="12.471171029026111"><ele>504.0</ele><time>2026-04-23T11:56:56Z</time></trkpt><trkpt lat="46.248003194554066" lon="12.471074682126698"><ele>505.0</ele><time>2026-04-23T11:56:57Z</time></trkpt><trkpt lat="46.24809657200462" lon="12.470977764904442"><ele>506.0</ele><time>2026-04-23T11:56:58Z</time></trkpt><trkpt lat="46.248188778429125" lon="12.470889061403303"><ele>507.0</ele><time>2026-04-23T11:56:59Z</time></trkpt><trkpt lat="46.24828107888257" lon="12.470795926137141"><ele>508.0</ele><time>2026-04-23T11:57:00Z</time></trkpt><trkpt lat="46.24837200656341" lon="12.470692239229887"><ele>508.0</ele><time>2026-04-23T11:57:01Z</time></trkpt><trkpt lat="46.24846017586827" lon="12.470576336092673"><ele>508.0</ele><time>2026-04-23T11:57:02Z</time></trkpt><trkpt lat="46.2485633196502" lon="12.470469926517811"><ele>508.0</ele><time>2026-04-23T11:57:03Z</time></trkpt><trkpt lat="46.2486426758479" lon="12.470330383507607"><ele>508.0</ele><time>2026-04-23T11:57:04Z</time></trkpt><trkpt lat="46.24872931121157" lon="12.470211846268127"><ele>507.6666666666667</ele><time>2026-04-23T11:57:05Z</time></trkpt><trkpt lat="46.24881993064098" lon="12.470095052989443"><ele>507.33333333333337</ele><time>2026-04-23T11:57:06Z</time></trkpt><trkpt lat="46.248907371322865" lon="12.469970533236298"><ele>507.0</ele><time>2026-04-23T11:57:07Z</time></trkpt><trkpt lat="46.24906798543183" lon="12.469700713779096"><ele>510.5</ele><time>2026-04-23T11:57:09Z</time></trkpt><trkpt lat="46.2491521435501" lon="12.469558043065357"><ele>514.0</ele><time>2026-04-23T11:57:10Z</time></trkpt><trkpt lat="46.24918886065584" lon="12.469375547970786"><ele>517.5</ele><time>2026-04-23T11:57:11Z</time></trkpt><trkpt lat="46.24924674150625" lon="12.469198513025088"><ele>521.0</ele><time>2026-04-23T11:57:12Z</time></trkpt><trkpt lat="46.249279674033005" lon="12.469011495280178"><ele>521.0</ele><time>2026-04-23T11:57:13Z</time></trkpt><trkpt lat="46.24931212215685" lon="12.468834653455184"><ele>521.0</ele><time>2026-04-23T11:57:14Z</time></trkpt><trkpt lat="46.24934304091335" lon="12.46866300991433"><ele>521.0</ele><time>2026-04-23T11:57:15Z</time></trkpt><trkpt lat="46.24937189433388" lon="12.468496647326981"><ele>521.0</ele><time>2026-04-23T11:57:16Z</time></trkpt><trkpt lat="46.24938474886444" lon="12.468314833292936"><ele>525.3333333333333</ele><time>2026-04-23T11:57:17Z</time></trkpt><trkpt lat="46.24941164059683" lon="12.468128481830048"><ele>529.6666666666666</ele><time>2026-04-23T11:57:18Z</time></trkpt><trkpt lat="46.249412760324425" lon="12.467896102592459"><ele>534.0</ele><time>2026-04-23T11:57:19Z</time></trkpt><trkpt lat="46.249427088632196" lon="12.46763794113074"><ele>539.3333333333334</ele><time>2026-04-23T11:57:20Z</time></trkpt><trkpt lat="46.24941989031905" lon="12.467364986298744"><ele>544.6666666666667</ele><time>2026-04-23T11:57:21Z</time></trkpt><trkpt lat="46.24939606519317" lon="12.467100124079701"><ele>550.0</ele><time>2026-04-23T11:57:22Z</time></trkpt><trkpt lat="46.24939497398682" lon="12.466836601864545"><ele>550.6666666666667</ele><time>2026-04-23T11:57:23Z</time></trkpt><trkpt lat="46.24941695214578" lon="12.466588834074178"><ele>551.3333333333334</ele><time>2026-04-23T11:57:24Z</time></trkpt><trkpt lat="46.24943582960718" lon="12.466348563376952"><ele>552.0</ele><time>2026-04-23T11:57:25Z</time></trkpt><trkpt lat="46.24945239366345" lon="12.466100614939277"><ele>556.6666666666666</ele><time>2026-04-23T11:57:26Z</time></trkpt><trkpt lat="46.24945584258853" lon="12.465857567507319"><ele>561.3333333333333</ele><time>2026-04-23T11:57:27Z</time></trkpt><trkpt lat="46.249449638686436" lon="12.465640652138733"><ele>566.0</ele><time>2026-04-23T11:57:28Z</time></trkpt><trkpt lat="46.249428428512644" lon="12.465441557082867"><ele>570.5</ele><time>2026-04-23T11:57:29Z</time></trkpt><trkpt lat="46.24941127174806" lon="12.465262076125946"><ele>575.0</ele><time>2026-04-23T11:57:30Z</time></trkpt><trkpt lat="46.2493917088557" lon="12.465075130681695"><ele>579.5</ele><time>2026-04-23T11:57:31Z</time></trkpt><trkpt lat="46.24943575072216" lon="12.464890556042992"><ele>584.0</ele><time>2026-04-23T11:57:32Z</time></trkpt><trkpt lat="46.24950277680708" lon="12.464711703027914"><ele>586.6666666666666</ele><time>2026-04-23T11:57:33Z</time></trkpt><trkpt lat="46.2495774625035" lon="12.464524307468533"><ele>589.3333333333334</ele><time>2026-04-23T11:57:34Z</time></trkpt><trkpt lat="46.249652543544016" lon="12.464318686338835"><ele>592.0</ele><time>2026-04-23T11:57:35Z</time></trkpt><trkpt lat="46.24973096552894" lon="12.46411584527509"><ele>579.25</ele><time>2026-04-23T11:57:36Z</time></trkpt><trkpt lat="46.2498166124071" lon="12.463942831636238"><ele>566.5</ele><time>2026-04-23T11:57:37Z</time></trkpt><trkpt lat="46.24992491676475" lon="12.463798482451962"><ele>553.75</ele><time>2026-04-23T11:57:38Z</time></trkpt><trkpt lat="46.25004552343338" lon="12.463672292898755"><ele>541.0</ele><time>2026-04-23T11:57:39Z</time></trkpt><trkpt lat="46.25014264661047" lon="12.463536233739537"><ele>541.0</ele><time>2026-04-23T11:57:40Z</time></trkpt><trkpt lat="46.250217988287055" lon="12.463375920338605"><ele>541.0</ele><time>2026-04-23T11:57:41Z</time></trkpt><trkpt lat="46.25027787609693" lon="12.463218369461659"><ele>541.0</ele><time>2026-04-23T11:57:42Z</time></trkpt><trkpt lat="46.250306449188614" lon="12.463039647665104"><ele>541.0</ele><time>2026-04-23T11:57:43Z</time></trkpt><trkpt lat="46.250333563874314" lon="12.462900989717932"><ele>541.6</ele><time>2026-04-23T11:57:44Z</time></trkpt><trkpt lat="46.25039417289898" lon="12.462814649932351"><ele>542.2</ele><time>2026-04-23T11:57:45Z</time></trkpt><trkpt lat="46.25048627376713" lon="12.462761337850981"><ele>542.8</ele><time>2026-04-23T11:57:46Z</time></trkpt><trkpt lat="46.25060933688126" lon="12.46273354244909"><ele>543.4</ele><time>2026-04-23T11:57:47Z</time></trkpt><trkpt lat="46.25073197607026" lon="12.462694234812904"><ele>544.0</ele><time>2026-04-23T11:57:48Z</time></trkpt><trkpt lat="46.250869832141106" lon="12.462701752937754"><ele>537.75</ele><time>2026-04-23T11:57:49Z</time></trkpt><trkpt lat="46.25101310843828" lon="12.46275754692681"><ele>531.5</ele><time>2026-04-23T11:57:50Z</time></trkpt><trkpt lat="46.25114822911877" lon="12.462838827733899"><ele>525.25</ele><time>2026-04-23T11:57:51Z</time></trkpt><trkpt lat="46.25128202565148" lon="12.462943844681693"><ele>519.0</ele><time>2026-04-23T11:57:52Z</time></trkpt><trkpt lat="46.25142076002592" lon="12.463035475248276"><ele>517.6666666666666</ele><time>2026-04-23T11:57:53Z</time></trkpt><trkpt lat="46.2515872807104" lon="12.463091397054175"><ele>516.3333333333333</ele><time>2026-04-23T11:57:54Z</time></trkpt><trkpt lat="46.25177956449413" lon="12.463131222592269"><ele>515.0</ele><time>2026-04-23T11:57:55Z</time></trkpt><trkpt lat="46.25197643925407" lon="12.463170313317297"><ele>515.0</ele><time>2026-04-23T11:57:55.999Z</time></trkpt><trkpt lat="46.252173597960685" lon="12.463213925439192"><ele>515.0</ele><time>2026-04-23T11:57:56.999Z</time></trkpt><trkpt lat="46.25236739313842" lon="12.463257945117057"><ele>515.0</ele><time>2026-04-23T11:57:57.999Z</time></trkpt><trkpt lat="46.25254064644739" lon="12.463354838458338"><ele>518.6666666666666</ele><time>2026-04-23T11:57:58.999Z</time></trkpt><trkpt lat="46.25271514074363" lon="12.463453949548224"><ele>522.3333333333334</ele><time>2026-04-23T11:57:59.999Z</time></trkpt><trkpt lat="46.25289656665143" lon="12.463542124088475"><ele>526.0</ele><time>2026-04-23T11:58:00.999Z</time></trkpt><trkpt lat="46.25306996823204" lon="12.463663114786115"><ele>521.6666666666667</ele><time>2026-04-23T11:58:01.999Z</time></trkpt><trkpt lat="46.25324767781296" lon="12.463778064739873"><ele>517.3333333333334</ele><time>2026-04-23T11:58:02.999Z</time></trkpt><trkpt lat="46.253431787654655" lon="12.463868346218067"><ele>513.0</ele><time>2026-04-23T11:58:03.999Z</time></trkpt><trkpt lat="46.25362148590924" lon="12.463941020181547"><ele>513.0</ele><time>2026-04-23T11:58:04.999Z</time></trkpt><trkpt lat="46.253807367740905" lon="12.46400258819323"><ele>513.0</ele><time>2026-04-23T11:58:05.999Z</time></trkpt><trkpt lat="46.2539766618142" lon="12.464047184592447"><ele>513.0</ele><time>2026-04-23T11:58:06.999Z</time></trkpt><trkpt lat="46.25413102119448" lon="12.464048957807062"><ele>515.6666666666666</ele><time>2026-04-23T11:58:07.999Z</time></trkpt><trkpt lat="46.25429714060061" lon="12.464008857973127"><ele>518.3333333333333</ele><time>2026-04-23T11:58:08.999Z</time></trkpt><trkpt lat="46.25445894251349" lon="12.463922575288905"><ele>521.0</ele><time>2026-04-23T11:58:09.999Z</time></trkpt><trkpt lat="46.254615738304565" lon="12.463836405711294"><ele>521.0</ele><time>2026-04-23T11:58:10.999Z</time></trkpt><trkpt lat="46.25476595803939" lon="12.463835130443677"><ele>521.0</ele><time>2026-04-23T11:58:11.999Z</time></trkpt><trkpt lat="46.254918369786566" lon="12.463863722465572"><ele>521.0</ele><time>2026-04-23T11:58:12.999Z</time></trkpt><trkpt lat="46.255066057922306" lon="12.463928609956769"><ele>521.6666666666666</ele><time>2026-04-23T11:58:13.999Z</time></trkpt><trkpt lat="46.25520496104215" lon="12.464033724917506"><ele>522.3333333333334</ele><time>2026-04-23T11:58:14.999Z</time></trkpt><trkpt lat="46.25533072202534" lon="12.464170731620802"><ele>523.0</ele><time>2026-04-23T11:58:15.999Z</time></trkpt><trkpt lat="46.25544328044437" lon="12.464343119750676"><ele>523.0</ele><time>2026-04-23T11:58:16.999Z</time></trkpt><trkpt lat="46.25555033742468" lon="12.464542843344377"><ele>523.0</ele><time>2026-04-23T11:58:17.999Z</time></trkpt><trkpt lat="46.25564664079494" lon="12.464765480641374"><ele>523.0</ele><time>2026-04-23T11:58:18.999Z</time></trkpt><trkpt lat="46.25571283283188" lon="12.46500993191584"><ele>523.3333333333334</ele><time>2026-04-23T11:58:19.999Z</time></trkpt><trkpt lat="46.255784502631634" lon="12.465245139492014"><ele>523.6666666666666</ele><time>2026-04-23T11:58:20.999Z</time></trkpt><trkpt lat="46.25583673247576" lon="12.465447716911816"><ele>524.0</ele><time>2026-04-23T11:58:21.999Z</time></trkpt><trkpt lat="46.25592758234815" lon="12.46562612523354"><ele>522.3333333333333</ele><time>2026-04-23T11:58:22.999Z</time></trkpt><trkpt lat="46.256056148977784" lon="12.465773853973435"><ele>520.6666666666666</ele><time>2026-04-23T11:58:23.999Z</time></trkpt><trkpt lat="46.256213326261815" lon="12.465885191301618"><ele>519.0</ele><time>2026-04-23T11:58:24.999Z</time></trkpt><trkpt lat="46.25638285753883" lon="12.465995521626455"><ele>519.6666666666666</ele><time>2026-04-23T11:58:25.999Z</time></trkpt><trkpt lat="46.25655588984839" lon="12.466125864315465"><ele>520.3333333333333</ele><time>2026-04-23T11:58:26.999Z</time></trkpt><trkpt lat="46.25672854325725" lon="12.466271085530254"><ele>521.0</ele><time>2026-04-23T11:58:27.999Z</time></trkpt><trkpt lat="46.25688572458388" lon="12.466395471426738"><ele>521.0</ele><time>2026-04-23T11:58:28.999Z</time></trkpt><trkpt lat="46.25704016007188" lon="12.466494362379482"><ele>521.0</ele><time>2026-04-23T11:58:29.999Z</time></trkpt><trkpt lat="46.257201956121754" lon="12.46654680191551"><ele>521.0</ele><time>2026-04-23T11:58:30.999Z</time></trkpt><trkpt lat="46.25736522820703" lon="12.466560734710416"><ele>522.6666666666666</ele><time>2026-04-23T11:58:31.999Z</time></trkpt><trkpt lat="46.25753710846597" lon="12.46654830239731"><ele>524.3333333333334</ele><time>2026-04-23T11:58:33Z</time></trkpt><trkpt lat="46.25770995965497" lon="12.466532864244783"><ele>526.0</ele><time>2026-04-23T11:58:34Z</time></trkpt><trkpt lat="46.2578871698064" lon="12.466541336267971"><ele>526.0</ele><time>2026-04-23T11:58:35Z</time></trkpt><trkpt lat="46.25806107172241" lon="12.466561961796124"><ele>526.0</ele><time>2026-04-23T11:58:36Z</time></trkpt><trkpt lat="46.25822302622521" lon="12.46657609192583"><ele>526.0</ele><time>2026-04-23T11:58:37Z</time></trkpt><trkpt lat="46.25838199270837" lon="12.466539703248536"><ele>527.3333333333334</ele><time>2026-04-23T11:58:38Z</time></trkpt><trkpt lat="46.2585449064115" lon="12.466449860011224"><ele>528.6666666666666</ele><time>2026-04-23T11:58:39Z</time></trkpt><trkpt lat="46.25871369953618" lon="12.466343708774696"><ele>530.0</ele><time>2026-04-23T11:58:40Z</time></trkpt><trkpt lat="46.25888013350312" lon="12.466272146983055"><ele>530.25</ele><time>2026-04-23T11:58:41Z</time></trkpt><trkpt lat="46.25902249129628" lon="12.466239308615325"><ele>530.5</ele><time>2026-04-23T11:58:42Z</time></trkpt><trkpt lat="46.259125472294905" lon="12.466278327027718"><ele>530.75</ele><time>2026-04-23T11:58:43Z</time></trkpt><trkpt lat="46.25922171241488" lon="12.466324701210457"><ele>531.0</ele><time>2026-04-23T11:58:44Z</time></trkpt><trkpt lat="46.259295088405196" lon="12.466434781726027"><ele>531.0</ele><time>2026-04-23T11:58:45Z</time></trkpt><trkpt lat="46.259341729166124" lon="12.46658988010702"><ele>531.0</ele><time>2026-04-23T11:58:46Z</time></trkpt><trkpt lat="46.25936981674036" lon="12.46678257509591"><ele>531.0</ele><time>2026-04-23T11:58:47Z</time></trkpt><trkpt lat="46.25938437271112" lon="12.467012775080159"><ele>531.0</ele><time>2026-04-23T11:58:48Z</time></trkpt><trkpt lat="46.25940923942255" lon="12.46726772975336"><ele>531.0</ele><time>2026-04-23T11:58:49Z</time></trkpt><trkpt lat="46.25944365322122" lon="12.467529161719614"><ele>531.0</ele><time>2026-04-23T11:58:50Z</time></trkpt><trkpt lat="46.25947709959341" lon="12.467791981352901"><ele>531.0</ele><time>2026-04-23T11:58:51Z</time></trkpt><trkpt lat="46.2595063756112" lon="12.468025785355495"><ele>531.0</ele><time>2026-04-23T11:58:52Z</time></trkpt><trkpt lat="46.25953782104661" lon="12.468225961830521"><ele>531.0</ele><time>2026-04-23T11:58:53Z</time></trkpt><trkpt lat="46.259574248372566" lon="12.468410617419377"><ele>531.0</ele><time>2026-04-23T11:58:54Z</time></trkpt><trkpt lat="46.259638617228035" lon="12.468598802671739"><ele>531.0</ele><time>2026-04-23T11:58:55Z</time></trkpt><trkpt lat="46.25973711044894" lon="12.468784055979317"><ele>532.75</ele><time>2026-04-23T11:58:56Z</time></trkpt><trkpt lat="46.259839901813535" lon="12.46895845980466"><ele>534.5</ele><time>2026-04-23T11:58:57Z</time></trkpt><trkpt lat="46.259931219635654" lon="12.469102417294506"><ele>536.25</ele><time>2026-04-23T11:58:58Z</time></trkpt><trkpt lat="46.260020095739925" lon="12.469218538650304"><ele>538.0</ele><time>2026-04-23T11:58:59Z</time></trkpt><trkpt lat="46.26012925131143" lon="12.469295892874955"><ele>538.0</ele><time>2026-04-23T11:59:00Z</time></trkpt><trkpt lat="46.260264445563635" lon="12.469321822298344"><ele>538.0</ele><time>2026-04-23T11:59:01Z</time></trkpt><trkpt lat="46.26040785659908" lon="12.46930566996309"><ele>538.0</ele><time>2026-04-23T11:59:02Z</time></trkpt><trkpt lat="46.2605523295476" lon="12.46923207999643"><ele>538.0</ele><time>2026-04-23T11:59:03Z</time></trkpt><trkpt lat="46.26069548390731" lon="12.469121993025237"><ele>540.6666666666667</ele><time>2026-04-23T11:59:04Z</time></trkpt><trkpt lat="46.26085888252924" lon="12.46900599692667"><ele>543.3333333333334</ele><time>2026-04-23T11:59:05Z</time></trkpt><trkpt lat="46.261030828980495" lon="12.4689054489393"><ele>546.0</ele><time>2026-04-23T11:59:06Z</time></trkpt><trkpt lat="46.261206961226335" lon="12.468803620070565"><ele>546.3333333333334</ele><time>2026-04-23T11:59:07Z</time></trkpt><trkpt lat="46.261387365189705" lon="12.468693572308496"><ele>546.6666666666667</ele><time>2026-04-23T11:59:08Z</time></trkpt><trkpt lat="46.26157213289383" lon="12.468579807933644"><ele>547.0</ele><time>2026-04-23T11:59:09Z</time></trkpt><trkpt lat="46.26176061579345" lon="12.468466101599889"><ele>547.0</ele><time>2026-04-23T11:59:10Z</time></trkpt><trkpt lat="46.26194953953018" lon="12.468348143477302"><ele>547.0</ele><time>2026-04-23T11:59:11Z</time></trkpt><trkpt lat="46.2621404709922" lon="12.468230130446885"><ele>547.0</ele><time>2026-04-23T11:59:12Z</time></trkpt><trkpt lat="46.26233596192751" lon="12.468106118018"><ele>546.0</ele><time>2026-04-23T11:59:13Z</time></trkpt><trkpt lat="46.26255331985703" lon="12.467999579655379"><ele>545.0</ele><time>2026-04-23T11:59:14Z</time></trkpt><trkpt lat="46.26278222136732" lon="12.467863573558642"><ele>545.0</ele><time>2026-04-23T11:59:15Z</time></trkpt><trkpt lat="46.26302661526311" lon="12.467720125339984"><ele>545.0</ele><time>2026-04-23T11:59:16Z</time></trkpt><trkpt lat="46.263280725147936" lon="12.46756949576099"><ele>548.0</ele><time>2026-04-23T11:59:17Z</time></trkpt><trkpt lat="46.26353926082059" lon="12.46740961594347"><ele>551.0</ele><time>2026-04-23T11:59:18Z</time></trkpt><trkpt lat="46.26378455597256" lon="12.467219224573295"><ele>552.0</ele><time>2026-04-23T11:59:19Z</time></trkpt><trkpt lat="46.26403603489689" lon="12.467055254069257"><ele>553.0</ele><time>2026-04-23T11:59:20Z</time></trkpt><trkpt lat="46.26428188794011" lon="12.466871283169514"><ele>553.0</ele><time>2026-04-23T11:59:21Z</time></trkpt><trkpt lat="46.264525679788086" lon="12.466692480407819"><ele>553.0</ele><time>2026-04-23T11:59:22Z</time></trkpt><trkpt lat="46.264769975247525" lon="12.466523903732245"><ele>552.5</ele><time>2026-04-23T11:59:23Z</time></trkpt><trkpt lat="46.26500808077871" lon="12.466359890716635"><ele>552.0</ele><time>2026-04-23T11:59:24Z</time></trkpt><trkpt lat="46.265242126887834" lon="12.466190727035604"><ele>552.0</ele><time>2026-04-23T11:59:25Z</time></trkpt><trkpt lat="46.26547432822434" lon="12.466015567856376"><ele>552.0</ele><time>2026-04-23T11:59:26Z</time></trkpt><trkpt lat="46.26570196564529" lon="12.4658321320501"><ele>555.0</ele><time>2026-04-23T11:59:27Z</time></trkpt><trkpt lat="46.26591628900262" lon="12.465636093112105"><ele>558.0</ele><time>2026-04-23T11:59:28Z</time></trkpt><trkpt lat="46.266120733458955" lon="12.465422914334171"><ele>558.0</ele><time>2026-04-23T11:59:29Z</time></trkpt><trkpt lat="46.26631438965106" lon="12.465193770630055"><ele>558.0</ele><time>2026-04-23T11:59:30Z</time></trkpt><trkpt lat="46.266502228534264" lon="12.464953163785593"><ele>560.0</ele><time>2026-04-23T11:59:31Z</time></trkpt><trkpt lat="46.266705796430415" lon="12.464737322151944"><ele>562.0</ele><time>2026-04-23T11:59:32Z</time></trkpt><trkpt lat="46.266898820787766" lon="12.464507908098689"><ele>562.0</ele><time>2026-04-23T11:59:33Z</time></trkpt><trkpt lat="46.26709079150041" lon="12.46428260899711"><ele>562.0</ele><time>2026-04-23T11:59:34Z</time></trkpt><trkpt lat="46.267284794302526" lon="12.464053291374508"><ele>566.0</ele><time>2026-04-23T11:59:35Z</time></trkpt><trkpt lat="46.2674790312536" lon="12.463823695265905"><ele>570.0</ele><time>2026-04-23T11:59:36Z</time></trkpt><trkpt lat="46.26767078916404" lon="12.463597029479656"><ele>570.0</ele><time>2026-04-23T11:59:37Z</time></trkpt><trkpt lat="46.26786165120888" lon="12.463371422655994"><ele>570.0</ele><time>2026-04-23T11:59:38Z</time></trkpt><trkpt lat="46.268053519004056" lon="12.463144626980762"><ele>572.5</ele><time>2026-04-23T11:59:39Z</time></trkpt><trkpt lat="46.268247406069364" lon="12.462915444454781"><ele>575.0</ele><time>2026-04-23T11:59:40Z</time></trkpt><trkpt lat="46.26843939362778" lon="12.46268816952232"><ele>575.0</ele><time>2026-04-23T11:59:41Z</time></trkpt><trkpt lat="46.26863205643116" lon="12.46245988339336"><ele>575.0</ele><time>2026-04-23T11:59:42Z</time></trkpt><trkpt lat="46.26882455120994" lon="12.462231796354533"><ele>576.5</ele><time>2026-04-23T11:59:43Z</time></trkpt><trkpt lat="46.26900534621732" lon="12.46198850723772"><ele>578.0</ele><time>2026-04-23T11:59:44Z</time></trkpt><trkpt lat="46.2691965793729" lon="12.461762169044865"><ele>578.0</ele><time>2026-04-23T11:59:45Z</time></trkpt><trkpt lat="46.26939738405412" lon="12.461553345178615"><ele>578.0</ele><time>2026-04-23T11:59:46Z</time></trkpt><trkpt lat="46.269578901596795" lon="12.461308644512881"><ele>579.0</ele><time>2026-04-23T11:59:47Z</time></trkpt><trkpt lat="46.26976992623244" lon="12.461082594026466"><ele>580.0</ele><time>2026-04-23T11:59:48Z</time></trkpt><trkpt lat="46.26996118735213" lon="12.460857736958593"><ele>582.5</ele><time>2026-04-23T11:59:49Z</time></trkpt><trkpt lat="46.270152033136654" lon="12.460641704663566"><ele>585.0</ele><time>2026-04-23T11:59:50Z</time></trkpt><trkpt lat="46.27036261263595" lon="12.460475659580597"><ele>585.0</ele><time>2026-04-23T11:59:51Z</time></trkpt><trkpt lat="46.27058619287014" lon="12.460322009246319"><ele>585.0</ele><time>2026-04-23T11:59:52Z</time></trkpt><trkpt lat="46.270814642612926" lon="12.460169595755074"><ele>587.0</ele><time>2026-04-23T11:59:53Z</time></trkpt><trkpt lat="46.2710429966275" lon="12.460017074023437"><ele>589.0</ele><time>2026-04-23T11:59:54Z</time></trkpt><trkpt lat="46.27127436430645" lon="12.459861454745996"><ele>589.0</ele><time>2026-04-23T11:59:55Z</time></trkpt><trkpt lat="46.27150654621847" lon="12.459705280667906"><ele>589.0</ele><time>2026-04-23T11:59:56Z</time></trkpt><trkpt lat="46.271741996712166" lon="12.45954821981453"><ele>589.0</ele><time>2026-04-23T11:59:57Z</time></trkpt><trkpt lat="46.2719716787823" lon="12.459375327601832"><ele>589.0</ele><time>2026-04-23T11:59:58Z</time></trkpt><trkpt lat="46.27220534077138" lon="12.459223279765865"><ele>591.5</ele><time>2026-04-23T11:59:59Z</time></trkpt><trkpt lat="46.272425285702134" lon="12.45907413565049"><ele>594.0</ele><time>2026-04-23T12:00:00Z</time></trkpt><trkpt lat="46.272635875848565" lon="12.45892981624096"><ele>594.0</ele><time>2026-04-23T12:00:01Z</time></trkpt><trkpt lat="46.27284277126343" lon="12.458787483767306"><ele>594.0</ele><time>2026-04-23T12:00:01.999Z</time></trkpt><trkpt lat="46.27304993120468" lon="12.458648564160388"><ele>595.5</ele><time>2026-04-23T12:00:02.999Z</time></trkpt><trkpt lat="46.2732545596585" lon="12.458514523441291"><ele>597.0</ele><time>2026-04-23T12:00:03.999Z</time></trkpt><trkpt lat="46.273459521754106" lon="12.458380447787617"><ele>597.0</ele><time>2026-04-23T12:00:04.999Z</time></trkpt><trkpt lat="46.273664448200805" lon="12.458239021115642"><ele>597.0</ele><time>2026-04-23T12:00:05.999Z</time></trkpt><trkpt lat="46.27387215670314" lon="12.458095079617374"><ele>598.0</ele><time>2026-04-23T12:00:06.999Z</time></trkpt><trkpt lat="46.27408015160055" lon="12.457978046878154"><ele>599.0</ele><time>2026-04-23T12:00:07.999Z</time></trkpt><trkpt lat="46.274265521906074" lon="12.457819149772394"><ele>600.0</ele><time>2026-04-23T12:00:08.999Z</time></trkpt><trkpt lat="46.27444854059859" lon="12.45767495696309"><ele>600.6666666666666</ele><time>2026-04-23T12:00:09.999Z</time></trkpt><trkpt lat="46.27462391015754" lon="12.457512143353913"><ele>601.3333333333333</ele><time>2026-04-23T12:00:10.999Z</time></trkpt><trkpt lat="46.27479143243341" lon="12.457323289453509"><ele>602.0</ele><time>2026-04-23T12:00:11.999Z</time></trkpt><trkpt lat="46.27496744094843" lon="12.457158848445616"><ele>603.5</ele><time>2026-04-23T12:00:12.999Z</time></trkpt><trkpt lat="46.27514059364211" lon="12.456969867713223"><ele>605.0</ele><time>2026-04-23T12:00:13.999Z</time></trkpt><trkpt lat="46.27533315488446" lon="12.45675970422208"><ele>605.0</ele><time>2026-04-23T12:00:14.999Z</time></trkpt><trkpt lat="46.27553499373898" lon="12.456539415229146"><ele>605.0</ele><time>2026-04-23T12:00:15.999Z</time></trkpt><trkpt lat="46.27574586613088" lon="12.456309266775193"><ele>607.0</ele><time>2026-04-23T12:00:16.999Z</time></trkpt><trkpt lat="46.27595509592201" lon="12.456079352375479"><ele>609.0</ele><time>2026-04-23T12:00:17.999Z</time></trkpt><trkpt lat="46.27615893862721" lon="12.45583433143781"><ele>609.0</ele><time>2026-04-23T12:00:18.999Z</time></trkpt><trkpt lat="46.27636838356739" lon="12.455606103637372"><ele>609.0</ele><time>2026-04-23T12:00:19.999Z</time></trkpt><trkpt lat="46.2765728348632" lon="12.455373798734973"><ele>611.5</ele><time>2026-04-23T12:00:20.999Z</time></trkpt><trkpt lat="46.27678571144067" lon="12.455170570992486"><ele>614.0</ele><time>2026-04-23T12:00:21.999Z</time></trkpt><trkpt lat="46.27698565135604" lon="12.454953680033663"><ele>614.0</ele><time>2026-04-23T12:00:22.999Z</time></trkpt><trkpt lat="46.277181331627126" lon="12.45474140789146"><ele>614.0</ele><time>2026-04-23T12:00:23.999Z</time></trkpt><trkpt lat="46.27737400407002" lon="12.454529940761818"><ele>615.0</ele><time>2026-04-23T12:00:24.999Z</time></trkpt><trkpt lat="46.27755271879076" lon="12.454330769075158"><ele>616.0</ele><time>2026-04-23T12:00:25.999Z</time></trkpt><trkpt lat="46.277711593999136" lon="12.454098646356746"><ele>616.0</ele><time>2026-04-23T12:00:26.999Z</time></trkpt><trkpt lat="46.2778729532078" lon="12.45387042139589"><ele>616.0</ele><time>2026-04-23T12:00:27.999Z</time></trkpt><trkpt lat="46.278021570010466" lon="12.453608288360915"><ele>618.0</ele><time>2026-04-23T12:00:28.999Z</time></trkpt><trkpt lat="46.27815840624015" lon="12.453321055211916"><ele>620.0</ele><time>2026-04-23T12:00:29.999Z</time></trkpt><trkpt lat="46.278292504961165" lon="12.453020442500943"><ele>620.5</ele><time>2026-04-23T12:00:30.999Z</time></trkpt><trkpt lat="46.27840823294898" lon="12.452707010703348"><ele>621.0</ele><time>2026-04-23T12:00:31.999Z</time></trkpt><trkpt lat="46.27852536296629" lon="12.452386453503534"><ele>622.0</ele><time>2026-04-23T12:00:32.999Z</time></trkpt><trkpt lat="46.27864093696925" lon="12.452066874601798"><ele>623.0</ele><time>2026-04-23T12:00:33.999Z</time></trkpt><trkpt lat="46.27875734700447" lon="12.451746523018283"><ele>623.0</ele><time>2026-04-23T12:00:34.999Z</time></trkpt><trkpt lat="46.27887376547571" lon="12.451426128814962"><ele>623.0</ele><time>2026-04-23T12:00:35.999Z</time></trkpt><trkpt lat="46.27898560520564" lon="12.451119563593602"><ele>624.6666666666666</ele><time>2026-04-23T12:00:36.999Z</time></trkpt><trkpt lat="46.27909419087653" lon="12.450847411007318"><ele>626.3333333333334</ele><time>2026-04-23T12:00:37.999Z</time></trkpt><trkpt lat="46.27920357421859" lon="12.450567065539946"><ele>628.0</ele><time>2026-04-23T12:00:39.001Z</time></trkpt><trkpt lat="46.279353622863475" lon="12.450303789985966"><ele>628.5</ele><time>2026-04-23T12:00:40.001Z</time></trkpt><trkpt lat="46.27952747115425" lon="12.450053567171286"><ele>629.0</ele><time>2026-04-23T12:00:41.001Z</time></trkpt><trkpt lat="46.2797347073642" lon="12.44984908303913"><ele>629.5</ele><time>2026-04-23T12:00:42.001Z</time></trkpt><trkpt lat="46.27995271151063" lon="12.449651565734504"><ele>630.0</ele><time>2026-04-23T12:00:43.001Z</time></trkpt><trkpt lat="46.28018134124354" lon="12.44946303384512"><ele>630.5</ele><time>2026-04-23T12:00:44.001Z</time></trkpt><trkpt lat="46.28041311456921" lon="12.449273930831737"><ele>631.0</ele><time>2026-04-23T12:00:45.001Z</time></trkpt><trkpt lat="46.280648626066444" lon="12.449080466643842"><ele>632.0</ele><time>2026-04-23T12:00:46.001Z</time></trkpt><trkpt lat="46.28087471295162" lon="12.448868467694163"><ele>633.0</ele><time>2026-04-23T12:00:47.001Z</time></trkpt><trkpt lat="46.28110886740272" lon="12.448682238027702"><ele>633.5</ele><time>2026-04-23T12:00:48.001Z</time></trkpt><trkpt lat="46.28133534880273" lon="12.448507810777654"><ele>634.0</ele><time>2026-04-23T12:00:49.001Z</time></trkpt><trkpt lat="46.28156120497446" lon="12.448355698042874"><ele>635.5</ele><time>2026-04-23T12:00:50.001Z</time></trkpt><trkpt lat="46.28177873776688" lon="12.4482384093476"><ele>637.0</ele><time>2026-04-23T12:00:51.001Z</time></trkpt><trkpt lat="46.28199951024072" lon="12.448144890092163"><ele>637.0</ele><time>2026-04-23T12:00:52.001Z</time></trkpt><trkpt lat="46.28221900388701" lon="12.448051609046342"><ele>637.0</ele><time>2026-04-23T12:00:53.001Z</time></trkpt><trkpt lat="46.28243117093695" lon="12.447958217481235"><ele>637.3333333333334</ele><time>2026-04-23T12:00:54Z</time></trkpt><trkpt lat="46.28262356423504" lon="12.447874655429999"><ele>637.6666666666666</ele><time>2026-04-23T12:00:55Z</time></trkpt><trkpt lat="46.282805193650255" lon="12.447798264813784"><ele>638.0</ele><time>2026-04-23T12:00:56Z</time></trkpt><trkpt lat="46.28297546396052" lon="12.447724119835257"><ele>639.0</ele><time>2026-04-23T12:00:57Z</time></trkpt><trkpt lat="46.28313051616194" lon="12.44764265248154"><ele>640.0</ele><time>2026-04-23T12:00:58Z</time></trkpt><trkpt lat="46.283284973125944" lon="12.447562061356734"><ele>641.0</ele><time>2026-04-23T12:00:59Z</time></trkpt><trkpt lat="46.28343232607013" lon="12.447442805354864"><ele>641.0</ele><time>2026-04-23T12:01:00Z</time></trkpt><trkpt lat="46.28357422550885" lon="12.44730757424258"><ele>641.0</ele><time>2026-04-23T12:01:01Z</time></trkpt><trkpt lat="46.28370935831197" lon="12.447152766805285"><ele>641.0</ele><time>2026-04-23T12:01:02Z</time></trkpt><trkpt lat="46.283832139594836" lon="12.446973868034739"><ele>642.3333333333333</ele><time>2026-04-23T12:01:03Z</time></trkpt><trkpt lat="46.2839737192527" lon="12.446822906680792"><ele>643.6666666666666</ele><time>2026-04-23T12:01:04Z</time></trkpt><trkpt lat="46.28410799193236" lon="12.44665533065749"><ele>645.0</ele><time>2026-04-23T12:01:05Z</time></trkpt><trkpt lat="46.28423922839201" lon="12.446489427935907"><ele>645.0</ele><time>2026-04-23T12:01:06Z</time></trkpt><trkpt lat="46.28436509268197" lon="12.446329930893278"><ele>645.0</ele><time>2026-04-23T12:01:07Z</time></trkpt><trkpt lat="46.2844815207251" lon="12.44615567721877"><ele>645.0</ele><time>2026-04-23T12:01:08Z</time></trkpt><trkpt lat="46.28460394780399" lon="12.445999208900073"><ele>644.6666666666666</ele><time>2026-04-23T12:01:09Z</time></trkpt><trkpt lat="46.284734073675786" lon="12.445860722411098"><ele>644.3333333333333</ele><time>2026-04-23T12:01:10Z</time></trkpt><trkpt lat="46.28485278536322" lon="12.445708454470122"><ele>644.0</ele><time>2026-04-23T12:01:11Z</time></trkpt><trkpt lat="46.28496805549694" lon="12.445555119479954"><ele>642.6666666666666</ele><time>2026-04-23T12:01:12Z</time></trkpt><trkpt lat="46.285080322225355" lon="12.445389109924559"><ele>641.3333333333334</ele><time>2026-04-23T12:01:13Z</time></trkpt><trkpt lat="46.28514564739994" lon="12.445172747218438"><ele>640.0</ele><time>2026-04-23T12:01:14Z</time></trkpt><trkpt lat="46.2852192366397" lon="12.444961655385294"><ele>640.0</ele><time>2026-04-23T12:01:15Z</time></trkpt><trkpt lat="46.28527463073527" lon="12.444735474525343"><ele>640.0</ele><time>2026-04-23T12:01:16Z</time></trkpt><trkpt lat="46.28532901142018" lon="12.444502531209993"><ele>640.0</ele><time>2026-04-23T12:01:17Z</time></trkpt><trkpt lat="46.28540144898122" lon="12.444278262962468"><ele>639.0</ele><time>2026-04-23T12:01:18Z</time></trkpt><trkpt lat="46.28545182952423" lon="12.444040855680964"><ele>638.0</ele><time>2026-04-23T12:01:19Z</time></trkpt><trkpt lat="46.285501961322865" lon="12.443804620561478"><ele>637.0</ele><time>2026-04-23T12:01:20Z</time></trkpt><trkpt lat="46.28553659408719" lon="12.443564094880227"><ele>636.6666666666667</ele><time>2026-04-23T12:01:21Z</time></trkpt><trkpt lat="46.285586807291736" lon="12.443333234593164"><ele>636.3333333333334</ele><time>2026-04-23T12:01:22Z</time></trkpt><trkpt lat="46.28563383825249" lon="12.443100435089175"><ele>636.0</ele><time>2026-04-23T12:01:23Z</time></trkpt><trkpt lat="46.28569775408445" lon="12.442875779050116"><ele>636.6666666666666</ele><time>2026-04-23T12:01:24Z</time></trkpt><trkpt lat="46.28574587440132" lon="12.442645278318588"><ele>637.3333333333333</ele><time>2026-04-23T12:01:25Z</time></trkpt><trkpt lat="46.285792455929716" lon="12.44241657275837"><ele>638.0</ele><time>2026-04-23T12:01:26Z</time></trkpt><trkpt lat="46.28583877352001" lon="12.44218556380323"><ele>637.3333333333333</ele><time>2026-04-23T12:01:27Z</time></trkpt><trkpt lat="46.28588405080813" lon="12.441954773456303"><ele>636.6666666666666</ele><time>2026-04-23T12:01:28Z</time></trkpt><trkpt lat="46.28591266827263" lon="12.441717568212981"><ele>636.0</ele><time>2026-04-23T12:01:29Z</time></trkpt><trkpt lat="46.28595898676693" lon="12.441486517895742"><ele>637.3333333333334</ele><time>2026-04-23T12:01:30Z</time></trkpt><trkpt lat="46.2860056359371" lon="12.441254856904322"><ele>638.6666666666667</ele><time>2026-04-23T12:01:31Z</time></trkpt><trkpt lat="46.28605129095334" lon="12.441023992455685"><ele>640.0</ele><time>2026-04-23T12:01:32Z</time></trkpt><trkpt lat="46.286095601165876" lon="12.44079088698698"><ele>640.0</ele><time>2026-04-23T12:01:33Z</time></trkpt><trkpt lat="46.28613934285092" lon="12.440557892437926"><ele>640.0</ele><time>2026-04-23T12:01:34Z</time></trkpt><trkpt lat="46.28618154344327" lon="12.44033645516507"><ele>640.0</ele><time>2026-04-23T12:01:35Z</time></trkpt><trkpt lat="46.28621988502051" lon="12.440125702919458"><ele>640.25</ele><time>2026-04-23T12:01:36Z</time></trkpt><trkpt lat="46.286257146581235" lon="12.439928068039654"><ele>640.5</ele><time>2026-04-23T12:01:37Z</time></trkpt><trkpt lat="46.286294806915215" lon="12.43974586683209"><ele>640.75</ele><time>2026-04-23T12:01:38Z</time></trkpt><trkpt lat="46.28632957791253" lon="12.43957690292377"><ele>641.0</ele><time>2026-04-23T12:01:39Z</time></trkpt><trkpt lat="46.28635947984026" lon="12.439419324345499"><ele>641.75</ele><time>2026-04-23T12:01:40Z</time></trkpt><trkpt lat="46.28638697662785" lon="12.439264687967743"><ele>642.5</ele><time>2026-04-23T12:01:41Z</time></trkpt><trkpt lat="46.28641268548936" lon="12.439104945565838"><ele>643.25</ele><time>2026-04-23T12:01:42Z</time></trkpt><trkpt lat="46.28645921015993" lon="12.438948549319415"><ele>644.0</ele><time>2026-04-23T12:01:43Z</time></trkpt><trkpt lat="46.28649179228867" lon="12.438782287804521"><ele>645.25</ele><time>2026-04-23T12:01:44Z</time></trkpt><trkpt lat="46.286525244682835" lon="12.4386120757131"><ele>646.5</ele><time>2026-04-23T12:01:45Z</time></trkpt><trkpt lat="46.28655973997169" lon="12.438438090743002"><ele>647.75</ele><time>2026-04-23T12:01:46Z</time></trkpt><trkpt lat="46.286582035289946" lon="12.438255530948066"><ele>649.0</ele><time>2026-04-23T12:01:47Z</time></trkpt><trkpt lat="46.286619683550214" lon="12.438074459381282"><ele>648.5</ele><time>2026-04-23T12:01:48Z</time></trkpt><trkpt lat="46.28666945520085" lon="12.437894642571512"><ele>648.0</ele><time>2026-04-23T12:01:49Z</time></trkpt><trkpt lat="46.28667953767876" lon="12.437701266113377"><ele>647.5</ele><time>2026-04-23T12:01:50Z</time></trkpt><trkpt lat="46.28669929179991" lon="12.437511000760647"><ele>647.0</ele><time>2026-04-23T12:01:51Z</time></trkpt><trkpt lat="46.286708219661044" lon="12.437317405515559"><ele>646.75</ele><time>2026-04-23T12:01:52Z</time></trkpt><trkpt lat="46.28670877467426" lon="12.437121211120916"><ele>646.5</ele><time>2026-04-23T12:01:53Z</time></trkpt><trkpt lat="46.28670506544601" lon="12.436923904796203"><ele>646.25</ele><time>2026-04-23T12:01:54Z</time></trkpt><trkpt lat="46.286702283798576" lon="12.436742256062118"><ele>646.0</ele><time>2026-04-23T12:01:55Z</time></trkpt><trkpt lat="46.28670223871452" lon="12.436570400925126"><ele>646.0</ele><time>2026-04-23T12:01:56Z</time></trkpt><trkpt lat="46.28670245223792" lon="12.436397605914113"><ele>646.0</ele><time>2026-04-23T12:01:57Z</time></trkpt><trkpt lat="46.28670525589885" lon="12.436225518145012"><ele>646.0</ele><time>2026-04-23T12:01:58Z</time></trkpt><trkpt lat="46.2867100380417" lon="12.436051028536202"><ele>646.0</ele><time>2026-04-23T12:01:59Z</time></trkpt><trkpt lat="46.28671865050541" lon="12.435875054657778"><ele>646.0</ele><time>2026-04-23T12:02:00Z</time></trkpt><trkpt lat="46.28673181259566" lon="12.435699456820199"><ele>646.0</ele><time>2026-04-23T12:02:01Z</time></trkpt><trkpt lat="46.28674648867596" lon="12.435522887050324"><ele>646.0</ele><time>2026-04-23T12:02:02Z</time></trkpt><trkpt lat="46.28678027423622" lon="12.435350171901083"><ele>646.0</ele><time>2026-04-23T12:02:03Z</time></trkpt><trkpt lat="46.286797763833526" lon="12.43517350988986"><ele>646.0</ele><time>2026-04-23T12:02:04Z</time></trkpt><trkpt lat="46.28680108036889" lon="12.434985801776927"><ele>646.0</ele><time>2026-04-23T12:02:05Z</time></trkpt><trkpt lat="46.28682120387319" lon="12.434805278156427"><ele>646.0</ele><time>2026-04-23T12:02:06Z</time></trkpt><trkpt lat="46.28683732343884" lon="12.434624899598715"><ele>646.0</ele><time>2026-04-23T12:02:07Z</time></trkpt><trkpt lat="46.28685056374422" lon="12.434444765102368"><ele>646.0</ele><time>2026-04-23T12:02:07.999Z</time></trkpt><trkpt lat="46.28688378557501" lon="12.434268919910826"><ele>646.0</ele><time>2026-04-23T12:02:08.999Z</time></trkpt><trkpt lat="46.286899952503916" lon="12.43408989000247"><ele>646.0</ele><time>2026-04-23T12:02:09.999Z</time></trkpt><trkpt lat="46.286915880791646" lon="12.433908705477837"><ele>646.0</ele><time>2026-04-23T12:02:10.999Z</time></trkpt><trkpt lat="46.286931851353856" lon="12.4337270405759"><ele>646.0</ele><time>2026-04-23T12:02:11.999Z</time></trkpt><trkpt lat="46.28694747878266" lon="12.433549278606437"><ele>646.0</ele><time>2026-04-23T12:02:12.999Z</time></trkpt><trkpt lat="46.286963188550544" lon="12.433370523935894"><ele>646.0</ele><time>2026-04-23T12:02:13.999Z</time></trkpt><trkpt lat="46.28697887665706" lon="12.433191731062355"><ele>646.0</ele><time>2026-04-23T12:02:14.999Z</time></trkpt><trkpt lat="46.28699509311098" lon="12.433006916767598"><ele>646.6666666666667</ele><time>2026-04-23T12:02:15.999Z</time></trkpt><trkpt lat="46.28701351757783" lon="12.43280701288241"><ele>647.3333333333334</ele><time>2026-04-23T12:02:16.999Z</time></trkpt><trkpt lat="46.28703579586331" lon="12.432574861612157"><ele>648.0</ele><time>2026-04-23T12:02:17.999Z</time></trkpt><trkpt lat="46.287061733785166" lon="12.43231527155267"><ele>650.3333333333334</ele><time>2026-04-23T12:02:18.999Z</time></trkpt><trkpt lat="46.287073074403125" lon="12.43204887413958"><ele>652.6666666666667</ele><time>2026-04-23T12:02:19.999Z</time></trkpt><trkpt lat="46.287111566823434" lon="12.431774450061221"><ele>655.0</ele><time>2026-04-23T12:02:20.999Z</time></trkpt><trkpt lat="46.28716289860509" lon="12.431503198168658"><ele>658.6666666666667</ele><time>2026-04-23T12:02:21.999Z</time></trkpt><trkpt lat="46.28722351367899" lon="12.431254252286102"><ele>662.3333333333334</ele><time>2026-04-23T12:02:22.999Z</time></trkpt><trkpt lat="46.28729518526276" lon="12.43103417002721"><ele>666.0</ele><time>2026-04-23T12:02:23.999Z</time></trkpt><trkpt lat="46.28738197889477" lon="12.430837684807782"><ele>666.0</ele><time>2026-04-23T12:02:24.999Z</time></trkpt><trkpt lat="46.28749420311261" lon="12.430687457361289"><ele>666.0</ele><time>2026-04-23T12:02:25.999Z</time></trkpt><trkpt lat="46.28760490368781" lon="12.430545950501822"><ele>666.0</ele><time>2026-04-23T12:02:26.999Z</time></trkpt><trkpt lat="46.28770540099057" lon="12.430400565168789"><ele>666.0</ele><time>2026-04-23T12:02:27.999Z</time></trkpt><trkpt lat="46.2878001028123" lon="12.430240005361405"><ele>668.3333333333334</ele><time>2026-04-23T12:02:28.999Z</time></trkpt><trkpt lat="46.28787227673679" lon="12.430022403932425"><ele>670.6666666666667</ele><time>2026-04-23T12:02:29.999Z</time></trkpt><trkpt lat="46.28790084931961" lon="12.42977616101291"><ele>673.0</ele><time>2026-04-23T12:02:30.999Z</time></trkpt><trkpt lat="46.28794329936884" lon="12.429518549922452"><ele>678.3333333333334</ele><time>2026-04-23T12:02:31.999Z</time></trkpt><trkpt lat="46.287950641363594" lon="12.429256398821115"><ele>683.6666666666666</ele><time>2026-04-23T12:02:32.999Z</time></trkpt><trkpt lat="46.2879074238842" lon="12.428998809684588"><ele>689.0</ele><time>2026-04-23T12:02:33.999Z</time></trkpt><trkpt lat="46.28785606535587" lon="12.428735477390948"><ele>693.3333333333333</ele><time>2026-04-23T12:02:34.999Z</time></trkpt><trkpt lat="46.28778838062476" lon="12.428486363515361"><ele>697.6666666666666</ele><time>2026-04-23T12:02:35.999Z</time></trkpt><trkpt lat="46.28773235100275" lon="12.428276237865157"><ele>702.0</ele><time>2026-04-23T12:02:36.999Z</time></trkpt><trkpt lat="46.28768239937382" lon="12.428108909111668"><ele>702.0</ele><time>2026-04-23T12:02:37.999Z</time></trkpt><trkpt lat="46.28762949546996" lon="12.428005298778727"><ele>702.0</ele><time>2026-04-23T12:02:38.999Z</time></trkpt><trkpt lat="46.28756113470317" lon="12.427953119693944"><ele>702.0</ele><time>2026-04-23T12:02:39.999Z</time></trkpt><trkpt lat="46.28747914663526" lon="12.427962343376548"><ele>702.0</ele><time>2026-04-23T12:02:40.999Z</time></trkpt><trkpt lat="46.28740222249956" lon="12.428057486220359"><ele>702.0</ele><time>2026-04-23T12:02:41.999Z</time></trkpt><trkpt lat="46.287344806982844" lon="12.428212015211084"><ele>702.0</ele><time>2026-04-23T12:02:42.999Z</time></trkpt><trkpt lat="46.28728903574257" lon="12.428387942337048"><ele>702.0</ele><time>2026-04-23T12:02:43.999Z</time></trkpt><trkpt lat="46.28723923503963" lon="12.428585939253972"><ele>702.0</ele><time>2026-04-23T12:02:45.001Z</time></trkpt><trkpt lat="46.28719283836723" lon="12.428777744643606"><ele>702.0</ele><time>2026-04-23T12:02:46.001Z</time></trkpt><trkpt lat="46.28715416828694" lon="12.428927672864916"><ele>707.6</ele><time>2026-04-23T12:02:47.001Z</time></trkpt><trkpt lat="46.287117827376996" lon="12.429031354186671"><ele>713.2</ele><time>2026-04-23T12:02:48.001Z</time></trkpt><trkpt lat="46.28700825600559" lon="12.429016832587564"><ele>718.8</ele><time>2026-04-23T12:02:50.001Z</time></trkpt><trkpt lat="46.28698055888418" lon="12.428927507187625"><ele>724.4</ele><time>2026-04-23T12:02:51.001Z</time></trkpt><trkpt lat="46.2870389482592" lon="12.428737874367172"><ele>730.0</ele><time>2026-04-23T12:02:53.001Z</time></trkpt><trkpt lat="46.28709351870041" lon="12.428589817739285"><ele>733.0</ele><time>2026-04-23T12:02:54.001Z</time></trkpt><trkpt lat="46.287145981388306" lon="12.428407188301547"><ele>736.0</ele><time>2026-04-23T12:02:55.001Z</time></trkpt><trkpt lat="46.287190188392" lon="12.428201847420953"><ele>739.0</ele><time>2026-04-23T12:02:56.001Z</time></trkpt><trkpt lat="46.28722529715575" lon="12.427972899842212"><ele>742.0</ele><time>2026-04-23T12:02:57.001Z</time></trkpt><trkpt lat="46.28723536732501" lon="12.427727269746256"><ele>742.3333333333334</ele><time>2026-04-23T12:02:58Z</time></trkpt><trkpt lat="46.28722224339947" lon="12.427468091254084"><ele>742.6666666666666</ele><time>2026-04-23T12:02:59Z</time></trkpt><trkpt lat="46.287183420140465" lon="12.42720569062536"><ele>743.0</ele><time>2026-04-23T12:03:00Z</time></trkpt><trkpt lat="46.28711664941509" lon="12.426945710754266"><ele>742.3333333333333</ele><time>2026-04-23T12:03:01Z</time></trkpt><trkpt lat="46.28702848686641" lon="12.426695060904912"><ele>741.6666666666666</ele><time>2026-04-23T12:03:02Z</time></trkpt><trkpt lat="46.28693950049702" lon="12.426472079974635"><ele>741.0</ele><time>2026-04-23T12:03:03Z</time></trkpt><trkpt lat="46.28688494424352" lon="12.426251782253297"><ele>741.0</ele><time>2026-04-23T12:03:04Z</time></trkpt><trkpt lat="46.286868830692256" lon="12.426026578139945"><ele>741.0</ele><time>2026-04-23T12:03:05Z</time></trkpt><trkpt lat="46.286916791928014" lon="12.425816935953769"><ele>741.0</ele><time>2026-04-23T12:03:06Z</time></trkpt><trkpt lat="46.28696985355069" lon="12.425597547367225"><ele>743.0</ele><time>2026-04-23T12:03:07Z</time></trkpt><trkpt lat="46.287003497088705" lon="12.425352540274869"><ele>745.0</ele><time>2026-04-23T12:03:08Z</time></trkpt><trkpt lat="46.287024427877164" lon="12.425092656590442"><ele>747.0</ele><time>2026-04-23T12:03:09Z</time></trkpt><trkpt lat="46.28701915766871" lon="12.42482091725618"><ele>748.0</ele><time>2026-04-23T12:03:10Z</time></trkpt><trkpt lat="46.286999512153585" lon="12.42459100456143"><ele>749.0</ele><time>2026-04-23T12:03:11Z</time></trkpt><trkpt lat="46.28698565951608" lon="12.424403425508473"><ele>750.0</ele><time>2026-04-23T12:03:12Z</time></trkpt><trkpt lat="46.286999226923776" lon="12.424247323541003"><ele>751.0</ele><time>2026-04-23T12:03:13Z</time></trkpt><trkpt lat="46.287046544274475" lon="12.424128507427596"><ele>751.0</ele><time>2026-04-23T12:03:14Z</time></trkpt><trkpt lat="46.287133381247244" lon="12.42408456512757"><ele>751.0</ele><time>2026-04-23T12:03:15Z</time></trkpt><trkpt lat="46.28723080198465" lon="12.424115684199455"><ele>751.0</ele><time>2026-04-23T12:03:16Z</time></trkpt><trkpt lat="46.28728484190294" lon="12.42420674739822"><ele>751.0</ele><time>2026-04-23T12:03:17Z</time></trkpt><trkpt lat="46.28731427521038" lon="12.424345939080625"><ele>751.0</ele><time>2026-04-23T12:03:18Z</time></trkpt><trkpt lat="46.28733855397302" lon="12.424484352719114"><ele>750.5</ele><time>2026-04-23T12:03:19Z</time></trkpt><trkpt lat="46.28736392959687" lon="12.424629962979578"><ele>750.0</ele><time>2026-04-23T12:03:20Z</time></trkpt><trkpt lat="46.28741083944249" lon="12.42473559500098"><ele>749.5</ele><time>2026-04-23T12:03:21Z</time></trkpt><trkpt lat="46.287476849153975" lon="12.424797325224095"><ele>749.0</ele><time>2026-04-23T12:03:22Z</time></trkpt><trkpt lat="46.28755381572229" lon="12.424807012875812"><ele>748.5</ele><time>2026-04-23T12:03:23Z</time></trkpt><trkpt lat="46.28761702385695" lon="12.424740653626456"><ele>748.0</ele><time>2026-04-23T12:03:24Z</time></trkpt><trkpt lat="46.28764689832559" lon="12.424629837843467"><ele>748.0</ele><time>2026-04-23T12:03:25Z</time></trkpt><trkpt lat="46.2876319355902" lon="12.424493840634058"><ele>748.0</ele><time>2026-04-23T12:03:26Z</time></trkpt><trkpt lat="46.287572981809205" lon="12.424339365426794"><ele>748.0</ele><time>2026-04-23T12:03:27Z</time></trkpt><trkpt lat="46.287509402417456" lon="12.424181552655165"><ele>748.0</ele><time>2026-04-23T12:03:28Z</time></trkpt><trkpt lat="46.28742806293156" lon="12.424010975342396"><ele>748.0</ele><time>2026-04-23T12:03:29Z</time></trkpt><trkpt lat="46.28732422788793" lon="12.423835663156233"><ele>748.0</ele><time>2026-04-23T12:03:30Z</time></trkpt><trkpt lat="46.28723020788716" lon="12.423644430718996"><ele>748.0</ele><time>2026-04-23T12:03:31Z</time></trkpt><trkpt lat="46.28717787997031" lon="12.423446131795497"><ele>748.25</ele><time>2026-04-23T12:03:32Z</time></trkpt><trkpt lat="46.28713543771564" lon="12.423255667953393"><ele>748.5</ele><time>2026-04-23T12:03:33Z</time></trkpt><trkpt lat="46.28709438502462" lon="12.423068722623524"><ele>748.75</ele><time>2026-04-23T12:03:34Z</time></trkpt><trkpt lat="46.287049764526415" lon="12.422869031755093"><ele>749.0</ele><time>2026-04-23T12:03:35Z</time></trkpt><trkpt lat="46.286999304798776" lon="12.422643208508505"><ele>751.6666666666666</ele><time>2026-04-23T12:03:36Z</time></trkpt><trkpt lat="46.28693846984411" lon="12.422402980780904"><ele>754.3333333333334</ele><time>2026-04-23T12:03:37Z</time></trkpt><trkpt lat="46.2869400022159" lon="12.422127696848344"><ele>757.0</ele><time>2026-04-23T12:03:38Z</time></trkpt><trkpt lat="46.28694034680882" lon="12.421841746715748"><ele>760.3333333333334</ele><time>2026-04-23T12:03:39Z</time></trkpt><trkpt lat="46.28694166572674" lon="12.421557180343056"><ele>763.6666666666666</ele><time>2026-04-23T12:03:40Z</time></trkpt><trkpt lat="46.286941514720574" lon="12.421309045886908"><ele>767.0</ele><time>2026-04-23T12:03:41Z</time></trkpt><trkpt lat="46.28692989446255" lon="12.421065505352937"><ele>769.6666666666666</ele><time>2026-04-23T12:03:42Z</time></trkpt><trkpt lat="46.28688919880834" lon="12.42082777818059"><ele>772.3333333333333</ele><time>2026-04-23T12:03:43Z</time></trkpt><trkpt lat="46.28680380442683" lon="12.420607030795082"><ele>775.0</ele><time>2026-04-23T12:03:44Z</time></trkpt><trkpt lat="46.286713509549145" lon="12.420409472964256"><ele>779.0</ele><time>2026-04-23T12:03:45Z</time></trkpt><trkpt lat="46.28664237966624" lon="12.42020176432442"><ele>783.0</ele><time>2026-04-23T12:03:46Z</time></trkpt><trkpt lat="46.28662016754739" lon="12.4199787737387"><ele>787.0</ele><time>2026-04-23T12:03:47Z</time></trkpt><trkpt lat="46.28658794651431" lon="12.419773904069896"><ele>787.3333333333333</ele><time>2026-04-23T12:03:48Z</time></trkpt><trkpt lat="46.28652316196987" lon="12.419573291511742"><ele>787.6666666666667</ele><time>2026-04-23T12:03:49Z</time></trkpt><trkpt lat="46.28641669739624" lon="12.419408936795778"><ele>788.0</ele><time>2026-04-23T12:03:50Z</time></trkpt><trkpt lat="46.28629356634162" lon="12.419290805339877"><ele>788.0</ele><time>2026-04-23T12:03:51Z</time></trkpt><trkpt lat="46.286228670285425" lon="12.419139479885573"><ele>788.0</ele><time>2026-04-23T12:03:52Z</time></trkpt><trkpt lat="46.28618582514866" lon="12.41898886792339"><ele>788.0</ele><time>2026-04-23T12:03:53Z</time></trkpt><trkpt lat="46.28617510141332" lon="12.418804786688497"><ele>788.0</ele><time>2026-04-23T12:03:54Z</time></trkpt><trkpt lat="46.28620848714853" lon="12.418608806408383"><ele>790.3333333333334</ele><time>2026-04-23T12:03:55Z</time></trkpt><trkpt lat="46.286262234137084" lon="12.418386921467262"><ele>792.6666666666667</ele><time>2026-04-23T12:03:56Z</time></trkpt><trkpt lat="46.286320042336435" lon="12.41814308542697"><ele>795.0</ele><time>2026-04-23T12:03:57Z</time></trkpt><trkpt lat="46.286384727554726" lon="12.41787793379845"><ele>797.0</ele><time>2026-04-23T12:03:58Z</time></trkpt><trkpt lat="46.28644587485632" lon="12.417615602075598"><ele>799.0</ele><time>2026-04-23T12:03:59Z</time></trkpt><trkpt lat="46.28649899678201" lon="12.417389355484973"><ele>801.0</ele><time>2026-04-23T12:04:00Z</time></trkpt><trkpt lat="46.28652714880215" lon="12.417172231829554"><ele>802.0</ele><time>2026-04-23T12:04:01Z</time></trkpt><trkpt lat="46.286509009056175" lon="12.416921862254922"><ele>803.0</ele><time>2026-04-23T12:04:02Z</time></trkpt><trkpt lat="46.28646122175578" lon="12.416654273035645"><ele>804.0</ele><time>2026-04-23T12:04:03Z</time></trkpt><trkpt lat="46.28649584212379" lon="12.416360335296973"><ele>803.6666666666667</ele><time>2026-04-23T12:04:04Z</time></trkpt><trkpt lat="46.286495185892605" lon="12.416049539270091"><ele>803.3333333333334</ele><time>2026-04-23T12:04:05Z</time></trkpt><trkpt lat="46.28649325141067" lon="12.415735734327757"><ele>803.0</ele><time>2026-04-23T12:04:06Z</time></trkpt><trkpt lat="46.2864635666536" lon="12.41540151508616"><ele>800.0</ele><time>2026-04-23T12:04:07Z</time></trkpt><trkpt lat="46.2864271820917" lon="12.41506151846627"><ele>797.0</ele><time>2026-04-23T12:04:08Z</time></trkpt><trkpt lat="46.286352460840355" lon="12.414721701134503"><ele>798.5</ele><time>2026-04-23T12:04:08.999Z</time></trkpt><trkpt lat="46.28628704317753" lon="12.414380579220209"><ele>800.0</ele><time>2026-04-23T12:04:09.999Z</time></trkpt><trkpt lat="46.28623155812761" lon="12.414077023668746"><ele>799.3333333333334</ele><time>2026-04-23T12:04:10.999Z</time></trkpt><trkpt lat="46.28619926534521" lon="12.413788714728042"><ele>798.6666666666667</ele><time>2026-04-23T12:04:11.999Z</time></trkpt><trkpt lat="46.286221359184836" lon="12.413474151855484"><ele>798.0</ele><time>2026-04-23T12:04:12.999Z</time></trkpt><trkpt lat="46.28621734743639" lon="12.413165440468045"><ele>801.0</ele><time>2026-04-23T12:04:13.999Z</time></trkpt><trkpt lat="46.28620978706457" lon="12.412907035404247"><ele>804.0</ele><time>2026-04-23T12:04:14.999Z</time></trkpt><trkpt lat="46.28619259673971" lon="12.412624741714373"><ele>807.0</ele><time>2026-04-23T12:04:15.999Z</time></trkpt><trkpt lat="46.28611321073399" lon="12.412331389165272"><ele>812.5</ele><time>2026-04-23T12:04:16.999Z</time></trkpt><trkpt lat="46.28599471286147" lon="12.41205096814403"><ele>818.0</ele><time>2026-04-23T12:04:17.999Z</time></trkpt><trkpt lat="46.285896742987696" lon="12.411740093529032"><ele>818.0</ele><time>2026-04-23T12:04:18.999Z</time></trkpt><trkpt lat="46.28581384570089" lon="12.411406070563178"><ele>818.0</ele><time>2026-04-23T12:04:19.999Z</time></trkpt><trkpt lat="46.28573173251864" lon="12.41106176685506"><ele>820.0</ele><time>2026-04-23T12:04:20.999Z</time></trkpt><trkpt lat="46.28565264365706" lon="12.410723280356734"><ele>822.0</ele><time>2026-04-23T12:04:21.999Z</time></trkpt><trkpt lat="46.28558144595456" lon="12.410423063202598"><ele>830.0</ele><time>2026-04-23T12:04:22.999Z</time></trkpt><trkpt lat="46.28551734728818" lon="12.410157157029799"><ele>838.0</ele><time>2026-04-23T12:04:23.999Z</time></trkpt><trkpt lat="46.28546544378309" lon="12.409910212201718"><ele>846.0</ele><time>2026-04-23T12:04:24.999Z</time></trkpt><trkpt lat="46.28543357793615" lon="12.409664702198457"><ele>846.6666666666667</ele><time>2026-04-23T12:04:25.999Z</time></trkpt><trkpt lat="46.28542279018553" lon="12.409391376295417"><ele>847.3333333333334</ele><time>2026-04-23T12:04:26.999Z</time></trkpt><trkpt lat="46.285426623267995" lon="12.4091018999678"><ele>848.0</ele><time>2026-04-23T12:04:27.999Z</time></trkpt><trkpt lat="46.285434805754754" lon="12.408813349621933"><ele>848.0</ele><time>2026-04-23T12:04:28.999Z</time></trkpt><trkpt lat="46.285442274057466" lon="12.40857465692314"><ele>848.0</ele><time>2026-04-23T12:04:29.999Z</time></trkpt><trkpt lat="46.285462809459055" lon="12.408369492073568"><ele>848.0</ele><time>2026-04-23T12:04:30.999Z</time></trkpt><trkpt lat="46.28551441433083" lon="12.408170895805691"><ele>839.3333333333334</ele><time>2026-04-23T12:04:31.999Z</time></trkpt><trkpt lat="46.285616391663595" lon="12.407985196793891"><ele>830.6666666666667</ele><time>2026-04-23T12:04:32.999Z</time></trkpt><trkpt lat="46.28572562159742" lon="12.407790605692576"><ele>822.0</ele><time>2026-04-23T12:04:33.999Z</time></trkpt><trkpt lat="46.28583437961513" lon="12.407597248557694"><ele>822.0</ele><time>2026-04-23T12:04:34.999Z</time></trkpt><trkpt lat="46.28592239831965" lon="12.40740789695151"><ele>822.0</ele><time>2026-04-23T12:04:35.999Z</time></trkpt><trkpt lat="46.28602091420295" lon="12.407263040485926"><ele>822.0</ele><time>2026-04-23T12:04:36.999Z</time></trkpt><trkpt lat="46.28613879872471" lon="12.407157221492158"><ele>822.0</ele><time>2026-04-23T12:04:37.999Z</time></trkpt><trkpt lat="46.28628637195975" lon="12.407099425095575"><ele>820.25</ele><time>2026-04-23T12:04:38.999Z</time></trkpt><trkpt lat="46.286440631424256" lon="12.40708286589757"><ele>818.5</ele><time>2026-04-23T12:04:39.999Z</time></trkpt><trkpt lat="46.28659295625418" lon="12.407114695708978"><ele>816.75</ele><time>2026-04-23T12:04:40.999Z</time></trkpt><trkpt lat="46.286714133061224" lon="12.407150868008697"><ele>815.0</ele><time>2026-04-23T12:04:41.999Z</time></trkpt><trkpt lat="46.286827983919245" lon="12.407214934332208"><ele>815.0</ele><time>2026-04-23T12:04:42.999Z</time></trkpt><trkpt lat="46.28693269096953" lon="12.4072246033872"><ele>815.0</ele><time>2026-04-23T12:04:43.999Z</time></trkpt><trkpt lat="46.28704035949691" lon="12.407166545264296"><ele>815.0</ele><time>2026-04-23T12:04:44.999Z</time></trkpt><trkpt lat="46.28708581657011" lon="12.40698358780923"><ele>815.0</ele><time>2026-04-23T12:04:45.999Z</time></trkpt><trkpt lat="46.28708518554975" lon="12.406850794829166"><ele>815.0</ele><time>2026-04-23T12:04:46.999Z</time></trkpt><trkpt lat="46.287020581379096" lon="12.406717836931774"><ele>815.0</ele><time>2026-04-23T12:04:47.999Z</time></trkpt><trkpt lat="46.28691539905631" lon="12.406592961043533"><ele>815.0</ele><time>2026-04-23T12:04:48.999Z</time></trkpt><trkpt lat="46.286774079619185" lon="12.406537103436538"><ele>815.0</ele><time>2026-04-23T12:04:49.999Z</time></trkpt><trkpt lat="46.28663271462242" lon="12.406472882153103"><ele>815.0</ele><time>2026-04-23T12:04:51Z</time></trkpt><trkpt lat="46.28648285459382" lon="12.406371768045153"><ele>815.0</ele><time>2026-04-23T12:04:52.001Z</time></trkpt><trkpt lat="46.28631027572363" lon="12.406230924486069"><ele>815.0</ele><time>2026-04-23T12:04:53Z</time></trkpt><trkpt lat="46.28612785137642" lon="12.40605150452833"><ele>815.0</ele><time>2026-04-23T12:04:54Z</time></trkpt><trkpt lat="46.285967573413366" lon="12.405875378023653"><ele>815.0</ele><time>2026-04-23T12:04:55.001Z</time></trkpt><trkpt lat="46.285820479704356" lon="12.405694595383524"><ele>815.0</ele><time>2026-04-23T12:04:56Z</time></trkpt><trkpt lat="46.28567936193142" lon="12.405482539896926"><ele>815.0</ele><time>2026-04-23T12:04:57Z</time></trkpt><trkpt lat="46.28554422344552" lon="12.405242535670109"><ele>813.6666666666667</ele><time>2026-04-23T12:04:58.001Z</time></trkpt><trkpt lat="46.28541735447084" lon="12.404988084043294"><ele>812.3333333333333</ele><time>2026-04-23T12:04:59Z</time></trkpt><trkpt lat="46.285301901740844" lon="12.40474894377872"><ele>811.0</ele><time>2026-04-23T12:05:00Z</time></trkpt><trkpt lat="46.28519618354248" lon="12.404523252742925"><ele>810.6666666666666</ele><time>2026-04-23T12:05:01Z</time></trkpt><trkpt lat="46.28509603947296" lon="12.40429518079978"><ele>810.3333333333333</ele><time>2026-04-23T12:05:02Z</time></trkpt><trkpt lat="46.285030128818185" lon="12.404040913531029"><ele>810.0</ele><time>2026-04-23T12:05:03Z</time></trkpt><trkpt lat="46.28495369886184" lon="12.403789501322871"><ele>810.6666666666667</ele><time>2026-04-23T12:05:04Z</time></trkpt><trkpt lat="46.284889183720466" lon="12.403509339160209"><ele>811.3333333333334</ele><time>2026-04-23T12:05:05Z</time></trkpt><trkpt lat="46.28481916937001" lon="12.40322821434942"><ele>812.0</ele><time>2026-04-23T12:05:06Z</time></trkpt><trkpt lat="46.28474884944601" lon="12.402951930461445"><ele>817.3333333333334</ele><time>2026-04-23T12:05:07Z</time></trkpt><trkpt lat="46.284682933969115" lon="12.402684686573958"><ele>822.6666666666667</ele><time>2026-04-23T12:05:08Z</time></trkpt><trkpt lat="46.284625755553414" lon="12.402432901349963"><ele>828.0</ele><time>2026-04-23T12:05:08.999Z</time></trkpt><trkpt lat="46.28457757846867" lon="12.402186858308587"><ele>824.0</ele><time>2026-04-23T12:05:09.999Z</time></trkpt><trkpt lat="46.28454972335834" lon="12.401940776705802"><ele>820.0</ele><time>2026-04-23T12:05:10.999Z</time></trkpt><trkpt lat="46.28453182987908" lon="12.401692496790615"><ele>816.0</ele><time>2026-04-23T12:05:11.999Z</time></trkpt><trkpt lat="46.28451173581683" lon="12.401460095990805"><ele>814.0</ele><time>2026-04-23T12:05:12.999Z</time></trkpt><trkpt lat="46.28448028667441" lon="12.401227178877294"><ele>812.0</ele><time>2026-04-23T12:05:13.999Z</time></trkpt><trkpt lat="46.28438677982419" lon="12.40103287115612"><ele>810.0</ele><time>2026-04-23T12:05:14.999Z</time></trkpt><trkpt lat="46.284285536242464" lon="12.400854117330484"><ele>810.0</ele><time>2026-04-23T12:05:15.999Z</time></trkpt><trkpt lat="46.2841499940076" lon="12.400685089137786"><ele>810.0</ele><time>2026-04-23T12:05:16.999Z</time></trkpt><trkpt lat="46.283994727338666" lon="12.400513858020751"><ele>810.0</ele><time>2026-04-23T12:05:17.999Z</time></trkpt><trkpt lat="46.2838414365742" lon="12.400326593213666"><ele>808.6666666666667</ele><time>2026-04-23T12:05:18.999Z</time></trkpt><trkpt lat="46.28369675033577" lon="12.40011617192784"><ele>807.3333333333334</ele><time>2026-04-23T12:05:19.999Z</time></trkpt><trkpt lat="46.28356512605912" lon="12.39990650842197"><ele>806.0</ele><time>2026-04-23T12:05:20.999Z</time></trkpt><trkpt lat="46.28343865843963" lon="12.399705958268159"><ele>805.6666666666667</ele><time>2026-04-23T12:05:21.999Z</time></trkpt><trkpt lat="46.28331174693493" lon="12.399520063753396"><ele>805.3333333333333</ele><time>2026-04-23T12:05:22.999Z</time></trkpt><trkpt lat="46.28318086730503" lon="12.39934620609632"><ele>805.0</ele><time>2026-04-23T12:05:23.999Z</time></trkpt><trkpt lat="46.28304116654766" lon="12.399170679575104"><ele>802.6666666666666</ele><time>2026-04-23T12:05:24.999Z</time></trkpt><trkpt lat="46.28290154016983" lon="12.398990450992162"><ele>800.3333333333333</ele><time>2026-04-23T12:05:25.999Z</time></trkpt><trkpt lat="46.28276147197044" lon="12.39880735637577"><ele>798.0</ele><time>2026-04-23T12:05:26.999Z</time></trkpt><trkpt lat="46.282618614527124" lon="12.398625783792477"><ele>798.3333333333333</ele><time>2026-04-23T12:05:27.999Z</time></trkpt><trkpt lat="46.28247370271075" lon="12.398446001332818"><ele>798.6666666666666</ele><time>2026-04-23T12:05:28.999Z</time></trkpt><trkpt lat="46.28232657458842" lon="12.398262916951934"><ele>799.0</ele><time>2026-04-23T12:05:30Z</time></trkpt><trkpt lat="46.282177900126705" lon="12.398085297143089"><ele>795.3333333333333</ele><time>2026-04-23T12:05:31Z</time></trkpt><trkpt lat="46.28202750149322" lon="12.397910383578255"><ele>791.6666666666667</ele><time>2026-04-23T12:05:32Z</time></trkpt><trkpt lat="46.281880818710974" lon="12.397739476240691"><ele>788.0</ele><time>2026-04-23T12:05:33Z</time></trkpt><trkpt lat="46.281753059010576" lon="12.397557980015529"><ele>788.0</ele><time>2026-04-23T12:05:34Z</time></trkpt><trkpt lat="46.28164236562111" lon="12.397360338009468"><ele>788.0</ele><time>2026-04-23T12:05:35Z</time></trkpt><trkpt lat="46.28155051615337" lon="12.397119756784777"><ele>788.0</ele><time>2026-04-23T12:05:36Z</time></trkpt><trkpt lat="46.28146290965097" lon="12.396853323656684"><ele>785.6666666666667</ele><time>2026-04-23T12:05:37Z</time></trkpt><trkpt lat="46.28137208454642" lon="12.396569281343584"><ele>783.3333333333333</ele><time>2026-04-23T12:05:38Z</time></trkpt><trkpt lat="46.28127213226433" lon="12.396287655602263"><ele>781.0</ele><time>2026-04-23T12:05:39Z</time></trkpt><trkpt lat="46.281165170911684" lon="12.395992738344281"><ele>778.5</ele><time>2026-04-23T12:05:40Z</time></trkpt><trkpt lat="46.28105777163574" lon="12.395703598247339"><ele>776.0</ele><time>2026-04-23T12:05:41Z</time></trkpt><trkpt lat="46.28093944142243" lon="12.395408976184518"><ele>776.0</ele><time>2026-04-23T12:05:42Z</time></trkpt><trkpt lat="46.280809124724655" lon="12.395111510167343"><ele>776.0</ele><time>2026-04-23T12:05:43Z</time></trkpt><trkpt lat="46.280686288082684" lon="12.3948265777894"><ele>774.5</ele><time>2026-04-23T12:05:44Z</time></trkpt><trkpt lat="46.28055257852323" lon="12.394572788769942"><ele>773.0</ele><time>2026-04-23T12:05:45Z</time></trkpt><trkpt lat="46.28039138281105" lon="12.394331671030214"><ele>773.0</ele><time>2026-04-23T12:05:46Z</time></trkpt><trkpt lat="46.28022223915096" lon="12.394089261470048"><ele>773.0</ele><time>2026-04-23T12:05:47Z</time></trkpt><trkpt lat="46.28006093744128" lon="12.393857209979434"><ele>767.3333333333334</ele><time>2026-04-23T12:05:48Z</time></trkpt><trkpt lat="46.27990285791257" lon="12.393632887595606"><ele>761.6666666666667</ele><time>2026-04-23T12:05:49Z</time></trkpt><trkpt lat="46.27976119306109" lon="12.393430457668039"><ele>756.0</ele><time>2026-04-23T12:05:49.999Z</time></trkpt><trkpt lat="46.27963697632747" lon="12.393238113992204"><ele>756.0</ele><time>2026-04-23T12:05:50.999Z</time></trkpt><trkpt lat="46.27953173003767" lon="12.393038819954604"><ele>756.0</ele><time>2026-04-23T12:05:51.999Z</time></trkpt><trkpt lat="46.27944868177241" lon="12.39279881743392"><ele>756.0</ele><time>2026-04-23T12:05:52.999Z</time></trkpt><trkpt lat="46.27938853060361" lon="12.392535076538524"><ele>759.0</ele><time>2026-04-23T12:05:53.999Z</time></trkpt><trkpt lat="46.279334467805974" lon="12.392283955806892"><ele>762.0</ele><time>2026-04-23T12:05:54.999Z</time></trkpt><trkpt lat="46.27927131798065" lon="12.392041223669997"><ele>765.0</ele><time>2026-04-23T12:05:55.999Z</time></trkpt><trkpt lat="46.27916988489768" lon="12.391808959233455"><ele>762.6666666666666</ele><time>2026-04-23T12:05:56.999Z</time></trkpt><trkpt lat="46.279031946271274" lon="12.391568936223203"><ele>760.3333333333333</ele><time>2026-04-23T12:05:57.999Z</time></trkpt><trkpt lat="46.278883989012" lon="12.391314570455318"><ele>758.0</ele><time>2026-04-23T12:05:58.999Z</time></trkpt><trkpt lat="46.278748034483314" lon="12.391079075596274"><ele>758.0</ele><time>2026-04-23T12:05:59.999Z</time></trkpt><trkpt lat="46.27861819039148" lon="12.390854762017472"><ele>758.0</ele><time>2026-04-23T12:06:00.999Z</time></trkpt><trkpt lat="46.27849022548385" lon="12.390669104251343"><ele>758.0</ele><time>2026-04-23T12:06:01.999Z</time></trkpt><trkpt lat="46.27837359208277" lon="12.390505037102939"><ele>754.0</ele><time>2026-04-23T12:06:02.999Z</time></trkpt><trkpt lat="46.27824597032474" lon="12.390370819848117"><ele>750.0</ele><time>2026-04-23T12:06:03.999Z</time></trkpt><trkpt lat="46.27810748161813" lon="12.390274144142193"><ele>746.0</ele><time>2026-04-23T12:06:04.999Z</time></trkpt><trkpt lat="46.27798003195302" lon="12.39020419434259"><ele>742.0</ele><time>2026-04-23T12:06:05.999Z</time></trkpt><trkpt lat="46.277865682470555" lon="12.390156726483719"><ele>742.0</ele><time>2026-04-23T12:06:06.999Z</time></trkpt><trkpt lat="46.2777635781612" lon="12.390105179274727"><ele>742.0</ele><time>2026-04-23T12:06:07.999Z</time></trkpt><trkpt lat="46.277680798253634" lon="12.38999430860781"><ele>742.0</ele><time>2026-04-23T12:06:08.999Z</time></trkpt><trkpt lat="46.277671993817215" lon="12.38987312562549"><ele>742.0</ele><time>2026-04-23T12:06:09.999Z</time></trkpt><trkpt lat="46.277671741153" lon="12.389713983181746"><ele>742.0</ele><time>2026-04-23T12:06:10.999Z</time></trkpt><trkpt lat="46.277670598707424" lon="12.389492223149048"><ele>746.75</ele><time>2026-04-23T12:06:11.999Z</time></trkpt><trkpt lat="46.277622318952126" lon="12.389300795287314"><ele>751.5</ele><time>2026-04-23T12:06:12.999Z</time></trkpt><trkpt lat="46.27752937527938" lon="12.389148426159107"><ele>756.25</ele><time>2026-04-23T12:06:13.999Z</time></trkpt><trkpt lat="46.27747420501653" lon="12.388977020638983"><ele>761.0</ele><time>2026-04-23T12:06:14.999Z</time></trkpt><trkpt lat="46.277445774184876" lon="12.38876867507068"><ele>763.3333333333333</ele><time>2026-04-23T12:06:15.999Z</time></trkpt><trkpt lat="46.2774406176728" lon="12.388535507476995"><ele>765.6666666666666</ele><time>2026-04-23T12:06:16.999Z</time></trkpt><trkpt lat="46.27744151216535" lon="12.388283267047058"><ele>768.0</ele><time>2026-04-23T12:06:17.999Z</time></trkpt><trkpt lat="46.27738760551028" lon="12.388036508265948"><ele>768.6666666666667</ele><time>2026-04-23T12:06:18.999Z</time></trkpt><trkpt lat="46.277346759584816" lon="12.387747708189577"><ele>769.3333333333334</ele><time>2026-04-23T12:06:19.999Z</time></trkpt><trkpt lat="46.27737346385049" lon="12.387453135539289"><ele>770.0</ele><time>2026-04-23T12:06:20.999Z</time></trkpt><trkpt lat="46.27738781076959" lon="12.387144968718323"><ele>771.3333333333334</ele><time>2026-04-23T12:06:21.999Z</time></trkpt><trkpt lat="46.27736753761614" lon="12.386872071635642"><ele>772.6666666666667</ele><time>2026-04-23T12:06:22.999Z</time></trkpt><trkpt lat="46.27734683626419" lon="12.386643622806252"><ele>774.0</ele><time>2026-04-23T12:06:23.999Z</time></trkpt><trkpt lat="46.27729878314212" lon="12.386455175846638"><ele>761.3333333333334</ele><time>2026-04-23T12:06:24.999Z</time></trkpt><trkpt lat="46.2772007018135" lon="12.386240998523446"><ele>748.6666666666667</ele><time>2026-04-23T12:06:25.999Z</time></trkpt><trkpt lat="46.27709627414614" lon="12.386037242962379"><ele>736.0</ele><time>2026-04-23T12:06:26.999Z</time></trkpt><trkpt lat="46.27703073866786" lon="12.385828378513803"><ele>736.0</ele><time>2026-04-23T12:06:27.999Z</time></trkpt><trkpt lat="46.277007490442344" lon="12.385603423064516"><ele>736.0</ele><time>2026-04-23T12:06:28.999Z</time></trkpt><trkpt lat="46.27697411072064" lon="12.385319490326475"><ele>736.0</ele><time>2026-04-23T12:06:29.999Z</time></trkpt><trkpt lat="46.276897474523906" lon="12.385031668597708"><ele>738.6666666666667</ele><time>2026-04-23T12:06:30.999Z</time></trkpt><trkpt lat="46.276831940243355" lon="12.384756736666146"><ele>741.3333333333334</ele><time>2026-04-23T12:06:31.999Z</time></trkpt><trkpt lat="46.276771380843414" lon="12.384532470004254"><ele>744.0</ele><time>2026-04-23T12:06:32.999Z</time></trkpt><trkpt lat="46.27674130109826" lon="12.38435384124864"><ele>745.0</ele><time>2026-04-23T12:06:33.999Z</time></trkpt><trkpt lat="46.27676946301053" lon="12.384215693080488"><ele>746.0</ele><time>2026-04-23T12:06:34.999Z</time></trkpt><trkpt lat="46.276828810579104" lon="12.384097125837618"><ele>747.0</ele><time>2026-04-23T12:06:35.999Z</time></trkpt><trkpt lat="46.27690386493534" lon="12.383917926085767"><ele>748.0</ele><time>2026-04-23T12:06:36.999Z</time></trkpt><trkpt lat="46.276976720608054" lon="12.383712553941399"><ele>744.0</ele><time>2026-04-23T12:06:37.999Z</time></trkpt><trkpt lat="46.277074873061856" lon="12.383512838758312"><ele>740.0</ele><time>2026-04-23T12:06:38.999Z</time></trkpt><trkpt lat="46.27716207342857" lon="12.38333029968733"><ele>736.0</ele><time>2026-04-23T12:06:39.999Z</time></trkpt><trkpt lat="46.277243273613394" lon="12.383159520183648"><ele>747.0</ele><time>2026-04-23T12:06:40.999Z</time></trkpt><trkpt lat="46.277293742207455" lon="12.382950860899108"><ele>758.0</ele><time>2026-04-23T12:06:41.999Z</time></trkpt><trkpt lat="46.277309483236195" lon="12.38271427391562"><ele>769.0</ele><time>2026-04-23T12:06:42.999Z</time></trkpt><trkpt lat="46.27729563809785" lon="12.382465310919105"><ele>769.0</ele><time>2026-04-23T12:06:43.999Z</time></trkpt><trkpt lat="46.277294614441416" lon="12.382240905214646"><ele>769.0</ele><time>2026-04-23T12:06:44.999Z</time></trkpt><trkpt lat="46.277309282686595" lon="12.382053954034522"><ele>769.0</ele><time>2026-04-23T12:06:45.999Z</time></trkpt><trkpt lat="46.27736246309447" lon="12.381873889237298"><ele>769.0</ele><time>2026-04-23T12:06:46.999Z</time></trkpt><trkpt lat="46.27744203622511" lon="12.381651658862271"><ele>766.3333333333333</ele><time>2026-04-23T12:06:47.999Z</time></trkpt><trkpt lat="46.27750800017615" lon="12.381414077605719"><ele>763.6666666666666</ele><time>2026-04-23T12:06:48.999Z</time></trkpt><trkpt lat="46.27759782671555" lon="12.381212552529771"><ele>761.0</ele><time>2026-04-23T12:06:49.999Z</time></trkpt><trkpt lat="46.2776644394671" lon="12.38104267600982"><ele>763.25</ele><time>2026-04-23T12:06:50.999Z</time></trkpt><trkpt lat="46.27773495782472" lon="12.380898754824162"><ele>765.5</ele><time>2026-04-23T12:06:51.999Z</time></trkpt><trkpt lat="46.27786812022608" lon="12.380820962351399"><ele>767.75</ele><time>2026-04-23T12:06:52.999Z</time></trkpt><trkpt lat="46.278016040834295" lon="12.380704201828687"><ele>770.0</ele><time>2026-04-23T12:06:53.999Z</time></trkpt><trkpt lat="46.27819029901056" lon="12.380644375104783"><ele>770.0</ele><time>2026-04-23T12:06:54.999Z</time></trkpt><trkpt lat="46.27835770590297" lon="12.38057818477604"><ele>770.0</ele><time>2026-04-23T12:06:55.999Z</time></trkpt><trkpt lat="46.27849109920015" lon="12.380478875593033"><ele>770.0</ele><time>2026-04-23T12:06:57Z</time></trkpt><trkpt lat="46.27860902650518" lon="12.380383668543459"><ele>765.5</ele><time>2026-04-23T12:06:58Z</time></trkpt><trkpt lat="46.27870939008736" lon="12.380293711277982"><ele>761.0</ele><time>2026-04-23T12:06:59Z</time></trkpt><trkpt lat="46.278805548043955" lon="12.380265637607723"><ele>756.5</ele><time>2026-04-23T12:07:00Z</time></trkpt><trkpt lat="46.27891199494235" lon="12.380316982102086"><ele>752.0</ele><time>2026-04-23T12:07:01Z</time></trkpt><trkpt lat="46.27900553478118" lon="12.380434155663403"><ele>760.0</ele><time>2026-04-23T12:07:02Z</time></trkpt><trkpt lat="46.279097327036176" lon="12.380608635439204"><ele>768.0</ele><time>2026-04-23T12:07:03Z</time></trkpt><trkpt lat="46.279208430458816" lon="12.38077270758605"><ele>776.0</ele><time>2026-04-23T12:07:04Z</time></trkpt><trkpt lat="46.279327750942194" lon="12.38094346140935"><ele>776.0</ele><time>2026-04-23T12:07:05Z</time></trkpt><trkpt lat="46.279426362951085" lon="12.381095263286651"><ele>776.0</ele><time>2026-04-23T12:07:06Z</time></trkpt><trkpt lat="46.27951726025838" lon="12.381200969429015"><ele>776.0</ele><time>2026-04-23T12:07:07Z</time></trkpt><trkpt lat="46.27961769384653" lon="12.381261229556744"><ele>776.0</ele><time>2026-04-23T12:07:08Z</time></trkpt><trkpt lat="46.279730897191165" lon="12.381238039604467"><ele>775.25</ele><time>2026-04-23T12:07:09Z</time></trkpt><trkpt lat="46.27984483776351" lon="12.381172525163981"><ele>774.5</ele><time>2026-04-23T12:07:10Z</time></trkpt><trkpt lat="46.279953879663395" lon="12.381039848073659"><ele>773.75</ele><time>2026-04-23T12:07:11Z</time></trkpt><trkpt lat="46.280057071831806" lon="12.380896802342514"><ele>773.0</ele><time>2026-04-23T12:07:12Z</time></trkpt><trkpt lat="46.2801647355559" lon="12.380744010532283"><ele>773.0</ele><time>2026-04-23T12:07:13Z</time></trkpt><trkpt lat="46.28028717748553" lon="12.380652593907492"><ele>773.0</ele><time>2026-04-23T12:07:14Z</time></trkpt><trkpt lat="46.28040115593128" lon="12.380527664477233"><ele>773.0</ele><time>2026-04-23T12:07:15Z</time></trkpt><trkpt lat="46.28054588713636" lon="12.38042840991133"><ele>773.0</ele><time>2026-04-23T12:07:16Z</time></trkpt><trkpt lat="46.280686773929276" lon="12.380310562852554"><ele>775.0</ele><time>2026-04-23T12:07:17Z</time></trkpt><trkpt lat="46.28083111405944" lon="12.380182486220633"><ele>777.0</ele><time>2026-04-23T12:07:18Z</time></trkpt><trkpt lat="46.280933979510934" lon="12.380026443263635"><ele>779.0</ele><time>2026-04-23T12:07:19Z</time></trkpt><trkpt lat="46.28104745016896" lon="12.37982977415498"><ele>772.6666666666667</ele><time>2026-04-23T12:07:20Z</time></trkpt><trkpt lat="46.281112163338214" lon="12.379554399464713"><ele>766.3333333333334</ele><time>2026-04-23T12:07:21Z</time></trkpt><trkpt lat="46.28122056780296" lon="12.379331621894789"><ele>760.0</ele><time>2026-04-23T12:07:22Z</time></trkpt><trkpt lat="46.28131308643278" lon="12.379115836737897"><ele>760.0</ele><time>2026-04-23T12:07:23Z</time></trkpt><trkpt lat="46.28138702247003" lon="12.37891322228361"><ele>760.0</ele><time>2026-04-23T12:07:24Z</time></trkpt><trkpt lat="46.281494239059995" lon="12.378676007082362"><ele>760.0</ele><time>2026-04-23T12:07:25Z</time></trkpt><trkpt lat="46.281578425559324" lon="12.37846263850373"><ele>766.6666666666667</ele><time>2026-04-23T12:07:26Z</time></trkpt><trkpt lat="46.281658627495844" lon="12.378288691219904"><ele>773.3333333333334</ele><time>2026-04-23T12:07:27Z</time></trkpt><trkpt lat="46.28174229578168" lon="12.378029248508176"><ele>780.0</ele><time>2026-04-23T12:07:28Z</time></trkpt><trkpt lat="46.28171565239191" lon="12.377670376577266"><ele>780.0</ele><time>2026-04-23T12:07:29Z</time></trkpt><trkpt lat="46.28175834722737" lon="12.377356328999799"><ele>780.0</ele><time>2026-04-23T12:07:30Z</time></trkpt><trkpt lat="46.281818252064866" lon="12.376973430867325"><ele>777.3333333333333</ele><time>2026-04-23T12:07:31Z</time></trkpt><trkpt lat="46.28187141632381" lon="12.376694629566654"><ele>774.6666666666666</ele><time>2026-04-23T12:07:32Z</time></trkpt><trkpt lat="46.28192710525571" lon="12.376522689549137"><ele>772.0</ele><time>2026-04-23T12:07:33Z</time></trkpt><trkpt lat="46.28199183516247" lon="12.376365486665968"><ele>774.5</ele><time>2026-04-23T12:07:34Z</time></trkpt><trkpt lat="46.28201051450156" lon="12.37621676999782"><ele>777.0</ele><time>2026-04-23T12:07:35Z</time></trkpt><trkpt lat="46.28201571778366" lon="12.376075399977596"><ele>779.5</ele><time>2026-04-23T12:07:36Z</time></trkpt><trkpt lat="46.28195044819794" lon="12.375914808238845"><ele>782.0</ele><time>2026-04-23T12:07:37Z</time></trkpt><trkpt lat="46.28184746944767" lon="12.375740292161408"><ele>782.0</ele><time>2026-04-23T12:07:38Z</time></trkpt><trkpt lat="46.28173128864123" lon="12.375580170180056"><ele>782.0</ele><time>2026-04-23T12:07:39Z</time></trkpt><trkpt lat="46.28162530833189" lon="12.375452424012996"><ele>782.0</ele><time>2026-04-23T12:07:40Z</time></trkpt><trkpt lat="46.2815322291684" lon="12.375348029070276"><ele>782.0</ele><time>2026-04-23T12:07:41Z</time></trkpt><trkpt lat="46.28144629754598" lon="12.375273910344786"><ele>782.0</ele><time>2026-04-23T12:07:42Z</time></trkpt><trkpt lat="46.281360376783496" lon="12.375266698448984"><ele>782.0</ele><time>2026-04-23T12:07:43Z</time></trkpt><trkpt lat="46.28126856746572" lon="12.375333078917624"><ele>782.0</ele><time>2026-04-23T12:07:44Z</time></trkpt><trkpt lat="46.28116571129403" lon="12.375455063377155"><ele>782.0</ele><time>2026-04-23T12:07:45Z</time></trkpt><trkpt lat="46.28105079300304" lon="12.375599335407326"><ele>782.0</ele><time>2026-04-23T12:07:46Z</time></trkpt><trkpt lat="46.280960478902685" lon="12.375698197266908"><ele>782.0</ele><time>2026-04-23T12:07:47Z</time></trkpt><trkpt lat="46.28088753833597" lon="12.375737333644393"><ele>782.0</ele><time>2026-04-23T12:07:48Z</time></trkpt><trkpt lat="46.28078996531593" lon="12.37570377626699"><ele>782.0</ele><time>2026-04-23T12:07:49Z</time></trkpt><trkpt lat="46.280663119259955" lon="12.37569070633042"><ele>782.0</ele><time>2026-04-23T12:07:50Z</time></trkpt><trkpt lat="46.28050472515617" lon="12.37564285308034"><ele>781.0</ele><time>2026-04-23T12:07:51Z</time></trkpt><trkpt lat="46.28033470181061" lon="12.375616010210084"><ele>780.0</ele><time>2026-04-23T12:07:52Z</time></trkpt><trkpt lat="46.280170065689745" lon="12.375540144533343"><ele>779.0</ele><time>2026-04-23T12:07:53Z</time></trkpt><trkpt lat="46.279985462996784" lon="12.37543678157237"><ele>784.0</ele><time>2026-04-23T12:07:54Z</time></trkpt><trkpt lat="46.27978104195746" lon="12.375322205738975"><ele>789.0</ele><time>2026-04-23T12:07:55Z</time></trkpt><trkpt lat="46.279585441379254" lon="12.375214077085854"><ele>794.0</ele><time>2026-04-23T12:07:56Z</time></trkpt><trkpt lat="46.27941744437904" lon="12.375121207773212"><ele>794.0</ele><time>2026-04-23T12:07:57Z</time></trkpt><trkpt lat="46.27927085569183" lon="12.375026398395228"><ele>794.0</ele><time>2026-04-23T12:07:58Z</time></trkpt><trkpt lat="46.279139144369275" lon="12.374885041343958"><ele>794.0</ele><time>2026-04-23T12:07:59Z</time></trkpt><trkpt lat="46.279007280933065" lon="12.374721583771676"><ele>793.0</ele><time>2026-04-23T12:08:00Z</time></trkpt><trkpt lat="46.2789089215684" lon="12.374565608864005"><ele>792.0</ele><time>2026-04-23T12:08:01Z</time></trkpt><trkpt lat="46.27883364527465" lon="12.37439732580991"><ele>791.0</ele><time>2026-04-23T12:08:02Z</time></trkpt><trkpt lat="46.27875426608324" lon="12.374213525302586"><ele>790.0</ele><time>2026-04-23T12:08:03Z</time></trkpt><trkpt lat="46.27871097392679" lon="12.374041875093965"><ele>790.0</ele><time>2026-04-23T12:08:04Z</time></trkpt><trkpt lat="46.27866518448899" lon="12.373886387308973"><ele>790.0</ele><time>2026-04-23T12:08:05Z</time></trkpt><trkpt lat="46.27860183192414" lon="12.37377089503427"><ele>790.0</ele><time>2026-04-23T12:08:06Z</time></trkpt><trkpt lat="46.27852481772029" lon="12.373658815960733"><ele>790.0</ele><time>2026-04-23T12:08:07Z</time></trkpt><trkpt lat="46.27842406037834" lon="12.373580207458383"><ele>790.0</ele><time>2026-04-23T12:08:08Z</time></trkpt><trkpt lat="46.27830872518501" lon="12.373556629275308"><ele>790.0</ele><time>2026-04-23T12:08:09Z</time></trkpt><trkpt lat="46.27818822930765" lon="12.373597170559643"><ele>790.0</ele><time>2026-04-23T12:08:10Z</time></trkpt><trkpt lat="46.27807431029413" lon="12.373687437929144"><ele>790.0</ele><time>2026-04-23T12:08:11Z</time></trkpt><trkpt lat="46.27797206649334" lon="12.373804143770096"><ele>790.0</ele><time>2026-04-23T12:08:12Z</time></trkpt><trkpt lat="46.27786668744038" lon="12.373909791545245"><ele>790.0</ele><time>2026-04-23T12:08:13Z</time></trkpt><trkpt lat="46.277757572219144" lon="12.373988168975524"><ele>790.0</ele><time>2026-04-23T12:08:14Z</time></trkpt><trkpt lat="46.27764774436662" lon="12.374025606203128"><ele>790.0</ele><time>2026-04-23T12:08:15Z</time></trkpt><trkpt lat="46.27753579284357" lon="12.373990482586713"><ele>790.0</ele><time>2026-04-23T12:08:16Z</time></trkpt><trkpt lat="46.27742943696544" lon="12.373936630602566"><ele>790.5</ele><time>2026-04-23T12:08:16.999Z</time></trkpt><trkpt lat="46.277335023069696" lon="12.373846140228421"><ele>791.0</ele><time>2026-04-23T12:08:17.999Z</time></trkpt><trkpt lat="46.277236592998186" lon="12.373743312494717"><ele>791.5</ele><time>2026-04-23T12:08:18.999Z</time></trkpt><trkpt lat="46.27713081093256" lon="12.373638450502781"><ele>792.0</ele><time>2026-04-23T12:08:19.999Z</time></trkpt><trkpt lat="46.27706282602695" lon="12.373473941635874"><ele>792.0</ele><time>2026-04-23T12:08:20.999Z</time></trkpt><trkpt lat="46.27700340545851" lon="12.37330302295519"><ele>792.0</ele><time>2026-04-23T12:08:21.999Z</time></trkpt><trkpt lat="46.27694442297074" lon="12.373122317707805"><ele>792.0</ele><time>2026-04-23T12:08:22.999Z</time></trkpt><trkpt lat="46.27688097018207" lon="12.372947166992729"><ele>792.0</ele><time>2026-04-23T12:08:23.999Z</time></trkpt><trkpt lat="46.276806736714285" lon="12.372805075905983"><ele>792.75</ele><time>2026-04-23T12:08:24.999Z</time></trkpt><trkpt lat="46.27671746774451" lon="12.372683549265298"><ele>793.5</ele><time>2026-04-23T12:08:25.999Z</time></trkpt><trkpt lat="46.2765958989551" lon="12.372592730390144"><ele>794.25</ele><time>2026-04-23T12:08:26.999Z</time></trkpt><trkpt lat="46.27645495749453" lon="12.372535007974887"><ele>795.0</ele><time>2026-04-23T12:08:27.999Z</time></trkpt><trkpt lat="46.27630901608433" lon="12.37249620737881"><ele>795.0</ele><time>2026-04-23T12:08:28.999Z</time></trkpt><trkpt lat="46.2761646568329" lon="12.372458522837809"><ele>795.0</ele><time>2026-04-23T12:08:29.999Z</time></trkpt><trkpt lat="46.27602353097594" lon="12.37241263967355"><ele>795.0</ele><time>2026-04-23T12:08:30.999Z</time></trkpt><trkpt lat="46.27588676716257" lon="12.372364506218185"><ele>795.0</ele><time>2026-04-23T12:08:31.999Z</time></trkpt><trkpt lat="46.27575771628074" lon="12.372318803263587"><ele>795.0</ele><time>2026-04-23T12:08:32.999Z</time></trkpt><trkpt lat="46.27563287827305" lon="12.372274465943804"><ele>795.0</ele><time>2026-04-23T12:08:33.999Z</time></trkpt><trkpt lat="46.27551199458267" lon="12.372232133887263"><ele>795.0</ele><time>2026-04-23T12:08:34.999Z</time></trkpt><trkpt lat="46.275396217464746" lon="12.37218614110831"><ele>795.0</ele><time>2026-04-23T12:08:35.999Z</time></trkpt><trkpt lat="46.275285907551726" lon="12.37212671912462"><ele>796.75</ele><time>2026-04-23T12:08:36.999Z</time></trkpt><trkpt lat="46.27516910131452" lon="12.372044641154618"><ele>798.5</ele><time>2026-04-23T12:08:37.999Z</time></trkpt><trkpt lat="46.275043165762526" lon="12.37193833130655"><ele>800.25</ele><time>2026-04-23T12:08:38.999Z</time></trkpt><trkpt lat="46.2749281448559" lon="12.371805729520734"><ele>802.0</ele><time>2026-04-23T12:08:39.999Z</time></trkpt><trkpt lat="46.27481570552083" lon="12.371670743398685"><ele>799.0</ele><time>2026-04-23T12:08:40.999Z</time></trkpt><trkpt lat="46.27470841300972" lon="12.371520480824353"><ele>796.0</ele><time>2026-04-23T12:08:41.999Z</time></trkpt><trkpt lat="46.2745941807436" lon="12.371371319941296"><ele>793.0</ele><time>2026-04-23T12:08:42.999Z</time></trkpt><trkpt lat="46.27450048487161" lon="12.371181296253653"><ele>793.0</ele><time>2026-04-23T12:08:43.999Z</time></trkpt><trkpt lat="46.274400426191164" lon="12.371015980343865"><ele>793.0</ele><time>2026-04-23T12:08:44.999Z</time></trkpt><trkpt lat="46.27428646366104" lon="12.370869734366604"><ele>793.0</ele><time>2026-04-23T12:08:45.999Z</time></trkpt><trkpt lat="46.27418606595898" lon="12.370709364226057"><ele>793.0</ele><time>2026-04-23T12:08:46.999Z</time></trkpt><trkpt lat="46.274091117172695" lon="12.370545906109223"><ele>793.0</ele><time>2026-04-23T12:08:47.999Z</time></trkpt><trkpt lat="46.27400001806174" lon="12.370367705598904"><ele>793.0</ele><time>2026-04-23T12:08:48.999Z</time></trkpt><trkpt lat="46.27391441530542" lon="12.370176656362421"><ele>789.5</ele><time>2026-04-23T12:08:49.999Z</time></trkpt><trkpt lat="46.27383483578707" lon="12.369989013398616"><ele>786.0</ele><time>2026-04-23T12:08:50.999Z</time></trkpt><trkpt lat="46.27377382991519" lon="12.369806945497107"><ele>782.5</ele><time>2026-04-23T12:08:51.999Z</time></trkpt><trkpt lat="46.27375013845539" lon="12.369604440313461"><ele>779.0</ele><time>2026-04-23T12:08:52.999Z</time></trkpt><trkpt lat="46.27370226858058" lon="12.369410690824546"><ele>779.25</ele><time>2026-04-23T12:08:53.999Z</time></trkpt><trkpt lat="46.273680562954745" lon="12.369230183656182"><ele>779.5</ele><time>2026-04-23T12:08:54.999Z</time></trkpt><trkpt lat="46.27370263963732" lon="12.369051324340946"><ele>779.75</ele><time>2026-04-23T12:08:55.999Z</time></trkpt><trkpt lat="46.27374424533109" lon="12.368862735292879"><ele>780.0</ele><time>2026-04-23T12:08:56.999Z</time></trkpt><trkpt lat="46.2738026676349" lon="12.368671180922977"><ele>780.0</ele><time>2026-04-23T12:08:57.999Z</time></trkpt><trkpt lat="46.27384858902056" lon="12.368473056625554"><ele>780.0</ele><time>2026-04-23T12:08:58.999Z</time></trkpt><trkpt lat="46.273913118260474" lon="12.36830559130201"><ele>780.0</ele><time>2026-04-23T12:08:59.999Z</time></trkpt><trkpt lat="46.273930429156394" lon="12.368131337985538"><ele>780.0</ele><time>2026-04-23T12:09:00.999Z</time></trkpt><trkpt lat="46.27391338308814" lon="12.367968024988494"><ele>782.75</ele><time>2026-04-23T12:09:01.999Z</time></trkpt><trkpt lat="46.273865347261854" lon="12.367818242889005"><ele>785.5</ele><time>2026-04-23T12:09:03Z</time></trkpt><trkpt lat="46.273778448688304" lon="12.367723504256341"><ele>788.25</ele><time>2026-04-23T12:09:04.001Z</time></trkpt><trkpt lat="46.27366555336058" lon="12.367674466577384"><ele>791.0</ele><time>2026-04-23T12:09:05Z</time></trkpt><trkpt lat="46.27353446170669" lon="12.367677629799912"><ele>791.0</ele><time>2026-04-23T12:09:06Z</time></trkpt><trkpt lat="46.273397653932946" lon="12.367721490381529"><ele>791.0</ele><time>2026-04-23T12:09:07.001Z</time></trkpt><trkpt lat="46.27326031486519" lon="12.367767792009776"><ele>791.0</ele><time>2026-04-23T12:09:08Z</time></trkpt><trkpt lat="46.273134091578356" lon="12.367776711175933"><ele>791.0</ele><time>2026-04-23T12:09:09Z</time></trkpt><trkpt lat="46.27302964428115" lon="12.367688218779382"><ele>787.25</ele><time>2026-04-23T12:09:10Z</time></trkpt><trkpt lat="46.27294700621159" lon="12.367570295878036"><ele>783.5</ele><time>2026-04-23T12:09:11Z</time></trkpt><trkpt lat="46.27286179778361" lon="12.367406377666539"><ele>779.75</ele><time>2026-04-23T12:09:12Z</time></trkpt><trkpt lat="46.27277665903339" lon="12.367222765647716"><ele>776.0</ele><time>2026-04-23T12:09:13Z</time></trkpt><trkpt lat="46.27270708409468" lon="12.367013685459776"><ele>776.0</ele><time>2026-04-23T12:09:14Z</time></trkpt><trkpt lat="46.272651904527336" lon="12.366777571056957"><ele>776.0</ele><time>2026-04-23T12:09:15Z</time></trkpt><trkpt lat="46.27259445915952" lon="12.366525737629356"><ele>776.0</ele><time>2026-04-23T12:09:16Z</time></trkpt><trkpt lat="46.272533948307405" lon="12.366263639284094"><ele>777.6666666666667</ele><time>2026-04-23T12:09:17Z</time></trkpt><trkpt lat="46.272479767097636" lon="12.366019697521862"><ele>779.3333333333333</ele><time>2026-04-23T12:09:18Z</time></trkpt><trkpt lat="46.27243034817476" lon="12.365791284572964"><ele>781.0</ele><time>2026-04-23T12:09:19Z</time></trkpt><trkpt lat="46.27239334451443" lon="12.365562911002076"><ele>783.0</ele><time>2026-04-23T12:09:20Z</time></trkpt><trkpt lat="46.27236945464213" lon="12.365317393810262"><ele>785.0</ele><time>2026-04-23T12:09:21Z</time></trkpt><trkpt lat="46.27235379294992" lon="12.365066494874915"><ele>787.0</ele><time>2026-04-23T12:09:22Z</time></trkpt><trkpt lat="46.272338569645605" lon="12.364810019259206"><ele>787.3333333333333</ele><time>2026-04-23T12:09:23Z</time></trkpt><trkpt lat="46.27232305595401" lon="12.364548651054495"><ele>787.6666666666667</ele><time>2026-04-23T12:09:24Z</time></trkpt><trkpt lat="46.27230064700613" lon="12.364299625968616"><ele>788.0</ele><time>2026-04-23T12:09:25Z</time></trkpt><trkpt lat="46.27228703180411" lon="12.364076114747991"><ele>788.0</ele><time>2026-04-23T12:09:26Z</time></trkpt><trkpt lat="46.27227451056344" lon="12.363868366415035"><ele>788.0</ele><time>2026-04-23T12:09:27Z</time></trkpt><trkpt lat="46.27226150751685" lon="12.363685499968739"><ele>788.0</ele><time>2026-04-23T12:09:28Z</time></trkpt><trkpt lat="46.27224284326169" lon="12.363523356903501"><ele>788.0</ele><time>2026-04-23T12:09:29Z</time></trkpt><trkpt lat="46.272203913597124" lon="12.363376761621248"><ele>787.5</ele><time>2026-04-23T12:09:30Z</time></trkpt><trkpt lat="46.2721321662543" lon="12.363262072387181"><ele>787.0</ele><time>2026-04-23T12:09:31Z</time></trkpt><trkpt lat="46.2720191247517" lon="12.3631827406225"><ele>786.5</ele><time>2026-04-23T12:09:32Z</time></trkpt><trkpt lat="46.271887039397484" lon="12.363110945400585"><ele>786.0</ele><time>2026-04-23T12:09:33Z</time></trkpt><trkpt lat="46.27175166711507" lon="12.363021658480623"><ele>786.0</ele><time>2026-04-23T12:09:34Z</time></trkpt><trkpt lat="46.27161686295264" lon="12.362912400323863"><ele>786.0</ele><time>2026-04-23T12:09:35Z</time></trkpt><trkpt lat="46.27148267430598" lon="12.362811231880327"><ele>786.0</ele><time>2026-04-23T12:09:36Z</time></trkpt><trkpt lat="46.271340834851344" lon="12.362739742168772"><ele>780.75</ele><time>2026-04-23T12:09:37Z</time></trkpt><trkpt lat="46.271196869333025" lon="12.362695536583361"><ele>775.5</ele><time>2026-04-23T12:09:38Z</time></trkpt><trkpt lat="46.27107182798632" lon="12.36264906900286"><ele>770.25</ele><time>2026-04-23T12:09:39Z</time></trkpt><trkpt lat="46.270982314219054" lon="12.362552105368364"><ele>765.0</ele><time>2026-04-23T12:09:40Z</time></trkpt><trkpt lat="46.2709263219573" lon="12.362429162784737"><ele>765.0</ele><time>2026-04-23T12:09:41Z</time></trkpt><trkpt lat="46.27090880737944" lon="12.362281721040777"><ele>765.0</ele><time>2026-04-23T12:09:42Z</time></trkpt><trkpt lat="46.270898600924305" lon="12.362108477752463"><ele>765.0</ele><time>2026-04-23T12:09:43Z</time></trkpt><trkpt lat="46.2708909384792" lon="12.361911026226267"><ele>765.0</ele><time>2026-04-23T12:09:44Z</time></trkpt><trkpt lat="46.27091507118205" lon="12.361706509821298"><ele>765.5</ele><time>2026-04-23T12:09:45Z</time></trkpt><trkpt lat="46.2709623176425" lon="12.361498006935925"><ele>766.0</ele><time>2026-04-23T12:09:46Z</time></trkpt><trkpt lat="46.270984920574286" lon="12.361292013922423"><ele>766.5</ele><time>2026-04-23T12:09:47Z</time></trkpt><trkpt lat="46.271071023755425" lon="12.361142534716361"><ele>767.0</ele><time>2026-04-23T12:09:48Z</time></trkpt><trkpt lat="46.27116366928074" lon="12.361004785830737"><ele>767.0</ele><time>2026-04-23T12:09:49Z</time></trkpt><trkpt lat="46.271221331585274" lon="12.360827867768817"><ele>767.0</ele><time>2026-04-23T12:09:50Z</time></trkpt><trkpt lat="46.27126819561629" lon="12.360643750562549"><ele>767.0</ele><time>2026-04-23T12:09:51Z</time></trkpt><trkpt lat="46.27127888094311" lon="12.360416701208644"><ele>767.0</ele><time>2026-04-23T12:09:52Z</time></trkpt><trkpt lat="46.271286724449496" lon="12.360168946456957"><ele>766.3333333333333</ele><time>2026-04-23T12:09:53Z</time></trkpt><trkpt lat="46.27129302408214" lon="12.35991256122243"><ele>765.6666666666666</ele><time>2026-04-23T12:09:54Z</time></trkpt><trkpt lat="46.27130209297501" lon="12.359656183419169"><ele>765.0</ele><time>2026-04-23T12:09:55Z</time></trkpt><trkpt lat="46.271305654087456" lon="12.359419434648947"><ele>767.6666666666667</ele><time>2026-04-23T12:09:56Z</time></trkpt><trkpt lat="46.27130433927712" lon="12.359201493055627"><ele>770.3333333333334</ele><time>2026-04-23T12:09:57Z</time></trkpt><trkpt lat="46.27124592975116" lon="12.358992698981073"><ele>773.0</ele><time>2026-04-23T12:09:58Z</time></trkpt><trkpt lat="46.27117410317148" lon="12.358805256075124"><ele>776.3333333333334</ele><time>2026-04-23T12:09:59Z</time></trkpt><trkpt lat="46.271074612679406" lon="12.358598583226831"><ele>779.6666666666667</ele><time>2026-04-23T12:10:00Z</time></trkpt><trkpt lat="46.271012703746315" lon="12.358360980010271"><ele>783.0</ele><time>2026-04-23T12:10:01Z</time></trkpt><trkpt lat="46.27096488298541" lon="12.358124809793088"><ele>785.6666666666667</ele><time>2026-04-23T12:10:02Z</time></trkpt><trkpt lat="46.27093107567221" lon="12.35788917430223"><ele>788.3333333333334</ele><time>2026-04-23T12:10:03Z</time></trkpt><trkpt lat="46.27089620857114" lon="12.357578604801581"><ele>791.0</ele><time>2026-04-23T12:10:04Z</time></trkpt><trkpt lat="46.27087398296121" lon="12.357282237519426"><ele>793.0</ele><time>2026-04-23T12:10:05Z</time></trkpt><trkpt lat="46.27087144112042" lon="12.357029474404385"><ele>795.0</ele><time>2026-04-23T12:10:06Z</time></trkpt><trkpt lat="46.27088121482029" lon="12.35676590223284"><ele>797.0</ele><time>2026-04-23T12:10:07Z</time></trkpt><trkpt lat="46.27088107759" lon="12.356449062446504"><ele>801.0</ele><time>2026-04-23T12:10:08Z</time></trkpt><trkpt lat="46.27083777995481" lon="12.35610136516419"><ele>805.0</ele><time>2026-04-23T12:10:09Z</time></trkpt><trkpt lat="46.270740445043145" lon="12.355779076318655"><ele>816.0</ele><time>2026-04-23T12:10:10Z</time></trkpt><trkpt lat="46.27062569014268" lon="12.355493319356844"><ele>827.0</ele><time>2026-04-23T12:10:11Z</time></trkpt><trkpt lat="46.27051953588317" lon="12.3551928178721"><ele>816.3333333333334</ele><time>2026-04-23T12:10:12Z</time></trkpt><trkpt lat="46.27043275278014" lon="12.354924617882235"><ele>805.6666666666667</ele><time>2026-04-23T12:10:13Z</time></trkpt><trkpt lat="46.2703447274948" lon="12.354622653640098"><ele>795.0</ele><time>2026-04-23T12:10:14Z</time></trkpt><trkpt lat="46.27027646690132" lon="12.354355798949273"><ele>795.0</ele><time>2026-04-23T12:10:15Z</time></trkpt><trkpt lat="46.270212461764" lon="12.354072951421788"><ele>795.0</ele><time>2026-04-23T12:10:16Z</time></trkpt><trkpt lat="46.27017635317793" lon="12.353917801859314"><ele>795.0</ele><time>2026-04-23T12:10:17Z</time></trkpt><trkpt lat="46.27008548848327" lon="12.35372493615548"><ele>792.75</ele><time>2026-04-23T12:10:18Z</time></trkpt><trkpt lat="46.27000364953661" lon="12.353641592650705"><ele>790.5</ele><time>2026-04-23T12:10:19Z</time></trkpt><trkpt lat="46.26989968299085" lon="12.353465158025964"><ele>788.25</ele><time>2026-04-23T12:10:19.999Z</time></trkpt><trkpt lat="46.26973194561311" lon="12.353394278504405"><ele>786.0</ele><time>2026-04-23T12:10:20.999Z</time></trkpt><trkpt lat="46.269559115919606" lon="12.353360383847704"><ele>786.0</ele><time>2026-04-23T12:10:21.999Z</time></trkpt><trkpt lat="46.269419126147085" lon="12.353277255674957"><ele>786.0</ele><time>2026-04-23T12:10:22.999Z</time></trkpt><trkpt lat="46.269320866038925" lon="12.353131397984363"><ele>786.0</ele><time>2026-04-23T12:10:23.999Z</time></trkpt><trkpt lat="46.269264185357365" lon="12.352980449333918"><ele>786.0</ele><time>2026-04-23T12:10:24.999Z</time></trkpt><trkpt lat="46.2692677164569" lon="12.352824082270297"><ele>788.6666666666667</ele><time>2026-04-23T12:10:25.999Z</time></trkpt><trkpt lat="46.2692980344933" lon="12.352660184828816"><ele>791.3333333333334</ele><time>2026-04-23T12:10:26.999Z</time></trkpt><trkpt lat="46.26933081229488" lon="12.352436125830433"><ele>794.0</ele><time>2026-04-23T12:10:27.999Z</time></trkpt><trkpt lat="46.26936761919163" lon="12.352185015554475"><ele>794.0</ele><time>2026-04-23T12:10:28.999Z</time></trkpt><trkpt lat="46.26940762670109" lon="12.351915131586532"><ele>794.0</ele><time>2026-04-23T12:10:29.999Z</time></trkpt><trkpt lat="46.269445253641564" lon="12.351639941186795"><ele>794.0</ele><time>2026-04-23T12:10:30.999Z</time></trkpt><trkpt lat="46.269452903228064" lon="12.351365233960065"><ele>795.3333333333334</ele><time>2026-04-23T12:10:31.999Z</time></trkpt><trkpt lat="46.2694465144453" lon="12.35106772578912"><ele>796.6666666666667</ele><time>2026-04-23T12:10:32.999Z</time></trkpt><trkpt lat="46.26939312857212" lon="12.35075069911836"><ele>798.0</ele><time>2026-04-23T12:10:33.999Z</time></trkpt><trkpt lat="46.26932089035146" lon="12.350414102447887"><ele>802.5</ele><time>2026-04-23T12:10:34.999Z</time></trkpt><trkpt lat="46.269248420983054" lon="12.350074223663608"><ele>807.0</ele><time>2026-04-23T12:10:35.999Z</time></trkpt><trkpt lat="46.269191028414525" lon="12.349781681229096"><ele>808.6666666666667</ele><time>2026-04-23T12:10:36.999Z</time></trkpt><trkpt lat="46.26913884281465" lon="12.349510352153501"><ele>810.3333333333334</ele><time>2026-04-23T12:10:37.999Z</time></trkpt><trkpt lat="46.26908757658519" lon="12.349270655841199"><ele>812.0</ele><time>2026-04-23T12:10:38.999Z</time></trkpt><trkpt lat="46.26902828683657" lon="12.349053849168403"><ele>814.0</ele><time>2026-04-23T12:10:39.999Z</time></trkpt><trkpt lat="46.26895677958694" lon="12.348857929125154"><ele>816.0</ele><time>2026-04-23T12:10:40.999Z</time></trkpt><trkpt lat="46.26887965081351" lon="12.348685174339309"><ele>818.0</ele><time>2026-04-23T12:10:41.999Z</time></trkpt><trkpt lat="46.268794629991376" lon="12.348554245874793"><ele>820.0</ele><time>2026-04-23T12:10:42.999Z</time></trkpt><trkpt lat="46.26873139601835" lon="12.34842121491742"><ele>819.25</ele><time>2026-04-23T12:10:43.999Z</time></trkpt><trkpt lat="46.268714720657" lon="12.348273492464813"><ele>818.5</ele><time>2026-04-23T12:10:44.999Z</time></trkpt><trkpt lat="46.26871275652186" lon="12.348115789998168"><ele>817.75</ele><time>2026-04-23T12:10:45.999Z</time></trkpt><trkpt lat="46.26872861523098" lon="12.347941329930313"><ele>817.0</ele><time>2026-04-23T12:10:46.999Z</time></trkpt><trkpt lat="46.26880418826824" lon="12.347792412804163"><ele>817.0</ele><time>2026-04-23T12:10:47.999Z</time></trkpt><trkpt lat="46.26888530566589" lon="12.34761642314922"><ele>817.0</ele><time>2026-04-23T12:10:48.999Z</time></trkpt><trkpt lat="46.26895406664652" lon="12.347437756826507"><ele>817.0</ele><time>2026-04-23T12:10:49.999Z</time></trkpt><trkpt lat="46.26902941570803" lon="12.347255925240905"><ele>817.0</ele><time>2026-04-23T12:10:50.999Z</time></trkpt><trkpt lat="46.26909236230416" lon="12.347063455545022"><ele>815.5</ele><time>2026-04-23T12:10:51.999Z</time></trkpt><trkpt lat="46.26914712232058" lon="12.346864689414044"><ele>814.0</ele><time>2026-04-23T12:10:52.999Z</time></trkpt><trkpt lat="46.26921868971641" lon="12.346679029742265"><ele>812.5</ele><time>2026-04-23T12:10:53.999Z</time></trkpt><trkpt lat="46.26927540052586" lon="12.346488557462905"><ele>811.0</ele><time>2026-04-23T12:10:54.999Z</time></trkpt><trkpt lat="46.26931358101743" lon="12.346301738756503"><ele>808.25</ele><time>2026-04-23T12:10:55.999Z</time></trkpt><trkpt lat="46.26936694364421" lon="12.346124263844812"><ele>805.5</ele><time>2026-04-23T12:10:56.999Z</time></trkpt><trkpt lat="46.269418851865986" lon="12.345940366158512"><ele>802.75</ele><time>2026-04-23T12:10:57.999Z</time></trkpt><trkpt lat="46.26946201432317" lon="12.345747741506193"><ele>800.0</ele><time>2026-04-23T12:10:58.999Z</time></trkpt><trkpt lat="46.26949717742015" lon="12.345547046933543"><ele>799.25</ele><time>2026-04-23T12:10:59.999Z</time></trkpt><trkpt lat="46.269532482167634" lon="12.34534611147243"><ele>798.5</ele><time>2026-04-23T12:11:00.999Z</time></trkpt><trkpt lat="46.269567090905724" lon="12.345148120272068"><ele>797.75</ele><time>2026-04-23T12:11:01.999Z</time></trkpt><trkpt lat="46.26960069207279" lon="12.344950405848946"><ele>797.0</ele><time>2026-04-23T12:11:02.999Z</time></trkpt><trkpt lat="46.26963407870718" lon="12.344751281824468"><ele>799.5</ele><time>2026-04-23T12:11:03.999Z</time></trkpt><trkpt lat="46.269666320654274" lon="12.344553978515775"><ele>802.0</ele><time>2026-04-23T12:11:04.999Z</time></trkpt><trkpt lat="46.26969901622215" lon="12.344358124525145"><ele>804.5</ele><time>2026-04-23T12:11:05.999Z</time></trkpt><trkpt lat="46.26973006590954" lon="12.344163133331064"><ele>807.0</ele><time>2026-04-23T12:11:06.999Z</time></trkpt><trkpt lat="46.269757627531504" lon="12.343966671730044"><ele>808.75</ele><time>2026-04-23T12:11:07.999Z</time></trkpt><trkpt lat="46.26980402261618" lon="12.3437765885776"><ele>810.5</ele><time>2026-04-23T12:11:09Z</time></trkpt><trkpt lat="46.269821367500896" lon="12.343574578326773"><ele>812.25</ele><time>2026-04-23T12:11:10Z</time></trkpt><trkpt lat="46.26985886313846" lon="12.343378059306712"><ele>814.0</ele><time>2026-04-23T12:11:11Z</time></trkpt><trkpt lat="46.26989610343837" lon="12.343180701863242"><ele>815.25</ele><time>2026-04-23T12:11:12Z</time></trkpt><trkpt lat="46.26993120597309" lon="12.342979319334777"><ele>816.5</ele><time>2026-04-23T12:11:13Z</time></trkpt><trkpt lat="46.26996647929546" lon="12.342779992684937"><ele>817.75</ele><time>2026-04-23T12:11:14Z</time></trkpt><trkpt lat="46.27000184246524" lon="12.342575772704828"><ele>819.0</ele><time>2026-04-23T12:11:15Z</time></trkpt><trkpt lat="46.2700312648932" lon="12.342348063101959"><ele>816.3333333333333</ele><time>2026-04-23T12:11:16Z</time></trkpt><trkpt lat="46.270052746875734" lon="12.342096667137914"><ele>813.6666666666666</ele><time>2026-04-23T12:11:17Z</time></trkpt><trkpt lat="46.27006798756027" lon="12.341837641481241"><ele>811.0</ele><time>2026-04-23T12:11:18Z</time></trkpt><trkpt lat="46.27008507373513" lon="12.34157674015857"><ele>809.0</ele><time>2026-04-23T12:11:19Z</time></trkpt><trkpt lat="46.27010184381122" lon="12.341313008497869"><ele>807.0</ele><time>2026-04-23T12:11:20Z</time></trkpt><trkpt lat="46.27011667719009" lon="12.341065312173985"><ele>805.0</ele><time>2026-04-23T12:11:21Z</time></trkpt><trkpt lat="46.27013568331729" lon="12.340830214928241"><ele>805.0</ele><time>2026-04-23T12:11:22Z</time></trkpt><trkpt lat="46.270154603514584" lon="12.340598867806788"><ele>805.0</ele><time>2026-04-23T12:11:23Z</time></trkpt><trkpt lat="46.27017154400972" lon="12.34034946827255"><ele>805.0</ele><time>2026-04-23T12:11:24Z</time></trkpt><trkpt lat="46.270178031146635" lon="12.3401088844261"><ele>802.3333333333333</ele><time>2026-04-23T12:11:25Z</time></trkpt><trkpt lat="46.270171608163345" lon="12.33987405925022"><ele>799.6666666666667</ele><time>2026-04-23T12:11:26Z</time></trkpt><trkpt lat="46.27012993029221" lon="12.33965118572776"><ele>797.0</ele><time>2026-04-23T12:11:27Z</time></trkpt><trkpt lat="46.27005335671982" lon="12.339420189221924"><ele>797.0</ele><time>2026-04-23T12:11:28Z</time></trkpt><trkpt lat="46.26995076967128" lon="12.339204802826048"><ele>797.0</ele><time>2026-04-23T12:11:29Z</time></trkpt><trkpt lat="46.26982607801565" lon="12.338993138264632"><ele>797.0</ele><time>2026-04-23T12:11:30Z</time></trkpt><trkpt lat="46.26969102961651" lon="12.338780074963344"><ele>796.0</ele><time>2026-04-23T12:11:31Z</time></trkpt><trkpt lat="46.26956169511423" lon="12.338557748802334"><ele>795.0</ele><time>2026-04-23T12:11:32Z</time></trkpt><trkpt lat="46.269444196583656" lon="12.33834381501753"><ele>794.0</ele><time>2026-04-23T12:11:33Z</time></trkpt><trkpt lat="46.269333154776525" lon="12.338145360193574"><ele>794.0</ele><time>2026-04-23T12:11:34Z</time></trkpt><trkpt lat="46.26922557046928" lon="12.337956509223101"><ele>794.0</ele><time>2026-04-23T12:11:35Z</time></trkpt><trkpt lat="46.26912187519631" lon="12.33777032799195"><ele>794.0</ele><time>2026-04-23T12:11:36Z</time></trkpt><trkpt lat="46.269016603282616" lon="12.337586246620353"><ele>792.6666666666667</ele><time>2026-04-23T12:11:37Z</time></trkpt><trkpt lat="46.268906794026606" lon="12.337397151988064"><ele>791.3333333333333</ele><time>2026-04-23T12:11:38Z</time></trkpt><trkpt lat="46.26880358619885" lon="12.33721257230689"><ele>790.0</ele><time>2026-04-23T12:11:39Z</time></trkpt><trkpt lat="46.2687202177042" lon="12.33703692282332"><ele>787.75</ele><time>2026-04-23T12:11:40Z</time></trkpt><trkpt lat="46.2686639677461" lon="12.336850637128144"><ele>785.5</ele><time>2026-04-23T12:11:41Z</time></trkpt><trkpt lat="46.26865508012471" lon="12.336654937867461"><ele>783.25</ele><time>2026-04-23T12:11:42Z</time></trkpt><trkpt lat="46.26863835136119" lon="12.33645938074"><ele>781.0</ele><time>2026-04-23T12:11:43Z</time></trkpt><trkpt lat="46.268673752650805" lon="12.336242281707559"><ele>776.3333333333333</ele><time>2026-04-23T12:11:44Z</time></trkpt><trkpt lat="46.268731822565044" lon="12.336026619761249"><ele>771.6666666666666</ele><time>2026-04-23T12:11:45Z</time></trkpt><trkpt lat="46.26882313429662" lon="12.335833365076105"><ele>767.0</ele><time>2026-04-23T12:11:46Z</time></trkpt><trkpt lat="46.26893304419072" lon="12.335687965681227"><ele>764.0</ele><time>2026-04-23T12:11:47Z</time></trkpt><trkpt lat="46.269065304900316" lon="12.335608065452993"><ele>761.0</ele><time>2026-04-23T12:11:48Z</time></trkpt><trkpt lat="46.269201787598156" lon="12.335516678145995"><ele>758.0</ele><time>2026-04-23T12:11:49Z</time></trkpt><trkpt lat="46.26934313597684" lon="12.335493390031823"><ele>755.0</ele><time>2026-04-23T12:11:50Z</time></trkpt><trkpt lat="46.2694810123775" lon="12.335451188635288"><ele>755.0</ele><time>2026-04-23T12:11:51Z</time></trkpt><trkpt lat="46.269613917458216" lon="12.335382606857465"><ele>755.0</ele><time>2026-04-23T12:11:52Z</time></trkpt><trkpt lat="46.269741989782716" lon="12.335263209218603"><ele>755.0</ele><time>2026-04-23T12:11:53Z</time></trkpt><trkpt lat="46.26984178702263" lon="12.335099763873167"><ele>755.0</ele><time>2026-04-23T12:11:54Z</time></trkpt><trkpt lat="46.26990655336954" lon="12.334906695881807"><ele>766.0</ele><time>2026-04-23T12:11:55Z</time></trkpt><trkpt lat="46.26995539186765" lon="12.3346994117788"><ele>777.0</ele><time>2026-04-23T12:11:56Z</time></trkpt><trkpt lat="46.26999637877364" lon="12.334479527631471"><ele>788.0</ele><time>2026-04-23T12:11:57Z</time></trkpt><trkpt lat="46.27004530641678" lon="12.334278435378039"><ele>788.0</ele><time>2026-04-23T12:11:58Z</time></trkpt><trkpt lat="46.27008678720484" lon="12.334103924803534"><ele>788.0</ele><time>2026-04-23T12:11:59Z</time></trkpt><trkpt lat="46.27010830265029" lon="12.333949981122947"><ele>788.0</ele><time>2026-04-23T12:12:00Z</time></trkpt><trkpt lat="46.270085636769586" lon="12.333801133748961"><ele>788.0</ele><time>2026-04-23T12:12:01Z</time></trkpt><trkpt lat="46.2700237225747" lon="12.33367101850453"><ele>787.0</ele><time>2026-04-23T12:12:02Z</time></trkpt><trkpt lat="46.269920320611504" lon="12.333596393398807"><ele>786.0</ele><time>2026-04-23T12:12:03Z</time></trkpt><trkpt lat="46.26979922051864" lon="12.333571660472998"><ele>785.0</ele><time>2026-04-23T12:12:04Z</time></trkpt><trkpt lat="46.26967983576994" lon="12.33359188694017"><ele>784.0</ele><time>2026-04-23T12:12:05Z</time></trkpt><trkpt lat="46.269581781117104" lon="12.333614182610361"><ele>774.8000000000001</ele><time>2026-04-23T12:12:06Z</time></trkpt><trkpt lat="46.26949689621173" lon="12.333564903458585"><ele>765.6</ele><time>2026-04-23T12:12:07Z</time></trkpt><trkpt lat="46.26943853828746" lon="12.333441227048588"><ele>756.4</ele><time>2026-04-23T12:12:08Z</time></trkpt><trkpt lat="46.26943739676234" lon="12.33326293636867"><ele>747.2</ele><time>2026-04-23T12:12:09Z</time></trkpt><trkpt lat="46.2694672960001" lon="12.33309679578939"><ele>738.0</ele><time>2026-04-23T12:12:10Z</time></trkpt><trkpt lat="46.26948839119234" lon="12.332907324381479"><ele>738.0</ele><time>2026-04-23T12:12:11Z</time></trkpt><trkpt lat="46.26948799914114" lon="12.332699858123474"><ele>738.0</ele><time>2026-04-23T12:12:12Z</time></trkpt><trkpt lat="46.26948708149047" lon="12.332474971970676"><ele>738.0</ele><time>2026-04-23T12:12:13Z</time></trkpt><trkpt lat="46.269466011529595" lon="12.33223918417975"><ele>739.3333333333334</ele><time>2026-04-23T12:12:14Z</time></trkpt><trkpt lat="46.26941351596028" lon="12.332005903466376"><ele>740.6666666666667</ele><time>2026-04-23T12:12:15Z</time></trkpt><trkpt lat="46.26933895858665" lon="12.331781728019799"><ele>742.0</ele><time>2026-04-23T12:12:16Z</time></trkpt><trkpt lat="46.269257314421324" lon="12.331568048016686"><ele>742.3333333333334</ele><time>2026-04-23T12:12:17Z</time></trkpt><trkpt lat="46.26917992530194" lon="12.331355899838856"><ele>742.6666666666666</ele><time>2026-04-23T12:12:18Z</time></trkpt><trkpt lat="46.26910539773021" lon="12.331150371485798"><ele>743.0</ele><time>2026-04-23T12:12:19Z</time></trkpt><trkpt lat="46.26903471526796" lon="12.330952451086675"><ele>743.0</ele><time>2026-04-23T12:12:20Z</time></trkpt><trkpt lat="46.268970904740094" lon="12.330781476501985"><ele>743.0</ele><time>2026-04-23T12:12:21Z</time></trkpt><trkpt lat="46.26890864561805" lon="12.330633364831034"><ele>743.0</ele><time>2026-04-23T12:12:22Z</time></trkpt><trkpt lat="46.26884127485308" lon="12.330512164707372"><ele>743.0</ele><time>2026-04-23T12:12:23Z</time></trkpt><trkpt lat="46.26876700354112" lon="12.330415361150319"><ele>740.0</ele><time>2026-04-23T12:12:23.999Z</time></trkpt><trkpt lat="46.26869227579368" lon="12.330343357542242"><ele>737.0</ele><time>2026-04-23T12:12:24.999Z</time></trkpt><trkpt lat="46.2686323196767" lon="12.330261815109719"><ele>734.0</ele><time>2026-04-23T12:12:25.999Z</time></trkpt><trkpt lat="46.26857375820218" lon="12.330203857362386"><ele>731.0</ele><time>2026-04-23T12:12:26.999Z</time></trkpt><trkpt lat="46.26851926933366" lon="12.330149930207826"><ele>728.0</ele><time>2026-04-23T12:12:27.999Z</time></trkpt><trkpt lat="46.26843450462725" lon="12.330057830579246"><ele>725.0</ele><time>2026-04-23T12:12:29.999Z</time></trkpt><trkpt lat="46.26837383592994" lon="12.329972537495536"><ele>725.0</ele><time>2026-04-23T12:12:31.999Z</time></trkpt><trkpt lat="46.268319816460156" lon="12.329874779391629"><ele>725.0</ele><time>2026-04-23T12:13:23Z</time></trkpt><trkpt lat="46.26825597392517" lon="12.329692376478215"><ele>725.0</ele><time>2026-04-23T12:13:25Z</time></trkpt><trkpt lat="46.268236240127706" lon="12.329552630751031"><ele>725.0</ele><time>2026-04-23T12:13:26Z</time></trkpt><trkpt lat="46.26822290407485" lon="12.32937820112162"><ele>725.0</ele><time>2026-04-23T12:13:27Z</time></trkpt><trkpt lat="46.26820847566664" lon="12.329179270078706"><ele>730.0</ele><time>2026-04-23T12:13:28Z</time></trkpt><trkpt lat="46.26819088954666" lon="12.328958775481299"><ele>735.0</ele><time>2026-04-23T12:13:29Z</time></trkpt><trkpt lat="46.268171822597715" lon="12.32872410253522"><ele>740.0</ele><time>2026-04-23T12:13:30Z</time></trkpt><trkpt lat="46.26815147012496" lon="12.32847666801076"><ele>741.3333333333333</ele><time>2026-04-23T12:13:31Z</time></trkpt><trkpt lat="46.26812134697214" lon="12.328222718857242"><ele>742.6666666666666</ele><time>2026-04-23T12:13:32Z</time></trkpt><trkpt lat="46.268121758387906" lon="12.327937329476232"><ele>744.0</ele><time>2026-04-23T12:13:33.074Z</time></trkpt><trkpt lat="46.26810978216937" lon="12.327670592199613"><ele>744.0</ele><time>2026-04-23T12:13:34.06Z</time></trkpt><trkpt lat="46.26795591371378" lon="12.327689497941881"><ele>744.0</ele><time>2026-04-23T12:13:36Z</time></trkpt><trkpt lat="46.268062929963314" lon="12.327186132002268"><ele>744.0</ele><time>2026-04-23T12:13:38Z</time></trkpt><trkpt lat="46.26807850889386" lon="12.326948261087102"><ele>744.0</ele><time>2026-04-23T12:13:39Z</time></trkpt><trkpt lat="46.267289373198366" lon="12.324357482964093"><ele>744.0</ele><time>2026-04-23T12:13:47.344Z</time></trkpt><trkpt lat="46.26742371043293" lon="12.323737435889583"><ele>744.0</ele><time>2026-04-23T12:13:48.346Z</time></trkpt><trkpt lat="46.26752012417514" lon="12.323106949447027"><ele>744.0</ele><time>2026-04-23T12:13:49.347Z</time></trkpt><trkpt lat="46.26750786481138" lon="12.32245863450063"><ele>744.0</ele><time>2026-04-23T12:13:50.347Z</time></trkpt><trkpt lat="46.26749653972527" lon="12.321810365366806"><ele>744.0</ele><time>2026-04-23T12:13:51.347Z</time></trkpt><trkpt lat="46.26766401349983" lon="12.3245207445541"><ele>744.0</ele><time>2026-04-23T12:13:52Z</time></trkpt><trkpt lat="46.26733357605516" lon="12.324481950173759"><ele>744.0</ele><time>2026-04-23T12:13:54Z</time></trkpt><trkpt lat="46.26725489263804" lon="12.32440967529103"><ele>744.0</ele><time>2026-04-23T12:13:55Z</time></trkpt><trkpt lat="46.267323360505664" lon="12.324277629079395"><ele>744.0</ele><time>2026-04-23T12:13:56Z</time></trkpt><trkpt lat="46.267356759827756" lon="12.324127014003878"><ele>744.0</ele><time>2026-04-23T12:13:57Z</time></trkpt><trkpt lat="46.267391914848126" lon="12.323965424464653"><ele>744.0</ele><time>2026-04-23T12:13:58Z</time></trkpt><trkpt lat="46.267450320886745" lon="12.323779844017844"><ele>744.0</ele><time>2026-04-23T12:13:59Z</time></trkpt><trkpt lat="46.2675006185082" lon="12.323626998115282"><ele>744.0</ele><time>2026-04-23T12:14:00Z</time></trkpt><trkpt lat="46.26753292285466" lon="12.323495025736776"><ele>744.0</ele><time>2026-04-23T12:14:01Z</time></trkpt><trkpt lat="46.267548866296195" lon="12.323362779292514"><ele>744.0</ele><time>2026-04-23T12:14:02.063Z</time></trkpt><trkpt lat="46.26755388253226" lon="12.323242914562442"><ele>744.0</ele><time>2026-04-23T12:14:03.063Z</time></trkpt><trkpt lat="46.26755729551147" lon="12.323127540426034"><ele>744.0</ele><time>2026-04-23T12:14:04.058Z</time></trkpt><trkpt lat="46.267568938572694" lon="12.323008056365069"><ele>744.0</ele><time>2026-04-23T12:14:05.044Z</time></trkpt><trkpt lat="46.267771018554846" lon="12.32030595599733"><ele>744.0</ele><time>2026-04-23T12:14:09.343Z</time></trkpt><trkpt lat="46.268253103077825" lon="12.319368790854977"><ele>744.0</ele><time>2026-04-23T12:14:10.343Z</time></trkpt><trkpt lat="46.26890545730586" lon="12.318681601286434"><ele>649.0</ele><time>2026-04-23T12:14:11.344Z</time></trkpt><trkpt lat="46.26957196490491" lon="12.318019642785787"><ele>677.5</ele><time>2026-04-23T12:14:12.347Z</time></trkpt><trkpt lat="46.2698377" lon="12.3175368"><ele>706.0</ele><time>2026-04-23T12:14:13.347Z</time></trkpt><trkpt lat="46.2707006919384" lon="12.317813445179972"><ele>724.3333333333334</ele><time>2026-04-23T12:14:37.999Z</time></trkpt><trkpt lat="46.270664460188826" lon="12.317425529354043"><ele>742.6666666666666</ele><time>2026-04-23T12:14:38.999Z</time></trkpt><trkpt lat="46.2708237940958" lon="12.317365110858553"><ele>761.0</ele><time>2026-04-23T12:14:39.999Z</time></trkpt><trkpt lat="46.271002140955126" lon="12.31729982585224"><ele>761.0</ele><time>2026-04-23T12:14:40.999Z</time></trkpt><trkpt lat="46.27121637687363" lon="12.317240509623947"><ele>761.0</ele><time>2026-04-23T12:14:41.999Z</time></trkpt><trkpt lat="46.27144303391804" lon="12.317174174418529"><ele>761.0</ele><time>2026-04-23T12:14:42.999Z</time></trkpt><trkpt lat="46.27164159019958" lon="12.317115679222017"><ele>730.6666666666666</ele><time>2026-04-23T12:14:43.999Z</time></trkpt><trkpt lat="46.271822384198735" lon="12.317052272582531"><ele>700.3333333333334</ele><time>2026-04-23T12:14:44.999Z</time></trkpt><trkpt lat="46.27197987771865" lon="12.317002896806963"><ele>670.0</ele><time>2026-04-23T12:14:45.999Z</time></trkpt><trkpt lat="46.27211776155282" lon="12.317032048811516"><ele>670.0</ele><time>2026-04-23T12:14:46.999Z</time></trkpt><trkpt lat="46.27224489202265" lon="12.31707912142278"><ele>670.0</ele><time>2026-04-23T12:14:47.999Z</time></trkpt><trkpt lat="46.27240866914837" lon="12.317117248463756"><ele>670.0</ele><time>2026-04-23T12:14:48.999Z</time></trkpt><trkpt lat="46.27256686788491" lon="12.317172716130033"><ele>665.3333333333334</ele><time>2026-04-23T12:14:49.999Z</time></trkpt><trkpt lat="46.27273782825098" lon="12.317215352756799"><ele>660.6666666666666</ele><time>2026-04-23T12:14:50.999Z</time></trkpt><trkpt lat="46.27291481470292" lon="12.317248157344357"><ele>656.0</ele><time>2026-04-23T12:14:51.999Z</time></trkpt><trkpt lat="46.27310529087419" lon="12.317282732937072"><ele>656.0</ele><time>2026-04-23T12:14:52.999Z</time></trkpt><trkpt lat="46.27329110045437" lon="12.317348885979838"><ele>656.0</ele><time>2026-04-23T12:14:53.999Z</time></trkpt><trkpt lat="46.27347893572085" lon="12.317392036317596"><ele>656.0</ele><time>2026-04-23T12:14:54.999Z</time></trkpt><trkpt lat="46.27367924010812" lon="12.317438107400108"><ele>656.0</ele><time>2026-04-23T12:14:55.999Z</time></trkpt><trkpt lat="46.27388134488604" lon="12.31748506293115"><ele>656.0</ele><time>2026-04-23T12:14:56.999Z</time></trkpt><trkpt lat="46.27408050747686" lon="12.317508449364384"><ele>656.0</ele><time>2026-04-23T12:14:57.999Z</time></trkpt><trkpt lat="46.27427781273876" lon="12.317551915865751"><ele>653.0</ele><time>2026-04-23T12:14:58.999Z</time></trkpt><trkpt lat="46.274472630730244" lon="12.31758817789276"><ele>650.0</ele><time>2026-04-23T12:14:59.999Z</time></trkpt><trkpt lat="46.27466516590821" lon="12.317575756313964"><ele>647.0</ele><time>2026-04-23T12:15:00.999Z</time></trkpt><trkpt lat="46.27485502655732" lon="12.31755193522274"><ele>647.0</ele><time>2026-04-23T12:15:01.999Z</time></trkpt><trkpt lat="46.275058381187094" lon="12.317567671797914"><ele>647.0</ele><time>2026-04-23T12:15:02.999Z</time></trkpt><trkpt lat="46.2752675823997" lon="12.317551655415718"><ele>647.0</ele><time>2026-04-23T12:15:03.999Z</time></trkpt><trkpt lat="46.27546288049836" lon="12.317559660603152"><ele>649.6666666666666</ele><time>2026-04-23T12:15:04.999Z</time></trkpt><trkpt lat="46.27565951793195" lon="12.317571483459362"><ele>652.3333333333334</ele><time>2026-04-23T12:15:05.999Z</time></trkpt><trkpt lat="46.27584888118013" lon="12.317566530955737"><ele>655.0</ele><time>2026-04-23T12:15:06.999Z</time></trkpt><trkpt lat="46.276037147201386" lon="12.317557131822685"><ele>655.0</ele><time>2026-04-23T12:15:07.999Z</time></trkpt><trkpt lat="46.27623283932159" lon="12.317522049278828"><ele>655.0</ele><time>2026-04-23T12:15:08.999Z</time></trkpt><trkpt lat="46.276438904028176" lon="12.317482083259168"><ele>655.0</ele><time>2026-04-23T12:15:09.999Z</time></trkpt><trkpt lat="46.2766457595346" lon="12.3174420945778"><ele>657.6666666666667</ele><time>2026-04-23T12:15:10.999Z</time></trkpt><trkpt lat="46.27683938163846" lon="12.317405048659582"><ele>660.3333333333334</ele><time>2026-04-23T12:15:11.999Z</time></trkpt><trkpt lat="46.27700112058743" lon="12.317382573151217"><ele>663.0</ele><time>2026-04-23T12:15:12.999Z</time></trkpt><trkpt lat="46.27713404436022" lon="12.317374097873655"><ele>663.0</ele><time>2026-04-23T12:15:13.999Z</time></trkpt><trkpt lat="46.277250127253524" lon="12.317377482325465"><ele>663.0</ele><time>2026-04-23T12:15:14.999Z</time></trkpt><trkpt lat="46.27735250660892" lon="12.31738472070594"><ele>663.0</ele><time>2026-04-23T12:15:15.999Z</time></trkpt><trkpt lat="46.277418812675" lon="12.317352093084068"><ele>663.0</ele><time>2026-04-23T12:15:16.999Z</time></trkpt><trkpt lat="46.277455109286265" lon="12.317270459001561"><ele>663.0</ele><time>2026-04-23T12:15:17.999Z</time></trkpt><trkpt lat="46.27745020361859" lon="12.317164972539764"><ele>663.0</ele><time>2026-04-23T12:15:18.999Z</time></trkpt><trkpt lat="46.27741443968254" lon="12.317067639015253"><ele>655.75</ele><time>2026-04-23T12:15:19.999Z</time></trkpt><trkpt lat="46.2773260339497" lon="12.317018988636212"><ele>648.5</ele><time>2026-04-23T12:15:21Z</time></trkpt><trkpt lat="46.27720546457773" lon="12.31707440549787"><ele>641.25</ele><time>2026-04-23T12:15:22Z</time></trkpt><trkpt lat="46.277071058262216" lon="12.317114393646895"><ele>634.0</ele><time>2026-04-23T12:15:23Z</time></trkpt><trkpt lat="46.276905428781426" lon="12.31710612108947"><ele>633.6666666666667</ele><time>2026-04-23T12:15:24Z</time></trkpt><trkpt lat="46.27671604637564" lon="12.317113979271587"><ele>633.3333333333334</ele><time>2026-04-23T12:15:25Z</time></trkpt><trkpt lat="46.27651440083459" lon="12.317121296747883"><ele>633.0</ele><time>2026-04-23T12:15:26Z</time></trkpt><trkpt lat="46.276294096807995" lon="12.317128970448561"><ele>632.6666666666666</ele><time>2026-04-23T12:15:27Z</time></trkpt><trkpt lat="46.27606910425122" lon="12.317150438304484"><ele>632.3333333333333</ele><time>2026-04-23T12:15:28Z</time></trkpt><trkpt lat="46.27586136738613" lon="12.31714174846889"><ele>632.0</ele><time>2026-04-23T12:15:29Z</time></trkpt><trkpt lat="46.275665388699984" lon="12.31709196542521"><ele>632.3333333333333</ele><time>2026-04-23T12:15:30Z</time></trkpt><trkpt lat="46.2754594507758" lon="12.31706495221247"><ele>632.6666666666666</ele><time>2026-04-23T12:15:31Z</time></trkpt><trkpt lat="46.2752844468925" lon="12.317039332718318"><ele>633.0</ele><time>2026-04-23T12:15:32Z</time></trkpt><trkpt lat="46.27510124845458" lon="12.316989576647325"><ele>633.0</ele><time>2026-04-23T12:15:33Z</time></trkpt><trkpt lat="46.2749289602306" lon="12.31690514963743"><ele>633.0</ele><time>2026-04-23T12:15:34Z</time></trkpt><trkpt lat="46.2747510037622" lon="12.316842292753808"><ele>633.0</ele><time>2026-04-23T12:15:35Z</time></trkpt><trkpt lat="46.274592866460026" lon="12.316744305977704"><ele>633.0</ele><time>2026-04-23T12:15:36Z</time></trkpt><trkpt lat="46.274441010467044" lon="12.31666117973954"><ele>633.0</ele><time>2026-04-23T12:15:37Z</time></trkpt><trkpt lat="46.27430024749013" lon="12.31658985057892"><ele>633.0</ele><time>2026-04-23T12:15:38Z</time></trkpt><trkpt lat="46.274171184709104" lon="12.316532204734497"><ele>633.0</ele><time>2026-04-23T12:15:39Z</time></trkpt><trkpt lat="46.274055912983194" lon="12.316486197194738"><ele>633.0</ele><time>2026-04-23T12:15:40Z</time></trkpt><trkpt lat="46.273943122990154" lon="12.316454075874454"><ele>633.0</ele><time>2026-04-23T12:15:41Z</time></trkpt><trkpt lat="46.27382822531649" lon="12.316424737159583"><ele>633.0</ele><time>2026-04-23T12:15:42Z</time></trkpt><trkpt lat="46.27372052525619" lon="12.316396080969003"><ele>633.0</ele><time>2026-04-23T12:15:43Z</time></trkpt><trkpt lat="46.27361247138615" lon="12.316360345257495"><ele>630.6</ele><time>2026-04-23T12:15:44Z</time></trkpt><trkpt lat="46.27350699177354" lon="12.316322826872787"><ele>628.1999999999999</ele><time>2026-04-23T12:15:45Z</time></trkpt><trkpt lat="46.27340822046855" lon="12.316303068812314"><ele>625.8</ele><time>2026-04-23T12:15:46Z</time></trkpt><trkpt lat="46.273306778332646" lon="12.316283805277083"><ele>623.4</ele><time>2026-04-23T12:15:47Z</time></trkpt><trkpt lat="46.273204761147134" lon="12.316250899345075"><ele>621.0</ele><time>2026-04-23T12:15:48Z</time></trkpt><trkpt lat="46.27310327690706" lon="12.316226529305606"><ele>621.0</ele><time>2026-04-23T12:15:49Z</time></trkpt><trkpt lat="46.27300216371834" lon="12.316202098845407"><ele>621.0</ele><time>2026-04-23T12:15:50Z</time></trkpt><trkpt lat="46.27289741572033" lon="12.31617309975959"><ele>621.0</ele><time>2026-04-23T12:15:51Z</time></trkpt><trkpt lat="46.27279168605182" lon="12.316139795980735"><ele>621.0</ele><time>2026-04-23T12:15:52Z</time></trkpt><trkpt lat="46.27268872383705" lon="12.316111866491319"><ele>621.0</ele><time>2026-04-23T12:15:53Z</time></trkpt><trkpt lat="46.27259154873219" lon="12.316086235212355"><ele>621.0</ele><time>2026-04-23T12:15:54Z</time></trkpt><trkpt lat="46.27249482995363" lon="12.31605402323724"><ele>621.0</ele><time>2026-04-23T12:15:55Z</time></trkpt><trkpt lat="46.27239897852234" lon="12.316022334930102"><ele>621.0</ele><time>2026-04-23T12:15:56Z</time></trkpt><trkpt lat="46.27230249396259" lon="12.315994668513776"><ele>621.0</ele><time>2026-04-23T12:15:57Z</time></trkpt><trkpt lat="46.272200096170806" lon="12.315973859192589"><ele>621.0</ele><time>2026-04-23T12:15:58Z</time></trkpt><trkpt lat="46.27210766159052" lon="12.315945138504574"><ele>621.4</ele><time>2026-04-23T12:15:59Z</time></trkpt><trkpt lat="46.272010483863816" lon="12.315912004748586"><ele>621.8</ele><time>2026-04-23T12:16:00Z</time></trkpt><trkpt lat="46.27192096703147" lon="12.315882421142815"><ele>622.1999999999999</ele><time>2026-04-23T12:16:01Z</time></trkpt><trkpt lat="46.27182756770499" lon="12.315848906403303"><ele>622.6</ele><time>2026-04-23T12:16:02Z</time></trkpt><trkpt lat="46.271732496896746" lon="12.315814608268349"><ele>623.0</ele><time>2026-04-23T12:16:03Z</time></trkpt><trkpt lat="46.271637297080495" lon="12.315775804160534"><ele>623.0</ele><time>2026-04-23T12:16:04Z</time></trkpt><trkpt lat="46.27155161412504" lon="12.315707032176954"><ele>623.0</ele><time>2026-04-23T12:16:05Z</time></trkpt><trkpt lat="46.27145772615593" lon="12.315672201850187"><ele>623.0</ele><time>2026-04-23T12:16:06Z</time></trkpt><trkpt lat="46.27136888198473" lon="12.315617642340518"><ele>623.0</ele><time>2026-04-23T12:16:07Z</time></trkpt><trkpt lat="46.27127520246767" lon="12.315560380690576"><ele>623.0</ele><time>2026-04-23T12:16:08Z</time></trkpt><trkpt lat="46.27118932464361" lon="12.315502807111821"><ele>620.1999999999999</ele><time>2026-04-23T12:16:09Z</time></trkpt><trkpt lat="46.271117266989755" lon="12.315429500250739"><ele>617.4</ele><time>2026-04-23T12:16:10Z</time></trkpt><trkpt lat="46.27105216894375" lon="12.315342786578666"><ele>614.5999999999999</ele><time>2026-04-23T12:16:11Z</time></trkpt><trkpt lat="46.271025081415516" lon="12.315213535965142"><ele>611.8</ele><time>2026-04-23T12:16:12Z</time></trkpt><trkpt lat="46.27103886568999" lon="12.31508282811377"><ele>609.0</ele><time>2026-04-23T12:16:13Z</time></trkpt><trkpt lat="46.27110487250088" lon="12.31497912325021"><ele>609.0</ele><time>2026-04-23T12:16:14Z</time></trkpt><trkpt lat="46.27119275838555" lon="12.314922528236314"><ele>609.0</ele><time>2026-04-23T12:16:15Z</time></trkpt><trkpt lat="46.2712870991106" lon="12.314923930159715"><ele>609.0</ele><time>2026-04-23T12:16:16Z</time></trkpt><trkpt lat="46.27138021204588" lon="12.314972245234648"><ele>609.0</ele><time>2026-04-23T12:16:17Z</time></trkpt><trkpt lat="46.27147191010251" lon="12.315042668307258"><ele>609.0</ele><time>2026-04-23T12:16:18Z</time></trkpt><trkpt lat="46.271571008742065" lon="12.315112157528059"><ele>608.0</ele><time>2026-04-23T12:16:19Z</time></trkpt><trkpt lat="46.27168072966537" lon="12.315172143630038"><ele>607.0</ele><time>2026-04-23T12:16:19.999Z</time></trkpt><trkpt lat="46.27179921629885" lon="12.315237791435942"><ele>606.0</ele><time>2026-04-23T12:16:20.999Z</time></trkpt><trkpt lat="46.27191715773604" lon="12.315303264263814"><ele>605.0</ele><time>2026-04-23T12:16:21.999Z</time></trkpt><trkpt lat="46.272030904812745" lon="12.315369793445917"><ele>605.0</ele><time>2026-04-23T12:16:22.999Z</time></trkpt><trkpt lat="46.27214246863347" lon="12.315428292205345"><ele>605.0</ele><time>2026-04-23T12:16:23.999Z</time></trkpt><trkpt lat="46.2722564118087" lon="12.315479268337675"><ele>605.0</ele><time>2026-04-23T12:16:24.999Z</time></trkpt><trkpt lat="46.27239245360077" lon="12.315512920834859"><ele>605.0</ele><time>2026-04-23T12:16:25.999Z</time></trkpt><trkpt lat="46.272549089471596" lon="12.315528673246872"><ele>604.3333333333333</ele><time>2026-04-23T12:16:26.999Z</time></trkpt><trkpt lat="46.27271463663917" lon="12.31552784084656"><ele>603.6666666666666</ele><time>2026-04-23T12:16:27.999Z</time></trkpt><trkpt lat="46.27287606906197" lon="12.315527287224578"><ele>603.0</ele><time>2026-04-23T12:16:28.999Z</time></trkpt><trkpt lat="46.27303037430318" lon="12.315527380614823"><ele>604.75</ele><time>2026-04-23T12:16:29.999Z</time></trkpt><trkpt lat="46.27317785528065" lon="12.315522958016084"><ele>606.5</ele><time>2026-04-23T12:16:30.999Z</time></trkpt><trkpt lat="46.27331885492405" lon="12.315521266824879"><ele>608.25</ele><time>2026-04-23T12:16:31.999Z</time></trkpt><trkpt lat="46.27345864560265" lon="12.31554343013781"><ele>610.0</ele><time>2026-04-23T12:16:32.999Z</time></trkpt><trkpt lat="46.27359308967841" lon="12.315579307961093"><ele>610.0</ele><time>2026-04-23T12:16:33.999Z</time></trkpt><trkpt lat="46.27372004042302" lon="12.315626427242412"><ele>610.0</ele><time>2026-04-23T12:16:34.999Z</time></trkpt><trkpt lat="46.273845096790126" lon="12.31567639666595"><ele>610.0</ele><time>2026-04-23T12:16:35.999Z</time></trkpt><trkpt lat="46.2739653217489" lon="12.315716985932701"><ele>610.0</ele><time>2026-04-23T12:16:36.999Z</time></trkpt><trkpt lat="46.274073374357755" lon="12.31574625340802"><ele>609.4</ele><time>2026-04-23T12:16:37.999Z</time></trkpt><trkpt lat="46.27417335698952" lon="12.3157533887962"><ele>608.8</ele><time>2026-04-23T12:16:38.999Z</time></trkpt><trkpt lat="46.274267027301626" lon="12.31572968623454"><ele>608.2</ele><time>2026-04-23T12:16:39.999Z</time></trkpt><trkpt lat="46.274348601267825" lon="12.315661108716288"><ele>607.6</ele><time>2026-04-23T12:16:40.999Z</time></trkpt><trkpt lat="46.27439113235017" lon="12.315544986711524"><ele>607.0</ele><time>2026-04-23T12:16:41.999Z</time></trkpt><trkpt lat="46.274410874622276" lon="12.315425647669345"><ele>602.4</ele><time>2026-04-23T12:16:42.999Z</time></trkpt><trkpt lat="46.27439116271061" lon="12.315279967296728"><ele>597.8000000000001</ele><time>2026-04-23T12:16:43.999Z</time></trkpt><trkpt lat="46.274336449403854" lon="12.315153195708088"><ele>593.2</ele><time>2026-04-23T12:16:44.999Z</time></trkpt><trkpt lat="46.27425649175297" lon="12.315074768388229"><ele>588.6</ele><time>2026-04-23T12:16:45.999Z</time></trkpt><trkpt lat="46.274146761872125" lon="12.31503216056926"><ele>584.0</ele><time>2026-04-23T12:16:46.999Z</time></trkpt><trkpt lat="46.2740361844779" lon="12.314984599591263"><ele>582.5</ele><time>2026-04-23T12:16:47.999Z</time></trkpt><trkpt lat="46.27392417131919" lon="12.314919064279247"><ele>581.0</ele><time>2026-04-23T12:16:48.999Z</time></trkpt><trkpt lat="46.27381464417895" lon="12.314848451133333"><ele>579.5</ele><time>2026-04-23T12:16:49.999Z</time></trkpt><trkpt lat="46.27370941807782" lon="12.314789973402457"><ele>578.0</ele><time>2026-04-23T12:16:50.999Z</time></trkpt><trkpt lat="46.27361023645591" lon="12.314728496941035"><ele>578.0</ele><time>2026-04-23T12:16:51.999Z</time></trkpt><trkpt lat="46.2735252341431" lon="12.314660388078428"><ele>578.0</ele><time>2026-04-23T12:16:52.999Z</time></trkpt><trkpt lat="46.27345625252472" lon="12.31458292982982"><ele>578.0</ele><time>2026-04-23T12:16:53.999Z</time></trkpt><trkpt lat="46.27340975159142" lon="12.314491314308812"><ele>578.0</ele><time>2026-04-23T12:16:54.999Z</time></trkpt><trkpt lat="46.273398809992194" lon="12.314382796571177"><ele>578.0</ele><time>2026-04-23T12:16:55.999Z</time></trkpt><trkpt lat="46.273423267960894" lon="12.314269325103604"><ele>578.0</ele><time>2026-04-23T12:16:56.999Z</time></trkpt><trkpt lat="46.27348036511027" lon="12.314172256742605"><ele>578.0</ele><time>2026-04-23T12:16:57.999Z</time></trkpt><trkpt lat="46.2735634631449" lon="12.314118356088441"><ele>578.0</ele><time>2026-04-23T12:16:58.999Z</time></trkpt><trkpt lat="46.27366708324363" lon="12.314128827904437"><ele>578.0</ele><time>2026-04-23T12:16:59.999Z</time></trkpt><trkpt lat="46.27376564685306" lon="12.31418625088237"><ele>578.0</ele><time>2026-04-23T12:17:00.999Z</time></trkpt><trkpt lat="46.27385857320044" lon="12.314290143981971"><ele>578.0</ele><time>2026-04-23T12:17:01.999Z</time></trkpt><trkpt lat="46.273947158434964" lon="12.314407012009518"><ele>579.5</ele><time>2026-04-23T12:17:02.999Z</time></trkpt><trkpt lat="46.27404476437157" lon="12.31451861117989"><ele>581.0</ele><time>2026-04-23T12:17:03.999Z</time></trkpt><trkpt lat="46.274156416130054" lon="12.314624793376536"><ele>582.5</ele><time>2026-04-23T12:17:04.999Z</time></trkpt><trkpt lat="46.274291774976284" lon="12.314747424496616"><ele>584.0</ele><time>2026-04-23T12:17:05.999Z</time></trkpt><trkpt lat="46.27443864743867" lon="12.314876093540894"><ele>584.0</ele><time>2026-04-23T12:17:06.999Z</time></trkpt><trkpt lat="46.27458274503683" lon="12.314979318324992"><ele>584.0</ele><time>2026-04-23T12:17:07.999Z</time></trkpt><trkpt lat="46.274726603591496" lon="12.31504758286986"><ele>584.0</ele><time>2026-04-23T12:17:08.999Z</time></trkpt><trkpt lat="46.274879714097985" lon="12.315093900373002"><ele>579.0</ele><time>2026-04-23T12:17:09.999Z</time></trkpt><trkpt lat="46.275031508457566" lon="12.31510973540696"><ele>574.0</ele><time>2026-04-23T12:17:10.999Z</time></trkpt><trkpt lat="46.27519154456788" lon="12.315110896336954"><ele>569.0</ele><time>2026-04-23T12:17:11.999Z</time></trkpt><trkpt lat="46.275385327886845" lon="12.31509244971958"><ele>569.0</ele><time>2026-04-23T12:17:12.999Z</time></trkpt><trkpt lat="46.275587616094136" lon="12.315081679740967"><ele>569.0</ele><time>2026-04-23T12:17:13.999Z</time></trkpt><trkpt lat="46.27580033910409" lon="12.315078484700116"><ele>569.0</ele><time>2026-04-23T12:17:14.999Z</time></trkpt><trkpt lat="46.27599925810639" lon="12.315070603716256"><ele>567.6666666666666</ele><time>2026-04-23T12:17:15.999Z</time></trkpt><trkpt lat="46.27618898822108" lon="12.315056896025528"><ele>566.3333333333334</ele><time>2026-04-23T12:17:16.999Z</time></trkpt><trkpt lat="46.27637395648806" lon="12.315045133810965"><ele>565.0</ele><time>2026-04-23T12:17:17.999Z</time></trkpt><trkpt lat="46.2765661919005" lon="12.315021913663372"><ele>565.0</ele><time>2026-04-23T12:17:18.999Z</time></trkpt><trkpt lat="46.27675554684763" lon="12.314979397965446"><ele>565.0</ele><time>2026-04-23T12:17:19.999Z</time></trkpt><trkpt lat="46.2769371828951" lon="12.314916112095737"><ele>565.0</ele><time>2026-04-23T12:17:20.999Z</time></trkpt><trkpt lat="46.277109842212035" lon="12.314846264096392"><ele>564.0</ele><time>2026-04-23T12:17:21.999Z</time></trkpt><trkpt lat="46.277281318325585" lon="12.314802245936091"><ele>563.0</ele><time>2026-04-23T12:17:22.999Z</time></trkpt><trkpt lat="46.27743267723136" lon="12.31469332943908"><ele>562.0</ele><time>2026-04-23T12:17:23.999Z</time></trkpt><trkpt lat="46.27757700660391" lon="12.314591075619546"><ele>554.6666666666667</ele><time>2026-04-23T12:17:24.999Z</time></trkpt><trkpt lat="46.27772843334922" lon="12.314480918238255"><ele>547.3333333333334</ele><time>2026-04-23T12:17:26Z</time></trkpt><trkpt lat="46.27786989234497" lon="12.31433345827493"><ele>540.0</ele><time>2026-04-23T12:17:27Z</time></trkpt><trkpt lat="46.2779897086556" lon="12.314149368917581"><ele>540.6666666666666</ele><time>2026-04-23T12:17:28Z</time></trkpt><trkpt lat="46.27811244228974" lon="12.313975151818848"><ele>541.3333333333333</ele><time>2026-04-23T12:17:29Z</time></trkpt><trkpt lat="46.278230691424056" lon="12.313813416494495"><ele>542.0</ele><time>2026-04-23T12:17:30Z</time></trkpt><trkpt lat="46.27835805480584" lon="12.3136792125979"><ele>542.0</ele><time>2026-04-23T12:17:31Z</time></trkpt><trkpt lat="46.27849218862139" lon="12.313585495855245"><ele>542.0</ele><time>2026-04-23T12:17:32Z</time></trkpt><trkpt lat="46.27863652210596" lon="12.31351670910764"><ele>542.0</ele><time>2026-04-23T12:17:33Z</time></trkpt><trkpt lat="46.2787933613291" lon="12.313473840746832"><ele>539.0</ele><time>2026-04-23T12:17:34Z</time></trkpt><trkpt lat="46.278978283607515" lon="12.313437891209636"><ele>536.0</ele><time>2026-04-23T12:17:35Z</time></trkpt><trkpt lat="46.27918787696845" lon="12.313399445001767"><ele>533.0</ele><time>2026-04-23T12:17:36Z</time></trkpt><trkpt lat="46.27940439918588" lon="12.313350216077014"><ele>533.0</ele><time>2026-04-23T12:17:37Z</time></trkpt><trkpt lat="46.27961510183347" lon="12.313304381275309"><ele>533.0</ele><time>2026-04-23T12:17:38Z</time></trkpt><trkpt lat="46.27981902404304" lon="12.313260645587986"><ele>533.0</ele><time>2026-04-23T12:17:39Z</time></trkpt><trkpt lat="46.28001700669498" lon="12.313222395746935"><ele>532.0</ele><time>2026-04-23T12:17:40Z</time></trkpt><trkpt lat="46.2802064201152" lon="12.313182188502406"><ele>531.0</ele><time>2026-04-23T12:17:41Z</time></trkpt><trkpt lat="46.2803826068306" lon="12.313146702095816"><ele>530.0</ele><time>2026-04-23T12:17:42Z</time></trkpt><trkpt lat="46.280528694119184" lon="12.313114986469571"><ele>529.6</ele><time>2026-04-23T12:17:43Z</time></trkpt><trkpt lat="46.28065480893231" lon="12.31307541416349"><ele>529.2</ele><time>2026-04-23T12:17:44Z</time></trkpt><trkpt lat="46.28075467769318" lon="12.313014599922095"><ele>528.8</ele><time>2026-04-23T12:17:45Z</time></trkpt><trkpt lat="46.280833245316764" lon="12.312915919276808"><ele>528.4</ele><time>2026-04-23T12:17:46Z</time></trkpt><trkpt lat="46.28087011636138" lon="12.312780480433004"><ele>528.0</ele><time>2026-04-23T12:17:47Z</time></trkpt><trkpt lat="46.28089300968843" lon="12.312631282798659"><ele>523.75</ele><time>2026-04-23T12:17:48Z</time></trkpt><trkpt lat="46.28082995423837" lon="12.31249468676072"><ele>519.5</ele><time>2026-04-23T12:17:49Z</time></trkpt><trkpt lat="46.28075229601051" lon="12.312381315869596"><ele>515.25</ele><time>2026-04-23T12:17:50Z</time></trkpt><trkpt lat="46.28063866304718" lon="12.312307929072237"><ele>511.0</ele><time>2026-04-23T12:17:51Z</time></trkpt><trkpt lat="46.28051456928986" lon="12.312280271011954"><ele>511.0</ele><time>2026-04-23T12:17:52Z</time></trkpt><trkpt lat="46.280352641541846" lon="12.312263292587126"><ele>511.0</ele><time>2026-04-23T12:17:53Z</time></trkpt><trkpt lat="46.28016741173883" lon="12.312228603499312"><ele>511.0</ele><time>2026-04-23T12:17:54Z</time></trkpt><trkpt lat="46.279973696882166" lon="12.312187242873566"><ele>503.33333333333337</ele><time>2026-04-23T12:17:55Z</time></trkpt><trkpt lat="46.2797624787418" lon="12.312145938937418"><ele>495.66666666666663</ele><time>2026-04-23T12:17:56Z</time></trkpt><trkpt lat="46.27953927298005" lon="12.312125087304922"><ele>488.0</ele><time>2026-04-23T12:17:57Z</time></trkpt><trkpt lat="46.27932138214506" lon="12.312131159595824"><ele>488.0</ele><time>2026-04-23T12:17:58Z</time></trkpt><trkpt lat="46.27909981410508" lon="12.312152644584216"><ele>488.0</ele><time>2026-04-23T12:17:59Z</time></trkpt><trkpt lat="46.27888866627675" lon="12.312147658866692"><ele>488.0</ele><time>2026-04-23T12:18:00Z</time></trkpt><trkpt lat="46.278722896162236" lon="12.31212123145874"><ele>489.25</ele><time>2026-04-23T12:18:01Z</time></trkpt><trkpt lat="46.27858202360238" lon="12.312059156062412"><ele>490.5</ele><time>2026-04-23T12:18:02Z</time></trkpt><trkpt lat="46.278453436728796" lon="12.312011890162571"><ele>491.75</ele><time>2026-04-23T12:18:03Z</time></trkpt><trkpt lat="46.27834635840499" lon="12.311987071537667"><ele>493.0</ele><time>2026-04-23T12:18:04Z</time></trkpt><trkpt lat="46.27827420654337" lon="12.311916117683648"><ele>493.00000000000006</ele><time>2026-04-23T12:18:05Z</time></trkpt><trkpt lat="46.278229494578206" lon="12.311818673978527"><ele>493.0</ele><time>2026-04-23T12:18:06Z</time></trkpt><trkpt lat="46.2782342021892" lon="12.311700854551686"><ele>493.0</ele><time>2026-04-23T12:18:07Z</time></trkpt><trkpt lat="46.27828141626692" lon="12.311600559567909"><ele>493.0</ele><time>2026-04-23T12:18:08Z</time></trkpt><trkpt lat="46.27836143508133" lon="12.311555755669813"><ele>493.00000000000006</ele><time>2026-04-23T12:18:09Z</time></trkpt><trkpt lat="46.278452312059194" lon="12.311587320884604"><ele>493.0</ele><time>2026-04-23T12:18:10Z</time></trkpt><trkpt lat="46.2785454508517" lon="12.311652549772296"><ele>493.0</ele><time>2026-04-23T12:18:11Z</time></trkpt><trkpt lat="46.27865185282688" lon="12.311730679323931"><ele>493.0</ele><time>2026-04-23T12:18:12Z</time></trkpt><trkpt lat="46.27877676237321" lon="12.311795803618683"><ele>493.0</ele><time>2026-04-23T12:18:13Z</time></trkpt><trkpt lat="46.2789174493695" lon="12.31182870377701"><ele>493.0</ele><time>2026-04-23T12:18:14Z</time></trkpt><trkpt lat="46.279061262077086" lon="12.31183717572353"><ele>491.75</ele><time>2026-04-23T12:18:15Z</time></trkpt><trkpt lat="46.27920916769137" lon="12.311822761999924"><ele>490.5</ele><time>2026-04-23T12:18:16Z</time></trkpt><trkpt lat="46.279350046056905" lon="12.311803387455717"><ele>489.25</ele><time>2026-04-23T12:18:17Z</time></trkpt><trkpt lat="46.27948349214472" lon="12.311786628561835"><ele>488.0</ele><time>2026-04-23T12:18:18Z</time></trkpt><trkpt lat="46.27958871287369" lon="12.311764121459245"><ele>487.99999999999994</ele><time>2026-04-23T12:18:19Z</time></trkpt><trkpt lat="46.27967144353941" lon="12.31170601251211"><ele>488.0</ele><time>2026-04-23T12:18:20Z</time></trkpt><trkpt lat="46.27971887589886" lon="12.311597568524187"><ele>488.0</ele><time>2026-04-23T12:18:20.999Z</time></trkpt><trkpt lat="46.27972142588995" lon="12.311482221052014"><ele>488.0</ele><time>2026-04-23T12:18:21.999Z</time></trkpt><trkpt lat="46.279675681707495" lon="12.311381451964204"><ele>487.99999999999994</ele><time>2026-04-23T12:18:22.999Z</time></trkpt><trkpt lat="46.27961503020773" lon="12.311305788636538"><ele>488.0</ele><time>2026-04-23T12:18:23.999Z</time></trkpt><trkpt lat="46.27952661249934" lon="12.311244854543379"><ele>484.75</ele><time>2026-04-23T12:18:24.999Z</time></trkpt><trkpt lat="46.27941383760655" lon="12.311187636760257"><ele>481.5</ele><time>2026-04-23T12:18:25.999Z</time></trkpt><trkpt lat="46.279298123868024" lon="12.311110043300273"><ele>478.25</ele><time>2026-04-23T12:18:26.999Z</time></trkpt><trkpt lat="46.27917586042785" lon="12.311035787305881"><ele>475.0</ele><time>2026-04-23T12:18:27.999Z</time></trkpt><trkpt lat="46.2790473140724" lon="12.31096543287015"><ele>474.25</ele><time>2026-04-23T12:18:28.999Z</time></trkpt><trkpt lat="46.27891554924286" lon="12.310907671892927"><ele>473.5</ele><time>2026-04-23T12:18:29.999Z</time></trkpt><trkpt lat="46.278785757823194" lon="12.310856311633373"><ele>472.75</ele><time>2026-04-23T12:18:30.999Z</time></trkpt><trkpt lat="46.27866106973001" lon="12.310780800373943"><ele>472.0</ele><time>2026-04-23T12:18:31.999Z</time></trkpt><trkpt lat="46.27853397128868" lon="12.310724414032174"><ele>472.0</ele><time>2026-04-23T12:18:32.999Z</time></trkpt><trkpt lat="46.27840338215146" lon="12.310681058248125"><ele>472.0</ele><time>2026-04-23T12:18:33.999Z</time></trkpt><trkpt lat="46.278279717377714" lon="12.310605655882526"><ele>472.0</ele><time>2026-04-23T12:18:34.999Z</time></trkpt><trkpt lat="46.278157345384294" lon="12.31052405452458"><ele>472.0</ele><time>2026-04-23T12:18:35.999Z</time></trkpt><trkpt lat="46.2780357490962" lon="12.31043820974657"><ele>470.0</ele><time>2026-04-23T12:18:36.999Z</time></trkpt><trkpt lat="46.27791616090449" lon="12.310342898700203"><ele>468.0</ele><time>2026-04-23T12:18:37.999Z</time></trkpt><trkpt lat="46.27780491882568" lon="12.310244239823279"><ele>466.0</ele><time>2026-04-23T12:18:38.999Z</time></trkpt><trkpt lat="46.27769918981429" lon="12.310149531567307"><ele>464.0</ele><time>2026-04-23T12:18:39.999Z</time></trkpt><trkpt lat="46.27759578384942" lon="12.310055604312934"><ele>464.0</ele><time>2026-04-23T12:18:40.999Z</time></trkpt><trkpt lat="46.27749849309719" lon="12.309963725721982"><ele>464.0</ele><time>2026-04-23T12:18:41.999Z</time></trkpt><trkpt lat="46.27740591258046" lon="12.309872584877235"><ele>464.0</ele><time>2026-04-23T12:18:42.999Z</time></trkpt><trkpt lat="46.27731435224521" lon="12.30978065379738"><ele>464.0</ele><time>2026-04-23T12:18:43.999Z</time></trkpt><trkpt lat="46.27722103054654" lon="12.309689319600627"><ele>462.75</ele><time>2026-04-23T12:18:44.999Z</time></trkpt><trkpt lat="46.27712804852888" lon="12.309589678087239"><ele>461.5</ele><time>2026-04-23T12:18:45.999Z</time></trkpt><trkpt lat="46.277035991555486" lon="12.309483243099477"><ele>460.25</ele><time>2026-04-23T12:18:46.999Z</time></trkpt><trkpt lat="46.27694671286426" lon="12.309373551692751"><ele>459.0</ele><time>2026-04-23T12:18:47.999Z</time></trkpt><trkpt lat="46.27685963439213" lon="12.309264486687098"><ele>459.0</ele><time>2026-04-23T12:18:48.999Z</time></trkpt><trkpt lat="46.27677580364528" lon="12.30915299590365"><ele>459.0</ele><time>2026-04-23T12:18:49.999Z</time></trkpt><trkpt lat="46.276693225532284" lon="12.309043613685182"><ele>459.0</ele><time>2026-04-23T12:18:50.999Z</time></trkpt><trkpt lat="46.27662900980871" lon="12.308919454439021"><ele>459.0</ele><time>2026-04-23T12:18:51.999Z</time></trkpt><trkpt lat="46.276554129407444" lon="12.308812434517542"><ele>459.0</ele><time>2026-04-23T12:18:52.999Z</time></trkpt><trkpt lat="46.2764783479728" lon="12.308706367256555"><ele>458.0</ele><time>2026-04-23T12:18:53.999Z</time></trkpt><trkpt lat="46.27638747624644" lon="12.308605312368957"><ele>457.0</ele><time>2026-04-23T12:18:54.999Z</time></trkpt><trkpt lat="46.27630089155724" lon="12.308488752419954"><ele>456.0</ele><time>2026-04-23T12:18:55.999Z</time></trkpt><trkpt lat="46.27621431518488" lon="12.308359903433828"><ele>455.0</ele><time>2026-04-23T12:18:56.999Z</time></trkpt><trkpt lat="46.27609390755732" lon="12.308267159703103"><ele>455.0</ele><time>2026-04-23T12:18:57.999Z</time></trkpt><trkpt lat="46.27597770443153" lon="12.308205913201855"><ele>455.0</ele><time>2026-04-23T12:18:58.999Z</time></trkpt><trkpt lat="46.27585944993116" lon="12.308180739391116"><ele>455.0</ele><time>2026-04-23T12:18:59.999Z</time></trkpt><trkpt lat="46.27572908772874" lon="12.30820199294574"><ele>455.0</ele><time>2026-04-23T12:19:00.999Z</time></trkpt><trkpt lat="46.275600757239815" lon="12.308229251583725"><ele>451.66666666666663</ele><time>2026-04-23T12:19:01.999Z</time></trkpt><trkpt lat="46.27545639034714" lon="12.308289755768216"><ele>448.33333333333337</ele><time>2026-04-23T12:19:02.999Z</time></trkpt><trkpt lat="46.275296885066986" lon="12.308407350093988"><ele>445.0</ele><time>2026-04-23T12:19:03.999Z</time></trkpt><trkpt lat="46.2751293248646" lon="12.308523804071408"><ele>445.0</ele><time>2026-04-23T12:19:04.999Z</time></trkpt><trkpt lat="46.27495598144888" lon="12.308637862529183"><ele>445.0</ele><time>2026-04-23T12:19:05.999Z</time></trkpt><trkpt lat="46.27478272074782" lon="12.308750785519445"><ele>445.0</ele><time>2026-04-23T12:19:06.999Z</time></trkpt><trkpt lat="46.27461093654089" lon="12.308864200288463"><ele>445.0</ele><time>2026-04-23T12:19:07.999Z</time></trkpt><trkpt lat="46.27443959381973" lon="12.308962750755303"><ele>445.0</ele><time>2026-04-23T12:19:08.999Z</time></trkpt><trkpt lat="46.274260206665865" lon="12.309040018846513"><ele>445.0</ele><time>2026-04-23T12:19:09.999Z</time></trkpt><trkpt lat="46.274072567528115" lon="12.309099781129678"><ele>446.33333333333337</ele><time>2026-04-23T12:19:10.999Z</time></trkpt><trkpt lat="46.27388082615321" lon="12.309151996733796"><ele>447.66666666666663</ele><time>2026-04-23T12:19:11.999Z</time></trkpt><trkpt lat="46.27368595110841" lon="12.30918294994036"><ele>449.0</ele><time>2026-04-23T12:19:12.999Z</time></trkpt><trkpt lat="46.27350145517277" lon="12.309184648261164"><ele>449.0</ele><time>2026-04-23T12:19:13.999Z</time></trkpt><trkpt lat="46.27331713240784" lon="12.309166313125147"><ele>449.0</ele><time>2026-04-23T12:19:14.999Z</time></trkpt><trkpt lat="46.27312190296904" lon="12.30914103343902"><ele>449.0</ele><time>2026-04-23T12:19:15.999Z</time></trkpt><trkpt lat="46.27292665128542" lon="12.309111636041372"><ele>452.0</ele><time>2026-04-23T12:19:16.999Z</time></trkpt><trkpt lat="46.272730379776554" lon="12.309086032710193"><ele>455.0</ele><time>2026-04-23T12:19:17.999Z</time></trkpt><trkpt lat="46.27253562354506" lon="12.309060607909462"><ele>458.0</ele><time>2026-04-23T12:19:18.999Z</time></trkpt><trkpt lat="46.27234236844199" lon="12.309031441218934"><ele>457.3333333333333</ele><time>2026-04-23T12:19:19.999Z</time></trkpt><trkpt lat="46.27215563434448" lon="12.309000336074229"><ele>456.66666666666663</ele><time>2026-04-23T12:19:20.999Z</time></trkpt><trkpt lat="46.271977541611406" lon="12.30896615268177"><ele>456.0</ele><time>2026-04-23T12:19:21.999Z</time></trkpt><trkpt lat="46.27180593989503" lon="12.30893030520314"><ele>456.0</ele><time>2026-04-23T12:19:22.999Z</time></trkpt><trkpt lat="46.27163561580355" lon="12.308918001680283"><ele>456.0</ele><time>2026-04-23T12:19:23.999Z</time></trkpt><trkpt lat="46.271459238975126" lon="12.308930270206764"><ele>456.0</ele><time>2026-04-23T12:19:24.999Z</time></trkpt><trkpt lat="46.2712824196194" lon="12.30897164935812"><ele>453.0</ele><time>2026-04-23T12:19:25.999Z</time></trkpt><trkpt lat="46.271103742155006" lon="12.309046366412714"><ele>450.0</ele><time>2026-04-23T12:19:26.999Z</time></trkpt><trkpt lat="46.27092859102891" lon="12.30914959326436"><ele>447.0</ele><time>2026-04-23T12:19:27.999Z</time></trkpt><trkpt lat="46.27074254970619" lon="12.309274436545445"><ele>445.5</ele><time>2026-04-23T12:19:28.998Z</time></trkpt><trkpt lat="46.27053425996967" lon="12.309398996061663"><ele>444.0</ele><time>2026-04-23T12:19:29.998Z</time></trkpt><trkpt lat="46.270313727747144" lon="12.309529690745533"><ele>444.0</ele><time>2026-04-23T12:19:30.998Z</time></trkpt><trkpt lat="46.27007754344551" lon="12.309667372709074"><ele>444.0</ele><time>2026-04-23T12:19:32Z</time></trkpt><trkpt lat="46.26984016354501" lon="12.309811210940774"><ele>444.33333333333337</ele><time>2026-04-23T12:19:33Z</time></trkpt><trkpt lat="46.269628718809976" lon="12.309943214760052"><ele>444.6666666666667</ele><time>2026-04-23T12:19:34Z</time></trkpt><trkpt lat="46.269437677094146" lon="12.310064584386438"><ele>445.0</ele><time>2026-04-23T12:19:35Z</time></trkpt><trkpt lat="46.26925583208941" lon="12.310177990026189"><ele>445.0</ele><time>2026-04-23T12:19:36Z</time></trkpt><trkpt lat="46.26908577610072" lon="12.310283302471776"><ele>445.0</ele><time>2026-04-23T12:19:37Z</time></trkpt><trkpt lat="46.26889860704622" lon="12.310396746752984"><ele>445.0</ele><time>2026-04-23T12:19:38Z</time></trkpt><trkpt lat="46.26872011035136" lon="12.31050992516438"><ele>449.25</ele><time>2026-04-23T12:19:39Z</time></trkpt><trkpt lat="46.26856293549947" lon="12.31060546303292"><ele>453.5</ele><time>2026-04-23T12:19:40Z</time></trkpt><trkpt lat="46.268427931022536" lon="12.310687413671381"><ele>457.75</ele><time>2026-04-23T12:19:41Z</time></trkpt><trkpt lat="46.26831054755616" lon="12.310757642364354"><ele>462.0</ele><time>2026-04-23T12:19:42Z</time></trkpt><trkpt lat="46.26820717886367" lon="12.310820497484347"><ele>462.0</ele><time>2026-04-23T12:19:43Z</time></trkpt><trkpt lat="46.26811778213814" lon="12.310847006040891"><ele>462.00000000000006</ele><time>2026-04-23T12:19:44Z</time></trkpt><trkpt lat="46.26803894342237" lon="12.310831456864038"><ele>462.00000000000006</ele><time>2026-04-23T12:19:45Z</time></trkpt><trkpt lat="46.267978033790975" lon="12.310759206775415"><ele>462.0</ele><time>2026-04-23T12:19:46Z</time></trkpt><trkpt lat="46.2679459349269" lon="12.310625755112508"><ele>462.0</ele><time>2026-04-23T12:19:47Z</time></trkpt><trkpt lat="46.267932706119446" lon="12.31045154062908"><ele>454.66666666666663</ele><time>2026-04-23T12:19:48Z</time></trkpt><trkpt lat="46.267928549246655" lon="12.310233387452811"><ele>447.3333333333333</ele><time>2026-04-23T12:19:49Z</time></trkpt><trkpt lat="46.26791305184196" lon="12.310000235032764"><ele>440.0</ele><time>2026-04-23T12:19:50Z</time></trkpt><trkpt lat="46.267893093630086" lon="12.309733704820461"><ele>439.0</ele><time>2026-04-23T12:19:51Z</time></trkpt><trkpt lat="46.26787991919139" lon="12.309460085610649"><ele>438.0</ele><time>2026-04-23T12:19:52Z</time></trkpt><trkpt lat="46.26785734624673" lon="12.309179317893497"><ele>437.0</ele><time>2026-04-23T12:19:53Z</time></trkpt><trkpt lat="46.267843736807606" lon="12.308853588525457"><ele>436.0</ele><time>2026-04-23T12:19:54Z</time></trkpt><trkpt lat="46.26782464949985" lon="12.30851160067893"><ele>435.0</ele><time>2026-04-23T12:19:55Z</time></trkpt><trkpt lat="46.26780349625676" lon="12.308179023725861"><ele>435.0</ele><time>2026-04-23T12:19:56Z</time></trkpt><trkpt lat="46.26778604637194" lon="12.307864169037014"><ele>435.0</ele><time>2026-04-23T12:19:57Z</time></trkpt><trkpt lat="46.26776655828403" lon="12.307537620901206"><ele>435.0</ele><time>2026-04-23T12:19:58Z</time></trkpt><trkpt lat="46.267748823752726" lon="12.307219634363255"><ele>435.0</ele><time>2026-04-23T12:19:59Z</time></trkpt><trkpt lat="46.267731838460286" lon="12.306911984822332"><ele>435.0</ele><time>2026-04-23T12:20:00Z</time></trkpt><trkpt lat="46.26771064508919" lon="12.306603084647879"><ele>435.0</ele><time>2026-04-23T12:20:01Z</time></trkpt><trkpt lat="46.26769437022131" lon="12.306317589860198"><ele>436.0</ele><time>2026-04-23T12:20:02Z</time></trkpt><trkpt lat="46.267678044245095" lon="12.306055393582183"><ele>437.0</ele><time>2026-04-23T12:20:03Z</time></trkpt><trkpt lat="46.26766557478159" lon="12.30581079971183"><ele>438.0</ele><time>2026-04-23T12:20:04Z</time></trkpt><trkpt lat="46.267658653088446" lon="12.30559002129344"><ele>438.79999999999995</ele><time>2026-04-23T12:20:05Z</time></trkpt><trkpt lat="46.26765561201733" lon="12.305396073070916"><ele>439.59999999999997</ele><time>2026-04-23T12:20:06Z</time></trkpt><trkpt lat="46.26767697358686" lon="12.305229924191396"><ele>440.40000000000003</ele><time>2026-04-23T12:20:07Z</time></trkpt><trkpt lat="46.2676904497087" lon="12.305082956695813"><ele>441.20000000000005</ele><time>2026-04-23T12:20:08Z</time></trkpt><trkpt lat="46.26770485834421" lon="12.304971714077409"><ele>442.0</ele><time>2026-04-23T12:20:09Z</time></trkpt><trkpt lat="46.267720445755025" lon="12.304876835937993"><ele>442.0</ele><time>2026-04-23T12:20:10Z</time></trkpt><trkpt lat="46.2677348254908" lon="12.304786797759643"><ele>442.00000000000006</ele><time>2026-04-23T12:20:11Z</time></trkpt><trkpt lat="46.26757266818693" lon="12.304729113786914"><ele>442.00000000000006</ele><time>2026-04-23T12:20:13Z</time></trkpt><trkpt lat="46.26749229040727" lon="12.304731340254296"><ele>442.0</ele><time>2026-04-23T12:20:14Z</time></trkpt><trkpt lat="46.26737241420788" lon="12.304730752431913"><ele>442.0</ele><time>2026-04-23T12:20:15Z</time></trkpt><trkpt lat="46.26724413934002" lon="12.30479014363656"><ele>442.0</ele><time>2026-04-23T12:20:16Z</time></trkpt><trkpt lat="46.267096187017614" lon="12.304841517257746"><ele>442.0</ele><time>2026-04-23T12:20:17Z</time></trkpt><trkpt lat="46.26695127863968" lon="12.304879362198541"><ele>442.0</ele><time>2026-04-23T12:20:18Z</time></trkpt><trkpt lat="46.2668334280031" lon="12.304905780264722"><ele>442.0</ele><time>2026-04-23T12:20:19Z</time></trkpt><trkpt lat="46.266741022237916" lon="12.304919921808164"><ele>442.00000000000006</ele><time>2026-04-23T12:20:20Z</time></trkpt><trkpt lat="46.266666017891055" lon="12.304919580815477"><ele>442.0</ele><time>2026-04-23T12:20:21Z</time></trkpt><trkpt lat="46.26661094929891" lon="12.30486962679634"><ele>442.0</ele><time>2026-04-23T12:20:22Z</time></trkpt><trkpt lat="46.26657441655918" lon="12.304781841786188"><ele>442.0</ele><time>2026-04-23T12:20:23Z</time></trkpt><trkpt lat="46.266566951971264" lon="12.304676368648785"><ele>442.0</ele><time>2026-04-23T12:20:24Z</time></trkpt><trkpt lat="46.26659339063711" lon="12.30458405855998"><ele>442.00000000000006</ele><time>2026-04-23T12:20:25Z</time></trkpt><trkpt lat="46.266646488554386" lon="12.304491295929196"><ele>442.0</ele><time>2026-04-23T12:20:26Z</time></trkpt><trkpt lat="46.26673007352295" lon="12.304376380865815"><ele>442.25</ele><time>2026-04-23T12:20:27Z</time></trkpt><trkpt lat="46.2668377715893" lon="12.304280481667682"><ele>442.5</ele><time>2026-04-23T12:20:28Z</time></trkpt><trkpt lat="46.26693768945931" lon="12.304171176274645"><ele>442.75</ele><time>2026-04-23T12:20:29Z</time></trkpt><trkpt lat="46.26705858491205" lon="12.304051316249437"><ele>443.0</ele><time>2026-04-23T12:20:30Z</time></trkpt><trkpt lat="46.26720587746403" lon="12.30396370587452"><ele>444.66666666666663</ele><time>2026-04-23T12:20:31Z</time></trkpt><trkpt lat="46.26736942332816" lon="12.303881855646852"><ele>446.33333333333337</ele><time>2026-04-23T12:20:32Z</time></trkpt><trkpt lat="46.26753370093984" lon="12.303814273480082"><ele>448.0</ele><time>2026-04-23T12:20:32.999Z</time></trkpt><trkpt lat="46.26770551713138" lon="12.303769091185789"><ele>448.0</ele><time>2026-04-23T12:20:33.999Z</time></trkpt><trkpt lat="46.26787823721795" lon="12.30375055572731"><ele>448.0</ele><time>2026-04-23T12:20:34.999Z</time></trkpt><trkpt lat="46.26806139527307" lon="12.303742178445415"><ele>448.0</ele><time>2026-04-23T12:20:35.999Z</time></trkpt><trkpt lat="46.268240435317274" lon="12.303747695357988"><ele>446.6666666666667</ele><time>2026-04-23T12:20:36.999Z</time></trkpt><trkpt lat="46.26841978589486" lon="12.303751162923708"><ele>445.33333333333337</ele><time>2026-04-23T12:20:37.999Z</time></trkpt><trkpt lat="46.26860018225619" lon="12.303757374257767"><ele>444.0</ele><time>2026-04-23T12:20:38.999Z</time></trkpt><trkpt lat="46.26877722656275" lon="12.303762093475196"><ele>444.0</ele><time>2026-04-23T12:20:39.999Z</time></trkpt><trkpt lat="46.26895735947341" lon="12.303775881621386"><ele>444.0</ele><time>2026-04-23T12:20:40.999Z</time></trkpt><trkpt lat="46.269135193280825" lon="12.303806981080827"><ele>444.0</ele><time>2026-04-23T12:20:41.999Z</time></trkpt><trkpt lat="46.26931331121399" lon="12.303851395946463"><ele>444.0</ele><time>2026-04-23T12:20:42.999Z</time></trkpt><trkpt lat="46.269487359543504" lon="12.303909030322322"><ele>444.0</ele><time>2026-04-23T12:20:43.999Z</time></trkpt><trkpt lat="46.269649006552626" lon="12.303966767346907"><ele>444.0</ele><time>2026-04-23T12:20:44.999Z</time></trkpt><trkpt lat="46.26978606889039" lon="12.304019776689433"><ele>443.25</ele><time>2026-04-23T12:20:45.999Z</time></trkpt><trkpt lat="46.269897982921094" lon="12.304071704687786"><ele>442.5</ele><time>2026-04-23T12:20:46.999Z</time></trkpt><trkpt lat="46.27000380302243" lon="12.304118697362311"><ele>441.75</ele><time>2026-04-23T12:20:47.999Z</time></trkpt><trkpt lat="46.27010695193241" lon="12.304170710018933"><ele>441.0</ele><time>2026-04-23T12:20:48.999Z</time></trkpt><trkpt lat="46.27021475273813" lon="12.304224871444541"><ele>441.0</ele><time>2026-04-23T12:20:49.999Z</time></trkpt><trkpt lat="46.27032582365686" lon="12.30428018272221"><ele>441.0</ele><time>2026-04-23T12:20:50.999Z</time></trkpt><trkpt lat="46.27043575641686" lon="12.304331857851453"><ele>441.0</ele><time>2026-04-23T12:20:51.999Z</time></trkpt><trkpt lat="46.27054658874723" lon="12.304382705611678"><ele>441.0</ele><time>2026-04-23T12:20:52.999Z</time></trkpt><trkpt lat="46.270667101735334" lon="12.304429156359296"><ele>441.0</ele><time>2026-04-23T12:20:53.999Z</time></trkpt><trkpt lat="46.27080663177502" lon="12.304461880688585"><ele>441.0</ele><time>2026-04-23T12:20:54.999Z</time></trkpt><trkpt lat="46.270954635378565" lon="12.304494497731486"><ele>441.0</ele><time>2026-04-23T12:20:55.999Z</time></trkpt><trkpt lat="46.27109550840652" lon="12.304522298741096"><ele>441.0</ele><time>2026-04-23T12:20:56.999Z</time></trkpt><trkpt lat="46.27122271788166" lon="12.304535252539875"><ele>441.0</ele><time>2026-04-23T12:20:57.999Z</time></trkpt><trkpt lat="46.271336962260726" lon="12.30453458597589"><ele>441.0</ele><time>2026-04-23T12:20:58.999Z</time></trkpt><trkpt lat="46.27144158599691" lon="12.304528219752658"><ele>441.0</ele><time>2026-04-23T12:20:59.999Z</time></trkpt><trkpt lat="46.27154427586375" lon="12.304522485137316"><ele>441.0</ele><time>2026-04-23T12:21:00.999Z</time></trkpt><trkpt lat="46.2716454039212" lon="12.304506204382951"><ele>441.0</ele><time>2026-04-23T12:21:01.999Z</time></trkpt><trkpt lat="46.27175272589094" lon="12.304482200224225"><ele>441.0</ele><time>2026-04-23T12:21:02.999Z</time></trkpt><trkpt lat="46.27186888936351" lon="12.304463109123603"><ele>441.0</ele><time>2026-04-23T12:21:03.999Z</time></trkpt><trkpt lat="46.272006818679166" lon="12.304439762226957"><ele>441.0</ele><time>2026-04-23T12:21:04.999Z</time></trkpt><trkpt lat="46.27215152770902" lon="12.304412037734917"><ele>441.0</ele><time>2026-04-23T12:21:05.999Z</time></trkpt><trkpt lat="46.27231326451603" lon="12.304384488368534"><ele>441.33333333333337</ele><time>2026-04-23T12:21:06.999Z</time></trkpt><trkpt lat="46.27248958855747" lon="12.304353778703094"><ele>441.6666666666667</ele><time>2026-04-23T12:21:07.999Z</time></trkpt><trkpt lat="46.27267046459418" lon="12.304317938860928"><ele>442.0</ele><time>2026-04-23T12:21:08.999Z</time></trkpt><trkpt lat="46.272871268398916" lon="12.304277876797025"><ele>442.0</ele><time>2026-04-23T12:21:09.999Z</time></trkpt><trkpt lat="46.273076193726745" lon="12.304240002050342"><ele>442.0</ele><time>2026-04-23T12:21:10.999Z</time></trkpt><trkpt lat="46.273295618687634" lon="12.304214579083014"><ele>442.0</ele><time>2026-04-23T12:21:11.999Z</time></trkpt><trkpt lat="46.27352926684784" lon="12.304206481537197"><ele>441.5</ele><time>2026-04-23T12:21:12.999Z</time></trkpt><trkpt lat="46.27377177459378" lon="12.304208715452972"><ele>441.0</ele><time>2026-04-23T12:21:13.999Z</time></trkpt><trkpt lat="46.27402237262473" lon="12.304214429036422"><ele>441.0</ele><time>2026-04-23T12:21:14.999Z</time></trkpt><trkpt lat="46.27427596670708" lon="12.304216889099067"><ele>441.0</ele><time>2026-04-23T12:21:15.999Z</time></trkpt><trkpt lat="46.27454824067367" lon="12.304217552502724"><ele>441.5</ele><time>2026-04-23T12:21:16.999Z</time></trkpt><trkpt lat="46.27482269481413" lon="12.30420483468304"><ele>442.0</ele><time>2026-04-23T12:21:17.999Z</time></trkpt><trkpt lat="46.275105949446335" lon="12.304172202330507"><ele>442.0</ele><time>2026-04-23T12:21:18.999Z</time></trkpt><trkpt lat="46.27539886314778" lon="12.304118508996934"><ele>442.0</ele><time>2026-04-23T12:21:19.999Z</time></trkpt><trkpt lat="46.27568815692473" lon="12.3040671089439"><ele>442.0</ele><time>2026-04-23T12:21:20.999Z</time></trkpt><trkpt lat="46.275952185152384" lon="12.304024164267018"><ele>442.0</ele><time>2026-04-23T12:21:21.999Z</time></trkpt><trkpt lat="46.276197818904734" lon="12.303983355203691"><ele>442.0</ele><time>2026-04-23T12:21:22.999Z</time></trkpt><trkpt lat="46.27642566959389" lon="12.303944625139954"><ele>442.0</ele><time>2026-04-23T12:21:23.999Z</time></trkpt><trkpt lat="46.27662656595098" lon="12.303907811021288"><ele>442.0</ele><time>2026-04-23T12:21:24.999Z</time></trkpt><trkpt lat="46.27680466114781" lon="12.303876764977513"><ele>442.75</ele><time>2026-04-23T12:21:25.999Z</time></trkpt><trkpt lat="46.27696273069571" lon="12.303849633122168"><ele>443.5</ele><time>2026-04-23T12:21:26.999Z</time></trkpt><trkpt lat="46.27710770203646" lon="12.303817454049277"><ele>444.25</ele><time>2026-04-23T12:21:27.999Z</time></trkpt><trkpt lat="46.277236503901534" lon="12.303766757256783"><ele>445.0</ele><time>2026-04-23T12:21:28.999Z</time></trkpt><trkpt lat="46.27734542679739" lon="12.303667931434678"><ele>446.2</ele><time>2026-04-23T12:21:29.999Z</time></trkpt><trkpt lat="46.27742678137885" lon="12.303544550114271"><ele>447.4</ele><time>2026-04-23T12:21:30.999Z</time></trkpt><trkpt lat="46.277498457669225" lon="12.303462852213455"><ele>448.6</ele><time>2026-04-23T12:21:31.999Z</time></trkpt><trkpt lat="46.27758335210386" lon="12.303451771686035"><ele>449.8</ele><time>2026-04-23T12:21:32.999Z</time></trkpt><trkpt lat="46.27767392675482" lon="12.30350405372492"><ele>451.0</ele><time>2026-04-23T12:21:33.999Z</time></trkpt><trkpt lat="46.277771222205935" lon="12.303619786645086"><ele>451.0</ele><time>2026-04-23T12:21:34.999Z</time></trkpt><trkpt lat="46.277868784025166" lon="12.303781271745015"><ele>451.0</ele><time>2026-04-23T12:21:35.999Z</time></trkpt><trkpt lat="46.277987213946446" lon="12.303960997382395"><ele>451.0</ele><time>2026-04-23T12:21:36.999Z</time></trkpt><trkpt lat="46.27813673977717" lon="12.304116592861927"><ele>451.33333333333337</ele><time>2026-04-23T12:21:38Z</time></trkpt><trkpt lat="46.27831408024496" lon="12.304256972404712"><ele>451.66666666666663</ele><time>2026-04-23T12:21:39Z</time></trkpt><trkpt lat="46.27852576758749" lon="12.304378237679726"><ele>452.0</ele><time>2026-04-23T12:21:40Z</time></trkpt><trkpt lat="46.27875266862367" lon="12.304488802772735"><ele>458.0</ele><time>2026-04-23T12:21:41Z</time></trkpt><trkpt lat="46.278984275437324" lon="12.30459687931039"><ele>464.0</ele><time>2026-04-23T12:21:42Z</time></trkpt><trkpt lat="46.27920973687489" lon="12.304697275075828"><ele>459.3333333333333</ele><time>2026-04-23T12:21:43Z</time></trkpt><trkpt lat="46.27940981974916" lon="12.304786875307"><ele>454.66666666666663</ele><time>2026-04-23T12:21:44Z</time></trkpt><trkpt lat="46.27959917232004" lon="12.304871555265722"><ele>450.0</ele><time>2026-04-23T12:21:45Z</time></trkpt><trkpt lat="46.27977250347689" lon="12.304934918136713"><ele>450.0</ele><time>2026-04-23T12:21:46Z</time></trkpt><trkpt lat="46.27994351137699" lon="12.304973927632025"><ele>450.0</ele><time>2026-04-23T12:21:47Z</time></trkpt><trkpt lat="46.28012548172024" lon="12.304981076102305"><ele>450.0</ele><time>2026-04-23T12:21:48Z</time></trkpt><trkpt lat="46.28030592851345" lon="12.304952755247918"><ele>450.0</ele><time>2026-04-23T12:21:49Z</time></trkpt><trkpt lat="46.280462340611656" lon="12.304906729743083"><ele>450.0</ele><time>2026-04-23T12:21:50Z</time></trkpt><trkpt lat="46.28059673962375" lon="12.304851332358384"><ele>450.0</ele><time>2026-04-23T12:21:51Z</time></trkpt><trkpt lat="46.28070573030274" lon="12.3047932444152"><ele>450.0</ele><time>2026-04-23T12:21:52Z</time></trkpt><trkpt lat="46.28080259347744" lon="12.304760823581358"><ele>450.6</ele><time>2026-04-23T12:21:53Z</time></trkpt><trkpt lat="46.280878916318144" lon="12.304711480361052"><ele>451.2</ele><time>2026-04-23T12:21:54Z</time></trkpt><trkpt lat="46.28095998217298" lon="12.304744962709199"><ele>451.79999999999995</ele><time>2026-04-23T12:21:55Z</time></trkpt><trkpt lat="46.2810611639417" lon="12.304807369570677"><ele>452.4</ele><time>2026-04-23T12:21:56Z</time></trkpt><trkpt lat="46.281125827810804" lon="12.304947511616414"><ele>453.0</ele><time>2026-04-23T12:21:57Z</time></trkpt><trkpt lat="46.28118581059016" lon="12.305046932213301"><ele>453.0</ele><time>2026-04-23T12:21:58Z</time></trkpt><trkpt lat="46.2812618010575" lon="12.305101577154165"><ele>453.0</ele><time>2026-04-23T12:21:59Z</time></trkpt><trkpt lat="46.281322324607686" lon="12.305181562100646"><ele>453.0</ele><time>2026-04-23T12:22:00Z</time></trkpt><trkpt lat="46.28133410815195" lon="12.305294939067592"><ele>453.0</ele><time>2026-04-23T12:22:01Z</time></trkpt><trkpt lat="46.28129871062344" lon="12.305424607187586"><ele>453.0</ele><time>2026-04-23T12:22:02Z</time></trkpt><trkpt lat="46.28122736542232" lon="12.305530576654025"><ele>453.0</ele><time>2026-04-23T12:22:03Z</time></trkpt><trkpt lat="46.2811429592119" lon="12.305618829048077"><ele>453.1666666666667</ele><time>2026-04-23T12:22:04Z</time></trkpt><trkpt lat="46.28107536529727" lon="12.305715393809352"><ele>453.33333333333337</ele><time>2026-04-23T12:22:05Z</time></trkpt><trkpt lat="46.281032959612936" lon="12.305836398631168"><ele>453.5</ele><time>2026-04-23T12:22:06Z</time></trkpt><trkpt lat="46.281014519773244" lon="12.305955893070372"><ele>453.6666666666667</ele><time>2026-04-23T12:22:07Z</time></trkpt><trkpt lat="46.28100167668916" lon="12.306072113580713"><ele>453.83333333333337</ele><time>2026-04-23T12:22:08Z</time></trkpt><trkpt lat="46.28098723617277" lon="12.306185999679066"><ele>454.0</ele><time>2026-04-23T12:22:09Z</time></trkpt><trkpt lat="46.28096903965473" lon="12.306300116340818"><ele>454.00000000000006</ele><time>2026-04-23T12:22:10Z</time></trkpt><trkpt lat="46.28095393065683" lon="12.30641106030431"><ele>454.0</ele><time>2026-04-23T12:22:11Z</time></trkpt><trkpt lat="46.28094380394748" lon="12.306526394664047"><ele>454.0</ele><time>2026-04-23T12:22:12Z</time></trkpt><trkpt lat="46.280940395557636" lon="12.306643064641996"><ele>454.0</ele><time>2026-04-23T12:22:13Z</time></trkpt><trkpt lat="46.280946941702354" lon="12.306764765558718"><ele>454.00000000000006</ele><time>2026-04-23T12:22:14Z</time></trkpt><trkpt lat="46.28095438101039" lon="12.306887177102254"><ele>454.0</ele><time>2026-04-23T12:22:15Z</time></trkpt><trkpt lat="46.28095582317777" lon="12.307004344107044"><ele>454.6666666666667</ele><time>2026-04-23T12:22:16Z</time></trkpt><trkpt lat="46.28096307822274" lon="12.30713148805659"><ele>455.33333333333337</ele><time>2026-04-23T12:22:17Z</time></trkpt><trkpt lat="46.28097319686249" lon="12.307257539196215"><ele>456.0</ele><time>2026-04-23T12:22:18Z</time></trkpt><trkpt lat="46.28098576612631" lon="12.307385811728787"><ele>456.66666666666663</ele><time>2026-04-23T12:22:19Z</time></trkpt><trkpt lat="46.28100317612884" lon="12.30751347695539"><ele>457.3333333333333</ele><time>2026-04-23T12:22:20Z</time></trkpt><trkpt lat="46.281029835311514" lon="12.30764016500715"><ele>458.0</ele><time>2026-04-23T12:22:21Z</time></trkpt><trkpt lat="46.28105444180477" lon="12.307763692268852"><ele>457.99999999999994</ele><time>2026-04-23T12:22:22Z</time></trkpt><trkpt lat="46.281082218560094" lon="12.30788165859055"><ele>458.0</ele><time>2026-04-23T12:22:23Z</time></trkpt><trkpt lat="46.28111326960432" lon="12.307998260675092"><ele>458.0</ele><time>2026-04-23T12:22:24Z</time></trkpt><trkpt lat="46.28114664912674" lon="12.308105506338933"><ele>458.0</ele><time>2026-04-23T12:22:25Z</time></trkpt><trkpt lat="46.28118150717233" lon="12.308211808554672"><ele>457.99999999999994</ele><time>2026-04-23T12:22:26Z</time></trkpt><trkpt lat="46.2812235109382" lon="12.308311670213184"><ele>458.0</ele><time>2026-04-23T12:22:27Z</time></trkpt><trkpt lat="46.281281583720286" lon="12.308396541952108"><ele>456.79999999999995</ele><time>2026-04-23T12:22:28Z</time></trkpt><trkpt lat="46.281348359356976" lon="12.308461975538673"><ele>455.59999999999997</ele><time>2026-04-23T12:22:29Z</time></trkpt><trkpt lat="46.28142573177637" lon="12.308509576031899"><ele>454.40000000000003</ele><time>2026-04-23T12:22:30Z</time></trkpt><trkpt lat="46.2815203462499" lon="12.308518943136027"><ele>453.20000000000005</ele><time>2026-04-23T12:22:31Z</time></trkpt><trkpt lat="46.28161309877057" lon="12.30854864379061"><ele>452.0</ele><time>2026-04-23T12:22:32Z</time></trkpt><trkpt lat="46.281706847043225" lon="12.30851542441591"><ele>455.8333333333333</ele><time>2026-04-23T12:22:33Z</time></trkpt><trkpt lat="46.281776218301225" lon="12.30849722951394"><ele>459.66666666666663</ele><time>2026-04-23T12:22:34Z</time></trkpt><trkpt lat="46.28185705044973" lon="12.308457492402367"><ele>463.5</ele><time>2026-04-23T12:22:35Z</time></trkpt><trkpt lat="46.28192286737259" lon="12.308391886753192"><ele>467.33333333333337</ele><time>2026-04-23T12:22:36Z</time></trkpt><trkpt lat="46.281980998687246" lon="12.308356359894113"><ele>471.1666666666667</ele><time>2026-04-23T12:22:37Z</time></trkpt><trkpt lat="46.28204178936747" lon="12.308272923113325"><ele>475.0</ele><time>2026-04-23T12:22:37.999Z</time></trkpt><trkpt lat="46.28210371813021" lon="12.308178698960281"><ele>475.0</ele><time>2026-04-23T12:22:38.999Z</time></trkpt><trkpt lat="46.28220652362018" lon="12.30810801962557"><ele>475.0</ele><time>2026-04-23T12:22:39.999Z</time></trkpt><trkpt lat="46.28232616573793" lon="12.308039951123712"><ele>475.0</ele><time>2026-04-23T12:22:40.999Z</time></trkpt><trkpt lat="46.28245357093657" lon="12.307992518360619"><ele>475.0</ele><time>2026-04-23T12:22:41.999Z</time></trkpt><trkpt lat="46.28257270678569" lon="12.307954689803507"><ele>476.4</ele><time>2026-04-23T12:22:42.999Z</time></trkpt><trkpt lat="46.282663101277606" lon="12.307922421241697"><ele>477.8</ele><time>2026-04-23T12:22:43.999Z</time></trkpt><trkpt lat="46.28273226084879" lon="12.307907507622495"><ele>479.20000000000005</ele><time>2026-04-23T12:22:44.999Z</time></trkpt><trkpt lat="46.282811063888026" lon="12.3079189023192"><ele>480.6</ele><time>2026-04-23T12:22:46.999Z</time></trkpt><trkpt lat="46.28294089606331" lon="12.307848547527687"><ele>482.0</ele><time>2026-04-23T12:22:52.999Z</time></trkpt><trkpt lat="46.28299880484482" lon="12.308121308982654"><ele>484.66666666666663</ele><time>2026-04-23T12:22:53.999Z</time></trkpt><trkpt lat="46.283105191500816" lon="12.308242771118515"><ele>487.33333333333337</ele><time>2026-04-23T12:22:54.999Z</time></trkpt><trkpt lat="46.28323311586095" lon="12.308386743115191"><ele>490.0</ele><time>2026-04-23T12:22:55.999Z</time></trkpt><trkpt lat="46.28337592931714" lon="12.308531356738156"><ele>490.0</ele><time>2026-04-23T12:22:56.999Z</time></trkpt><trkpt lat="46.28352049327531" lon="12.308676701018673"><ele>490.0</ele><time>2026-04-23T12:22:57.999Z</time></trkpt><trkpt lat="46.283665964432366" lon="12.308823578885795"><ele>490.0</ele><time>2026-04-23T12:22:58.999Z</time></trkpt><trkpt lat="46.28379991717862" lon="12.308964272874485"><ele>490.5</ele><time>2026-04-23T12:22:59.999Z</time></trkpt><trkpt lat="46.283926055323384" lon="12.309092829941234"><ele>491.0</ele><time>2026-04-23T12:23:00.999Z</time></trkpt><trkpt lat="46.28404637969412" lon="12.309219696687888"><ele>491.5</ele><time>2026-04-23T12:23:01.999Z</time></trkpt><trkpt lat="46.284164417107185" lon="12.309337255873801"><ele>492.0</ele><time>2026-04-23T12:23:02.999Z</time></trkpt><trkpt lat="46.28428995180306" lon="12.30944571229102"><ele>492.0</ele><time>2026-04-23T12:23:03.999Z</time></trkpt><trkpt lat="46.28443076443212" lon="12.30955018617852"><ele>492.0</ele><time>2026-04-23T12:23:04.999Z</time></trkpt><trkpt lat="46.28457124516718" lon="12.30964472789996"><ele>492.0</ele><time>2026-04-23T12:23:05.999Z</time></trkpt><trkpt lat="46.28469437132903" lon="12.309726418111056"><ele>492.0</ele><time>2026-04-23T12:23:06.999Z</time></trkpt><trkpt lat="46.28481298551987" lon="12.30981155335459"><ele>491.25</ele><time>2026-04-23T12:23:07.999Z</time></trkpt><trkpt lat="46.28493382443353" lon="12.309898083911323"><ele>490.5</ele><time>2026-04-23T12:23:08.999Z</time></trkpt><trkpt lat="46.28506008979739" lon="12.310005297667887"><ele>489.75</ele><time>2026-04-23T12:23:09.999Z</time></trkpt><trkpt lat="46.28518628335636" lon="12.310133105844884"><ele>489.0</ele><time>2026-04-23T12:23:10.999Z</time></trkpt><trkpt lat="46.28531409195774" lon="12.3102684703368"><ele>489.0</ele><time>2026-04-23T12:23:11.999Z</time></trkpt><trkpt lat="46.285438029605444" lon="12.310406159577493"><ele>489.0</ele><time>2026-04-23T12:23:12.999Z</time></trkpt><trkpt lat="46.28555752482816" lon="12.31053968856821"><ele>489.0</ele><time>2026-04-23T12:23:13.999Z</time></trkpt><trkpt lat="46.28569421654456" lon="12.310651283467879"><ele>488.0</ele><time>2026-04-23T12:23:14.999Z</time></trkpt><trkpt lat="46.285836277636825" lon="12.310740394594248"><ele>487.0</ele><time>2026-04-23T12:23:15.999Z</time></trkpt><trkpt lat="46.28597866297131" lon="12.310811116148994"><ele>486.0</ele><time>2026-04-23T12:23:16.999Z</time></trkpt><trkpt lat="46.28611975809948" lon="12.31087099209578"><ele>486.0</ele><time>2026-04-23T12:23:17.999Z</time></trkpt><trkpt lat="46.28626176699126" lon="12.310913571813176"><ele>486.0</ele><time>2026-04-23T12:23:18.999Z</time></trkpt><trkpt lat="46.286397027210086" lon="12.31094611482635"><ele>486.0</ele><time>2026-04-23T12:23:19.999Z</time></trkpt><trkpt lat="46.28653935322661" lon="12.310963174273473"><ele>486.0</ele><time>2026-04-23T12:23:20.999Z</time></trkpt><trkpt lat="46.28669035474599" lon="12.310952493823907"><ele>488.66666666666663</ele><time>2026-04-23T12:23:21.999Z</time></trkpt><trkpt lat="46.28684270894908" lon="12.310932513334526"><ele>491.3333333333333</ele><time>2026-04-23T12:23:22.999Z</time></trkpt><trkpt lat="46.2869960370436" lon="12.310902543229933"><ele>494.0</ele><time>2026-04-23T12:23:23.999Z</time></trkpt><trkpt lat="46.287143041336336" lon="12.310872898478895"><ele>491.0</ele><time>2026-04-23T12:23:24.999Z</time></trkpt><trkpt lat="46.28729175069995" lon="12.310849388152699"><ele>488.0</ele><time>2026-04-23T12:23:25.999Z</time></trkpt><trkpt lat="46.28744180838103" lon="12.310831631677235"><ele>485.0</ele><time>2026-04-23T12:23:26.999Z</time></trkpt><trkpt lat="46.28759170250365" lon="12.310811009431195"><ele>485.0</ele><time>2026-04-23T12:23:27.999Z</time></trkpt><trkpt lat="46.28774469252624" lon="12.310785790512746"><ele>485.0</ele><time>2026-04-23T12:23:28.999Z</time></trkpt><trkpt lat="46.2878978230687" lon="12.310764111713667"><ele>485.0</ele><time>2026-04-23T12:23:29.999Z</time></trkpt><trkpt lat="46.288049449504996" lon="12.310744608379508"><ele>482.66666666666663</ele><time>2026-04-23T12:23:30.999Z</time></trkpt><trkpt lat="46.28820767770721" lon="12.310718675349491"><ele>480.33333333333337</ele><time>2026-04-23T12:23:31.999Z</time></trkpt><trkpt lat="46.28837235169996" lon="12.310691508393052"><ele>478.0</ele><time>2026-04-23T12:23:32.999Z</time></trkpt><trkpt lat="46.28854023719748" lon="12.310671154780001"><ele>478.0</ele><time>2026-04-23T12:23:33.999Z</time></trkpt><trkpt lat="46.28871435560667" lon="12.310639567747213"><ele>478.0</ele><time>2026-04-23T12:23:34.999Z</time></trkpt><trkpt lat="46.288886240239734" lon="12.3106112252339"><ele>478.0</ele><time>2026-04-23T12:23:35.999Z</time></trkpt><trkpt lat="46.28906570805956" lon="12.3105781870325"><ele>485.0</ele><time>2026-04-23T12:23:36.999Z</time></trkpt><trkpt lat="46.289243719168134" lon="12.310549607192247"><ele>492.0</ele><time>2026-04-23T12:23:37.999Z</time></trkpt><trkpt lat="46.28942561692814" lon="12.310523383549185"><ele>499.0</ele><time>2026-04-23T12:23:38.999Z</time></trkpt><trkpt lat="46.289613510449705" lon="12.310505136791875"><ele>496.6666666666667</ele><time>2026-04-23T12:23:39.999Z</time></trkpt><trkpt lat="46.289804052397756" lon="12.31049618560674"><ele>494.33333333333337</ele><time>2026-04-23T12:23:40.999Z</time></trkpt><trkpt lat="46.290007516207226" lon="12.310494105446583"><ele>492.0</ele><time>2026-04-23T12:23:41.999Z</time></trkpt><trkpt lat="46.29022610340374" lon="12.310495937523806"><ele>492.0</ele><time>2026-04-23T12:23:42.999Z</time></trkpt><trkpt lat="46.29044956466613" lon="12.310511756719"><ele>492.0</ele><time>2026-04-23T12:23:44Z</time></trkpt><trkpt lat="46.29065501526251" lon="12.310542453206569"><ele>492.0</ele><time>2026-04-23T12:23:45Z</time></trkpt><trkpt lat="46.29085419212249" lon="12.31057108631125"><ele>484.0</ele><time>2026-04-23T12:23:46Z</time></trkpt><trkpt lat="46.29104288159136" lon="12.310607345562266"><ele>476.0</ele><time>2026-04-23T12:23:47Z</time></trkpt><trkpt lat="46.291227737060524" lon="12.31063217498869"><ele>468.0</ele><time>2026-04-23T12:23:48Z</time></trkpt><trkpt lat="46.291426484097556" lon="12.310663395861274"><ele>468.0</ele><time>2026-04-23T12:23:49Z</time></trkpt><trkpt lat="46.291621314544095" lon="12.310687822785487"><ele>468.0</ele><time>2026-04-23T12:23:50Z</time></trkpt><trkpt lat="46.29180445740522" lon="12.310719101722428"><ele>468.0</ele><time>2026-04-23T12:23:51Z</time></trkpt><trkpt lat="46.29197212003737" lon="12.310742096344018"><ele>468.0</ele><time>2026-04-23T12:23:52Z</time></trkpt><trkpt lat="46.29213351355129" lon="12.31075985449716"><ele>468.0</ele><time>2026-04-23T12:23:53Z</time></trkpt><trkpt lat="46.29229078004458" lon="12.310769655064213"><ele>468.0</ele><time>2026-04-23T12:23:54Z</time></trkpt><trkpt lat="46.292441754505916" lon="12.310785211555853"><ele>467.33333333333337</ele><time>2026-04-23T12:23:55Z</time></trkpt><trkpt lat="46.29258788348592" lon="12.310796588473853"><ele>466.6666666666667</ele><time>2026-04-23T12:23:56Z</time></trkpt><trkpt lat="46.29273352880394" lon="12.31081474202456"><ele>466.0</ele><time>2026-04-23T12:23:57Z</time></trkpt><trkpt lat="46.292893453966684" lon="12.310830437940554"><ele>466.0</ele><time>2026-04-23T12:23:58Z</time></trkpt><trkpt lat="46.29305611324903" lon="12.310837036126046"><ele>466.0</ele><time>2026-04-23T12:23:59Z</time></trkpt><trkpt lat="46.29322031138788" lon="12.310860602506185"><ele>466.0</ele><time>2026-04-23T12:24:00Z</time></trkpt><trkpt lat="46.29338679027211" lon="12.310842151921468"><ele>468.0</ele><time>2026-04-23T12:24:01Z</time></trkpt><trkpt lat="46.29355051169393" lon="12.3107946029647"><ele>470.0</ele><time>2026-04-23T12:24:02Z</time></trkpt><trkpt lat="46.29370879119914" lon="12.310734006475803"><ele>472.0</ele><time>2026-04-23T12:24:03Z</time></trkpt><trkpt lat="46.293864033780885" lon="12.310689809502662"><ele>470.0</ele><time>2026-04-23T12:24:04Z</time></trkpt><trkpt lat="46.2940154293259" lon="12.310671661543777"><ele>468.0</ele><time>2026-04-23T12:24:05Z</time></trkpt><trkpt lat="46.29415980122309" lon="12.310645670476587"><ele>466.0</ele><time>2026-04-23T12:24:06Z</time></trkpt><trkpt lat="46.29430131873003" lon="12.310650581164388"><ele>464.0</ele><time>2026-04-23T12:24:07Z</time></trkpt><trkpt lat="46.29443499039018" lon="12.310641272891354"><ele>464.0</ele><time>2026-04-23T12:24:08Z</time></trkpt><trkpt lat="46.29456384062059" lon="12.310645885715438"><ele>464.0</ele><time>2026-04-23T12:24:09Z</time></trkpt><trkpt lat="46.29467173967432" lon="12.310586126485052"><ele>464.0</ele><time>2026-04-23T12:24:10Z</time></trkpt><trkpt lat="46.29477786767861" lon="12.310555910650402"><ele>464.0</ele><time>2026-04-23T12:24:11Z</time></trkpt><trkpt lat="46.2948775894822" lon="12.3105421581685"><ele>466.75</ele><time>2026-04-23T12:24:12Z</time></trkpt><trkpt lat="46.29498204509641" lon="12.310563159838214"><ele>469.5</ele><time>2026-04-23T12:24:13Z</time></trkpt><trkpt lat="46.29508203734672" lon="12.31064549655397"><ele>472.25</ele><time>2026-04-23T12:24:14Z</time></trkpt><trkpt lat="46.295199223594075" lon="12.310715150011085"><ele>475.0</ele><time>2026-04-23T12:24:15Z</time></trkpt><trkpt lat="46.29531330317658" lon="12.310836772023942"><ele>475.0</ele><time>2026-04-23T12:24:16Z</time></trkpt><trkpt lat="46.29542832968333" lon="12.310976066014726"><ele>475.0</ele><time>2026-04-23T12:24:17Z</time></trkpt><trkpt lat="46.295563139126834" lon="12.311158680356716"><ele>475.0</ele><time>2026-04-23T12:24:18Z</time></trkpt><trkpt lat="46.29568441324289" lon="12.31139468779352"><ele>472.33333333333337</ele><time>2026-04-23T12:24:19Z</time></trkpt><trkpt lat="46.29582180621576" lon="12.31164654152151"><ele>469.66666666666663</ele><time>2026-04-23T12:24:20Z</time></trkpt><trkpt lat="46.29597052603727" lon="12.311870758627258"><ele>467.0</ele><time>2026-04-23T12:24:21Z</time></trkpt><trkpt lat="46.29615278443434" lon="12.31208951166955"><ele>472.0</ele><time>2026-04-23T12:24:22Z</time></trkpt><trkpt lat="46.29636568958101" lon="12.31230756207593"><ele>477.0</ele><time>2026-04-23T12:24:23Z</time></trkpt><trkpt lat="46.29658276127768" lon="12.312537959956115"><ele>477.0</ele><time>2026-04-23T12:24:24Z</time></trkpt><trkpt lat="46.29680302811288" lon="12.312780298764135"><ele>477.0</ele><time>2026-04-23T12:24:25Z</time></trkpt><trkpt lat="46.2970069003103" lon="12.31301598004284"><ele>483.5</ele><time>2026-04-23T12:24:26Z</time></trkpt><trkpt lat="46.29719084656474" lon="12.313228475397722"><ele>490.0</ele><time>2026-04-23T12:24:27Z</time></trkpt><trkpt lat="46.297360165430256" lon="12.313430688838732"><ele>490.0</ele><time>2026-04-23T12:24:28Z</time></trkpt><trkpt lat="46.297514414689765" lon="12.313629724329871"><ele>490.0</ele><time>2026-04-23T12:24:29Z</time></trkpt><trkpt lat="46.297651066569834" lon="12.313818640723097"><ele>490.0</ele><time>2026-04-23T12:24:30Z</time></trkpt><trkpt lat="46.297782445241886" lon="12.313975618209202"><ele>486.33333333333337</ele><time>2026-04-23T12:24:31Z</time></trkpt><trkpt lat="46.297937987049295" lon="12.3140949349128"><ele>482.66666666666663</ele><time>2026-04-23T12:24:32Z</time></trkpt><trkpt lat="46.29813453718662" lon="12.314179340196501"><ele>479.0</ele><time>2026-04-23T12:24:33Z</time></trkpt><trkpt lat="46.298333382217265" lon="12.314236606745647"><ele>479.0</ele><time>2026-04-23T12:24:34Z</time></trkpt><trkpt lat="46.29849769156685" lon="12.314327955937062"><ele>479.0</ele><time>2026-04-23T12:24:35Z</time></trkpt><trkpt lat="46.29865942210172" lon="12.314489049190643"><ele>479.0</ele><time>2026-04-23T12:24:36Z</time></trkpt><trkpt lat="46.29883884057956" lon="12.314661902184845"><ele>476.0</ele><time>2026-04-23T12:24:37Z</time></trkpt><trkpt lat="46.29903501440991" lon="12.314837038346882"><ele>473.0</ele><time>2026-04-23T12:24:38Z</time></trkpt><trkpt lat="46.29924109622452" lon="12.314970505117966"><ele>473.0</ele><time>2026-04-23T12:24:39Z</time></trkpt><trkpt lat="46.299434785474254" lon="12.315076195476818"><ele>473.0</ele><time>2026-04-23T12:24:40Z</time></trkpt><trkpt lat="46.29960602904401" lon="12.3151722302352"><ele>473.0</ele><time>2026-04-23T12:24:40.999Z</time></trkpt><trkpt lat="46.2997640220638" lon="12.315283768546347"><ele>476.3333333333333</ele><time>2026-04-23T12:24:41.999Z</time></trkpt><trkpt lat="46.299903413040816" lon="12.315418833883317"><ele>479.66666666666663</ele><time>2026-04-23T12:24:42.999Z</time></trkpt><trkpt lat="46.300027066867706" lon="12.315622525782924"><ele>483.0</ele><time>2026-04-23T12:24:43.999Z</time></trkpt><trkpt lat="46.300120346270205" lon="12.31585355382805"><ele>483.0</ele><time>2026-04-23T12:24:44.999Z</time></trkpt><trkpt lat="46.300191648695524" lon="12.316091313669265"><ele>483.0</ele><time>2026-04-23T12:24:45.999Z</time></trkpt><trkpt lat="46.30029974460293" lon="12.316331584984392"><ele>483.0</ele><time>2026-04-23T12:24:46.999Z</time></trkpt><trkpt lat="46.30046047490923" lon="12.316544616408303"><ele>487.5</ele><time>2026-04-23T12:24:47.999Z</time></trkpt><trkpt lat="46.30067480138497" lon="12.316759711495848"><ele>492.0</ele><time>2026-04-23T12:24:48.999Z</time></trkpt><trkpt lat="46.300861020600884" lon="12.317000651504665"><ele>492.0</ele><time>2026-04-23T12:24:49.999Z</time></trkpt><trkpt lat="46.3010303055405" lon="12.317232218236754"><ele>492.0</ele><time>2026-04-23T12:24:50.999Z</time></trkpt><trkpt lat="46.30117654288123" lon="12.317433353845988"><ele>492.0</ele><time>2026-04-23T12:24:51.999Z</time></trkpt><trkpt lat="46.301306764210224" lon="12.317628022321827"><ele>499.0</ele><time>2026-04-23T12:24:52.999Z</time></trkpt><trkpt lat="46.301437988292555" lon="12.317875450057903"><ele>506.0</ele><time>2026-04-23T12:24:53.999Z</time></trkpt><trkpt lat="46.301557338799306" lon="12.318177701945773"><ele>491.5</ele><time>2026-04-23T12:24:54.999Z</time></trkpt><trkpt lat="46.30165884574215" lon="12.31853014754296"><ele>477.0</ele><time>2026-04-23T12:24:55.999Z</time></trkpt><trkpt lat="46.30175524381046" lon="12.31890069576178"><ele>469.0</ele><time>2026-04-23T12:24:56.999Z</time></trkpt><trkpt lat="46.30186400401939" lon="12.3192840654646"><ele>461.0</ele><time>2026-04-23T12:24:57.999Z</time></trkpt><trkpt lat="46.30198253973204" lon="12.319673335684348"><ele>458.5</ele><time>2026-04-23T12:24:58.999Z</time></trkpt><trkpt lat="46.30210999035902" lon="12.320074029144477"><ele>456.0</ele><time>2026-04-23T12:24:59.999Z</time></trkpt><trkpt lat="46.30223753835432" lon="12.320479168034597"><ele>466.0</ele><time>2026-04-23T12:25:00.999Z</time></trkpt><trkpt lat="46.30235681555309" lon="12.320863328332592"><ele>476.0</ele><time>2026-04-23T12:25:01.999Z</time></trkpt><trkpt lat="46.302465456682135" lon="12.321214873849145"><ele>472.5</ele><time>2026-04-23T12:25:02.999Z</time></trkpt><trkpt lat="46.30257303948731" lon="12.321540133494798"><ele>469.0</ele><time>2026-04-23T12:25:03.999Z</time></trkpt><trkpt lat="46.3026762488059" lon="12.321843361647861"><ele>469.0</ele><time>2026-04-23T12:25:04.999Z</time></trkpt><trkpt lat="46.302779209806225" lon="12.322121693366688"><ele>469.0</ele><time>2026-04-23T12:25:05.999Z</time></trkpt><trkpt lat="46.302876798304915" lon="12.322367061169471"><ele>469.0</ele><time>2026-04-23T12:25:06.999Z</time></trkpt><trkpt lat="46.30296796754281" lon="12.32259230085302"><ele>469.0</ele><time>2026-04-23T12:25:07.999Z</time></trkpt><trkpt lat="46.30305790753012" lon="12.322797794687876"><ele>469.0</ele><time>2026-04-23T12:25:08.999Z</time></trkpt><trkpt lat="46.303172638154024" lon="12.323012734163788"><ele>469.0</ele><time>2026-04-23T12:25:09.999Z</time></trkpt><trkpt lat="46.30332783367479" lon="12.323244782709864"><ele>469.0</ele><time>2026-04-23T12:25:10.999Z</time></trkpt><trkpt lat="46.303499987037235" lon="12.323437939318879"><ele>469.0</ele><time>2026-04-23T12:25:11.999Z</time></trkpt><trkpt lat="46.30363378339161" lon="12.32358634210991"><ele>469.0</ele><time>2026-04-23T12:25:12.999Z</time></trkpt><trkpt lat="46.30377986332497" lon="12.32370245437201"><ele>465.33333333333337</ele><time>2026-04-23T12:25:13.999Z</time></trkpt><trkpt lat="46.30397362924691" lon="12.32379910272986"><ele>461.66666666666663</ele><time>2026-04-23T12:25:14.999Z</time></trkpt><trkpt lat="46.30417531403376" lon="12.32387456293003"><ele>458.0</ele><time>2026-04-23T12:25:15.999Z</time></trkpt><trkpt lat="46.30435403085553" lon="12.323931328913966"><ele>458.0</ele><time>2026-04-23T12:25:16.999Z</time></trkpt><trkpt lat="46.30454113453944" lon="12.323956104653831"><ele>458.0</ele><time>2026-04-23T12:25:17.999Z</time></trkpt><trkpt lat="46.30475153224736" lon="12.32393844323705"><ele>458.0</ele><time>2026-04-23T12:25:18.999Z</time></trkpt><trkpt lat="46.304954761157454" lon="12.323903559955852"><ele>460.0</ele><time>2026-04-23T12:25:19.999Z</time></trkpt><trkpt lat="46.30513239479881" lon="12.32388772193003"><ele>462.0</ele><time>2026-04-23T12:25:20.999Z</time></trkpt><trkpt lat="46.305292805999784" lon="12.323933370135832"><ele>464.0</ele><time>2026-04-23T12:25:21.999Z</time></trkpt><trkpt lat="46.3054534549805" lon="12.32404495645975"><ele>469.0</ele><time>2026-04-23T12:25:22.999Z</time></trkpt><trkpt lat="46.30564275241773" lon="12.324191444094101"><ele>474.0</ele><time>2026-04-23T12:25:23.999Z</time></trkpt><trkpt lat="46.30580388131083" lon="12.324337435492671"><ele>479.0</ele><time>2026-04-23T12:25:24.999Z</time></trkpt><trkpt lat="46.305951913426405" lon="12.324456890956313"><ele>479.0</ele><time>2026-04-23T12:25:25.999Z</time></trkpt><trkpt lat="46.306129664409134" lon="12.324543342171234"><ele>479.0</ele><time>2026-04-23T12:25:26.999Z</time></trkpt><trkpt lat="46.30634602786702" lon="12.324598618872718"><ele>479.0</ele><time>2026-04-23T12:25:27.999Z</time></trkpt><trkpt lat="46.3065623217877" lon="12.324642714106616"><ele>486.0</ele><time>2026-04-23T12:25:28.999Z</time></trkpt><trkpt lat="46.30678054794222" lon="12.324655180913114"><ele>493.0</ele><time>2026-04-23T12:25:29.999Z</time></trkpt><trkpt lat="46.307017001321746" lon="12.324633625863468"><ele>495.5</ele><time>2026-04-23T12:25:30.999Z</time></trkpt><trkpt lat="46.307268961027134" lon="12.324590159892924"><ele>498.0</ele><time>2026-04-23T12:25:31.999Z</time></trkpt><trkpt lat="46.30751601897745" lon="12.324557928017175"><ele>498.0</ele><time>2026-04-23T12:25:32.999Z</time></trkpt><trkpt lat="46.307740179573834" lon="12.324528814846278"><ele>498.0</ele><time>2026-04-23T12:25:33.999Z</time></trkpt><trkpt lat="46.307963517719195" lon="12.324492202833094"><ele>486.5</ele><time>2026-04-23T12:25:34.999Z</time></trkpt><trkpt lat="46.30818333386366" lon="12.324433060396728"><ele>475.0</ele><time>2026-04-23T12:25:35.999Z</time></trkpt><trkpt lat="46.30841846667216" lon="12.324327626337809"><ele>475.0</ele><time>2026-04-23T12:25:36.999Z</time></trkpt><trkpt lat="46.308657995272725" lon="12.324200593433188"><ele>475.0</ele><time>2026-04-23T12:25:37.999Z</time></trkpt><trkpt lat="46.30886737995831" lon="12.324102723635344"><ele>471.0</ele><time>2026-04-23T12:25:38.999Z</time></trkpt><trkpt lat="46.30906888298482" lon="12.324039863877818"><ele>467.0</ele><time>2026-04-23T12:25:39.999Z</time></trkpt><trkpt lat="46.3092989125578" lon="12.324013474534574"><ele>463.0</ele><time>2026-04-23T12:25:40.999Z</time></trkpt><trkpt lat="46.30953817366251" lon="12.324020270501727"><ele>469.0</ele><time>2026-04-23T12:25:41.999Z</time></trkpt><trkpt lat="46.30974997242732" lon="12.324019853905485"><ele>475.0</ele><time>2026-04-23T12:25:42.999Z</time></trkpt><trkpt lat="46.309927685726265" lon="12.32401582067205"><ele>481.0</ele><time>2026-04-23T12:25:43.999Z</time></trkpt><trkpt lat="46.310086954779564" lon="12.324013155292102"><ele>481.0</ele><time>2026-04-23T12:25:44.999Z</time></trkpt><trkpt lat="46.31022685165021" lon="12.323988479784049"><ele>481.0</ele><time>2026-04-23T12:25:45.999Z</time></trkpt><trkpt lat="46.310363948462864" lon="12.323926904892927"><ele>481.0</ele><time>2026-04-23T12:25:46.999Z</time></trkpt><trkpt lat="46.310526285816856" lon="12.323785185633529"><ele>495.33333333333337</ele><time>2026-04-23T12:25:47.999Z</time></trkpt><trkpt lat="46.31068694086339" lon="12.323615997217727"><ele>509.66666666666663</ele><time>2026-04-23T12:25:48.999Z</time></trkpt><trkpt lat="46.31085349925887" lon="12.32350259954805"><ele>524.0</ele><time>2026-04-23T12:25:50Z</time></trkpt><trkpt lat="46.311045221962814" lon="12.32345844598773"><ele>524.0</ele><time>2026-04-23T12:25:51Z</time></trkpt><trkpt lat="46.311274685264415" lon="12.323443424348424"><ele>524.0</ele><time>2026-04-23T12:25:52Z</time></trkpt><trkpt lat="46.311474945917176" lon="12.323385581420212"><ele>524.0</ele><time>2026-04-23T12:25:53Z</time></trkpt><trkpt lat="46.311692049453164" lon="12.323327345970636"><ele>512.3333333333333</ele><time>2026-04-23T12:25:54Z</time></trkpt><trkpt lat="46.3118867950305" lon="12.32329381560732"><ele>500.66666666666663</ele><time>2026-04-23T12:25:55Z</time></trkpt><trkpt lat="46.31207070413128" lon="12.323240157559892"><ele>489.0</ele><time>2026-04-23T12:25:56Z</time></trkpt><trkpt lat="46.3122780281541" lon="12.323136451058193"><ele>500.66666666666663</ele><time>2026-04-23T12:25:57Z</time></trkpt><trkpt lat="46.31248252830413" lon="12.322992427261337"><ele>512.3333333333333</ele><time>2026-04-23T12:25:58Z</time></trkpt><trkpt lat="46.31268658521017" lon="12.322888452751336"><ele>524.0</ele><time>2026-04-23T12:25:59Z</time></trkpt><trkpt lat="46.31287908584797" lon="12.322825344252845"><ele>522.0</ele><time>2026-04-23T12:26:00Z</time></trkpt><trkpt lat="46.3130800722836" lon="12.322819598880194"><ele>520.0</ele><time>2026-04-23T12:26:01Z</time></trkpt><trkpt lat="46.31327534638632" lon="12.322819957902741"><ele>518.0</ele><time>2026-04-23T12:26:02Z</time></trkpt><trkpt lat="46.31345320608837" lon="12.322780595355006"><ele>518.0</ele><time>2026-04-23T12:26:03Z</time></trkpt><trkpt lat="46.313637329299475" lon="12.322693801428956"><ele>518.0</ele><time>2026-04-23T12:26:04Z</time></trkpt><trkpt lat="46.31381547005187" lon="12.322574164417965"><ele>518.0</ele><time>2026-04-23T12:26:05Z</time></trkpt><trkpt lat="46.31396087313571" lon="12.32246818395271"><ele>518.0</ele><time>2026-04-23T12:26:06Z</time></trkpt><trkpt lat="46.314075161949155" lon="12.322337923709048"><ele>518.0</ele><time>2026-04-23T12:26:07Z</time></trkpt><trkpt lat="46.31419229231729" lon="12.322127205732365"><ele>518.0</ele><time>2026-04-23T12:26:08Z</time></trkpt><trkpt lat="46.3143046841766" lon="12.3218413350118"><ele>518.0</ele><time>2026-04-23T12:26:09Z</time></trkpt><trkpt lat="46.3144318102351" lon="12.321561184562437"><ele>518.0</ele><time>2026-04-23T12:26:10Z</time></trkpt><trkpt lat="46.3145673961156" lon="12.321269628793917"><ele>498.5</ele><time>2026-04-23T12:26:11Z</time></trkpt><trkpt lat="46.314710401411226" lon="12.320972253582461"><ele>479.0</ele><time>2026-04-23T12:26:12Z</time></trkpt><trkpt lat="46.314864318345634" lon="12.320720252552864"><ele>487.0</ele><time>2026-04-23T12:26:13Z</time></trkpt><trkpt lat="46.31502061586238" lon="12.320519251646237"><ele>495.0</ele><time>2026-04-23T12:26:14Z</time></trkpt><trkpt lat="46.31516721297959" lon="12.320312184964042"><ele>503.0</ele><time>2026-04-23T12:26:15Z</time></trkpt><trkpt lat="46.31531427047204" lon="12.320045669397517"><ele>503.0</ele><time>2026-04-23T12:26:16Z</time></trkpt><trkpt lat="46.31543814361039" lon="12.319751452102322"><ele>503.0</ele><time>2026-04-23T12:26:17Z</time></trkpt><trkpt lat="46.31559140486584" lon="12.319464627623478"><ele>490.5</ele><time>2026-04-23T12:26:18Z</time></trkpt><trkpt lat="46.31577224704727" lon="12.319203847687639"><ele>478.0</ele><time>2026-04-23T12:26:19Z</time></trkpt><trkpt lat="46.31596806926877" lon="12.318943291326754"><ele>497.0</ele><time>2026-04-23T12:26:20Z</time></trkpt><trkpt lat="46.316166841599404" lon="12.318660370610415"><ele>516.0</ele><time>2026-04-23T12:26:21Z</time></trkpt><trkpt lat="46.31635410910218" lon="12.318360463330883"><ele>517.5</ele><time>2026-04-23T12:26:22Z</time></trkpt><trkpt lat="46.31654226593045" lon="12.318055477739538"><ele>519.0</ele><time>2026-04-23T12:26:23Z</time></trkpt><trkpt lat="46.31671986323053" lon="12.317725252964792"><ele>519.0</ele><time>2026-04-23T12:26:24Z</time></trkpt><trkpt lat="46.31690622113138" lon="12.317423447468553"><ele>519.0</ele><time>2026-04-23T12:26:25Z</time></trkpt><trkpt lat="46.317076149248315" lon="12.317161549511969"><ele>511.66666666666663</ele><time>2026-04-23T12:26:26Z</time></trkpt><trkpt lat="46.317227809461706" lon="12.31692681452628"><ele>504.3333333333333</ele><time>2026-04-23T12:26:27Z</time></trkpt><trkpt lat="46.31735964398164" lon="12.316706575075543"><ele>497.0</ele><time>2026-04-23T12:26:28Z</time></trkpt><trkpt lat="46.317497099842555" lon="12.316541208293557"><ele>508.3333333333333</ele><time>2026-04-23T12:26:29Z</time></trkpt><trkpt lat="46.31762136955242" lon="12.316397175665598"><ele>519.6666666666666</ele><time>2026-04-23T12:26:30Z</time></trkpt><trkpt lat="46.317763086601026" lon="12.316283903276707"><ele>531.0</ele><time>2026-04-23T12:26:31Z</time></trkpt><trkpt lat="46.31791812954316" lon="12.316208926699053"><ele>516.0</ele><time>2026-04-23T12:26:32Z</time></trkpt><trkpt lat="46.318089664102246" lon="12.316164589680447"><ele>501.0</ele><time>2026-04-23T12:26:33Z</time></trkpt><trkpt lat="46.318272606431215" lon="12.316157372141614"><ele>486.0</ele><time>2026-04-23T12:26:34Z</time></trkpt><trkpt lat="46.31846804836986" lon="12.316207064358922"><ele>486.0</ele><time>2026-04-23T12:26:35Z</time></trkpt><trkpt lat="46.31865417095352" lon="12.316294525827924"><ele>486.0</ele><time>2026-04-23T12:26:36Z</time></trkpt><trkpt lat="46.318848129464115" lon="12.316400277502384"><ele>486.0</ele><time>2026-04-23T12:26:37Z</time></trkpt><trkpt lat="46.31903483828821" lon="12.316461677018232"><ele>483.0</ele><time>2026-04-23T12:26:38Z</time></trkpt><trkpt lat="46.31922063934448" lon="12.316503606977095"><ele>480.0</ele><time>2026-04-23T12:26:39Z</time></trkpt><trkpt lat="46.319432652370686" lon="12.316482540465351"><ele>477.0</ele><time>2026-04-23T12:26:40Z</time></trkpt><trkpt lat="46.31964841787647" lon="12.316395807401085"><ele>490.33333333333337</ele><time>2026-04-23T12:26:41Z</time></trkpt><trkpt lat="46.31986451267701" lon="12.316355137511795"><ele>503.6666666666667</ele><time>2026-04-23T12:26:42Z</time></trkpt><trkpt lat="46.32006106496314" lon="12.316337334212786"><ele>517.0</ele><time>2026-04-23T12:26:43Z</time></trkpt><trkpt lat="46.320249881974135" lon="12.316342050199772"><ele>506.0</ele><time>2026-04-23T12:26:44Z</time></trkpt><trkpt lat="46.32043667883084" lon="12.31641354639094"><ele>495.0</ele><time>2026-04-23T12:26:45Z</time></trkpt><trkpt lat="46.32065250328045" lon="12.31645576356598"><ele>484.0</ele><time>2026-04-23T12:26:45.999Z</time></trkpt><trkpt lat="46.32086630843373" lon="12.316523325602287"><ele>484.0</ele><time>2026-04-23T12:26:46.999Z</time></trkpt><trkpt lat="46.32108601023955" lon="12.316578390039428"><ele>484.0</ele><time>2026-04-23T12:26:47.999Z</time></trkpt><trkpt lat="46.3213003542047" lon="12.316588097606184"><ele>484.0</ele><time>2026-04-23T12:26:48.999Z</time></trkpt><trkpt lat="46.32148822128451" lon="12.316574491082575"><ele>482.0</ele><time>2026-04-23T12:26:49.999Z</time></trkpt><trkpt lat="46.32165260670917" lon="12.316543119283093"><ele>480.0</ele><time>2026-04-23T12:26:50.999Z</time></trkpt><trkpt lat="46.3218140694263" lon="12.316540795124947"><ele>478.0</ele><time>2026-04-23T12:26:51.999Z</time></trkpt><trkpt lat="46.32197144188676" lon="12.316523324508166"><ele>478.0</ele><time>2026-04-23T12:26:52.999Z</time></trkpt><trkpt lat="46.32213451277068" lon="12.316509336820557"><ele>478.0</ele><time>2026-04-23T12:26:53.999Z</time></trkpt><trkpt lat="46.32230391211631" lon="12.316503190195768"><ele>478.0</ele><time>2026-04-23T12:26:54.999Z</time></trkpt><trkpt lat="46.32248361472391" lon="12.316536282209873"><ele>480.33333333333337</ele><time>2026-04-23T12:26:55.999Z</time></trkpt><trkpt lat="46.322679860760225" lon="12.31656911361031"><ele>482.66666666666663</ele><time>2026-04-23T12:26:56.999Z</time></trkpt><trkpt lat="46.32289497697439" lon="12.316596380835847"><ele>485.0</ele><time>2026-04-23T12:26:57.999Z</time></trkpt><trkpt lat="46.32312219985613" lon="12.316623360765908"><ele>488.66666666666663</ele><time>2026-04-23T12:26:58.999Z</time></trkpt><trkpt lat="46.32334598015041" lon="12.3166477691534"><ele>492.33333333333337</ele><time>2026-04-23T12:26:59.999Z</time></trkpt><trkpt lat="46.323545871845795" lon="12.316671141482706"><ele>496.0</ele><time>2026-04-23T12:27:00.999Z</time></trkpt><trkpt lat="46.32372825494158" lon="12.316702240921796"><ele>500.0</ele><time>2026-04-23T12:27:01.999Z</time></trkpt><trkpt lat="46.323898310196185" lon="12.316759485584637"><ele>504.0</ele><time>2026-04-23T12:27:02.999Z</time></trkpt><trkpt lat="46.324072362935134" lon="12.316863637828785"><ele>508.0</ele><time>2026-04-23T12:27:03.999Z</time></trkpt><trkpt lat="46.32425435352937" lon="12.317025117699243"><ele>508.0</ele><time>2026-04-23T12:27:04.999Z</time></trkpt><trkpt lat="46.324423501170216" lon="12.317187194993942"><ele>508.0</ele><time>2026-04-23T12:27:05.999Z</time></trkpt><trkpt lat="46.324558595077804" lon="12.317323141475901"><ele>508.0</ele><time>2026-04-23T12:27:06.999Z</time></trkpt><trkpt lat="46.32466447724438" lon="12.31745728063857"><ele>506.6666666666667</ele><time>2026-04-23T12:27:07.999Z</time></trkpt><trkpt lat="46.324713199646496" lon="12.317657568803376"><ele>505.33333333333337</ele><time>2026-04-23T12:27:08.999Z</time></trkpt><trkpt lat="46.32474612308836" lon="12.31788381215697"><ele>504.0</ele><time>2026-04-23T12:27:09.999Z</time></trkpt><trkpt lat="46.32479077288714" lon="12.318137424443597"><ele>501.25</ele><time>2026-04-23T12:27:10.999Z</time></trkpt><trkpt lat="46.32482009768826" lon="12.318353249473782"><ele>498.5</ele><time>2026-04-23T12:27:11.999Z</time></trkpt><trkpt lat="46.32486338472671" lon="12.318529994746205"><ele>495.75</ele><time>2026-04-23T12:27:12.999Z</time></trkpt><trkpt lat="46.32493839042976" lon="12.318694479457111"><ele>493.0</ele><time>2026-04-23T12:27:13.999Z</time></trkpt><trkpt lat="46.32505842015897" lon="12.318858846716381"><ele>493.0</ele><time>2026-04-23T12:27:14.999Z</time></trkpt><trkpt lat="46.325221812900445" lon="12.31902348522477"><ele>493.0</ele><time>2026-04-23T12:27:15.999Z</time></trkpt><trkpt lat="46.32539325737868" lon="12.319197994021657"><ele>493.0</ele><time>2026-04-23T12:27:16.999Z</time></trkpt><trkpt lat="46.32556691860679" lon="12.319390728932115"><ele>493.0</ele><time>2026-04-23T12:27:17.999Z</time></trkpt><trkpt lat="46.325742226653475" lon="12.319594983693685"><ele>493.0</ele><time>2026-04-23T12:27:18.999Z</time></trkpt><trkpt lat="46.32592604800584" lon="12.319805994209217"><ele>484.5</ele><time>2026-04-23T12:27:19.999Z</time></trkpt><trkpt lat="46.32611402625541" lon="12.320013135606404"><ele>476.0</ele><time>2026-04-23T12:27:20.999Z</time></trkpt><trkpt lat="46.326287293806" lon="12.32020418525416"><ele>477.3333333333333</ele><time>2026-04-23T12:27:21.999Z</time></trkpt><trkpt lat="46.326442460056846" lon="12.320379702610538"><ele>478.66666666666663</ele><time>2026-04-23T12:27:22.999Z</time></trkpt><trkpt lat="46.32657954608798" lon="12.32053957375783"><ele>480.0</ele><time>2026-04-23T12:27:23.999Z</time></trkpt><trkpt lat="46.32669978720029" lon="12.320711159707429"><ele>480.0</ele><time>2026-04-23T12:27:24.999Z</time></trkpt><trkpt lat="46.326792935035996" lon="12.320922051149532"><ele>480.0</ele><time>2026-04-23T12:27:25.999Z</time></trkpt><trkpt lat="46.32683801151085" lon="12.321182838012154"><ele>480.0</ele><time>2026-04-23T12:27:26.999Z</time></trkpt><trkpt lat="46.326890151702756" lon="12.32145395941049"><ele>477.33333333333337</ele><time>2026-04-23T12:27:27.999Z</time></trkpt><trkpt lat="46.32693176062995" lon="12.321720668939264"><ele>474.6666666666667</ele><time>2026-04-23T12:27:28.999Z</time></trkpt><trkpt lat="46.32698086262074" lon="12.32195559116969"><ele>472.0</ele><time>2026-04-23T12:27:29.999Z</time></trkpt><trkpt lat="46.327056795461814" lon="12.322155297124565"><ele>473.0</ele><time>2026-04-23T12:27:30.999Z</time></trkpt><trkpt lat="46.327165822504114" lon="12.322326577765734"><ele>474.0</ele><time>2026-04-23T12:27:31.999Z</time></trkpt><trkpt lat="46.32730950154218" lon="12.322476158282614"><ele>475.0</ele><time>2026-04-23T12:27:32.999Z</time></trkpt><trkpt lat="46.32748411237063" lon="12.322610761450296"><ele>478.33333333333337</ele><time>2026-04-23T12:27:33.999Z</time></trkpt><trkpt lat="46.32767450024611" lon="12.322749425923577"><ele>481.66666666666663</ele><time>2026-04-23T12:27:34.999Z</time></trkpt><trkpt lat="46.32785955558477" lon="12.32288645424363"><ele>485.0</ele><time>2026-04-23T12:27:35.999Z</time></trkpt><trkpt lat="46.32802053916279" lon="12.323019019883295"><ele>484.0</ele><time>2026-04-23T12:27:36.999Z</time></trkpt><trkpt lat="46.32816141794598" lon="12.323160856651272"><ele>483.0</ele><time>2026-04-23T12:27:37.999Z</time></trkpt><trkpt lat="46.328295990916274" lon="12.323297452865663"><ele>482.0</ele><time>2026-04-23T12:27:38.999Z</time></trkpt><trkpt lat="46.3284261434313" lon="12.323467931375799"><ele>482.0</ele><time>2026-04-23T12:27:39.999Z</time></trkpt><trkpt lat="46.32854106503641" lon="12.323661662433521"><ele>482.0</ele><time>2026-04-23T12:27:40.999Z</time></trkpt><trkpt lat="46.32864956152443" lon="12.323868301300967"><ele>482.0</ele><time>2026-04-23T12:27:41.999Z</time></trkpt><trkpt lat="46.328747791930034" lon="12.324094688679846"><ele>482.66666666666663</ele><time>2026-04-23T12:27:42.999Z</time></trkpt><trkpt lat="46.32884934812575" lon="12.32433596497376"><ele>483.33333333333337</ele><time>2026-04-23T12:27:43.999Z</time></trkpt><trkpt lat="46.3289631665629" lon="12.32460882149436"><ele>484.0</ele><time>2026-04-23T12:27:44.999Z</time></trkpt><trkpt lat="46.32907503291591" lon="12.324867437203844"><ele>485.0</ele><time>2026-04-23T12:27:45.999Z</time></trkpt><trkpt lat="46.329169044478306" lon="12.325090839248379"><ele>486.0</ele><time>2026-04-23T12:27:46.999Z</time></trkpt><trkpt lat="46.32924320714237" lon="12.325273242361023"><ele>487.0</ele><time>2026-04-23T12:27:47.999Z</time></trkpt><trkpt lat="46.32930005635868" lon="12.325434950631225"><ele>486.5</ele><time>2026-04-23T12:27:48.999Z</time></trkpt><trkpt lat="46.32933124489586" lon="12.325596566753212"><ele>486.0</ele><time>2026-04-23T12:27:49.999Z</time></trkpt><trkpt lat="46.32930971484193" lon="12.32576424642316"><ele>485.5</ele><time>2026-04-23T12:27:50.999Z</time></trkpt><trkpt lat="46.32931280709196" lon="12.325942331053097"><ele>485.0</ele><time>2026-04-23T12:27:51.999Z</time></trkpt><trkpt lat="46.329306222116905" lon="12.326094000225597"><ele>485.0</ele><time>2026-04-23T12:27:52.999Z</time></trkpt><trkpt lat="46.32935055734382" lon="12.326218249868221"><ele>485.0</ele><time>2026-04-23T12:27:53.999Z</time></trkpt><trkpt lat="46.3294359012252" lon="12.326324167777615"><ele>485.0</ele><time>2026-04-23T12:27:55Z</time></trkpt><trkpt lat="46.32956101657048" lon="12.326407154765542"><ele>485.0</ele><time>2026-04-23T12:27:56Z</time></trkpt><trkpt lat="46.32970516143634" lon="12.326475230216209"><ele>487.0</ele><time>2026-04-23T12:27:57Z</time></trkpt><trkpt lat="46.32986290902864" lon="12.326544345438512"><ele>489.0</ele><time>2026-04-23T12:27:58Z</time></trkpt><trkpt lat="46.33004352070839" lon="12.32662696851348"><ele>491.0</ele><time>2026-04-23T12:27:59Z</time></trkpt><trkpt lat="46.33024368891681" lon="12.326702304615296"><ele>491.0</ele><time>2026-04-23T12:28:00Z</time></trkpt><trkpt lat="46.33046520605606" lon="12.326768714033065"><ele>491.0</ele><time>2026-04-23T12:28:01Z</time></trkpt><trkpt lat="46.3307101678368" lon="12.326866354702547"><ele>487.66666666666663</ele><time>2026-04-23T12:28:02Z</time></trkpt><trkpt lat="46.33091097819231" lon="12.326968132935626"><ele>484.33333333333337</ele><time>2026-04-23T12:28:03Z</time></trkpt><trkpt lat="46.331106314282096" lon="12.327119493823206"><ele>481.0</ele><time>2026-04-23T12:28:04Z</time></trkpt><trkpt lat="46.33130665051831" lon="12.327317626580939"><ele>495.0</ele><time>2026-04-23T12:28:05Z</time></trkpt><trkpt lat="46.33150503132929" lon="12.327526687604754"><ele>509.0</ele><time>2026-04-23T12:28:06Z</time></trkpt><trkpt lat="46.33168628485816" lon="12.327721571076527"><ele>509.0</ele><time>2026-04-23T12:28:07Z</time></trkpt><trkpt lat="46.33186030003538" lon="12.327934817254674"><ele>509.0</ele><time>2026-04-23T12:28:08Z</time></trkpt><trkpt lat="46.33202177961772" lon="12.328185288410086"><ele>517.0</ele><time>2026-04-23T12:28:09Z</time></trkpt><trkpt lat="46.33217295330362" lon="12.328459001152476"><ele>525.0</ele><time>2026-04-23T12:28:10Z</time></trkpt><trkpt lat="46.332324470670606" lon="12.328738582457131"><ele>512.0</ele><time>2026-04-23T12:28:11Z</time></trkpt><trkpt lat="46.33247233845555" lon="12.32902583025545"><ele>499.0</ele><time>2026-04-23T12:28:12Z</time></trkpt><trkpt lat="46.33259587856893" lon="12.329307352578331"><ele>499.0</ele><time>2026-04-23T12:28:13Z</time></trkpt><trkpt lat="46.33269845198397" lon="12.329551822885294"><ele>499.0</ele><time>2026-04-23T12:28:14Z</time></trkpt><trkpt lat="46.33278193536741" lon="12.329760602387395"><ele>499.0</ele><time>2026-04-23T12:28:15Z</time></trkpt><trkpt lat="46.332839932965655" lon="12.329947852756076"><ele>495.5</ele><time>2026-04-23T12:28:16Z</time></trkpt><trkpt lat="46.332886899782466" lon="12.330113229737917"><ele>492.0</ele><time>2026-04-23T12:28:17Z</time></trkpt><trkpt lat="46.33295111685004" lon="12.330242030260743"><ele>488.5</ele><time>2026-04-23T12:28:18Z</time></trkpt><trkpt lat="46.33304232240283" lon="12.33035339543773"><ele>485.0</ele><time>2026-04-23T12:28:19Z</time></trkpt><trkpt lat="46.333166817285395" lon="12.330435897412654"><ele>488.75</ele><time>2026-04-23T12:28:20Z</time></trkpt><trkpt lat="46.33329013069067" lon="12.330527038149238"><ele>492.5</ele><time>2026-04-23T12:28:21Z</time></trkpt><trkpt lat="46.33338229009056" lon="12.330678706541635"><ele>496.25</ele><time>2026-04-23T12:28:22Z</time></trkpt><trkpt lat="46.33347944425507" lon="12.330822585151964"><ele>500.0</ele><time>2026-04-23T12:28:23Z</time></trkpt><trkpt lat="46.33358463008283" lon="12.33092480521319"><ele>500.0</ele><time>2026-04-23T12:28:24Z</time></trkpt><trkpt lat="46.33373293770117" lon="12.330990946969663"><ele>500.0</ele><time>2026-04-23T12:28:25Z</time></trkpt><trkpt lat="46.333910674926074" lon="12.331022797397859"><ele>500.0</ele><time>2026-04-23T12:28:26Z</time></trkpt><trkpt lat="46.33408769109552" lon="12.331056807913887"><ele>508.75</ele><time>2026-04-23T12:28:27Z</time></trkpt><trkpt lat="46.33424035275191" lon="12.33108362716573"><ele>517.5</ele><time>2026-04-23T12:28:28Z</time></trkpt><trkpt lat="46.33438254135005" lon="12.33105610319953"><ele>526.25</ele><time>2026-04-23T12:28:29Z</time></trkpt><trkpt lat="46.33451928773806" lon="12.330983361713947"><ele>535.0</ele><time>2026-04-23T12:28:30Z</time></trkpt><trkpt lat="46.33465192571862" lon="12.330944622734433"><ele>538.5</ele><time>2026-04-23T12:28:31Z</time></trkpt><trkpt lat="46.33477951689196" lon="12.331021017007739"><ele>542.0</ele><time>2026-04-23T12:28:32Z</time></trkpt><trkpt lat="46.33492874431526" lon="12.331083409885306"><ele>545.5</ele><time>2026-04-23T12:28:33Z</time></trkpt><trkpt lat="46.335067121673326" lon="12.331171650788852"><ele>549.0</ele><time>2026-04-23T12:28:34Z</time></trkpt><trkpt lat="46.335205551845014" lon="12.331224922182631"><ele>549.0</ele><time>2026-04-23T12:28:35Z</time></trkpt><trkpt lat="46.335353119945864" lon="12.331207263618525"><ele>549.0</ele><time>2026-04-23T12:28:36Z</time></trkpt><trkpt lat="46.33551104229677" lon="12.33114013527394"><ele>549.0</ele><time>2026-04-23T12:28:37Z</time></trkpt><trkpt lat="46.33566539130613" lon="12.331069371215976"><ele>547.6666666666666</ele><time>2026-04-23T12:28:38Z</time></trkpt><trkpt lat="46.33582434491674" lon="12.331109568227378"><ele>546.3333333333333</ele><time>2026-04-23T12:28:39Z</time></trkpt><trkpt lat="46.33599543754508" lon="12.331162954214607"><ele>545.0</ele><time>2026-04-23T12:28:40Z</time></trkpt><trkpt lat="46.33618943593666" lon="12.331254393600828"><ele>544.3333333333333</ele><time>2026-04-23T12:28:41Z</time></trkpt><trkpt lat="46.336393557509375" lon="12.331282999485284"><ele>543.6666666666666</ele><time>2026-04-23T12:28:42Z</time></trkpt><trkpt lat="46.33661971880406" lon="12.3312781474654"><ele>543.0</ele><time>2026-04-23T12:28:43Z</time></trkpt><trkpt lat="46.33685252666309" lon="12.331266432345554"><ele>543.0</ele><time>2026-04-23T12:28:44Z</time></trkpt><trkpt lat="46.33705817006702" lon="12.33128433702335"><ele>543.0</ele><time>2026-04-23T12:28:45Z</time></trkpt><trkpt lat="46.33726076399708" lon="12.331312920773744"><ele>543.0</ele><time>2026-04-23T12:28:46Z</time></trkpt><trkpt lat="46.337450864278395" lon="12.331332763378454"><ele>547.0</ele><time>2026-04-23T12:28:47Z</time></trkpt><trkpt lat="46.33763237235875" lon="12.331346514147342"><ele>551.0</ele><time>2026-04-23T12:28:48Z</time></trkpt><trkpt lat="46.33779406423364" lon="12.331342229282814"><ele>555.0</ele><time>2026-04-23T12:28:49Z</time></trkpt><trkpt lat="46.337942332830565" lon="12.331315670608916"><ele>548.3333333333334</ele><time>2026-04-23T12:28:50Z</time></trkpt><trkpt lat="46.33807884429558" lon="12.331227672890945"><ele>541.6666666666667</ele><time>2026-04-23T12:28:51Z</time></trkpt><trkpt lat="46.338213502295176" lon="12.33112541567639"><ele>535.0</ele><time>2026-04-23T12:28:52Z</time></trkpt><trkpt lat="46.33835766277569" lon="12.331049789718724"><ele>535.0</ele><time>2026-04-23T12:28:53Z</time></trkpt><trkpt lat="46.33852637386326" lon="12.331025302071879"><ele>535.0</ele><time>2026-04-23T12:28:54Z</time></trkpt><trkpt lat="46.338720709402175" lon="12.331046460547489"><ele>535.0</ele><time>2026-04-23T12:28:55Z</time></trkpt><trkpt lat="46.3389314043337" lon="12.331059631278519"><ele>533.0</ele><time>2026-04-23T12:28:56Z</time></trkpt><trkpt lat="46.33912429867002" lon="12.33106221762358"><ele>531.0</ele><time>2026-04-23T12:28:56.999Z</time></trkpt><trkpt lat="46.339296070860726" lon="12.331043239698557"><ele>529.0</ele><time>2026-04-23T12:28:57.999Z</time></trkpt><trkpt lat="46.339483434243796" lon="12.330984196550302"><ele>529.0</ele><time>2026-04-23T12:28:58.999Z</time></trkpt><trkpt lat="46.33967841547064" lon="12.330892050564481"><ele>529.0</ele><time>2026-04-23T12:28:59.999Z</time></trkpt><trkpt lat="46.33985651309623" lon="12.33082620096935"><ele>529.0</ele><time>2026-04-23T12:29:00.999Z</time></trkpt><trkpt lat="46.34002640739498" lon="12.330788405807235"><ele>521.6666666666667</ele><time>2026-04-23T12:29:01.999Z</time></trkpt><trkpt lat="46.34018366041356" lon="12.330719849232535"><ele>514.3333333333334</ele><time>2026-04-23T12:29:02.999Z</time></trkpt><trkpt lat="46.34033820603245" lon="12.330587977453456"><ele>507.0</ele><time>2026-04-23T12:29:03.999Z</time></trkpt><trkpt lat="46.34046186700632" lon="12.330445817170828"><ele>517.6666666666666</ele><time>2026-04-23T12:29:04.999Z</time></trkpt><trkpt lat="46.340585326783945" lon="12.330354032115627"><ele>528.3333333333333</ele><time>2026-04-23T12:29:05.999Z</time></trkpt><trkpt lat="46.34074511317123" lon="12.330328959155839"><ele>539.0</ele><time>2026-04-23T12:29:06.999Z</time></trkpt><trkpt lat="46.34093414101603" lon="12.330339942542793"><ele>539.0</ele><time>2026-04-23T12:29:07.999Z</time></trkpt><trkpt lat="46.34112605974241" lon="12.330331614920537"><ele>539.0</ele><time>2026-04-23T12:29:08.999Z</time></trkpt><trkpt lat="46.341321500865945" lon="12.330286775049322"><ele>539.0</ele><time>2026-04-23T12:29:09.999Z</time></trkpt><trkpt lat="46.34151552415695" lon="12.330196733429663"><ele>529.3333333333333</ele><time>2026-04-23T12:29:10.999Z</time></trkpt><trkpt lat="46.341687957853274" lon="12.330081667012895"><ele>519.6666666666666</ele><time>2026-04-23T12:29:11.999Z</time></trkpt><trkpt lat="46.34184093520928" lon="12.329988687447852"><ele>510.0</ele><time>2026-04-23T12:29:12.999Z</time></trkpt><trkpt lat="46.34199349831984" lon="12.329933046877445"><ele>510.0</ele><time>2026-04-23T12:29:13.999Z</time></trkpt><trkpt lat="46.34214418035659" lon="12.329929909336224"><ele>510.0</ele><time>2026-04-23T12:29:14.999Z</time></trkpt><trkpt lat="46.342280189057895" lon="12.32997409470821"><ele>510.0</ele><time>2026-04-23T12:29:15.999Z</time></trkpt><trkpt lat="46.34241195682608" lon="12.330037400216783"><ele>510.0</ele><time>2026-04-23T12:29:16.999Z</time></trkpt><trkpt lat="46.3425540080503" lon="12.330093663842847"><ele>509.0</ele><time>2026-04-23T12:29:17.999Z</time></trkpt><trkpt lat="46.34270652632339" lon="12.330141490688712"><ele>508.0</ele><time>2026-04-23T12:29:18.999Z</time></trkpt><trkpt lat="46.34286400633429" lon="12.330190373929806"><ele>507.0</ele><time>2026-04-23T12:29:19.999Z</time></trkpt><trkpt lat="46.343020017648335" lon="12.330242409089223"><ele>510.0</ele><time>2026-04-23T12:29:20.999Z</time></trkpt><trkpt lat="46.34317191164693" lon="12.330280602457643"><ele>513.0</ele><time>2026-04-23T12:29:21.999Z</time></trkpt><trkpt lat="46.343339029845744" lon="12.330271658198953"><ele>516.0</ele><time>2026-04-23T12:29:22.999Z</time></trkpt><trkpt lat="46.343528743741956" lon="12.330203518569709"><ele>516.0</ele><time>2026-04-23T12:29:23.999Z</time></trkpt><trkpt lat="46.34372709969843" lon="12.330150247718784"><ele>516.0</ele><time>2026-04-23T12:29:24.999Z</time></trkpt><trkpt lat="46.343950141447884" lon="12.33015672834414"><ele>516.0</ele><time>2026-04-23T12:29:25.999Z</time></trkpt><trkpt lat="46.344184757832394" lon="12.330198938192428"><ele>517.0</ele><time>2026-04-23T12:29:26.999Z</time></trkpt><trkpt lat="46.34442130649586" lon="12.330242680577381"><ele>518.0</ele><time>2026-04-23T12:29:27.999Z</time></trkpt><trkpt lat="46.34462429801594" lon="12.330281462012646"><ele>519.0</ele><time>2026-04-23T12:29:28.999Z</time></trkpt><trkpt lat="46.344792232641815" lon="12.330314747269695"><ele>525.6666666666666</ele><time>2026-04-23T12:29:29.999Z</time></trkpt><trkpt lat="46.3449406318017" lon="12.330368287347186"><ele>532.3333333333333</ele><time>2026-04-23T12:29:30.999Z</time></trkpt><trkpt lat="46.34507291596942" lon="12.330490195009103"><ele>539.0</ele><time>2026-04-23T12:29:31.999Z</time></trkpt><trkpt lat="46.345203369411564" lon="12.330658224772755"><ele>531.6666666666666</ele><time>2026-04-23T12:29:32.999Z</time></trkpt><trkpt lat="46.345358731618845" lon="12.330800201679605"><ele>524.3333333333334</ele><time>2026-04-23T12:29:33.999Z</time></trkpt><trkpt lat="46.34555064295478" lon="12.330921209007654"><ele>517.0</ele><time>2026-04-23T12:29:34.999Z</time></trkpt><trkpt lat="46.34575510847985" lon="12.331060862794057"><ele>517.0</ele><time>2026-04-23T12:29:35.999Z</time></trkpt><trkpt lat="46.345973155559044" lon="12.331212386391691"><ele>517.0</ele><time>2026-04-23T12:29:36.999Z</time></trkpt><trkpt lat="46.34620170057126" lon="12.33137767762897"><ele>514.0</ele><time>2026-04-23T12:29:37.999Z</time></trkpt><trkpt lat="46.3464095658069" lon="12.331518868598083"><ele>511.0</ele><time>2026-04-23T12:29:38.999Z</time></trkpt><trkpt lat="46.34659352188522" lon="12.33164823457163"><ele>508.0</ele><time>2026-04-23T12:29:39.999Z</time></trkpt><trkpt lat="46.34675925720813" lon="12.331799528868938"><ele>508.0</ele><time>2026-04-23T12:29:40.999Z</time></trkpt><trkpt lat="46.34692102283294" lon="12.332003434952153"><ele>508.0</ele><time>2026-04-23T12:29:41.999Z</time></trkpt><trkpt lat="46.34707012582755" lon="12.332227568834139"><ele>508.0</ele><time>2026-04-23T12:29:42.999Z</time></trkpt><trkpt lat="46.34720917979481" lon="12.332423535342294"><ele>510.0</ele><time>2026-04-23T12:29:43.999Z</time></trkpt><trkpt lat="46.347339009179265" lon="12.332594569396855"><ele>512.0</ele><time>2026-04-23T12:29:44.999Z</time></trkpt><trkpt lat="46.34747603797806" lon="12.332743191558842"><ele>514.0</ele><time>2026-04-23T12:29:45.999Z</time></trkpt><trkpt lat="46.34765254505448" lon="12.332864937088749"><ele>514.0</ele><time>2026-04-23T12:29:46.999Z</time></trkpt><trkpt lat="46.34784652235342" lon="12.3329845247381"><ele>514.0</ele><time>2026-04-23T12:29:47.999Z</time></trkpt><trkpt lat="46.34804230296916" lon="12.333102029443214"><ele>514.0</ele><time>2026-04-23T12:29:48.999Z</time></trkpt><trkpt lat="46.348244655844454" lon="12.33322466161078"><ele>509.33333333333337</ele><time>2026-04-23T12:29:49.999Z</time></trkpt><trkpt lat="46.348443308265644" lon="12.333348342910398"><ele>504.66666666666663</ele><time>2026-04-23T12:29:50.999Z</time></trkpt><trkpt lat="46.348641767887706" lon="12.333487659231672"><ele>500.0</ele><time>2026-04-23T12:29:51.999Z</time></trkpt><trkpt lat="46.34883390641816" lon="12.333653825832643"><ele>497.5</ele><time>2026-04-23T12:29:52.999Z</time></trkpt><trkpt lat="46.3490213587518" lon="12.333839268474708"><ele>495.0</ele><time>2026-04-23T12:29:53.999Z</time></trkpt><trkpt lat="46.349212308215925" lon="12.334029462740181"><ele>495.0</ele><time>2026-04-23T12:29:54.999Z</time></trkpt><trkpt lat="46.34939701754536" lon="12.334213824512693"><ele>495.0</ele><time>2026-04-23T12:29:55.999Z</time></trkpt><trkpt lat="46.349569253306576" lon="12.334392191289142"><ele>495.0</ele><time>2026-04-23T12:29:56.999Z</time></trkpt><trkpt lat="46.349730165523255" lon="12.334570962853894"><ele>495.66666666666663</ele><time>2026-04-23T12:29:57.999Z</time></trkpt><trkpt lat="46.349879074701846" lon="12.334752862478013"><ele>496.3333333333333</ele><time>2026-04-23T12:29:58.999Z</time></trkpt><trkpt lat="46.3500176852837" lon="12.334935305947042"><ele>497.0</ele><time>2026-04-23T12:29:59.999Z</time></trkpt><trkpt lat="46.35014850292376" lon="12.335109575868614"><ele>497.0</ele><time>2026-04-23T12:30:01Z</time></trkpt><trkpt lat="46.350271310509264" lon="12.335277684008872"><ele>497.0</ele><time>2026-04-23T12:30:02Z</time></trkpt><trkpt lat="46.35039044019446" lon="12.335433911754908"><ele>497.0</ele><time>2026-04-23T12:30:03Z</time></trkpt><trkpt lat="46.35050452248078" lon="12.335579378392769"><ele>498.25</ele><time>2026-04-23T12:30:04Z</time></trkpt><trkpt lat="46.350616281357134" lon="12.335715796022775"><ele>499.5</ele><time>2026-04-23T12:30:05Z</time></trkpt><trkpt lat="46.35072465474504" lon="12.335862098181916"><ele>500.75</ele><time>2026-04-23T12:30:06Z</time></trkpt><trkpt lat="46.35082387837583" lon="12.336023127850362"><ele>502.0</ele><time>2026-04-23T12:30:07Z</time></trkpt><trkpt lat="46.35091279836019" lon="12.336199840873109"><ele>502.0</ele><time>2026-04-23T12:30:08Z</time></trkpt><trkpt lat="46.35100814630675" lon="12.336379367381094"><ele>502.0</ele><time>2026-04-23T12:30:09Z</time></trkpt><trkpt lat="46.35112249211383" lon="12.336548193484148"><ele>502.0</ele><time>2026-04-23T12:30:10Z</time></trkpt><trkpt lat="46.351258446344325" lon="12.336701117318977"><ele>501.5</ele><time>2026-04-23T12:30:11Z</time></trkpt><trkpt lat="46.351398413907255" lon="12.33683666356677"><ele>501.0</ele><time>2026-04-23T12:30:12Z</time></trkpt><trkpt lat="46.351522303144264" lon="12.336944712049709"><ele>500.5</ele><time>2026-04-23T12:30:13Z</time></trkpt><trkpt lat="46.35165049529205" lon="12.337010059227325"><ele>500.0</ele><time>2026-04-23T12:30:14Z</time></trkpt><trkpt lat="46.3517927500605" lon="12.337030718970139"><ele>500.0</ele><time>2026-04-23T12:30:15Z</time></trkpt><trkpt lat="46.35193753789792" lon="12.337004716317503"><ele>500.0</ele><time>2026-04-23T12:30:16Z</time></trkpt><trkpt lat="46.35208108133821" lon="12.336968420280984"><ele>500.0</ele><time>2026-04-23T12:30:17Z</time></trkpt><trkpt lat="46.35222613647749" lon="12.336966517292286"><ele>500.0</ele><time>2026-04-23T12:30:18Z</time></trkpt><trkpt lat="46.352372550307884" lon="12.33694323042601"><ele>502.0</ele><time>2026-04-23T12:30:19Z</time></trkpt><trkpt lat="46.35251793845126" lon="12.336871657450526"><ele>504.0</ele><time>2026-04-23T12:30:20Z</time></trkpt><trkpt lat="46.35267111652212" lon="12.33686315379921"><ele>506.0</ele><time>2026-04-23T12:30:21Z</time></trkpt><trkpt lat="46.3528306231235" lon="12.336857891703245"><ele>506.0</ele><time>2026-04-23T12:30:22Z</time></trkpt><trkpt lat="46.35300152007435" lon="12.336854353901014"><ele>506.0</ele><time>2026-04-23T12:30:23Z</time></trkpt><trkpt lat="46.35317798552672" lon="12.336879619651844"><ele>506.0</ele><time>2026-04-23T12:30:24Z</time></trkpt><trkpt lat="46.353339917919705" lon="12.3369343804128"><ele>503.25</ele><time>2026-04-23T12:30:25Z</time></trkpt><trkpt lat="46.353487013641185" lon="12.337000606555511"><ele>500.5</ele><time>2026-04-23T12:30:26Z</time></trkpt><trkpt lat="46.35361864618808" lon="12.337077573939634"><ele>497.75</ele><time>2026-04-23T12:30:27Z</time></trkpt><trkpt lat="46.35373960495234" lon="12.337153447078718"><ele>495.0</ele><time>2026-04-23T12:30:28Z</time></trkpt><trkpt lat="46.3538421718299" lon="12.337233327280787"><ele>496.6</ele><time>2026-04-23T12:30:29Z</time></trkpt><trkpt lat="46.353926155316486" lon="12.337330135290767"><ele>498.2</ele><time>2026-04-23T12:30:30Z</time></trkpt><trkpt lat="46.35398062020374" lon="12.337449148708243"><ele>499.79999999999995</ele><time>2026-04-23T12:30:31Z</time></trkpt><trkpt lat="46.354016041039046" lon="12.337561203146889"><ele>501.4</ele><time>2026-04-23T12:30:32Z</time></trkpt><trkpt lat="46.354059760180796" lon="12.337630797058113"><ele>503.0</ele><time>2026-04-23T12:30:33Z</time></trkpt><trkpt lat="46.35415293544528" lon="12.33769544299192"><ele>503.0</ele><time>2026-04-23T12:30:35Z</time></trkpt><trkpt lat="46.35424640059956" lon="12.337548554234607"><ele>503.0</ele><time>2026-04-23T12:30:36Z</time></trkpt><trkpt lat="46.35433726487822" lon="12.337531096830174"><ele>503.0</ele><time>2026-04-23T12:30:37Z</time></trkpt><trkpt lat="46.354434811478285" lon="12.337607951665529"><ele>503.0</ele><time>2026-04-23T12:30:38Z</time></trkpt><trkpt lat="46.35457847018475" lon="12.33767734311641"><ele>511.3333333333333</ele><time>2026-04-23T12:30:39Z</time></trkpt><trkpt lat="46.35475762326263" lon="12.33774855282663"><ele>519.6666666666666</ele><time>2026-04-23T12:30:40Z</time></trkpt><trkpt lat="46.35495743851348" lon="12.337806478741266"><ele>528.0</ele><time>2026-04-23T12:30:41Z</time></trkpt><trkpt lat="46.35517438324612" lon="12.337898821893907"><ele>528.0</ele><time>2026-04-23T12:30:42Z</time></trkpt><trkpt lat="46.355402755729294" lon="12.337984153337269"><ele>528.0</ele><time>2026-04-23T12:30:43Z</time></trkpt><trkpt lat="46.35564398237857" lon="12.338073082719394"><ele>512.5</ele><time>2026-04-23T12:30:44Z</time></trkpt><trkpt lat="46.3558808449215" lon="12.338167771951419"><ele>497.0</ele><time>2026-04-23T12:30:45Z</time></trkpt><trkpt lat="46.35609618041055" lon="12.338271491388618"><ele>497.0</ele><time>2026-04-23T12:30:46Z</time></trkpt><trkpt lat="46.356295763841274" lon="12.338413935096005"><ele>497.0</ele><time>2026-04-23T12:30:47Z</time></trkpt><trkpt lat="46.35649807501852" lon="12.338536117102366"><ele>497.0</ele><time>2026-04-23T12:30:48Z</time></trkpt><trkpt lat="46.356677891812325" lon="12.338698692961826"><ele>498.3333333333333</ele><time>2026-04-23T12:30:49Z</time></trkpt><trkpt lat="46.356835091612396" lon="12.338851750547065"><ele>499.66666666666663</ele><time>2026-04-23T12:30:50Z</time></trkpt><trkpt lat="46.3569661585872" lon="12.338982520923938"><ele>501.0</ele><time>2026-04-23T12:30:51Z</time></trkpt><trkpt lat="46.357101826837635" lon="12.339091390207608"><ele>504.66666666666663</ele><time>2026-04-23T12:30:52Z</time></trkpt><trkpt lat="46.3572478575151" lon="12.339201384041578"><ele>508.3333333333333</ele><time>2026-04-23T12:30:53Z</time></trkpt><trkpt lat="46.35742241214285" lon="12.339230061099354"><ele>512.0</ele><time>2026-04-23T12:30:54Z</time></trkpt><trkpt lat="46.35759519416166" lon="12.339301868722263"><ele>512.0</ele><time>2026-04-23T12:30:55Z</time></trkpt><trkpt lat="46.357781002319655" lon="12.33933865378115"><ele>512.0</ele><time>2026-04-23T12:30:56Z</time></trkpt><trkpt lat="46.35797485808918" lon="12.33941536849086"><ele>512.0</ele><time>2026-04-23T12:30:57Z</time></trkpt><trkpt lat="46.35817462129329" lon="12.339497860754982"><ele>508.66666666666663</ele><time>2026-04-23T12:30:58Z</time></trkpt><trkpt lat="46.35837226442954" lon="12.339603895877858"><ele>505.33333333333337</ele><time>2026-04-23T12:30:59Z</time></trkpt><trkpt lat="46.35858063933801" lon="12.339739606227765"><ele>502.0</ele><time>2026-04-23T12:31:00Z</time></trkpt><trkpt lat="46.358801767384264" lon="12.339874562012914"><ele>502.5</ele><time>2026-04-23T12:31:01Z</time></trkpt><trkpt lat="46.35902052518489" lon="12.34000642596628"><ele>503.0</ele><time>2026-04-23T12:31:02Z</time></trkpt><trkpt lat="46.359236323969206" lon="12.340136242506114"><ele>503.0</ele><time>2026-04-23T12:31:03Z</time></trkpt><trkpt lat="46.35943007778543" lon="12.340286023284794"><ele>503.0</ele><time>2026-04-23T12:31:04Z</time></trkpt><trkpt lat="46.359620189893036" lon="12.340384454529921"><ele>503.0</ele><time>2026-04-23T12:31:05Z</time></trkpt><trkpt lat="46.35978163587659" lon="12.340491683589192"><ele>507.0</ele><time>2026-04-23T12:31:06Z</time></trkpt><trkpt lat="46.35992970414777" lon="12.340616028337037"><ele>511.0</ele><time>2026-04-23T12:31:07Z</time></trkpt><trkpt lat="46.36006289830149" lon="12.340769667587365"><ele>515.0</ele><time>2026-04-23T12:31:07.999Z</time></trkpt><trkpt lat="46.36017929432707" lon="12.340976114217925"><ele>515.0</ele><time>2026-04-23T12:31:08.999Z</time></trkpt><trkpt lat="46.36029362961033" lon="12.341215169512546"><ele>515.0</ele><time>2026-04-23T12:31:09.999Z</time></trkpt><trkpt lat="46.36042266650181" lon="12.341467316086474"><ele>515.0</ele><time>2026-04-23T12:31:10.999Z</time></trkpt><trkpt lat="46.36055671069288" lon="12.341728107465633"><ele>512.0</ele><time>2026-04-23T12:31:11.999Z</time></trkpt><trkpt lat="46.36069131100715" lon="12.341993823582051"><ele>509.0</ele><time>2026-04-23T12:31:12.999Z</time></trkpt><trkpt lat="46.36082475228974" lon="12.342260484166694"><ele>509.0</ele><time>2026-04-23T12:31:13.999Z</time></trkpt><trkpt lat="46.36096322314548" lon="12.34252032397846"><ele>509.0</ele><time>2026-04-23T12:31:14.999Z</time></trkpt><trkpt lat="46.361108567709934" lon="12.342779593917358"><ele>506.5</ele><time>2026-04-23T12:31:15.999Z</time></trkpt><trkpt lat="46.36126991463532" lon="12.343048243093486"><ele>504.0</ele><time>2026-04-23T12:31:16.999Z</time></trkpt><trkpt lat="46.361447710683805" lon="12.343325627901836"><ele>513.5</ele><time>2026-04-23T12:31:17.999Z</time></trkpt><trkpt lat="46.36161752986046" lon="12.34358055593355"><ele>523.0</ele><time>2026-04-23T12:31:18.999Z</time></trkpt><trkpt lat="46.3617727580704" lon="12.343818605312798"><ele>519.0</ele><time>2026-04-23T12:31:19.999Z</time></trkpt><trkpt lat="46.36191859644312" lon="12.344039394523913"><ele>515.0</ele><time>2026-04-23T12:31:20.999Z</time></trkpt><trkpt lat="46.36204750614899" lon="12.344255829684801"><ele>511.0</ele><time>2026-04-23T12:31:21.999Z</time></trkpt><trkpt lat="46.36215216708389" lon="12.34448125405018"><ele>515.0</ele><time>2026-04-23T12:31:22.999Z</time></trkpt><trkpt lat="46.362229102293504" lon="12.344713460006236"><ele>519.0</ele><time>2026-04-23T12:31:23.999Z</time></trkpt><trkpt lat="46.362283961528824" lon="12.34494527080687"><ele>523.0</ele><time>2026-04-23T12:31:24.999Z</time></trkpt><trkpt lat="46.36234085218211" lon="12.345157296240224"><ele>523.0</ele><time>2026-04-23T12:31:25.999Z</time></trkpt><trkpt lat="46.36240187843508" lon="12.345343174351397"><ele>523.0</ele><time>2026-04-23T12:31:26.999Z</time></trkpt><trkpt lat="46.36248791936685" lon="12.345485639577179"><ele>523.0</ele><time>2026-04-23T12:31:27.999Z</time></trkpt><trkpt lat="46.36259193945622" lon="12.345591653382229"><ele>523.0</ele><time>2026-04-23T12:31:28.999Z</time></trkpt><trkpt lat="46.36271396347669" lon="12.345634985804065"><ele>525.25</ele><time>2026-04-23T12:31:29.999Z</time></trkpt><trkpt lat="46.36285547796671" lon="12.34562263093885"><ele>527.5</ele><time>2026-04-23T12:31:30.999Z</time></trkpt><trkpt lat="46.36300658026558" lon="12.345610755045888"><ele>529.75</ele><time>2026-04-23T12:31:31.999Z</time></trkpt><trkpt lat="46.36315640701462" lon="12.345667174786719"><ele>532.0</ele><time>2026-04-23T12:31:32.999Z</time></trkpt><trkpt lat="46.36330754104664" lon="12.345767421989628"><ele>532.0</ele><time>2026-04-23T12:31:33.999Z</time></trkpt><trkpt lat="46.36345582038165" lon="12.345930396429111"><ele>532.0</ele><time>2026-04-23T12:31:34.999Z</time></trkpt><trkpt lat="46.36358662132292" lon="12.346160075431671"><ele>532.0</ele><time>2026-04-23T12:31:35.999Z</time></trkpt><trkpt lat="46.36370455933962" lon="12.346403335218447"><ele>541.0</ele><time>2026-04-23T12:31:36.999Z</time></trkpt><trkpt lat="46.36382393673473" lon="12.346676137892834"><ele>550.0</ele><time>2026-04-23T12:31:37.999Z</time></trkpt><trkpt lat="46.363949452057795" lon="12.346965725959327"><ele>542.5</ele><time>2026-04-23T12:31:38.999Z</time></trkpt><trkpt lat="46.36406730344162" lon="12.347279371280594"><ele>535.0</ele><time>2026-04-23T12:31:39.999Z</time></trkpt><trkpt lat="46.36417164522969" lon="12.347595161757107"><ele>535.0</ele><time>2026-04-23T12:31:40.999Z</time></trkpt><trkpt lat="46.364284882833225" lon="12.347897814328501"><ele>535.0</ele><time>2026-04-23T12:31:41.999Z</time></trkpt><trkpt lat="46.36441752878639" lon="12.348184047389434"><ele>529.3333333333334</ele><time>2026-04-23T12:31:42.999Z</time></trkpt><trkpt lat="46.364545304989704" lon="12.348444123991548"><ele>523.6666666666666</ele><time>2026-04-23T12:31:43.999Z</time></trkpt><trkpt lat="46.36465168991677" lon="12.348663600626496"><ele>518.0</ele><time>2026-04-23T12:31:44.999Z</time></trkpt><trkpt lat="46.364733389293285" lon="12.348859056780812"><ele>530.3333333333333</ele><time>2026-04-23T12:31:45.999Z</time></trkpt><trkpt lat="46.364794972716744" lon="12.349054603830973"><ele>542.6666666666666</ele><time>2026-04-23T12:31:46.999Z</time></trkpt><trkpt lat="46.364800370932876" lon="12.349273091395657"><ele>555.0</ele><time>2026-04-23T12:31:47.999Z</time></trkpt><trkpt lat="46.36482059706885" lon="12.34950167895944"><ele>546.6666666666666</ele><time>2026-04-23T12:31:48.999Z</time></trkpt><trkpt lat="46.36486068258803" lon="12.349722642200357"><ele>538.3333333333333</ele><time>2026-04-23T12:31:49.999Z</time></trkpt><trkpt lat="46.364941492157165" lon="12.349944078726704"><ele>530.0</ele><time>2026-04-23T12:31:50.999Z</time></trkpt><trkpt lat="46.3650659568652" lon="12.350177025997604"><ele>530.0</ele><time>2026-04-23T12:31:51.999Z</time></trkpt><trkpt lat="46.36520223472813" lon="12.350438432714824"><ele>530.0</ele><time>2026-04-23T12:31:52.999Z</time></trkpt><trkpt lat="46.36539349546079" lon="12.350658623039005"><ele>537.5</ele><time>2026-04-23T12:31:53.999Z</time></trkpt><trkpt lat="46.36558749582716" lon="12.35090352224874"><ele>545.0</ele><time>2026-04-23T12:31:54.999Z</time></trkpt><trkpt lat="46.36579869762837" lon="12.35113761966702"><ele>530.0</ele><time>2026-04-23T12:31:55.999Z</time></trkpt><trkpt lat="46.36601568337716" lon="12.351380811655531"><ele>515.0</ele><time>2026-04-23T12:31:56.999Z</time></trkpt><trkpt lat="46.366252428068705" lon="12.351603404900754"><ele>530.5</ele><time>2026-04-23T12:31:57.999Z</time></trkpt><trkpt lat="46.36650366993441" lon="12.351816720337567"><ele>546.0</ele><time>2026-04-23T12:31:58.999Z</time></trkpt><trkpt lat="46.36676310031373" lon="12.352025819361497"><ele>546.0</ele><time>2026-04-23T12:31:59.999Z</time></trkpt><trkpt lat="46.36700322998624" lon="12.352252543218508"><ele>546.0</ele><time>2026-04-23T12:32:00.999Z</time></trkpt><trkpt lat="46.367238907002466" lon="12.352418854996175"><ele>546.0</ele><time>2026-04-23T12:32:01.999Z</time></trkpt><trkpt lat="46.36744543456072" lon="12.352609617586483"><ele>546.0</ele><time>2026-04-23T12:32:02.999Z</time></trkpt><trkpt lat="46.36763096865375" lon="12.352794898727078"><ele>546.0</ele><time>2026-04-23T12:32:03.999Z</time></trkpt><trkpt lat="46.36778732102036" lon="12.352971684928029"><ele>546.0</ele><time>2026-04-23T12:32:04.999Z</time></trkpt><trkpt lat="46.36793127505421" lon="12.353139119649136"><ele>546.0</ele><time>2026-04-23T12:32:05.999Z</time></trkpt><trkpt lat="46.368068248692246" lon="12.353308999730809"><ele>548.0</ele><time>2026-04-23T12:32:07Z</time></trkpt><trkpt lat="46.36819709807274" lon="12.353495734654127"><ele>550.0</ele><time>2026-04-23T12:32:08Z</time></trkpt><trkpt lat="46.368295367773364" lon="12.353713287741936"><ele>552.0</ele><time>2026-04-23T12:32:09Z</time></trkpt><trkpt lat="46.36837073780605" lon="12.353928572438418"><ele>547.25</ele><time>2026-04-23T12:32:10Z</time></trkpt><trkpt lat="46.36844131458131" lon="12.354107318170444"><ele>542.5</ele><time>2026-04-23T12:32:11Z</time></trkpt><trkpt lat="46.36851931147633" lon="12.354253764232196"><ele>537.75</ele><time>2026-04-23T12:32:12Z</time></trkpt><trkpt lat="46.368616112858895" lon="12.354342235185179"><ele>533.0</ele><time>2026-04-23T12:32:13Z</time></trkpt><trkpt lat="46.36872365883598" lon="12.35437062497055"><ele>535.3333333333333</ele><time>2026-04-23T12:32:14Z</time></trkpt><trkpt lat="46.36885941247262" lon="12.354348913064849"><ele>537.6666666666666</ele><time>2026-04-23T12:32:15Z</time></trkpt><trkpt lat="46.36902034287593" lon="12.354301003227098"><ele>540.0</ele><time>2026-04-23T12:32:16Z</time></trkpt><trkpt lat="46.36919794996921" lon="12.354274117986522"><ele>540.0</ele><time>2026-04-23T12:32:17Z</time></trkpt><trkpt lat="46.36938124489045" lon="12.35430010221105"><ele>540.0</ele><time>2026-04-23T12:32:18Z</time></trkpt><trkpt lat="46.369565819269624" lon="12.35435384170796"><ele>540.0</ele><time>2026-04-23T12:32:19Z</time></trkpt><trkpt lat="46.369738370359094" lon="12.35441718143846"><ele>543.6666666666666</ele><time>2026-04-23T12:32:20Z</time></trkpt><trkpt lat="46.369894687759505" lon="12.35449274184232"><ele>547.3333333333333</ele><time>2026-04-23T12:32:21Z</time></trkpt><trkpt lat="46.37005334041863" lon="12.354605809708167"><ele>551.0</ele><time>2026-04-23T12:32:22Z</time></trkpt><trkpt lat="46.370215669356405" lon="12.354733509894226"><ele>544.0</ele><time>2026-04-23T12:32:23Z</time></trkpt><trkpt lat="46.37038603061909" lon="12.35485640819735"><ele>537.0</ele><time>2026-04-23T12:32:24Z</time></trkpt><trkpt lat="46.37056103161647" lon="12.35496230284623"><ele>530.0</ele><time>2026-04-23T12:32:25Z</time></trkpt><trkpt lat="46.37073607106151" lon="12.355037465249316"><ele>530.0</ele><time>2026-04-23T12:32:26Z</time></trkpt><trkpt lat="46.37090839335834" lon="12.355100950183502"><ele>530.0</ele><time>2026-04-23T12:32:27Z</time></trkpt><trkpt lat="46.371093924341594" lon="12.355070296130673"><ele>530.0</ele><time>2026-04-23T12:32:28Z</time></trkpt><trkpt lat="46.37129460204603" lon="12.355014179323696"><ele>531.0</ele><time>2026-04-23T12:32:29Z</time></trkpt><trkpt lat="46.371516695302056" lon="12.354970280112976"><ele>532.0</ele><time>2026-04-23T12:32:30Z</time></trkpt><trkpt lat="46.371722872832464" lon="12.354954306886277"><ele>533.0</ele><time>2026-04-23T12:32:31Z</time></trkpt><trkpt lat="46.37194120478452" lon="12.354935318887932"><ele>533.0</ele><time>2026-04-23T12:32:32Z</time></trkpt><trkpt lat="46.372143012593725" lon="12.354871702422477"><ele>533.0</ele><time>2026-04-23T12:32:33Z</time></trkpt><trkpt lat="46.372217777043495" lon="12.354836729441926"><ele>533.0</ele><time>2026-04-23T12:32:34Z</time></trkpt><trkpt lat="46.37242264214778" lon="12.354742541437007"><ele>552.5</ele><time>2026-04-23T12:32:35Z</time></trkpt><trkpt lat="46.37263753274361" lon="12.354646598744885"><ele>572.0</ele><time>2026-04-23T12:32:36Z</time></trkpt><trkpt lat="46.372876075909325" lon="12.354575740156255"><ele>566.5</ele><time>2026-04-23T12:32:37Z</time></trkpt><trkpt lat="46.37312023204708" lon="12.354479433837117"><ele>561.0</ele><time>2026-04-23T12:32:38Z</time></trkpt><trkpt lat="46.37335589326542" lon="12.354367554121032"><ele>561.0</ele><time>2026-04-23T12:32:39Z</time></trkpt><trkpt lat="46.37359442792332" lon="12.354273032078327"><ele>561.0</ele><time>2026-04-23T12:32:40Z</time></trkpt><trkpt lat="46.37383273030057" lon="12.354170258729296"><ele>557.3333333333334</ele><time>2026-04-23T12:32:41Z</time></trkpt><trkpt lat="46.374058219670424" lon="12.35410627595126"><ele>553.6666666666667</ele><time>2026-04-23T12:32:42Z</time></trkpt><trkpt lat="46.3742624948588" lon="12.354056267295922"><ele>550.0</ele><time>2026-04-23T12:32:43Z</time></trkpt><trkpt lat="46.374477735751114" lon="12.354045309090603"><ele>551.0</ele><time>2026-04-23T12:32:44Z</time></trkpt><trkpt lat="46.374704910477234" lon="12.354059063850373"><ele>552.0</ele><time>2026-04-23T12:32:45Z</time></trkpt><trkpt lat="46.37493990108948" lon="12.35409842747699"><ele>552.0</ele><time>2026-04-23T12:32:46Z</time></trkpt><trkpt lat="46.37516760890526" lon="12.35417162979569"><ele>552.0</ele><time>2026-04-23T12:32:47Z</time></trkpt><trkpt lat="46.37539704709427" lon="12.354249708274498"><ele>559.0</ele><time>2026-04-23T12:32:48Z</time></trkpt><trkpt lat="46.375585656081675" lon="12.354347925948398"><ele>566.0</ele><time>2026-04-23T12:32:49Z</time></trkpt><trkpt lat="46.375745332325465" lon="12.354453376225944"><ele>573.0</ele><time>2026-04-23T12:32:50Z</time></trkpt><trkpt lat="46.375897863103496" lon="12.354567192740058"><ele>573.0</ele><time>2026-04-23T12:32:51Z</time></trkpt><trkpt lat="46.37603315750352" lon="12.354669471389059"><ele>573.0</ele><time>2026-04-23T12:32:52Z</time></trkpt><trkpt lat="46.37617138167085" lon="12.35470535044034"><ele>573.0</ele><time>2026-04-23T12:32:53Z</time></trkpt><trkpt lat="46.37628250017156" lon="12.354744982908757"><ele>573.0</ele><time>2026-04-23T12:32:54Z</time></trkpt><trkpt lat="46.37641002794008" lon="12.35470351836788"><ele>573.6666666666666</ele><time>2026-04-23T12:32:55Z</time></trkpt><trkpt lat="46.37656726169884" lon="12.354616161041832"><ele>574.3333333333333</ele><time>2026-04-23T12:32:56Z</time></trkpt><trkpt lat="46.376747068906624" lon="12.354518902497608"><ele>575.0</ele><time>2026-04-23T12:32:57Z</time></trkpt><trkpt lat="46.37690886451647" lon="12.354448941654834"><ele>575.0</ele><time>2026-04-23T12:32:58Z</time></trkpt><trkpt lat="46.37705804915816" lon="12.354359970956319"><ele>575.0</ele><time>2026-04-23T12:32:59Z</time></trkpt><trkpt lat="46.37721262358215" lon="12.354300428149008"><ele>575.0</ele><time>2026-04-23T12:33:00Z</time></trkpt><trkpt lat="46.377376136807996" lon="12.354231974428002"><ele>570.0</ele><time>2026-04-23T12:33:01Z</time></trkpt><trkpt lat="46.37753778464849" lon="12.354162077751436"><ele>565.0</ele><time>2026-04-23T12:33:02Z</time></trkpt><trkpt lat="46.37769511560869" lon="12.354083883991375"><ele>560.0</ele><time>2026-04-23T12:33:03Z</time></trkpt><trkpt lat="46.37784602595634" lon="12.35399155298703"><ele>561.3333333333333</ele><time>2026-04-23T12:33:04Z</time></trkpt><trkpt lat="46.37799054673379" lon="12.353866346751898"><ele>562.6666666666666</ele><time>2026-04-23T12:33:05Z</time></trkpt><trkpt lat="46.37812455337703" lon="12.353719337740767"><ele>564.0</ele><time>2026-04-23T12:33:06Z</time></trkpt><trkpt lat="46.37824724093481" lon="12.353584339620825"><ele>564.0</ele><time>2026-04-23T12:33:07Z</time></trkpt><trkpt lat="46.378359252548925" lon="12.353448661675323"><ele>564.0</ele><time>2026-04-23T12:33:08Z</time></trkpt><trkpt lat="46.37845008598889" lon="12.353293872722883"><ele>564.0</ele><time>2026-04-23T12:33:09Z</time></trkpt><trkpt lat="46.37852163894633" lon="12.35311890295194"><ele>564.0</ele><time>2026-04-23T12:33:10Z</time></trkpt><trkpt lat="46.378575506668135" lon="12.352942421591262"><ele>563.25</ele><time>2026-04-23T12:33:11Z</time></trkpt><trkpt lat="46.378658931062766" lon="12.3528139855249"><ele>562.5</ele><time>2026-04-23T12:33:12Z</time></trkpt><trkpt lat="46.37873285303588" lon="12.352684322064162"><ele>561.75</ele><time>2026-04-23T12:33:13Z</time></trkpt><trkpt lat="46.37885327091579" lon="12.352639657581477"><ele>561.0</ele><time>2026-04-23T12:33:13.999Z</time></trkpt><trkpt lat="46.378973533345075" lon="12.352605910949569"><ele>561.0</ele><time>2026-04-23T12:33:14.999Z</time></trkpt><trkpt lat="46.37912023527319" lon="12.352589950104429"><ele>561.0</ele><time>2026-04-23T12:33:15.999Z</time></trkpt><trkpt lat="46.37929969706089" lon="12.35256528463289"><ele>561.0</ele><time>2026-04-23T12:33:16.999Z</time></trkpt><trkpt lat="46.379506005881325" lon="12.352496567529627"><ele>552.5</ele><time>2026-04-23T12:33:17.999Z</time></trkpt><trkpt lat="46.379725229290806" lon="12.35240252398628"><ele>544.0</ele><time>2026-04-23T12:33:18.999Z</time></trkpt><trkpt lat="46.37995296764199" lon="12.35230482759526"><ele>569.5</ele><time>2026-04-23T12:33:19.999Z</time></trkpt><trkpt lat="46.38018513965593" lon="12.35218205663778"><ele>595.0</ele><time>2026-04-23T12:33:20.999Z</time></trkpt><trkpt lat="46.38042122223873" lon="12.3520889944874"><ele>590.0</ele><time>2026-04-23T12:33:21.999Z</time></trkpt><trkpt lat="46.380635414544315" lon="12.351998647980578"><ele>585.0</ele><time>2026-04-23T12:33:22.999Z</time></trkpt><trkpt lat="46.380829247402026" lon="12.351922492176872"><ele>580.0</ele><time>2026-04-23T12:33:23.999Z</time></trkpt><trkpt lat="46.381027544360414" lon="12.35189598025522"><ele>580.0</ele><time>2026-04-23T12:33:24.999Z</time></trkpt><trkpt lat="46.38123580001398" lon="12.351888305325385"><ele>580.0</ele><time>2026-04-23T12:33:25.999Z</time></trkpt><trkpt lat="46.38145698490912" lon="12.351859426646222"><ele>580.0</ele><time>2026-04-23T12:33:26.999Z</time></trkpt><trkpt lat="46.381650757211546" lon="12.35185779438501"><ele>579.3333333333334</ele><time>2026-04-23T12:33:27.999Z</time></trkpt><trkpt lat="46.38182597223178" lon="12.35187259148862"><ele>578.6666666666666</ele><time>2026-04-23T12:33:28.999Z</time></trkpt><trkpt lat="46.38199122068714" lon="12.351962910573953"><ele>578.0</ele><time>2026-04-23T12:33:29.999Z</time></trkpt><trkpt lat="46.3821733882093" lon="12.352022491517369"><ele>577.0</ele><time>2026-04-23T12:33:30.999Z</time></trkpt><trkpt lat="46.382381474861454" lon="12.352072610318272"><ele>576.0</ele><time>2026-04-23T12:33:31.999Z</time></trkpt><trkpt lat="46.382605918172096" lon="12.352085601772991"><ele>575.0</ele><time>2026-04-23T12:33:32.999Z</time></trkpt><trkpt lat="46.382822524380785" lon="12.352082544499263"><ele>575.0</ele><time>2026-04-23T12:33:33.999Z</time></trkpt><trkpt lat="46.38300311547362" lon="12.35209035558261"><ele>575.0</ele><time>2026-04-23T12:33:34.999Z</time></trkpt><trkpt lat="46.383149287801665" lon="12.352102195351602"><ele>575.0</ele><time>2026-04-23T12:33:35.999Z</time></trkpt><trkpt lat="46.383288514325855" lon="12.352104801358033"><ele>577.5</ele><time>2026-04-23T12:33:36.999Z</time></trkpt><trkpt lat="46.38342091875079" lon="12.352079808286506"><ele>580.0</ele><time>2026-04-23T12:33:37.999Z</time></trkpt><trkpt lat="46.38355214554294" lon="12.352002307677257"><ele>582.5</ele><time>2026-04-23T12:33:38.999Z</time></trkpt><trkpt lat="46.3836744894421" lon="12.351910044728728"><ele>585.0</ele><time>2026-04-23T12:33:39.999Z</time></trkpt><trkpt lat="46.38378703852444" lon="12.351884896153488"><ele>584.0</ele><time>2026-04-23T12:33:40.999Z</time></trkpt><trkpt lat="46.383881902086486" lon="12.35188107043361"><ele>583.0</ele><time>2026-04-23T12:33:41.999Z</time></trkpt><trkpt lat="46.3839634756" lon="12.351937476153811"><ele>582.0</ele><time>2026-04-23T12:33:42.999Z</time></trkpt><trkpt lat="46.384026220879704" lon="12.35203106685224"><ele>581.0</ele><time>2026-04-23T12:33:43.999Z</time></trkpt><trkpt lat="46.384102342294604" lon="12.352163991521959"><ele>580.0</ele><time>2026-04-23T12:33:44.999Z</time></trkpt><trkpt lat="46.384197105390676" lon="12.352319825482763"><ele>569.0</ele><time>2026-04-23T12:33:45.999Z</time></trkpt><trkpt lat="46.38431133209423" lon="12.352510394116146"><ele>558.0</ele><time>2026-04-23T12:33:46.999Z</time></trkpt><trkpt lat="46.38447094898668" lon="12.352678248702237"><ele>547.0</ele><time>2026-04-23T12:33:47.999Z</time></trkpt><trkpt lat="46.38464981178945" lon="12.352816304139331"><ele>551.5</ele><time>2026-04-23T12:33:48.999Z</time></trkpt><trkpt lat="46.38485216107733" lon="12.352917566849909"><ele>556.0</ele><time>2026-04-23T12:33:49.999Z</time></trkpt><trkpt lat="46.385083187663504" lon="12.35299240823357"><ele>549.5</ele><time>2026-04-23T12:33:50.999Z</time></trkpt><trkpt lat="46.385324475871904" lon="12.353048654805365"><ele>543.0</ele><time>2026-04-23T12:33:51.999Z</time></trkpt><trkpt lat="46.385575227182194" lon="12.353145606154024"><ele>543.0</ele><time>2026-04-23T12:33:52.999Z</time></trkpt><trkpt lat="46.38583811199655" lon="12.353226697281052"><ele>543.0</ele><time>2026-04-23T12:33:53.999Z</time></trkpt><trkpt lat="46.386114192840964" lon="12.35328766352381"><ele>545.5</ele><time>2026-04-23T12:33:54.999Z</time></trkpt><trkpt lat="46.386370654584546" lon="12.35337111252626"><ele>548.0</ele><time>2026-04-23T12:33:55.999Z</time></trkpt><trkpt lat="46.3866074123538" lon="12.353443124941085"><ele>548.0</ele><time>2026-04-23T12:33:56.999Z</time></trkpt><trkpt lat="46.38683183831771" lon="12.353511634230356"><ele>548.0</ele><time>2026-04-23T12:33:57.999Z</time></trkpt><trkpt lat="46.38704412673132" lon="12.353580043581022"><ele>548.0</ele><time>2026-04-23T12:33:58.999Z</time></trkpt><trkpt lat="46.387264129846564" lon="12.353684938287797"><ele>551.0</ele><time>2026-04-23T12:33:59.999Z</time></trkpt><trkpt lat="46.38748920870959" lon="12.353817654746042"><ele>554.0</ele><time>2026-04-23T12:34:00.999Z</time></trkpt><trkpt lat="46.38769231933654" lon="12.353953508486853"><ele>551.0</ele><time>2026-04-23T12:34:01.999Z</time></trkpt><trkpt lat="46.38788272849253" lon="12.354069987740871"><ele>548.0</ele><time>2026-04-23T12:34:02.999Z</time></trkpt><trkpt lat="46.38807372214087" lon="12.354168366278898"><ele>545.0</ele><time>2026-04-23T12:34:03.999Z</time></trkpt><trkpt lat="46.388294212912946" lon="12.354247801608302"><ele>545.0</ele><time>2026-04-23T12:34:04.999Z</time></trkpt><trkpt lat="46.388539704480706" lon="12.354293852206629"><ele>545.0</ele><time>2026-04-23T12:34:05.999Z</time></trkpt><trkpt lat="46.38880323463173" lon="12.354322674297732"><ele>550.0</ele><time>2026-04-23T12:34:06.999Z</time></trkpt><trkpt lat="46.38907523924031" lon="12.354372770171551"><ele>555.0</ele><time>2026-04-23T12:34:07.999Z</time></trkpt><trkpt lat="46.38935772583118" lon="12.354437001670716"><ele>555.0</ele><time>2026-04-23T12:34:08.999Z</time></trkpt><trkpt lat="46.38965005941754" lon="12.354516185654868"><ele>555.0</ele><time>2026-04-23T12:34:09.999Z</time></trkpt><trkpt lat="46.38994433020163" lon="12.354613924888056"><ele>541.5</ele><time>2026-04-23T12:34:10.999Z</time></trkpt><trkpt lat="46.390220959454986" lon="12.354718187206233"><ele>528.0</ele><time>2026-04-23T12:34:11.999Z</time></trkpt><trkpt lat="46.39047736636565" lon="12.354819259195558"><ele>535.0</ele><time>2026-04-23T12:34:13Z</time></trkpt><trkpt lat="46.39071862155386" lon="12.354911375391953"><ele>542.0</ele><time>2026-04-23T12:34:14Z</time></trkpt><trkpt lat="46.39095269897781" lon="12.354999035264928"><ele>542.0</ele><time>2026-04-23T12:34:15Z</time></trkpt><trkpt lat="46.391175799580054" lon="12.355094057955123"><ele>542.0</ele><time>2026-04-23T12:34:16Z</time></trkpt><trkpt lat="46.39139936308091" lon="12.355207975508998"><ele>551.5</ele><time>2026-04-23T12:34:17Z</time></trkpt><trkpt lat="46.391612246274775" lon="12.35533091974008"><ele>561.0</ele><time>2026-04-23T12:34:18Z</time></trkpt><trkpt lat="46.39182918687265" lon="12.35545674327751"><ele>546.0</ele><time>2026-04-23T12:34:19Z</time></trkpt><trkpt lat="46.392050898258944" lon="12.355579297630895"><ele>531.0</ele><time>2026-04-23T12:34:20Z</time></trkpt><trkpt lat="46.392276715837795" lon="12.35569264558584"><ele>531.0</ele><time>2026-04-23T12:34:21Z</time></trkpt><trkpt lat="46.39250490631287" lon="12.35579605518139"><ele>531.0</ele><time>2026-04-23T12:34:22Z</time></trkpt><trkpt lat="46.392732973592" lon="12.355885791201086"><ele>531.0</ele><time>2026-04-23T12:34:23Z</time></trkpt><trkpt lat="46.39296469014633" lon="12.35594716046806"><ele>531.0</ele><time>2026-04-23T12:34:24Z</time></trkpt><trkpt lat="46.393198024809536" lon="12.35598450637197"><ele>536.5</ele><time>2026-04-23T12:34:25Z</time></trkpt><trkpt lat="46.39343206005451" lon="12.356017817347833"><ele>542.0</ele><time>2026-04-23T12:34:26Z</time></trkpt><trkpt lat="46.39366008287092" lon="12.356060617775382"><ele>545.0</ele><time>2026-04-23T12:34:27Z</time></trkpt><trkpt lat="46.393874728535046" lon="12.356107061805346"><ele>548.0</ele><time>2026-04-23T12:34:28Z</time></trkpt><trkpt lat="46.394073445379384" lon="12.356159905218192"><ele>551.0</ele><time>2026-04-23T12:34:29Z</time></trkpt><trkpt lat="46.394259228805645" lon="12.356219506830238"><ele>551.0</ele><time>2026-04-23T12:34:30Z</time></trkpt><trkpt lat="46.39443380121798" lon="12.356295146102273"><ele>551.0</ele><time>2026-04-23T12:34:31Z</time></trkpt><trkpt lat="46.394590457578786" lon="12.356388729961157"><ele>551.0</ele><time>2026-04-23T12:34:32Z</time></trkpt><trkpt lat="46.3947306210071" lon="12.356490444575497"><ele>543.6666666666666</ele><time>2026-04-23T12:34:33Z</time></trkpt><trkpt lat="46.39486588267633" lon="12.356574857484132"><ele>536.3333333333334</ele><time>2026-04-23T12:34:34Z</time></trkpt><trkpt lat="46.39502040502587" lon="12.356601701056695"><ele>529.0</ele><time>2026-04-23T12:34:35Z</time></trkpt><trkpt lat="46.395187924562826" lon="12.35660115478908"><ele>529.0</ele><time>2026-04-23T12:34:36Z</time></trkpt><trkpt lat="46.395355572269125" lon="12.356564875529033"><ele>529.0</ele><time>2026-04-23T12:34:37Z</time></trkpt><trkpt lat="46.395516251373074" lon="12.356476170402466"><ele>529.0</ele><time>2026-04-23T12:34:38Z</time></trkpt><trkpt lat="46.395679683366" lon="12.356346449376174"><ele>531.3333333333334</ele><time>2026-04-23T12:34:39Z</time></trkpt><trkpt lat="46.395857752862355" lon="12.35619348530637"><ele>533.6666666666666</ele><time>2026-04-23T12:34:40Z</time></trkpt><trkpt lat="46.39605348545698" lon="12.356087576295957"><ele>536.0</ele><time>2026-04-23T12:34:41Z</time></trkpt><trkpt lat="46.39624854514954" lon="12.355969225069412"><ele>535.0</ele><time>2026-04-23T12:34:42Z</time></trkpt><trkpt lat="46.39643169649696" lon="12.355859133692997"><ele>534.0</ele><time>2026-04-23T12:34:43Z</time></trkpt><trkpt lat="46.396589919269005" lon="12.35576093924503"><ele>533.0</ele><time>2026-04-23T12:34:44Z</time></trkpt><trkpt lat="46.3967292770189" lon="12.35567317910594"><ele>533.0</ele><time>2026-04-23T12:34:45Z</time></trkpt><trkpt lat="46.3968450996908" lon="12.355608325171021"><ele>533.0</ele><time>2026-04-23T12:34:46Z</time></trkpt><trkpt lat="46.39693338107741" lon="12.355572006618509"><ele>533.0</ele><time>2026-04-23T12:34:47Z</time></trkpt><trkpt lat="46.39703597938595" lon="12.355549614145842"><ele>533.0</ele><time>2026-04-23T12:34:48Z</time></trkpt><trkpt lat="46.39711855714075" lon="12.35561568585438"><ele>533.0</ele><time>2026-04-23T12:34:49Z</time></trkpt><trkpt lat="46.39719747380629" lon="12.355750983113019"><ele>532.6666666666666</ele><time>2026-04-23T12:34:50Z</time></trkpt><trkpt lat="46.39729385401623" lon="12.35593079974589"><ele>532.3333333333334</ele><time>2026-04-23T12:34:51Z</time></trkpt><trkpt lat="46.397382320983255" lon="12.356130024121008"><ele>532.0</ele><time>2026-04-23T12:34:52Z</time></trkpt><trkpt lat="46.397480911626026" lon="12.356316745881658"><ele>531.2</ele><time>2026-04-23T12:34:53Z</time></trkpt><trkpt lat="46.39756790932618" lon="12.356473556099166"><ele>530.4000000000001</ele><time>2026-04-23T12:34:54Z</time></trkpt><trkpt lat="46.39764408462091" lon="12.35661287427214"><ele>529.5999999999999</ele><time>2026-04-23T12:34:55Z</time></trkpt><trkpt lat="46.397698874416925" lon="12.356713044381879"><ele>528.8</ele><time>2026-04-23T12:34:56Z</time></trkpt><trkpt lat="46.39772658765545" lon="12.356837934248139"><ele>528.0</ele><time>2026-04-23T12:34:58Z</time></trkpt><trkpt lat="46.39763639442614" lon="12.356906526003334"><ele>528.0</ele><time>2026-04-23T12:35:00Z</time></trkpt><trkpt lat="46.39756523449453" lon="12.356954490066306"><ele>528.0</ele><time>2026-04-23T12:35:01Z</time></trkpt><trkpt lat="46.39748157092119" lon="12.357042186995391"><ele>528.0</ele><time>2026-04-23T12:35:02Z</time></trkpt><trkpt lat="46.39741313833535" lon="12.35716060265196"><ele>528.0</ele><time>2026-04-23T12:35:03Z</time></trkpt><trkpt lat="46.39736752815425" lon="12.357330433008288"><ele>528.0</ele><time>2026-04-23T12:35:04Z</time></trkpt><trkpt lat="46.39732731028635" lon="12.357529948057952"><ele>528.5</ele><time>2026-04-23T12:35:05Z</time></trkpt><trkpt lat="46.39727844984515" lon="12.357739361008157"><ele>529.0</ele><time>2026-04-23T12:35:06Z</time></trkpt><trkpt lat="46.39723026107946" lon="12.357923906589246"><ele>529.5</ele><time>2026-04-23T12:35:07Z</time></trkpt><trkpt lat="46.39719754154821" lon="12.358063477200396"><ele>530.0</ele><time>2026-04-23T12:35:08Z</time></trkpt><trkpt lat="46.3971979622369" lon="12.358179302804599"><ele>531.6</ele><time>2026-04-23T12:35:09Z</time></trkpt><trkpt lat="46.397234234322255" lon="12.358294096762476"><ele>533.2</ele><time>2026-04-23T12:35:10Z</time></trkpt><trkpt lat="46.397305126418026" lon="12.35838039801136"><ele>534.8</ele><time>2026-04-23T12:35:11Z</time></trkpt><trkpt lat="46.39739580884519" lon="12.358433821255653"><ele>536.4</ele><time>2026-04-23T12:35:12Z</time></trkpt><trkpt lat="46.39749510020239" lon="12.358509773279154"><ele>538.0</ele><time>2026-04-23T12:35:13Z</time></trkpt><trkpt lat="46.397573176146985" lon="12.358613719529465"><ele>538.0</ele><time>2026-04-23T12:35:14Z</time></trkpt><trkpt lat="46.39763043648021" lon="12.35874583627204"><ele>538.0</ele><time>2026-04-23T12:35:15Z</time></trkpt><trkpt lat="46.39764584243199" lon="12.358911559272181"><ele>538.0</ele><time>2026-04-23T12:35:16Z</time></trkpt><trkpt lat="46.39767880937932" lon="12.359100604538167"><ele>538.0</ele><time>2026-04-23T12:35:17Z</time></trkpt><trkpt lat="46.397678636540626" lon="12.359313738163342"><ele>543.3333333333334</ele><time>2026-04-23T12:35:17.999Z</time></trkpt><trkpt lat="46.39765863140402" lon="12.359533040852185"><ele>548.6666666666666</ele><time>2026-04-23T12:35:18.999Z</time></trkpt><trkpt lat="46.3976266122688" lon="12.359754836282752"><ele>554.0</ele><time>2026-04-23T12:35:19.999Z</time></trkpt><trkpt lat="46.39757760883567" lon="12.359972284987588"><ele>559.3333333333333</ele><time>2026-04-23T12:35:20.999Z</time></trkpt><trkpt lat="46.397602975792566" lon="12.360230932623004"><ele>564.6666666666666</ele><time>2026-04-23T12:35:21.999Z</time></trkpt><trkpt lat="46.397603377762756" lon="12.360492563773267"><ele>570.0</ele><time>2026-04-23T12:35:22.999Z</time></trkpt><trkpt lat="46.39759110003779" lon="12.360720380909605"><ele>573.25</ele><time>2026-04-23T12:35:23.999Z</time></trkpt><trkpt lat="46.39763716778469" lon="12.360927333368345"><ele>576.5</ele><time>2026-04-23T12:35:24.999Z</time></trkpt><trkpt lat="46.39765415778932" lon="12.36113651435112"><ele>579.75</ele><time>2026-04-23T12:35:25.999Z</time></trkpt><trkpt lat="46.39764222683736" lon="12.361351503603158"><ele>583.0</ele><time>2026-04-23T12:35:26.999Z</time></trkpt><trkpt lat="46.39761359696911" lon="12.361591800167988"><ele>583.75</ele><time>2026-04-23T12:35:27.999Z</time></trkpt><trkpt lat="46.397547449512125" lon="12.361830261298888"><ele>584.5</ele><time>2026-04-23T12:35:28.999Z</time></trkpt><trkpt lat="46.39753490347681" lon="12.362040015931155"><ele>585.25</ele><time>2026-04-23T12:35:29.999Z</time></trkpt><trkpt lat="46.39750302796912" lon="12.362202019289269"><ele>586.0</ele><time>2026-04-23T12:35:30.999Z</time></trkpt><trkpt lat="46.39742895197956" lon="12.36236310441894"><ele>586.0</ele><time>2026-04-23T12:35:31.999Z</time></trkpt><trkpt lat="46.397328716120015" lon="12.362542765170755"><ele>586.0</ele><time>2026-04-23T12:35:32.999Z</time></trkpt><trkpt lat="46.39724094380932" lon="12.362747626070943"><ele>586.0</ele><time>2026-04-23T12:35:33.999Z</time></trkpt><trkpt lat="46.39718637033925" lon="12.362978275826313"><ele>584.6666666666667</ele><time>2026-04-23T12:35:34.999Z</time></trkpt><trkpt lat="46.39716060420584" lon="12.363217961132396"><ele>583.3333333333334</ele><time>2026-04-23T12:35:35.999Z</time></trkpt><trkpt lat="46.3971664885509" lon="12.363471685917583"><ele>582.0</ele><time>2026-04-23T12:35:36.999Z</time></trkpt><trkpt lat="46.39719435059359" lon="12.363725147636613"><ele>581.8000000000001</ele><time>2026-04-23T12:35:37.999Z</time></trkpt><trkpt lat="46.39722784968357" lon="12.363919100449765"><ele>581.6</ele><time>2026-04-23T12:35:38.999Z</time></trkpt><trkpt lat="46.3972443651079" lon="12.36406641818261"><ele>581.4000000000001</ele><time>2026-04-23T12:35:39.999Z</time></trkpt><trkpt lat="46.39722404216333" lon="12.364185901952613"><ele>581.2</ele><time>2026-04-23T12:35:40.999Z</time></trkpt><trkpt lat="46.397148063814036" lon="12.36430831500668"><ele>581.0</ele><time>2026-04-23T12:35:41.999Z</time></trkpt><trkpt lat="46.39709460680539" lon="12.364485383172"><ele>597.0</ele><time>2026-04-23T12:35:42.999Z</time></trkpt><trkpt lat="46.39710163378073" lon="12.364709749347194"><ele>613.0</ele><time>2026-04-23T12:35:43.999Z</time></trkpt><trkpt lat="46.39709497584306" lon="12.364957632039099"><ele>629.0</ele><time>2026-04-23T12:35:44.999Z</time></trkpt><trkpt lat="46.39706698495979" lon="12.365202729357101"><ele>629.0</ele><time>2026-04-23T12:35:45.999Z</time></trkpt><trkpt lat="46.39702153160315" lon="12.365437223008461"><ele>629.0</ele><time>2026-04-23T12:35:46.999Z</time></trkpt><trkpt lat="46.39699362834975" lon="12.365670900887432"><ele>629.0</ele><time>2026-04-23T12:35:47.999Z</time></trkpt><trkpt lat="46.39700119195716" lon="12.365909251564975"><ele>625.5</ele><time>2026-04-23T12:35:48.999Z</time></trkpt><trkpt lat="46.39704035889396" lon="12.366148274358377"><ele>622.0</ele><time>2026-04-23T12:35:49.999Z</time></trkpt><trkpt lat="46.39708529422781" lon="12.366351270939157"><ele>618.5</ele><time>2026-04-23T12:35:50.999Z</time></trkpt><trkpt lat="46.39709527914091" lon="12.366536277701517"><ele>615.0</ele><time>2026-04-23T12:35:51.999Z</time></trkpt><trkpt lat="46.397090359291866" lon="12.366701583087794"><ele>614.1666666666666</ele><time>2026-04-23T12:35:52.999Z</time></trkpt><trkpt lat="46.397087055482054" lon="12.366855429007396"><ele>613.3333333333334</ele><time>2026-04-23T12:35:53.999Z</time></trkpt><trkpt lat="46.39705558667617" lon="12.366954903146699"><ele>612.5</ele><time>2026-04-23T12:35:54.999Z</time></trkpt><trkpt lat="46.3970139517915" lon="12.367029276330967"><ele>611.6666666666667</ele><time>2026-04-23T12:35:55.999Z</time></trkpt><trkpt lat="46.396946036493645" lon="12.367079770993747"><ele>610.8333333333334</ele><time>2026-04-23T12:35:56.999Z</time></trkpt><trkpt lat="46.396853135774684" lon="12.36708415768287"><ele>610.0</ele><time>2026-04-23T12:35:57.999Z</time></trkpt><trkpt lat="46.39674147503287" lon="12.367068567847781"><ele>610.0</ele><time>2026-04-23T12:35:58.999Z</time></trkpt><trkpt lat="46.39661638826533" lon="12.367053754014156"><ele>610.0</ele><time>2026-04-23T12:35:59.999Z</time></trkpt><trkpt lat="46.39649259965074" lon="12.367014747813194"><ele>610.0</ele><time>2026-04-23T12:36:00.999Z</time></trkpt><trkpt lat="46.39638698417587" lon="12.366930511996149"><ele>610.0</ele><time>2026-04-23T12:36:01.999Z</time></trkpt><trkpt lat="46.39629349912419" lon="12.366805244042995"><ele>610.25</ele><time>2026-04-23T12:36:02.999Z</time></trkpt><trkpt lat="46.396191548500404" lon="12.366683278679746"><ele>610.5</ele><time>2026-04-23T12:36:03.999Z</time></trkpt><trkpt lat="46.39605296613665" lon="12.366608036946802"><ele>610.75</ele><time>2026-04-23T12:36:04.999Z</time></trkpt><trkpt lat="46.39589801292114" lon="12.366560103749112"><ele>611.0</ele><time>2026-04-23T12:36:05.999Z</time></trkpt><trkpt lat="46.395744095375115" lon="12.366503651632865"><ele>611.0</ele><time>2026-04-23T12:36:06.999Z</time></trkpt><trkpt lat="46.39560344250955" lon="12.36646357706941"><ele>611.0</ele><time>2026-04-23T12:36:07.999Z</time></trkpt><trkpt lat="46.3954661542243" lon="12.366474708283087"><ele>611.0</ele><time>2026-04-23T12:36:08.999Z</time></trkpt><trkpt lat="46.395331246148885" lon="12.366522768954946"><ele>611.0</ele><time>2026-04-23T12:36:09.999Z</time></trkpt><trkpt lat="46.39520383632018" lon="12.36660423509083"><ele>613.0</ele><time>2026-04-23T12:36:10.999Z</time></trkpt><trkpt lat="46.395089459348824" lon="12.366716631543571"><ele>615.0</ele><time>2026-04-23T12:36:11.999Z</time></trkpt><trkpt lat="46.39499553856193" lon="12.366866906637123"><ele>617.0</ele><time>2026-04-23T12:36:12.999Z</time></trkpt><trkpt lat="46.3949235315208" lon="12.367037869727852"><ele>619.0</ele><time>2026-04-23T12:36:13.999Z</time></trkpt><trkpt lat="46.394871236177764" lon="12.367226144888567"><ele>619.5</ele><time>2026-04-23T12:36:14.999Z</time></trkpt><trkpt lat="46.39483343423533" lon="12.367422768760576"><ele>620.0</ele><time>2026-04-23T12:36:15.999Z</time></trkpt><trkpt lat="46.39480412038227" lon="12.367624083735542"><ele>620.5</ele><time>2026-04-23T12:36:16.999Z</time></trkpt><trkpt lat="46.394773314036335" lon="12.367820066735725"><ele>621.0</ele><time>2026-04-23T12:36:17.999Z</time></trkpt><trkpt lat="46.39474098185154" lon="12.367991893063635"><ele>621.4</ele><time>2026-04-23T12:36:19Z</time></trkpt><trkpt lat="46.39470456432996" lon="12.368137037213838"><ele>621.8</ele><time>2026-04-23T12:36:20Z</time></trkpt><trkpt lat="46.394653031057246" lon="12.36826852672293"><ele>622.1999999999999</ele><time>2026-04-23T12:36:21Z</time></trkpt><trkpt lat="46.39457991333023" lon="12.368375767300089"><ele>622.6</ele><time>2026-04-23T12:36:22Z</time></trkpt><trkpt lat="46.394508927293444" lon="12.368495024040381"><ele>623.0</ele><time>2026-04-23T12:36:23Z</time></trkpt><trkpt lat="46.394467235242935" lon="12.368649290657471"><ele>625.6</ele><time>2026-04-23T12:36:24Z</time></trkpt><trkpt lat="46.39444246544557" lon="12.368812296377449"><ele>628.1999999999999</ele><time>2026-04-23T12:36:25Z</time></trkpt><trkpt lat="46.394416423973254" lon="12.368947164790857"><ele>630.8</ele><time>2026-04-23T12:36:26Z</time></trkpt><trkpt lat="46.39436945326617" lon="12.369058120435334"><ele>633.4</ele><time>2026-04-23T12:36:27Z</time></trkpt><trkpt lat="46.39430241669768" lon="12.36914413987199"><ele>636.0</ele><time>2026-04-23T12:36:28Z</time></trkpt><trkpt lat="46.39421630076388" lon="12.3692042606288"><ele>636.3333333333334</ele><time>2026-04-23T12:36:29Z</time></trkpt><trkpt lat="46.394139244169004" lon="12.36924681117671"><ele>636.6666666666666</ele><time>2026-04-23T12:36:30Z</time></trkpt><trkpt lat="46.394056694903824" lon="12.369293957093705"><ele>637.0</ele><time>2026-04-23T12:36:31Z</time></trkpt><trkpt lat="46.39398626796725" lon="12.369286070427528"><ele>637.3333333333333</ele><time>2026-04-23T12:36:32Z</time></trkpt><trkpt lat="46.39387552437294" lon="12.369247390370429"><ele>637.6666666666666</ele><time>2026-04-23T12:36:34Z</time></trkpt><trkpt lat="46.39383368732454" lon="12.369174105642342"><ele>638.0</ele><time>2026-04-23T12:36:35Z</time></trkpt><trkpt lat="46.39380627321836" lon="12.369073613012894"><ele>638.1999999999999</ele><time>2026-04-23T12:36:36Z</time></trkpt><trkpt lat="46.393792771263215" lon="12.368966390390668"><ele>638.4</ele><time>2026-04-23T12:36:37Z</time></trkpt><trkpt lat="46.39380039943011" lon="12.368858165588938"><ele>638.5999999999999</ele><time>2026-04-23T12:36:38Z</time></trkpt><trkpt lat="46.39388705754335" lon="12.368719028404266"><ele>638.8</ele><time>2026-04-23T12:36:40Z</time></trkpt><trkpt lat="46.39388595566263" lon="12.368533815041356"><ele>639.0</ele><time>2026-04-23T12:36:43Z</time></trkpt><trkpt lat="46.3937788231836" lon="12.368550673712704"><ele>639.25</ele><time>2026-04-23T12:36:45Z</time></trkpt><trkpt lat="46.39369431806286" lon="12.368550673713383"><ele>639.5</ele><time>2026-04-23T12:36:47Z</time></trkpt><trkpt lat="46.393758454534634" lon="12.368445841082771"><ele>639.75</ele><time>2026-04-23T12:36:49Z</time></trkpt><trkpt lat="46.39363647946741" lon="12.368511899826405"><ele>640.0</ele><time>2026-04-23T12:38:33Z</time></trkpt><trkpt lat="46.39378257569491" lon="12.368697836171933"><ele>640.0</ele><time>2026-04-23T12:38:35Z</time></trkpt><trkpt lat="46.393547125735324" lon="12.368657332211875"><ele>640.0</ele><time>2026-04-23T12:38:47Z</time></trkpt><trkpt lat="46.39363233078154" lon="12.368620245482736"><ele>640.0</ele><time>2026-04-23T12:39:36.999Z</time></trkpt></trkseg></trk></gpx>